<?xml version='1.0' encoding='UTF-8' standalone='yes' ?>
<gpx xmlns="http://www.topografix.com/GPX/1/1" xmlns:geotracker="http://ilyabogdanovich.com/gpx/extensions/geotracker" xmlns:xsi="http://www.w3.org/2001/XMLSchema-instance" xsi:schemaLocation="http://www.topografix.com/GPX/1/1 http://www.topografix.com/GPX/1/1/gpx.xsd" version="1.1" creator="Enregistré par Geo Tracker pour Android de Ilya Bogdanovich">
  <metadata>
    <name>Centre Parc-9Kms2</name>
    <time>2021-10-28T06:48:50Z</time>
  </metadata>
  <trk>
    <name>Centre Parc-9Kms2</name>
    <extensions>
      <geotracker:meta>
        <geotracker:length>9228.4</geotracker:length>
        <geotracker:duration>8321000</geotracker:duration>
        <geotracker:creationtime>2021-10-28T06:48:50Z</geotracker:creationtime>
        <geotracker:activity>0</geotracker:activity>
      </geotracker:meta>
    </extensions>
    <trkseg>
      <trkpt lat="47.614643" lon="1.9403939">
        <ele>177</ele>
        <time>2021-10-28T06:48:50Z</time>
      </trkpt>
      <trkpt lat="47.614594" lon="1.9404551">
        <ele>181</ele>
        <time>2021-10-28T06:48:51Z</time>
      </trkpt>
      <trkpt lat="47.61459" lon="1.9404553">
        <ele>181</ele>
        <time>2021-10-28T06:48:53Z</time>
      </trkpt>
      <trkpt lat="47.614582" lon="1.9404422">
        <ele>179</ele>
        <time>2021-10-28T06:48:55Z</time>
      </trkpt>
      <trkpt lat="47.614582" lon="1.9404422">
        <ele>179</ele>
        <time>2021-10-28T06:48:56Z</time>
      </trkpt>
      <trkpt lat="47.614582" lon="1.9404422">
        <ele>179</ele>
        <time>2021-10-28T06:48:57Z</time>
      </trkpt>
      <trkpt lat="47.614582" lon="1.9404422">
        <ele>179</ele>
        <time>2021-10-28T06:48:58Z</time>
      </trkpt>
      <trkpt lat="47.614582" lon="1.9404422">
        <ele>179</ele>
        <time>2021-10-28T06:48:59Z</time>
      </trkpt>
      <trkpt lat="47.614582" lon="1.9404422">
        <ele>179</ele>
        <time>2021-10-28T06:49:00Z</time>
      </trkpt>
      <trkpt lat="47.614582" lon="1.9404422">
        <ele>179</ele>
        <time>2021-10-28T06:49:01Z</time>
      </trkpt>
      <trkpt lat="47.614582" lon="1.9404422">
        <ele>179</ele>
        <time>2021-10-28T06:49:02Z</time>
      </trkpt>
      <trkpt lat="47.614582" lon="1.9404422">
        <ele>179</ele>
        <time>2021-10-28T06:49:03Z</time>
      </trkpt>
      <trkpt lat="47.614582" lon="1.9404422">
        <ele>179</ele>
        <time>2021-10-28T06:49:04Z</time>
      </trkpt>
      <trkpt lat="47.614582" lon="1.9404422">
        <ele>179</ele>
        <time>2021-10-28T06:49:05Z</time>
      </trkpt>
      <trkpt lat="47.614582" lon="1.9404422">
        <ele>179</ele>
        <time>2021-10-28T06:49:06Z</time>
      </trkpt>
      <trkpt lat="47.614582" lon="1.9404422">
        <ele>179</ele>
        <time>2021-10-28T06:49:07Z</time>
      </trkpt>
      <trkpt lat="47.614582" lon="1.9404422">
        <ele>179</ele>
        <time>2021-10-28T06:49:07Z</time>
      </trkpt>
    </trkseg>
    <trkseg>
      <trkpt lat="47.614582" lon="1.9404422">
        <ele>179</ele>
        <time>2021-10-28T06:49:07Z</time>
      </trkpt>
      <trkpt lat="47.614582" lon="1.9404087">
        <ele>179</ele>
        <time>2021-10-28T06:52:08Z</time>
      </trkpt>
      <trkpt lat="47.614582" lon="1.9404087">
        <ele>179</ele>
        <time>2021-10-28T06:52:09Z</time>
      </trkpt>
      <trkpt lat="47.614582" lon="1.9404087">
        <ele>179</ele>
        <time>2021-10-28T06:52:10Z</time>
      </trkpt>
      <trkpt lat="47.614582" lon="1.9404087">
        <ele>179</ele>
        <time>2021-10-28T06:52:11Z</time>
      </trkpt>
      <trkpt lat="47.614582" lon="1.9404087">
        <ele>179</ele>
        <time>2021-10-28T06:52:12Z</time>
      </trkpt>
      <trkpt lat="47.614582" lon="1.9404087">
        <ele>179</ele>
        <time>2021-10-28T06:52:12Z</time>
      </trkpt>
    </trkseg>
    <trkseg>
      <trkpt lat="47.614582" lon="1.9404087">
        <ele>179</ele>
        <time>2021-10-28T06:52:12Z</time>
      </trkpt>
      <trkpt lat="47.614582" lon="1.9404917">
        <ele>176</ele>
        <time>2021-10-28T06:53:33Z</time>
      </trkpt>
      <trkpt lat="47.614582" lon="1.9404923">
        <ele>176</ele>
        <time>2021-10-28T06:53:35Z</time>
      </trkpt>
      <trkpt lat="47.614582" lon="1.9404924">
        <ele>176</ele>
        <time>2021-10-28T06:53:36Z</time>
      </trkpt>
      <trkpt lat="47.614582" lon="1.9404924">
        <ele>176</ele>
        <time>2021-10-28T06:53:37Z</time>
      </trkpt>
      <trkpt lat="47.614582" lon="1.9404924">
        <ele>176</ele>
        <time>2021-10-28T06:53:37Z</time>
      </trkpt>
    </trkseg>
    <trkseg>
      <trkpt lat="47.614582" lon="1.9404924">
        <ele>176</ele>
        <time>2021-10-28T06:53:37Z</time>
      </trkpt>
      <trkpt lat="47.614594" lon="1.94043">
        <ele>176</ele>
        <time>2021-10-28T06:54:21Z</time>
      </trkpt>
      <trkpt lat="47.614594" lon="1.94043">
        <ele>176</ele>
        <time>2021-10-28T06:54:22Z</time>
      </trkpt>
      <trkpt lat="47.614597" lon="1.9404383">
        <ele>176</ele>
        <time>2021-10-28T06:54:23Z</time>
      </trkpt>
      <trkpt lat="47.614613" lon="1.9404374">
        <ele>175</ele>
        <time>2021-10-28T06:54:25Z</time>
      </trkpt>
      <trkpt lat="47.614624" lon="1.9404285">
        <ele>177</ele>
        <time>2021-10-28T06:54:26Z</time>
      </trkpt>
      <trkpt lat="47.614655" lon="1.9404237">
        <ele>177</ele>
        <time>2021-10-28T06:54:29Z</time>
      </trkpt>
      <trkpt lat="47.614662" lon="1.9404366">
        <ele>177</ele>
        <time>2021-10-28T06:54:30Z</time>
      </trkpt>
      <trkpt lat="47.61466" lon="1.9404393">
        <ele>178</ele>
        <time>2021-10-28T06:54:32Z</time>
      </trkpt>
      <trkpt lat="47.614655" lon="1.9404397">
        <ele>178</ele>
        <time>2021-10-28T06:54:33Z</time>
      </trkpt>
      <trkpt lat="47.614655" lon="1.9404403">
        <ele>178</ele>
        <time>2021-10-28T06:54:34Z</time>
      </trkpt>
      <trkpt lat="47.614655" lon="1.9404403">
        <ele>178</ele>
        <time>2021-10-28T06:54:35Z</time>
      </trkpt>
      <trkpt lat="47.614655" lon="1.9404405">
        <ele>178</ele>
        <time>2021-10-28T06:54:36Z</time>
      </trkpt>
      <trkpt lat="47.614655" lon="1.9404405">
        <ele>178</ele>
        <time>2021-10-28T06:54:36Z</time>
      </trkpt>
    </trkseg>
    <trkseg>
      <trkpt lat="47.614655" lon="1.9404405">
        <ele>178</ele>
        <time>2021-10-28T06:54:36Z</time>
      </trkpt>
      <trkpt lat="47.614666" lon="1.9405278">
        <ele>179</ele>
        <time>2021-10-28T06:55:09Z</time>
      </trkpt>
      <trkpt lat="47.614662" lon="1.9405422">
        <ele>180</ele>
        <time>2021-10-28T06:55:10Z</time>
      </trkpt>
      <trkpt lat="47.614666" lon="1.9405621">
        <ele>180</ele>
        <time>2021-10-28T06:55:12Z</time>
      </trkpt>
      <trkpt lat="47.614666" lon="1.9405682">
        <ele>180</ele>
        <time>2021-10-28T06:55:13Z</time>
      </trkpt>
      <trkpt lat="47.61467" lon="1.9405798">
        <ele>179</ele>
        <time>2021-10-28T06:55:14Z</time>
      </trkpt>
      <trkpt lat="47.61467" lon="1.9405956">
        <ele>179</ele>
        <time>2021-10-28T06:55:15Z</time>
      </trkpt>
      <trkpt lat="47.614674" lon="1.9406115">
        <ele>179</ele>
        <time>2021-10-28T06:55:16Z</time>
      </trkpt>
      <trkpt lat="47.61467" lon="1.9406215">
        <ele>179</ele>
        <time>2021-10-28T06:55:17Z</time>
      </trkpt>
      <trkpt lat="47.614666" lon="1.940632">
        <ele>179</ele>
        <time>2021-10-28T06:55:18Z</time>
      </trkpt>
      <trkpt lat="47.61467" lon="1.9406434">
        <ele>179</ele>
        <time>2021-10-28T06:55:19Z</time>
      </trkpt>
      <trkpt lat="47.614674" lon="1.9406586">
        <ele>178</ele>
        <time>2021-10-28T06:55:20Z</time>
      </trkpt>
      <trkpt lat="47.61468" lon="1.9407009">
        <ele>178</ele>
        <time>2021-10-28T06:55:22Z</time>
      </trkpt>
      <trkpt lat="47.614685" lon="1.940732">
        <ele>178</ele>
        <time>2021-10-28T06:55:24Z</time>
      </trkpt>
      <trkpt lat="47.614685" lon="1.9407545">
        <ele>178</ele>
        <time>2021-10-28T06:55:25Z</time>
      </trkpt>
      <trkpt lat="47.614685" lon="1.9407704">
        <ele>178</ele>
        <time>2021-10-28T06:55:26Z</time>
      </trkpt>
      <trkpt lat="47.61469" lon="1.940785">
        <ele>178</ele>
        <time>2021-10-28T06:55:27Z</time>
      </trkpt>
      <trkpt lat="47.614685" lon="1.9408028">
        <ele>178</ele>
        <time>2021-10-28T06:55:28Z</time>
      </trkpt>
      <trkpt lat="47.61469" lon="1.940822">
        <ele>179</ele>
        <time>2021-10-28T06:55:29Z</time>
      </trkpt>
      <trkpt lat="47.61469" lon="1.940822">
        <ele>179</ele>
        <time>2021-10-28T06:55:29Z</time>
      </trkpt>
      <trkpt lat="47.61469" lon="1.9408625">
        <ele>179</ele>
        <time>2021-10-28T06:55:31Z</time>
      </trkpt>
      <trkpt lat="47.61469" lon="1.9408771">
        <ele>180</ele>
        <time>2021-10-28T06:55:32Z</time>
      </trkpt>
      <trkpt lat="47.614693" lon="1.9408938">
        <ele>180</ele>
        <time>2021-10-28T06:55:33Z</time>
      </trkpt>
      <trkpt lat="47.61469" lon="1.9409108">
        <ele>180</ele>
        <time>2021-10-28T06:55:34Z</time>
      </trkpt>
      <trkpt lat="47.614685" lon="1.9409257">
        <ele>180</ele>
        <time>2021-10-28T06:55:35Z</time>
      </trkpt>
      <trkpt lat="47.614685" lon="1.9409454">
        <ele>180</ele>
        <time>2021-10-28T06:55:36Z</time>
      </trkpt>
      <trkpt lat="47.61469" lon="1.9409561">
        <ele>180</ele>
        <time>2021-10-28T06:55:37Z</time>
      </trkpt>
      <trkpt lat="47.6147" lon="1.9409702">
        <ele>181</ele>
        <time>2021-10-28T06:55:38Z</time>
      </trkpt>
      <trkpt lat="47.6147" lon="1.9409796">
        <ele>182</ele>
        <time>2021-10-28T06:55:39Z</time>
      </trkpt>
      <trkpt lat="47.6147" lon="1.9409974">
        <ele>182</ele>
        <time>2021-10-28T06:55:40Z</time>
      </trkpt>
      <trkpt lat="47.6147" lon="1.9410145">
        <ele>183</ele>
        <time>2021-10-28T06:55:41Z</time>
      </trkpt>
      <trkpt lat="47.6147" lon="1.9410262">
        <ele>183</ele>
        <time>2021-10-28T06:55:42Z</time>
      </trkpt>
      <trkpt lat="47.614697" lon="1.9410454">
        <ele>183</ele>
        <time>2021-10-28T06:55:43Z</time>
      </trkpt>
      <trkpt lat="47.614697" lon="1.9410605">
        <ele>183</ele>
        <time>2021-10-28T06:55:44Z</time>
      </trkpt>
      <trkpt lat="47.614697" lon="1.9410752">
        <ele>184</ele>
        <time>2021-10-28T06:55:45Z</time>
      </trkpt>
      <trkpt lat="47.614697" lon="1.9410933">
        <ele>184</ele>
        <time>2021-10-28T06:55:46Z</time>
      </trkpt>
      <trkpt lat="47.614697" lon="1.9411081">
        <ele>185</ele>
        <time>2021-10-28T06:55:47Z</time>
      </trkpt>
      <trkpt lat="47.614693" lon="1.9411287">
        <ele>185</ele>
        <time>2021-10-28T06:55:48Z</time>
      </trkpt>
      <trkpt lat="47.614697" lon="1.9411503">
        <ele>186</ele>
        <time>2021-10-28T06:55:49Z</time>
      </trkpt>
      <trkpt lat="47.6147" lon="1.9411725">
        <ele>186</ele>
        <time>2021-10-28T06:55:50Z</time>
      </trkpt>
      <trkpt lat="47.614704" lon="1.941187">
        <ele>186</ele>
        <time>2021-10-28T06:55:51Z</time>
      </trkpt>
      <trkpt lat="47.614708" lon="1.941201">
        <ele>186</ele>
        <time>2021-10-28T06:55:52Z</time>
      </trkpt>
      <trkpt lat="47.61471" lon="1.9412194">
        <ele>187</ele>
        <time>2021-10-28T06:55:53Z</time>
      </trkpt>
      <trkpt lat="47.614708" lon="1.9412377">
        <ele>187</ele>
        <time>2021-10-28T06:55:54Z</time>
      </trkpt>
      <trkpt lat="47.614708" lon="1.9412407">
        <ele>186</ele>
        <time>2021-10-28T06:55:55Z</time>
      </trkpt>
      <trkpt lat="47.614704" lon="1.9412456">
        <ele>186</ele>
        <time>2021-10-28T06:55:56Z</time>
      </trkpt>
      <trkpt lat="47.614704" lon="1.9412459">
        <ele>186</ele>
        <time>2021-10-28T06:55:57Z</time>
      </trkpt>
      <trkpt lat="47.6147" lon="1.941258">
        <ele>187</ele>
        <time>2021-10-28T06:55:58Z</time>
      </trkpt>
      <trkpt lat="47.6147" lon="1.9412653">
        <ele>187</ele>
        <time>2021-10-28T06:55:59Z</time>
      </trkpt>
      <trkpt lat="47.6147" lon="1.9412813">
        <ele>187</ele>
        <time>2021-10-28T06:56:00Z</time>
      </trkpt>
      <trkpt lat="47.6147" lon="1.9412974">
        <ele>187</ele>
        <time>2021-10-28T06:56:01Z</time>
      </trkpt>
      <trkpt lat="47.614704" lon="1.941313">
        <ele>187</ele>
        <time>2021-10-28T06:56:02Z</time>
      </trkpt>
      <trkpt lat="47.614704" lon="1.9413327">
        <ele>187</ele>
        <time>2021-10-28T06:56:03Z</time>
      </trkpt>
      <trkpt lat="47.614704" lon="1.9413542">
        <ele>186</ele>
        <time>2021-10-28T06:56:04Z</time>
      </trkpt>
      <trkpt lat="47.614708" lon="1.9413733">
        <ele>186</ele>
        <time>2021-10-28T06:56:05Z</time>
      </trkpt>
      <trkpt lat="47.61471" lon="1.9413899">
        <ele>186</ele>
        <time>2021-10-28T06:56:06Z</time>
      </trkpt>
      <trkpt lat="47.61471" lon="1.941408">
        <ele>187</ele>
        <time>2021-10-28T06:56:07Z</time>
      </trkpt>
      <trkpt lat="47.61471" lon="1.9414257">
        <ele>187</ele>
        <time>2021-10-28T06:56:08Z</time>
      </trkpt>
      <trkpt lat="47.614716" lon="1.941448">
        <ele>186</ele>
        <time>2021-10-28T06:56:09Z</time>
      </trkpt>
      <trkpt lat="47.61472" lon="1.9414676">
        <ele>186</ele>
        <time>2021-10-28T06:56:10Z</time>
      </trkpt>
      <trkpt lat="47.614727" lon="1.9414847">
        <ele>187</ele>
        <time>2021-10-28T06:56:11Z</time>
      </trkpt>
      <trkpt lat="47.61473" lon="1.9415044">
        <ele>187</ele>
        <time>2021-10-28T06:56:12Z</time>
      </trkpt>
      <trkpt lat="47.61473" lon="1.9415214">
        <ele>187</ele>
        <time>2021-10-28T06:56:13Z</time>
      </trkpt>
      <trkpt lat="47.614735" lon="1.9415401">
        <ele>187</ele>
        <time>2021-10-28T06:56:14Z</time>
      </trkpt>
      <trkpt lat="47.61474" lon="1.941559">
        <ele>187</ele>
        <time>2021-10-28T06:56:15Z</time>
      </trkpt>
      <trkpt lat="47.614735" lon="1.9415807">
        <ele>187</ele>
        <time>2021-10-28T06:56:16Z</time>
      </trkpt>
      <trkpt lat="47.614735" lon="1.9416027">
        <ele>187</ele>
        <time>2021-10-28T06:56:17Z</time>
      </trkpt>
      <trkpt lat="47.61474" lon="1.9416219">
        <ele>186</ele>
        <time>2021-10-28T06:56:18Z</time>
      </trkpt>
      <trkpt lat="47.61474" lon="1.9416419">
        <ele>186</ele>
        <time>2021-10-28T06:56:19Z</time>
      </trkpt>
      <trkpt lat="47.61474" lon="1.9416634">
        <ele>186</ele>
        <time>2021-10-28T06:56:20Z</time>
      </trkpt>
      <trkpt lat="47.614742" lon="1.9416817">
        <ele>187</ele>
        <time>2021-10-28T06:56:21Z</time>
      </trkpt>
      <trkpt lat="47.614742" lon="1.9417057">
        <ele>187</ele>
        <time>2021-10-28T06:56:22Z</time>
      </trkpt>
      <trkpt lat="47.614742" lon="1.9417267">
        <ele>187</ele>
        <time>2021-10-28T06:56:23Z</time>
      </trkpt>
      <trkpt lat="47.614742" lon="1.9417447">
        <ele>187</ele>
        <time>2021-10-28T06:56:24Z</time>
      </trkpt>
      <trkpt lat="47.61474" lon="1.9417596">
        <ele>187</ele>
        <time>2021-10-28T06:56:25Z</time>
      </trkpt>
      <trkpt lat="47.61474" lon="1.9417721">
        <ele>187</ele>
        <time>2021-10-28T06:56:26Z</time>
      </trkpt>
      <trkpt lat="47.614746" lon="1.9417828">
        <ele>187</ele>
        <time>2021-10-28T06:56:27Z</time>
      </trkpt>
      <trkpt lat="47.614746" lon="1.9418019">
        <ele>186</ele>
        <time>2021-10-28T06:56:28Z</time>
      </trkpt>
      <trkpt lat="47.61475" lon="1.9418207">
        <ele>186</ele>
        <time>2021-10-28T06:56:29Z</time>
      </trkpt>
      <trkpt lat="47.61476" lon="1.9418339">
        <ele>186</ele>
        <time>2021-10-28T06:56:30Z</time>
      </trkpt>
      <trkpt lat="47.61477" lon="1.9418402">
        <ele>185</ele>
        <time>2021-10-28T06:56:31Z</time>
      </trkpt>
      <trkpt lat="47.61477" lon="1.9418569">
        <ele>185</ele>
        <time>2021-10-28T06:56:32Z</time>
      </trkpt>
      <trkpt lat="47.61477" lon="1.9418719">
        <ele>185</ele>
        <time>2021-10-28T06:56:33Z</time>
      </trkpt>
      <trkpt lat="47.61477" lon="1.9418846">
        <ele>185</ele>
        <time>2021-10-28T06:56:34Z</time>
      </trkpt>
      <trkpt lat="47.614773" lon="1.941894">
        <ele>186</ele>
        <time>2021-10-28T06:56:35Z</time>
      </trkpt>
      <trkpt lat="47.614777" lon="1.9419109">
        <ele>186</ele>
        <time>2021-10-28T06:56:36Z</time>
      </trkpt>
      <trkpt lat="47.614777" lon="1.9419271">
        <ele>185</ele>
        <time>2021-10-28T06:56:37Z</time>
      </trkpt>
      <trkpt lat="47.614777" lon="1.9419482">
        <ele>185</ele>
        <time>2021-10-28T06:56:38Z</time>
      </trkpt>
      <trkpt lat="47.614777" lon="1.9419628">
        <ele>185</ele>
        <time>2021-10-28T06:56:39Z</time>
      </trkpt>
      <trkpt lat="47.614777" lon="1.9419777">
        <ele>185</ele>
        <time>2021-10-28T06:56:40Z</time>
      </trkpt>
      <trkpt lat="47.61478" lon="1.9419887">
        <ele>185</ele>
        <time>2021-10-28T06:56:41Z</time>
      </trkpt>
      <trkpt lat="47.614777" lon="1.9420038">
        <ele>186</ele>
        <time>2021-10-28T06:56:42Z</time>
      </trkpt>
      <trkpt lat="47.614773" lon="1.9420223">
        <ele>186</ele>
        <time>2021-10-28T06:56:43Z</time>
      </trkpt>
      <trkpt lat="47.614773" lon="1.942041">
        <ele>187</ele>
        <time>2021-10-28T06:56:44Z</time>
      </trkpt>
      <trkpt lat="47.614773" lon="1.9420595">
        <ele>187</ele>
        <time>2021-10-28T06:56:45Z</time>
      </trkpt>
      <trkpt lat="47.614773" lon="1.9420773">
        <ele>187</ele>
        <time>2021-10-28T06:56:46Z</time>
      </trkpt>
      <trkpt lat="47.61478" lon="1.942098">
        <ele>187</ele>
        <time>2021-10-28T06:56:47Z</time>
      </trkpt>
      <trkpt lat="47.614784" lon="1.942113">
        <ele>187</ele>
        <time>2021-10-28T06:56:48Z</time>
      </trkpt>
      <trkpt lat="47.614784" lon="1.9421302">
        <ele>188</ele>
        <time>2021-10-28T06:56:49Z</time>
      </trkpt>
      <trkpt lat="47.614788" lon="1.9421489">
        <ele>188</ele>
        <time>2021-10-28T06:56:50Z</time>
      </trkpt>
      <trkpt lat="47.61479" lon="1.9421706">
        <ele>188</ele>
        <time>2021-10-28T06:56:51Z</time>
      </trkpt>
      <trkpt lat="47.614796" lon="1.9421847">
        <ele>188</ele>
        <time>2021-10-28T06:56:52Z</time>
      </trkpt>
      <trkpt lat="47.614796" lon="1.9421936">
        <ele>188</ele>
        <time>2021-10-28T06:56:53Z</time>
      </trkpt>
      <trkpt lat="47.61479" lon="1.9422076">
        <ele>188</ele>
        <time>2021-10-28T06:56:54Z</time>
      </trkpt>
      <trkpt lat="47.614796" lon="1.9422233">
        <ele>188</ele>
        <time>2021-10-28T06:56:55Z</time>
      </trkpt>
      <trkpt lat="47.6148" lon="1.9422371">
        <ele>188</ele>
        <time>2021-10-28T06:56:56Z</time>
      </trkpt>
      <trkpt lat="47.614807" lon="1.9422531">
        <ele>187</ele>
        <time>2021-10-28T06:56:57Z</time>
      </trkpt>
      <trkpt lat="47.614807" lon="1.9422735">
        <ele>186</ele>
        <time>2021-10-28T06:56:58Z</time>
      </trkpt>
      <trkpt lat="47.61481" lon="1.9422953">
        <ele>185</ele>
        <time>2021-10-28T06:56:59Z</time>
      </trkpt>
      <trkpt lat="47.614815" lon="1.942313">
        <ele>185</ele>
        <time>2021-10-28T06:57:00Z</time>
      </trkpt>
      <trkpt lat="47.614822" lon="1.942331">
        <ele>184</ele>
        <time>2021-10-28T06:57:01Z</time>
      </trkpt>
      <trkpt lat="47.614826" lon="1.9423453">
        <ele>184</ele>
        <time>2021-10-28T06:57:02Z</time>
      </trkpt>
      <trkpt lat="47.614834" lon="1.9423577">
        <ele>184</ele>
        <time>2021-10-28T06:57:03Z</time>
      </trkpt>
      <trkpt lat="47.61484" lon="1.9423708">
        <ele>184</ele>
        <time>2021-10-28T06:57:04Z</time>
      </trkpt>
      <trkpt lat="47.614845" lon="1.942385">
        <ele>184</ele>
        <time>2021-10-28T06:57:05Z</time>
      </trkpt>
      <trkpt lat="47.614853" lon="1.9424008">
        <ele>185</ele>
        <time>2021-10-28T06:57:06Z</time>
      </trkpt>
      <trkpt lat="47.61486" lon="1.9424111">
        <ele>185</ele>
        <time>2021-10-28T06:57:07Z</time>
      </trkpt>
      <trkpt lat="47.61487" lon="1.942426">
        <ele>184</ele>
        <time>2021-10-28T06:57:08Z</time>
      </trkpt>
      <trkpt lat="47.614872" lon="1.9424386">
        <ele>184</ele>
        <time>2021-10-28T06:57:09Z</time>
      </trkpt>
      <trkpt lat="47.614876" lon="1.9424518">
        <ele>184</ele>
        <time>2021-10-28T06:57:10Z</time>
      </trkpt>
      <trkpt lat="47.61488" lon="1.9424702">
        <ele>184</ele>
        <time>2021-10-28T06:57:11Z</time>
      </trkpt>
      <trkpt lat="47.614887" lon="1.9424906">
        <ele>184</ele>
        <time>2021-10-28T06:57:12Z</time>
      </trkpt>
      <trkpt lat="47.61489" lon="1.9425102">
        <ele>183</ele>
        <time>2021-10-28T06:57:13Z</time>
      </trkpt>
      <trkpt lat="47.614895" lon="1.9425327">
        <ele>183</ele>
        <time>2021-10-28T06:57:14Z</time>
      </trkpt>
      <trkpt lat="47.6149" lon="1.9425501">
        <ele>182</ele>
        <time>2021-10-28T06:57:15Z</time>
      </trkpt>
      <trkpt lat="47.6149" lon="1.9425668">
        <ele>182</ele>
        <time>2021-10-28T06:57:16Z</time>
      </trkpt>
      <trkpt lat="47.61489" lon="1.9425836">
        <ele>181</ele>
        <time>2021-10-28T06:57:17Z</time>
      </trkpt>
      <trkpt lat="47.61489" lon="1.9425983">
        <ele>181</ele>
        <time>2021-10-28T06:57:18Z</time>
      </trkpt>
      <trkpt lat="47.614887" lon="1.9426194">
        <ele>180</ele>
        <time>2021-10-28T06:57:19Z</time>
      </trkpt>
      <trkpt lat="47.61489" lon="1.9426397">
        <ele>179</ele>
        <time>2021-10-28T06:57:20Z</time>
      </trkpt>
      <trkpt lat="47.614895" lon="1.9426535">
        <ele>179</ele>
        <time>2021-10-28T06:57:21Z</time>
      </trkpt>
      <trkpt lat="47.614895" lon="1.9426702">
        <ele>179</ele>
        <time>2021-10-28T06:57:22Z</time>
      </trkpt>
      <trkpt lat="47.614895" lon="1.9426893">
        <ele>179</ele>
        <time>2021-10-28T06:57:23Z</time>
      </trkpt>
      <trkpt lat="47.6149" lon="1.9427063">
        <ele>178</ele>
        <time>2021-10-28T06:57:24Z</time>
      </trkpt>
      <trkpt lat="47.6149" lon="1.942721">
        <ele>178</ele>
        <time>2021-10-28T06:57:25Z</time>
      </trkpt>
      <trkpt lat="47.614902" lon="1.9427391">
        <ele>178</ele>
        <time>2021-10-28T06:57:26Z</time>
      </trkpt>
      <trkpt lat="47.6149" lon="1.9427608">
        <ele>178</ele>
        <time>2021-10-28T06:57:27Z</time>
      </trkpt>
      <trkpt lat="47.6149" lon="1.9427804">
        <ele>178</ele>
        <time>2021-10-28T06:57:28Z</time>
      </trkpt>
      <trkpt lat="47.614902" lon="1.942796">
        <ele>178</ele>
        <time>2021-10-28T06:57:29Z</time>
      </trkpt>
      <trkpt lat="47.614906" lon="1.9428105">
        <ele>178</ele>
        <time>2021-10-28T06:57:30Z</time>
      </trkpt>
      <trkpt lat="47.61491" lon="1.9428295">
        <ele>178</ele>
        <time>2021-10-28T06:57:31Z</time>
      </trkpt>
      <trkpt lat="47.614914" lon="1.9428421">
        <ele>178</ele>
        <time>2021-10-28T06:57:32Z</time>
      </trkpt>
      <trkpt lat="47.614918" lon="1.9428525">
        <ele>178</ele>
        <time>2021-10-28T06:57:33Z</time>
      </trkpt>
      <trkpt lat="47.61492" lon="1.9428705">
        <ele>178</ele>
        <time>2021-10-28T06:57:34Z</time>
      </trkpt>
      <trkpt lat="47.61492" lon="1.9428926">
        <ele>178</ele>
        <time>2021-10-28T06:57:35Z</time>
      </trkpt>
      <trkpt lat="47.614925" lon="1.9429061">
        <ele>178</ele>
        <time>2021-10-28T06:57:36Z</time>
      </trkpt>
      <trkpt lat="47.61493" lon="1.9429238">
        <ele>179</ele>
        <time>2021-10-28T06:57:37Z</time>
      </trkpt>
      <trkpt lat="47.614933" lon="1.9429421">
        <ele>179</ele>
        <time>2021-10-28T06:57:38Z</time>
      </trkpt>
      <trkpt lat="47.614937" lon="1.9429572">
        <ele>179</ele>
        <time>2021-10-28T06:57:39Z</time>
      </trkpt>
      <trkpt lat="47.614937" lon="1.9429572">
        <ele>179</ele>
        <time>2021-10-28T06:57:40Z</time>
      </trkpt>
      <trkpt lat="47.614937" lon="1.9429572">
        <ele>179</ele>
        <time>2021-10-28T06:57:41Z</time>
      </trkpt>
      <trkpt lat="47.614933" lon="1.9430108">
        <ele>178</ele>
        <time>2021-10-28T06:57:42Z</time>
      </trkpt>
      <trkpt lat="47.614937" lon="1.9430349">
        <ele>178</ele>
        <time>2021-10-28T06:57:43Z</time>
      </trkpt>
      <trkpt lat="47.61494" lon="1.943049">
        <ele>177</ele>
        <time>2021-10-28T06:57:44Z</time>
      </trkpt>
      <trkpt lat="47.614944" lon="1.9430681">
        <ele>177</ele>
        <time>2021-10-28T06:57:45Z</time>
      </trkpt>
      <trkpt lat="47.614944" lon="1.9430866">
        <ele>177</ele>
        <time>2021-10-28T06:57:46Z</time>
      </trkpt>
      <trkpt lat="47.61495" lon="1.9431059">
        <ele>177</ele>
        <time>2021-10-28T06:57:47Z</time>
      </trkpt>
      <trkpt lat="47.614944" lon="1.9431249">
        <ele>177</ele>
        <time>2021-10-28T06:57:48Z</time>
      </trkpt>
      <trkpt lat="47.61495" lon="1.9431434">
        <ele>177</ele>
        <time>2021-10-28T06:57:49Z</time>
      </trkpt>
      <trkpt lat="47.61495" lon="1.9431602">
        <ele>177</ele>
        <time>2021-10-28T06:57:50Z</time>
      </trkpt>
      <trkpt lat="47.61495" lon="1.9431748">
        <ele>177</ele>
        <time>2021-10-28T06:57:51Z</time>
      </trkpt>
      <trkpt lat="47.614952" lon="1.9431883">
        <ele>177</ele>
        <time>2021-10-28T06:57:52Z</time>
      </trkpt>
      <trkpt lat="47.614952" lon="1.9432038">
        <ele>177</ele>
        <time>2021-10-28T06:57:53Z</time>
      </trkpt>
      <trkpt lat="47.614956" lon="1.9432182">
        <ele>178</ele>
        <time>2021-10-28T06:57:54Z</time>
      </trkpt>
      <trkpt lat="47.614952" lon="1.9432354">
        <ele>178</ele>
        <time>2021-10-28T06:57:55Z</time>
      </trkpt>
      <trkpt lat="47.614956" lon="1.9432514">
        <ele>178</ele>
        <time>2021-10-28T06:57:56Z</time>
      </trkpt>
      <trkpt lat="47.614956" lon="1.9432688">
        <ele>178</ele>
        <time>2021-10-28T06:57:57Z</time>
      </trkpt>
      <trkpt lat="47.61496" lon="1.9432874">
        <ele>177</ele>
        <time>2021-10-28T06:57:58Z</time>
      </trkpt>
      <trkpt lat="47.614964" lon="1.9433074">
        <ele>177</ele>
        <time>2021-10-28T06:57:59Z</time>
      </trkpt>
      <trkpt lat="47.614964" lon="1.943324">
        <ele>177</ele>
        <time>2021-10-28T06:58:00Z</time>
      </trkpt>
      <trkpt lat="47.614967" lon="1.94334">
        <ele>177</ele>
        <time>2021-10-28T06:58:01Z</time>
      </trkpt>
      <trkpt lat="47.614967" lon="1.9433602">
        <ele>177</ele>
        <time>2021-10-28T06:58:02Z</time>
      </trkpt>
      <trkpt lat="47.61497" lon="1.9433781">
        <ele>177</ele>
        <time>2021-10-28T06:58:03Z</time>
      </trkpt>
      <trkpt lat="47.61497" lon="1.9433953">
        <ele>177</ele>
        <time>2021-10-28T06:58:04Z</time>
      </trkpt>
      <trkpt lat="47.614975" lon="1.943409">
        <ele>177</ele>
        <time>2021-10-28T06:58:05Z</time>
      </trkpt>
      <trkpt lat="47.61498" lon="1.9434264">
        <ele>177</ele>
        <time>2021-10-28T06:58:06Z</time>
      </trkpt>
      <trkpt lat="47.61498" lon="1.9434419">
        <ele>176</ele>
        <time>2021-10-28T06:58:07Z</time>
      </trkpt>
      <trkpt lat="47.614983" lon="1.9434568">
        <ele>176</ele>
        <time>2021-10-28T06:58:08Z</time>
      </trkpt>
      <trkpt lat="47.614983" lon="1.9434745">
        <ele>176</ele>
        <time>2021-10-28T06:58:09Z</time>
      </trkpt>
      <trkpt lat="47.614986" lon="1.9434934">
        <ele>176</ele>
        <time>2021-10-28T06:58:10Z</time>
      </trkpt>
      <trkpt lat="47.61499" lon="1.9435098">
        <ele>176</ele>
        <time>2021-10-28T06:58:11Z</time>
      </trkpt>
      <trkpt lat="47.61499" lon="1.943531">
        <ele>176</ele>
        <time>2021-10-28T06:58:12Z</time>
      </trkpt>
      <trkpt lat="47.614994" lon="1.9435487">
        <ele>176</ele>
        <time>2021-10-28T06:58:13Z</time>
      </trkpt>
      <trkpt lat="47.614998" lon="1.9435599">
        <ele>176</ele>
        <time>2021-10-28T06:58:14Z</time>
      </trkpt>
      <trkpt lat="47.615" lon="1.9435741">
        <ele>176</ele>
        <time>2021-10-28T06:58:15Z</time>
      </trkpt>
      <trkpt lat="47.615" lon="1.9435904">
        <ele>176</ele>
        <time>2021-10-28T06:58:16Z</time>
      </trkpt>
      <trkpt lat="47.615" lon="1.9436088">
        <ele>176</ele>
        <time>2021-10-28T06:58:17Z</time>
      </trkpt>
      <trkpt lat="47.615" lon="1.9436283">
        <ele>175</ele>
        <time>2021-10-28T06:58:18Z</time>
      </trkpt>
      <trkpt lat="47.614998" lon="1.9436438">
        <ele>175</ele>
        <time>2021-10-28T06:58:19Z</time>
      </trkpt>
      <trkpt lat="47.615" lon="1.9436592">
        <ele>175</ele>
        <time>2021-10-28T06:58:20Z</time>
      </trkpt>
      <trkpt lat="47.615" lon="1.943677">
        <ele>175</ele>
        <time>2021-10-28T06:58:21Z</time>
      </trkpt>
      <trkpt lat="47.615005" lon="1.9436953">
        <ele>175</ele>
        <time>2021-10-28T06:58:22Z</time>
      </trkpt>
      <trkpt lat="47.615005" lon="1.9437163">
        <ele>175</ele>
        <time>2021-10-28T06:58:23Z</time>
      </trkpt>
      <trkpt lat="47.615005" lon="1.9437368">
        <ele>175</ele>
        <time>2021-10-28T06:58:24Z</time>
      </trkpt>
      <trkpt lat="47.615005" lon="1.9437555">
        <ele>175</ele>
        <time>2021-10-28T06:58:25Z</time>
      </trkpt>
      <trkpt lat="47.615005" lon="1.943773">
        <ele>175</ele>
        <time>2021-10-28T06:58:26Z</time>
      </trkpt>
      <trkpt lat="47.615005" lon="1.943791">
        <ele>175</ele>
        <time>2021-10-28T06:58:27Z</time>
      </trkpt>
      <trkpt lat="47.61501" lon="1.9438089">
        <ele>175</ele>
        <time>2021-10-28T06:58:28Z</time>
      </trkpt>
      <trkpt lat="47.615013" lon="1.9438274">
        <ele>175</ele>
        <time>2021-10-28T06:58:29Z</time>
      </trkpt>
      <trkpt lat="47.615013" lon="1.9438434">
        <ele>175</ele>
        <time>2021-10-28T06:58:30Z</time>
      </trkpt>
      <trkpt lat="47.615013" lon="1.9438604">
        <ele>175</ele>
        <time>2021-10-28T06:58:31Z</time>
      </trkpt>
      <trkpt lat="47.61502" lon="1.9438748">
        <ele>176</ele>
        <time>2021-10-28T06:58:32Z</time>
      </trkpt>
      <trkpt lat="47.615025" lon="1.9438902">
        <ele>176</ele>
        <time>2021-10-28T06:58:33Z</time>
      </trkpt>
      <trkpt lat="47.615025" lon="1.9439061">
        <ele>176</ele>
        <time>2021-10-28T06:58:34Z</time>
      </trkpt>
      <trkpt lat="47.615032" lon="1.9439261">
        <ele>176</ele>
        <time>2021-10-28T06:58:35Z</time>
      </trkpt>
      <trkpt lat="47.615036" lon="1.9439461">
        <ele>176</ele>
        <time>2021-10-28T06:58:36Z</time>
      </trkpt>
      <trkpt lat="47.61504" lon="1.9439671">
        <ele>176</ele>
        <time>2021-10-28T06:58:37Z</time>
      </trkpt>
      <trkpt lat="47.615044" lon="1.9439882">
        <ele>176</ele>
        <time>2021-10-28T06:58:38Z</time>
      </trkpt>
      <trkpt lat="47.615047" lon="1.9440037">
        <ele>175</ele>
        <time>2021-10-28T06:58:39Z</time>
      </trkpt>
      <trkpt lat="47.615055" lon="1.9440155">
        <ele>176</ele>
        <time>2021-10-28T06:58:40Z</time>
      </trkpt>
      <trkpt lat="47.615063" lon="1.9440265">
        <ele>176</ele>
        <time>2021-10-28T06:58:41Z</time>
      </trkpt>
      <trkpt lat="47.61507" lon="1.9440414">
        <ele>176</ele>
        <time>2021-10-28T06:58:42Z</time>
      </trkpt>
      <trkpt lat="47.615078" lon="1.944053">
        <ele>176</ele>
        <time>2021-10-28T06:58:43Z</time>
      </trkpt>
      <trkpt lat="47.615086" lon="1.9440694">
        <ele>176</ele>
        <time>2021-10-28T06:58:44Z</time>
      </trkpt>
      <trkpt lat="47.615093" lon="1.9440826">
        <ele>177</ele>
        <time>2021-10-28T06:58:45Z</time>
      </trkpt>
      <trkpt lat="47.6151" lon="1.9440932">
        <ele>177</ele>
        <time>2021-10-28T06:58:46Z</time>
      </trkpt>
      <trkpt lat="47.615112" lon="1.9440999">
        <ele>176</ele>
        <time>2021-10-28T06:58:47Z</time>
      </trkpt>
      <trkpt lat="47.615124" lon="1.944102">
        <ele>176</ele>
        <time>2021-10-28T06:58:48Z</time>
      </trkpt>
      <trkpt lat="47.61513" lon="1.9441099">
        <ele>176</ele>
        <time>2021-10-28T06:58:49Z</time>
      </trkpt>
      <trkpt lat="47.615143" lon="1.9441135">
        <ele>176</ele>
        <time>2021-10-28T06:58:50Z</time>
      </trkpt>
      <trkpt lat="47.615154" lon="1.9441202">
        <ele>177</ele>
        <time>2021-10-28T06:58:51Z</time>
      </trkpt>
      <trkpt lat="47.61516" lon="1.9441301">
        <ele>177</ele>
        <time>2021-10-28T06:58:52Z</time>
      </trkpt>
      <trkpt lat="47.615177" lon="1.9441317">
        <ele>176</ele>
        <time>2021-10-28T06:58:53Z</time>
      </trkpt>
      <trkpt lat="47.61519" lon="1.9441302">
        <ele>176</ele>
        <time>2021-10-28T06:58:54Z</time>
      </trkpt>
      <trkpt lat="47.615192" lon="1.9441288">
        <ele>176</ele>
        <time>2021-10-28T06:58:55Z</time>
      </trkpt>
      <trkpt lat="47.615192" lon="1.9441305">
        <ele>176</ele>
        <time>2021-10-28T06:58:56Z</time>
      </trkpt>
      <trkpt lat="47.615192" lon="1.9441319">
        <ele>177</ele>
        <time>2021-10-28T06:58:57Z</time>
      </trkpt>
      <trkpt lat="47.615192" lon="1.9441324">
        <ele>177</ele>
        <time>2021-10-28T06:58:58Z</time>
      </trkpt>
      <trkpt lat="47.615192" lon="1.9441324">
        <ele>177</ele>
        <time>2021-10-28T06:58:59Z</time>
      </trkpt>
      <trkpt lat="47.615192" lon="1.9441324">
        <ele>177</ele>
        <time>2021-10-28T06:58:59Z</time>
      </trkpt>
    </trkseg>
    <trkseg>
      <trkpt lat="47.615192" lon="1.9441324">
        <ele>177</ele>
        <time>2021-10-28T06:58:59Z</time>
      </trkpt>
      <trkpt lat="47.61527" lon="1.9441003">
        <ele>174</ele>
        <time>2021-10-28T06:59:25Z</time>
      </trkpt>
      <trkpt lat="47.615288" lon="1.9440993">
        <ele>175</ele>
        <time>2021-10-28T06:59:26Z</time>
      </trkpt>
      <trkpt lat="47.615307" lon="1.9440937">
        <ele>176</ele>
        <time>2021-10-28T06:59:27Z</time>
      </trkpt>
      <trkpt lat="47.615326" lon="1.9440881">
        <ele>177</ele>
        <time>2021-10-28T06:59:28Z</time>
      </trkpt>
      <trkpt lat="47.61536" lon="1.9440768">
        <ele>178</ele>
        <time>2021-10-28T06:59:30Z</time>
      </trkpt>
      <trkpt lat="47.615376" lon="1.9440695">
        <ele>178</ele>
        <time>2021-10-28T06:59:31Z</time>
      </trkpt>
      <trkpt lat="47.615395" lon="1.9440675">
        <ele>178</ele>
        <time>2021-10-28T06:59:32Z</time>
      </trkpt>
      <trkpt lat="47.61541" lon="1.9440671">
        <ele>179</ele>
        <time>2021-10-28T06:59:33Z</time>
      </trkpt>
      <trkpt lat="47.615425" lon="1.944064">
        <ele>179</ele>
        <time>2021-10-28T06:59:34Z</time>
      </trkpt>
      <trkpt lat="47.615437" lon="1.9440633">
        <ele>179</ele>
        <time>2021-10-28T06:59:35Z</time>
      </trkpt>
      <trkpt lat="47.615448" lon="1.9440572">
        <ele>179</ele>
        <time>2021-10-28T06:59:36Z</time>
      </trkpt>
      <trkpt lat="47.615463" lon="1.944052">
        <ele>179</ele>
        <time>2021-10-28T06:59:37Z</time>
      </trkpt>
      <trkpt lat="47.61548" lon="1.9440464">
        <ele>179</ele>
        <time>2021-10-28T06:59:38Z</time>
      </trkpt>
      <trkpt lat="47.615494" lon="1.9440386">
        <ele>179</ele>
        <time>2021-10-28T06:59:39Z</time>
      </trkpt>
      <trkpt lat="47.61551" lon="1.9440364">
        <ele>180</ele>
        <time>2021-10-28T06:59:40Z</time>
      </trkpt>
      <trkpt lat="47.615517" lon="1.9440285">
        <ele>181</ele>
        <time>2021-10-28T06:59:41Z</time>
      </trkpt>
      <trkpt lat="47.61553" lon="1.9440259">
        <ele>181</ele>
        <time>2021-10-28T06:59:42Z</time>
      </trkpt>
      <trkpt lat="47.61554" lon="1.9440234">
        <ele>181</ele>
        <time>2021-10-28T06:59:43Z</time>
      </trkpt>
      <trkpt lat="47.61555" lon="1.9440125">
        <ele>182</ele>
        <time>2021-10-28T06:59:44Z</time>
      </trkpt>
      <trkpt lat="47.615562" lon="1.944006">
        <ele>181</ele>
        <time>2021-10-28T06:59:45Z</time>
      </trkpt>
      <trkpt lat="47.615574" lon="1.9439944">
        <ele>180</ele>
        <time>2021-10-28T06:59:46Z</time>
      </trkpt>
      <trkpt lat="47.61559" lon="1.9439862">
        <ele>180</ele>
        <time>2021-10-28T06:59:47Z</time>
      </trkpt>
      <trkpt lat="47.6156" lon="1.9439778">
        <ele>181</ele>
        <time>2021-10-28T06:59:48Z</time>
      </trkpt>
      <trkpt lat="47.61561" lon="1.9439695">
        <ele>181</ele>
        <time>2021-10-28T06:59:49Z</time>
      </trkpt>
      <trkpt lat="47.615616" lon="1.943957">
        <ele>181</ele>
        <time>2021-10-28T06:59:50Z</time>
      </trkpt>
      <trkpt lat="47.615627" lon="1.9439478">
        <ele>181</ele>
        <time>2021-10-28T06:59:51Z</time>
      </trkpt>
      <trkpt lat="47.61564" lon="1.9439424">
        <ele>181</ele>
        <time>2021-10-28T06:59:52Z</time>
      </trkpt>
      <trkpt lat="47.615654" lon="1.9439348">
        <ele>181</ele>
        <time>2021-10-28T06:59:53Z</time>
      </trkpt>
      <trkpt lat="47.615665" lon="1.9439263">
        <ele>181</ele>
        <time>2021-10-28T06:59:54Z</time>
      </trkpt>
      <trkpt lat="47.61568" lon="1.9439107">
        <ele>181</ele>
        <time>2021-10-28T06:59:55Z</time>
      </trkpt>
      <trkpt lat="47.615692" lon="1.9438978">
        <ele>181</ele>
        <time>2021-10-28T06:59:56Z</time>
      </trkpt>
      <trkpt lat="47.615707" lon="1.9438862">
        <ele>180</ele>
        <time>2021-10-28T06:59:57Z</time>
      </trkpt>
      <trkpt lat="47.615723" lon="1.943875">
        <ele>180</ele>
        <time>2021-10-28T06:59:58Z</time>
      </trkpt>
      <trkpt lat="47.615734" lon="1.9438641">
        <ele>180</ele>
        <time>2021-10-28T06:59:59Z</time>
      </trkpt>
      <trkpt lat="47.615746" lon="1.943855">
        <ele>181</ele>
        <time>2021-10-28T07:00:00Z</time>
      </trkpt>
      <trkpt lat="47.615757" lon="1.9438444">
        <ele>180</ele>
        <time>2021-10-28T07:00:01Z</time>
      </trkpt>
      <trkpt lat="47.615772" lon="1.943838">
        <ele>180</ele>
        <time>2021-10-28T07:00:02Z</time>
      </trkpt>
      <trkpt lat="47.615788" lon="1.9438262">
        <ele>180</ele>
        <time>2021-10-28T07:00:03Z</time>
      </trkpt>
      <trkpt lat="47.6158" lon="1.9438174">
        <ele>180</ele>
        <time>2021-10-28T07:00:04Z</time>
      </trkpt>
      <trkpt lat="47.615814" lon="1.9438075">
        <ele>180</ele>
        <time>2021-10-28T07:00:05Z</time>
      </trkpt>
      <trkpt lat="47.61583" lon="1.9437987">
        <ele>180</ele>
        <time>2021-10-28T07:00:06Z</time>
      </trkpt>
      <trkpt lat="47.615845" lon="1.9437933">
        <ele>180</ele>
        <time>2021-10-28T07:00:07Z</time>
      </trkpt>
      <trkpt lat="47.615856" lon="1.9437878">
        <ele>180</ele>
        <time>2021-10-28T07:00:08Z</time>
      </trkpt>
      <trkpt lat="47.615868" lon="1.9437809">
        <ele>181</ele>
        <time>2021-10-28T07:00:09Z</time>
      </trkpt>
      <trkpt lat="47.615883" lon="1.9437753">
        <ele>181</ele>
        <time>2021-10-28T07:00:10Z</time>
      </trkpt>
      <trkpt lat="47.615894" lon="1.9437621">
        <ele>181</ele>
        <time>2021-10-28T07:00:11Z</time>
      </trkpt>
      <trkpt lat="47.615906" lon="1.943753">
        <ele>181</ele>
        <time>2021-10-28T07:00:12Z</time>
      </trkpt>
      <trkpt lat="47.61592" lon="1.9437493">
        <ele>181</ele>
        <time>2021-10-28T07:00:13Z</time>
      </trkpt>
      <trkpt lat="47.615932" lon="1.9437467">
        <ele>181</ele>
        <time>2021-10-28T07:00:14Z</time>
      </trkpt>
      <trkpt lat="47.615944" lon="1.9437438">
        <ele>181</ele>
        <time>2021-10-28T07:00:15Z</time>
      </trkpt>
      <trkpt lat="47.61595" lon="1.9437392">
        <ele>181</ele>
        <time>2021-10-28T07:00:16Z</time>
      </trkpt>
      <trkpt lat="47.61596" lon="1.9437355">
        <ele>181</ele>
        <time>2021-10-28T07:00:17Z</time>
      </trkpt>
      <trkpt lat="47.61597" lon="1.9437336">
        <ele>181</ele>
        <time>2021-10-28T07:00:18Z</time>
      </trkpt>
      <trkpt lat="47.615982" lon="1.943727">
        <ele>181</ele>
        <time>2021-10-28T07:00:19Z</time>
      </trkpt>
      <trkpt lat="47.615993" lon="1.9437151">
        <ele>181</ele>
        <time>2021-10-28T07:00:20Z</time>
      </trkpt>
      <trkpt lat="47.616005" lon="1.9437138">
        <ele>182</ele>
        <time>2021-10-28T07:00:21Z</time>
      </trkpt>
      <trkpt lat="47.616016" lon="1.9437119">
        <ele>181</ele>
        <time>2021-10-28T07:00:22Z</time>
      </trkpt>
      <trkpt lat="47.616028" lon="1.9437065">
        <ele>180</ele>
        <time>2021-10-28T07:00:23Z</time>
      </trkpt>
      <trkpt lat="47.616035" lon="1.9437047">
        <ele>180</ele>
        <time>2021-10-28T07:00:24Z</time>
      </trkpt>
      <trkpt lat="47.61604" lon="1.9437041">
        <ele>179</ele>
        <time>2021-10-28T07:00:25Z</time>
      </trkpt>
      <trkpt lat="47.61605" lon="1.9437002">
        <ele>179</ele>
        <time>2021-10-28T07:00:26Z</time>
      </trkpt>
      <trkpt lat="47.616062" lon="1.9436903">
        <ele>178</ele>
        <time>2021-10-28T07:00:27Z</time>
      </trkpt>
      <trkpt lat="47.61607" lon="1.9436781">
        <ele>178</ele>
        <time>2021-10-28T07:00:28Z</time>
      </trkpt>
      <trkpt lat="47.616077" lon="1.9436743">
        <ele>177</ele>
        <time>2021-10-28T07:00:29Z</time>
      </trkpt>
      <trkpt lat="47.61609" lon="1.9436643">
        <ele>178</ele>
        <time>2021-10-28T07:00:30Z</time>
      </trkpt>
      <trkpt lat="47.616104" lon="1.9436527">
        <ele>178</ele>
        <time>2021-10-28T07:00:31Z</time>
      </trkpt>
      <trkpt lat="47.61611" lon="1.9436482">
        <ele>177</ele>
        <time>2021-10-28T07:00:32Z</time>
      </trkpt>
      <trkpt lat="47.616123" lon="1.9436437">
        <ele>177</ele>
        <time>2021-10-28T07:00:33Z</time>
      </trkpt>
      <trkpt lat="47.616135" lon="1.9436377">
        <ele>177</ele>
        <time>2021-10-28T07:00:34Z</time>
      </trkpt>
      <trkpt lat="47.616142" lon="1.9436315">
        <ele>177</ele>
        <time>2021-10-28T07:00:35Z</time>
      </trkpt>
      <trkpt lat="47.616154" lon="1.9436257">
        <ele>177</ele>
        <time>2021-10-28T07:00:36Z</time>
      </trkpt>
      <trkpt lat="47.61616" lon="1.9436219">
        <ele>177</ele>
        <time>2021-10-28T07:00:37Z</time>
      </trkpt>
      <trkpt lat="47.61617" lon="1.9436195">
        <ele>177</ele>
        <time>2021-10-28T07:00:38Z</time>
      </trkpt>
      <trkpt lat="47.616177" lon="1.9436086">
        <ele>178</ele>
        <time>2021-10-28T07:00:39Z</time>
      </trkpt>
      <trkpt lat="47.616188" lon="1.9436024">
        <ele>178</ele>
        <time>2021-10-28T07:00:40Z</time>
      </trkpt>
      <trkpt lat="47.616196" lon="1.9435958">
        <ele>179</ele>
        <time>2021-10-28T07:00:41Z</time>
      </trkpt>
      <trkpt lat="47.616203" lon="1.9435922">
        <ele>179</ele>
        <time>2021-10-28T07:00:42Z</time>
      </trkpt>
      <trkpt lat="47.61621" lon="1.9435828">
        <ele>180</ele>
        <time>2021-10-28T07:00:43Z</time>
      </trkpt>
      <trkpt lat="47.61622" lon="1.9435805">
        <ele>180</ele>
        <time>2021-10-28T07:00:44Z</time>
      </trkpt>
      <trkpt lat="47.61623" lon="1.9435742">
        <ele>181</ele>
        <time>2021-10-28T07:00:45Z</time>
      </trkpt>
      <trkpt lat="47.61624" lon="1.9435717">
        <ele>181</ele>
        <time>2021-10-28T07:00:46Z</time>
      </trkpt>
      <trkpt lat="47.61625" lon="1.9435673">
        <ele>181</ele>
        <time>2021-10-28T07:00:47Z</time>
      </trkpt>
      <trkpt lat="47.61626" lon="1.9435583">
        <ele>180</ele>
        <time>2021-10-28T07:00:48Z</time>
      </trkpt>
      <trkpt lat="47.61627" lon="1.9435469">
        <ele>179</ele>
        <time>2021-10-28T07:00:49Z</time>
      </trkpt>
      <trkpt lat="47.61628" lon="1.9435358">
        <ele>179</ele>
        <time>2021-10-28T07:00:50Z</time>
      </trkpt>
      <trkpt lat="47.616295" lon="1.9435295">
        <ele>179</ele>
        <time>2021-10-28T07:00:51Z</time>
      </trkpt>
      <trkpt lat="47.616306" lon="1.943523">
        <ele>178</ele>
        <time>2021-10-28T07:00:52Z</time>
      </trkpt>
      <trkpt lat="47.616318" lon="1.9435148">
        <ele>179</ele>
        <time>2021-10-28T07:00:53Z</time>
      </trkpt>
      <trkpt lat="47.616325" lon="1.9435104">
        <ele>179</ele>
        <time>2021-10-28T07:00:54Z</time>
      </trkpt>
      <trkpt lat="47.616337" lon="1.9435118">
        <ele>180</ele>
        <time>2021-10-28T07:00:55Z</time>
      </trkpt>
      <trkpt lat="47.616344" lon="1.9435003">
        <ele>179</ele>
        <time>2021-10-28T07:00:56Z</time>
      </trkpt>
      <trkpt lat="47.616356" lon="1.9434944">
        <ele>179</ele>
        <time>2021-10-28T07:00:57Z</time>
      </trkpt>
      <trkpt lat="47.61637" lon="1.9434922">
        <ele>179</ele>
        <time>2021-10-28T07:00:58Z</time>
      </trkpt>
      <trkpt lat="47.61638" lon="1.9434879">
        <ele>179</ele>
        <time>2021-10-28T07:00:59Z</time>
      </trkpt>
      <trkpt lat="47.61639" lon="1.9434786">
        <ele>179</ele>
        <time>2021-10-28T07:01:00Z</time>
      </trkpt>
      <trkpt lat="47.6164" lon="1.943476">
        <ele>178</ele>
        <time>2021-10-28T07:01:01Z</time>
      </trkpt>
      <trkpt lat="47.616413" lon="1.9434735">
        <ele>179</ele>
        <time>2021-10-28T07:01:02Z</time>
      </trkpt>
      <trkpt lat="47.616425" lon="1.9434685">
        <ele>179</ele>
        <time>2021-10-28T07:01:03Z</time>
      </trkpt>
      <trkpt lat="47.616432" lon="1.9434596">
        <ele>179</ele>
        <time>2021-10-28T07:01:04Z</time>
      </trkpt>
      <trkpt lat="47.61644" lon="1.9434522">
        <ele>179</ele>
        <time>2021-10-28T07:01:05Z</time>
      </trkpt>
      <trkpt lat="47.61645" lon="1.9434426">
        <ele>179</ele>
        <time>2021-10-28T07:01:06Z</time>
      </trkpt>
      <trkpt lat="47.616463" lon="1.9434366">
        <ele>179</ele>
        <time>2021-10-28T07:01:07Z</time>
      </trkpt>
      <trkpt lat="47.616478" lon="1.9434296">
        <ele>179</ele>
        <time>2021-10-28T07:01:08Z</time>
      </trkpt>
      <trkpt lat="47.616486" lon="1.9434178">
        <ele>180</ele>
        <time>2021-10-28T07:01:09Z</time>
      </trkpt>
      <trkpt lat="47.616497" lon="1.9434066">
        <ele>180</ele>
        <time>2021-10-28T07:01:10Z</time>
      </trkpt>
      <trkpt lat="47.61651" lon="1.9434006">
        <ele>180</ele>
        <time>2021-10-28T07:01:11Z</time>
      </trkpt>
      <trkpt lat="47.61652" lon="1.9433908">
        <ele>179</ele>
        <time>2021-10-28T07:01:12Z</time>
      </trkpt>
      <trkpt lat="47.616528" lon="1.9433798">
        <ele>179</ele>
        <time>2021-10-28T07:01:13Z</time>
      </trkpt>
      <trkpt lat="47.616535" lon="1.9433718">
        <ele>179</ele>
        <time>2021-10-28T07:01:14Z</time>
      </trkpt>
      <trkpt lat="47.616543" lon="1.9433665">
        <ele>179</ele>
        <time>2021-10-28T07:01:15Z</time>
      </trkpt>
      <trkpt lat="47.616554" lon="1.9433614">
        <ele>179</ele>
        <time>2021-10-28T07:01:16Z</time>
      </trkpt>
      <trkpt lat="47.61656" lon="1.9433552">
        <ele>179</ele>
        <time>2021-10-28T07:01:17Z</time>
      </trkpt>
      <trkpt lat="47.61657" lon="1.9433521">
        <ele>178</ele>
        <time>2021-10-28T07:01:18Z</time>
      </trkpt>
      <trkpt lat="47.616577" lon="1.9433492">
        <ele>178</ele>
        <time>2021-10-28T07:01:19Z</time>
      </trkpt>
      <trkpt lat="47.616592" lon="1.9433379">
        <ele>178</ele>
        <time>2021-10-28T07:01:20Z</time>
      </trkpt>
      <trkpt lat="47.6166" lon="1.9433315">
        <ele>179</ele>
        <time>2021-10-28T07:01:21Z</time>
      </trkpt>
      <trkpt lat="47.616615" lon="1.943325">
        <ele>180</ele>
        <time>2021-10-28T07:01:22Z</time>
      </trkpt>
      <trkpt lat="47.616623" lon="1.9433174">
        <ele>180</ele>
        <time>2021-10-28T07:01:23Z</time>
      </trkpt>
      <trkpt lat="47.616634" lon="1.9433084">
        <ele>179</ele>
        <time>2021-10-28T07:01:24Z</time>
      </trkpt>
      <trkpt lat="47.616646" lon="1.9433011">
        <ele>179</ele>
        <time>2021-10-28T07:01:25Z</time>
      </trkpt>
      <trkpt lat="47.616653" lon="1.9432973">
        <ele>180</ele>
        <time>2021-10-28T07:01:26Z</time>
      </trkpt>
      <trkpt lat="47.61666" lon="1.9432875">
        <ele>180</ele>
        <time>2021-10-28T07:01:27Z</time>
      </trkpt>
      <trkpt lat="47.61667" lon="1.9432818">
        <ele>179</ele>
        <time>2021-10-28T07:01:28Z</time>
      </trkpt>
      <trkpt lat="47.61668" lon="1.9432819">
        <ele>179</ele>
        <time>2021-10-28T07:01:29Z</time>
      </trkpt>
      <trkpt lat="47.616688" lon="1.9432764">
        <ele>179</ele>
        <time>2021-10-28T07:01:30Z</time>
      </trkpt>
      <trkpt lat="47.616688" lon="1.9432764">
        <ele>179</ele>
        <time>2021-10-28T07:01:31Z</time>
      </trkpt>
      <trkpt lat="47.616688" lon="1.9432764">
        <ele>179</ele>
        <time>2021-10-28T07:01:32Z</time>
      </trkpt>
      <trkpt lat="47.616707" lon="1.9432639">
        <ele>179</ele>
        <time>2021-10-28T07:01:33Z</time>
      </trkpt>
      <trkpt lat="47.61672" lon="1.9432569">
        <ele>179</ele>
        <time>2021-10-28T07:01:34Z</time>
      </trkpt>
      <trkpt lat="47.61673" lon="1.9432548">
        <ele>179</ele>
        <time>2021-10-28T07:01:35Z</time>
      </trkpt>
      <trkpt lat="47.61674" lon="1.9432461">
        <ele>180</ele>
        <time>2021-10-28T07:01:36Z</time>
      </trkpt>
      <trkpt lat="47.616753" lon="1.9432427">
        <ele>179</ele>
        <time>2021-10-28T07:01:37Z</time>
      </trkpt>
      <trkpt lat="47.616764" lon="1.943238">
        <ele>178</ele>
        <time>2021-10-28T07:01:38Z</time>
      </trkpt>
      <trkpt lat="47.616776" lon="1.9432319">
        <ele>178</ele>
        <time>2021-10-28T07:01:39Z</time>
      </trkpt>
      <trkpt lat="47.616783" lon="1.943227">
        <ele>178</ele>
        <time>2021-10-28T07:01:40Z</time>
      </trkpt>
      <trkpt lat="47.6168" lon="1.9432173">
        <ele>179</ele>
        <time>2021-10-28T07:01:41Z</time>
      </trkpt>
      <trkpt lat="47.61681" lon="1.943214">
        <ele>179</ele>
        <time>2021-10-28T07:01:42Z</time>
      </trkpt>
      <trkpt lat="47.61682" lon="1.9432138">
        <ele>179</ele>
        <time>2021-10-28T07:01:43Z</time>
      </trkpt>
      <trkpt lat="47.61683" lon="1.943211">
        <ele>180</ele>
        <time>2021-10-28T07:01:44Z</time>
      </trkpt>
      <trkpt lat="47.61684" lon="1.9432061">
        <ele>180</ele>
        <time>2021-10-28T07:01:45Z</time>
      </trkpt>
      <trkpt lat="47.616848" lon="1.9432045">
        <ele>180</ele>
        <time>2021-10-28T07:01:46Z</time>
      </trkpt>
      <trkpt lat="47.616856" lon="1.943201">
        <ele>180</ele>
        <time>2021-10-28T07:01:47Z</time>
      </trkpt>
      <trkpt lat="47.616863" lon="1.9431984">
        <ele>180</ele>
        <time>2021-10-28T07:01:48Z</time>
      </trkpt>
      <trkpt lat="47.61687" lon="1.9431978">
        <ele>180</ele>
        <time>2021-10-28T07:01:49Z</time>
      </trkpt>
      <trkpt lat="47.616882" lon="1.9431946">
        <ele>180</ele>
        <time>2021-10-28T07:01:50Z</time>
      </trkpt>
      <trkpt lat="47.61689" lon="1.9431943">
        <ele>180</ele>
        <time>2021-10-28T07:01:51Z</time>
      </trkpt>
      <trkpt lat="47.616905" lon="1.9431947">
        <ele>181</ele>
        <time>2021-10-28T07:01:52Z</time>
      </trkpt>
      <trkpt lat="47.616913" lon="1.9431945">
        <ele>181</ele>
        <time>2021-10-28T07:01:53Z</time>
      </trkpt>
      <trkpt lat="47.616924" lon="1.9431943">
        <ele>181</ele>
        <time>2021-10-28T07:01:54Z</time>
      </trkpt>
      <trkpt lat="47.616932" lon="1.943193">
        <ele>180</ele>
        <time>2021-10-28T07:01:55Z</time>
      </trkpt>
      <trkpt lat="47.616943" lon="1.9431928">
        <ele>180</ele>
        <time>2021-10-28T07:01:56Z</time>
      </trkpt>
      <trkpt lat="47.616955" lon="1.9431894">
        <ele>180</ele>
        <time>2021-10-28T07:01:57Z</time>
      </trkpt>
      <trkpt lat="47.616966" lon="1.9431849">
        <ele>180</ele>
        <time>2021-10-28T07:01:58Z</time>
      </trkpt>
      <trkpt lat="47.616978" lon="1.9431803">
        <ele>181</ele>
        <time>2021-10-28T07:01:59Z</time>
      </trkpt>
      <trkpt lat="47.61699" lon="1.9431771">
        <ele>180</ele>
        <time>2021-10-28T07:02:00Z</time>
      </trkpt>
      <trkpt lat="47.616997" lon="1.9431751">
        <ele>181</ele>
        <time>2021-10-28T07:02:01Z</time>
      </trkpt>
      <trkpt lat="47.61701" lon="1.9431742">
        <ele>181</ele>
        <time>2021-10-28T07:02:02Z</time>
      </trkpt>
      <trkpt lat="47.617016" lon="1.943174">
        <ele>181</ele>
        <time>2021-10-28T07:02:03Z</time>
      </trkpt>
      <trkpt lat="47.617023" lon="1.94317">
        <ele>182</ele>
        <time>2021-10-28T07:02:04Z</time>
      </trkpt>
      <trkpt lat="47.61703" lon="1.9431727">
        <ele>182</ele>
        <time>2021-10-28T07:02:05Z</time>
      </trkpt>
      <trkpt lat="47.617046" lon="1.943169">
        <ele>182</ele>
        <time>2021-10-28T07:02:06Z</time>
      </trkpt>
      <trkpt lat="47.617058" lon="1.9431676">
        <ele>181</ele>
        <time>2021-10-28T07:02:07Z</time>
      </trkpt>
      <trkpt lat="47.61707" lon="1.9431669">
        <ele>182</ele>
        <time>2021-10-28T07:02:08Z</time>
      </trkpt>
      <trkpt lat="47.61708" lon="1.9431634">
        <ele>181</ele>
        <time>2021-10-28T07:02:09Z</time>
      </trkpt>
      <trkpt lat="47.617092" lon="1.9431555">
        <ele>182</ele>
        <time>2021-10-28T07:02:10Z</time>
      </trkpt>
      <trkpt lat="47.617104" lon="1.9431498">
        <ele>182</ele>
        <time>2021-10-28T07:02:11Z</time>
      </trkpt>
      <trkpt lat="47.617115" lon="1.9431473">
        <ele>182</ele>
        <time>2021-10-28T07:02:12Z</time>
      </trkpt>
      <trkpt lat="47.617126" lon="1.94315">
        <ele>182</ele>
        <time>2021-10-28T07:02:13Z</time>
      </trkpt>
      <trkpt lat="47.617134" lon="1.9431516">
        <ele>182</ele>
        <time>2021-10-28T07:02:14Z</time>
      </trkpt>
      <trkpt lat="47.617146" lon="1.9431475">
        <ele>182</ele>
        <time>2021-10-28T07:02:15Z</time>
      </trkpt>
      <trkpt lat="47.617157" lon="1.9431454">
        <ele>182</ele>
        <time>2021-10-28T07:02:16Z</time>
      </trkpt>
      <trkpt lat="47.617165" lon="1.9431427">
        <ele>182</ele>
        <time>2021-10-28T07:02:17Z</time>
      </trkpt>
      <trkpt lat="47.617176" lon="1.9431378">
        <ele>182</ele>
        <time>2021-10-28T07:02:18Z</time>
      </trkpt>
      <trkpt lat="47.617184" lon="1.9431331">
        <ele>182</ele>
        <time>2021-10-28T07:02:19Z</time>
      </trkpt>
      <trkpt lat="47.617195" lon="1.9431312">
        <ele>182</ele>
        <time>2021-10-28T07:02:20Z</time>
      </trkpt>
      <trkpt lat="47.617207" lon="1.9431243">
        <ele>182</ele>
        <time>2021-10-28T07:02:21Z</time>
      </trkpt>
      <trkpt lat="47.617214" lon="1.9431183">
        <ele>182</ele>
        <time>2021-10-28T07:02:22Z</time>
      </trkpt>
      <trkpt lat="47.61722" lon="1.9431151">
        <ele>182</ele>
        <time>2021-10-28T07:02:23Z</time>
      </trkpt>
      <trkpt lat="47.617237" lon="1.9431113">
        <ele>182</ele>
        <time>2021-10-28T07:02:24Z</time>
      </trkpt>
      <trkpt lat="47.61725" lon="1.9431057">
        <ele>182</ele>
        <time>2021-10-28T07:02:25Z</time>
      </trkpt>
      <trkpt lat="47.61726" lon="1.9430988">
        <ele>181</ele>
        <time>2021-10-28T07:02:26Z</time>
      </trkpt>
      <trkpt lat="47.61727" lon="1.9431039">
        <ele>181</ele>
        <time>2021-10-28T07:02:27Z</time>
      </trkpt>
      <trkpt lat="47.61728" lon="1.9431037">
        <ele>181</ele>
        <time>2021-10-28T07:02:28Z</time>
      </trkpt>
      <trkpt lat="47.61729" lon="1.943099">
        <ele>181</ele>
        <time>2021-10-28T07:02:29Z</time>
      </trkpt>
      <trkpt lat="47.617302" lon="1.9430963">
        <ele>181</ele>
        <time>2021-10-28T07:02:30Z</time>
      </trkpt>
      <trkpt lat="47.617313" lon="1.943094">
        <ele>180</ele>
        <time>2021-10-28T07:02:31Z</time>
      </trkpt>
      <trkpt lat="47.617325" lon="1.9430927">
        <ele>181</ele>
        <time>2021-10-28T07:02:32Z</time>
      </trkpt>
      <trkpt lat="47.61734" lon="1.9430883">
        <ele>180</ele>
        <time>2021-10-28T07:02:33Z</time>
      </trkpt>
      <trkpt lat="47.61735" lon="1.9430857">
        <ele>181</ele>
        <time>2021-10-28T07:02:34Z</time>
      </trkpt>
      <trkpt lat="47.617363" lon="1.9430811">
        <ele>181</ele>
        <time>2021-10-28T07:02:35Z</time>
      </trkpt>
      <trkpt lat="47.617374" lon="1.9430782">
        <ele>181</ele>
        <time>2021-10-28T07:02:36Z</time>
      </trkpt>
      <trkpt lat="47.617382" lon="1.9430745">
        <ele>181</ele>
        <time>2021-10-28T07:02:37Z</time>
      </trkpt>
      <trkpt lat="47.61739" lon="1.9430717">
        <ele>181</ele>
        <time>2021-10-28T07:02:38Z</time>
      </trkpt>
      <trkpt lat="47.6174" lon="1.9430655">
        <ele>181</ele>
        <time>2021-10-28T07:02:39Z</time>
      </trkpt>
      <trkpt lat="47.61741" lon="1.9430652">
        <ele>182</ele>
        <time>2021-10-28T07:02:40Z</time>
      </trkpt>
      <trkpt lat="47.61742" lon="1.9430561">
        <ele>182</ele>
        <time>2021-10-28T07:02:41Z</time>
      </trkpt>
      <trkpt lat="47.617428" lon="1.9430522">
        <ele>182</ele>
        <time>2021-10-28T07:02:42Z</time>
      </trkpt>
      <trkpt lat="47.61744" lon="1.9430463">
        <ele>182</ele>
        <time>2021-10-28T07:02:43Z</time>
      </trkpt>
      <trkpt lat="47.617447" lon="1.9430395">
        <ele>182</ele>
        <time>2021-10-28T07:02:44Z</time>
      </trkpt>
      <trkpt lat="47.61746" lon="1.9430352">
        <ele>182</ele>
        <time>2021-10-28T07:02:45Z</time>
      </trkpt>
      <trkpt lat="47.61747" lon="1.9430348">
        <ele>182</ele>
        <time>2021-10-28T07:02:46Z</time>
      </trkpt>
      <trkpt lat="47.617477" lon="1.9430321">
        <ele>182</ele>
        <time>2021-10-28T07:02:47Z</time>
      </trkpt>
      <trkpt lat="47.61749" lon="1.9430298">
        <ele>182</ele>
        <time>2021-10-28T07:02:48Z</time>
      </trkpt>
      <trkpt lat="47.617496" lon="1.9430296">
        <ele>183</ele>
        <time>2021-10-28T07:02:49Z</time>
      </trkpt>
      <trkpt lat="47.617504" lon="1.9430271">
        <ele>183</ele>
        <time>2021-10-28T07:02:50Z</time>
      </trkpt>
      <trkpt lat="47.617516" lon="1.94302">
        <ele>183</ele>
        <time>2021-10-28T07:02:51Z</time>
      </trkpt>
      <trkpt lat="47.617523" lon="1.9430192">
        <ele>183</ele>
        <time>2021-10-28T07:02:52Z</time>
      </trkpt>
      <trkpt lat="47.61753" lon="1.9430206">
        <ele>183</ele>
        <time>2021-10-28T07:02:53Z</time>
      </trkpt>
      <trkpt lat="47.617546" lon="1.9430217">
        <ele>184</ele>
        <time>2021-10-28T07:02:54Z</time>
      </trkpt>
      <trkpt lat="47.617554" lon="1.9430209">
        <ele>185</ele>
        <time>2021-10-28T07:02:55Z</time>
      </trkpt>
      <trkpt lat="47.617565" lon="1.9430147">
        <ele>185</ele>
        <time>2021-10-28T07:02:56Z</time>
      </trkpt>
      <trkpt lat="47.617573" lon="1.9430081">
        <ele>186</ele>
        <time>2021-10-28T07:02:57Z</time>
      </trkpt>
      <trkpt lat="47.617584" lon="1.9430012">
        <ele>187</ele>
        <time>2021-10-28T07:02:58Z</time>
      </trkpt>
      <trkpt lat="47.617596" lon="1.9429978">
        <ele>186</ele>
        <time>2021-10-28T07:02:59Z</time>
      </trkpt>
      <trkpt lat="47.617603" lon="1.9429979">
        <ele>186</ele>
        <time>2021-10-28T07:03:00Z</time>
      </trkpt>
      <trkpt lat="47.61761" lon="1.9429952">
        <ele>186</ele>
        <time>2021-10-28T07:03:01Z</time>
      </trkpt>
      <trkpt lat="47.61762" lon="1.9429955">
        <ele>186</ele>
        <time>2021-10-28T07:03:02Z</time>
      </trkpt>
      <trkpt lat="47.617626" lon="1.9429995">
        <ele>186</ele>
        <time>2021-10-28T07:03:03Z</time>
      </trkpt>
      <trkpt lat="47.617634" lon="1.9430073">
        <ele>186</ele>
        <time>2021-10-28T07:03:04Z</time>
      </trkpt>
      <trkpt lat="47.61764" lon="1.9430134">
        <ele>187</ele>
        <time>2021-10-28T07:03:05Z</time>
      </trkpt>
      <trkpt lat="47.61765" lon="1.9430186">
        <ele>187</ele>
        <time>2021-10-28T07:03:06Z</time>
      </trkpt>
      <trkpt lat="47.617657" lon="1.9430171">
        <ele>186</ele>
        <time>2021-10-28T07:03:07Z</time>
      </trkpt>
      <trkpt lat="47.61767" lon="1.9430143">
        <ele>186</ele>
        <time>2021-10-28T07:03:08Z</time>
      </trkpt>
      <trkpt lat="47.617676" lon="1.9430113">
        <ele>186</ele>
        <time>2021-10-28T07:03:09Z</time>
      </trkpt>
      <trkpt lat="47.617687" lon="1.9430101">
        <ele>186</ele>
        <time>2021-10-28T07:03:10Z</time>
      </trkpt>
      <trkpt lat="47.6177" lon="1.943014">
        <ele>186</ele>
        <time>2021-10-28T07:03:11Z</time>
      </trkpt>
      <trkpt lat="47.617714" lon="1.943008">
        <ele>185</ele>
        <time>2021-10-28T07:03:12Z</time>
      </trkpt>
      <trkpt lat="47.617725" lon="1.9429997">
        <ele>185</ele>
        <time>2021-10-28T07:03:13Z</time>
      </trkpt>
      <trkpt lat="47.61774" lon="1.9429966">
        <ele>185</ele>
        <time>2021-10-28T07:03:14Z</time>
      </trkpt>
      <trkpt lat="47.617752" lon="1.9429948">
        <ele>185</ele>
        <time>2021-10-28T07:03:15Z</time>
      </trkpt>
      <trkpt lat="47.617764" lon="1.9429886">
        <ele>185</ele>
        <time>2021-10-28T07:03:16Z</time>
      </trkpt>
      <trkpt lat="47.617767" lon="1.9429841">
        <ele>185</ele>
        <time>2021-10-28T07:03:17Z</time>
      </trkpt>
      <trkpt lat="47.617775" lon="1.9429765">
        <ele>184</ele>
        <time>2021-10-28T07:03:18Z</time>
      </trkpt>
      <trkpt lat="47.61778" lon="1.9429709">
        <ele>184</ele>
        <time>2021-10-28T07:03:19Z</time>
      </trkpt>
      <trkpt lat="47.617786" lon="1.9429622">
        <ele>184</ele>
        <time>2021-10-28T07:03:20Z</time>
      </trkpt>
      <trkpt lat="47.61779" lon="1.9429564">
        <ele>184</ele>
        <time>2021-10-28T07:03:21Z</time>
      </trkpt>
      <trkpt lat="47.617798" lon="1.9429523">
        <ele>185</ele>
        <time>2021-10-28T07:03:22Z</time>
      </trkpt>
      <trkpt lat="47.61781" lon="1.9429502">
        <ele>185</ele>
        <time>2021-10-28T07:03:23Z</time>
      </trkpt>
      <trkpt lat="47.617817" lon="1.9429489">
        <ele>185</ele>
        <time>2021-10-28T07:03:24Z</time>
      </trkpt>
      <trkpt lat="47.61783" lon="1.9429477">
        <ele>185</ele>
        <time>2021-10-28T07:03:25Z</time>
      </trkpt>
      <trkpt lat="47.61784" lon="1.9429473">
        <ele>185</ele>
        <time>2021-10-28T07:03:26Z</time>
      </trkpt>
      <trkpt lat="47.617855" lon="1.9429424">
        <ele>185</ele>
        <time>2021-10-28T07:03:27Z</time>
      </trkpt>
      <trkpt lat="47.617867" lon="1.9429426">
        <ele>186</ele>
        <time>2021-10-28T07:03:28Z</time>
      </trkpt>
      <trkpt lat="47.617874" lon="1.9429424">
        <ele>186</ele>
        <time>2021-10-28T07:03:29Z</time>
      </trkpt>
      <trkpt lat="47.617886" lon="1.9429414">
        <ele>186</ele>
        <time>2021-10-28T07:03:30Z</time>
      </trkpt>
      <trkpt lat="47.6179" lon="1.9429395">
        <ele>187</ele>
        <time>2021-10-28T07:03:31Z</time>
      </trkpt>
      <trkpt lat="47.61791" lon="1.942936">
        <ele>187</ele>
        <time>2021-10-28T07:03:32Z</time>
      </trkpt>
      <trkpt lat="47.61792" lon="1.9429334">
        <ele>188</ele>
        <time>2021-10-28T07:03:33Z</time>
      </trkpt>
      <trkpt lat="47.61793" lon="1.942929">
        <ele>188</ele>
        <time>2021-10-28T07:03:34Z</time>
      </trkpt>
      <trkpt lat="47.617943" lon="1.9429234">
        <ele>189</ele>
        <time>2021-10-28T07:03:35Z</time>
      </trkpt>
      <trkpt lat="47.617954" lon="1.9429172">
        <ele>189</ele>
        <time>2021-10-28T07:03:36Z</time>
      </trkpt>
      <trkpt lat="47.617966" lon="1.942915">
        <ele>189</ele>
        <time>2021-10-28T07:03:37Z</time>
      </trkpt>
      <trkpt lat="47.617973" lon="1.9429121">
        <ele>189</ele>
        <time>2021-10-28T07:03:38Z</time>
      </trkpt>
      <trkpt lat="47.617985" lon="1.9429038">
        <ele>188</ele>
        <time>2021-10-28T07:03:39Z</time>
      </trkpt>
      <trkpt lat="47.617992" lon="1.9428949">
        <ele>188</ele>
        <time>2021-10-28T07:03:40Z</time>
      </trkpt>
      <trkpt lat="47.618004" lon="1.9428855">
        <ele>189</ele>
        <time>2021-10-28T07:03:41Z</time>
      </trkpt>
      <trkpt lat="47.618015" lon="1.9428777">
        <ele>189</ele>
        <time>2021-10-28T07:03:42Z</time>
      </trkpt>
      <trkpt lat="47.618023" lon="1.9428716">
        <ele>189</ele>
        <time>2021-10-28T07:03:43Z</time>
      </trkpt>
      <trkpt lat="47.618034" lon="1.9428737">
        <ele>190</ele>
        <time>2021-10-28T07:03:44Z</time>
      </trkpt>
      <trkpt lat="47.618046" lon="1.9428641">
        <ele>190</ele>
        <time>2021-10-28T07:03:45Z</time>
      </trkpt>
      <trkpt lat="47.618053" lon="1.9428548">
        <ele>190</ele>
        <time>2021-10-28T07:03:46Z</time>
      </trkpt>
      <trkpt lat="47.618065" lon="1.9428445">
        <ele>190</ele>
        <time>2021-10-28T07:03:47Z</time>
      </trkpt>
      <trkpt lat="47.618076" lon="1.9428357">
        <ele>190</ele>
        <time>2021-10-28T07:03:48Z</time>
      </trkpt>
      <trkpt lat="47.618084" lon="1.9428246">
        <ele>191</ele>
        <time>2021-10-28T07:03:49Z</time>
      </trkpt>
      <trkpt lat="47.618095" lon="1.9428177">
        <ele>191</ele>
        <time>2021-10-28T07:03:50Z</time>
      </trkpt>
      <trkpt lat="47.618107" lon="1.942812">
        <ele>191</ele>
        <time>2021-10-28T07:03:51Z</time>
      </trkpt>
      <trkpt lat="47.618122" lon="1.9427979">
        <ele>190</ele>
        <time>2021-10-28T07:03:52Z</time>
      </trkpt>
      <trkpt lat="47.618134" lon="1.9427941">
        <ele>190</ele>
        <time>2021-10-28T07:03:53Z</time>
      </trkpt>
      <trkpt lat="47.618145" lon="1.9427882">
        <ele>190</ele>
        <time>2021-10-28T07:03:54Z</time>
      </trkpt>
      <trkpt lat="47.618153" lon="1.9427835">
        <ele>190</ele>
        <time>2021-10-28T07:03:55Z</time>
      </trkpt>
      <trkpt lat="47.618156" lon="1.9427812">
        <ele>190</ele>
        <time>2021-10-28T07:03:56Z</time>
      </trkpt>
      <trkpt lat="47.61816" lon="1.9427903">
        <ele>190</ele>
        <time>2021-10-28T07:03:57Z</time>
      </trkpt>
      <trkpt lat="47.618156" lon="1.942795">
        <ele>190</ele>
        <time>2021-10-28T07:03:58Z</time>
      </trkpt>
      <trkpt lat="47.618168" lon="1.9427922">
        <ele>189</ele>
        <time>2021-10-28T07:03:59Z</time>
      </trkpt>
      <trkpt lat="47.618183" lon="1.9427922">
        <ele>190</ele>
        <time>2021-10-28T07:04:00Z</time>
      </trkpt>
      <trkpt lat="47.618195" lon="1.9427874">
        <ele>190</ele>
        <time>2021-10-28T07:04:01Z</time>
      </trkpt>
      <trkpt lat="47.618206" lon="1.9427793">
        <ele>190</ele>
        <time>2021-10-28T07:04:02Z</time>
      </trkpt>
      <trkpt lat="47.618217" lon="1.9427747">
        <ele>190</ele>
        <time>2021-10-28T07:04:03Z</time>
      </trkpt>
      <trkpt lat="47.61823" lon="1.9427707">
        <ele>190</ele>
        <time>2021-10-28T07:04:04Z</time>
      </trkpt>
      <trkpt lat="47.618244" lon="1.942771">
        <ele>190</ele>
        <time>2021-10-28T07:04:05Z</time>
      </trkpt>
      <trkpt lat="47.618256" lon="1.9427674">
        <ele>191</ele>
        <time>2021-10-28T07:04:06Z</time>
      </trkpt>
      <trkpt lat="47.618286" lon="1.9427546">
        <ele>191</ele>
        <time>2021-10-28T07:04:08Z</time>
      </trkpt>
      <trkpt lat="47.618305" lon="1.9427513">
        <ele>190</ele>
        <time>2021-10-28T07:04:10Z</time>
      </trkpt>
      <trkpt lat="47.618313" lon="1.9427484">
        <ele>190</ele>
        <time>2021-10-28T07:04:11Z</time>
      </trkpt>
      <trkpt lat="47.618324" lon="1.9427506">
        <ele>190</ele>
        <time>2021-10-28T07:04:12Z</time>
      </trkpt>
      <trkpt lat="47.618336" lon="1.9427501">
        <ele>190</ele>
        <time>2021-10-28T07:04:13Z</time>
      </trkpt>
      <trkpt lat="47.61835" lon="1.9427439">
        <ele>189</ele>
        <time>2021-10-28T07:04:14Z</time>
      </trkpt>
      <trkpt lat="47.618366" lon="1.9427315">
        <ele>189</ele>
        <time>2021-10-28T07:04:15Z</time>
      </trkpt>
      <trkpt lat="47.618378" lon="1.9427298">
        <ele>189</ele>
        <time>2021-10-28T07:04:16Z</time>
      </trkpt>
      <trkpt lat="47.618385" lon="1.9427278">
        <ele>189</ele>
        <time>2021-10-28T07:04:17Z</time>
      </trkpt>
      <trkpt lat="47.618393" lon="1.942728">
        <ele>189</ele>
        <time>2021-10-28T07:04:18Z</time>
      </trkpt>
      <trkpt lat="47.618397" lon="1.9427266">
        <ele>189</ele>
        <time>2021-10-28T07:04:19Z</time>
      </trkpt>
      <trkpt lat="47.618404" lon="1.9427264">
        <ele>189</ele>
        <time>2021-10-28T07:04:20Z</time>
      </trkpt>
      <trkpt lat="47.618412" lon="1.9427272">
        <ele>190</ele>
        <time>2021-10-28T07:04:21Z</time>
      </trkpt>
      <trkpt lat="47.618423" lon="1.9427263">
        <ele>190</ele>
        <time>2021-10-28T07:04:22Z</time>
      </trkpt>
      <trkpt lat="47.618435" lon="1.9427234">
        <ele>190</ele>
        <time>2021-10-28T07:04:23Z</time>
      </trkpt>
      <trkpt lat="47.61844" lon="1.9427218">
        <ele>189</ele>
        <time>2021-10-28T07:04:24Z</time>
      </trkpt>
      <trkpt lat="47.618446" lon="1.9427148">
        <ele>190</ele>
        <time>2021-10-28T07:04:25Z</time>
      </trkpt>
      <trkpt lat="47.618458" lon="1.9427141">
        <ele>190</ele>
        <time>2021-10-28T07:04:26Z</time>
      </trkpt>
      <trkpt lat="47.61846" lon="1.9427148">
        <ele>190</ele>
        <time>2021-10-28T07:04:27Z</time>
      </trkpt>
      <trkpt lat="47.61847" lon="1.9427106">
        <ele>190</ele>
        <time>2021-10-28T07:04:28Z</time>
      </trkpt>
      <trkpt lat="47.618477" lon="1.9427063">
        <ele>190</ele>
        <time>2021-10-28T07:04:29Z</time>
      </trkpt>
      <trkpt lat="47.61849" lon="1.9426969">
        <ele>190</ele>
        <time>2021-10-28T07:04:30Z</time>
      </trkpt>
      <trkpt lat="47.6185" lon="1.9426906">
        <ele>190</ele>
        <time>2021-10-28T07:04:31Z</time>
      </trkpt>
      <trkpt lat="47.61851" lon="1.9426837">
        <ele>189</ele>
        <time>2021-10-28T07:04:32Z</time>
      </trkpt>
      <trkpt lat="47.61852" lon="1.942681">
        <ele>189</ele>
        <time>2021-10-28T07:04:33Z</time>
      </trkpt>
      <trkpt lat="47.61853" lon="1.9426789">
        <ele>189</ele>
        <time>2021-10-28T07:04:34Z</time>
      </trkpt>
      <trkpt lat="47.618538" lon="1.9426739">
        <ele>189</ele>
        <time>2021-10-28T07:04:35Z</time>
      </trkpt>
      <trkpt lat="47.61855" lon="1.9426713">
        <ele>189</ele>
        <time>2021-10-28T07:04:36Z</time>
      </trkpt>
      <trkpt lat="47.618565" lon="1.9426597">
        <ele>189</ele>
        <time>2021-10-28T07:04:37Z</time>
      </trkpt>
      <trkpt lat="47.618576" lon="1.942655">
        <ele>190</ele>
        <time>2021-10-28T07:04:38Z</time>
      </trkpt>
      <trkpt lat="47.618587" lon="1.9426489">
        <ele>189</ele>
        <time>2021-10-28T07:04:39Z</time>
      </trkpt>
      <trkpt lat="47.6186" lon="1.942643">
        <ele>190</ele>
        <time>2021-10-28T07:04:40Z</time>
      </trkpt>
      <trkpt lat="47.618607" lon="1.9426417">
        <ele>190</ele>
        <time>2021-10-28T07:04:41Z</time>
      </trkpt>
      <trkpt lat="47.618614" lon="1.9426411">
        <ele>190</ele>
        <time>2021-10-28T07:04:42Z</time>
      </trkpt>
      <trkpt lat="47.61862" lon="1.9426377">
        <ele>190</ele>
        <time>2021-10-28T07:04:43Z</time>
      </trkpt>
      <trkpt lat="47.618633" lon="1.9426368">
        <ele>190</ele>
        <time>2021-10-28T07:04:44Z</time>
      </trkpt>
      <trkpt lat="47.618645" lon="1.94264">
        <ele>190</ele>
        <time>2021-10-28T07:04:45Z</time>
      </trkpt>
      <trkpt lat="47.618656" lon="1.9426421">
        <ele>189</ele>
        <time>2021-10-28T07:04:46Z</time>
      </trkpt>
      <trkpt lat="47.61867" lon="1.9426405">
        <ele>189</ele>
        <time>2021-10-28T07:04:47Z</time>
      </trkpt>
      <trkpt lat="47.618687" lon="1.9426426">
        <ele>189</ele>
        <time>2021-10-28T07:04:48Z</time>
      </trkpt>
      <trkpt lat="47.6187" lon="1.942636">
        <ele>190</ele>
        <time>2021-10-28T07:04:49Z</time>
      </trkpt>
      <trkpt lat="47.61871" lon="1.9426379">
        <ele>190</ele>
        <time>2021-10-28T07:04:50Z</time>
      </trkpt>
      <trkpt lat="47.618725" lon="1.9426358">
        <ele>190</ele>
        <time>2021-10-28T07:04:51Z</time>
      </trkpt>
      <trkpt lat="47.618736" lon="1.9426328">
        <ele>189</ele>
        <time>2021-10-28T07:04:52Z</time>
      </trkpt>
      <trkpt lat="47.618744" lon="1.9426306">
        <ele>189</ele>
        <time>2021-10-28T07:04:53Z</time>
      </trkpt>
      <trkpt lat="47.618755" lon="1.9426268">
        <ele>188</ele>
        <time>2021-10-28T07:04:54Z</time>
      </trkpt>
      <trkpt lat="47.61876" lon="1.9426215">
        <ele>188</ele>
        <time>2021-10-28T07:04:55Z</time>
      </trkpt>
      <trkpt lat="47.618767" lon="1.9426221">
        <ele>187</ele>
        <time>2021-10-28T07:04:56Z</time>
      </trkpt>
      <trkpt lat="47.618782" lon="1.9426202">
        <ele>187</ele>
        <time>2021-10-28T07:04:57Z</time>
      </trkpt>
      <trkpt lat="47.61879" lon="1.9426204">
        <ele>187</ele>
        <time>2021-10-28T07:04:58Z</time>
      </trkpt>
      <trkpt lat="47.6188" lon="1.9426156">
        <ele>186</ele>
        <time>2021-10-28T07:04:59Z</time>
      </trkpt>
      <trkpt lat="47.618813" lon="1.9426184">
        <ele>186</ele>
        <time>2021-10-28T07:05:00Z</time>
      </trkpt>
      <trkpt lat="47.61882" lon="1.9426123">
        <ele>186</ele>
        <time>2021-10-28T07:05:01Z</time>
      </trkpt>
      <trkpt lat="47.618828" lon="1.9426073">
        <ele>186</ele>
        <time>2021-10-28T07:05:02Z</time>
      </trkpt>
      <trkpt lat="47.61884" lon="1.9426048">
        <ele>186</ele>
        <time>2021-10-28T07:05:03Z</time>
      </trkpt>
      <trkpt lat="47.618847" lon="1.9426022">
        <ele>186</ele>
        <time>2021-10-28T07:05:04Z</time>
      </trkpt>
      <trkpt lat="47.618855" lon="1.9425954">
        <ele>185</ele>
        <time>2021-10-28T07:05:05Z</time>
      </trkpt>
      <trkpt lat="47.618862" lon="1.9425956">
        <ele>186</ele>
        <time>2021-10-28T07:05:06Z</time>
      </trkpt>
      <trkpt lat="47.618874" lon="1.9425917">
        <ele>185</ele>
        <time>2021-10-28T07:05:07Z</time>
      </trkpt>
      <trkpt lat="47.61888" lon="1.9425827">
        <ele>185</ele>
        <time>2021-10-28T07:05:08Z</time>
      </trkpt>
      <trkpt lat="47.61889" lon="1.9425753">
        <ele>186</ele>
        <time>2021-10-28T07:05:09Z</time>
      </trkpt>
      <trkpt lat="47.6189" lon="1.9425694">
        <ele>186</ele>
        <time>2021-10-28T07:05:10Z</time>
      </trkpt>
      <trkpt lat="47.61891" lon="1.9425576">
        <ele>186</ele>
        <time>2021-10-28T07:05:11Z</time>
      </trkpt>
      <trkpt lat="47.618923" lon="1.9425426">
        <ele>187</ele>
        <time>2021-10-28T07:05:12Z</time>
      </trkpt>
      <trkpt lat="47.61893" lon="1.9425349">
        <ele>187</ele>
        <time>2021-10-28T07:05:13Z</time>
      </trkpt>
      <trkpt lat="47.618942" lon="1.9425361">
        <ele>187</ele>
        <time>2021-10-28T07:05:14Z</time>
      </trkpt>
      <trkpt lat="47.618946" lon="1.9425398">
        <ele>187</ele>
        <time>2021-10-28T07:05:15Z</time>
      </trkpt>
      <trkpt lat="47.618954" lon="1.942539">
        <ele>186</ele>
        <time>2021-10-28T07:05:16Z</time>
      </trkpt>
      <trkpt lat="47.61896" lon="1.9425397">
        <ele>186</ele>
        <time>2021-10-28T07:05:17Z</time>
      </trkpt>
      <trkpt lat="47.61897" lon="1.9425442">
        <ele>185</ele>
        <time>2021-10-28T07:05:18Z</time>
      </trkpt>
      <trkpt lat="47.618977" lon="1.9425409">
        <ele>185</ele>
        <time>2021-10-28T07:05:19Z</time>
      </trkpt>
      <trkpt lat="47.618988" lon="1.9425372">
        <ele>185</ele>
        <time>2021-10-28T07:05:20Z</time>
      </trkpt>
      <trkpt lat="47.618996" lon="1.9425339">
        <ele>185</ele>
        <time>2021-10-28T07:05:21Z</time>
      </trkpt>
      <trkpt lat="47.619007" lon="1.9425389">
        <ele>185</ele>
        <time>2021-10-28T07:05:22Z</time>
      </trkpt>
      <trkpt lat="47.61902" lon="1.9425448">
        <ele>185</ele>
        <time>2021-10-28T07:05:23Z</time>
      </trkpt>
      <trkpt lat="47.619026" lon="1.9425448">
        <ele>185</ele>
        <time>2021-10-28T07:05:24Z</time>
      </trkpt>
      <trkpt lat="47.619034" lon="1.9425446">
        <ele>184</ele>
        <time>2021-10-28T07:05:25Z</time>
      </trkpt>
      <trkpt lat="47.619034" lon="1.9425446">
        <ele>184</ele>
        <time>2021-10-28T07:05:26Z</time>
      </trkpt>
      <trkpt lat="47.619053" lon="1.9425395">
        <ele>185</ele>
        <time>2021-10-28T07:05:27Z</time>
      </trkpt>
      <trkpt lat="47.619072" lon="1.9425272">
        <ele>185</ele>
        <time>2021-10-28T07:05:28Z</time>
      </trkpt>
      <trkpt lat="47.619087" lon="1.9425099">
        <ele>185</ele>
        <time>2021-10-28T07:05:29Z</time>
      </trkpt>
      <trkpt lat="47.6191" lon="1.9424952">
        <ele>185</ele>
        <time>2021-10-28T07:05:30Z</time>
      </trkpt>
      <trkpt lat="47.61911" lon="1.9424806">
        <ele>184</ele>
        <time>2021-10-28T07:05:31Z</time>
      </trkpt>
      <trkpt lat="47.619118" lon="1.9424629">
        <ele>184</ele>
        <time>2021-10-28T07:05:32Z</time>
      </trkpt>
      <trkpt lat="47.619125" lon="1.9424493">
        <ele>184</ele>
        <time>2021-10-28T07:05:33Z</time>
      </trkpt>
      <trkpt lat="47.61913" lon="1.9424398">
        <ele>183</ele>
        <time>2021-10-28T07:05:34Z</time>
      </trkpt>
      <trkpt lat="47.619133" lon="1.9424369">
        <ele>183</ele>
        <time>2021-10-28T07:05:35Z</time>
      </trkpt>
      <trkpt lat="47.619133" lon="1.942426">
        <ele>183</ele>
        <time>2021-10-28T07:05:36Z</time>
      </trkpt>
      <trkpt lat="47.619133" lon="1.9424065">
        <ele>182</ele>
        <time>2021-10-28T07:05:37Z</time>
      </trkpt>
      <trkpt lat="47.619133" lon="1.9423882">
        <ele>182</ele>
        <time>2021-10-28T07:05:38Z</time>
      </trkpt>
      <trkpt lat="47.619137" lon="1.9423729">
        <ele>181</ele>
        <time>2021-10-28T07:05:39Z</time>
      </trkpt>
      <trkpt lat="47.61914" lon="1.9423616">
        <ele>181</ele>
        <time>2021-10-28T07:05:40Z</time>
      </trkpt>
      <trkpt lat="47.61914" lon="1.942349">
        <ele>181</ele>
        <time>2021-10-28T07:05:41Z</time>
      </trkpt>
      <trkpt lat="47.61914" lon="1.9423337">
        <ele>182</ele>
        <time>2021-10-28T07:05:42Z</time>
      </trkpt>
      <trkpt lat="47.619133" lon="1.942321">
        <ele>183</ele>
        <time>2021-10-28T07:05:43Z</time>
      </trkpt>
      <trkpt lat="47.619133" lon="1.9423085">
        <ele>183</ele>
        <time>2021-10-28T07:05:44Z</time>
      </trkpt>
      <trkpt lat="47.61913" lon="1.9422916">
        <ele>183</ele>
        <time>2021-10-28T07:05:45Z</time>
      </trkpt>
      <trkpt lat="47.619125" lon="1.9422779">
        <ele>183</ele>
        <time>2021-10-28T07:05:46Z</time>
      </trkpt>
      <trkpt lat="47.619125" lon="1.9422641">
        <ele>183</ele>
        <time>2021-10-28T07:05:47Z</time>
      </trkpt>
      <trkpt lat="47.619125" lon="1.9422486">
        <ele>184</ele>
        <time>2021-10-28T07:05:48Z</time>
      </trkpt>
      <trkpt lat="47.619125" lon="1.9422389">
        <ele>184</ele>
        <time>2021-10-28T07:05:49Z</time>
      </trkpt>
      <trkpt lat="47.619125" lon="1.9422238">
        <ele>183</ele>
        <time>2021-10-28T07:05:50Z</time>
      </trkpt>
      <trkpt lat="47.619125" lon="1.9422145">
        <ele>183</ele>
        <time>2021-10-28T07:05:51Z</time>
      </trkpt>
      <trkpt lat="47.619125" lon="1.9422109">
        <ele>182</ele>
        <time>2021-10-28T07:05:52Z</time>
      </trkpt>
      <trkpt lat="47.61913" lon="1.9422013">
        <ele>182</ele>
        <time>2021-10-28T07:05:53Z</time>
      </trkpt>
      <trkpt lat="47.61913" lon="1.9422013">
        <ele>182</ele>
        <time>2021-10-28T07:05:54Z</time>
      </trkpt>
      <trkpt lat="47.619137" lon="1.9421804">
        <ele>181</ele>
        <time>2021-10-28T07:05:55Z</time>
      </trkpt>
      <trkpt lat="47.61914" lon="1.9421687">
        <ele>181</ele>
        <time>2021-10-28T07:05:56Z</time>
      </trkpt>
      <trkpt lat="47.61914" lon="1.9421552">
        <ele>180</ele>
        <time>2021-10-28T07:05:57Z</time>
      </trkpt>
      <trkpt lat="47.619144" lon="1.9421386">
        <ele>180</ele>
        <time>2021-10-28T07:05:58Z</time>
      </trkpt>
      <trkpt lat="47.61915" lon="1.9421285">
        <ele>179</ele>
        <time>2021-10-28T07:05:59Z</time>
      </trkpt>
      <trkpt lat="47.61915" lon="1.9421285">
        <ele>179</ele>
        <time>2021-10-28T07:06:00Z</time>
      </trkpt>
      <trkpt lat="47.61915" lon="1.9421285">
        <ele>179</ele>
        <time>2021-10-28T07:06:01Z</time>
      </trkpt>
      <trkpt lat="47.61916" lon="1.9420817">
        <ele>178</ele>
        <time>2021-10-28T07:06:02Z</time>
      </trkpt>
      <trkpt lat="47.619164" lon="1.9420689">
        <ele>178</ele>
        <time>2021-10-28T07:06:03Z</time>
      </trkpt>
      <trkpt lat="47.61916" lon="1.9420525">
        <ele>177</ele>
        <time>2021-10-28T07:06:04Z</time>
      </trkpt>
      <trkpt lat="47.619156" lon="1.9420326">
        <ele>175</ele>
        <time>2021-10-28T07:06:05Z</time>
      </trkpt>
      <trkpt lat="47.619156" lon="1.9420143">
        <ele>174</ele>
        <time>2021-10-28T07:06:06Z</time>
      </trkpt>
      <trkpt lat="47.619156" lon="1.94199">
        <ele>173</ele>
        <time>2021-10-28T07:06:07Z</time>
      </trkpt>
      <trkpt lat="47.619156" lon="1.9419754">
        <ele>172</ele>
        <time>2021-10-28T07:06:08Z</time>
      </trkpt>
      <trkpt lat="47.619152" lon="1.9419543">
        <ele>171</ele>
        <time>2021-10-28T07:06:09Z</time>
      </trkpt>
      <trkpt lat="47.61915" lon="1.9419386">
        <ele>171</ele>
        <time>2021-10-28T07:06:10Z</time>
      </trkpt>
      <trkpt lat="47.619144" lon="1.9419228">
        <ele>172</ele>
        <time>2021-10-28T07:06:11Z</time>
      </trkpt>
      <trkpt lat="47.61915" lon="1.9419105">
        <ele>173</ele>
        <time>2021-10-28T07:06:12Z</time>
      </trkpt>
      <trkpt lat="47.61915" lon="1.9419105">
        <ele>173</ele>
        <time>2021-10-28T07:06:13Z</time>
      </trkpt>
      <trkpt lat="47.61915" lon="1.9419105">
        <ele>173</ele>
        <time>2021-10-28T07:06:14Z</time>
      </trkpt>
      <trkpt lat="47.619152" lon="1.9418865">
        <ele>173</ele>
        <time>2021-10-28T07:06:15Z</time>
      </trkpt>
      <trkpt lat="47.619152" lon="1.9418774">
        <ele>173</ele>
        <time>2021-10-28T07:06:16Z</time>
      </trkpt>
      <trkpt lat="47.61915" lon="1.9418616">
        <ele>172</ele>
        <time>2021-10-28T07:06:17Z</time>
      </trkpt>
      <trkpt lat="47.61915" lon="1.9418452">
        <ele>172</ele>
        <time>2021-10-28T07:06:18Z</time>
      </trkpt>
      <trkpt lat="47.619152" lon="1.941828">
        <ele>172</ele>
        <time>2021-10-28T07:06:19Z</time>
      </trkpt>
      <trkpt lat="47.619152" lon="1.9418112">
        <ele>172</ele>
        <time>2021-10-28T07:06:20Z</time>
      </trkpt>
      <trkpt lat="47.619156" lon="1.941797">
        <ele>171</ele>
        <time>2021-10-28T07:06:21Z</time>
      </trkpt>
      <trkpt lat="47.619156" lon="1.941797">
        <ele>171</ele>
        <time>2021-10-28T07:06:22Z</time>
      </trkpt>
      <trkpt lat="47.619156" lon="1.941797">
        <ele>171</ele>
        <time>2021-10-28T07:06:23Z</time>
      </trkpt>
      <trkpt lat="47.619156" lon="1.9417734">
        <ele>171</ele>
        <time>2021-10-28T07:06:24Z</time>
      </trkpt>
      <trkpt lat="47.619152" lon="1.9417571">
        <ele>170</ele>
        <time>2021-10-28T07:06:25Z</time>
      </trkpt>
      <trkpt lat="47.61915" lon="1.941744">
        <ele>170</ele>
        <time>2021-10-28T07:06:26Z</time>
      </trkpt>
      <trkpt lat="47.61915" lon="1.9417301">
        <ele>169</ele>
        <time>2021-10-28T07:06:27Z</time>
      </trkpt>
      <trkpt lat="47.61915" lon="1.9417292">
        <ele>169</ele>
        <time>2021-10-28T07:06:28Z</time>
      </trkpt>
      <trkpt lat="47.619144" lon="1.9417192">
        <ele>170</ele>
        <time>2021-10-28T07:06:29Z</time>
      </trkpt>
      <trkpt lat="47.619144" lon="1.9417065">
        <ele>169</ele>
        <time>2021-10-28T07:06:30Z</time>
      </trkpt>
      <trkpt lat="47.619144" lon="1.9416859">
        <ele>169</ele>
        <time>2021-10-28T07:06:31Z</time>
      </trkpt>
      <trkpt lat="47.61914" lon="1.9416656">
        <ele>168</ele>
        <time>2021-10-28T07:06:32Z</time>
      </trkpt>
      <trkpt lat="47.619137" lon="1.941645">
        <ele>168</ele>
        <time>2021-10-28T07:06:33Z</time>
      </trkpt>
      <trkpt lat="47.619133" lon="1.9416281">
        <ele>168</ele>
        <time>2021-10-28T07:06:34Z</time>
      </trkpt>
      <trkpt lat="47.61913" lon="1.941614">
        <ele>168</ele>
        <time>2021-10-28T07:06:35Z</time>
      </trkpt>
      <trkpt lat="47.61913" lon="1.9416007">
        <ele>168</ele>
        <time>2021-10-28T07:06:36Z</time>
      </trkpt>
      <trkpt lat="47.61913" lon="1.9415926">
        <ele>169</ele>
        <time>2021-10-28T07:06:37Z</time>
      </trkpt>
      <trkpt lat="47.61913" lon="1.9415772">
        <ele>169</ele>
        <time>2021-10-28T07:06:38Z</time>
      </trkpt>
      <trkpt lat="47.619125" lon="1.9415596">
        <ele>169</ele>
        <time>2021-10-28T07:06:39Z</time>
      </trkpt>
      <trkpt lat="47.61913" lon="1.9415454">
        <ele>169</ele>
        <time>2021-10-28T07:06:40Z</time>
      </trkpt>
      <trkpt lat="47.61913" lon="1.9415333">
        <ele>168</ele>
        <time>2021-10-28T07:06:41Z</time>
      </trkpt>
      <trkpt lat="47.619125" lon="1.9415137">
        <ele>168</ele>
        <time>2021-10-28T07:06:42Z</time>
      </trkpt>
      <trkpt lat="47.619125" lon="1.9414902">
        <ele>167</ele>
        <time>2021-10-28T07:06:43Z</time>
      </trkpt>
      <trkpt lat="47.619125" lon="1.941472">
        <ele>166</ele>
        <time>2021-10-28T07:06:44Z</time>
      </trkpt>
      <trkpt lat="47.619125" lon="1.941457">
        <ele>166</ele>
        <time>2021-10-28T07:06:45Z</time>
      </trkpt>
      <trkpt lat="47.61912" lon="1.9414412">
        <ele>166</ele>
        <time>2021-10-28T07:06:46Z</time>
      </trkpt>
      <trkpt lat="47.619118" lon="1.9414228">
        <ele>166</ele>
        <time>2021-10-28T07:06:47Z</time>
      </trkpt>
      <trkpt lat="47.619114" lon="1.9414085">
        <ele>166</ele>
        <time>2021-10-28T07:06:48Z</time>
      </trkpt>
      <trkpt lat="47.61911" lon="1.9413916">
        <ele>165</ele>
        <time>2021-10-28T07:06:49Z</time>
      </trkpt>
      <trkpt lat="47.61911" lon="1.9413769">
        <ele>165</ele>
        <time>2021-10-28T07:06:50Z</time>
      </trkpt>
      <trkpt lat="47.61911" lon="1.9413636">
        <ele>165</ele>
        <time>2021-10-28T07:06:51Z</time>
      </trkpt>
      <trkpt lat="47.619114" lon="1.9413468">
        <ele>164</ele>
        <time>2021-10-28T07:06:52Z</time>
      </trkpt>
      <trkpt lat="47.619114" lon="1.9413468">
        <ele>164</ele>
        <time>2021-10-28T07:06:53Z</time>
      </trkpt>
      <trkpt lat="47.619114" lon="1.9413468">
        <ele>164</ele>
        <time>2021-10-28T07:06:54Z</time>
      </trkpt>
      <trkpt lat="47.61913" lon="1.9413176">
        <ele>165</ele>
        <time>2021-10-28T07:06:55Z</time>
      </trkpt>
      <trkpt lat="47.619137" lon="1.9413033">
        <ele>164</ele>
        <time>2021-10-28T07:06:56Z</time>
      </trkpt>
      <trkpt lat="47.61914" lon="1.9412886">
        <ele>165</ele>
        <time>2021-10-28T07:06:57Z</time>
      </trkpt>
      <trkpt lat="47.619144" lon="1.9412766">
        <ele>165</ele>
        <time>2021-10-28T07:06:58Z</time>
      </trkpt>
      <trkpt lat="47.619144" lon="1.9412766">
        <ele>165</ele>
        <time>2021-10-28T07:06:59Z</time>
      </trkpt>
      <trkpt lat="47.619144" lon="1.9412766">
        <ele>165</ele>
        <time>2021-10-28T07:07:00Z</time>
      </trkpt>
      <trkpt lat="47.619156" lon="1.941242">
        <ele>164</ele>
        <time>2021-10-28T07:07:01Z</time>
      </trkpt>
      <trkpt lat="47.61916" lon="1.9412258">
        <ele>164</ele>
        <time>2021-10-28T07:07:02Z</time>
      </trkpt>
      <trkpt lat="47.619164" lon="1.9412103">
        <ele>164</ele>
        <time>2021-10-28T07:07:03Z</time>
      </trkpt>
      <trkpt lat="47.619167" lon="1.9411982">
        <ele>164</ele>
        <time>2021-10-28T07:07:04Z</time>
      </trkpt>
      <trkpt lat="47.619167" lon="1.9411982">
        <ele>164</ele>
        <time>2021-10-28T07:07:05Z</time>
      </trkpt>
      <trkpt lat="47.619167" lon="1.9411982">
        <ele>164</ele>
        <time>2021-10-28T07:07:06Z</time>
      </trkpt>
      <trkpt lat="47.619167" lon="1.9411982">
        <ele>164</ele>
        <time>2021-10-28T07:07:07Z</time>
      </trkpt>
      <trkpt lat="47.619167" lon="1.9411982">
        <ele>164</ele>
        <time>2021-10-28T07:07:08Z</time>
      </trkpt>
      <trkpt lat="47.619167" lon="1.9411982">
        <ele>164</ele>
        <time>2021-10-28T07:07:08Z</time>
      </trkpt>
    </trkseg>
    <trkseg>
      <trkpt lat="47.619167" lon="1.9411982">
        <ele>164</ele>
        <time>2021-10-28T07:07:08Z</time>
      </trkpt>
      <trkpt lat="47.61919" lon="1.9410629">
        <ele>172</ele>
        <time>2021-10-28T07:07:44Z</time>
      </trkpt>
      <trkpt lat="47.619198" lon="1.9410553">
        <ele>172</ele>
        <time>2021-10-28T07:07:45Z</time>
      </trkpt>
      <trkpt lat="47.6192" lon="1.9410462">
        <ele>173</ele>
        <time>2021-10-28T07:07:46Z</time>
      </trkpt>
      <trkpt lat="47.619205" lon="1.9410342">
        <ele>173</ele>
        <time>2021-10-28T07:07:47Z</time>
      </trkpt>
      <trkpt lat="47.619205" lon="1.9410172">
        <ele>173</ele>
        <time>2021-10-28T07:07:48Z</time>
      </trkpt>
      <trkpt lat="47.619205" lon="1.9410172">
        <ele>173</ele>
        <time>2021-10-28T07:07:49Z</time>
      </trkpt>
      <trkpt lat="47.619198" lon="1.940988">
        <ele>174</ele>
        <time>2021-10-28T07:07:50Z</time>
      </trkpt>
      <trkpt lat="47.619198" lon="1.9409714">
        <ele>174</ele>
        <time>2021-10-28T07:07:51Z</time>
      </trkpt>
      <trkpt lat="47.619198" lon="1.9409585">
        <ele>174</ele>
        <time>2021-10-28T07:07:52Z</time>
      </trkpt>
      <trkpt lat="47.619198" lon="1.9409448">
        <ele>175</ele>
        <time>2021-10-28T07:07:53Z</time>
      </trkpt>
      <trkpt lat="47.619198" lon="1.9409448">
        <ele>175</ele>
        <time>2021-10-28T07:07:54Z</time>
      </trkpt>
      <trkpt lat="47.619198" lon="1.9409448">
        <ele>175</ele>
        <time>2021-10-28T07:07:55Z</time>
      </trkpt>
      <trkpt lat="47.619198" lon="1.9409184">
        <ele>175</ele>
        <time>2021-10-28T07:07:56Z</time>
      </trkpt>
      <trkpt lat="47.619198" lon="1.9409064">
        <ele>175</ele>
        <time>2021-10-28T07:07:57Z</time>
      </trkpt>
      <trkpt lat="47.619194" lon="1.9408965">
        <ele>175</ele>
        <time>2021-10-28T07:07:58Z</time>
      </trkpt>
      <trkpt lat="47.619194" lon="1.9408873">
        <ele>175</ele>
        <time>2021-10-28T07:07:59Z</time>
      </trkpt>
      <trkpt lat="47.619194" lon="1.9408873">
        <ele>175</ele>
        <time>2021-10-28T07:08:00Z</time>
      </trkpt>
      <trkpt lat="47.619194" lon="1.9408873">
        <ele>175</ele>
        <time>2021-10-28T07:08:01Z</time>
      </trkpt>
      <trkpt lat="47.619186" lon="1.9408543">
        <ele>174</ele>
        <time>2021-10-28T07:08:02Z</time>
      </trkpt>
      <trkpt lat="47.61918" lon="1.9408481">
        <ele>174</ele>
        <time>2021-10-28T07:08:03Z</time>
      </trkpt>
      <trkpt lat="47.61917" lon="1.9408404">
        <ele>174</ele>
        <time>2021-10-28T07:08:04Z</time>
      </trkpt>
      <trkpt lat="47.61916" lon="1.9408318">
        <ele>175</ele>
        <time>2021-10-28T07:08:05Z</time>
      </trkpt>
      <trkpt lat="47.61916" lon="1.9408318">
        <ele>175</ele>
        <time>2021-10-28T07:08:06Z</time>
      </trkpt>
      <trkpt lat="47.61916" lon="1.9408318">
        <ele>175</ele>
        <time>2021-10-28T07:08:07Z</time>
      </trkpt>
      <trkpt lat="47.61914" lon="1.9408084">
        <ele>175</ele>
        <time>2021-10-28T07:08:08Z</time>
      </trkpt>
      <trkpt lat="47.619137" lon="1.9407974">
        <ele>175</ele>
        <time>2021-10-28T07:08:09Z</time>
      </trkpt>
      <trkpt lat="47.619133" lon="1.9407868">
        <ele>175</ele>
        <time>2021-10-28T07:08:10Z</time>
      </trkpt>
      <trkpt lat="47.61913" lon="1.9407783">
        <ele>175</ele>
        <time>2021-10-28T07:08:11Z</time>
      </trkpt>
      <trkpt lat="47.61913" lon="1.9407783">
        <ele>175</ele>
        <time>2021-10-28T07:08:12Z</time>
      </trkpt>
      <trkpt lat="47.61913" lon="1.9407783">
        <ele>175</ele>
        <time>2021-10-28T07:08:13Z</time>
      </trkpt>
      <trkpt lat="47.619118" lon="1.9407539">
        <ele>176</ele>
        <time>2021-10-28T07:08:14Z</time>
      </trkpt>
      <trkpt lat="47.619114" lon="1.9407444">
        <ele>176</ele>
        <time>2021-10-28T07:08:15Z</time>
      </trkpt>
      <trkpt lat="47.619118" lon="1.940734">
        <ele>176</ele>
        <time>2021-10-28T07:08:16Z</time>
      </trkpt>
      <trkpt lat="47.619118" lon="1.9407333">
        <ele>176</ele>
        <time>2021-10-28T07:08:17Z</time>
      </trkpt>
      <trkpt lat="47.619118" lon="1.9407333">
        <ele>176</ele>
        <time>2021-10-28T07:08:18Z</time>
      </trkpt>
      <trkpt lat="47.619118" lon="1.9407333">
        <ele>176</ele>
        <time>2021-10-28T07:08:19Z</time>
      </trkpt>
      <trkpt lat="47.619118" lon="1.940707">
        <ele>176</ele>
        <time>2021-10-28T07:08:20Z</time>
      </trkpt>
      <trkpt lat="47.619114" lon="1.9406961">
        <ele>176</ele>
        <time>2021-10-28T07:08:21Z</time>
      </trkpt>
      <trkpt lat="47.619114" lon="1.9406855">
        <ele>175</ele>
        <time>2021-10-28T07:08:22Z</time>
      </trkpt>
      <trkpt lat="47.619114" lon="1.9406735">
        <ele>175</ele>
        <time>2021-10-28T07:08:23Z</time>
      </trkpt>
      <trkpt lat="47.619114" lon="1.9406735">
        <ele>175</ele>
        <time>2021-10-28T07:08:24Z</time>
      </trkpt>
      <trkpt lat="47.619114" lon="1.9406735">
        <ele>175</ele>
        <time>2021-10-28T07:08:25Z</time>
      </trkpt>
      <trkpt lat="47.61911" lon="1.9406343">
        <ele>174</ele>
        <time>2021-10-28T07:08:26Z</time>
      </trkpt>
      <trkpt lat="47.619114" lon="1.9406213">
        <ele>174</ele>
        <time>2021-10-28T07:08:27Z</time>
      </trkpt>
      <trkpt lat="47.619106" lon="1.94061">
        <ele>174</ele>
        <time>2021-10-28T07:08:28Z</time>
      </trkpt>
      <trkpt lat="47.619106" lon="1.9405961">
        <ele>173</ele>
        <time>2021-10-28T07:08:29Z</time>
      </trkpt>
      <trkpt lat="47.619102" lon="1.9405851">
        <ele>173</ele>
        <time>2021-10-28T07:08:30Z</time>
      </trkpt>
      <trkpt lat="47.619102" lon="1.9405701">
        <ele>173</ele>
        <time>2021-10-28T07:08:31Z</time>
      </trkpt>
      <trkpt lat="47.619102" lon="1.9405701">
        <ele>173</ele>
        <time>2021-10-28T07:08:32Z</time>
      </trkpt>
      <trkpt lat="47.619102" lon="1.9405701">
        <ele>173</ele>
        <time>2021-10-28T07:08:33Z</time>
      </trkpt>
      <trkpt lat="47.619095" lon="1.940535">
        <ele>173</ele>
        <time>2021-10-28T07:08:34Z</time>
      </trkpt>
      <trkpt lat="47.619095" lon="1.9405239">
        <ele>173</ele>
        <time>2021-10-28T07:08:35Z</time>
      </trkpt>
      <trkpt lat="47.619095" lon="1.9405121">
        <ele>173</ele>
        <time>2021-10-28T07:08:36Z</time>
      </trkpt>
      <trkpt lat="47.619095" lon="1.940501">
        <ele>173</ele>
        <time>2021-10-28T07:08:37Z</time>
      </trkpt>
      <trkpt lat="47.619095" lon="1.940501">
        <ele>173</ele>
        <time>2021-10-28T07:08:38Z</time>
      </trkpt>
      <trkpt lat="47.619087" lon="1.9404776">
        <ele>173</ele>
        <time>2021-10-28T07:08:39Z</time>
      </trkpt>
      <trkpt lat="47.619083" lon="1.9404694">
        <ele>173</ele>
        <time>2021-10-28T07:08:40Z</time>
      </trkpt>
      <trkpt lat="47.61908" lon="1.940458">
        <ele>173</ele>
        <time>2021-10-28T07:08:41Z</time>
      </trkpt>
      <trkpt lat="47.61908" lon="1.9404471">
        <ele>173</ele>
        <time>2021-10-28T07:08:42Z</time>
      </trkpt>
      <trkpt lat="47.61908" lon="1.9404471">
        <ele>173</ele>
        <time>2021-10-28T07:08:43Z</time>
      </trkpt>
      <trkpt lat="47.61908" lon="1.9404471">
        <ele>173</ele>
        <time>2021-10-28T07:08:44Z</time>
      </trkpt>
      <trkpt lat="47.619072" lon="1.9404202">
        <ele>173</ele>
        <time>2021-10-28T07:08:45Z</time>
      </trkpt>
      <trkpt lat="47.619076" lon="1.9404063">
        <ele>173</ele>
        <time>2021-10-28T07:08:46Z</time>
      </trkpt>
      <trkpt lat="47.619076" lon="1.9403878">
        <ele>172</ele>
        <time>2021-10-28T07:08:47Z</time>
      </trkpt>
      <trkpt lat="47.619076" lon="1.940373">
        <ele>172</ele>
        <time>2021-10-28T07:08:48Z</time>
      </trkpt>
      <trkpt lat="47.61907" lon="1.9403573">
        <ele>172</ele>
        <time>2021-10-28T07:08:49Z</time>
      </trkpt>
      <trkpt lat="47.619064" lon="1.9403404">
        <ele>171</ele>
        <time>2021-10-28T07:08:50Z</time>
      </trkpt>
      <trkpt lat="47.619064" lon="1.9403223">
        <ele>170</ele>
        <time>2021-10-28T07:08:51Z</time>
      </trkpt>
      <trkpt lat="47.61906" lon="1.9403033">
        <ele>170</ele>
        <time>2021-10-28T07:08:52Z</time>
      </trkpt>
      <trkpt lat="47.619053" lon="1.9402859">
        <ele>169</ele>
        <time>2021-10-28T07:08:53Z</time>
      </trkpt>
      <trkpt lat="47.61905" lon="1.9402661">
        <ele>169</ele>
        <time>2021-10-28T07:08:54Z</time>
      </trkpt>
      <trkpt lat="47.61904" lon="1.9402484">
        <ele>169</ele>
        <time>2021-10-28T07:08:55Z</time>
      </trkpt>
      <trkpt lat="47.619038" lon="1.9402393">
        <ele>168</ele>
        <time>2021-10-28T07:08:56Z</time>
      </trkpt>
      <trkpt lat="47.619038" lon="1.9402307">
        <ele>169</ele>
        <time>2021-10-28T07:08:57Z</time>
      </trkpt>
      <trkpt lat="47.619034" lon="1.9402156">
        <ele>169</ele>
        <time>2021-10-28T07:08:58Z</time>
      </trkpt>
      <trkpt lat="47.619034" lon="1.9402003">
        <ele>169</ele>
        <time>2021-10-28T07:08:59Z</time>
      </trkpt>
      <trkpt lat="47.61903" lon="1.9401857">
        <ele>169</ele>
        <time>2021-10-28T07:09:00Z</time>
      </trkpt>
      <trkpt lat="47.61903" lon="1.9401675">
        <ele>169</ele>
        <time>2021-10-28T07:09:01Z</time>
      </trkpt>
      <trkpt lat="47.619026" lon="1.9401535">
        <ele>169</ele>
        <time>2021-10-28T07:09:02Z</time>
      </trkpt>
      <trkpt lat="47.61902" lon="1.940136">
        <ele>170</ele>
        <time>2021-10-28T07:09:03Z</time>
      </trkpt>
      <trkpt lat="47.619015" lon="1.9401231">
        <ele>170</ele>
        <time>2021-10-28T07:09:04Z</time>
      </trkpt>
      <trkpt lat="47.61901" lon="1.9401088">
        <ele>170</ele>
        <time>2021-10-28T07:09:05Z</time>
      </trkpt>
      <trkpt lat="47.619007" lon="1.940095">
        <ele>171</ele>
        <time>2021-10-28T07:09:06Z</time>
      </trkpt>
      <trkpt lat="47.619007" lon="1.9400817">
        <ele>170</ele>
        <time>2021-10-28T07:09:07Z</time>
      </trkpt>
      <trkpt lat="47.619003" lon="1.9400662">
        <ele>170</ele>
        <time>2021-10-28T07:09:08Z</time>
      </trkpt>
      <trkpt lat="47.619" lon="1.9400568">
        <ele>170</ele>
        <time>2021-10-28T07:09:09Z</time>
      </trkpt>
      <trkpt lat="47.619" lon="1.9400412">
        <ele>169</ele>
        <time>2021-10-28T07:09:10Z</time>
      </trkpt>
      <trkpt lat="47.619" lon="1.940025">
        <ele>169</ele>
        <time>2021-10-28T07:09:11Z</time>
      </trkpt>
      <trkpt lat="47.618996" lon="1.9400123">
        <ele>168</ele>
        <time>2021-10-28T07:09:12Z</time>
      </trkpt>
      <trkpt lat="47.618996" lon="1.9400123">
        <ele>168</ele>
        <time>2021-10-28T07:09:13Z</time>
      </trkpt>
      <trkpt lat="47.618996" lon="1.9400123">
        <ele>168</ele>
        <time>2021-10-28T07:09:14Z</time>
      </trkpt>
      <trkpt lat="47.619003" lon="1.9399765">
        <ele>167</ele>
        <time>2021-10-28T07:09:15Z</time>
      </trkpt>
      <trkpt lat="47.619003" lon="1.9399683">
        <ele>167</ele>
        <time>2021-10-28T07:09:16Z</time>
      </trkpt>
      <trkpt lat="47.619" lon="1.9399512">
        <ele>167</ele>
        <time>2021-10-28T07:09:17Z</time>
      </trkpt>
      <trkpt lat="47.618988" lon="1.9399377">
        <ele>167</ele>
        <time>2021-10-28T07:09:18Z</time>
      </trkpt>
      <trkpt lat="47.618977" lon="1.939927">
        <ele>167</ele>
        <time>2021-10-28T07:09:19Z</time>
      </trkpt>
      <trkpt lat="47.618965" lon="1.939918">
        <ele>167</ele>
        <time>2021-10-28T07:09:20Z</time>
      </trkpt>
      <trkpt lat="47.61896" lon="1.9398986">
        <ele>168</ele>
        <time>2021-10-28T07:09:21Z</time>
      </trkpt>
      <trkpt lat="47.618954" lon="1.9398818">
        <ele>168</ele>
        <time>2021-10-28T07:09:22Z</time>
      </trkpt>
      <trkpt lat="47.61895" lon="1.9398671">
        <ele>168</ele>
        <time>2021-10-28T07:09:23Z</time>
      </trkpt>
      <trkpt lat="47.618946" lon="1.9398495">
        <ele>167</ele>
        <time>2021-10-28T07:09:24Z</time>
      </trkpt>
      <trkpt lat="47.618946" lon="1.9398329">
        <ele>167</ele>
        <time>2021-10-28T07:09:25Z</time>
      </trkpt>
      <trkpt lat="47.618946" lon="1.9398198">
        <ele>167</ele>
        <time>2021-10-28T07:09:26Z</time>
      </trkpt>
      <trkpt lat="47.618942" lon="1.9398034">
        <ele>167</ele>
        <time>2021-10-28T07:09:27Z</time>
      </trkpt>
      <trkpt lat="47.61894" lon="1.9397832">
        <ele>168</ele>
        <time>2021-10-28T07:09:28Z</time>
      </trkpt>
      <trkpt lat="47.61894" lon="1.939768">
        <ele>167</ele>
        <time>2021-10-28T07:09:29Z</time>
      </trkpt>
      <trkpt lat="47.61894" lon="1.939752">
        <ele>168</ele>
        <time>2021-10-28T07:09:30Z</time>
      </trkpt>
      <trkpt lat="47.61894" lon="1.939752">
        <ele>168</ele>
        <time>2021-10-28T07:09:31Z</time>
      </trkpt>
      <trkpt lat="47.61894" lon="1.939752">
        <ele>168</ele>
        <time>2021-10-28T07:09:32Z</time>
      </trkpt>
      <trkpt lat="47.61894" lon="1.93971">
        <ele>168</ele>
        <time>2021-10-28T07:09:33Z</time>
      </trkpt>
      <trkpt lat="47.61894" lon="1.9396923">
        <ele>168</ele>
        <time>2021-10-28T07:09:34Z</time>
      </trkpt>
      <trkpt lat="47.61894" lon="1.9396743">
        <ele>168</ele>
        <time>2021-10-28T07:09:35Z</time>
      </trkpt>
      <trkpt lat="47.618935" lon="1.9396534">
        <ele>168</ele>
        <time>2021-10-28T07:09:36Z</time>
      </trkpt>
      <trkpt lat="47.618927" lon="1.939635">
        <ele>168</ele>
        <time>2021-10-28T07:09:37Z</time>
      </trkpt>
      <trkpt lat="47.618923" lon="1.939618">
        <ele>168</ele>
        <time>2021-10-28T07:09:38Z</time>
      </trkpt>
      <trkpt lat="47.61892" lon="1.9395993">
        <ele>168</ele>
        <time>2021-10-28T07:09:39Z</time>
      </trkpt>
      <trkpt lat="47.618916" lon="1.9395834">
        <ele>168</ele>
        <time>2021-10-28T07:09:40Z</time>
      </trkpt>
      <trkpt lat="47.618908" lon="1.9395657">
        <ele>168</ele>
        <time>2021-10-28T07:09:41Z</time>
      </trkpt>
      <trkpt lat="47.6189" lon="1.9395508">
        <ele>168</ele>
        <time>2021-10-28T07:09:42Z</time>
      </trkpt>
      <trkpt lat="47.6189" lon="1.9395508">
        <ele>168</ele>
        <time>2021-10-28T07:09:43Z</time>
      </trkpt>
      <trkpt lat="47.61889" lon="1.9395218">
        <ele>168</ele>
        <time>2021-10-28T07:09:44Z</time>
      </trkpt>
      <trkpt lat="47.618885" lon="1.9395053">
        <ele>169</ele>
        <time>2021-10-28T07:09:45Z</time>
      </trkpt>
      <trkpt lat="47.61888" lon="1.9394875">
        <ele>170</ele>
        <time>2021-10-28T07:09:46Z</time>
      </trkpt>
      <trkpt lat="47.61888" lon="1.9394722">
        <ele>171</ele>
        <time>2021-10-28T07:09:47Z</time>
      </trkpt>
      <trkpt lat="47.61888" lon="1.939461">
        <ele>171</ele>
        <time>2021-10-28T07:09:48Z</time>
      </trkpt>
      <trkpt lat="47.618877" lon="1.9394424">
        <ele>171</ele>
        <time>2021-10-28T07:09:49Z</time>
      </trkpt>
      <trkpt lat="47.618877" lon="1.9394279">
        <ele>171</ele>
        <time>2021-10-28T07:09:50Z</time>
      </trkpt>
      <trkpt lat="47.618874" lon="1.9394138">
        <ele>171</ele>
        <time>2021-10-28T07:09:51Z</time>
      </trkpt>
      <trkpt lat="47.618874" lon="1.9393942">
        <ele>171</ele>
        <time>2021-10-28T07:09:52Z</time>
      </trkpt>
      <trkpt lat="47.618874" lon="1.9393758">
        <ele>170</ele>
        <time>2021-10-28T07:09:53Z</time>
      </trkpt>
      <trkpt lat="47.618866" lon="1.9393575">
        <ele>171</ele>
        <time>2021-10-28T07:09:54Z</time>
      </trkpt>
      <trkpt lat="47.61886" lon="1.9393383">
        <ele>170</ele>
        <time>2021-10-28T07:09:55Z</time>
      </trkpt>
      <trkpt lat="47.618855" lon="1.9393224">
        <ele>170</ele>
        <time>2021-10-28T07:09:56Z</time>
      </trkpt>
      <trkpt lat="47.61885" lon="1.9393075">
        <ele>170</ele>
        <time>2021-10-28T07:09:57Z</time>
      </trkpt>
      <trkpt lat="47.61885" lon="1.9393075">
        <ele>170</ele>
        <time>2021-10-28T07:09:58Z</time>
      </trkpt>
      <trkpt lat="47.61885" lon="1.9393075">
        <ele>170</ele>
        <time>2021-10-28T07:09:59Z</time>
      </trkpt>
      <trkpt lat="47.61885" lon="1.9392692">
        <ele>170</ele>
        <time>2021-10-28T07:10:00Z</time>
      </trkpt>
      <trkpt lat="47.618847" lon="1.9392542">
        <ele>170</ele>
        <time>2021-10-28T07:10:01Z</time>
      </trkpt>
      <trkpt lat="47.618843" lon="1.9392346">
        <ele>169</ele>
        <time>2021-10-28T07:10:02Z</time>
      </trkpt>
      <trkpt lat="47.61884" lon="1.939215">
        <ele>169</ele>
        <time>2021-10-28T07:10:03Z</time>
      </trkpt>
      <trkpt lat="47.61884" lon="1.9391918">
        <ele>170</ele>
        <time>2021-10-28T07:10:04Z</time>
      </trkpt>
      <trkpt lat="47.61883" lon="1.9391695">
        <ele>170</ele>
        <time>2021-10-28T07:10:05Z</time>
      </trkpt>
      <trkpt lat="47.618828" lon="1.9391494">
        <ele>169</ele>
        <time>2021-10-28T07:10:06Z</time>
      </trkpt>
      <trkpt lat="47.618824" lon="1.9391297">
        <ele>169</ele>
        <time>2021-10-28T07:10:07Z</time>
      </trkpt>
      <trkpt lat="47.61882" lon="1.9391085">
        <ele>168</ele>
        <time>2021-10-28T07:10:08Z</time>
      </trkpt>
      <trkpt lat="47.618816" lon="1.9390899">
        <ele>168</ele>
        <time>2021-10-28T07:10:09Z</time>
      </trkpt>
      <trkpt lat="47.618816" lon="1.9390727">
        <ele>168</ele>
        <time>2021-10-28T07:10:10Z</time>
      </trkpt>
      <trkpt lat="47.618813" lon="1.9390585">
        <ele>169</ele>
        <time>2021-10-28T07:10:11Z</time>
      </trkpt>
      <trkpt lat="47.61881" lon="1.9390439">
        <ele>168</ele>
        <time>2021-10-28T07:10:12Z</time>
      </trkpt>
      <trkpt lat="47.618805" lon="1.939031">
        <ele>168</ele>
        <time>2021-10-28T07:10:13Z</time>
      </trkpt>
      <trkpt lat="47.6188" lon="1.9390122">
        <ele>169</ele>
        <time>2021-10-28T07:10:14Z</time>
      </trkpt>
      <trkpt lat="47.61879" lon="1.9389894">
        <ele>169</ele>
        <time>2021-10-28T07:10:15Z</time>
      </trkpt>
      <trkpt lat="47.618786" lon="1.9389672">
        <ele>170</ele>
        <time>2021-10-28T07:10:16Z</time>
      </trkpt>
      <trkpt lat="47.618782" lon="1.9389522">
        <ele>170</ele>
        <time>2021-10-28T07:10:17Z</time>
      </trkpt>
      <trkpt lat="47.618774" lon="1.9389385">
        <ele>170</ele>
        <time>2021-10-28T07:10:18Z</time>
      </trkpt>
      <trkpt lat="47.61877" lon="1.9389309">
        <ele>170</ele>
        <time>2021-10-28T07:10:19Z</time>
      </trkpt>
      <trkpt lat="47.618763" lon="1.93892">
        <ele>171</ele>
        <time>2021-10-28T07:10:20Z</time>
      </trkpt>
      <trkpt lat="47.618763" lon="1.93892">
        <ele>171</ele>
        <time>2021-10-28T07:10:21Z</time>
      </trkpt>
      <trkpt lat="47.618763" lon="1.93892">
        <ele>171</ele>
        <time>2021-10-28T07:10:22Z</time>
      </trkpt>
      <trkpt lat="47.61876" lon="1.9388803">
        <ele>171</ele>
        <time>2021-10-28T07:10:23Z</time>
      </trkpt>
      <trkpt lat="47.618755" lon="1.9388648">
        <ele>171</ele>
        <time>2021-10-28T07:10:24Z</time>
      </trkpt>
      <trkpt lat="47.61875" lon="1.9388534">
        <ele>171</ele>
        <time>2021-10-28T07:10:25Z</time>
      </trkpt>
      <trkpt lat="47.618748" lon="1.9388403">
        <ele>171</ele>
        <time>2021-10-28T07:10:26Z</time>
      </trkpt>
      <trkpt lat="47.618748" lon="1.9388403">
        <ele>171</ele>
        <time>2021-10-28T07:10:27Z</time>
      </trkpt>
      <trkpt lat="47.618748" lon="1.9388403">
        <ele>171</ele>
        <time>2021-10-28T07:10:28Z</time>
      </trkpt>
      <trkpt lat="47.61875" lon="1.9388065">
        <ele>171</ele>
        <time>2021-10-28T07:10:29Z</time>
      </trkpt>
      <trkpt lat="47.61875" lon="1.9387949">
        <ele>171</ele>
        <time>2021-10-28T07:10:30Z</time>
      </trkpt>
      <trkpt lat="47.618748" lon="1.9387844">
        <ele>171</ele>
        <time>2021-10-28T07:10:31Z</time>
      </trkpt>
      <trkpt lat="47.618748" lon="1.938773">
        <ele>171</ele>
        <time>2021-10-28T07:10:32Z</time>
      </trkpt>
      <trkpt lat="47.618748" lon="1.938773">
        <ele>171</ele>
        <time>2021-10-28T07:10:33Z</time>
      </trkpt>
      <trkpt lat="47.618748" lon="1.938773">
        <ele>171</ele>
        <time>2021-10-28T07:10:34Z</time>
      </trkpt>
      <trkpt lat="47.618748" lon="1.9387325">
        <ele>172</ele>
        <time>2021-10-28T07:10:35Z</time>
      </trkpt>
      <trkpt lat="47.61875" lon="1.9387127">
        <ele>172</ele>
        <time>2021-10-28T07:10:36Z</time>
      </trkpt>
      <trkpt lat="47.61875" lon="1.9386942">
        <ele>172</ele>
        <time>2021-10-28T07:10:37Z</time>
      </trkpt>
      <trkpt lat="47.61875" lon="1.9386747">
        <ele>172</ele>
        <time>2021-10-28T07:10:38Z</time>
      </trkpt>
      <trkpt lat="47.61875" lon="1.9386562">
        <ele>171</ele>
        <time>2021-10-28T07:10:39Z</time>
      </trkpt>
      <trkpt lat="47.618744" lon="1.9386353">
        <ele>170</ele>
        <time>2021-10-28T07:10:40Z</time>
      </trkpt>
      <trkpt lat="47.61874" lon="1.9386184">
        <ele>170</ele>
        <time>2021-10-28T07:10:41Z</time>
      </trkpt>
      <trkpt lat="47.618736" lon="1.938605">
        <ele>170</ele>
        <time>2021-10-28T07:10:42Z</time>
      </trkpt>
      <trkpt lat="47.618732" lon="1.938586">
        <ele>169</ele>
        <time>2021-10-28T07:10:43Z</time>
      </trkpt>
      <trkpt lat="47.61872" lon="1.9385659">
        <ele>169</ele>
        <time>2021-10-28T07:10:44Z</time>
      </trkpt>
      <trkpt lat="47.618717" lon="1.9385499">
        <ele>168</ele>
        <time>2021-10-28T07:10:45Z</time>
      </trkpt>
      <trkpt lat="47.61871" lon="1.938534">
        <ele>169</ele>
        <time>2021-10-28T07:10:46Z</time>
      </trkpt>
      <trkpt lat="47.61871" lon="1.938534">
        <ele>169</ele>
        <time>2021-10-28T07:10:47Z</time>
      </trkpt>
      <trkpt lat="47.61871" lon="1.938534">
        <ele>169</ele>
        <time>2021-10-28T07:10:48Z</time>
      </trkpt>
      <trkpt lat="47.6187" lon="1.9385043">
        <ele>169</ele>
        <time>2021-10-28T07:10:49Z</time>
      </trkpt>
      <trkpt lat="47.618694" lon="1.938491">
        <ele>169</ele>
        <time>2021-10-28T07:10:50Z</time>
      </trkpt>
      <trkpt lat="47.618687" lon="1.9384767">
        <ele>169</ele>
        <time>2021-10-28T07:10:51Z</time>
      </trkpt>
      <trkpt lat="47.618683" lon="1.9384633">
        <ele>170</ele>
        <time>2021-10-28T07:10:52Z</time>
      </trkpt>
      <trkpt lat="47.618675" lon="1.9384493">
        <ele>170</ele>
        <time>2021-10-28T07:10:53Z</time>
      </trkpt>
      <trkpt lat="47.618664" lon="1.9384322">
        <ele>171</ele>
        <time>2021-10-28T07:10:54Z</time>
      </trkpt>
      <trkpt lat="47.61866" lon="1.9384152">
        <ele>172</ele>
        <time>2021-10-28T07:10:55Z</time>
      </trkpt>
      <trkpt lat="47.618656" lon="1.9384015">
        <ele>173</ele>
        <time>2021-10-28T07:10:56Z</time>
      </trkpt>
      <trkpt lat="47.618652" lon="1.9383872">
        <ele>173</ele>
        <time>2021-10-28T07:10:57Z</time>
      </trkpt>
      <trkpt lat="47.618645" lon="1.9383701">
        <ele>173</ele>
        <time>2021-10-28T07:10:58Z</time>
      </trkpt>
      <trkpt lat="47.618637" lon="1.9383563">
        <ele>173</ele>
        <time>2021-10-28T07:10:59Z</time>
      </trkpt>
      <trkpt lat="47.618637" lon="1.9383446">
        <ele>173</ele>
        <time>2021-10-28T07:11:00Z</time>
      </trkpt>
      <trkpt lat="47.618633" lon="1.9383335">
        <ele>173</ele>
        <time>2021-10-28T07:11:01Z</time>
      </trkpt>
      <trkpt lat="47.618626" lon="1.9383174">
        <ele>173</ele>
        <time>2021-10-28T07:11:02Z</time>
      </trkpt>
      <trkpt lat="47.61862" lon="1.9383038">
        <ele>174</ele>
        <time>2021-10-28T07:11:03Z</time>
      </trkpt>
      <trkpt lat="47.618618" lon="1.9382898">
        <ele>174</ele>
        <time>2021-10-28T07:11:04Z</time>
      </trkpt>
      <trkpt lat="47.618614" lon="1.938281">
        <ele>174</ele>
        <time>2021-10-28T07:11:05Z</time>
      </trkpt>
      <trkpt lat="47.618603" lon="1.9382666">
        <ele>174</ele>
        <time>2021-10-28T07:11:06Z</time>
      </trkpt>
      <trkpt lat="47.6186" lon="1.9382459">
        <ele>174</ele>
        <time>2021-10-28T07:11:07Z</time>
      </trkpt>
      <trkpt lat="47.618595" lon="1.9382308">
        <ele>174</ele>
        <time>2021-10-28T07:11:08Z</time>
      </trkpt>
      <trkpt lat="47.618595" lon="1.9382128">
        <ele>173</ele>
        <time>2021-10-28T07:11:09Z</time>
      </trkpt>
      <trkpt lat="47.61859" lon="1.9382011">
        <ele>173</ele>
        <time>2021-10-28T07:11:10Z</time>
      </trkpt>
      <trkpt lat="47.618587" lon="1.9381876">
        <ele>173</ele>
        <time>2021-10-28T07:11:11Z</time>
      </trkpt>
      <trkpt lat="47.618587" lon="1.9381726">
        <ele>173</ele>
        <time>2021-10-28T07:11:12Z</time>
      </trkpt>
      <trkpt lat="47.618584" lon="1.9381574">
        <ele>173</ele>
        <time>2021-10-28T07:11:13Z</time>
      </trkpt>
      <trkpt lat="47.618584" lon="1.9381417">
        <ele>173</ele>
        <time>2021-10-28T07:11:14Z</time>
      </trkpt>
      <trkpt lat="47.618584" lon="1.9381309">
        <ele>173</ele>
        <time>2021-10-28T07:11:15Z</time>
      </trkpt>
      <trkpt lat="47.61858" lon="1.9381217">
        <ele>173</ele>
        <time>2021-10-28T07:11:16Z</time>
      </trkpt>
      <trkpt lat="47.61858" lon="1.9381217">
        <ele>173</ele>
        <time>2021-10-28T07:11:17Z</time>
      </trkpt>
      <trkpt lat="47.61858" lon="1.9381217">
        <ele>173</ele>
        <time>2021-10-28T07:11:18Z</time>
      </trkpt>
      <trkpt lat="47.61858" lon="1.938093">
        <ele>172</ele>
        <time>2021-10-28T07:11:19Z</time>
      </trkpt>
      <trkpt lat="47.61858" lon="1.9380842">
        <ele>172</ele>
        <time>2021-10-28T07:11:20Z</time>
      </trkpt>
      <trkpt lat="47.618576" lon="1.9380703">
        <ele>172</ele>
        <time>2021-10-28T07:11:21Z</time>
      </trkpt>
      <trkpt lat="47.618572" lon="1.9380555">
        <ele>173</ele>
        <time>2021-10-28T07:11:22Z</time>
      </trkpt>
      <trkpt lat="47.618572" lon="1.9380399">
        <ele>173</ele>
        <time>2021-10-28T07:11:23Z</time>
      </trkpt>
      <trkpt lat="47.618565" lon="1.9380214">
        <ele>172</ele>
        <time>2021-10-28T07:11:24Z</time>
      </trkpt>
      <trkpt lat="47.61856" lon="1.9380051">
        <ele>172</ele>
        <time>2021-10-28T07:11:25Z</time>
      </trkpt>
      <trkpt lat="47.618557" lon="1.9379884">
        <ele>172</ele>
        <time>2021-10-28T07:11:26Z</time>
      </trkpt>
      <trkpt lat="47.618553" lon="1.9379714">
        <ele>172</ele>
        <time>2021-10-28T07:11:27Z</time>
      </trkpt>
      <trkpt lat="47.61855" lon="1.9379545">
        <ele>171</ele>
        <time>2021-10-28T07:11:28Z</time>
      </trkpt>
      <trkpt lat="47.618546" lon="1.9379395">
        <ele>171</ele>
        <time>2021-10-28T07:11:29Z</time>
      </trkpt>
      <trkpt lat="47.61854" lon="1.9379277">
        <ele>170</ele>
        <time>2021-10-28T07:11:30Z</time>
      </trkpt>
      <trkpt lat="47.61854" lon="1.9379277">
        <ele>170</ele>
        <time>2021-10-28T07:11:31Z</time>
      </trkpt>
      <trkpt lat="47.61854" lon="1.937894">
        <ele>170</ele>
        <time>2021-10-28T07:11:32Z</time>
      </trkpt>
      <trkpt lat="47.618538" lon="1.9378785">
        <ele>170</ele>
        <time>2021-10-28T07:11:33Z</time>
      </trkpt>
      <trkpt lat="47.61853" lon="1.9378622">
        <ele>171</ele>
        <time>2021-10-28T07:11:34Z</time>
      </trkpt>
      <trkpt lat="47.618523" lon="1.9378484">
        <ele>172</ele>
        <time>2021-10-28T07:11:35Z</time>
      </trkpt>
      <trkpt lat="47.618515" lon="1.937834">
        <ele>172</ele>
        <time>2021-10-28T07:11:36Z</time>
      </trkpt>
      <trkpt lat="47.618515" lon="1.9378229">
        <ele>172</ele>
        <time>2021-10-28T07:11:37Z</time>
      </trkpt>
      <trkpt lat="47.61851" lon="1.9378163">
        <ele>172</ele>
        <time>2021-10-28T07:11:38Z</time>
      </trkpt>
      <trkpt lat="47.61851" lon="1.9378026">
        <ele>172</ele>
        <time>2021-10-28T07:11:39Z</time>
      </trkpt>
      <trkpt lat="47.618507" lon="1.937786">
        <ele>172</ele>
        <time>2021-10-28T07:11:40Z</time>
      </trkpt>
      <trkpt lat="47.618504" lon="1.9377654">
        <ele>173</ele>
        <time>2021-10-28T07:11:41Z</time>
      </trkpt>
      <trkpt lat="47.6185" lon="1.937749">
        <ele>173</ele>
        <time>2021-10-28T07:11:42Z</time>
      </trkpt>
      <trkpt lat="47.618492" lon="1.9377327">
        <ele>173</ele>
        <time>2021-10-28T07:11:43Z</time>
      </trkpt>
      <trkpt lat="47.61849" lon="1.9377153">
        <ele>173</ele>
        <time>2021-10-28T07:11:44Z</time>
      </trkpt>
      <trkpt lat="47.618484" lon="1.9376979">
        <ele>173</ele>
        <time>2021-10-28T07:11:45Z</time>
      </trkpt>
      <trkpt lat="47.618484" lon="1.9376824">
        <ele>173</ele>
        <time>2021-10-28T07:11:46Z</time>
      </trkpt>
      <trkpt lat="47.61848" lon="1.9376698">
        <ele>173</ele>
        <time>2021-10-28T07:11:47Z</time>
      </trkpt>
      <trkpt lat="47.61848" lon="1.9376698">
        <ele>173</ele>
        <time>2021-10-28T07:11:48Z</time>
      </trkpt>
      <trkpt lat="47.61848" lon="1.9376698">
        <ele>173</ele>
        <time>2021-10-28T07:11:49Z</time>
      </trkpt>
      <trkpt lat="47.61848" lon="1.9376488">
        <ele>173</ele>
        <time>2021-10-28T07:11:50Z</time>
      </trkpt>
      <trkpt lat="47.61848" lon="1.9376408">
        <ele>173</ele>
        <time>2021-10-28T07:11:51Z</time>
      </trkpt>
      <trkpt lat="47.61848" lon="1.937631">
        <ele>174</ele>
        <time>2021-10-28T07:11:52Z</time>
      </trkpt>
      <trkpt lat="47.618477" lon="1.9376172">
        <ele>174</ele>
        <time>2021-10-28T07:11:53Z</time>
      </trkpt>
      <trkpt lat="47.618473" lon="1.9376028">
        <ele>174</ele>
        <time>2021-10-28T07:11:54Z</time>
      </trkpt>
      <trkpt lat="47.61847" lon="1.9375881">
        <ele>174</ele>
        <time>2021-10-28T07:11:55Z</time>
      </trkpt>
      <trkpt lat="47.618465" lon="1.9375699">
        <ele>174</ele>
        <time>2021-10-28T07:11:56Z</time>
      </trkpt>
      <trkpt lat="47.61846" lon="1.9375464">
        <ele>174</ele>
        <time>2021-10-28T07:11:57Z</time>
      </trkpt>
      <trkpt lat="47.618458" lon="1.9375268">
        <ele>174</ele>
        <time>2021-10-28T07:11:58Z</time>
      </trkpt>
      <trkpt lat="47.61845" lon="1.9375039">
        <ele>174</ele>
        <time>2021-10-28T07:11:59Z</time>
      </trkpt>
      <trkpt lat="47.618446" lon="1.9374814">
        <ele>175</ele>
        <time>2021-10-28T07:12:00Z</time>
      </trkpt>
      <trkpt lat="47.61844" lon="1.9374557">
        <ele>174</ele>
        <time>2021-10-28T07:12:01Z</time>
      </trkpt>
      <trkpt lat="47.618435" lon="1.937431">
        <ele>174</ele>
        <time>2021-10-28T07:12:02Z</time>
      </trkpt>
      <trkpt lat="47.61843" lon="1.9374137">
        <ele>174</ele>
        <time>2021-10-28T07:12:03Z</time>
      </trkpt>
      <trkpt lat="47.618423" lon="1.9373996">
        <ele>174</ele>
        <time>2021-10-28T07:12:04Z</time>
      </trkpt>
      <trkpt lat="47.61842" lon="1.9373833">
        <ele>175</ele>
        <time>2021-10-28T07:12:05Z</time>
      </trkpt>
      <trkpt lat="47.618416" lon="1.9373636">
        <ele>175</ele>
        <time>2021-10-28T07:12:06Z</time>
      </trkpt>
      <trkpt lat="47.618412" lon="1.9373462">
        <ele>175</ele>
        <time>2021-10-28T07:12:07Z</time>
      </trkpt>
      <trkpt lat="47.61841" lon="1.9373378">
        <ele>175</ele>
        <time>2021-10-28T07:12:08Z</time>
      </trkpt>
      <trkpt lat="47.618404" lon="1.9373258">
        <ele>175</ele>
        <time>2021-10-28T07:12:09Z</time>
      </trkpt>
      <trkpt lat="47.618397" lon="1.9373137">
        <ele>175</ele>
        <time>2021-10-28T07:12:10Z</time>
      </trkpt>
      <trkpt lat="47.618393" lon="1.9372953">
        <ele>175</ele>
        <time>2021-10-28T07:12:11Z</time>
      </trkpt>
      <trkpt lat="47.618385" lon="1.9372802">
        <ele>175</ele>
        <time>2021-10-28T07:12:12Z</time>
      </trkpt>
      <trkpt lat="47.618385" lon="1.9372631">
        <ele>176</ele>
        <time>2021-10-28T07:12:13Z</time>
      </trkpt>
      <trkpt lat="47.618378" lon="1.9372451">
        <ele>176</ele>
        <time>2021-10-28T07:12:14Z</time>
      </trkpt>
      <trkpt lat="47.618378" lon="1.9372305">
        <ele>177</ele>
        <time>2021-10-28T07:12:15Z</time>
      </trkpt>
      <trkpt lat="47.618374" lon="1.9372138">
        <ele>177</ele>
        <time>2021-10-28T07:12:16Z</time>
      </trkpt>
      <trkpt lat="47.618366" lon="1.9371923">
        <ele>177</ele>
        <time>2021-10-28T07:12:17Z</time>
      </trkpt>
      <trkpt lat="47.61836" lon="1.9371816">
        <ele>177</ele>
        <time>2021-10-28T07:12:18Z</time>
      </trkpt>
      <trkpt lat="47.61835" lon="1.937168">
        <ele>179</ele>
        <time>2021-10-28T07:12:19Z</time>
      </trkpt>
      <trkpt lat="47.618347" lon="1.9371562">
        <ele>179</ele>
        <time>2021-10-28T07:12:20Z</time>
      </trkpt>
      <trkpt lat="47.618347" lon="1.9371432">
        <ele>178</ele>
        <time>2021-10-28T07:12:21Z</time>
      </trkpt>
      <trkpt lat="47.618343" lon="1.9371233">
        <ele>178</ele>
        <time>2021-10-28T07:12:22Z</time>
      </trkpt>
      <trkpt lat="47.618343" lon="1.9371233">
        <ele>178</ele>
        <time>2021-10-28T07:12:23Z</time>
      </trkpt>
      <trkpt lat="47.618343" lon="1.9371233">
        <ele>178</ele>
        <time>2021-10-28T07:12:24Z</time>
      </trkpt>
      <trkpt lat="47.61834" lon="1.9370912">
        <ele>178</ele>
        <time>2021-10-28T07:12:25Z</time>
      </trkpt>
      <trkpt lat="47.618336" lon="1.9370766">
        <ele>178</ele>
        <time>2021-10-28T07:12:26Z</time>
      </trkpt>
      <trkpt lat="47.618332" lon="1.9370636">
        <ele>178</ele>
        <time>2021-10-28T07:12:27Z</time>
      </trkpt>
      <trkpt lat="47.61833" lon="1.9370512">
        <ele>177</ele>
        <time>2021-10-28T07:12:28Z</time>
      </trkpt>
      <trkpt lat="47.618324" lon="1.9370368">
        <ele>178</ele>
        <time>2021-10-28T07:12:29Z</time>
      </trkpt>
      <trkpt lat="47.61832" lon="1.9370221">
        <ele>178</ele>
        <time>2021-10-28T07:12:30Z</time>
      </trkpt>
      <trkpt lat="47.618313" lon="1.9370005">
        <ele>177</ele>
        <time>2021-10-28T07:12:31Z</time>
      </trkpt>
      <trkpt lat="47.618313" lon="1.9369819">
        <ele>177</ele>
        <time>2021-10-28T07:12:32Z</time>
      </trkpt>
      <trkpt lat="47.61831" lon="1.9369656">
        <ele>177</ele>
        <time>2021-10-28T07:12:33Z</time>
      </trkpt>
      <trkpt lat="47.61831" lon="1.9369485">
        <ele>177</ele>
        <time>2021-10-28T07:12:34Z</time>
      </trkpt>
      <trkpt lat="47.618305" lon="1.9369271">
        <ele>176</ele>
        <time>2021-10-28T07:12:35Z</time>
      </trkpt>
      <trkpt lat="47.6183" lon="1.93691">
        <ele>176</ele>
        <time>2021-10-28T07:12:36Z</time>
      </trkpt>
      <trkpt lat="47.618298" lon="1.9368917">
        <ele>177</ele>
        <time>2021-10-28T07:12:37Z</time>
      </trkpt>
      <trkpt lat="47.618294" lon="1.9368745">
        <ele>177</ele>
        <time>2021-10-28T07:12:38Z</time>
      </trkpt>
      <trkpt lat="47.61829" lon="1.9368572">
        <ele>178</ele>
        <time>2021-10-28T07:12:39Z</time>
      </trkpt>
      <trkpt lat="47.618286" lon="1.936844">
        <ele>177</ele>
        <time>2021-10-28T07:12:40Z</time>
      </trkpt>
      <trkpt lat="47.618286" lon="1.936844">
        <ele>177</ele>
        <time>2021-10-28T07:12:41Z</time>
      </trkpt>
      <trkpt lat="47.618286" lon="1.936844">
        <ele>177</ele>
        <time>2021-10-28T07:12:42Z</time>
      </trkpt>
      <trkpt lat="47.618282" lon="1.9368051">
        <ele>176</ele>
        <time>2021-10-28T07:12:43Z</time>
      </trkpt>
      <trkpt lat="47.618275" lon="1.936789">
        <ele>175</ele>
        <time>2021-10-28T07:12:44Z</time>
      </trkpt>
      <trkpt lat="47.618275" lon="1.9367766">
        <ele>175</ele>
        <time>2021-10-28T07:12:45Z</time>
      </trkpt>
      <trkpt lat="47.618275" lon="1.9367653">
        <ele>174</ele>
        <time>2021-10-28T07:12:46Z</time>
      </trkpt>
      <trkpt lat="47.618275" lon="1.9367566">
        <ele>174</ele>
        <time>2021-10-28T07:12:47Z</time>
      </trkpt>
      <trkpt lat="47.618275" lon="1.936748">
        <ele>174</ele>
        <time>2021-10-28T07:12:48Z</time>
      </trkpt>
      <trkpt lat="47.61828" lon="1.9367366">
        <ele>174</ele>
        <time>2021-10-28T07:12:49Z</time>
      </trkpt>
      <trkpt lat="47.61828" lon="1.9367265">
        <ele>174</ele>
        <time>2021-10-28T07:12:50Z</time>
      </trkpt>
      <trkpt lat="47.61828" lon="1.9367265">
        <ele>174</ele>
        <time>2021-10-28T07:12:51Z</time>
      </trkpt>
      <trkpt lat="47.61828" lon="1.9367265">
        <ele>174</ele>
        <time>2021-10-28T07:12:52Z</time>
      </trkpt>
      <trkpt lat="47.61827" lon="1.9366982">
        <ele>173</ele>
        <time>2021-10-28T07:12:53Z</time>
      </trkpt>
      <trkpt lat="47.618263" lon="1.9366826">
        <ele>173</ele>
        <time>2021-10-28T07:12:54Z</time>
      </trkpt>
      <trkpt lat="47.61826" lon="1.9366682">
        <ele>173</ele>
        <time>2021-10-28T07:12:55Z</time>
      </trkpt>
      <trkpt lat="47.61826" lon="1.9366547">
        <ele>173</ele>
        <time>2021-10-28T07:12:56Z</time>
      </trkpt>
      <trkpt lat="47.61826" lon="1.9366547">
        <ele>173</ele>
        <time>2021-10-28T07:12:57Z</time>
      </trkpt>
      <trkpt lat="47.61826" lon="1.9366547">
        <ele>173</ele>
        <time>2021-10-28T07:12:58Z</time>
      </trkpt>
      <trkpt lat="47.618256" lon="1.9366132">
        <ele>172</ele>
        <time>2021-10-28T07:12:59Z</time>
      </trkpt>
      <trkpt lat="47.618256" lon="1.9366025">
        <ele>172</ele>
        <time>2021-10-28T07:13:00Z</time>
      </trkpt>
      <trkpt lat="47.618248" lon="1.936588">
        <ele>172</ele>
        <time>2021-10-28T07:13:01Z</time>
      </trkpt>
      <trkpt lat="47.61824" lon="1.9365636">
        <ele>172</ele>
        <time>2021-10-28T07:13:02Z</time>
      </trkpt>
      <trkpt lat="47.618237" lon="1.9365447">
        <ele>171</ele>
        <time>2021-10-28T07:13:03Z</time>
      </trkpt>
      <trkpt lat="47.61823" lon="1.9365265">
        <ele>171</ele>
        <time>2021-10-28T07:13:04Z</time>
      </trkpt>
      <trkpt lat="47.618225" lon="1.9365072">
        <ele>171</ele>
        <time>2021-10-28T07:13:05Z</time>
      </trkpt>
      <trkpt lat="47.618217" lon="1.9364867">
        <ele>170</ele>
        <time>2021-10-28T07:13:06Z</time>
      </trkpt>
      <trkpt lat="47.618214" lon="1.936465">
        <ele>171</ele>
        <time>2021-10-28T07:13:07Z</time>
      </trkpt>
      <trkpt lat="47.61821" lon="1.9364463">
        <ele>171</ele>
        <time>2021-10-28T07:13:08Z</time>
      </trkpt>
      <trkpt lat="47.618206" lon="1.9364252">
        <ele>172</ele>
        <time>2021-10-28T07:13:09Z</time>
      </trkpt>
      <trkpt lat="47.61821" lon="1.9364096">
        <ele>172</ele>
        <time>2021-10-28T07:13:10Z</time>
      </trkpt>
      <trkpt lat="47.61821" lon="1.9363874">
        <ele>172</ele>
        <time>2021-10-28T07:13:11Z</time>
      </trkpt>
      <trkpt lat="47.618206" lon="1.936365">
        <ele>172</ele>
        <time>2021-10-28T07:13:12Z</time>
      </trkpt>
      <trkpt lat="47.618202" lon="1.9363478">
        <ele>173</ele>
        <time>2021-10-28T07:13:13Z</time>
      </trkpt>
      <trkpt lat="47.618202" lon="1.9363344">
        <ele>173</ele>
        <time>2021-10-28T07:13:14Z</time>
      </trkpt>
      <trkpt lat="47.6182" lon="1.936325">
        <ele>173</ele>
        <time>2021-10-28T07:13:15Z</time>
      </trkpt>
      <trkpt lat="47.6182" lon="1.936325">
        <ele>173</ele>
        <time>2021-10-28T07:13:16Z</time>
      </trkpt>
      <trkpt lat="47.6182" lon="1.936325">
        <ele>173</ele>
        <time>2021-10-28T07:13:17Z</time>
      </trkpt>
      <trkpt lat="47.618202" lon="1.9363036">
        <ele>173</ele>
        <time>2021-10-28T07:13:18Z</time>
      </trkpt>
      <trkpt lat="47.618202" lon="1.9362919">
        <ele>173</ele>
        <time>2021-10-28T07:13:19Z</time>
      </trkpt>
      <trkpt lat="47.618195" lon="1.9362752">
        <ele>173</ele>
        <time>2021-10-28T07:13:20Z</time>
      </trkpt>
      <trkpt lat="47.618187" lon="1.9362601">
        <ele>173</ele>
        <time>2021-10-28T07:13:21Z</time>
      </trkpt>
      <trkpt lat="47.618187" lon="1.9362433">
        <ele>172</ele>
        <time>2021-10-28T07:13:22Z</time>
      </trkpt>
      <trkpt lat="47.61818" lon="1.9362257">
        <ele>172</ele>
        <time>2021-10-28T07:13:23Z</time>
      </trkpt>
      <trkpt lat="47.618176" lon="1.9362102">
        <ele>171</ele>
        <time>2021-10-28T07:13:24Z</time>
      </trkpt>
      <trkpt lat="47.61817" lon="1.9361984">
        <ele>171</ele>
        <time>2021-10-28T07:13:25Z</time>
      </trkpt>
      <trkpt lat="47.618168" lon="1.9361854">
        <ele>170</ele>
        <time>2021-10-28T07:13:26Z</time>
      </trkpt>
      <trkpt lat="47.618168" lon="1.9361854">
        <ele>170</ele>
        <time>2021-10-28T07:13:27Z</time>
      </trkpt>
      <trkpt lat="47.618168" lon="1.9361854">
        <ele>170</ele>
        <time>2021-10-28T07:13:28Z</time>
      </trkpt>
      <trkpt lat="47.618156" lon="1.9361444">
        <ele>169</ele>
        <time>2021-10-28T07:13:29Z</time>
      </trkpt>
      <trkpt lat="47.618153" lon="1.9361268">
        <ele>169</ele>
        <time>2021-10-28T07:13:30Z</time>
      </trkpt>
      <trkpt lat="47.61815" lon="1.936108">
        <ele>169</ele>
        <time>2021-10-28T07:13:31Z</time>
      </trkpt>
      <trkpt lat="47.618145" lon="1.9360873">
        <ele>169</ele>
        <time>2021-10-28T07:13:32Z</time>
      </trkpt>
      <trkpt lat="47.61814" lon="1.936068">
        <ele>168</ele>
        <time>2021-10-28T07:13:33Z</time>
      </trkpt>
      <trkpt lat="47.618137" lon="1.9360554">
        <ele>168</ele>
        <time>2021-10-28T07:13:34Z</time>
      </trkpt>
      <trkpt lat="47.618137" lon="1.9360443">
        <ele>168</ele>
        <time>2021-10-28T07:13:35Z</time>
      </trkpt>
      <trkpt lat="47.618137" lon="1.9360269">
        <ele>167</ele>
        <time>2021-10-28T07:13:36Z</time>
      </trkpt>
      <trkpt lat="47.618137" lon="1.9360269">
        <ele>167</ele>
        <time>2021-10-28T07:13:37Z</time>
      </trkpt>
      <trkpt lat="47.618134" lon="1.9359956">
        <ele>167</ele>
        <time>2021-10-28T07:13:38Z</time>
      </trkpt>
      <trkpt lat="47.61813" lon="1.9359839">
        <ele>167</ele>
        <time>2021-10-28T07:13:39Z</time>
      </trkpt>
      <trkpt lat="47.618122" lon="1.9359717">
        <ele>168</ele>
        <time>2021-10-28T07:13:40Z</time>
      </trkpt>
      <trkpt lat="47.61812" lon="1.9359591">
        <ele>168</ele>
        <time>2021-10-28T07:13:41Z</time>
      </trkpt>
      <trkpt lat="47.61811" lon="1.9359463">
        <ele>168</ele>
        <time>2021-10-28T07:13:42Z</time>
      </trkpt>
      <trkpt lat="47.618107" lon="1.9359305">
        <ele>168</ele>
        <time>2021-10-28T07:13:43Z</time>
      </trkpt>
      <trkpt lat="47.618103" lon="1.9359132">
        <ele>167</ele>
        <time>2021-10-28T07:13:44Z</time>
      </trkpt>
      <trkpt lat="47.618103" lon="1.9359049">
        <ele>167</ele>
        <time>2021-10-28T07:13:45Z</time>
      </trkpt>
      <trkpt lat="47.618103" lon="1.935885">
        <ele>167</ele>
        <time>2021-10-28T07:13:46Z</time>
      </trkpt>
      <trkpt lat="47.618103" lon="1.935865">
        <ele>166</ele>
        <time>2021-10-28T07:13:47Z</time>
      </trkpt>
      <trkpt lat="47.618103" lon="1.935865">
        <ele>166</ele>
        <time>2021-10-28T07:13:48Z</time>
      </trkpt>
      <trkpt lat="47.618103" lon="1.935865">
        <ele>166</ele>
        <time>2021-10-28T07:13:49Z</time>
      </trkpt>
      <trkpt lat="47.618103" lon="1.9358402">
        <ele>166</ele>
        <time>2021-10-28T07:13:50Z</time>
      </trkpt>
      <trkpt lat="47.6181" lon="1.9358286">
        <ele>166</ele>
        <time>2021-10-28T07:13:51Z</time>
      </trkpt>
      <trkpt lat="47.61809" lon="1.9358195">
        <ele>167</ele>
        <time>2021-10-28T07:13:52Z</time>
      </trkpt>
      <trkpt lat="47.61809" lon="1.935805">
        <ele>167</ele>
        <time>2021-10-28T07:13:53Z</time>
      </trkpt>
      <trkpt lat="47.618088" lon="1.9357892">
        <ele>168</ele>
        <time>2021-10-28T07:13:54Z</time>
      </trkpt>
      <trkpt lat="47.618088" lon="1.9357781">
        <ele>168</ele>
        <time>2021-10-28T07:13:55Z</time>
      </trkpt>
      <trkpt lat="47.618084" lon="1.9357588">
        <ele>168</ele>
        <time>2021-10-28T07:13:56Z</time>
      </trkpt>
      <trkpt lat="47.61808" lon="1.93574">
        <ele>169</ele>
        <time>2021-10-28T07:13:57Z</time>
      </trkpt>
      <trkpt lat="47.618076" lon="1.9357188">
        <ele>169</ele>
        <time>2021-10-28T07:13:58Z</time>
      </trkpt>
      <trkpt lat="47.618076" lon="1.9357193">
        <ele>169</ele>
        <time>2021-10-28T07:13:59Z</time>
      </trkpt>
      <trkpt lat="47.618076" lon="1.9357089">
        <ele>169</ele>
        <time>2021-10-28T07:14:00Z</time>
      </trkpt>
      <trkpt lat="47.618076" lon="1.9356971">
        <ele>169</ele>
        <time>2021-10-28T07:14:01Z</time>
      </trkpt>
      <trkpt lat="47.618076" lon="1.9356971">
        <ele>169</ele>
        <time>2021-10-28T07:14:02Z</time>
      </trkpt>
      <trkpt lat="47.618076" lon="1.9356971">
        <ele>169</ele>
        <time>2021-10-28T07:14:03Z</time>
      </trkpt>
      <trkpt lat="47.61807" lon="1.9356571">
        <ele>168</ele>
        <time>2021-10-28T07:14:04Z</time>
      </trkpt>
      <trkpt lat="47.618065" lon="1.9356401">
        <ele>167</ele>
        <time>2021-10-28T07:14:05Z</time>
      </trkpt>
      <trkpt lat="47.61806" lon="1.9356216">
        <ele>167</ele>
        <time>2021-10-28T07:14:06Z</time>
      </trkpt>
      <trkpt lat="47.618053" lon="1.9356022">
        <ele>167</ele>
        <time>2021-10-28T07:14:07Z</time>
      </trkpt>
      <trkpt lat="47.618053" lon="1.9356022">
        <ele>167</ele>
        <time>2021-10-28T07:14:08Z</time>
      </trkpt>
      <trkpt lat="47.618053" lon="1.9356022">
        <ele>167</ele>
        <time>2021-10-28T07:14:09Z</time>
      </trkpt>
      <trkpt lat="47.618053" lon="1.9355589">
        <ele>167</ele>
        <time>2021-10-28T07:14:10Z</time>
      </trkpt>
      <trkpt lat="47.61805" lon="1.935539">
        <ele>167</ele>
        <time>2021-10-28T07:14:11Z</time>
      </trkpt>
      <trkpt lat="47.61805" lon="1.9355179">
        <ele>167</ele>
        <time>2021-10-28T07:14:12Z</time>
      </trkpt>
      <trkpt lat="47.61805" lon="1.9355081">
        <ele>167</ele>
        <time>2021-10-28T07:14:13Z</time>
      </trkpt>
      <trkpt lat="47.618053" lon="1.9355013">
        <ele>168</ele>
        <time>2021-10-28T07:14:14Z</time>
      </trkpt>
      <trkpt lat="47.618057" lon="1.9354922">
        <ele>168</ele>
        <time>2021-10-28T07:14:15Z</time>
      </trkpt>
      <trkpt lat="47.618057" lon="1.9354794">
        <ele>168</ele>
        <time>2021-10-28T07:14:16Z</time>
      </trkpt>
      <trkpt lat="47.618057" lon="1.9354794">
        <ele>168</ele>
        <time>2021-10-28T07:14:17Z</time>
      </trkpt>
      <trkpt lat="47.618057" lon="1.9354794">
        <ele>168</ele>
        <time>2021-10-28T07:14:18Z</time>
      </trkpt>
      <trkpt lat="47.618053" lon="1.9354379">
        <ele>168</ele>
        <time>2021-10-28T07:14:19Z</time>
      </trkpt>
      <trkpt lat="47.61805" lon="1.9354169">
        <ele>168</ele>
        <time>2021-10-28T07:14:20Z</time>
      </trkpt>
      <trkpt lat="47.618046" lon="1.9353946">
        <ele>168</ele>
        <time>2021-10-28T07:14:21Z</time>
      </trkpt>
      <trkpt lat="47.618042" lon="1.9353807">
        <ele>168</ele>
        <time>2021-10-28T07:14:22Z</time>
      </trkpt>
      <trkpt lat="47.61804" lon="1.9353641">
        <ele>167</ele>
        <time>2021-10-28T07:14:23Z</time>
      </trkpt>
      <trkpt lat="47.61804" lon="1.9353641">
        <ele>167</ele>
        <time>2021-10-28T07:14:24Z</time>
      </trkpt>
      <trkpt lat="47.61804" lon="1.9353641">
        <ele>167</ele>
        <time>2021-10-28T07:14:25Z</time>
      </trkpt>
      <trkpt lat="47.61802" lon="1.9353181">
        <ele>167</ele>
        <time>2021-10-28T07:14:26Z</time>
      </trkpt>
      <trkpt lat="47.618015" lon="1.935303">
        <ele>166</ele>
        <time>2021-10-28T07:14:27Z</time>
      </trkpt>
      <trkpt lat="47.61801" lon="1.9352834">
        <ele>165</ele>
        <time>2021-10-28T07:14:28Z</time>
      </trkpt>
      <trkpt lat="47.61801" lon="1.9352627">
        <ele>165</ele>
        <time>2021-10-28T07:14:29Z</time>
      </trkpt>
      <trkpt lat="47.618008" lon="1.9352427">
        <ele>164</ele>
        <time>2021-10-28T07:14:30Z</time>
      </trkpt>
      <trkpt lat="47.61801" lon="1.9352207">
        <ele>164</ele>
        <time>2021-10-28T07:14:31Z</time>
      </trkpt>
      <trkpt lat="47.61801" lon="1.9352207">
        <ele>164</ele>
        <time>2021-10-28T07:14:32Z</time>
      </trkpt>
      <trkpt lat="47.61801" lon="1.9352207">
        <ele>164</ele>
        <time>2021-10-28T07:14:33Z</time>
      </trkpt>
      <trkpt lat="47.618004" lon="1.9351786">
        <ele>164</ele>
        <time>2021-10-28T07:14:34Z</time>
      </trkpt>
      <trkpt lat="47.618" lon="1.9351584">
        <ele>163</ele>
        <time>2021-10-28T07:14:35Z</time>
      </trkpt>
      <trkpt lat="47.618" lon="1.9351383">
        <ele>163</ele>
        <time>2021-10-28T07:14:36Z</time>
      </trkpt>
      <trkpt lat="47.618" lon="1.9351155">
        <ele>164</ele>
        <time>2021-10-28T07:14:37Z</time>
      </trkpt>
      <trkpt lat="47.618004" lon="1.935096">
        <ele>164</ele>
        <time>2021-10-28T07:14:38Z</time>
      </trkpt>
      <trkpt lat="47.618004" lon="1.9350759">
        <ele>163</ele>
        <time>2021-10-28T07:14:39Z</time>
      </trkpt>
      <trkpt lat="47.618004" lon="1.9350497">
        <ele>164</ele>
        <time>2021-10-28T07:14:40Z</time>
      </trkpt>
      <trkpt lat="47.618004" lon="1.935029">
        <ele>164</ele>
        <time>2021-10-28T07:14:41Z</time>
      </trkpt>
      <trkpt lat="47.618004" lon="1.9350084">
        <ele>164</ele>
        <time>2021-10-28T07:14:42Z</time>
      </trkpt>
      <trkpt lat="47.617996" lon="1.9349883">
        <ele>163</ele>
        <time>2021-10-28T07:14:43Z</time>
      </trkpt>
      <trkpt lat="47.617992" lon="1.9349661">
        <ele>163</ele>
        <time>2021-10-28T07:14:44Z</time>
      </trkpt>
      <trkpt lat="47.61799" lon="1.9349457">
        <ele>163</ele>
        <time>2021-10-28T07:14:45Z</time>
      </trkpt>
      <trkpt lat="47.617985" lon="1.9349234">
        <ele>163</ele>
        <time>2021-10-28T07:14:46Z</time>
      </trkpt>
      <trkpt lat="47.617977" lon="1.934905">
        <ele>163</ele>
        <time>2021-10-28T07:14:47Z</time>
      </trkpt>
      <trkpt lat="47.617973" lon="1.9348899">
        <ele>163</ele>
        <time>2021-10-28T07:14:48Z</time>
      </trkpt>
      <trkpt lat="47.617966" lon="1.9348748">
        <ele>163</ele>
        <time>2021-10-28T07:14:49Z</time>
      </trkpt>
      <trkpt lat="47.61796" lon="1.9348562">
        <ele>163</ele>
        <time>2021-10-28T07:14:50Z</time>
      </trkpt>
      <trkpt lat="47.617954" lon="1.9348395">
        <ele>163</ele>
        <time>2021-10-28T07:14:51Z</time>
      </trkpt>
      <trkpt lat="47.617954" lon="1.9348211">
        <ele>164</ele>
        <time>2021-10-28T07:14:52Z</time>
      </trkpt>
      <trkpt lat="47.617947" lon="1.9348019">
        <ele>163</ele>
        <time>2021-10-28T07:14:53Z</time>
      </trkpt>
      <trkpt lat="47.617947" lon="1.9348019">
        <ele>163</ele>
        <time>2021-10-28T07:14:54Z</time>
      </trkpt>
      <trkpt lat="47.617947" lon="1.9348019">
        <ele>163</ele>
        <time>2021-10-28T07:14:55Z</time>
      </trkpt>
      <trkpt lat="47.61794" lon="1.9347543">
        <ele>162</ele>
        <time>2021-10-28T07:14:56Z</time>
      </trkpt>
      <trkpt lat="47.617935" lon="1.9347352">
        <ele>162</ele>
        <time>2021-10-28T07:14:57Z</time>
      </trkpt>
      <trkpt lat="47.617924" lon="1.9347173">
        <ele>162</ele>
        <time>2021-10-28T07:14:58Z</time>
      </trkpt>
      <trkpt lat="47.61792" lon="1.9347006">
        <ele>162</ele>
        <time>2021-10-28T07:14:59Z</time>
      </trkpt>
      <trkpt lat="47.617916" lon="1.934682">
        <ele>162</ele>
        <time>2021-10-28T07:15:00Z</time>
      </trkpt>
      <trkpt lat="47.617912" lon="1.9346607">
        <ele>162</ele>
        <time>2021-10-28T07:15:01Z</time>
      </trkpt>
      <trkpt lat="47.617912" lon="1.9346416">
        <ele>163</ele>
        <time>2021-10-28T07:15:02Z</time>
      </trkpt>
      <trkpt lat="47.61791" lon="1.9346288">
        <ele>163</ele>
        <time>2021-10-28T07:15:03Z</time>
      </trkpt>
      <trkpt lat="47.617905" lon="1.9346186">
        <ele>163</ele>
        <time>2021-10-28T07:15:04Z</time>
      </trkpt>
      <trkpt lat="47.6179" lon="1.9346051">
        <ele>163</ele>
        <time>2021-10-28T07:15:05Z</time>
      </trkpt>
      <trkpt lat="47.6179" lon="1.9346051">
        <ele>163</ele>
        <time>2021-10-28T07:15:06Z</time>
      </trkpt>
      <trkpt lat="47.617893" lon="1.9345863">
        <ele>163</ele>
        <time>2021-10-28T07:15:07Z</time>
      </trkpt>
      <trkpt lat="47.617893" lon="1.9345764">
        <ele>163</ele>
        <time>2021-10-28T07:15:08Z</time>
      </trkpt>
      <trkpt lat="47.61789" lon="1.9345633">
        <ele>163</ele>
        <time>2021-10-28T07:15:09Z</time>
      </trkpt>
      <trkpt lat="47.617886" lon="1.9345456">
        <ele>163</ele>
        <time>2021-10-28T07:15:10Z</time>
      </trkpt>
      <trkpt lat="47.617886" lon="1.9345274">
        <ele>163</ele>
        <time>2021-10-28T07:15:11Z</time>
      </trkpt>
      <trkpt lat="47.617878" lon="1.9345114">
        <ele>164</ele>
        <time>2021-10-28T07:15:12Z</time>
      </trkpt>
      <trkpt lat="47.617874" lon="1.9344884">
        <ele>164</ele>
        <time>2021-10-28T07:15:13Z</time>
      </trkpt>
      <trkpt lat="47.617874" lon="1.9344697">
        <ele>164</ele>
        <time>2021-10-28T07:15:14Z</time>
      </trkpt>
      <trkpt lat="47.61787" lon="1.9344544">
        <ele>165</ele>
        <time>2021-10-28T07:15:15Z</time>
      </trkpt>
      <trkpt lat="47.617867" lon="1.9344387">
        <ele>165</ele>
        <time>2021-10-28T07:15:16Z</time>
      </trkpt>
      <trkpt lat="47.617863" lon="1.9344243">
        <ele>165</ele>
        <time>2021-10-28T07:15:17Z</time>
      </trkpt>
      <trkpt lat="47.617863" lon="1.9344243">
        <ele>165</ele>
        <time>2021-10-28T07:15:18Z</time>
      </trkpt>
      <trkpt lat="47.617863" lon="1.9344243">
        <ele>165</ele>
        <time>2021-10-28T07:15:19Z</time>
      </trkpt>
      <trkpt lat="47.617855" lon="1.9343723">
        <ele>163</ele>
        <time>2021-10-28T07:15:20Z</time>
      </trkpt>
      <trkpt lat="47.61785" lon="1.9343543">
        <ele>163</ele>
        <time>2021-10-28T07:15:21Z</time>
      </trkpt>
      <trkpt lat="47.61785" lon="1.934342">
        <ele>163</ele>
        <time>2021-10-28T07:15:22Z</time>
      </trkpt>
      <trkpt lat="47.617847" lon="1.9343314">
        <ele>162</ele>
        <time>2021-10-28T07:15:23Z</time>
      </trkpt>
      <trkpt lat="47.617847" lon="1.934315">
        <ele>162</ele>
        <time>2021-10-28T07:15:24Z</time>
      </trkpt>
      <trkpt lat="47.617844" lon="1.934293">
        <ele>162</ele>
        <time>2021-10-28T07:15:25Z</time>
      </trkpt>
      <trkpt lat="47.61784" lon="1.934274">
        <ele>162</ele>
        <time>2021-10-28T07:15:26Z</time>
      </trkpt>
      <trkpt lat="47.61784" lon="1.934258">
        <ele>162</ele>
        <time>2021-10-28T07:15:27Z</time>
      </trkpt>
      <trkpt lat="47.617836" lon="1.9342412">
        <ele>162</ele>
        <time>2021-10-28T07:15:28Z</time>
      </trkpt>
      <trkpt lat="47.61783" lon="1.9342186">
        <ele>163</ele>
        <time>2021-10-28T07:15:29Z</time>
      </trkpt>
      <trkpt lat="47.61782" lon="1.934199">
        <ele>163</ele>
        <time>2021-10-28T07:15:30Z</time>
      </trkpt>
      <trkpt lat="47.617817" lon="1.9341807">
        <ele>164</ele>
        <time>2021-10-28T07:15:31Z</time>
      </trkpt>
      <trkpt lat="47.617817" lon="1.9341658">
        <ele>164</ele>
        <time>2021-10-28T07:15:32Z</time>
      </trkpt>
      <trkpt lat="47.617817" lon="1.9341526">
        <ele>164</ele>
        <time>2021-10-28T07:15:33Z</time>
      </trkpt>
      <trkpt lat="47.617813" lon="1.9341375">
        <ele>164</ele>
        <time>2021-10-28T07:15:34Z</time>
      </trkpt>
      <trkpt lat="47.61781" lon="1.9341242">
        <ele>164</ele>
        <time>2021-10-28T07:15:35Z</time>
      </trkpt>
      <trkpt lat="47.61781" lon="1.9341242">
        <ele>164</ele>
        <time>2021-10-28T07:15:36Z</time>
      </trkpt>
      <trkpt lat="47.61781" lon="1.9341242">
        <ele>164</ele>
        <time>2021-10-28T07:15:37Z</time>
      </trkpt>
      <trkpt lat="47.617805" lon="1.9340855">
        <ele>164</ele>
        <time>2021-10-28T07:15:38Z</time>
      </trkpt>
      <trkpt lat="47.617805" lon="1.9340705">
        <ele>164</ele>
        <time>2021-10-28T07:15:39Z</time>
      </trkpt>
      <trkpt lat="47.61781" lon="1.9340552">
        <ele>164</ele>
        <time>2021-10-28T07:15:40Z</time>
      </trkpt>
      <trkpt lat="47.617805" lon="1.9340409">
        <ele>164</ele>
        <time>2021-10-28T07:15:41Z</time>
      </trkpt>
      <trkpt lat="47.617805" lon="1.9340266">
        <ele>164</ele>
        <time>2021-10-28T07:15:42Z</time>
      </trkpt>
      <trkpt lat="47.617805" lon="1.9340266">
        <ele>164</ele>
        <time>2021-10-28T07:15:43Z</time>
      </trkpt>
      <trkpt lat="47.6178" lon="1.9339978">
        <ele>163</ele>
        <time>2021-10-28T07:15:44Z</time>
      </trkpt>
      <trkpt lat="47.617798" lon="1.9339788">
        <ele>163</ele>
        <time>2021-10-28T07:15:45Z</time>
      </trkpt>
      <trkpt lat="47.617794" lon="1.9339613">
        <ele>163</ele>
        <time>2021-10-28T07:15:46Z</time>
      </trkpt>
      <trkpt lat="47.61779" lon="1.933941">
        <ele>163</ele>
        <time>2021-10-28T07:15:47Z</time>
      </trkpt>
      <trkpt lat="47.61779" lon="1.9339237">
        <ele>163</ele>
        <time>2021-10-28T07:15:48Z</time>
      </trkpt>
      <trkpt lat="47.617786" lon="1.933905">
        <ele>163</ele>
        <time>2021-10-28T07:15:49Z</time>
      </trkpt>
      <trkpt lat="47.617783" lon="1.9338866">
        <ele>164</ele>
        <time>2021-10-28T07:15:50Z</time>
      </trkpt>
      <trkpt lat="47.617775" lon="1.933871">
        <ele>164</ele>
        <time>2021-10-28T07:15:51Z</time>
      </trkpt>
      <trkpt lat="47.617775" lon="1.9338573">
        <ele>164</ele>
        <time>2021-10-28T07:15:52Z</time>
      </trkpt>
      <trkpt lat="47.617775" lon="1.9338378">
        <ele>164</ele>
        <time>2021-10-28T07:15:53Z</time>
      </trkpt>
      <trkpt lat="47.617775" lon="1.933822">
        <ele>164</ele>
        <time>2021-10-28T07:15:54Z</time>
      </trkpt>
      <trkpt lat="47.617775" lon="1.9338073">
        <ele>164</ele>
        <time>2021-10-28T07:15:55Z</time>
      </trkpt>
      <trkpt lat="47.61777" lon="1.9337915">
        <ele>163</ele>
        <time>2021-10-28T07:15:56Z</time>
      </trkpt>
      <trkpt lat="47.61777" lon="1.9337915">
        <ele>163</ele>
        <time>2021-10-28T07:15:57Z</time>
      </trkpt>
      <trkpt lat="47.61777" lon="1.9337915">
        <ele>163</ele>
        <time>2021-10-28T07:15:58Z</time>
      </trkpt>
      <trkpt lat="47.617767" lon="1.9337461">
        <ele>163</ele>
        <time>2021-10-28T07:15:59Z</time>
      </trkpt>
      <trkpt lat="47.617764" lon="1.9337342">
        <ele>163</ele>
        <time>2021-10-28T07:16:00Z</time>
      </trkpt>
      <trkpt lat="47.617764" lon="1.9337169">
        <ele>164</ele>
        <time>2021-10-28T07:16:01Z</time>
      </trkpt>
      <trkpt lat="47.61776" lon="1.9337025">
        <ele>164</ele>
        <time>2021-10-28T07:16:02Z</time>
      </trkpt>
      <trkpt lat="47.617756" lon="1.9336877">
        <ele>164</ele>
        <time>2021-10-28T07:16:03Z</time>
      </trkpt>
      <trkpt lat="47.617756" lon="1.9336772">
        <ele>164</ele>
        <time>2021-10-28T07:16:04Z</time>
      </trkpt>
      <trkpt lat="47.617752" lon="1.9336652">
        <ele>164</ele>
        <time>2021-10-28T07:16:05Z</time>
      </trkpt>
      <trkpt lat="47.617752" lon="1.9336501">
        <ele>164</ele>
        <time>2021-10-28T07:16:06Z</time>
      </trkpt>
      <trkpt lat="47.617752" lon="1.9336356">
        <ele>164</ele>
        <time>2021-10-28T07:16:07Z</time>
      </trkpt>
      <trkpt lat="47.617756" lon="1.9336207">
        <ele>165</ele>
        <time>2021-10-28T07:16:08Z</time>
      </trkpt>
      <trkpt lat="47.617752" lon="1.9336026">
        <ele>164</ele>
        <time>2021-10-28T07:16:09Z</time>
      </trkpt>
      <trkpt lat="47.617752" lon="1.9335866">
        <ele>164</ele>
        <time>2021-10-28T07:16:10Z</time>
      </trkpt>
      <trkpt lat="47.61775" lon="1.9335701">
        <ele>164</ele>
        <time>2021-10-28T07:16:11Z</time>
      </trkpt>
      <trkpt lat="47.61775" lon="1.9335513">
        <ele>164</ele>
        <time>2021-10-28T07:16:12Z</time>
      </trkpt>
      <trkpt lat="47.61775" lon="1.9335359">
        <ele>164</ele>
        <time>2021-10-28T07:16:13Z</time>
      </trkpt>
      <trkpt lat="47.61775" lon="1.9335219">
        <ele>164</ele>
        <time>2021-10-28T07:16:14Z</time>
      </trkpt>
      <trkpt lat="47.617744" lon="1.9335074">
        <ele>163</ele>
        <time>2021-10-28T07:16:15Z</time>
      </trkpt>
      <trkpt lat="47.617744" lon="1.9335074">
        <ele>163</ele>
        <time>2021-10-28T07:16:16Z</time>
      </trkpt>
      <trkpt lat="47.617744" lon="1.9335074">
        <ele>163</ele>
        <time>2021-10-28T07:16:17Z</time>
      </trkpt>
      <trkpt lat="47.617733" lon="1.9334667">
        <ele>161</ele>
        <time>2021-10-28T07:16:18Z</time>
      </trkpt>
      <trkpt lat="47.61773" lon="1.9334493">
        <ele>161</ele>
        <time>2021-10-28T07:16:19Z</time>
      </trkpt>
      <trkpt lat="47.61772" lon="1.9334332">
        <ele>160</ele>
        <time>2021-10-28T07:16:20Z</time>
      </trkpt>
      <trkpt lat="47.61772" lon="1.9334203">
        <ele>160</ele>
        <time>2021-10-28T07:16:21Z</time>
      </trkpt>
      <trkpt lat="47.61772" lon="1.9334203">
        <ele>160</ele>
        <time>2021-10-28T07:16:22Z</time>
      </trkpt>
      <trkpt lat="47.61772" lon="1.9334203">
        <ele>160</ele>
        <time>2021-10-28T07:16:23Z</time>
      </trkpt>
      <trkpt lat="47.617714" lon="1.9333838">
        <ele>159</ele>
        <time>2021-10-28T07:16:24Z</time>
      </trkpt>
      <trkpt lat="47.617714" lon="1.9333707">
        <ele>159</ele>
        <time>2021-10-28T07:16:25Z</time>
      </trkpt>
      <trkpt lat="47.617714" lon="1.9333556">
        <ele>160</ele>
        <time>2021-10-28T07:16:26Z</time>
      </trkpt>
      <trkpt lat="47.61771" lon="1.9333378">
        <ele>159</ele>
        <time>2021-10-28T07:16:27Z</time>
      </trkpt>
      <trkpt lat="47.617706" lon="1.9333209">
        <ele>159</ele>
        <time>2021-10-28T07:16:28Z</time>
      </trkpt>
      <trkpt lat="47.617702" lon="1.933305">
        <ele>159</ele>
        <time>2021-10-28T07:16:29Z</time>
      </trkpt>
      <trkpt lat="47.6177" lon="1.9332914">
        <ele>159</ele>
        <time>2021-10-28T07:16:30Z</time>
      </trkpt>
      <trkpt lat="47.61769" lon="1.9332746">
        <ele>159</ele>
        <time>2021-10-28T07:16:31Z</time>
      </trkpt>
      <trkpt lat="47.617683" lon="1.9332559">
        <ele>160</ele>
        <time>2021-10-28T07:16:32Z</time>
      </trkpt>
      <trkpt lat="47.61768" lon="1.933235">
        <ele>160</ele>
        <time>2021-10-28T07:16:33Z</time>
      </trkpt>
      <trkpt lat="47.617676" lon="1.9332161">
        <ele>160</ele>
        <time>2021-10-28T07:16:34Z</time>
      </trkpt>
      <trkpt lat="47.617664" lon="1.9331981">
        <ele>160</ele>
        <time>2021-10-28T07:16:35Z</time>
      </trkpt>
      <trkpt lat="47.61766" lon="1.9331777">
        <ele>160</ele>
        <time>2021-10-28T07:16:36Z</time>
      </trkpt>
      <trkpt lat="47.617657" lon="1.9331626">
        <ele>161</ele>
        <time>2021-10-28T07:16:37Z</time>
      </trkpt>
      <trkpt lat="47.617653" lon="1.9331422">
        <ele>161</ele>
        <time>2021-10-28T07:16:38Z</time>
      </trkpt>
      <trkpt lat="47.61765" lon="1.9331251">
        <ele>161</ele>
        <time>2021-10-28T07:16:39Z</time>
      </trkpt>
      <trkpt lat="47.61764" lon="1.9331051">
        <ele>162</ele>
        <time>2021-10-28T07:16:40Z</time>
      </trkpt>
      <trkpt lat="47.617638" lon="1.9330857">
        <ele>163</ele>
        <time>2021-10-28T07:16:41Z</time>
      </trkpt>
      <trkpt lat="47.61763" lon="1.9330649">
        <ele>163</ele>
        <time>2021-10-28T07:16:42Z</time>
      </trkpt>
      <trkpt lat="47.617622" lon="1.933042">
        <ele>163</ele>
        <time>2021-10-28T07:16:43Z</time>
      </trkpt>
      <trkpt lat="47.61762" lon="1.9330232">
        <ele>163</ele>
        <time>2021-10-28T07:16:44Z</time>
      </trkpt>
      <trkpt lat="47.61762" lon="1.9330075">
        <ele>164</ele>
        <time>2021-10-28T07:16:45Z</time>
      </trkpt>
      <trkpt lat="47.61761" lon="1.9329852">
        <ele>164</ele>
        <time>2021-10-28T07:16:46Z</time>
      </trkpt>
      <trkpt lat="47.6176" lon="1.9329597">
        <ele>164</ele>
        <time>2021-10-28T07:16:47Z</time>
      </trkpt>
      <trkpt lat="47.61759" lon="1.9329348">
        <ele>164</ele>
        <time>2021-10-28T07:16:48Z</time>
      </trkpt>
      <trkpt lat="47.617584" lon="1.9329145">
        <ele>165</ele>
        <time>2021-10-28T07:16:49Z</time>
      </trkpt>
      <trkpt lat="47.61758" lon="1.9328942">
        <ele>165</ele>
        <time>2021-10-28T07:16:50Z</time>
      </trkpt>
      <trkpt lat="47.617577" lon="1.9328724">
        <ele>165</ele>
        <time>2021-10-28T07:16:51Z</time>
      </trkpt>
      <trkpt lat="47.617577" lon="1.9328531">
        <ele>165</ele>
        <time>2021-10-28T07:16:52Z</time>
      </trkpt>
      <trkpt lat="47.61757" lon="1.9328436">
        <ele>166</ele>
        <time>2021-10-28T07:16:53Z</time>
      </trkpt>
      <trkpt lat="47.617565" lon="1.9328372">
        <ele>166</ele>
        <time>2021-10-28T07:16:54Z</time>
      </trkpt>
      <trkpt lat="47.61757" lon="1.9328296">
        <ele>166</ele>
        <time>2021-10-28T07:16:55Z</time>
      </trkpt>
      <trkpt lat="47.617558" lon="1.9328166">
        <ele>166</ele>
        <time>2021-10-28T07:16:56Z</time>
      </trkpt>
      <trkpt lat="47.61755" lon="1.9328032">
        <ele>166</ele>
        <time>2021-10-28T07:16:57Z</time>
      </trkpt>
      <trkpt lat="47.617542" lon="1.9327878">
        <ele>166</ele>
        <time>2021-10-28T07:16:58Z</time>
      </trkpt>
      <trkpt lat="47.61753" lon="1.9327743">
        <ele>166</ele>
        <time>2021-10-28T07:16:59Z</time>
      </trkpt>
      <trkpt lat="47.61753" lon="1.9327743">
        <ele>166</ele>
        <time>2021-10-28T07:17:00Z</time>
      </trkpt>
      <trkpt lat="47.61753" lon="1.9327743">
        <ele>166</ele>
        <time>2021-10-28T07:17:01Z</time>
      </trkpt>
      <trkpt lat="47.617527" lon="1.9327426">
        <ele>166</ele>
        <time>2021-10-28T07:17:02Z</time>
      </trkpt>
      <trkpt lat="47.617523" lon="1.9327325">
        <ele>166</ele>
        <time>2021-10-28T07:17:03Z</time>
      </trkpt>
      <trkpt lat="47.617523" lon="1.9327186">
        <ele>166</ele>
        <time>2021-10-28T07:17:04Z</time>
      </trkpt>
      <trkpt lat="47.617523" lon="1.9327099">
        <ele>166</ele>
        <time>2021-10-28T07:17:05Z</time>
      </trkpt>
      <trkpt lat="47.617523" lon="1.9327099">
        <ele>166</ele>
        <time>2021-10-28T07:17:06Z</time>
      </trkpt>
      <trkpt lat="47.617523" lon="1.9327099">
        <ele>166</ele>
        <time>2021-10-28T07:17:07Z</time>
      </trkpt>
      <trkpt lat="47.617523" lon="1.9326744">
        <ele>165</ele>
        <time>2021-10-28T07:17:08Z</time>
      </trkpt>
      <trkpt lat="47.61752" lon="1.9326571">
        <ele>165</ele>
        <time>2021-10-28T07:17:09Z</time>
      </trkpt>
      <trkpt lat="47.61752" lon="1.9326419">
        <ele>164</ele>
        <time>2021-10-28T07:17:10Z</time>
      </trkpt>
      <trkpt lat="47.61752" lon="1.9326253">
        <ele>163</ele>
        <time>2021-10-28T07:17:11Z</time>
      </trkpt>
      <trkpt lat="47.61752" lon="1.9326253">
        <ele>163</ele>
        <time>2021-10-28T07:17:12Z</time>
      </trkpt>
      <trkpt lat="47.61752" lon="1.9326253">
        <ele>163</ele>
        <time>2021-10-28T07:17:13Z</time>
      </trkpt>
      <trkpt lat="47.617508" lon="1.9325843">
        <ele>162</ele>
        <time>2021-10-28T07:17:14Z</time>
      </trkpt>
      <trkpt lat="47.6175" lon="1.932564">
        <ele>162</ele>
        <time>2021-10-28T07:17:15Z</time>
      </trkpt>
      <trkpt lat="47.617496" lon="1.9325427">
        <ele>162</ele>
        <time>2021-10-28T07:17:16Z</time>
      </trkpt>
      <trkpt lat="47.617493" lon="1.932524">
        <ele>161</ele>
        <time>2021-10-28T07:17:18Z</time>
      </trkpt>
      <trkpt lat="47.61749" lon="1.9325049">
        <ele>162</ele>
        <time>2021-10-28T07:17:19Z</time>
      </trkpt>
      <trkpt lat="47.61749" lon="1.9324926">
        <ele>161</ele>
        <time>2021-10-28T07:17:20Z</time>
      </trkpt>
      <trkpt lat="47.61749" lon="1.9324926">
        <ele>161</ele>
        <time>2021-10-28T07:17:21Z</time>
      </trkpt>
      <trkpt lat="47.61749" lon="1.9324926">
        <ele>161</ele>
        <time>2021-10-28T07:17:22Z</time>
      </trkpt>
      <trkpt lat="47.617477" lon="1.9324601">
        <ele>161</ele>
        <time>2021-10-28T07:17:23Z</time>
      </trkpt>
      <trkpt lat="47.617466" lon="1.9324411">
        <ele>161</ele>
        <time>2021-10-28T07:17:24Z</time>
      </trkpt>
      <trkpt lat="47.617455" lon="1.9324235">
        <ele>161</ele>
        <time>2021-10-28T07:17:25Z</time>
      </trkpt>
      <trkpt lat="47.617447" lon="1.932403">
        <ele>160</ele>
        <time>2021-10-28T07:17:26Z</time>
      </trkpt>
      <trkpt lat="47.617443" lon="1.9323843">
        <ele>160</ele>
        <time>2021-10-28T07:17:27Z</time>
      </trkpt>
      <trkpt lat="47.617435" lon="1.9323622">
        <ele>160</ele>
        <time>2021-10-28T07:17:28Z</time>
      </trkpt>
      <trkpt lat="47.617424" lon="1.9323384">
        <ele>160</ele>
        <time>2021-10-28T07:17:29Z</time>
      </trkpt>
      <trkpt lat="47.617413" lon="1.9323227">
        <ele>160</ele>
        <time>2021-10-28T07:17:30Z</time>
      </trkpt>
      <trkpt lat="47.61741" lon="1.9323088">
        <ele>160</ele>
        <time>2021-10-28T07:17:31Z</time>
      </trkpt>
      <trkpt lat="47.6174" lon="1.9322968">
        <ele>160</ele>
        <time>2021-10-28T07:17:32Z</time>
      </trkpt>
      <trkpt lat="47.617397" lon="1.9322796">
        <ele>160</ele>
        <time>2021-10-28T07:17:33Z</time>
      </trkpt>
      <trkpt lat="47.61739" lon="1.9322639">
        <ele>160</ele>
        <time>2021-10-28T07:17:34Z</time>
      </trkpt>
      <trkpt lat="47.61739" lon="1.9322437">
        <ele>160</ele>
        <time>2021-10-28T07:17:35Z</time>
      </trkpt>
      <trkpt lat="47.617386" lon="1.9322269">
        <ele>160</ele>
        <time>2021-10-28T07:17:36Z</time>
      </trkpt>
      <trkpt lat="47.617382" lon="1.9322053">
        <ele>160</ele>
        <time>2021-10-28T07:17:37Z</time>
      </trkpt>
      <trkpt lat="47.617374" lon="1.9321853">
        <ele>160</ele>
        <time>2021-10-28T07:17:38Z</time>
      </trkpt>
      <trkpt lat="47.617367" lon="1.9321728">
        <ele>160</ele>
        <time>2021-10-28T07:17:39Z</time>
      </trkpt>
      <trkpt lat="47.61736" lon="1.9321585">
        <ele>160</ele>
        <time>2021-10-28T07:17:40Z</time>
      </trkpt>
      <trkpt lat="47.617355" lon="1.9321417">
        <ele>160</ele>
        <time>2021-10-28T07:17:41Z</time>
      </trkpt>
      <trkpt lat="47.61735" lon="1.9321169">
        <ele>160</ele>
        <time>2021-10-28T07:17:42Z</time>
      </trkpt>
      <trkpt lat="47.617348" lon="1.9320999">
        <ele>160</ele>
        <time>2021-10-28T07:17:43Z</time>
      </trkpt>
      <trkpt lat="47.61734" lon="1.9320828">
        <ele>160</ele>
        <time>2021-10-28T07:17:44Z</time>
      </trkpt>
      <trkpt lat="47.617332" lon="1.9320625">
        <ele>160</ele>
        <time>2021-10-28T07:17:45Z</time>
      </trkpt>
      <trkpt lat="47.617325" lon="1.9320487">
        <ele>160</ele>
        <time>2021-10-28T07:17:46Z</time>
      </trkpt>
      <trkpt lat="47.617325" lon="1.9320354">
        <ele>159</ele>
        <time>2021-10-28T07:17:47Z</time>
      </trkpt>
      <trkpt lat="47.61732" lon="1.9320227">
        <ele>159</ele>
        <time>2021-10-28T07:17:48Z</time>
      </trkpt>
      <trkpt lat="47.617313" lon="1.9320052">
        <ele>160</ele>
        <time>2021-10-28T07:17:49Z</time>
      </trkpt>
      <trkpt lat="47.61731" lon="1.9319899">
        <ele>159</ele>
        <time>2021-10-28T07:17:50Z</time>
      </trkpt>
      <trkpt lat="47.617302" lon="1.9319744">
        <ele>160</ele>
        <time>2021-10-28T07:17:51Z</time>
      </trkpt>
      <trkpt lat="47.6173" lon="1.9319555">
        <ele>159</ele>
        <time>2021-10-28T07:17:52Z</time>
      </trkpt>
      <trkpt lat="47.617294" lon="1.931936">
        <ele>159</ele>
        <time>2021-10-28T07:17:53Z</time>
      </trkpt>
      <trkpt lat="47.61729" lon="1.9319191">
        <ele>159</ele>
        <time>2021-10-28T07:17:54Z</time>
      </trkpt>
      <trkpt lat="47.61729" lon="1.9319048">
        <ele>159</ele>
        <time>2021-10-28T07:17:55Z</time>
      </trkpt>
      <trkpt lat="47.61729" lon="1.9318887">
        <ele>159</ele>
        <time>2021-10-28T07:17:56Z</time>
      </trkpt>
      <trkpt lat="47.617287" lon="1.9318804">
        <ele>159</ele>
        <time>2021-10-28T07:17:57Z</time>
      </trkpt>
      <trkpt lat="47.617287" lon="1.9318804">
        <ele>159</ele>
        <time>2021-10-28T07:17:58Z</time>
      </trkpt>
      <trkpt lat="47.617287" lon="1.9318804">
        <ele>159</ele>
        <time>2021-10-28T07:17:59Z</time>
      </trkpt>
      <trkpt lat="47.617275" lon="1.9318514">
        <ele>159</ele>
        <time>2021-10-28T07:18:00Z</time>
      </trkpt>
      <trkpt lat="47.61727" lon="1.9318389">
        <ele>160</ele>
        <time>2021-10-28T07:18:01Z</time>
      </trkpt>
      <trkpt lat="47.61727" lon="1.9318236">
        <ele>160</ele>
        <time>2021-10-28T07:18:02Z</time>
      </trkpt>
      <trkpt lat="47.617264" lon="1.9318172">
        <ele>159</ele>
        <time>2021-10-28T07:18:03Z</time>
      </trkpt>
      <trkpt lat="47.617264" lon="1.9318172">
        <ele>159</ele>
        <time>2021-10-28T07:18:04Z</time>
      </trkpt>
      <trkpt lat="47.617264" lon="1.9318172">
        <ele>159</ele>
        <time>2021-10-28T07:18:05Z</time>
      </trkpt>
      <trkpt lat="47.617252" lon="1.9317924">
        <ele>158</ele>
        <time>2021-10-28T07:18:06Z</time>
      </trkpt>
      <trkpt lat="47.617245" lon="1.9317726">
        <ele>158</ele>
        <time>2021-10-28T07:18:07Z</time>
      </trkpt>
      <trkpt lat="47.61724" lon="1.9317553">
        <ele>158</ele>
        <time>2021-10-28T07:18:08Z</time>
      </trkpt>
      <trkpt lat="47.617233" lon="1.9317366">
        <ele>157</ele>
        <time>2021-10-28T07:18:09Z</time>
      </trkpt>
      <trkpt lat="47.617226" lon="1.931721">
        <ele>157</ele>
        <time>2021-10-28T07:18:10Z</time>
      </trkpt>
      <trkpt lat="47.617218" lon="1.9317021">
        <ele>157</ele>
        <time>2021-10-28T07:18:11Z</time>
      </trkpt>
      <trkpt lat="47.617214" lon="1.9316876">
        <ele>157</ele>
        <time>2021-10-28T07:18:12Z</time>
      </trkpt>
      <trkpt lat="47.617207" lon="1.9316671">
        <ele>158</ele>
        <time>2021-10-28T07:18:13Z</time>
      </trkpt>
      <trkpt lat="47.617203" lon="1.9316483">
        <ele>158</ele>
        <time>2021-10-28T07:18:14Z</time>
      </trkpt>
      <trkpt lat="47.617195" lon="1.9316328">
        <ele>158</ele>
        <time>2021-10-28T07:18:15Z</time>
      </trkpt>
      <trkpt lat="47.617188" lon="1.9316199">
        <ele>158</ele>
        <time>2021-10-28T07:18:16Z</time>
      </trkpt>
      <trkpt lat="47.617184" lon="1.9316071">
        <ele>158</ele>
        <time>2021-10-28T07:18:17Z</time>
      </trkpt>
      <trkpt lat="47.617176" lon="1.9315926">
        <ele>158</ele>
        <time>2021-10-28T07:18:18Z</time>
      </trkpt>
      <trkpt lat="47.61717" lon="1.9315776">
        <ele>159</ele>
        <time>2021-10-28T07:18:19Z</time>
      </trkpt>
      <trkpt lat="47.61716" lon="1.9315656">
        <ele>159</ele>
        <time>2021-10-28T07:18:20Z</time>
      </trkpt>
      <trkpt lat="47.617157" lon="1.9315516">
        <ele>159</ele>
        <time>2021-10-28T07:18:21Z</time>
      </trkpt>
      <trkpt lat="47.617157" lon="1.9315374">
        <ele>159</ele>
        <time>2021-10-28T07:18:22Z</time>
      </trkpt>
      <trkpt lat="47.61715" lon="1.9315242">
        <ele>159</ele>
        <time>2021-10-28T07:18:23Z</time>
      </trkpt>
      <trkpt lat="47.61715" lon="1.9315242">
        <ele>159</ele>
        <time>2021-10-28T07:18:24Z</time>
      </trkpt>
      <trkpt lat="47.61715" lon="1.9315242">
        <ele>159</ele>
        <time>2021-10-28T07:18:25Z</time>
      </trkpt>
      <trkpt lat="47.61714" lon="1.9314932">
        <ele>159</ele>
        <time>2021-10-28T07:18:26Z</time>
      </trkpt>
      <trkpt lat="47.617138" lon="1.931477">
        <ele>159</ele>
        <time>2021-10-28T07:18:27Z</time>
      </trkpt>
      <trkpt lat="47.617134" lon="1.9314573">
        <ele>159</ele>
        <time>2021-10-28T07:18:28Z</time>
      </trkpt>
      <trkpt lat="47.61713" lon="1.9314408">
        <ele>158</ele>
        <time>2021-10-28T07:18:29Z</time>
      </trkpt>
      <trkpt lat="47.617126" lon="1.9314287">
        <ele>159</ele>
        <time>2021-10-28T07:18:30Z</time>
      </trkpt>
      <trkpt lat="47.61712" lon="1.9314151">
        <ele>159</ele>
        <time>2021-10-28T07:18:31Z</time>
      </trkpt>
      <trkpt lat="47.617115" lon="1.9314036">
        <ele>159</ele>
        <time>2021-10-28T07:18:32Z</time>
      </trkpt>
      <trkpt lat="47.617107" lon="1.9313921">
        <ele>159</ele>
        <time>2021-10-28T07:18:33Z</time>
      </trkpt>
      <trkpt lat="47.6171" lon="1.9313834">
        <ele>158</ele>
        <time>2021-10-28T07:18:34Z</time>
      </trkpt>
      <trkpt lat="47.617092" lon="1.9313747">
        <ele>158</ele>
        <time>2021-10-28T07:18:35Z</time>
      </trkpt>
      <trkpt lat="47.617092" lon="1.9313747">
        <ele>158</ele>
        <time>2021-10-28T07:18:36Z</time>
      </trkpt>
      <trkpt lat="47.617092" lon="1.9313747">
        <ele>158</ele>
        <time>2021-10-28T07:18:37Z</time>
      </trkpt>
      <trkpt lat="47.617073" lon="1.93134">
        <ele>159</ele>
        <time>2021-10-28T07:18:38Z</time>
      </trkpt>
      <trkpt lat="47.617073" lon="1.9313267">
        <ele>159</ele>
        <time>2021-10-28T07:18:39Z</time>
      </trkpt>
      <trkpt lat="47.61707" lon="1.9313126">
        <ele>159</ele>
        <time>2021-10-28T07:18:40Z</time>
      </trkpt>
      <trkpt lat="47.61706" lon="1.9312992">
        <ele>159</ele>
        <time>2021-10-28T07:18:41Z</time>
      </trkpt>
      <trkpt lat="47.61706" lon="1.9312992">
        <ele>159</ele>
        <time>2021-10-28T07:18:42Z</time>
      </trkpt>
      <trkpt lat="47.61706" lon="1.9312992">
        <ele>159</ele>
        <time>2021-10-28T07:18:43Z</time>
      </trkpt>
      <trkpt lat="47.61705" lon="1.9312589">
        <ele>159</ele>
        <time>2021-10-28T07:18:44Z</time>
      </trkpt>
      <trkpt lat="47.617043" lon="1.931249">
        <ele>160</ele>
        <time>2021-10-28T07:18:45Z</time>
      </trkpt>
      <trkpt lat="47.61704" lon="1.9312316">
        <ele>161</ele>
        <time>2021-10-28T07:18:46Z</time>
      </trkpt>
      <trkpt lat="47.617027" lon="1.9312135">
        <ele>161</ele>
        <time>2021-10-28T07:18:47Z</time>
      </trkpt>
      <trkpt lat="47.61702" lon="1.9311986">
        <ele>162</ele>
        <time>2021-10-28T07:18:48Z</time>
      </trkpt>
      <trkpt lat="47.61701" lon="1.9311805">
        <ele>162</ele>
        <time>2021-10-28T07:18:49Z</time>
      </trkpt>
      <trkpt lat="47.617" lon="1.9311638">
        <ele>163</ele>
        <time>2021-10-28T07:18:50Z</time>
      </trkpt>
      <trkpt lat="47.616997" lon="1.9311492">
        <ele>163</ele>
        <time>2021-10-28T07:18:51Z</time>
      </trkpt>
      <trkpt lat="47.61699" lon="1.9311273">
        <ele>163</ele>
        <time>2021-10-28T07:18:52Z</time>
      </trkpt>
      <trkpt lat="47.61698" lon="1.931111">
        <ele>164</ele>
        <time>2021-10-28T07:18:53Z</time>
      </trkpt>
      <trkpt lat="47.616978" lon="1.9310924">
        <ele>164</ele>
        <time>2021-10-28T07:18:54Z</time>
      </trkpt>
      <trkpt lat="47.61697" lon="1.931077">
        <ele>164</ele>
        <time>2021-10-28T07:18:55Z</time>
      </trkpt>
      <trkpt lat="47.616962" lon="1.9310563">
        <ele>164</ele>
        <time>2021-10-28T07:18:56Z</time>
      </trkpt>
      <trkpt lat="47.61696" lon="1.9310338">
        <ele>164</ele>
        <time>2021-10-28T07:18:57Z</time>
      </trkpt>
      <trkpt lat="47.616955" lon="1.9310203">
        <ele>164</ele>
        <time>2021-10-28T07:18:58Z</time>
      </trkpt>
      <trkpt lat="47.61695" lon="1.931004">
        <ele>164</ele>
        <time>2021-10-28T07:18:59Z</time>
      </trkpt>
      <trkpt lat="47.616947" lon="1.9309881">
        <ele>164</ele>
        <time>2021-10-28T07:19:00Z</time>
      </trkpt>
      <trkpt lat="47.616943" lon="1.9309678">
        <ele>164</ele>
        <time>2021-10-28T07:19:01Z</time>
      </trkpt>
      <trkpt lat="47.61694" lon="1.9309553">
        <ele>164</ele>
        <time>2021-10-28T07:19:02Z</time>
      </trkpt>
      <trkpt lat="47.616936" lon="1.9309425">
        <ele>164</ele>
        <time>2021-10-28T07:19:03Z</time>
      </trkpt>
      <trkpt lat="47.616936" lon="1.9309275">
        <ele>164</ele>
        <time>2021-10-28T07:19:04Z</time>
      </trkpt>
      <trkpt lat="47.616932" lon="1.9309134">
        <ele>164</ele>
        <time>2021-10-28T07:19:05Z</time>
      </trkpt>
      <trkpt lat="47.616932" lon="1.9308968">
        <ele>164</ele>
        <time>2021-10-28T07:19:06Z</time>
      </trkpt>
      <trkpt lat="47.616924" lon="1.9308776">
        <ele>164</ele>
        <time>2021-10-28T07:19:07Z</time>
      </trkpt>
      <trkpt lat="47.616924" lon="1.93086">
        <ele>164</ele>
        <time>2021-10-28T07:19:08Z</time>
      </trkpt>
      <trkpt lat="47.616924" lon="1.9308491">
        <ele>164</ele>
        <time>2021-10-28T07:19:09Z</time>
      </trkpt>
      <trkpt lat="47.616924" lon="1.930831">
        <ele>164</ele>
        <time>2021-10-28T07:19:10Z</time>
      </trkpt>
      <trkpt lat="47.616924" lon="1.9308132">
        <ele>163</ele>
        <time>2021-10-28T07:19:11Z</time>
      </trkpt>
      <trkpt lat="47.61692" lon="1.9307965">
        <ele>163</ele>
        <time>2021-10-28T07:19:12Z</time>
      </trkpt>
      <trkpt lat="47.616917" lon="1.9307847">
        <ele>163</ele>
        <time>2021-10-28T07:19:13Z</time>
      </trkpt>
      <trkpt lat="47.616913" lon="1.9307688">
        <ele>164</ele>
        <time>2021-10-28T07:19:14Z</time>
      </trkpt>
      <trkpt lat="47.61691" lon="1.9307557">
        <ele>163</ele>
        <time>2021-10-28T07:19:15Z</time>
      </trkpt>
      <trkpt lat="47.6169" lon="1.9307411">
        <ele>163</ele>
        <time>2021-10-28T07:19:16Z</time>
      </trkpt>
      <trkpt lat="47.616898" lon="1.9307293">
        <ele>163</ele>
        <time>2021-10-28T07:19:17Z</time>
      </trkpt>
      <trkpt lat="47.616894" lon="1.9307102">
        <ele>163</ele>
        <time>2021-10-28T07:19:18Z</time>
      </trkpt>
      <trkpt lat="47.61689" lon="1.9306927">
        <ele>163</ele>
        <time>2021-10-28T07:19:19Z</time>
      </trkpt>
      <trkpt lat="47.616886" lon="1.9306805">
        <ele>163</ele>
        <time>2021-10-28T07:19:20Z</time>
      </trkpt>
      <trkpt lat="47.616882" lon="1.9306632">
        <ele>163</ele>
        <time>2021-10-28T07:19:21Z</time>
      </trkpt>
      <trkpt lat="47.616882" lon="1.9306632">
        <ele>163</ele>
        <time>2021-10-28T07:19:22Z</time>
      </trkpt>
      <trkpt lat="47.616882" lon="1.9306632">
        <ele>163</ele>
        <time>2021-10-28T07:19:23Z</time>
      </trkpt>
      <trkpt lat="47.616875" lon="1.9306262">
        <ele>163</ele>
        <time>2021-10-28T07:19:24Z</time>
      </trkpt>
      <trkpt lat="47.61687" lon="1.9306133">
        <ele>163</ele>
        <time>2021-10-28T07:19:25Z</time>
      </trkpt>
      <trkpt lat="47.616863" lon="1.9305936">
        <ele>163</ele>
        <time>2021-10-28T07:19:26Z</time>
      </trkpt>
      <trkpt lat="47.61686" lon="1.930577">
        <ele>164</ele>
        <time>2021-10-28T07:19:27Z</time>
      </trkpt>
      <trkpt lat="47.616856" lon="1.930561">
        <ele>164</ele>
        <time>2021-10-28T07:19:28Z</time>
      </trkpt>
      <trkpt lat="47.616848" lon="1.930537">
        <ele>164</ele>
        <time>2021-10-28T07:19:29Z</time>
      </trkpt>
      <trkpt lat="47.61684" lon="1.9305145">
        <ele>163</ele>
        <time>2021-10-28T07:19:30Z</time>
      </trkpt>
      <trkpt lat="47.616833" lon="1.930498">
        <ele>163</ele>
        <time>2021-10-28T07:19:31Z</time>
      </trkpt>
      <trkpt lat="47.616825" lon="1.9304808">
        <ele>163</ele>
        <time>2021-10-28T07:19:32Z</time>
      </trkpt>
      <trkpt lat="47.616817" lon="1.9304633">
        <ele>162</ele>
        <time>2021-10-28T07:19:33Z</time>
      </trkpt>
      <trkpt lat="47.61681" lon="1.9304489">
        <ele>163</ele>
        <time>2021-10-28T07:19:34Z</time>
      </trkpt>
      <trkpt lat="47.616806" lon="1.9304332">
        <ele>163</ele>
        <time>2021-10-28T07:19:35Z</time>
      </trkpt>
      <trkpt lat="47.616802" lon="1.9304185">
        <ele>163</ele>
        <time>2021-10-28T07:19:36Z</time>
      </trkpt>
      <trkpt lat="47.616802" lon="1.9304063">
        <ele>164</ele>
        <time>2021-10-28T07:19:37Z</time>
      </trkpt>
      <trkpt lat="47.616802" lon="1.9304063">
        <ele>164</ele>
        <time>2021-10-28T07:19:38Z</time>
      </trkpt>
      <trkpt lat="47.616802" lon="1.9304063">
        <ele>164</ele>
        <time>2021-10-28T07:19:39Z</time>
      </trkpt>
      <trkpt lat="47.6168" lon="1.9303721">
        <ele>164</ele>
        <time>2021-10-28T07:19:40Z</time>
      </trkpt>
      <trkpt lat="47.616795" lon="1.9303541">
        <ele>164</ele>
        <time>2021-10-28T07:19:41Z</time>
      </trkpt>
      <trkpt lat="47.61679" lon="1.930338">
        <ele>164</ele>
        <time>2021-10-28T07:19:42Z</time>
      </trkpt>
      <trkpt lat="47.616787" lon="1.930318">
        <ele>164</ele>
        <time>2021-10-28T07:19:43Z</time>
      </trkpt>
      <trkpt lat="47.61679" lon="1.930299">
        <ele>163</ele>
        <time>2021-10-28T07:19:44Z</time>
      </trkpt>
      <trkpt lat="47.61679" lon="1.930299">
        <ele>163</ele>
        <time>2021-10-28T07:19:45Z</time>
      </trkpt>
      <trkpt lat="47.61679" lon="1.930299">
        <ele>163</ele>
        <time>2021-10-28T07:19:46Z</time>
      </trkpt>
      <trkpt lat="47.61678" lon="1.930251">
        <ele>163</ele>
        <time>2021-10-28T07:19:47Z</time>
      </trkpt>
      <trkpt lat="47.61677" lon="1.9302369">
        <ele>163</ele>
        <time>2021-10-28T07:19:48Z</time>
      </trkpt>
      <trkpt lat="47.61677" lon="1.9302229">
        <ele>162</ele>
        <time>2021-10-28T07:19:49Z</time>
      </trkpt>
      <trkpt lat="47.616764" lon="1.9302095">
        <ele>162</ele>
        <time>2021-10-28T07:19:50Z</time>
      </trkpt>
      <trkpt lat="47.616764" lon="1.9302095">
        <ele>162</ele>
        <time>2021-10-28T07:19:51Z</time>
      </trkpt>
      <trkpt lat="47.616764" lon="1.9302095">
        <ele>162</ele>
        <time>2021-10-28T07:19:52Z</time>
      </trkpt>
      <trkpt lat="47.616753" lon="1.9301711">
        <ele>163</ele>
        <time>2021-10-28T07:19:53Z</time>
      </trkpt>
      <trkpt lat="47.616745" lon="1.9301577">
        <ele>163</ele>
        <time>2021-10-28T07:19:54Z</time>
      </trkpt>
      <trkpt lat="47.61674" lon="1.9301461">
        <ele>162</ele>
        <time>2021-10-28T07:19:55Z</time>
      </trkpt>
      <trkpt lat="47.616737" lon="1.9301319">
        <ele>162</ele>
        <time>2021-10-28T07:19:56Z</time>
      </trkpt>
      <trkpt lat="47.616737" lon="1.9301319">
        <ele>162</ele>
        <time>2021-10-28T07:19:57Z</time>
      </trkpt>
      <trkpt lat="47.616737" lon="1.9301319">
        <ele>162</ele>
        <time>2021-10-28T07:19:58Z</time>
      </trkpt>
      <trkpt lat="47.616734" lon="1.9301023">
        <ele>162</ele>
        <time>2021-10-28T07:19:59Z</time>
      </trkpt>
      <trkpt lat="47.616722" lon="1.9300799">
        <ele>163</ele>
        <time>2021-10-28T07:20:00Z</time>
      </trkpt>
      <trkpt lat="47.61672" lon="1.9300673">
        <ele>163</ele>
        <time>2021-10-28T07:20:01Z</time>
      </trkpt>
      <trkpt lat="47.61671" lon="1.9300531">
        <ele>163</ele>
        <time>2021-10-28T07:20:02Z</time>
      </trkpt>
      <trkpt lat="47.616703" lon="1.9300376">
        <ele>163</ele>
        <time>2021-10-28T07:20:03Z</time>
      </trkpt>
      <trkpt lat="47.616695" lon="1.9300249">
        <ele>163</ele>
        <time>2021-10-28T07:20:04Z</time>
      </trkpt>
      <trkpt lat="47.61669" lon="1.9300119">
        <ele>163</ele>
        <time>2021-10-28T07:20:05Z</time>
      </trkpt>
      <trkpt lat="47.616688" lon="1.9299988">
        <ele>163</ele>
        <time>2021-10-28T07:20:06Z</time>
      </trkpt>
      <trkpt lat="47.616688" lon="1.9299856">
        <ele>163</ele>
        <time>2021-10-28T07:20:07Z</time>
      </trkpt>
      <trkpt lat="47.616688" lon="1.9299732">
        <ele>163</ele>
        <time>2021-10-28T07:20:08Z</time>
      </trkpt>
      <trkpt lat="47.616688" lon="1.9299732">
        <ele>163</ele>
        <time>2021-10-28T07:20:09Z</time>
      </trkpt>
      <trkpt lat="47.616688" lon="1.9299732">
        <ele>163</ele>
        <time>2021-10-28T07:20:10Z</time>
      </trkpt>
      <trkpt lat="47.61669" lon="1.9299328">
        <ele>163</ele>
        <time>2021-10-28T07:20:11Z</time>
      </trkpt>
      <trkpt lat="47.61669" lon="1.9299209">
        <ele>162</ele>
        <time>2021-10-28T07:20:12Z</time>
      </trkpt>
      <trkpt lat="47.61669" lon="1.9299049">
        <ele>162</ele>
        <time>2021-10-28T07:20:13Z</time>
      </trkpt>
      <trkpt lat="47.61669" lon="1.9298861">
        <ele>161</ele>
        <time>2021-10-28T07:20:14Z</time>
      </trkpt>
      <trkpt lat="47.61669" lon="1.9298861">
        <ele>161</ele>
        <time>2021-10-28T07:20:15Z</time>
      </trkpt>
      <trkpt lat="47.61669" lon="1.9298861">
        <ele>161</ele>
        <time>2021-10-28T07:20:16Z</time>
      </trkpt>
      <trkpt lat="47.616684" lon="1.9298482">
        <ele>160</ele>
        <time>2021-10-28T07:20:17Z</time>
      </trkpt>
      <trkpt lat="47.61668" lon="1.9298363">
        <ele>160</ele>
        <time>2021-10-28T07:20:18Z</time>
      </trkpt>
      <trkpt lat="47.61668" lon="1.9298215">
        <ele>160</ele>
        <time>2021-10-28T07:20:19Z</time>
      </trkpt>
      <trkpt lat="47.616676" lon="1.9298058">
        <ele>160</ele>
        <time>2021-10-28T07:20:20Z</time>
      </trkpt>
      <trkpt lat="47.616676" lon="1.9298058">
        <ele>160</ele>
        <time>2021-10-28T07:20:21Z</time>
      </trkpt>
      <trkpt lat="47.616676" lon="1.9298058">
        <ele>160</ele>
        <time>2021-10-28T07:20:22Z</time>
      </trkpt>
      <trkpt lat="47.616665" lon="1.9297681">
        <ele>159</ele>
        <time>2021-10-28T07:20:23Z</time>
      </trkpt>
      <trkpt lat="47.61666" lon="1.9297541">
        <ele>159</ele>
        <time>2021-10-28T07:20:24Z</time>
      </trkpt>
      <trkpt lat="47.616653" lon="1.9297364">
        <ele>159</ele>
        <time>2021-10-28T07:20:25Z</time>
      </trkpt>
      <trkpt lat="47.616646" lon="1.9297204">
        <ele>158</ele>
        <time>2021-10-28T07:20:26Z</time>
      </trkpt>
      <trkpt lat="47.616646" lon="1.9297204">
        <ele>158</ele>
        <time>2021-10-28T07:20:27Z</time>
      </trkpt>
      <trkpt lat="47.61663" lon="1.9296856">
        <ele>157</ele>
        <time>2021-10-28T07:20:28Z</time>
      </trkpt>
      <trkpt lat="47.616623" lon="1.9296695">
        <ele>158</ele>
        <time>2021-10-28T07:20:29Z</time>
      </trkpt>
      <trkpt lat="47.616615" lon="1.9296491">
        <ele>158</ele>
        <time>2021-10-28T07:20:30Z</time>
      </trkpt>
      <trkpt lat="47.616608" lon="1.9296267">
        <ele>158</ele>
        <time>2021-10-28T07:20:31Z</time>
      </trkpt>
      <trkpt lat="47.6166" lon="1.9296104">
        <ele>157</ele>
        <time>2021-10-28T07:20:32Z</time>
      </trkpt>
      <trkpt lat="47.616592" lon="1.9295949">
        <ele>157</ele>
        <time>2021-10-28T07:20:33Z</time>
      </trkpt>
      <trkpt lat="47.616585" lon="1.9295732">
        <ele>157</ele>
        <time>2021-10-28T07:20:34Z</time>
      </trkpt>
      <trkpt lat="47.616585" lon="1.9295732">
        <ele>157</ele>
        <time>2021-10-28T07:20:35Z</time>
      </trkpt>
      <trkpt lat="47.616585" lon="1.9295732">
        <ele>157</ele>
        <time>2021-10-28T07:20:36Z</time>
      </trkpt>
      <trkpt lat="47.61657" lon="1.9295294">
        <ele>157</ele>
        <time>2021-10-28T07:20:37Z</time>
      </trkpt>
      <trkpt lat="47.616566" lon="1.9295132">
        <ele>157</ele>
        <time>2021-10-28T07:20:38Z</time>
      </trkpt>
      <trkpt lat="47.61656" lon="1.929495">
        <ele>156</ele>
        <time>2021-10-28T07:20:39Z</time>
      </trkpt>
      <trkpt lat="47.616554" lon="1.9294775">
        <ele>156</ele>
        <time>2021-10-28T07:20:40Z</time>
      </trkpt>
      <trkpt lat="47.616554" lon="1.9294775">
        <ele>156</ele>
        <time>2021-10-28T07:20:41Z</time>
      </trkpt>
      <trkpt lat="47.616554" lon="1.9294775">
        <ele>156</ele>
        <time>2021-10-28T07:20:42Z</time>
      </trkpt>
      <trkpt lat="47.61654" lon="1.9294407">
        <ele>156</ele>
        <time>2021-10-28T07:20:43Z</time>
      </trkpt>
      <trkpt lat="47.61653" lon="1.9294313">
        <ele>155</ele>
        <time>2021-10-28T07:20:44Z</time>
      </trkpt>
      <trkpt lat="47.616528" lon="1.9294193">
        <ele>155</ele>
        <time>2021-10-28T07:20:45Z</time>
      </trkpt>
      <trkpt lat="47.616524" lon="1.9294022">
        <ele>155</ele>
        <time>2021-10-28T07:20:46Z</time>
      </trkpt>
      <trkpt lat="47.616524" lon="1.9294022">
        <ele>155</ele>
        <time>2021-10-28T07:20:47Z</time>
      </trkpt>
      <trkpt lat="47.616524" lon="1.9294022">
        <ele>155</ele>
        <time>2021-10-28T07:20:48Z</time>
      </trkpt>
      <trkpt lat="47.616524" lon="1.9293635">
        <ele>155</ele>
        <time>2021-10-28T07:20:49Z</time>
      </trkpt>
      <trkpt lat="47.61652" lon="1.9293442">
        <ele>155</ele>
        <time>2021-10-28T07:20:50Z</time>
      </trkpt>
      <trkpt lat="47.616516" lon="1.9293233">
        <ele>155</ele>
        <time>2021-10-28T07:20:51Z</time>
      </trkpt>
      <trkpt lat="47.616512" lon="1.9293014">
        <ele>155</ele>
        <time>2021-10-28T07:20:52Z</time>
      </trkpt>
      <trkpt lat="47.61651" lon="1.9292816">
        <ele>155</ele>
        <time>2021-10-28T07:20:53Z</time>
      </trkpt>
      <trkpt lat="47.6165" lon="1.9292666">
        <ele>155</ele>
        <time>2021-10-28T07:20:54Z</time>
      </trkpt>
      <trkpt lat="47.616497" lon="1.9292507">
        <ele>155</ele>
        <time>2021-10-28T07:20:55Z</time>
      </trkpt>
      <trkpt lat="47.616493" lon="1.9292319">
        <ele>155</ele>
        <time>2021-10-28T07:20:56Z</time>
      </trkpt>
      <trkpt lat="47.616486" lon="1.9292103">
        <ele>155</ele>
        <time>2021-10-28T07:20:57Z</time>
      </trkpt>
      <trkpt lat="47.61648" lon="1.9291914">
        <ele>155</ele>
        <time>2021-10-28T07:20:58Z</time>
      </trkpt>
      <trkpt lat="47.616478" lon="1.9291668">
        <ele>156</ele>
        <time>2021-10-28T07:20:59Z</time>
      </trkpt>
      <trkpt lat="47.61647" lon="1.9291466">
        <ele>156</ele>
        <time>2021-10-28T07:21:00Z</time>
      </trkpt>
      <trkpt lat="47.616463" lon="1.92913">
        <ele>156</ele>
        <time>2021-10-28T07:21:01Z</time>
      </trkpt>
      <trkpt lat="47.61646" lon="1.9291118">
        <ele>157</ele>
        <time>2021-10-28T07:21:02Z</time>
      </trkpt>
      <trkpt lat="47.61646" lon="1.9290923">
        <ele>156</ele>
        <time>2021-10-28T07:21:03Z</time>
      </trkpt>
      <trkpt lat="47.616455" lon="1.9290836">
        <ele>156</ele>
        <time>2021-10-28T07:21:04Z</time>
      </trkpt>
      <trkpt lat="47.616455" lon="1.9290836">
        <ele>156</ele>
        <time>2021-10-28T07:21:05Z</time>
      </trkpt>
      <trkpt lat="47.616455" lon="1.9290836">
        <ele>156</ele>
        <time>2021-10-28T07:21:06Z</time>
      </trkpt>
      <trkpt lat="47.616447" lon="1.9290401">
        <ele>155</ele>
        <time>2021-10-28T07:21:07Z</time>
      </trkpt>
      <trkpt lat="47.61644" lon="1.9290187">
        <ele>155</ele>
        <time>2021-10-28T07:21:08Z</time>
      </trkpt>
      <trkpt lat="47.616432" lon="1.9290013">
        <ele>155</ele>
        <time>2021-10-28T07:21:09Z</time>
      </trkpt>
      <trkpt lat="47.61643" lon="1.9289848">
        <ele>154</ele>
        <time>2021-10-28T07:21:10Z</time>
      </trkpt>
      <trkpt lat="47.61642" lon="1.928966">
        <ele>154</ele>
        <time>2021-10-28T07:21:11Z</time>
      </trkpt>
      <trkpt lat="47.616413" lon="1.9289469">
        <ele>153</ele>
        <time>2021-10-28T07:21:12Z</time>
      </trkpt>
      <trkpt lat="47.6164" lon="1.9289273">
        <ele>153</ele>
        <time>2021-10-28T07:21:13Z</time>
      </trkpt>
      <trkpt lat="47.616398" lon="1.9289117">
        <ele>153</ele>
        <time>2021-10-28T07:21:14Z</time>
      </trkpt>
      <trkpt lat="47.61639" lon="1.9288983">
        <ele>153</ele>
        <time>2021-10-28T07:21:15Z</time>
      </trkpt>
      <trkpt lat="47.61638" lon="1.9288841">
        <ele>154</ele>
        <time>2021-10-28T07:21:16Z</time>
      </trkpt>
      <trkpt lat="47.616375" lon="1.9288671">
        <ele>154</ele>
        <time>2021-10-28T07:21:17Z</time>
      </trkpt>
      <trkpt lat="47.616375" lon="1.9288461">
        <ele>154</ele>
        <time>2021-10-28T07:21:18Z</time>
      </trkpt>
      <trkpt lat="47.616367" lon="1.9288288">
        <ele>154</ele>
        <time>2021-10-28T07:21:19Z</time>
      </trkpt>
      <trkpt lat="47.61636" lon="1.9288139">
        <ele>155</ele>
        <time>2021-10-28T07:21:20Z</time>
      </trkpt>
      <trkpt lat="47.616352" lon="1.9288008">
        <ele>155</ele>
        <time>2021-10-28T07:21:21Z</time>
      </trkpt>
      <trkpt lat="47.616344" lon="1.9287885">
        <ele>155</ele>
        <time>2021-10-28T07:21:22Z</time>
      </trkpt>
      <trkpt lat="47.616344" lon="1.9287758">
        <ele>155</ele>
        <time>2021-10-28T07:21:23Z</time>
      </trkpt>
      <trkpt lat="47.61634" lon="1.928756">
        <ele>155</ele>
        <time>2021-10-28T07:21:24Z</time>
      </trkpt>
      <trkpt lat="47.616337" lon="1.928738">
        <ele>156</ele>
        <time>2021-10-28T07:21:25Z</time>
      </trkpt>
      <trkpt lat="47.616333" lon="1.9287221">
        <ele>156</ele>
        <time>2021-10-28T07:21:26Z</time>
      </trkpt>
      <trkpt lat="47.61633" lon="1.9287083">
        <ele>156</ele>
        <time>2021-10-28T07:21:27Z</time>
      </trkpt>
      <trkpt lat="47.61633" lon="1.928693">
        <ele>156</ele>
        <time>2021-10-28T07:21:28Z</time>
      </trkpt>
      <trkpt lat="47.616325" lon="1.9286798">
        <ele>156</ele>
        <time>2021-10-28T07:21:29Z</time>
      </trkpt>
      <trkpt lat="47.616325" lon="1.9286798">
        <ele>156</ele>
        <time>2021-10-28T07:21:30Z</time>
      </trkpt>
      <trkpt lat="47.616325" lon="1.9286798">
        <ele>156</ele>
        <time>2021-10-28T07:21:31Z</time>
      </trkpt>
      <trkpt lat="47.616318" lon="1.9286402">
        <ele>156</ele>
        <time>2021-10-28T07:21:32Z</time>
      </trkpt>
      <trkpt lat="47.616318" lon="1.9286247">
        <ele>156</ele>
        <time>2021-10-28T07:21:33Z</time>
      </trkpt>
      <trkpt lat="47.616314" lon="1.9286053">
        <ele>156</ele>
        <time>2021-10-28T07:21:34Z</time>
      </trkpt>
      <trkpt lat="47.616314" lon="1.928594">
        <ele>156</ele>
        <time>2021-10-28T07:21:35Z</time>
      </trkpt>
      <trkpt lat="47.616306" lon="1.9285836">
        <ele>156</ele>
        <time>2021-10-28T07:21:36Z</time>
      </trkpt>
      <trkpt lat="47.616302" lon="1.9285703">
        <ele>156</ele>
        <time>2021-10-28T07:21:37Z</time>
      </trkpt>
      <trkpt lat="47.6163" lon="1.9285622">
        <ele>156</ele>
        <time>2021-10-28T07:21:38Z</time>
      </trkpt>
      <trkpt lat="47.616295" lon="1.9285468">
        <ele>155</ele>
        <time>2021-10-28T07:21:39Z</time>
      </trkpt>
      <trkpt lat="47.61629" lon="1.928529">
        <ele>155</ele>
        <time>2021-10-28T07:21:40Z</time>
      </trkpt>
      <trkpt lat="47.616287" lon="1.9285015">
        <ele>156</ele>
        <time>2021-10-28T07:21:41Z</time>
      </trkpt>
      <trkpt lat="47.61628" lon="1.9284776">
        <ele>156</ele>
        <time>2021-10-28T07:21:42Z</time>
      </trkpt>
      <trkpt lat="47.61628" lon="1.9284593">
        <ele>156</ele>
        <time>2021-10-28T07:21:43Z</time>
      </trkpt>
      <trkpt lat="47.616272" lon="1.9284412">
        <ele>156</ele>
        <time>2021-10-28T07:21:44Z</time>
      </trkpt>
      <trkpt lat="47.61627" lon="1.9284242">
        <ele>155</ele>
        <time>2021-10-28T07:21:45Z</time>
      </trkpt>
      <trkpt lat="47.616272" lon="1.9284141">
        <ele>155</ele>
        <time>2021-10-28T07:21:46Z</time>
      </trkpt>
      <trkpt lat="47.616276" lon="1.9284096">
        <ele>155</ele>
        <time>2021-10-28T07:21:47Z</time>
      </trkpt>
      <trkpt lat="47.616272" lon="1.9283988">
        <ele>156</ele>
        <time>2021-10-28T07:21:48Z</time>
      </trkpt>
      <trkpt lat="47.616272" lon="1.9283891">
        <ele>156</ele>
        <time>2021-10-28T07:21:49Z</time>
      </trkpt>
      <trkpt lat="47.61627" lon="1.9283749">
        <ele>156</ele>
        <time>2021-10-28T07:21:50Z</time>
      </trkpt>
      <trkpt lat="47.616264" lon="1.9283582">
        <ele>156</ele>
        <time>2021-10-28T07:21:51Z</time>
      </trkpt>
      <trkpt lat="47.616257" lon="1.9283458">
        <ele>157</ele>
        <time>2021-10-28T07:21:52Z</time>
      </trkpt>
      <trkpt lat="47.616253" lon="1.928335">
        <ele>157</ele>
        <time>2021-10-28T07:21:53Z</time>
      </trkpt>
      <trkpt lat="47.616253" lon="1.928319">
        <ele>157</ele>
        <time>2021-10-28T07:21:54Z</time>
      </trkpt>
      <trkpt lat="47.616253" lon="1.928319">
        <ele>157</ele>
        <time>2021-10-28T07:21:55Z</time>
      </trkpt>
      <trkpt lat="47.616253" lon="1.928319">
        <ele>157</ele>
        <time>2021-10-28T07:21:56Z</time>
      </trkpt>
      <trkpt lat="47.616245" lon="1.928264">
        <ele>157</ele>
        <time>2021-10-28T07:21:57Z</time>
      </trkpt>
      <trkpt lat="47.616245" lon="1.9282432">
        <ele>157</ele>
        <time>2021-10-28T07:21:58Z</time>
      </trkpt>
      <trkpt lat="47.61624" lon="1.9282246">
        <ele>157</ele>
        <time>2021-10-28T07:21:59Z</time>
      </trkpt>
      <trkpt lat="47.616234" lon="1.9282036">
        <ele>157</ele>
        <time>2021-10-28T07:22:00Z</time>
      </trkpt>
      <trkpt lat="47.616226" lon="1.9281819">
        <ele>158</ele>
        <time>2021-10-28T07:22:01Z</time>
      </trkpt>
      <trkpt lat="47.61622" lon="1.9281638">
        <ele>158</ele>
        <time>2021-10-28T07:22:02Z</time>
      </trkpt>
      <trkpt lat="47.616215" lon="1.9281512">
        <ele>158</ele>
        <time>2021-10-28T07:22:03Z</time>
      </trkpt>
      <trkpt lat="47.616207" lon="1.9281392">
        <ele>158</ele>
        <time>2021-10-28T07:22:04Z</time>
      </trkpt>
      <trkpt lat="47.616207" lon="1.9281223">
        <ele>158</ele>
        <time>2021-10-28T07:22:05Z</time>
      </trkpt>
      <trkpt lat="47.6162" lon="1.9280996">
        <ele>158</ele>
        <time>2021-10-28T07:22:06Z</time>
      </trkpt>
      <trkpt lat="47.6162" lon="1.9280821">
        <ele>158</ele>
        <time>2021-10-28T07:22:07Z</time>
      </trkpt>
      <trkpt lat="47.61619" lon="1.928065">
        <ele>157</ele>
        <time>2021-10-28T07:22:08Z</time>
      </trkpt>
      <trkpt lat="47.61619" lon="1.928065">
        <ele>157</ele>
        <time>2021-10-28T07:22:09Z</time>
      </trkpt>
      <trkpt lat="47.61619" lon="1.928065">
        <ele>157</ele>
        <time>2021-10-28T07:22:10Z</time>
      </trkpt>
      <trkpt lat="47.61619" lon="1.9280322">
        <ele>157</ele>
        <time>2021-10-28T07:22:11Z</time>
      </trkpt>
      <trkpt lat="47.61619" lon="1.9280176">
        <ele>157</ele>
        <time>2021-10-28T07:22:12Z</time>
      </trkpt>
      <trkpt lat="47.616184" lon="1.9279977">
        <ele>157</ele>
        <time>2021-10-28T07:22:13Z</time>
      </trkpt>
      <trkpt lat="47.61618" lon="1.9279813">
        <ele>157</ele>
        <time>2021-10-28T07:22:14Z</time>
      </trkpt>
      <trkpt lat="47.616177" lon="1.9279612">
        <ele>157</ele>
        <time>2021-10-28T07:22:15Z</time>
      </trkpt>
      <trkpt lat="47.616177" lon="1.9279463">
        <ele>157</ele>
        <time>2021-10-28T07:22:16Z</time>
      </trkpt>
      <trkpt lat="47.616177" lon="1.9279299">
        <ele>157</ele>
        <time>2021-10-28T07:22:17Z</time>
      </trkpt>
      <trkpt lat="47.616177" lon="1.9279124">
        <ele>157</ele>
        <time>2021-10-28T07:22:18Z</time>
      </trkpt>
      <trkpt lat="47.61617" lon="1.9278941">
        <ele>157</ele>
        <time>2021-10-28T07:22:19Z</time>
      </trkpt>
      <trkpt lat="47.61617" lon="1.9278795">
        <ele>157</ele>
        <time>2021-10-28T07:22:20Z</time>
      </trkpt>
      <trkpt lat="47.61617" lon="1.9278694">
        <ele>157</ele>
        <time>2021-10-28T07:22:21Z</time>
      </trkpt>
      <trkpt lat="47.61617" lon="1.9278622">
        <ele>158</ele>
        <time>2021-10-28T07:22:22Z</time>
      </trkpt>
      <trkpt lat="47.61617" lon="1.9278492">
        <ele>158</ele>
        <time>2021-10-28T07:22:23Z</time>
      </trkpt>
      <trkpt lat="47.61617" lon="1.9278318">
        <ele>158</ele>
        <time>2021-10-28T07:22:24Z</time>
      </trkpt>
      <trkpt lat="47.61617" lon="1.9278193">
        <ele>158</ele>
        <time>2021-10-28T07:22:25Z</time>
      </trkpt>
      <trkpt lat="47.61617" lon="1.9278122">
        <ele>158</ele>
        <time>2021-10-28T07:22:26Z</time>
      </trkpt>
      <trkpt lat="47.61617" lon="1.927797">
        <ele>159</ele>
        <time>2021-10-28T07:22:27Z</time>
      </trkpt>
      <trkpt lat="47.61617" lon="1.9277838">
        <ele>159</ele>
        <time>2021-10-28T07:22:28Z</time>
      </trkpt>
      <trkpt lat="47.61617" lon="1.9277838">
        <ele>159</ele>
        <time>2021-10-28T07:22:29Z</time>
      </trkpt>
      <trkpt lat="47.61617" lon="1.9277838">
        <ele>159</ele>
        <time>2021-10-28T07:22:30Z</time>
      </trkpt>
      <trkpt lat="47.61617" lon="1.9277514">
        <ele>159</ele>
        <time>2021-10-28T07:22:31Z</time>
      </trkpt>
      <trkpt lat="47.61617" lon="1.927736">
        <ele>160</ele>
        <time>2021-10-28T07:22:32Z</time>
      </trkpt>
      <trkpt lat="47.61617" lon="1.9277232">
        <ele>160</ele>
        <time>2021-10-28T07:22:33Z</time>
      </trkpt>
      <trkpt lat="47.61617" lon="1.9277126">
        <ele>160</ele>
        <time>2021-10-28T07:22:34Z</time>
      </trkpt>
      <trkpt lat="47.61617" lon="1.927699">
        <ele>160</ele>
        <time>2021-10-28T07:22:35Z</time>
      </trkpt>
      <trkpt lat="47.616173" lon="1.9276866">
        <ele>160</ele>
        <time>2021-10-28T07:22:36Z</time>
      </trkpt>
      <trkpt lat="47.616173" lon="1.9276866">
        <ele>160</ele>
        <time>2021-10-28T07:22:37Z</time>
      </trkpt>
      <trkpt lat="47.616173" lon="1.9276866">
        <ele>160</ele>
        <time>2021-10-28T07:22:38Z</time>
      </trkpt>
      <trkpt lat="47.616177" lon="1.9276495">
        <ele>160</ele>
        <time>2021-10-28T07:22:39Z</time>
      </trkpt>
      <trkpt lat="47.61618" lon="1.92763">
        <ele>160</ele>
        <time>2021-10-28T07:22:40Z</time>
      </trkpt>
      <trkpt lat="47.616177" lon="1.9276123">
        <ele>160</ele>
        <time>2021-10-28T07:22:41Z</time>
      </trkpt>
      <trkpt lat="47.616177" lon="1.9275935">
        <ele>159</ele>
        <time>2021-10-28T07:22:42Z</time>
      </trkpt>
      <trkpt lat="47.616173" lon="1.92758">
        <ele>159</ele>
        <time>2021-10-28T07:22:43Z</time>
      </trkpt>
      <trkpt lat="47.616173" lon="1.92758">
        <ele>159</ele>
        <time>2021-10-28T07:22:44Z</time>
      </trkpt>
      <trkpt lat="47.616165" lon="1.9275517">
        <ele>159</ele>
        <time>2021-10-28T07:22:45Z</time>
      </trkpt>
      <trkpt lat="47.616165" lon="1.9275329">
        <ele>159</ele>
        <time>2021-10-28T07:22:46Z</time>
      </trkpt>
      <trkpt lat="47.61616" lon="1.9275095">
        <ele>160</ele>
        <time>2021-10-28T07:22:47Z</time>
      </trkpt>
      <trkpt lat="47.616154" lon="1.9274893">
        <ele>160</ele>
        <time>2021-10-28T07:22:48Z</time>
      </trkpt>
      <trkpt lat="47.616154" lon="1.9274721">
        <ele>160</ele>
        <time>2021-10-28T07:22:49Z</time>
      </trkpt>
      <trkpt lat="47.61615" lon="1.9274513">
        <ele>160</ele>
        <time>2021-10-28T07:22:50Z</time>
      </trkpt>
      <trkpt lat="47.616142" lon="1.9274324">
        <ele>160</ele>
        <time>2021-10-28T07:22:51Z</time>
      </trkpt>
      <trkpt lat="47.616135" lon="1.9274118">
        <ele>160</ele>
        <time>2021-10-28T07:22:52Z</time>
      </trkpt>
      <trkpt lat="47.616127" lon="1.9273905">
        <ele>160</ele>
        <time>2021-10-28T07:22:53Z</time>
      </trkpt>
      <trkpt lat="47.61612" lon="1.9273713">
        <ele>160</ele>
        <time>2021-10-28T07:22:54Z</time>
      </trkpt>
      <trkpt lat="47.616116" lon="1.9273558">
        <ele>160</ele>
        <time>2021-10-28T07:22:55Z</time>
      </trkpt>
      <trkpt lat="47.616108" lon="1.927341">
        <ele>160</ele>
        <time>2021-10-28T07:22:56Z</time>
      </trkpt>
      <trkpt lat="47.616108" lon="1.927341">
        <ele>160</ele>
        <time>2021-10-28T07:22:57Z</time>
      </trkpt>
      <trkpt lat="47.616108" lon="1.927341">
        <ele>160</ele>
        <time>2021-10-28T07:22:58Z</time>
      </trkpt>
      <trkpt lat="47.616096" lon="1.927293">
        <ele>160</ele>
        <time>2021-10-28T07:22:59Z</time>
      </trkpt>
      <trkpt lat="47.616093" lon="1.9272758">
        <ele>160</ele>
        <time>2021-10-28T07:23:00Z</time>
      </trkpt>
      <trkpt lat="47.61609" lon="1.9272611">
        <ele>160</ele>
        <time>2021-10-28T07:23:01Z</time>
      </trkpt>
      <trkpt lat="47.616093" lon="1.9272407">
        <ele>160</ele>
        <time>2021-10-28T07:23:02Z</time>
      </trkpt>
      <trkpt lat="47.61609" lon="1.9272277">
        <ele>159</ele>
        <time>2021-10-28T07:23:03Z</time>
      </trkpt>
      <trkpt lat="47.61608" lon="1.9272112">
        <ele>159</ele>
        <time>2021-10-28T07:23:04Z</time>
      </trkpt>
      <trkpt lat="47.61608" lon="1.927193">
        <ele>159</ele>
        <time>2021-10-28T07:23:05Z</time>
      </trkpt>
      <trkpt lat="47.616074" lon="1.9271766">
        <ele>159</ele>
        <time>2021-10-28T07:23:06Z</time>
      </trkpt>
      <trkpt lat="47.616074" lon="1.9271554">
        <ele>159</ele>
        <time>2021-10-28T07:23:07Z</time>
      </trkpt>
      <trkpt lat="47.616066" lon="1.9271365">
        <ele>159</ele>
        <time>2021-10-28T07:23:08Z</time>
      </trkpt>
      <trkpt lat="47.616066" lon="1.9271234">
        <ele>159</ele>
        <time>2021-10-28T07:23:09Z</time>
      </trkpt>
      <trkpt lat="47.616066" lon="1.9271095">
        <ele>159</ele>
        <time>2021-10-28T07:23:10Z</time>
      </trkpt>
      <trkpt lat="47.616066" lon="1.9271095">
        <ele>159</ele>
        <time>2021-10-28T07:23:11Z</time>
      </trkpt>
      <trkpt lat="47.616066" lon="1.9271095">
        <ele>159</ele>
        <time>2021-10-28T07:23:12Z</time>
      </trkpt>
      <trkpt lat="47.616062" lon="1.9270637">
        <ele>158</ele>
        <time>2021-10-28T07:23:13Z</time>
      </trkpt>
      <trkpt lat="47.61606" lon="1.9270437">
        <ele>158</ele>
        <time>2021-10-28T07:23:14Z</time>
      </trkpt>
      <trkpt lat="47.616055" lon="1.9270254">
        <ele>158</ele>
        <time>2021-10-28T07:23:15Z</time>
      </trkpt>
      <trkpt lat="47.616055" lon="1.9270056">
        <ele>158</ele>
        <time>2021-10-28T07:23:16Z</time>
      </trkpt>
      <trkpt lat="47.61605" lon="1.926988">
        <ele>158</ele>
        <time>2021-10-28T07:23:17Z</time>
      </trkpt>
      <trkpt lat="47.616047" lon="1.9269723">
        <ele>158</ele>
        <time>2021-10-28T07:23:18Z</time>
      </trkpt>
      <trkpt lat="47.616047" lon="1.9269526">
        <ele>158</ele>
        <time>2021-10-28T07:23:19Z</time>
      </trkpt>
      <trkpt lat="47.616043" lon="1.9269285">
        <ele>158</ele>
        <time>2021-10-28T07:23:20Z</time>
      </trkpt>
      <trkpt lat="47.616043" lon="1.9269053">
        <ele>158</ele>
        <time>2021-10-28T07:23:21Z</time>
      </trkpt>
      <trkpt lat="47.616043" lon="1.9268923">
        <ele>158</ele>
        <time>2021-10-28T07:23:22Z</time>
      </trkpt>
      <trkpt lat="47.61604" lon="1.9268783">
        <ele>158</ele>
        <time>2021-10-28T07:23:23Z</time>
      </trkpt>
      <trkpt lat="47.61603" lon="1.9268538">
        <ele>157</ele>
        <time>2021-10-28T07:23:24Z</time>
      </trkpt>
      <trkpt lat="47.616028" lon="1.9268345">
        <ele>157</ele>
        <time>2021-10-28T07:23:25Z</time>
      </trkpt>
      <trkpt lat="47.616024" lon="1.9268107">
        <ele>157</ele>
        <time>2021-10-28T07:23:26Z</time>
      </trkpt>
      <trkpt lat="47.61602" lon="1.9267882">
        <ele>157</ele>
        <time>2021-10-28T07:23:27Z</time>
      </trkpt>
      <trkpt lat="47.61602" lon="1.9267656">
        <ele>156</ele>
        <time>2021-10-28T07:23:28Z</time>
      </trkpt>
      <trkpt lat="47.616013" lon="1.9267434">
        <ele>156</ele>
        <time>2021-10-28T07:23:29Z</time>
      </trkpt>
      <trkpt lat="47.616013" lon="1.926725">
        <ele>156</ele>
        <time>2021-10-28T07:23:30Z</time>
      </trkpt>
      <trkpt lat="47.616013" lon="1.926702">
        <ele>156</ele>
        <time>2021-10-28T07:23:31Z</time>
      </trkpt>
      <trkpt lat="47.616013" lon="1.9266886">
        <ele>156</ele>
        <time>2021-10-28T07:23:32Z</time>
      </trkpt>
      <trkpt lat="47.61601" lon="1.9266729">
        <ele>156</ele>
        <time>2021-10-28T07:23:33Z</time>
      </trkpt>
      <trkpt lat="47.616005" lon="1.9266586">
        <ele>156</ele>
        <time>2021-10-28T07:23:34Z</time>
      </trkpt>
      <trkpt lat="47.616005" lon="1.926646">
        <ele>156</ele>
        <time>2021-10-28T07:23:35Z</time>
      </trkpt>
      <trkpt lat="47.616005" lon="1.9266281">
        <ele>156</ele>
        <time>2021-10-28T07:23:36Z</time>
      </trkpt>
      <trkpt lat="47.615997" lon="1.9266131">
        <ele>156</ele>
        <time>2021-10-28T07:23:37Z</time>
      </trkpt>
      <trkpt lat="47.615993" lon="1.9265984">
        <ele>156</ele>
        <time>2021-10-28T07:23:38Z</time>
      </trkpt>
      <trkpt lat="47.615993" lon="1.9265851">
        <ele>157</ele>
        <time>2021-10-28T07:23:39Z</time>
      </trkpt>
      <trkpt lat="47.61599" lon="1.9265708">
        <ele>157</ele>
        <time>2021-10-28T07:23:40Z</time>
      </trkpt>
      <trkpt lat="47.615982" lon="1.9265615">
        <ele>157</ele>
        <time>2021-10-28T07:23:41Z</time>
      </trkpt>
      <trkpt lat="47.61598" lon="1.9265559">
        <ele>157</ele>
        <time>2021-10-28T07:23:42Z</time>
      </trkpt>
      <trkpt lat="47.615974" lon="1.9265418">
        <ele>157</ele>
        <time>2021-10-28T07:23:43Z</time>
      </trkpt>
      <trkpt lat="47.615974" lon="1.9265299">
        <ele>158</ele>
        <time>2021-10-28T07:23:44Z</time>
      </trkpt>
      <trkpt lat="47.615974" lon="1.926516">
        <ele>158</ele>
        <time>2021-10-28T07:23:45Z</time>
      </trkpt>
      <trkpt lat="47.61597" lon="1.926504">
        <ele>158</ele>
        <time>2021-10-28T07:23:46Z</time>
      </trkpt>
      <trkpt lat="47.61597" lon="1.926487">
        <ele>158</ele>
        <time>2021-10-28T07:23:47Z</time>
      </trkpt>
      <trkpt lat="47.615967" lon="1.9264718">
        <ele>158</ele>
        <time>2021-10-28T07:23:48Z</time>
      </trkpt>
      <trkpt lat="47.61596" lon="1.9264513">
        <ele>158</ele>
        <time>2021-10-28T07:23:49Z</time>
      </trkpt>
      <trkpt lat="47.61596" lon="1.9264362">
        <ele>158</ele>
        <time>2021-10-28T07:23:50Z</time>
      </trkpt>
      <trkpt lat="47.61595" lon="1.9264206">
        <ele>158</ele>
        <time>2021-10-28T07:23:51Z</time>
      </trkpt>
      <trkpt lat="47.61595" lon="1.9264002">
        <ele>159</ele>
        <time>2021-10-28T07:23:52Z</time>
      </trkpt>
      <trkpt lat="47.615948" lon="1.9263781">
        <ele>159</ele>
        <time>2021-10-28T07:23:53Z</time>
      </trkpt>
      <trkpt lat="47.615944" lon="1.926355">
        <ele>159</ele>
        <time>2021-10-28T07:23:54Z</time>
      </trkpt>
      <trkpt lat="47.615936" lon="1.9263344">
        <ele>159</ele>
        <time>2021-10-28T07:23:55Z</time>
      </trkpt>
      <trkpt lat="47.615932" lon="1.9263158">
        <ele>160</ele>
        <time>2021-10-28T07:23:56Z</time>
      </trkpt>
      <trkpt lat="47.615925" lon="1.9262887">
        <ele>160</ele>
        <time>2021-10-28T07:23:57Z</time>
      </trkpt>
      <trkpt lat="47.615925" lon="1.926273">
        <ele>160</ele>
        <time>2021-10-28T07:23:58Z</time>
      </trkpt>
      <trkpt lat="47.615917" lon="1.9262543">
        <ele>160</ele>
        <time>2021-10-28T07:23:59Z</time>
      </trkpt>
      <trkpt lat="47.615913" lon="1.9262358">
        <ele>160</ele>
        <time>2021-10-28T07:24:00Z</time>
      </trkpt>
      <trkpt lat="47.615902" lon="1.926216">
        <ele>161</ele>
        <time>2021-10-28T07:24:01Z</time>
      </trkpt>
      <trkpt lat="47.6159" lon="1.9262062">
        <ele>160</ele>
        <time>2021-10-28T07:24:02Z</time>
      </trkpt>
      <trkpt lat="47.615894" lon="1.9261943">
        <ele>161</ele>
        <time>2021-10-28T07:24:03Z</time>
      </trkpt>
      <trkpt lat="47.615894" lon="1.9261943">
        <ele>161</ele>
        <time>2021-10-28T07:24:04Z</time>
      </trkpt>
      <trkpt lat="47.615894" lon="1.9261943">
        <ele>161</ele>
        <time>2021-10-28T07:24:05Z</time>
      </trkpt>
      <trkpt lat="47.615883" lon="1.9261588">
        <ele>161</ele>
        <time>2021-10-28T07:24:06Z</time>
      </trkpt>
      <trkpt lat="47.61588" lon="1.9261469">
        <ele>162</ele>
        <time>2021-10-28T07:24:07Z</time>
      </trkpt>
      <trkpt lat="47.61588" lon="1.9261363">
        <ele>162</ele>
        <time>2021-10-28T07:24:08Z</time>
      </trkpt>
      <trkpt lat="47.61588" lon="1.9261266">
        <ele>162</ele>
        <time>2021-10-28T07:24:09Z</time>
      </trkpt>
      <trkpt lat="47.615875" lon="1.9261165">
        <ele>162</ele>
        <time>2021-10-28T07:24:10Z</time>
      </trkpt>
      <trkpt lat="47.61587" lon="1.9261026">
        <ele>162</ele>
        <time>2021-10-28T07:24:11Z</time>
      </trkpt>
      <trkpt lat="47.615864" lon="1.9260868">
        <ele>161</ele>
        <time>2021-10-28T07:24:12Z</time>
      </trkpt>
      <trkpt lat="47.615864" lon="1.9260868">
        <ele>161</ele>
        <time>2021-10-28T07:24:13Z</time>
      </trkpt>
      <trkpt lat="47.615864" lon="1.9260868">
        <ele>161</ele>
        <time>2021-10-28T07:24:14Z</time>
      </trkpt>
      <trkpt lat="47.615864" lon="1.9260515">
        <ele>161</ele>
        <time>2021-10-28T07:24:15Z</time>
      </trkpt>
      <trkpt lat="47.61586" lon="1.9260354">
        <ele>161</ele>
        <time>2021-10-28T07:24:16Z</time>
      </trkpt>
      <trkpt lat="47.615856" lon="1.9260197">
        <ele>162</ele>
        <time>2021-10-28T07:24:17Z</time>
      </trkpt>
      <trkpt lat="47.615852" lon="1.9260061">
        <ele>162</ele>
        <time>2021-10-28T07:24:18Z</time>
      </trkpt>
      <trkpt lat="47.61585" lon="1.9259901">
        <ele>162</ele>
        <time>2021-10-28T07:24:19Z</time>
      </trkpt>
      <trkpt lat="47.615845" lon="1.9259768">
        <ele>161</ele>
        <time>2021-10-28T07:24:20Z</time>
      </trkpt>
      <trkpt lat="47.615845" lon="1.9259651">
        <ele>161</ele>
        <time>2021-10-28T07:24:21Z</time>
      </trkpt>
      <trkpt lat="47.61584" lon="1.925951">
        <ele>161</ele>
        <time>2021-10-28T07:24:22Z</time>
      </trkpt>
      <trkpt lat="47.615837" lon="1.9259356">
        <ele>161</ele>
        <time>2021-10-28T07:24:23Z</time>
      </trkpt>
      <trkpt lat="47.615833" lon="1.925918">
        <ele>160</ele>
        <time>2021-10-28T07:24:24Z</time>
      </trkpt>
      <trkpt lat="47.615833" lon="1.925918">
        <ele>160</ele>
        <time>2021-10-28T07:24:25Z</time>
      </trkpt>
      <trkpt lat="47.61583" lon="1.9258775">
        <ele>160</ele>
        <time>2021-10-28T07:24:26Z</time>
      </trkpt>
      <trkpt lat="47.61582" lon="1.9258605">
        <ele>160</ele>
        <time>2021-10-28T07:24:27Z</time>
      </trkpt>
      <trkpt lat="47.61582" lon="1.9258444">
        <ele>160</ele>
        <time>2021-10-28T07:24:28Z</time>
      </trkpt>
      <trkpt lat="47.61582" lon="1.9258343">
        <ele>159</ele>
        <time>2021-10-28T07:24:29Z</time>
      </trkpt>
      <trkpt lat="47.61582" lon="1.9258343">
        <ele>159</ele>
        <time>2021-10-28T07:24:30Z</time>
      </trkpt>
      <trkpt lat="47.61582" lon="1.9258343">
        <ele>159</ele>
        <time>2021-10-28T07:24:31Z</time>
      </trkpt>
      <trkpt lat="47.615818" lon="1.9258026">
        <ele>158</ele>
        <time>2021-10-28T07:24:32Z</time>
      </trkpt>
      <trkpt lat="47.615818" lon="1.9257911">
        <ele>158</ele>
        <time>2021-10-28T07:24:33Z</time>
      </trkpt>
      <trkpt lat="47.615814" lon="1.9257693">
        <ele>158</ele>
        <time>2021-10-28T07:24:34Z</time>
      </trkpt>
      <trkpt lat="47.615814" lon="1.9257548">
        <ele>158</ele>
        <time>2021-10-28T07:24:35Z</time>
      </trkpt>
      <trkpt lat="47.61581" lon="1.9257436">
        <ele>158</ele>
        <time>2021-10-28T07:24:36Z</time>
      </trkpt>
      <trkpt lat="47.61581" lon="1.9257323">
        <ele>157</ele>
        <time>2021-10-28T07:24:37Z</time>
      </trkpt>
      <trkpt lat="47.61581" lon="1.9257323">
        <ele>157</ele>
        <time>2021-10-28T07:24:38Z</time>
      </trkpt>
      <trkpt lat="47.615803" lon="1.9257034">
        <ele>158</ele>
        <time>2021-10-28T07:24:39Z</time>
      </trkpt>
      <trkpt lat="47.615803" lon="1.9256873">
        <ele>158</ele>
        <time>2021-10-28T07:24:40Z</time>
      </trkpt>
      <trkpt lat="47.615803" lon="1.9256746">
        <ele>158</ele>
        <time>2021-10-28T07:24:41Z</time>
      </trkpt>
      <trkpt lat="47.6158" lon="1.9256635">
        <ele>159</ele>
        <time>2021-10-28T07:24:42Z</time>
      </trkpt>
      <trkpt lat="47.6158" lon="1.9256635">
        <ele>159</ele>
        <time>2021-10-28T07:24:43Z</time>
      </trkpt>
      <trkpt lat="47.6158" lon="1.9256635">
        <ele>159</ele>
        <time>2021-10-28T07:24:44Z</time>
      </trkpt>
      <trkpt lat="47.615795" lon="1.9256227">
        <ele>159</ele>
        <time>2021-10-28T07:24:45Z</time>
      </trkpt>
      <trkpt lat="47.615795" lon="1.9256029">
        <ele>159</ele>
        <time>2021-10-28T07:24:46Z</time>
      </trkpt>
      <trkpt lat="47.61579" lon="1.9255835">
        <ele>160</ele>
        <time>2021-10-28T07:24:47Z</time>
      </trkpt>
      <trkpt lat="47.615795" lon="1.925566">
        <ele>160</ele>
        <time>2021-10-28T07:24:48Z</time>
      </trkpt>
      <trkpt lat="47.61579" lon="1.9255419">
        <ele>160</ele>
        <time>2021-10-28T07:24:49Z</time>
      </trkpt>
      <trkpt lat="47.61579" lon="1.9255213">
        <ele>160</ele>
        <time>2021-10-28T07:24:50Z</time>
      </trkpt>
      <trkpt lat="47.615784" lon="1.9255022">
        <ele>160</ele>
        <time>2021-10-28T07:24:51Z</time>
      </trkpt>
      <trkpt lat="47.61578" lon="1.9254812">
        <ele>161</ele>
        <time>2021-10-28T07:24:52Z</time>
      </trkpt>
      <trkpt lat="47.61578" lon="1.9254628">
        <ele>161</ele>
        <time>2021-10-28T07:24:53Z</time>
      </trkpt>
      <trkpt lat="47.61578" lon="1.9254472">
        <ele>161</ele>
        <time>2021-10-28T07:24:54Z</time>
      </trkpt>
      <trkpt lat="47.615776" lon="1.9254363">
        <ele>161</ele>
        <time>2021-10-28T07:24:55Z</time>
      </trkpt>
      <trkpt lat="47.615776" lon="1.9254242">
        <ele>161</ele>
        <time>2021-10-28T07:24:56Z</time>
      </trkpt>
      <trkpt lat="47.615772" lon="1.9254087">
        <ele>161</ele>
        <time>2021-10-28T07:24:57Z</time>
      </trkpt>
      <trkpt lat="47.615772" lon="1.9254087">
        <ele>161</ele>
        <time>2021-10-28T07:24:58Z</time>
      </trkpt>
      <trkpt lat="47.615772" lon="1.9254087">
        <ele>161</ele>
        <time>2021-10-28T07:24:59Z</time>
      </trkpt>
      <trkpt lat="47.61577" lon="1.925378">
        <ele>161</ele>
        <time>2021-10-28T07:25:00Z</time>
      </trkpt>
      <trkpt lat="47.615765" lon="1.9253705">
        <ele>162</ele>
        <time>2021-10-28T07:25:01Z</time>
      </trkpt>
      <trkpt lat="47.61576" lon="1.9253584">
        <ele>161</ele>
        <time>2021-10-28T07:25:02Z</time>
      </trkpt>
      <trkpt lat="47.615753" lon="1.9253504">
        <ele>161</ele>
        <time>2021-10-28T07:25:03Z</time>
      </trkpt>
      <trkpt lat="47.615753" lon="1.9253504">
        <ele>161</ele>
        <time>2021-10-28T07:25:04Z</time>
      </trkpt>
      <trkpt lat="47.615753" lon="1.9253504">
        <ele>161</ele>
        <time>2021-10-28T07:25:05Z</time>
      </trkpt>
      <trkpt lat="47.615746" lon="1.9253088">
        <ele>160</ele>
        <time>2021-10-28T07:25:06Z</time>
      </trkpt>
      <trkpt lat="47.615746" lon="1.9252892">
        <ele>160</ele>
        <time>2021-10-28T07:25:07Z</time>
      </trkpt>
      <trkpt lat="47.61574" lon="1.9252661">
        <ele>160</ele>
        <time>2021-10-28T07:25:08Z</time>
      </trkpt>
      <trkpt lat="47.615738" lon="1.925253">
        <ele>161</ele>
        <time>2021-10-28T07:25:09Z</time>
      </trkpt>
      <trkpt lat="47.615738" lon="1.925253">
        <ele>161</ele>
        <time>2021-10-28T07:25:10Z</time>
      </trkpt>
      <trkpt lat="47.615738" lon="1.925253">
        <ele>161</ele>
        <time>2021-10-28T07:25:11Z</time>
      </trkpt>
      <trkpt lat="47.615734" lon="1.9252274">
        <ele>161</ele>
        <time>2021-10-28T07:25:12Z</time>
      </trkpt>
      <trkpt lat="47.615734" lon="1.9252144">
        <ele>162</ele>
        <time>2021-10-28T07:25:13Z</time>
      </trkpt>
      <trkpt lat="47.61573" lon="1.9251987">
        <ele>162</ele>
        <time>2021-10-28T07:25:14Z</time>
      </trkpt>
      <trkpt lat="47.61573" lon="1.9251826">
        <ele>162</ele>
        <time>2021-10-28T07:25:15Z</time>
      </trkpt>
      <trkpt lat="47.61573" lon="1.9251826">
        <ele>162</ele>
        <time>2021-10-28T07:25:16Z</time>
      </trkpt>
      <trkpt lat="47.61573" lon="1.9251826">
        <ele>162</ele>
        <time>2021-10-28T07:25:17Z</time>
      </trkpt>
      <trkpt lat="47.615726" lon="1.9251486">
        <ele>161</ele>
        <time>2021-10-28T07:25:18Z</time>
      </trkpt>
      <trkpt lat="47.615723" lon="1.9251379">
        <ele>160</ele>
        <time>2021-10-28T07:25:19Z</time>
      </trkpt>
      <trkpt lat="47.61572" lon="1.9251263">
        <ele>160</ele>
        <time>2021-10-28T07:25:20Z</time>
      </trkpt>
      <trkpt lat="47.61572" lon="1.9251158">
        <ele>160</ele>
        <time>2021-10-28T07:25:21Z</time>
      </trkpt>
      <trkpt lat="47.61572" lon="1.9251158">
        <ele>160</ele>
        <time>2021-10-28T07:25:22Z</time>
      </trkpt>
      <trkpt lat="47.61572" lon="1.9251158">
        <ele>160</ele>
        <time>2021-10-28T07:25:23Z</time>
      </trkpt>
      <trkpt lat="47.61571" lon="1.9250665">
        <ele>159</ele>
        <time>2021-10-28T07:25:24Z</time>
      </trkpt>
      <trkpt lat="47.615704" lon="1.9250453">
        <ele>158</ele>
        <time>2021-10-28T07:25:25Z</time>
      </trkpt>
      <trkpt lat="47.615704" lon="1.9250313">
        <ele>158</ele>
        <time>2021-10-28T07:25:26Z</time>
      </trkpt>
      <trkpt lat="47.6157" lon="1.9250185">
        <ele>158</ele>
        <time>2021-10-28T07:25:27Z</time>
      </trkpt>
      <trkpt lat="47.6157" lon="1.9250185">
        <ele>158</ele>
        <time>2021-10-28T07:25:28Z</time>
      </trkpt>
      <trkpt lat="47.6157" lon="1.9250185">
        <ele>158</ele>
        <time>2021-10-28T07:25:29Z</time>
      </trkpt>
      <trkpt lat="47.615685" lon="1.9249688">
        <ele>156</ele>
        <time>2021-10-28T07:25:30Z</time>
      </trkpt>
      <trkpt lat="47.61568" lon="1.9249513">
        <ele>156</ele>
        <time>2021-10-28T07:25:31Z</time>
      </trkpt>
      <trkpt lat="47.615677" lon="1.9249337">
        <ele>156</ele>
        <time>2021-10-28T07:25:32Z</time>
      </trkpt>
      <trkpt lat="47.615673" lon="1.9249132">
        <ele>156</ele>
        <time>2021-10-28T07:25:33Z</time>
      </trkpt>
      <trkpt lat="47.61567" lon="1.9248936">
        <ele>156</ele>
        <time>2021-10-28T07:25:34Z</time>
      </trkpt>
      <trkpt lat="47.615665" lon="1.9248651">
        <ele>157</ele>
        <time>2021-10-28T07:25:35Z</time>
      </trkpt>
      <trkpt lat="47.61566" lon="1.9248409">
        <ele>157</ele>
        <time>2021-10-28T07:25:36Z</time>
      </trkpt>
      <trkpt lat="47.615654" lon="1.9248124">
        <ele>157</ele>
        <time>2021-10-28T07:25:37Z</time>
      </trkpt>
      <trkpt lat="47.615654" lon="1.9247907">
        <ele>157</ele>
        <time>2021-10-28T07:25:38Z</time>
      </trkpt>
      <trkpt lat="47.61565" lon="1.9247686">
        <ele>158</ele>
        <time>2021-10-28T07:25:39Z</time>
      </trkpt>
      <trkpt lat="47.615646" lon="1.9247482">
        <ele>157</ele>
        <time>2021-10-28T07:25:40Z</time>
      </trkpt>
      <trkpt lat="47.615646" lon="1.9247271">
        <ele>157</ele>
        <time>2021-10-28T07:25:41Z</time>
      </trkpt>
      <trkpt lat="47.61564" lon="1.9247078">
        <ele>157</ele>
        <time>2021-10-28T07:25:42Z</time>
      </trkpt>
      <trkpt lat="47.61564" lon="1.9246873">
        <ele>157</ele>
        <time>2021-10-28T07:25:43Z</time>
      </trkpt>
      <trkpt lat="47.615635" lon="1.9246681">
        <ele>157</ele>
        <time>2021-10-28T07:25:44Z</time>
      </trkpt>
      <trkpt lat="47.61563" lon="1.9246489">
        <ele>157</ele>
        <time>2021-10-28T07:25:45Z</time>
      </trkpt>
      <trkpt lat="47.615627" lon="1.9246274">
        <ele>158</ele>
        <time>2021-10-28T07:25:46Z</time>
      </trkpt>
      <trkpt lat="47.615623" lon="1.9246091">
        <ele>158</ele>
        <time>2021-10-28T07:25:47Z</time>
      </trkpt>
      <trkpt lat="47.615623" lon="1.9245898">
        <ele>158</ele>
        <time>2021-10-28T07:25:48Z</time>
      </trkpt>
      <trkpt lat="47.61562" lon="1.9245762">
        <ele>157</ele>
        <time>2021-10-28T07:25:49Z</time>
      </trkpt>
      <trkpt lat="47.61562" lon="1.9245762">
        <ele>157</ele>
        <time>2021-10-28T07:25:50Z</time>
      </trkpt>
      <trkpt lat="47.61562" lon="1.9245762">
        <ele>157</ele>
        <time>2021-10-28T07:25:51Z</time>
      </trkpt>
      <trkpt lat="47.61561" lon="1.9245342">
        <ele>158</ele>
        <time>2021-10-28T07:25:52Z</time>
      </trkpt>
      <trkpt lat="47.615604" lon="1.924519">
        <ele>159</ele>
        <time>2021-10-28T07:25:53Z</time>
      </trkpt>
      <trkpt lat="47.6156" lon="1.9245049">
        <ele>159</ele>
        <time>2021-10-28T07:25:54Z</time>
      </trkpt>
      <trkpt lat="47.6156" lon="1.9244925">
        <ele>159</ele>
        <time>2021-10-28T07:25:55Z</time>
      </trkpt>
      <trkpt lat="47.6156" lon="1.9244925">
        <ele>159</ele>
        <time>2021-10-28T07:25:56Z</time>
      </trkpt>
      <trkpt lat="47.615585" lon="1.9244657">
        <ele>160</ele>
        <time>2021-10-28T07:25:57Z</time>
      </trkpt>
      <trkpt lat="47.615578" lon="1.9244471">
        <ele>159</ele>
        <time>2021-10-28T07:25:58Z</time>
      </trkpt>
      <trkpt lat="47.61557" lon="1.9244314">
        <ele>159</ele>
        <time>2021-10-28T07:25:59Z</time>
      </trkpt>
      <trkpt lat="47.61557" lon="1.9244121">
        <ele>159</ele>
        <time>2021-10-28T07:26:00Z</time>
      </trkpt>
      <trkpt lat="47.615562" lon="1.9243957">
        <ele>159</ele>
        <time>2021-10-28T07:26:01Z</time>
      </trkpt>
      <trkpt lat="47.61556" lon="1.9243823">
        <ele>159</ele>
        <time>2021-10-28T07:26:02Z</time>
      </trkpt>
      <trkpt lat="47.615555" lon="1.9243654">
        <ele>159</ele>
        <time>2021-10-28T07:26:03Z</time>
      </trkpt>
      <trkpt lat="47.61555" lon="1.9243443">
        <ele>159</ele>
        <time>2021-10-28T07:26:04Z</time>
      </trkpt>
      <trkpt lat="47.615547" lon="1.9243186">
        <ele>159</ele>
        <time>2021-10-28T07:26:05Z</time>
      </trkpt>
      <trkpt lat="47.615543" lon="1.9242994">
        <ele>159</ele>
        <time>2021-10-28T07:26:06Z</time>
      </trkpt>
      <trkpt lat="47.61554" lon="1.9242809">
        <ele>159</ele>
        <time>2021-10-28T07:26:07Z</time>
      </trkpt>
      <trkpt lat="47.615536" lon="1.9242606">
        <ele>159</ele>
        <time>2021-10-28T07:26:08Z</time>
      </trkpt>
      <trkpt lat="47.615532" lon="1.9242406">
        <ele>159</ele>
        <time>2021-10-28T07:26:09Z</time>
      </trkpt>
      <trkpt lat="47.61553" lon="1.9242163">
        <ele>159</ele>
        <time>2021-10-28T07:26:10Z</time>
      </trkpt>
      <trkpt lat="47.615524" lon="1.9241989">
        <ele>159</ele>
        <time>2021-10-28T07:26:11Z</time>
      </trkpt>
      <trkpt lat="47.615524" lon="1.9241829">
        <ele>159</ele>
        <time>2021-10-28T07:26:12Z</time>
      </trkpt>
      <trkpt lat="47.61552" lon="1.9241687">
        <ele>159</ele>
        <time>2021-10-28T07:26:13Z</time>
      </trkpt>
      <trkpt lat="47.61552" lon="1.92415">
        <ele>159</ele>
        <time>2021-10-28T07:26:14Z</time>
      </trkpt>
      <trkpt lat="47.61552" lon="1.92415">
        <ele>159</ele>
        <time>2021-10-28T07:26:15Z</time>
      </trkpt>
      <trkpt lat="47.61552" lon="1.92415">
        <ele>159</ele>
        <time>2021-10-28T07:26:16Z</time>
      </trkpt>
      <trkpt lat="47.615513" lon="1.924112">
        <ele>159</ele>
        <time>2021-10-28T07:26:17Z</time>
      </trkpt>
      <trkpt lat="47.61551" lon="1.9241">
        <ele>159</ele>
        <time>2021-10-28T07:26:18Z</time>
      </trkpt>
      <trkpt lat="47.61551" lon="1.9240832">
        <ele>159</ele>
        <time>2021-10-28T07:26:19Z</time>
      </trkpt>
      <trkpt lat="47.615505" lon="1.9240667">
        <ele>159</ele>
        <time>2021-10-28T07:26:20Z</time>
      </trkpt>
      <trkpt lat="47.6155" lon="1.9240522">
        <ele>159</ele>
        <time>2021-10-28T07:26:21Z</time>
      </trkpt>
      <trkpt lat="47.615498" lon="1.9240361">
        <ele>159</ele>
        <time>2021-10-28T07:26:22Z</time>
      </trkpt>
      <trkpt lat="47.615494" lon="1.9240193">
        <ele>160</ele>
        <time>2021-10-28T07:26:23Z</time>
      </trkpt>
      <trkpt lat="47.61549" lon="1.9240052">
        <ele>160</ele>
        <time>2021-10-28T07:26:24Z</time>
      </trkpt>
      <trkpt lat="47.615486" lon="1.9239866">
        <ele>161</ele>
        <time>2021-10-28T07:26:25Z</time>
      </trkpt>
      <trkpt lat="47.61548" lon="1.9239639">
        <ele>161</ele>
        <time>2021-10-28T07:26:26Z</time>
      </trkpt>
      <trkpt lat="47.61547" lon="1.9239398">
        <ele>161</ele>
        <time>2021-10-28T07:26:27Z</time>
      </trkpt>
      <trkpt lat="47.615463" lon="1.923919">
        <ele>160</ele>
        <time>2021-10-28T07:26:28Z</time>
      </trkpt>
      <trkpt lat="47.61546" lon="1.9239019">
        <ele>160</ele>
        <time>2021-10-28T07:26:29Z</time>
      </trkpt>
      <trkpt lat="47.615456" lon="1.9238838">
        <ele>161</ele>
        <time>2021-10-28T07:26:30Z</time>
      </trkpt>
      <trkpt lat="47.61545" lon="1.9238638">
        <ele>161</ele>
        <time>2021-10-28T07:26:31Z</time>
      </trkpt>
      <trkpt lat="47.61545" lon="1.9238441">
        <ele>161</ele>
        <time>2021-10-28T07:26:32Z</time>
      </trkpt>
      <trkpt lat="47.61545" lon="1.9238273">
        <ele>161</ele>
        <time>2021-10-28T07:26:33Z</time>
      </trkpt>
      <trkpt lat="47.61545" lon="1.9238104">
        <ele>162</ele>
        <time>2021-10-28T07:26:34Z</time>
      </trkpt>
      <trkpt lat="47.61545" lon="1.9238104">
        <ele>162</ele>
        <time>2021-10-28T07:26:35Z</time>
      </trkpt>
      <trkpt lat="47.61545" lon="1.9238104">
        <ele>162</ele>
        <time>2021-10-28T07:26:36Z</time>
      </trkpt>
      <trkpt lat="47.615448" lon="1.9237703">
        <ele>161</ele>
        <time>2021-10-28T07:26:37Z</time>
      </trkpt>
      <trkpt lat="47.615444" lon="1.9237454">
        <ele>162</ele>
        <time>2021-10-28T07:26:38Z</time>
      </trkpt>
      <trkpt lat="47.615444" lon="1.9237229">
        <ele>162</ele>
        <time>2021-10-28T07:26:39Z</time>
      </trkpt>
      <trkpt lat="47.61544" lon="1.9236991">
        <ele>162</ele>
        <time>2021-10-28T07:26:40Z</time>
      </trkpt>
      <trkpt lat="47.615437" lon="1.9236861">
        <ele>162</ele>
        <time>2021-10-28T07:26:41Z</time>
      </trkpt>
      <trkpt lat="47.615433" lon="1.9236695">
        <ele>162</ele>
        <time>2021-10-28T07:26:42Z</time>
      </trkpt>
      <trkpt lat="47.615433" lon="1.9236523">
        <ele>162</ele>
        <time>2021-10-28T07:26:43Z</time>
      </trkpt>
      <trkpt lat="47.61543" lon="1.9236327">
        <ele>163</ele>
        <time>2021-10-28T07:26:44Z</time>
      </trkpt>
      <trkpt lat="47.61543" lon="1.9236327">
        <ele>163</ele>
        <time>2021-10-28T07:26:45Z</time>
      </trkpt>
      <trkpt lat="47.61543" lon="1.9236327">
        <ele>163</ele>
        <time>2021-10-28T07:26:46Z</time>
      </trkpt>
      <trkpt lat="47.61542" lon="1.9235929">
        <ele>163</ele>
        <time>2021-10-28T07:26:47Z</time>
      </trkpt>
      <trkpt lat="47.615414" lon="1.9235791">
        <ele>162</ele>
        <time>2021-10-28T07:26:48Z</time>
      </trkpt>
      <trkpt lat="47.61541" lon="1.9235641">
        <ele>162</ele>
        <time>2021-10-28T07:26:49Z</time>
      </trkpt>
      <trkpt lat="47.615406" lon="1.9235455">
        <ele>162</ele>
        <time>2021-10-28T07:26:50Z</time>
      </trkpt>
      <trkpt lat="47.615406" lon="1.9235455">
        <ele>162</ele>
        <time>2021-10-28T07:26:51Z</time>
      </trkpt>
      <trkpt lat="47.615406" lon="1.9235455">
        <ele>162</ele>
        <time>2021-10-28T07:26:52Z</time>
      </trkpt>
      <trkpt lat="47.6154" lon="1.92351">
        <ele>162</ele>
        <time>2021-10-28T07:26:53Z</time>
      </trkpt>
      <trkpt lat="47.615395" lon="1.9234933">
        <ele>162</ele>
        <time>2021-10-28T07:26:54Z</time>
      </trkpt>
      <trkpt lat="47.61539" lon="1.9234749">
        <ele>162</ele>
        <time>2021-10-28T07:26:55Z</time>
      </trkpt>
      <trkpt lat="47.615387" lon="1.9234569">
        <ele>162</ele>
        <time>2021-10-28T07:26:56Z</time>
      </trkpt>
      <trkpt lat="47.615387" lon="1.9234569">
        <ele>162</ele>
        <time>2021-10-28T07:26:57Z</time>
      </trkpt>
      <trkpt lat="47.615387" lon="1.9234569">
        <ele>162</ele>
        <time>2021-10-28T07:26:58Z</time>
      </trkpt>
      <trkpt lat="47.615376" lon="1.9234146">
        <ele>162</ele>
        <time>2021-10-28T07:26:59Z</time>
      </trkpt>
      <trkpt lat="47.615376" lon="1.9233992">
        <ele>162</ele>
        <time>2021-10-28T07:27:00Z</time>
      </trkpt>
      <trkpt lat="47.61537" lon="1.9233866">
        <ele>162</ele>
        <time>2021-10-28T07:27:01Z</time>
      </trkpt>
      <trkpt lat="47.615368" lon="1.9233685">
        <ele>162</ele>
        <time>2021-10-28T07:27:02Z</time>
      </trkpt>
      <trkpt lat="47.615368" lon="1.9233685">
        <ele>162</ele>
        <time>2021-10-28T07:27:03Z</time>
      </trkpt>
      <trkpt lat="47.615368" lon="1.9233685">
        <ele>162</ele>
        <time>2021-10-28T07:27:04Z</time>
      </trkpt>
      <trkpt lat="47.61535" lon="1.923299">
        <ele>162</ele>
        <time>2021-10-28T07:27:05Z</time>
      </trkpt>
      <trkpt lat="47.61535" lon="1.923299">
        <ele>162</ele>
        <time>2021-10-28T07:27:05Z</time>
      </trkpt>
      <trkpt lat="47.615345" lon="1.9232857">
        <ele>162</ele>
        <time>2021-10-28T07:27:07Z</time>
      </trkpt>
      <trkpt lat="47.615345" lon="1.92327">
        <ele>162</ele>
        <time>2021-10-28T07:27:08Z</time>
      </trkpt>
      <trkpt lat="47.615345" lon="1.92327">
        <ele>162</ele>
        <time>2021-10-28T07:27:09Z</time>
      </trkpt>
      <trkpt lat="47.615345" lon="1.92327">
        <ele>162</ele>
        <time>2021-10-28T07:27:10Z</time>
      </trkpt>
      <trkpt lat="47.615334" lon="1.9232349">
        <ele>161</ele>
        <time>2021-10-28T07:27:11Z</time>
      </trkpt>
      <trkpt lat="47.615334" lon="1.9232197">
        <ele>161</ele>
        <time>2021-10-28T07:27:12Z</time>
      </trkpt>
      <trkpt lat="47.61533" lon="1.923203">
        <ele>161</ele>
        <time>2021-10-28T07:27:13Z</time>
      </trkpt>
      <trkpt lat="47.615326" lon="1.9231889">
        <ele>162</ele>
        <time>2021-10-28T07:27:14Z</time>
      </trkpt>
      <trkpt lat="47.615326" lon="1.9231889">
        <ele>162</ele>
        <time>2021-10-28T07:27:15Z</time>
      </trkpt>
      <trkpt lat="47.615322" lon="1.9231415">
        <ele>162</ele>
        <time>2021-10-28T07:27:16Z</time>
      </trkpt>
      <trkpt lat="47.615322" lon="1.9231415">
        <ele>162</ele>
        <time>2021-10-28T07:27:16Z</time>
      </trkpt>
      <trkpt lat="47.61532" lon="1.9231205">
        <ele>162</ele>
        <time>2021-10-28T07:27:18Z</time>
      </trkpt>
      <trkpt lat="47.615314" lon="1.923107">
        <ele>161</ele>
        <time>2021-10-28T07:27:19Z</time>
      </trkpt>
      <trkpt lat="47.615307" lon="1.9230782">
        <ele>161</ele>
        <time>2021-10-28T07:27:20Z</time>
      </trkpt>
      <trkpt lat="47.615303" lon="1.9230653">
        <ele>161</ele>
        <time>2021-10-28T07:27:21Z</time>
      </trkpt>
      <trkpt lat="47.615303" lon="1.9230653">
        <ele>161</ele>
        <time>2021-10-28T07:27:21Z</time>
      </trkpt>
      <trkpt lat="47.615303" lon="1.9230653">
        <ele>161</ele>
        <time>2021-10-28T07:27:23Z</time>
      </trkpt>
      <trkpt lat="47.615303" lon="1.9230653">
        <ele>161</ele>
        <time>2021-10-28T07:27:24Z</time>
      </trkpt>
      <trkpt lat="47.615295" lon="1.9230288">
        <ele>160</ele>
        <time>2021-10-28T07:27:25Z</time>
      </trkpt>
      <trkpt lat="47.615288" lon="1.9229938">
        <ele>160</ele>
        <time>2021-10-28T07:27:26Z</time>
      </trkpt>
      <trkpt lat="47.615284" lon="1.9229776">
        <ele>160</ele>
        <time>2021-10-28T07:27:27Z</time>
      </trkpt>
      <trkpt lat="47.61528" lon="1.9229608">
        <ele>159</ele>
        <time>2021-10-28T07:27:28Z</time>
      </trkpt>
      <trkpt lat="47.61528" lon="1.9229608">
        <ele>159</ele>
        <time>2021-10-28T07:27:29Z</time>
      </trkpt>
      <trkpt lat="47.61528" lon="1.9229608">
        <ele>159</ele>
        <time>2021-10-28T07:27:30Z</time>
      </trkpt>
      <trkpt lat="47.615276" lon="1.9229108">
        <ele>160</ele>
        <time>2021-10-28T07:27:31Z</time>
      </trkpt>
      <trkpt lat="47.61527" lon="1.9228872">
        <ele>160</ele>
        <time>2021-10-28T07:27:32Z</time>
      </trkpt>
      <trkpt lat="47.615265" lon="1.9228697">
        <ele>159</ele>
        <time>2021-10-28T07:27:33Z</time>
      </trkpt>
      <trkpt lat="47.61526" lon="1.9228534">
        <ele>159</ele>
        <time>2021-10-28T07:27:34Z</time>
      </trkpt>
      <trkpt lat="47.615257" lon="1.9228393">
        <ele>159</ele>
        <time>2021-10-28T07:27:35Z</time>
      </trkpt>
      <trkpt lat="47.615257" lon="1.9228227">
        <ele>159</ele>
        <time>2021-10-28T07:27:36Z</time>
      </trkpt>
      <trkpt lat="47.615253" lon="1.9228046">
        <ele>159</ele>
        <time>2021-10-28T07:27:37Z</time>
      </trkpt>
      <trkpt lat="47.615246" lon="1.9227835">
        <ele>159</ele>
        <time>2021-10-28T07:27:38Z</time>
      </trkpt>
      <trkpt lat="47.615242" lon="1.9227674">
        <ele>158</ele>
        <time>2021-10-28T07:27:39Z</time>
      </trkpt>
      <trkpt lat="47.615234" lon="1.9227448">
        <ele>158</ele>
        <time>2021-10-28T07:27:40Z</time>
      </trkpt>
      <trkpt lat="47.615227" lon="1.9227206">
        <ele>158</ele>
        <time>2021-10-28T07:27:41Z</time>
      </trkpt>
      <trkpt lat="47.61522" lon="1.9227016">
        <ele>158</ele>
        <time>2021-10-28T07:27:42Z</time>
      </trkpt>
      <trkpt lat="47.61521" lon="1.922684">
        <ele>158</ele>
        <time>2021-10-28T07:27:43Z</time>
      </trkpt>
      <trkpt lat="47.615208" lon="1.9226671">
        <ele>158</ele>
        <time>2021-10-28T07:27:44Z</time>
      </trkpt>
      <trkpt lat="47.615204" lon="1.9226513">
        <ele>157</ele>
        <time>2021-10-28T07:27:45Z</time>
      </trkpt>
      <trkpt lat="47.6152" lon="1.9226344">
        <ele>157</ele>
        <time>2021-10-28T07:27:46Z</time>
      </trkpt>
      <trkpt lat="47.6152" lon="1.9226136">
        <ele>157</ele>
        <time>2021-10-28T07:27:47Z</time>
      </trkpt>
      <trkpt lat="47.615192" lon="1.9225948">
        <ele>156</ele>
        <time>2021-10-28T07:27:48Z</time>
      </trkpt>
      <trkpt lat="47.61519" lon="1.9225732">
        <ele>156</ele>
        <time>2021-10-28T07:27:49Z</time>
      </trkpt>
      <trkpt lat="47.61518" lon="1.9225563">
        <ele>155</ele>
        <time>2021-10-28T07:27:50Z</time>
      </trkpt>
      <trkpt lat="47.61518" lon="1.9225563">
        <ele>155</ele>
        <time>2021-10-28T07:27:50Z</time>
      </trkpt>
      <trkpt lat="47.61517" lon="1.9225401">
        <ele>155</ele>
        <time>2021-10-28T07:27:52Z</time>
      </trkpt>
      <trkpt lat="47.615166" lon="1.9225194">
        <ele>155</ele>
        <time>2021-10-28T07:27:53Z</time>
      </trkpt>
      <trkpt lat="47.615166" lon="1.9225194">
        <ele>155</ele>
        <time>2021-10-28T07:27:54Z</time>
      </trkpt>
      <trkpt lat="47.615147" lon="1.9224726">
        <ele>155</ele>
        <time>2021-10-28T07:27:55Z</time>
      </trkpt>
      <trkpt lat="47.61514" lon="1.9224523">
        <ele>154</ele>
        <time>2021-10-28T07:27:56Z</time>
      </trkpt>
      <trkpt lat="47.61513" lon="1.9224313">
        <ele>155</ele>
        <time>2021-10-28T07:27:57Z</time>
      </trkpt>
      <trkpt lat="47.615128" lon="1.9224187">
        <ele>155</ele>
        <time>2021-10-28T07:27:58Z</time>
      </trkpt>
      <trkpt lat="47.615124" lon="1.9224036">
        <ele>155</ele>
        <time>2021-10-28T07:27:59Z</time>
      </trkpt>
      <trkpt lat="47.615116" lon="1.9223927">
        <ele>155</ele>
        <time>2021-10-28T07:28:00Z</time>
      </trkpt>
      <trkpt lat="47.615112" lon="1.9223787">
        <ele>155</ele>
        <time>2021-10-28T07:28:01Z</time>
      </trkpt>
      <trkpt lat="47.61511" lon="1.9223624">
        <ele>155</ele>
        <time>2021-10-28T07:28:02Z</time>
      </trkpt>
      <trkpt lat="47.6151" lon="1.9223424">
        <ele>155</ele>
        <time>2021-10-28T07:28:03Z</time>
      </trkpt>
      <trkpt lat="47.61509" lon="1.9223229">
        <ele>156</ele>
        <time>2021-10-28T07:28:04Z</time>
      </trkpt>
      <trkpt lat="47.615086" lon="1.9223074">
        <ele>156</ele>
        <time>2021-10-28T07:28:05Z</time>
      </trkpt>
      <trkpt lat="47.615086" lon="1.9222913">
        <ele>156</ele>
        <time>2021-10-28T07:28:06Z</time>
      </trkpt>
      <trkpt lat="47.615086" lon="1.9222825">
        <ele>156</ele>
        <time>2021-10-28T07:28:07Z</time>
      </trkpt>
      <trkpt lat="47.615086" lon="1.9222825">
        <ele>156</ele>
        <time>2021-10-28T07:28:08Z</time>
      </trkpt>
      <trkpt lat="47.615086" lon="1.9222825">
        <ele>156</ele>
        <time>2021-10-28T07:28:09Z</time>
      </trkpt>
      <trkpt lat="47.615074" lon="1.9222502">
        <ele>156</ele>
        <time>2021-10-28T07:28:10Z</time>
      </trkpt>
      <trkpt lat="47.61507" lon="1.9222369">
        <ele>156</ele>
        <time>2021-10-28T07:28:11Z</time>
      </trkpt>
      <trkpt lat="47.615067" lon="1.922222">
        <ele>156</ele>
        <time>2021-10-28T07:28:12Z</time>
      </trkpt>
      <trkpt lat="47.615067" lon="1.9222038">
        <ele>156</ele>
        <time>2021-10-28T07:28:13Z</time>
      </trkpt>
      <trkpt lat="47.615067" lon="1.9222038">
        <ele>156</ele>
        <time>2021-10-28T07:28:14Z</time>
      </trkpt>
      <trkpt lat="47.615067" lon="1.9222038">
        <ele>156</ele>
        <time>2021-10-28T07:28:15Z</time>
      </trkpt>
      <trkpt lat="47.615063" lon="1.9221592">
        <ele>155</ele>
        <time>2021-10-28T07:28:16Z</time>
      </trkpt>
      <trkpt lat="47.61506" lon="1.9221423">
        <ele>155</ele>
        <time>2021-10-28T07:28:17Z</time>
      </trkpt>
      <trkpt lat="47.61506" lon="1.922122">
        <ele>155</ele>
        <time>2021-10-28T07:28:18Z</time>
      </trkpt>
      <trkpt lat="47.61506" lon="1.9221056">
        <ele>155</ele>
        <time>2021-10-28T07:28:19Z</time>
      </trkpt>
      <trkpt lat="47.61506" lon="1.9221056">
        <ele>155</ele>
        <time>2021-10-28T07:28:20Z</time>
      </trkpt>
      <trkpt lat="47.61506" lon="1.9221056">
        <ele>155</ele>
        <time>2021-10-28T07:28:21Z</time>
      </trkpt>
      <trkpt lat="47.615055" lon="1.9220604">
        <ele>154</ele>
        <time>2021-10-28T07:28:22Z</time>
      </trkpt>
      <trkpt lat="47.61505" lon="1.9220428">
        <ele>153</ele>
        <time>2021-10-28T07:28:23Z</time>
      </trkpt>
      <trkpt lat="47.615047" lon="1.9220237">
        <ele>153</ele>
        <time>2021-10-28T07:28:24Z</time>
      </trkpt>
      <trkpt lat="47.615047" lon="1.9220048">
        <ele>152</ele>
        <time>2021-10-28T07:28:25Z</time>
      </trkpt>
      <trkpt lat="47.615047" lon="1.9219842">
        <ele>152</ele>
        <time>2021-10-28T07:28:26Z</time>
      </trkpt>
      <trkpt lat="47.615047" lon="1.9219638">
        <ele>152</ele>
        <time>2021-10-28T07:28:27Z</time>
      </trkpt>
      <trkpt lat="47.615047" lon="1.9219469">
        <ele>152</ele>
        <time>2021-10-28T07:28:28Z</time>
      </trkpt>
      <trkpt lat="47.615047" lon="1.9219321">
        <ele>152</ele>
        <time>2021-10-28T07:28:29Z</time>
      </trkpt>
      <trkpt lat="47.615047" lon="1.9219172">
        <ele>152</ele>
        <time>2021-10-28T07:28:30Z</time>
      </trkpt>
      <trkpt lat="47.615047" lon="1.9219172">
        <ele>152</ele>
        <time>2021-10-28T07:28:31Z</time>
      </trkpt>
      <trkpt lat="47.615047" lon="1.9219172">
        <ele>152</ele>
        <time>2021-10-28T07:28:32Z</time>
      </trkpt>
      <trkpt lat="47.61505" lon="1.9218682">
        <ele>151</ele>
        <time>2021-10-28T07:28:33Z</time>
      </trkpt>
      <trkpt lat="47.61505" lon="1.9218526">
        <ele>151</ele>
        <time>2021-10-28T07:28:34Z</time>
      </trkpt>
      <trkpt lat="47.615047" lon="1.9218358">
        <ele>151</ele>
        <time>2021-10-28T07:28:35Z</time>
      </trkpt>
      <trkpt lat="47.615044" lon="1.9218202">
        <ele>152</ele>
        <time>2021-10-28T07:28:36Z</time>
      </trkpt>
      <trkpt lat="47.615036" lon="1.9218042">
        <ele>152</ele>
        <time>2021-10-28T07:28:37Z</time>
      </trkpt>
      <trkpt lat="47.615036" lon="1.9218042">
        <ele>152</ele>
        <time>2021-10-28T07:28:38Z</time>
      </trkpt>
      <trkpt lat="47.615036" lon="1.9218042">
        <ele>152</ele>
        <time>2021-10-28T07:28:39Z</time>
      </trkpt>
      <trkpt lat="47.615036" lon="1.921762">
        <ele>153</ele>
        <time>2021-10-28T07:28:40Z</time>
      </trkpt>
      <trkpt lat="47.61504" lon="1.9217422">
        <ele>153</ele>
        <time>2021-10-28T07:28:41Z</time>
      </trkpt>
      <trkpt lat="47.615044" lon="1.9217252">
        <ele>153</ele>
        <time>2021-10-28T07:28:42Z</time>
      </trkpt>
      <trkpt lat="47.615044" lon="1.9217062">
        <ele>153</ele>
        <time>2021-10-28T07:28:43Z</time>
      </trkpt>
      <trkpt lat="47.615044" lon="1.9216787">
        <ele>153</ele>
        <time>2021-10-28T07:28:44Z</time>
      </trkpt>
      <trkpt lat="47.615044" lon="1.921657">
        <ele>153</ele>
        <time>2021-10-28T07:28:45Z</time>
      </trkpt>
      <trkpt lat="47.61504" lon="1.9216379">
        <ele>153</ele>
        <time>2021-10-28T07:28:46Z</time>
      </trkpt>
      <trkpt lat="47.61504" lon="1.9216182">
        <ele>153</ele>
        <time>2021-10-28T07:28:47Z</time>
      </trkpt>
      <trkpt lat="47.61504" lon="1.9216036">
        <ele>154</ele>
        <time>2021-10-28T07:28:48Z</time>
      </trkpt>
      <trkpt lat="47.615036" lon="1.9215815">
        <ele>154</ele>
        <time>2021-10-28T07:28:49Z</time>
      </trkpt>
      <trkpt lat="47.615036" lon="1.9215626">
        <ele>154</ele>
        <time>2021-10-28T07:28:50Z</time>
      </trkpt>
      <trkpt lat="47.61504" lon="1.9215482">
        <ele>155</ele>
        <time>2021-10-28T07:28:51Z</time>
      </trkpt>
      <trkpt lat="47.61504" lon="1.9215482">
        <ele>155</ele>
        <time>2021-10-28T07:28:52Z</time>
      </trkpt>
      <trkpt lat="47.615044" lon="1.921518">
        <ele>155</ele>
        <time>2021-10-28T07:28:53Z</time>
      </trkpt>
      <trkpt lat="47.615044" lon="1.9214994">
        <ele>155</ele>
        <time>2021-10-28T07:28:54Z</time>
      </trkpt>
      <trkpt lat="47.61504" lon="1.9214855">
        <ele>155</ele>
        <time>2021-10-28T07:28:55Z</time>
      </trkpt>
      <trkpt lat="47.61504" lon="1.9214681">
        <ele>154</ele>
        <time>2021-10-28T07:28:56Z</time>
      </trkpt>
      <trkpt lat="47.61504" lon="1.9214681">
        <ele>154</ele>
        <time>2021-10-28T07:28:57Z</time>
      </trkpt>
      <trkpt lat="47.61504" lon="1.9214681">
        <ele>154</ele>
        <time>2021-10-28T07:28:58Z</time>
      </trkpt>
      <trkpt lat="47.61504" lon="1.9214195">
        <ele>153</ele>
        <time>2021-10-28T07:28:59Z</time>
      </trkpt>
      <trkpt lat="47.61504" lon="1.9213974">
        <ele>153</ele>
        <time>2021-10-28T07:29:00Z</time>
      </trkpt>
      <trkpt lat="47.61504" lon="1.9213805">
        <ele>153</ele>
        <time>2021-10-28T07:29:01Z</time>
      </trkpt>
      <trkpt lat="47.615044" lon="1.9213641">
        <ele>153</ele>
        <time>2021-10-28T07:29:02Z</time>
      </trkpt>
      <trkpt lat="47.615044" lon="1.9213641">
        <ele>153</ele>
        <time>2021-10-28T07:29:03Z</time>
      </trkpt>
      <trkpt lat="47.615044" lon="1.9213641">
        <ele>153</ele>
        <time>2021-10-28T07:29:04Z</time>
      </trkpt>
      <trkpt lat="47.615044" lon="1.9213222">
        <ele>154</ele>
        <time>2021-10-28T07:29:05Z</time>
      </trkpt>
      <trkpt lat="47.615044" lon="1.9213073">
        <ele>154</ele>
        <time>2021-10-28T07:29:06Z</time>
      </trkpt>
      <trkpt lat="47.615047" lon="1.9212927">
        <ele>153</ele>
        <time>2021-10-28T07:29:07Z</time>
      </trkpt>
      <trkpt lat="47.615047" lon="1.9212801">
        <ele>154</ele>
        <time>2021-10-28T07:29:08Z</time>
      </trkpt>
      <trkpt lat="47.615047" lon="1.9212801">
        <ele>154</ele>
        <time>2021-10-28T07:29:09Z</time>
      </trkpt>
      <trkpt lat="47.615047" lon="1.9212801">
        <ele>154</ele>
        <time>2021-10-28T07:29:10Z</time>
      </trkpt>
      <trkpt lat="47.61505" lon="1.9212388">
        <ele>154</ele>
        <time>2021-10-28T07:29:11Z</time>
      </trkpt>
      <trkpt lat="47.615047" lon="1.9212259">
        <ele>154</ele>
        <time>2021-10-28T07:29:12Z</time>
      </trkpt>
      <trkpt lat="47.615044" lon="1.9212162">
        <ele>154</ele>
        <time>2021-10-28T07:29:13Z</time>
      </trkpt>
      <trkpt lat="47.61504" lon="1.9212022">
        <ele>154</ele>
        <time>2021-10-28T07:29:14Z</time>
      </trkpt>
      <trkpt lat="47.615044" lon="1.9211892">
        <ele>154</ele>
        <time>2021-10-28T07:29:15Z</time>
      </trkpt>
      <trkpt lat="47.615036" lon="1.9211735">
        <ele>153</ele>
        <time>2021-10-28T07:29:16Z</time>
      </trkpt>
      <trkpt lat="47.615036" lon="1.9211735">
        <ele>153</ele>
        <time>2021-10-28T07:29:17Z</time>
      </trkpt>
      <trkpt lat="47.615036" lon="1.9211735">
        <ele>153</ele>
        <time>2021-10-28T07:29:18Z</time>
      </trkpt>
      <trkpt lat="47.615025" lon="1.9211293">
        <ele>153</ele>
        <time>2021-10-28T07:29:19Z</time>
      </trkpt>
      <trkpt lat="47.615025" lon="1.9211085">
        <ele>153</ele>
        <time>2021-10-28T07:29:20Z</time>
      </trkpt>
      <trkpt lat="47.61502" lon="1.9210911">
        <ele>152</ele>
        <time>2021-10-28T07:29:21Z</time>
      </trkpt>
      <trkpt lat="47.61502" lon="1.9210786">
        <ele>152</ele>
        <time>2021-10-28T07:29:22Z</time>
      </trkpt>
      <trkpt lat="47.615017" lon="1.9210573">
        <ele>153</ele>
        <time>2021-10-28T07:29:23Z</time>
      </trkpt>
      <trkpt lat="47.615017" lon="1.9210376">
        <ele>153</ele>
        <time>2021-10-28T07:29:24Z</time>
      </trkpt>
      <trkpt lat="47.615017" lon="1.9210203">
        <ele>153</ele>
        <time>2021-10-28T07:29:25Z</time>
      </trkpt>
      <trkpt lat="47.615017" lon="1.9210024">
        <ele>153</ele>
        <time>2021-10-28T07:29:26Z</time>
      </trkpt>
      <trkpt lat="47.615013" lon="1.9209843">
        <ele>153</ele>
        <time>2021-10-28T07:29:27Z</time>
      </trkpt>
      <trkpt lat="47.615013" lon="1.9209708">
        <ele>154</ele>
        <time>2021-10-28T07:29:28Z</time>
      </trkpt>
      <trkpt lat="47.61501" lon="1.9209497">
        <ele>154</ele>
        <time>2021-10-28T07:29:29Z</time>
      </trkpt>
      <trkpt lat="47.61501" lon="1.9209497">
        <ele>154</ele>
        <time>2021-10-28T07:29:30Z</time>
      </trkpt>
      <trkpt lat="47.61501" lon="1.9209497">
        <ele>154</ele>
        <time>2021-10-28T07:29:31Z</time>
      </trkpt>
      <trkpt lat="47.61501" lon="1.9209027">
        <ele>154</ele>
        <time>2021-10-28T07:29:32Z</time>
      </trkpt>
      <trkpt lat="47.61501" lon="1.9208932">
        <ele>154</ele>
        <time>2021-10-28T07:29:33Z</time>
      </trkpt>
      <trkpt lat="47.615005" lon="1.9208835">
        <ele>154</ele>
        <time>2021-10-28T07:29:34Z</time>
      </trkpt>
      <trkpt lat="47.615005" lon="1.9208645">
        <ele>154</ele>
        <time>2021-10-28T07:29:35Z</time>
      </trkpt>
      <trkpt lat="47.61501" lon="1.9208488">
        <ele>154</ele>
        <time>2021-10-28T07:29:36Z</time>
      </trkpt>
      <trkpt lat="47.61501" lon="1.9208323">
        <ele>155</ele>
        <time>2021-10-28T07:29:37Z</time>
      </trkpt>
      <trkpt lat="47.61501" lon="1.9208323">
        <ele>155</ele>
        <time>2021-10-28T07:29:38Z</time>
      </trkpt>
      <trkpt lat="47.61501" lon="1.9208323">
        <ele>155</ele>
        <time>2021-10-28T07:29:39Z</time>
      </trkpt>
      <trkpt lat="47.615" lon="1.9207815">
        <ele>154</ele>
        <time>2021-10-28T07:29:40Z</time>
      </trkpt>
      <trkpt lat="47.615" lon="1.9207591">
        <ele>154</ele>
        <time>2021-10-28T07:29:41Z</time>
      </trkpt>
      <trkpt lat="47.615" lon="1.9207352">
        <ele>154</ele>
        <time>2021-10-28T07:29:42Z</time>
      </trkpt>
      <trkpt lat="47.614998" lon="1.9207104">
        <ele>155</ele>
        <time>2021-10-28T07:29:43Z</time>
      </trkpt>
      <trkpt lat="47.614994" lon="1.9206885">
        <ele>155</ele>
        <time>2021-10-28T07:29:44Z</time>
      </trkpt>
      <trkpt lat="47.61499" lon="1.92067">
        <ele>155</ele>
        <time>2021-10-28T07:29:45Z</time>
      </trkpt>
      <trkpt lat="47.614986" lon="1.920653">
        <ele>154</ele>
        <time>2021-10-28T07:29:46Z</time>
      </trkpt>
      <trkpt lat="47.614983" lon="1.9206403">
        <ele>154</ele>
        <time>2021-10-28T07:29:47Z</time>
      </trkpt>
      <trkpt lat="47.61498" lon="1.9206231">
        <ele>154</ele>
        <time>2021-10-28T07:29:48Z</time>
      </trkpt>
      <trkpt lat="47.614975" lon="1.9206051">
        <ele>154</ele>
        <time>2021-10-28T07:29:49Z</time>
      </trkpt>
      <trkpt lat="47.61497" lon="1.920586">
        <ele>155</ele>
        <time>2021-10-28T07:29:50Z</time>
      </trkpt>
      <trkpt lat="47.61497" lon="1.920564">
        <ele>155</ele>
        <time>2021-10-28T07:29:51Z</time>
      </trkpt>
      <trkpt lat="47.614967" lon="1.9205441">
        <ele>155</ele>
        <time>2021-10-28T07:29:52Z</time>
      </trkpt>
      <trkpt lat="47.614967" lon="1.9205278">
        <ele>155</ele>
        <time>2021-10-28T07:29:53Z</time>
      </trkpt>
      <trkpt lat="47.614964" lon="1.920509">
        <ele>155</ele>
        <time>2021-10-28T07:29:54Z</time>
      </trkpt>
      <trkpt lat="47.614964" lon="1.9204947">
        <ele>155</ele>
        <time>2021-10-28T07:29:55Z</time>
      </trkpt>
      <trkpt lat="47.614964" lon="1.9204947">
        <ele>155</ele>
        <time>2021-10-28T07:29:56Z</time>
      </trkpt>
      <trkpt lat="47.614964" lon="1.9204607">
        <ele>155</ele>
        <time>2021-10-28T07:29:57Z</time>
      </trkpt>
      <trkpt lat="47.61496" lon="1.9204371">
        <ele>156</ele>
        <time>2021-10-28T07:29:58Z</time>
      </trkpt>
      <trkpt lat="47.614956" lon="1.9204184">
        <ele>156</ele>
        <time>2021-10-28T07:29:59Z</time>
      </trkpt>
      <trkpt lat="47.614952" lon="1.9204006">
        <ele>156</ele>
        <time>2021-10-28T07:30:00Z</time>
      </trkpt>
      <trkpt lat="47.614952" lon="1.9203807">
        <ele>156</ele>
        <time>2021-10-28T07:30:01Z</time>
      </trkpt>
      <trkpt lat="47.614952" lon="1.9203575">
        <ele>156</ele>
        <time>2021-10-28T07:30:02Z</time>
      </trkpt>
      <trkpt lat="47.614952" lon="1.9203387">
        <ele>157</ele>
        <time>2021-10-28T07:30:03Z</time>
      </trkpt>
      <trkpt lat="47.614952" lon="1.9203227">
        <ele>157</ele>
        <time>2021-10-28T07:30:04Z</time>
      </trkpt>
      <trkpt lat="47.61495" lon="1.9203074">
        <ele>158</ele>
        <time>2021-10-28T07:30:05Z</time>
      </trkpt>
      <trkpt lat="47.614944" lon="1.9202895">
        <ele>158</ele>
        <time>2021-10-28T07:30:06Z</time>
      </trkpt>
      <trkpt lat="47.61494" lon="1.9202713">
        <ele>158</ele>
        <time>2021-10-28T07:30:07Z</time>
      </trkpt>
      <trkpt lat="47.614937" lon="1.9202571">
        <ele>159</ele>
        <time>2021-10-28T07:30:08Z</time>
      </trkpt>
      <trkpt lat="47.614937" lon="1.920241">
        <ele>160</ele>
        <time>2021-10-28T07:30:09Z</time>
      </trkpt>
      <trkpt lat="47.61493" lon="1.9202256">
        <ele>160</ele>
        <time>2021-10-28T07:30:10Z</time>
      </trkpt>
      <trkpt lat="47.614925" lon="1.9202067">
        <ele>161</ele>
        <time>2021-10-28T07:30:11Z</time>
      </trkpt>
      <trkpt lat="47.61492" lon="1.9201897">
        <ele>161</ele>
        <time>2021-10-28T07:30:12Z</time>
      </trkpt>
      <trkpt lat="47.61492" lon="1.9201703">
        <ele>161</ele>
        <time>2021-10-28T07:30:13Z</time>
      </trkpt>
      <trkpt lat="47.61492" lon="1.920151">
        <ele>161</ele>
        <time>2021-10-28T07:30:14Z</time>
      </trkpt>
      <trkpt lat="47.614918" lon="1.9201324">
        <ele>161</ele>
        <time>2021-10-28T07:30:15Z</time>
      </trkpt>
      <trkpt lat="47.614918" lon="1.920116">
        <ele>161</ele>
        <time>2021-10-28T07:30:16Z</time>
      </trkpt>
      <trkpt lat="47.614918" lon="1.9200968">
        <ele>161</ele>
        <time>2021-10-28T07:30:17Z</time>
      </trkpt>
      <trkpt lat="47.614918" lon="1.9200757">
        <ele>161</ele>
        <time>2021-10-28T07:30:18Z</time>
      </trkpt>
      <trkpt lat="47.614914" lon="1.9200584">
        <ele>162</ele>
        <time>2021-10-28T07:30:19Z</time>
      </trkpt>
      <trkpt lat="47.614918" lon="1.9200414">
        <ele>162</ele>
        <time>2021-10-28T07:30:20Z</time>
      </trkpt>
      <trkpt lat="47.614918" lon="1.9200218">
        <ele>162</ele>
        <time>2021-10-28T07:30:21Z</time>
      </trkpt>
      <trkpt lat="47.614918" lon="1.9200062">
        <ele>163</ele>
        <time>2021-10-28T07:30:22Z</time>
      </trkpt>
      <trkpt lat="47.614914" lon="1.9199891">
        <ele>163</ele>
        <time>2021-10-28T07:30:23Z</time>
      </trkpt>
      <trkpt lat="47.614914" lon="1.919974">
        <ele>164</ele>
        <time>2021-10-28T07:30:24Z</time>
      </trkpt>
      <trkpt lat="47.614914" lon="1.919959">
        <ele>164</ele>
        <time>2021-10-28T07:30:25Z</time>
      </trkpt>
      <trkpt lat="47.614914" lon="1.9199458">
        <ele>164</ele>
        <time>2021-10-28T07:30:26Z</time>
      </trkpt>
      <trkpt lat="47.614914" lon="1.9199276">
        <ele>164</ele>
        <time>2021-10-28T07:30:27Z</time>
      </trkpt>
      <trkpt lat="47.614918" lon="1.9199132">
        <ele>164</ele>
        <time>2021-10-28T07:30:28Z</time>
      </trkpt>
      <trkpt lat="47.614914" lon="1.9198989">
        <ele>164</ele>
        <time>2021-10-28T07:30:29Z</time>
      </trkpt>
      <trkpt lat="47.614914" lon="1.9198855">
        <ele>165</ele>
        <time>2021-10-28T07:30:30Z</time>
      </trkpt>
      <trkpt lat="47.614914" lon="1.9198738">
        <ele>165</ele>
        <time>2021-10-28T07:30:31Z</time>
      </trkpt>
      <trkpt lat="47.614914" lon="1.9198585">
        <ele>166</ele>
        <time>2021-10-28T07:30:32Z</time>
      </trkpt>
      <trkpt lat="47.614914" lon="1.9198376">
        <ele>166</ele>
        <time>2021-10-28T07:30:33Z</time>
      </trkpt>
      <trkpt lat="47.614914" lon="1.9198191">
        <ele>166</ele>
        <time>2021-10-28T07:30:34Z</time>
      </trkpt>
      <trkpt lat="47.61491" lon="1.919804">
        <ele>167</ele>
        <time>2021-10-28T07:30:35Z</time>
      </trkpt>
      <trkpt lat="47.614906" lon="1.9197848">
        <ele>167</ele>
        <time>2021-10-28T07:30:36Z</time>
      </trkpt>
      <trkpt lat="47.614902" lon="1.9197612">
        <ele>168</ele>
        <time>2021-10-28T07:30:37Z</time>
      </trkpt>
      <trkpt lat="47.6149" lon="1.9197385">
        <ele>168</ele>
        <time>2021-10-28T07:30:38Z</time>
      </trkpt>
      <trkpt lat="47.6149" lon="1.9197142">
        <ele>168</ele>
        <time>2021-10-28T07:30:39Z</time>
      </trkpt>
      <trkpt lat="47.6149" lon="1.9196907">
        <ele>168</ele>
        <time>2021-10-28T07:30:40Z</time>
      </trkpt>
      <trkpt lat="47.6149" lon="1.9196669">
        <ele>168</ele>
        <time>2021-10-28T07:30:41Z</time>
      </trkpt>
      <trkpt lat="47.6149" lon="1.9196436">
        <ele>168</ele>
        <time>2021-10-28T07:30:42Z</time>
      </trkpt>
      <trkpt lat="47.6149" lon="1.9196268">
        <ele>168</ele>
        <time>2021-10-28T07:30:43Z</time>
      </trkpt>
      <trkpt lat="47.614895" lon="1.9196129">
        <ele>167</ele>
        <time>2021-10-28T07:30:44Z</time>
      </trkpt>
      <trkpt lat="47.614887" lon="1.9195942">
        <ele>167</ele>
        <time>2021-10-28T07:30:45Z</time>
      </trkpt>
      <trkpt lat="47.614887" lon="1.9195766">
        <ele>167</ele>
        <time>2021-10-28T07:30:46Z</time>
      </trkpt>
      <trkpt lat="47.614895" lon="1.9195642">
        <ele>167</ele>
        <time>2021-10-28T07:30:47Z</time>
      </trkpt>
      <trkpt lat="47.6149" lon="1.9195504">
        <ele>167</ele>
        <time>2021-10-28T07:30:48Z</time>
      </trkpt>
      <trkpt lat="47.614902" lon="1.9195389">
        <ele>168</ele>
        <time>2021-10-28T07:30:49Z</time>
      </trkpt>
      <trkpt lat="47.614906" lon="1.919529">
        <ele>168</ele>
        <time>2021-10-28T07:30:50Z</time>
      </trkpt>
      <trkpt lat="47.61491" lon="1.9195188">
        <ele>168</ele>
        <time>2021-10-28T07:30:51Z</time>
      </trkpt>
      <trkpt lat="47.614914" lon="1.9195042">
        <ele>169</ele>
        <time>2021-10-28T07:30:52Z</time>
      </trkpt>
      <trkpt lat="47.614914" lon="1.9195042">
        <ele>169</ele>
        <time>2021-10-28T07:30:53Z</time>
      </trkpt>
      <trkpt lat="47.614914" lon="1.9195042">
        <ele>169</ele>
        <time>2021-10-28T07:30:54Z</time>
      </trkpt>
      <trkpt lat="47.61493" lon="1.9194692">
        <ele>169</ele>
        <time>2021-10-28T07:30:55Z</time>
      </trkpt>
      <trkpt lat="47.61493" lon="1.9194607">
        <ele>169</ele>
        <time>2021-10-28T07:30:56Z</time>
      </trkpt>
      <trkpt lat="47.614933" lon="1.919448">
        <ele>169</ele>
        <time>2021-10-28T07:30:57Z</time>
      </trkpt>
      <trkpt lat="47.614933" lon="1.9194326">
        <ele>169</ele>
        <time>2021-10-28T07:30:58Z</time>
      </trkpt>
      <trkpt lat="47.614933" lon="1.9194326">
        <ele>169</ele>
        <time>2021-10-28T07:30:59Z</time>
      </trkpt>
      <trkpt lat="47.614933" lon="1.9194326">
        <ele>169</ele>
        <time>2021-10-28T07:31:00Z</time>
      </trkpt>
      <trkpt lat="47.61494" lon="1.9193761">
        <ele>168</ele>
        <time>2021-10-28T07:31:01Z</time>
      </trkpt>
      <trkpt lat="47.61494" lon="1.9193522">
        <ele>167</ele>
        <time>2021-10-28T07:31:02Z</time>
      </trkpt>
      <trkpt lat="47.614944" lon="1.9193377">
        <ele>166</ele>
        <time>2021-10-28T07:31:03Z</time>
      </trkpt>
      <trkpt lat="47.614944" lon="1.9193195">
        <ele>166</ele>
        <time>2021-10-28T07:31:04Z</time>
      </trkpt>
      <trkpt lat="47.614944" lon="1.9193195">
        <ele>166</ele>
        <time>2021-10-28T07:31:05Z</time>
      </trkpt>
      <trkpt lat="47.614944" lon="1.9193195">
        <ele>166</ele>
        <time>2021-10-28T07:31:06Z</time>
      </trkpt>
      <trkpt lat="47.614952" lon="1.9192791">
        <ele>166</ele>
        <time>2021-10-28T07:31:07Z</time>
      </trkpt>
      <trkpt lat="47.614952" lon="1.9192665">
        <ele>166</ele>
        <time>2021-10-28T07:31:08Z</time>
      </trkpt>
      <trkpt lat="47.61495" lon="1.9192457">
        <ele>166</ele>
        <time>2021-10-28T07:31:09Z</time>
      </trkpt>
      <trkpt lat="47.61495" lon="1.919237">
        <ele>165</ele>
        <time>2021-10-28T07:31:10Z</time>
      </trkpt>
      <trkpt lat="47.61495" lon="1.9192238">
        <ele>165</ele>
        <time>2021-10-28T07:31:11Z</time>
      </trkpt>
      <trkpt lat="47.61495" lon="1.9192096">
        <ele>165</ele>
        <time>2021-10-28T07:31:12Z</time>
      </trkpt>
      <trkpt lat="47.61495" lon="1.9191889">
        <ele>165</ele>
        <time>2021-10-28T07:31:13Z</time>
      </trkpt>
      <trkpt lat="47.61495" lon="1.9191668">
        <ele>165</ele>
        <time>2021-10-28T07:31:14Z</time>
      </trkpt>
      <trkpt lat="47.614944" lon="1.9191475">
        <ele>164</ele>
        <time>2021-10-28T07:31:15Z</time>
      </trkpt>
      <trkpt lat="47.614944" lon="1.9191332">
        <ele>164</ele>
        <time>2021-10-28T07:31:16Z</time>
      </trkpt>
      <trkpt lat="47.61495" lon="1.9191226">
        <ele>164</ele>
        <time>2021-10-28T07:31:17Z</time>
      </trkpt>
      <trkpt lat="47.61496" lon="1.9191105">
        <ele>164</ele>
        <time>2021-10-28T07:31:18Z</time>
      </trkpt>
      <trkpt lat="47.614964" lon="1.9191062">
        <ele>165</ele>
        <time>2021-10-28T07:31:19Z</time>
      </trkpt>
      <trkpt lat="47.61496" lon="1.9191042">
        <ele>164</ele>
        <time>2021-10-28T07:31:20Z</time>
      </trkpt>
      <trkpt lat="47.614952" lon="1.9191009">
        <ele>164</ele>
        <time>2021-10-28T07:31:21Z</time>
      </trkpt>
      <trkpt lat="47.61495" lon="1.9190922">
        <ele>164</ele>
        <time>2021-10-28T07:31:22Z</time>
      </trkpt>
      <trkpt lat="47.61495" lon="1.9190954">
        <ele>166</ele>
        <time>2021-10-28T07:31:23Z</time>
      </trkpt>
      <trkpt lat="47.61495" lon="1.9190954">
        <ele>166</ele>
        <time>2021-10-28T07:31:24Z</time>
      </trkpt>
      <trkpt lat="47.61495" lon="1.9190954">
        <ele>166</ele>
        <time>2021-10-28T07:31:24Z</time>
      </trkpt>
    </trkseg>
    <trkseg>
      <trkpt lat="47.61495" lon="1.9190954">
        <ele>166</ele>
        <time>2021-10-28T07:31:24Z</time>
      </trkpt>
      <trkpt lat="47.61501" lon="1.9189094">
        <ele>176</ele>
        <time>2021-10-28T07:31:59Z</time>
      </trkpt>
      <trkpt lat="47.615013" lon="1.9189048">
        <ele>176</ele>
        <time>2021-10-28T07:32:00Z</time>
      </trkpt>
      <trkpt lat="47.615013" lon="1.9189048">
        <ele>176</ele>
        <time>2021-10-28T07:32:01Z</time>
      </trkpt>
      <trkpt lat="47.615013" lon="1.9189048">
        <ele>176</ele>
        <time>2021-10-28T07:32:02Z</time>
      </trkpt>
      <trkpt lat="47.615032" lon="1.9188788">
        <ele>177</ele>
        <time>2021-10-28T07:32:03Z</time>
      </trkpt>
      <trkpt lat="47.615044" lon="1.9188628">
        <ele>177</ele>
        <time>2021-10-28T07:32:04Z</time>
      </trkpt>
      <trkpt lat="47.615047" lon="1.9188497">
        <ele>177</ele>
        <time>2021-10-28T07:32:05Z</time>
      </trkpt>
      <trkpt lat="47.61506" lon="1.9188379">
        <ele>177</ele>
        <time>2021-10-28T07:32:06Z</time>
      </trkpt>
      <trkpt lat="47.615067" lon="1.9188265">
        <ele>177</ele>
        <time>2021-10-28T07:32:07Z</time>
      </trkpt>
      <trkpt lat="47.615078" lon="1.9188181">
        <ele>177</ele>
        <time>2021-10-28T07:32:08Z</time>
      </trkpt>
      <trkpt lat="47.615086" lon="1.9188093">
        <ele>177</ele>
        <time>2021-10-28T07:32:09Z</time>
      </trkpt>
      <trkpt lat="47.615086" lon="1.9188055">
        <ele>177</ele>
        <time>2021-10-28T07:32:10Z</time>
      </trkpt>
      <trkpt lat="47.615093" lon="1.918797">
        <ele>178</ele>
        <time>2021-10-28T07:32:11Z</time>
      </trkpt>
      <trkpt lat="47.615097" lon="1.9187886">
        <ele>178</ele>
        <time>2021-10-28T07:32:12Z</time>
      </trkpt>
      <trkpt lat="47.615105" lon="1.91878">
        <ele>178</ele>
        <time>2021-10-28T07:32:13Z</time>
      </trkpt>
      <trkpt lat="47.61512" lon="1.918767">
        <ele>177</ele>
        <time>2021-10-28T07:32:14Z</time>
      </trkpt>
      <trkpt lat="47.61513" lon="1.9187583">
        <ele>176</ele>
        <time>2021-10-28T07:32:15Z</time>
      </trkpt>
      <trkpt lat="47.615143" lon="1.9187557">
        <ele>175</ele>
        <time>2021-10-28T07:32:16Z</time>
      </trkpt>
      <trkpt lat="47.615154" lon="1.9187461">
        <ele>175</ele>
        <time>2021-10-28T07:32:17Z</time>
      </trkpt>
      <trkpt lat="47.615154" lon="1.9187461">
        <ele>175</ele>
        <time>2021-10-28T07:32:18Z</time>
      </trkpt>
      <trkpt lat="47.615154" lon="1.9187461">
        <ele>175</ele>
        <time>2021-10-28T07:32:19Z</time>
      </trkpt>
      <trkpt lat="47.61517" lon="1.9187376">
        <ele>176</ele>
        <time>2021-10-28T07:32:20Z</time>
      </trkpt>
      <trkpt lat="47.615177" lon="1.9187261">
        <ele>176</ele>
        <time>2021-10-28T07:32:21Z</time>
      </trkpt>
      <trkpt lat="47.615185" lon="1.9187218">
        <ele>176</ele>
        <time>2021-10-28T07:32:22Z</time>
      </trkpt>
      <trkpt lat="47.61519" lon="1.9187161">
        <ele>176</ele>
        <time>2021-10-28T07:32:23Z</time>
      </trkpt>
      <trkpt lat="47.61519" lon="1.9187161">
        <ele>176</ele>
        <time>2021-10-28T07:32:24Z</time>
      </trkpt>
      <trkpt lat="47.61519" lon="1.9187161">
        <ele>176</ele>
        <time>2021-10-28T07:32:25Z</time>
      </trkpt>
      <trkpt lat="47.61521" lon="1.9186946">
        <ele>176</ele>
        <time>2021-10-28T07:32:26Z</time>
      </trkpt>
      <trkpt lat="47.615223" lon="1.9186873">
        <ele>176</ele>
        <time>2021-10-28T07:32:27Z</time>
      </trkpt>
      <trkpt lat="47.61523" lon="1.9186814">
        <ele>175</ele>
        <time>2021-10-28T07:32:28Z</time>
      </trkpt>
      <trkpt lat="47.615242" lon="1.9186689">
        <ele>175</ele>
        <time>2021-10-28T07:32:29Z</time>
      </trkpt>
      <trkpt lat="47.615257" lon="1.9186566">
        <ele>174</ele>
        <time>2021-10-28T07:32:30Z</time>
      </trkpt>
      <trkpt lat="47.615273" lon="1.91865">
        <ele>175</ele>
        <time>2021-10-28T07:32:31Z</time>
      </trkpt>
      <trkpt lat="47.615284" lon="1.9186425">
        <ele>175</ele>
        <time>2021-10-28T07:32:32Z</time>
      </trkpt>
      <trkpt lat="47.615295" lon="1.9186336">
        <ele>175</ele>
        <time>2021-10-28T07:32:33Z</time>
      </trkpt>
      <trkpt lat="47.615307" lon="1.9186261">
        <ele>175</ele>
        <time>2021-10-28T07:32:34Z</time>
      </trkpt>
      <trkpt lat="47.615322" lon="1.9186218">
        <ele>175</ele>
        <time>2021-10-28T07:32:35Z</time>
      </trkpt>
      <trkpt lat="47.615334" lon="1.918613">
        <ele>175</ele>
        <time>2021-10-28T07:32:36Z</time>
      </trkpt>
      <trkpt lat="47.615345" lon="1.9186053">
        <ele>176</ele>
        <time>2021-10-28T07:32:37Z</time>
      </trkpt>
      <trkpt lat="47.61535" lon="1.9185965">
        <ele>176</ele>
        <time>2021-10-28T07:32:38Z</time>
      </trkpt>
      <trkpt lat="47.615356" lon="1.9185913">
        <ele>176</ele>
        <time>2021-10-28T07:32:39Z</time>
      </trkpt>
      <trkpt lat="47.615364" lon="1.9185789">
        <ele>177</ele>
        <time>2021-10-28T07:32:40Z</time>
      </trkpt>
      <trkpt lat="47.615364" lon="1.9185789">
        <ele>177</ele>
        <time>2021-10-28T07:32:41Z</time>
      </trkpt>
      <trkpt lat="47.615364" lon="1.9185789">
        <ele>177</ele>
        <time>2021-10-28T07:32:42Z</time>
      </trkpt>
      <trkpt lat="47.61538" lon="1.9185562">
        <ele>176</ele>
        <time>2021-10-28T07:32:43Z</time>
      </trkpt>
      <trkpt lat="47.615395" lon="1.9185491">
        <ele>176</ele>
        <time>2021-10-28T07:32:44Z</time>
      </trkpt>
      <trkpt lat="47.615406" lon="1.9185427">
        <ele>176</ele>
        <time>2021-10-28T07:32:45Z</time>
      </trkpt>
      <trkpt lat="47.615417" lon="1.9185323">
        <ele>175</ele>
        <time>2021-10-28T07:32:46Z</time>
      </trkpt>
      <trkpt lat="47.615433" lon="1.9185247">
        <ele>175</ele>
        <time>2021-10-28T07:32:47Z</time>
      </trkpt>
      <trkpt lat="47.61544" lon="1.9185153">
        <ele>174</ele>
        <time>2021-10-28T07:32:48Z</time>
      </trkpt>
      <trkpt lat="47.61545" lon="1.9185013">
        <ele>175</ele>
        <time>2021-10-28T07:32:49Z</time>
      </trkpt>
      <trkpt lat="47.61546" lon="1.9184932">
        <ele>174</ele>
        <time>2021-10-28T07:32:50Z</time>
      </trkpt>
      <trkpt lat="47.61547" lon="1.9184874">
        <ele>174</ele>
        <time>2021-10-28T07:32:51Z</time>
      </trkpt>
      <trkpt lat="47.61548" lon="1.9184792">
        <ele>174</ele>
        <time>2021-10-28T07:32:52Z</time>
      </trkpt>
      <trkpt lat="47.61549" lon="1.918473">
        <ele>174</ele>
        <time>2021-10-28T07:32:53Z</time>
      </trkpt>
      <trkpt lat="47.615494" lon="1.9184688">
        <ele>174</ele>
        <time>2021-10-28T07:32:54Z</time>
      </trkpt>
      <trkpt lat="47.6155" lon="1.918462">
        <ele>174</ele>
        <time>2021-10-28T07:32:55Z</time>
      </trkpt>
      <trkpt lat="47.61551" lon="1.9184538">
        <ele>174</ele>
        <time>2021-10-28T07:32:56Z</time>
      </trkpt>
      <trkpt lat="47.615517" lon="1.9184477">
        <ele>174</ele>
        <time>2021-10-28T07:32:57Z</time>
      </trkpt>
      <trkpt lat="47.615524" lon="1.9184412">
        <ele>174</ele>
        <time>2021-10-28T07:32:58Z</time>
      </trkpt>
      <trkpt lat="47.615536" lon="1.9184324">
        <ele>174</ele>
        <time>2021-10-28T07:32:59Z</time>
      </trkpt>
      <trkpt lat="47.615547" lon="1.9184251">
        <ele>174</ele>
        <time>2021-10-28T07:33:00Z</time>
      </trkpt>
      <trkpt lat="47.61556" lon="1.9184197">
        <ele>174</ele>
        <time>2021-10-28T07:33:01Z</time>
      </trkpt>
      <trkpt lat="47.615574" lon="1.9184121">
        <ele>174</ele>
        <time>2021-10-28T07:33:02Z</time>
      </trkpt>
      <trkpt lat="47.61558" lon="1.9184055">
        <ele>174</ele>
        <time>2021-10-28T07:33:03Z</time>
      </trkpt>
      <trkpt lat="47.615593" lon="1.9183952">
        <ele>174</ele>
        <time>2021-10-28T07:33:04Z</time>
      </trkpt>
      <trkpt lat="47.615604" lon="1.9183884">
        <ele>173</ele>
        <time>2021-10-28T07:33:05Z</time>
      </trkpt>
      <trkpt lat="47.615616" lon="1.9183825">
        <ele>173</ele>
        <time>2021-10-28T07:33:06Z</time>
      </trkpt>
      <trkpt lat="47.615623" lon="1.9183741">
        <ele>173</ele>
        <time>2021-10-28T07:33:07Z</time>
      </trkpt>
      <trkpt lat="47.615635" lon="1.9183687">
        <ele>173</ele>
        <time>2021-10-28T07:33:08Z</time>
      </trkpt>
      <trkpt lat="47.615646" lon="1.9183632">
        <ele>173</ele>
        <time>2021-10-28T07:33:09Z</time>
      </trkpt>
      <trkpt lat="47.615658" lon="1.918356">
        <ele>173</ele>
        <time>2021-10-28T07:33:10Z</time>
      </trkpt>
      <trkpt lat="47.615673" lon="1.9183507">
        <ele>172</ele>
        <time>2021-10-28T07:33:11Z</time>
      </trkpt>
      <trkpt lat="47.615685" lon="1.9183419">
        <ele>172</ele>
        <time>2021-10-28T07:33:12Z</time>
      </trkpt>
      <trkpt lat="47.615696" lon="1.9183342">
        <ele>172</ele>
        <time>2021-10-28T07:33:13Z</time>
      </trkpt>
      <trkpt lat="47.615707" lon="1.9183277">
        <ele>172</ele>
        <time>2021-10-28T07:33:14Z</time>
      </trkpt>
      <trkpt lat="47.61572" lon="1.9183185">
        <ele>172</ele>
        <time>2021-10-28T07:33:15Z</time>
      </trkpt>
      <trkpt lat="47.61573" lon="1.9183106">
        <ele>172</ele>
        <time>2021-10-28T07:33:16Z</time>
      </trkpt>
      <trkpt lat="47.615738" lon="1.9183048">
        <ele>172</ele>
        <time>2021-10-28T07:33:17Z</time>
      </trkpt>
      <trkpt lat="47.615746" lon="1.9183025">
        <ele>172</ele>
        <time>2021-10-28T07:33:18Z</time>
      </trkpt>
      <trkpt lat="47.61575" lon="1.9182981">
        <ele>173</ele>
        <time>2021-10-28T07:33:19Z</time>
      </trkpt>
      <trkpt lat="47.615757" lon="1.9182892">
        <ele>173</ele>
        <time>2021-10-28T07:33:20Z</time>
      </trkpt>
      <trkpt lat="47.615757" lon="1.9182892">
        <ele>173</ele>
        <time>2021-10-28T07:33:21Z</time>
      </trkpt>
      <trkpt lat="47.615757" lon="1.9182892">
        <ele>173</ele>
        <time>2021-10-28T07:33:22Z</time>
      </trkpt>
      <trkpt lat="47.61578" lon="1.9182827">
        <ele>172</ele>
        <time>2021-10-28T07:33:23Z</time>
      </trkpt>
      <trkpt lat="47.615788" lon="1.9182822">
        <ele>172</ele>
        <time>2021-10-28T07:33:24Z</time>
      </trkpt>
      <trkpt lat="47.615795" lon="1.9182782">
        <ele>172</ele>
        <time>2021-10-28T07:33:25Z</time>
      </trkpt>
      <trkpt lat="47.615803" lon="1.9182751">
        <ele>172</ele>
        <time>2021-10-28T07:33:26Z</time>
      </trkpt>
      <trkpt lat="47.615803" lon="1.9182751">
        <ele>172</ele>
        <time>2021-10-28T07:33:27Z</time>
      </trkpt>
      <trkpt lat="47.615803" lon="1.9182751">
        <ele>172</ele>
        <time>2021-10-28T07:33:28Z</time>
      </trkpt>
      <trkpt lat="47.615803" lon="1.9182751">
        <ele>172</ele>
        <time>2021-10-28T07:33:29Z</time>
      </trkpt>
      <trkpt lat="47.615818" lon="1.9182596">
        <ele>172</ele>
        <time>2021-10-28T07:33:30Z</time>
      </trkpt>
      <trkpt lat="47.61583" lon="1.9182578">
        <ele>172</ele>
        <time>2021-10-28T07:33:31Z</time>
      </trkpt>
      <trkpt lat="47.615833" lon="1.9182593">
        <ele>172</ele>
        <time>2021-10-28T07:33:32Z</time>
      </trkpt>
      <trkpt lat="47.61584" lon="1.9182584">
        <ele>172</ele>
        <time>2021-10-28T07:33:33Z</time>
      </trkpt>
      <trkpt lat="47.61584" lon="1.9182584">
        <ele>172</ele>
        <time>2021-10-28T07:33:34Z</time>
      </trkpt>
      <trkpt lat="47.61584" lon="1.9182584">
        <ele>172</ele>
        <time>2021-10-28T07:33:35Z</time>
      </trkpt>
      <trkpt lat="47.615868" lon="1.9182479">
        <ele>171</ele>
        <time>2021-10-28T07:33:36Z</time>
      </trkpt>
      <trkpt lat="47.61588" lon="1.9182365">
        <ele>171</ele>
        <time>2021-10-28T07:33:37Z</time>
      </trkpt>
      <trkpt lat="47.615887" lon="1.9182274">
        <ele>171</ele>
        <time>2021-10-28T07:33:38Z</time>
      </trkpt>
      <trkpt lat="47.615894" lon="1.9182153">
        <ele>171</ele>
        <time>2021-10-28T07:33:39Z</time>
      </trkpt>
      <trkpt lat="47.615902" lon="1.9182065">
        <ele>171</ele>
        <time>2021-10-28T07:33:40Z</time>
      </trkpt>
      <trkpt lat="47.61591" lon="1.9182038">
        <ele>171</ele>
        <time>2021-10-28T07:33:41Z</time>
      </trkpt>
      <trkpt lat="47.615913" lon="1.918198">
        <ele>172</ele>
        <time>2021-10-28T07:33:42Z</time>
      </trkpt>
      <trkpt lat="47.61592" lon="1.9181943">
        <ele>173</ele>
        <time>2021-10-28T07:33:43Z</time>
      </trkpt>
      <trkpt lat="47.61592" lon="1.9181943">
        <ele>173</ele>
        <time>2021-10-28T07:33:43Z</time>
      </trkpt>
    </trkseg>
    <trkseg>
      <trkpt lat="47.61592" lon="1.9181943">
        <ele>173</ele>
        <time>2021-10-28T07:33:43Z</time>
      </trkpt>
      <trkpt lat="47.61598" lon="1.9181402">
        <ele>175</ele>
        <time>2021-10-28T07:35:00Z</time>
      </trkpt>
      <trkpt lat="47.615986" lon="1.9181346">
        <ele>175</ele>
        <time>2021-10-28T07:35:01Z</time>
      </trkpt>
      <trkpt lat="47.615993" lon="1.9181306">
        <ele>175</ele>
        <time>2021-10-28T07:35:02Z</time>
      </trkpt>
      <trkpt lat="47.615993" lon="1.9181368">
        <ele>175</ele>
        <time>2021-10-28T07:35:03Z</time>
      </trkpt>
      <trkpt lat="47.615993" lon="1.9181368">
        <ele>175</ele>
        <time>2021-10-28T07:35:04Z</time>
      </trkpt>
      <trkpt lat="47.615993" lon="1.9181368">
        <ele>175</ele>
        <time>2021-10-28T07:35:05Z</time>
      </trkpt>
      <trkpt lat="47.615993" lon="1.9181368">
        <ele>175</ele>
        <time>2021-10-28T07:35:06Z</time>
      </trkpt>
      <trkpt lat="47.616013" lon="1.9181198">
        <ele>175</ele>
        <time>2021-10-28T07:35:07Z</time>
      </trkpt>
      <trkpt lat="47.61602" lon="1.9181126">
        <ele>176</ele>
        <time>2021-10-28T07:35:08Z</time>
      </trkpt>
      <trkpt lat="47.61603" lon="1.9181076">
        <ele>176</ele>
        <time>2021-10-28T07:35:09Z</time>
      </trkpt>
      <trkpt lat="47.61604" lon="1.9181048">
        <ele>176</ele>
        <time>2021-10-28T07:35:10Z</time>
      </trkpt>
      <trkpt lat="47.61604" lon="1.9181048">
        <ele>176</ele>
        <time>2021-10-28T07:35:11Z</time>
      </trkpt>
      <trkpt lat="47.61604" lon="1.9181048">
        <ele>176</ele>
        <time>2021-10-28T07:35:12Z</time>
      </trkpt>
      <trkpt lat="47.61606" lon="1.9181098">
        <ele>176</ele>
        <time>2021-10-28T07:35:13Z</time>
      </trkpt>
      <trkpt lat="47.616066" lon="1.9181173">
        <ele>175</ele>
        <time>2021-10-28T07:35:14Z</time>
      </trkpt>
      <trkpt lat="47.616074" lon="1.9181238">
        <ele>175</ele>
        <time>2021-10-28T07:35:15Z</time>
      </trkpt>
      <trkpt lat="47.616077" lon="1.918129">
        <ele>175</ele>
        <time>2021-10-28T07:35:16Z</time>
      </trkpt>
      <trkpt lat="47.616077" lon="1.918129">
        <ele>175</ele>
        <time>2021-10-28T07:35:17Z</time>
      </trkpt>
      <trkpt lat="47.616077" lon="1.918129">
        <ele>175</ele>
        <time>2021-10-28T07:35:18Z</time>
      </trkpt>
      <trkpt lat="47.61609" lon="1.9181476">
        <ele>174</ele>
        <time>2021-10-28T07:35:19Z</time>
      </trkpt>
      <trkpt lat="47.616096" lon="1.9181563">
        <ele>174</ele>
        <time>2021-10-28T07:35:20Z</time>
      </trkpt>
      <trkpt lat="47.616104" lon="1.9181687">
        <ele>174</ele>
        <time>2021-10-28T07:35:21Z</time>
      </trkpt>
      <trkpt lat="47.616108" lon="1.9181861">
        <ele>173</ele>
        <time>2021-10-28T07:35:22Z</time>
      </trkpt>
      <trkpt lat="47.616108" lon="1.9181861">
        <ele>173</ele>
        <time>2021-10-28T07:35:23Z</time>
      </trkpt>
      <trkpt lat="47.616108" lon="1.9181861">
        <ele>173</ele>
        <time>2021-10-28T07:35:24Z</time>
      </trkpt>
      <trkpt lat="47.616127" lon="1.9182236">
        <ele>173</ele>
        <time>2021-10-28T07:35:25Z</time>
      </trkpt>
      <trkpt lat="47.61613" lon="1.9182388">
        <ele>173</ele>
        <time>2021-10-28T07:35:26Z</time>
      </trkpt>
      <trkpt lat="47.616135" lon="1.9182522">
        <ele>173</ele>
        <time>2021-10-28T07:35:27Z</time>
      </trkpt>
      <trkpt lat="47.616135" lon="1.9182667">
        <ele>173</ele>
        <time>2021-10-28T07:35:28Z</time>
      </trkpt>
      <trkpt lat="47.616135" lon="1.9182814">
        <ele>173</ele>
        <time>2021-10-28T07:35:29Z</time>
      </trkpt>
      <trkpt lat="47.616142" lon="1.9182949">
        <ele>173</ele>
        <time>2021-10-28T07:35:30Z</time>
      </trkpt>
      <trkpt lat="47.616146" lon="1.9183087">
        <ele>172</ele>
        <time>2021-10-28T07:35:31Z</time>
      </trkpt>
      <trkpt lat="47.616158" lon="1.9183127">
        <ele>172</ele>
        <time>2021-10-28T07:35:32Z</time>
      </trkpt>
      <trkpt lat="47.616154" lon="1.9183141">
        <ele>172</ele>
        <time>2021-10-28T07:35:33Z</time>
      </trkpt>
      <trkpt lat="47.616154" lon="1.9183141">
        <ele>172</ele>
        <time>2021-10-28T07:35:34Z</time>
      </trkpt>
      <trkpt lat="47.616158" lon="1.918323">
        <ele>173</ele>
        <time>2021-10-28T07:35:35Z</time>
      </trkpt>
      <trkpt lat="47.616158" lon="1.918323">
        <ele>173</ele>
        <time>2021-10-28T07:35:36Z</time>
      </trkpt>
      <trkpt lat="47.616158" lon="1.918323">
        <ele>173</ele>
        <time>2021-10-28T07:35:36Z</time>
      </trkpt>
    </trkseg>
    <trkseg>
      <trkpt lat="47.616158" lon="1.918323">
        <ele>173</ele>
        <time>2021-10-28T07:35:36Z</time>
      </trkpt>
      <trkpt lat="47.61619" lon="1.9184114">
        <ele>177</ele>
        <time>2021-10-28T07:35:42Z</time>
      </trkpt>
      <trkpt lat="47.616203" lon="1.9184382">
        <ele>177</ele>
        <time>2021-10-28T07:35:43Z</time>
      </trkpt>
      <trkpt lat="47.616203" lon="1.9184566">
        <ele>178</ele>
        <time>2021-10-28T07:35:44Z</time>
      </trkpt>
      <trkpt lat="47.61621" lon="1.9184756">
        <ele>178</ele>
        <time>2021-10-28T07:35:45Z</time>
      </trkpt>
      <trkpt lat="47.616215" lon="1.9184927">
        <ele>178</ele>
        <time>2021-10-28T07:35:46Z</time>
      </trkpt>
      <trkpt lat="47.61622" lon="1.9185115">
        <ele>177</ele>
        <time>2021-10-28T07:35:47Z</time>
      </trkpt>
      <trkpt lat="47.616226" lon="1.9185278">
        <ele>177</ele>
        <time>2021-10-28T07:35:48Z</time>
      </trkpt>
      <trkpt lat="47.616234" lon="1.9185475">
        <ele>177</ele>
        <time>2021-10-28T07:35:49Z</time>
      </trkpt>
      <trkpt lat="47.616238" lon="1.9185673">
        <ele>177</ele>
        <time>2021-10-28T07:35:50Z</time>
      </trkpt>
      <trkpt lat="47.61625" lon="1.918584">
        <ele>177</ele>
        <time>2021-10-28T07:35:51Z</time>
      </trkpt>
      <trkpt lat="47.61626" lon="1.9186046">
        <ele>177</ele>
        <time>2021-10-28T07:35:52Z</time>
      </trkpt>
      <trkpt lat="47.61627" lon="1.9186286">
        <ele>177</ele>
        <time>2021-10-28T07:35:53Z</time>
      </trkpt>
      <trkpt lat="47.616276" lon="1.9186502">
        <ele>177</ele>
        <time>2021-10-28T07:35:54Z</time>
      </trkpt>
      <trkpt lat="47.616283" lon="1.9186678">
        <ele>177</ele>
        <time>2021-10-28T07:35:55Z</time>
      </trkpt>
      <trkpt lat="47.61629" lon="1.9186845">
        <ele>176</ele>
        <time>2021-10-28T07:35:56Z</time>
      </trkpt>
      <trkpt lat="47.6163" lon="1.9186999">
        <ele>176</ele>
        <time>2021-10-28T07:35:57Z</time>
      </trkpt>
      <trkpt lat="47.616306" lon="1.9187123">
        <ele>176</ele>
        <time>2021-10-28T07:35:58Z</time>
      </trkpt>
      <trkpt lat="47.616314" lon="1.9187315">
        <ele>176</ele>
        <time>2021-10-28T07:35:59Z</time>
      </trkpt>
      <trkpt lat="47.616318" lon="1.9187472">
        <ele>176</ele>
        <time>2021-10-28T07:36:00Z</time>
      </trkpt>
      <trkpt lat="47.616325" lon="1.9187566">
        <ele>176</ele>
        <time>2021-10-28T07:36:01Z</time>
      </trkpt>
      <trkpt lat="47.61633" lon="1.9187678">
        <ele>176</ele>
        <time>2021-10-28T07:36:02Z</time>
      </trkpt>
      <trkpt lat="47.616337" lon="1.9187809">
        <ele>176</ele>
        <time>2021-10-28T07:36:03Z</time>
      </trkpt>
      <trkpt lat="47.616344" lon="1.9187891">
        <ele>177</ele>
        <time>2021-10-28T07:36:04Z</time>
      </trkpt>
      <trkpt lat="47.616352" lon="1.9188004">
        <ele>177</ele>
        <time>2021-10-28T07:36:05Z</time>
      </trkpt>
      <trkpt lat="47.61636" lon="1.9188101">
        <ele>177</ele>
        <time>2021-10-28T07:36:06Z</time>
      </trkpt>
      <trkpt lat="47.616367" lon="1.9188193">
        <ele>177</ele>
        <time>2021-10-28T07:36:07Z</time>
      </trkpt>
      <trkpt lat="47.61637" lon="1.9188398">
        <ele>177</ele>
        <time>2021-10-28T07:36:08Z</time>
      </trkpt>
      <trkpt lat="47.616375" lon="1.9188576">
        <ele>178</ele>
        <time>2021-10-28T07:36:09Z</time>
      </trkpt>
      <trkpt lat="47.61638" lon="1.9188766">
        <ele>178</ele>
        <time>2021-10-28T07:36:10Z</time>
      </trkpt>
      <trkpt lat="47.616383" lon="1.9188979">
        <ele>178</ele>
        <time>2021-10-28T07:36:11Z</time>
      </trkpt>
      <trkpt lat="47.61639" lon="1.9189168">
        <ele>178</ele>
        <time>2021-10-28T07:36:12Z</time>
      </trkpt>
      <trkpt lat="47.616398" lon="1.9189335">
        <ele>178</ele>
        <time>2021-10-28T07:36:13Z</time>
      </trkpt>
      <trkpt lat="47.616405" lon="1.918951">
        <ele>178</ele>
        <time>2021-10-28T07:36:14Z</time>
      </trkpt>
      <trkpt lat="47.616413" lon="1.9189637">
        <ele>178</ele>
        <time>2021-10-28T07:36:15Z</time>
      </trkpt>
      <trkpt lat="47.61642" lon="1.9189731">
        <ele>178</ele>
        <time>2021-10-28T07:36:16Z</time>
      </trkpt>
      <trkpt lat="47.616425" lon="1.9189833">
        <ele>177</ele>
        <time>2021-10-28T07:36:17Z</time>
      </trkpt>
      <trkpt lat="47.616432" lon="1.9189987">
        <ele>176</ele>
        <time>2021-10-28T07:36:18Z</time>
      </trkpt>
      <trkpt lat="47.616436" lon="1.9190159">
        <ele>175</ele>
        <time>2021-10-28T07:36:19Z</time>
      </trkpt>
      <trkpt lat="47.616444" lon="1.9190302">
        <ele>175</ele>
        <time>2021-10-28T07:36:20Z</time>
      </trkpt>
      <trkpt lat="47.616455" lon="1.9190428">
        <ele>175</ele>
        <time>2021-10-28T07:36:21Z</time>
      </trkpt>
      <trkpt lat="47.616463" lon="1.9190629">
        <ele>175</ele>
        <time>2021-10-28T07:36:22Z</time>
      </trkpt>
      <trkpt lat="47.616463" lon="1.9190832">
        <ele>175</ele>
        <time>2021-10-28T07:36:23Z</time>
      </trkpt>
      <trkpt lat="47.61647" lon="1.9190958">
        <ele>175</ele>
        <time>2021-10-28T07:36:24Z</time>
      </trkpt>
      <trkpt lat="47.616478" lon="1.9191122">
        <ele>175</ele>
        <time>2021-10-28T07:36:25Z</time>
      </trkpt>
      <trkpt lat="47.61648" lon="1.919125">
        <ele>176</ele>
        <time>2021-10-28T07:36:26Z</time>
      </trkpt>
      <trkpt lat="47.61649" lon="1.9191399">
        <ele>176</ele>
        <time>2021-10-28T07:36:27Z</time>
      </trkpt>
      <trkpt lat="47.616493" lon="1.9191464">
        <ele>176</ele>
        <time>2021-10-28T07:36:28Z</time>
      </trkpt>
      <trkpt lat="47.6165" lon="1.9191613">
        <ele>177</ele>
        <time>2021-10-28T07:36:29Z</time>
      </trkpt>
      <trkpt lat="47.616505" lon="1.9191792">
        <ele>177</ele>
        <time>2021-10-28T07:36:30Z</time>
      </trkpt>
      <trkpt lat="47.61651" lon="1.9191986">
        <ele>177</ele>
        <time>2021-10-28T07:36:31Z</time>
      </trkpt>
      <trkpt lat="47.616512" lon="1.9192168">
        <ele>177</ele>
        <time>2021-10-28T07:36:32Z</time>
      </trkpt>
      <trkpt lat="47.61652" lon="1.919235">
        <ele>177</ele>
        <time>2021-10-28T07:36:33Z</time>
      </trkpt>
      <trkpt lat="47.616528" lon="1.9192537">
        <ele>177</ele>
        <time>2021-10-28T07:36:34Z</time>
      </trkpt>
      <trkpt lat="47.61653" lon="1.919269">
        <ele>177</ele>
        <time>2021-10-28T07:36:35Z</time>
      </trkpt>
      <trkpt lat="47.616535" lon="1.9192853">
        <ele>176</ele>
        <time>2021-10-28T07:36:36Z</time>
      </trkpt>
      <trkpt lat="47.616543" lon="1.9192996">
        <ele>176</ele>
        <time>2021-10-28T07:36:37Z</time>
      </trkpt>
      <trkpt lat="47.616554" lon="1.9193107">
        <ele>175</ele>
        <time>2021-10-28T07:36:38Z</time>
      </trkpt>
      <trkpt lat="47.61656" lon="1.9193202">
        <ele>175</ele>
        <time>2021-10-28T07:36:39Z</time>
      </trkpt>
      <trkpt lat="47.61657" lon="1.9193368">
        <ele>175</ele>
        <time>2021-10-28T07:36:40Z</time>
      </trkpt>
      <trkpt lat="47.616577" lon="1.9193531">
        <ele>175</ele>
        <time>2021-10-28T07:36:41Z</time>
      </trkpt>
      <trkpt lat="47.616585" lon="1.9193715">
        <ele>174</ele>
        <time>2021-10-28T07:36:42Z</time>
      </trkpt>
      <trkpt lat="47.616592" lon="1.9193918">
        <ele>174</ele>
        <time>2021-10-28T07:36:43Z</time>
      </trkpt>
      <trkpt lat="47.616604" lon="1.9194133">
        <ele>174</ele>
        <time>2021-10-28T07:36:44Z</time>
      </trkpt>
      <trkpt lat="47.616608" lon="1.9194322">
        <ele>174</ele>
        <time>2021-10-28T07:36:45Z</time>
      </trkpt>
      <trkpt lat="47.616615" lon="1.9194527">
        <ele>173</ele>
        <time>2021-10-28T07:36:46Z</time>
      </trkpt>
      <trkpt lat="47.616623" lon="1.9194709">
        <ele>173</ele>
        <time>2021-10-28T07:36:47Z</time>
      </trkpt>
      <trkpt lat="47.61663" lon="1.9194865">
        <ele>173</ele>
        <time>2021-10-28T07:36:48Z</time>
      </trkpt>
      <trkpt lat="47.61664" lon="1.9195027">
        <ele>173</ele>
        <time>2021-10-28T07:36:49Z</time>
      </trkpt>
      <trkpt lat="47.61665" lon="1.9195162">
        <ele>172</ele>
        <time>2021-10-28T07:36:50Z</time>
      </trkpt>
      <trkpt lat="47.616653" lon="1.9195291">
        <ele>172</ele>
        <time>2021-10-28T07:36:51Z</time>
      </trkpt>
      <trkpt lat="47.61666" lon="1.9195434">
        <ele>172</ele>
        <time>2021-10-28T07:36:52Z</time>
      </trkpt>
      <trkpt lat="47.61667" lon="1.9195597">
        <ele>172</ele>
        <time>2021-10-28T07:36:53Z</time>
      </trkpt>
      <trkpt lat="47.616676" lon="1.9195752">
        <ele>172</ele>
        <time>2021-10-28T07:36:54Z</time>
      </trkpt>
      <trkpt lat="47.61668" lon="1.9195952">
        <ele>172</ele>
        <time>2021-10-28T07:36:55Z</time>
      </trkpt>
      <trkpt lat="47.616688" lon="1.9196142">
        <ele>172</ele>
        <time>2021-10-28T07:36:56Z</time>
      </trkpt>
      <trkpt lat="47.616695" lon="1.9196311">
        <ele>172</ele>
        <time>2021-10-28T07:36:57Z</time>
      </trkpt>
      <trkpt lat="47.616703" lon="1.9196512">
        <ele>172</ele>
        <time>2021-10-28T07:36:58Z</time>
      </trkpt>
      <trkpt lat="47.616707" lon="1.9196695">
        <ele>172</ele>
        <time>2021-10-28T07:36:59Z</time>
      </trkpt>
      <trkpt lat="47.616714" lon="1.919689">
        <ele>171</ele>
        <time>2021-10-28T07:37:00Z</time>
      </trkpt>
      <trkpt lat="47.616722" lon="1.9197042">
        <ele>171</ele>
        <time>2021-10-28T07:37:01Z</time>
      </trkpt>
      <trkpt lat="47.61673" lon="1.9197139">
        <ele>171</ele>
        <time>2021-10-28T07:37:02Z</time>
      </trkpt>
      <trkpt lat="47.616737" lon="1.9197209">
        <ele>170</ele>
        <time>2021-10-28T07:37:03Z</time>
      </trkpt>
      <trkpt lat="47.616745" lon="1.9197378">
        <ele>171</ele>
        <time>2021-10-28T07:37:04Z</time>
      </trkpt>
      <trkpt lat="47.61675" lon="1.9197526">
        <ele>171</ele>
        <time>2021-10-28T07:37:05Z</time>
      </trkpt>
      <trkpt lat="47.616756" lon="1.919771">
        <ele>171</ele>
        <time>2021-10-28T07:37:06Z</time>
      </trkpt>
      <trkpt lat="47.616764" lon="1.9197859">
        <ele>170</ele>
        <time>2021-10-28T07:37:07Z</time>
      </trkpt>
      <trkpt lat="47.61677" lon="1.919798">
        <ele>170</ele>
        <time>2021-10-28T07:37:08Z</time>
      </trkpt>
      <trkpt lat="47.61678" lon="1.9198087">
        <ele>170</ele>
        <time>2021-10-28T07:37:09Z</time>
      </trkpt>
      <trkpt lat="47.616783" lon="1.9198189">
        <ele>170</ele>
        <time>2021-10-28T07:37:10Z</time>
      </trkpt>
      <trkpt lat="47.61679" lon="1.9198362">
        <ele>169</ele>
        <time>2021-10-28T07:37:11Z</time>
      </trkpt>
      <trkpt lat="47.616795" lon="1.9198523">
        <ele>169</ele>
        <time>2021-10-28T07:37:12Z</time>
      </trkpt>
      <trkpt lat="47.6168" lon="1.9198714">
        <ele>169</ele>
        <time>2021-10-28T07:37:13Z</time>
      </trkpt>
      <trkpt lat="47.616806" lon="1.9198875">
        <ele>168</ele>
        <time>2021-10-28T07:37:14Z</time>
      </trkpt>
      <trkpt lat="47.61681" lon="1.9199055">
        <ele>168</ele>
        <time>2021-10-28T07:37:15Z</time>
      </trkpt>
      <trkpt lat="47.616814" lon="1.9199183">
        <ele>167</ele>
        <time>2021-10-28T07:37:16Z</time>
      </trkpt>
      <trkpt lat="47.616817" lon="1.9199274">
        <ele>167</ele>
        <time>2021-10-28T07:37:17Z</time>
      </trkpt>
      <trkpt lat="47.616825" lon="1.9199361">
        <ele>167</ele>
        <time>2021-10-28T07:37:18Z</time>
      </trkpt>
      <trkpt lat="47.616833" lon="1.9199454">
        <ele>166</ele>
        <time>2021-10-28T07:37:19Z</time>
      </trkpt>
      <trkpt lat="47.616844" lon="1.9199514">
        <ele>166</ele>
        <time>2021-10-28T07:37:20Z</time>
      </trkpt>
      <trkpt lat="47.61685" lon="1.919957">
        <ele>166</ele>
        <time>2021-10-28T07:37:21Z</time>
      </trkpt>
      <trkpt lat="47.616863" lon="1.9199655">
        <ele>166</ele>
        <time>2021-10-28T07:37:22Z</time>
      </trkpt>
      <trkpt lat="47.61687" lon="1.9199739">
        <ele>166</ele>
        <time>2021-10-28T07:37:23Z</time>
      </trkpt>
      <trkpt lat="47.616882" lon="1.9199809">
        <ele>166</ele>
        <time>2021-10-28T07:37:24Z</time>
      </trkpt>
      <trkpt lat="47.61689" lon="1.9199945">
        <ele>166</ele>
        <time>2021-10-28T07:37:25Z</time>
      </trkpt>
      <trkpt lat="47.616898" lon="1.9200015">
        <ele>166</ele>
        <time>2021-10-28T07:37:26Z</time>
      </trkpt>
      <trkpt lat="47.61691" lon="1.9200073">
        <ele>166</ele>
        <time>2021-10-28T07:37:27Z</time>
      </trkpt>
      <trkpt lat="47.616917" lon="1.9200181">
        <ele>165</ele>
        <time>2021-10-28T07:37:28Z</time>
      </trkpt>
      <trkpt lat="47.616924" lon="1.920027">
        <ele>166</ele>
        <time>2021-10-28T07:37:29Z</time>
      </trkpt>
      <trkpt lat="47.616936" lon="1.9200381">
        <ele>166</ele>
        <time>2021-10-28T07:37:30Z</time>
      </trkpt>
      <trkpt lat="47.616943" lon="1.9200495">
        <ele>166</ele>
        <time>2021-10-28T07:37:31Z</time>
      </trkpt>
      <trkpt lat="47.616955" lon="1.9200623">
        <ele>166</ele>
        <time>2021-10-28T07:37:32Z</time>
      </trkpt>
      <trkpt lat="47.616962" lon="1.9200728">
        <ele>166</ele>
        <time>2021-10-28T07:37:33Z</time>
      </trkpt>
      <trkpt lat="47.61697" lon="1.9200872">
        <ele>166</ele>
        <time>2021-10-28T07:37:34Z</time>
      </trkpt>
      <trkpt lat="47.616978" lon="1.920099">
        <ele>165</ele>
        <time>2021-10-28T07:37:35Z</time>
      </trkpt>
      <trkpt lat="47.61699" lon="1.9201128">
        <ele>165</ele>
        <time>2021-10-28T07:37:36Z</time>
      </trkpt>
      <trkpt lat="47.616997" lon="1.9201235">
        <ele>165</ele>
        <time>2021-10-28T07:37:37Z</time>
      </trkpt>
      <trkpt lat="47.61701" lon="1.9201325">
        <ele>165</ele>
        <time>2021-10-28T07:37:38Z</time>
      </trkpt>
      <trkpt lat="47.61702" lon="1.9201434">
        <ele>165</ele>
        <time>2021-10-28T07:37:39Z</time>
      </trkpt>
      <trkpt lat="47.617027" lon="1.9201543">
        <ele>165</ele>
        <time>2021-10-28T07:37:40Z</time>
      </trkpt>
      <trkpt lat="47.61704" lon="1.9201682">
        <ele>165</ele>
        <time>2021-10-28T07:37:41Z</time>
      </trkpt>
      <trkpt lat="47.617046" lon="1.9201806">
        <ele>165</ele>
        <time>2021-10-28T07:37:42Z</time>
      </trkpt>
      <trkpt lat="47.617058" lon="1.9201925">
        <ele>165</ele>
        <time>2021-10-28T07:37:43Z</time>
      </trkpt>
      <trkpt lat="47.61707" lon="1.9202029">
        <ele>165</ele>
        <time>2021-10-28T07:37:44Z</time>
      </trkpt>
      <trkpt lat="47.61708" lon="1.9202131">
        <ele>165</ele>
        <time>2021-10-28T07:37:45Z</time>
      </trkpt>
      <trkpt lat="47.61709" lon="1.9202257">
        <ele>165</ele>
        <time>2021-10-28T07:37:46Z</time>
      </trkpt>
      <trkpt lat="47.617096" lon="1.9202391">
        <ele>165</ele>
        <time>2021-10-28T07:37:47Z</time>
      </trkpt>
      <trkpt lat="47.617107" lon="1.9202518">
        <ele>165</ele>
        <time>2021-10-28T07:37:48Z</time>
      </trkpt>
      <trkpt lat="47.617115" lon="1.9202611">
        <ele>165</ele>
        <time>2021-10-28T07:37:49Z</time>
      </trkpt>
      <trkpt lat="47.617126" lon="1.920266">
        <ele>165</ele>
        <time>2021-10-28T07:37:50Z</time>
      </trkpt>
      <trkpt lat="47.617138" lon="1.9202735">
        <ele>164</ele>
        <time>2021-10-28T07:37:51Z</time>
      </trkpt>
      <trkpt lat="47.61715" lon="1.9202876">
        <ele>165</ele>
        <time>2021-10-28T07:37:52Z</time>
      </trkpt>
      <trkpt lat="47.617157" lon="1.9202954">
        <ele>164</ele>
        <time>2021-10-28T07:37:53Z</time>
      </trkpt>
      <trkpt lat="47.61717" lon="1.9202998">
        <ele>164</ele>
        <time>2021-10-28T07:37:54Z</time>
      </trkpt>
      <trkpt lat="47.61718" lon="1.9203031">
        <ele>164</ele>
        <time>2021-10-28T07:37:55Z</time>
      </trkpt>
      <trkpt lat="47.617188" lon="1.9203091">
        <ele>164</ele>
        <time>2021-10-28T07:37:56Z</time>
      </trkpt>
      <trkpt lat="47.617195" lon="1.9203227">
        <ele>164</ele>
        <time>2021-10-28T07:37:57Z</time>
      </trkpt>
      <trkpt lat="47.617207" lon="1.9203345">
        <ele>164</ele>
        <time>2021-10-28T07:37:58Z</time>
      </trkpt>
      <trkpt lat="47.617214" lon="1.9203475">
        <ele>164</ele>
        <time>2021-10-28T07:37:59Z</time>
      </trkpt>
      <trkpt lat="47.61722" lon="1.9203604">
        <ele>164</ele>
        <time>2021-10-28T07:38:00Z</time>
      </trkpt>
      <trkpt lat="47.617233" lon="1.9203771">
        <ele>164</ele>
        <time>2021-10-28T07:38:01Z</time>
      </trkpt>
      <trkpt lat="47.617245" lon="1.920391">
        <ele>165</ele>
        <time>2021-10-28T07:38:02Z</time>
      </trkpt>
      <trkpt lat="47.617256" lon="1.9204025">
        <ele>165</ele>
        <time>2021-10-28T07:38:03Z</time>
      </trkpt>
      <trkpt lat="47.617264" lon="1.9204191">
        <ele>165</ele>
        <time>2021-10-28T07:38:04Z</time>
      </trkpt>
      <trkpt lat="47.617275" lon="1.9204347">
        <ele>165</ele>
        <time>2021-10-28T07:38:05Z</time>
      </trkpt>
      <trkpt lat="47.617287" lon="1.9204457">
        <ele>165</ele>
        <time>2021-10-28T07:38:06Z</time>
      </trkpt>
      <trkpt lat="47.6173" lon="1.9204601">
        <ele>165</ele>
        <time>2021-10-28T07:38:07Z</time>
      </trkpt>
      <trkpt lat="47.617313" lon="1.9204756">
        <ele>165</ele>
        <time>2021-10-28T07:38:08Z</time>
      </trkpt>
      <trkpt lat="47.617325" lon="1.9204862">
        <ele>165</ele>
        <time>2021-10-28T07:38:09Z</time>
      </trkpt>
      <trkpt lat="47.617336" lon="1.9204966">
        <ele>166</ele>
        <time>2021-10-28T07:38:10Z</time>
      </trkpt>
      <trkpt lat="47.617348" lon="1.920509">
        <ele>166</ele>
        <time>2021-10-28T07:38:11Z</time>
      </trkpt>
      <trkpt lat="47.617355" lon="1.9205251">
        <ele>166</ele>
        <time>2021-10-28T07:38:12Z</time>
      </trkpt>
      <trkpt lat="47.617363" lon="1.920535">
        <ele>166</ele>
        <time>2021-10-28T07:38:13Z</time>
      </trkpt>
      <trkpt lat="47.617374" lon="1.920542">
        <ele>166</ele>
        <time>2021-10-28T07:38:14Z</time>
      </trkpt>
      <trkpt lat="47.617386" lon="1.920555">
        <ele>166</ele>
        <time>2021-10-28T07:38:15Z</time>
      </trkpt>
      <trkpt lat="47.617397" lon="1.920568">
        <ele>167</ele>
        <time>2021-10-28T07:38:16Z</time>
      </trkpt>
      <trkpt lat="47.617405" lon="1.9205841">
        <ele>168</ele>
        <time>2021-10-28T07:38:17Z</time>
      </trkpt>
      <trkpt lat="47.617416" lon="1.9206003">
        <ele>168</ele>
        <time>2021-10-28T07:38:18Z</time>
      </trkpt>
      <trkpt lat="47.617428" lon="1.9206121">
        <ele>168</ele>
        <time>2021-10-28T07:38:19Z</time>
      </trkpt>
      <trkpt lat="47.61744" lon="1.9206244">
        <ele>169</ele>
        <time>2021-10-28T07:38:20Z</time>
      </trkpt>
      <trkpt lat="47.617455" lon="1.9206362">
        <ele>169</ele>
        <time>2021-10-28T07:38:21Z</time>
      </trkpt>
      <trkpt lat="47.617462" lon="1.9206458">
        <ele>169</ele>
        <time>2021-10-28T07:38:22Z</time>
      </trkpt>
      <trkpt lat="47.617474" lon="1.9206614">
        <ele>169</ele>
        <time>2021-10-28T07:38:23Z</time>
      </trkpt>
      <trkpt lat="47.617485" lon="1.9206758">
        <ele>170</ele>
        <time>2021-10-28T07:38:24Z</time>
      </trkpt>
      <trkpt lat="47.617493" lon="1.9206872">
        <ele>170</ele>
        <time>2021-10-28T07:38:25Z</time>
      </trkpt>
      <trkpt lat="47.617504" lon="1.9206915">
        <ele>170</ele>
        <time>2021-10-28T07:38:26Z</time>
      </trkpt>
      <trkpt lat="47.617516" lon="1.9206994">
        <ele>170</ele>
        <time>2021-10-28T07:38:27Z</time>
      </trkpt>
      <trkpt lat="47.617523" lon="1.9207091">
        <ele>170</ele>
        <time>2021-10-28T07:38:28Z</time>
      </trkpt>
      <trkpt lat="47.61753" lon="1.920715">
        <ele>169</ele>
        <time>2021-10-28T07:38:29Z</time>
      </trkpt>
      <trkpt lat="47.617542" lon="1.9207214">
        <ele>169</ele>
        <time>2021-10-28T07:38:30Z</time>
      </trkpt>
      <trkpt lat="47.61755" lon="1.920731">
        <ele>168</ele>
        <time>2021-10-28T07:38:31Z</time>
      </trkpt>
      <trkpt lat="47.617558" lon="1.9207428">
        <ele>168</ele>
        <time>2021-10-28T07:38:32Z</time>
      </trkpt>
      <trkpt lat="47.61757" lon="1.9207531">
        <ele>168</ele>
        <time>2021-10-28T07:38:33Z</time>
      </trkpt>
      <trkpt lat="47.617577" lon="1.920767">
        <ele>169</ele>
        <time>2021-10-28T07:38:34Z</time>
      </trkpt>
      <trkpt lat="47.617584" lon="1.9207779">
        <ele>168</ele>
        <time>2021-10-28T07:38:35Z</time>
      </trkpt>
      <trkpt lat="47.617596" lon="1.9207848">
        <ele>168</ele>
        <time>2021-10-28T07:38:36Z</time>
      </trkpt>
      <trkpt lat="47.6176" lon="1.9207946">
        <ele>168</ele>
        <time>2021-10-28T07:38:37Z</time>
      </trkpt>
      <trkpt lat="47.61761" lon="1.9208058">
        <ele>168</ele>
        <time>2021-10-28T07:38:38Z</time>
      </trkpt>
      <trkpt lat="47.617622" lon="1.920817">
        <ele>168</ele>
        <time>2021-10-28T07:38:39Z</time>
      </trkpt>
      <trkpt lat="47.617634" lon="1.9208229">
        <ele>168</ele>
        <time>2021-10-28T07:38:40Z</time>
      </trkpt>
      <trkpt lat="47.61765" lon="1.9208294">
        <ele>168</ele>
        <time>2021-10-28T07:38:41Z</time>
      </trkpt>
      <trkpt lat="47.61766" lon="1.9208381">
        <ele>168</ele>
        <time>2021-10-28T07:38:42Z</time>
      </trkpt>
      <trkpt lat="47.617672" lon="1.9208442">
        <ele>168</ele>
        <time>2021-10-28T07:38:43Z</time>
      </trkpt>
      <trkpt lat="47.617683" lon="1.9208496">
        <ele>168</ele>
        <time>2021-10-28T07:38:44Z</time>
      </trkpt>
      <trkpt lat="47.617695" lon="1.9208578">
        <ele>168</ele>
        <time>2021-10-28T07:38:45Z</time>
      </trkpt>
      <trkpt lat="47.617702" lon="1.9208683">
        <ele>168</ele>
        <time>2021-10-28T07:38:46Z</time>
      </trkpt>
      <trkpt lat="47.61771" lon="1.9208835">
        <ele>168</ele>
        <time>2021-10-28T07:38:47Z</time>
      </trkpt>
      <trkpt lat="47.61772" lon="1.9208957">
        <ele>168</ele>
        <time>2021-10-28T07:38:48Z</time>
      </trkpt>
      <trkpt lat="47.617733" lon="1.9209061">
        <ele>168</ele>
        <time>2021-10-28T07:38:49Z</time>
      </trkpt>
      <trkpt lat="47.617744" lon="1.9209148">
        <ele>168</ele>
        <time>2021-10-28T07:38:50Z</time>
      </trkpt>
      <trkpt lat="47.617756" lon="1.9209238">
        <ele>168</ele>
        <time>2021-10-28T07:38:51Z</time>
      </trkpt>
      <trkpt lat="47.617767" lon="1.9209336">
        <ele>168</ele>
        <time>2021-10-28T07:38:52Z</time>
      </trkpt>
      <trkpt lat="47.617783" lon="1.9209421">
        <ele>169</ele>
        <time>2021-10-28T07:38:53Z</time>
      </trkpt>
      <trkpt lat="47.61779" lon="1.9209564">
        <ele>169</ele>
        <time>2021-10-28T07:38:54Z</time>
      </trkpt>
      <trkpt lat="47.6178" lon="1.920972">
        <ele>169</ele>
        <time>2021-10-28T07:38:55Z</time>
      </trkpt>
      <trkpt lat="47.617813" lon="1.9209884">
        <ele>169</ele>
        <time>2021-10-28T07:38:56Z</time>
      </trkpt>
      <trkpt lat="47.61782" lon="1.9210001">
        <ele>169</ele>
        <time>2021-10-28T07:38:57Z</time>
      </trkpt>
      <trkpt lat="47.617832" lon="1.9210153">
        <ele>169</ele>
        <time>2021-10-28T07:38:58Z</time>
      </trkpt>
      <trkpt lat="47.617847" lon="1.9210298">
        <ele>169</ele>
        <time>2021-10-28T07:38:59Z</time>
      </trkpt>
      <trkpt lat="47.61786" lon="1.9210463">
        <ele>169</ele>
        <time>2021-10-28T07:39:00Z</time>
      </trkpt>
      <trkpt lat="47.61787" lon="1.9210572">
        <ele>169</ele>
        <time>2021-10-28T07:39:01Z</time>
      </trkpt>
      <trkpt lat="47.61788" lon="1.9210694">
        <ele>170</ele>
        <time>2021-10-28T07:39:02Z</time>
      </trkpt>
      <trkpt lat="47.61789" lon="1.9210793">
        <ele>170</ele>
        <time>2021-10-28T07:39:03Z</time>
      </trkpt>
      <trkpt lat="47.6179" lon="1.9210912">
        <ele>170</ele>
        <time>2021-10-28T07:39:04Z</time>
      </trkpt>
      <trkpt lat="47.617912" lon="1.9211041">
        <ele>171</ele>
        <time>2021-10-28T07:39:05Z</time>
      </trkpt>
      <trkpt lat="47.617924" lon="1.9211148">
        <ele>171</ele>
        <time>2021-10-28T07:39:06Z</time>
      </trkpt>
      <trkpt lat="47.61793" lon="1.9211254">
        <ele>171</ele>
        <time>2021-10-28T07:39:07Z</time>
      </trkpt>
      <trkpt lat="47.61794" lon="1.9211369">
        <ele>171</ele>
        <time>2021-10-28T07:39:08Z</time>
      </trkpt>
      <trkpt lat="47.61795" lon="1.9211458">
        <ele>171</ele>
        <time>2021-10-28T07:39:09Z</time>
      </trkpt>
      <trkpt lat="47.617958" lon="1.9211605">
        <ele>171</ele>
        <time>2021-10-28T07:39:10Z</time>
      </trkpt>
      <trkpt lat="47.61797" lon="1.9211731">
        <ele>171</ele>
        <time>2021-10-28T07:39:11Z</time>
      </trkpt>
      <trkpt lat="47.617977" lon="1.9211845">
        <ele>171</ele>
        <time>2021-10-28T07:39:12Z</time>
      </trkpt>
      <trkpt lat="47.61799" lon="1.921195">
        <ele>171</ele>
        <time>2021-10-28T07:39:13Z</time>
      </trkpt>
      <trkpt lat="47.618" lon="1.9212059">
        <ele>172</ele>
        <time>2021-10-28T07:39:14Z</time>
      </trkpt>
      <trkpt lat="47.61801" lon="1.9212174">
        <ele>172</ele>
        <time>2021-10-28T07:39:15Z</time>
      </trkpt>
      <trkpt lat="47.618023" lon="1.9212301">
        <ele>172</ele>
        <time>2021-10-28T07:39:16Z</time>
      </trkpt>
      <trkpt lat="47.61803" lon="1.9212424">
        <ele>172</ele>
        <time>2021-10-28T07:39:17Z</time>
      </trkpt>
      <trkpt lat="47.618042" lon="1.9212537">
        <ele>173</ele>
        <time>2021-10-28T07:39:18Z</time>
      </trkpt>
      <trkpt lat="47.61805" lon="1.921266">
        <ele>173</ele>
        <time>2021-10-28T07:39:19Z</time>
      </trkpt>
      <trkpt lat="47.61806" lon="1.921276">
        <ele>173</ele>
        <time>2021-10-28T07:39:20Z</time>
      </trkpt>
      <trkpt lat="47.618076" lon="1.9212798">
        <ele>174</ele>
        <time>2021-10-28T07:39:21Z</time>
      </trkpt>
      <trkpt lat="47.618088" lon="1.9212885">
        <ele>174</ele>
        <time>2021-10-28T07:39:22Z</time>
      </trkpt>
      <trkpt lat="47.6181" lon="1.9212983">
        <ele>174</ele>
        <time>2021-10-28T07:39:23Z</time>
      </trkpt>
      <trkpt lat="47.618107" lon="1.9213103">
        <ele>174</ele>
        <time>2021-10-28T07:39:24Z</time>
      </trkpt>
      <trkpt lat="47.618114" lon="1.9213213">
        <ele>174</ele>
        <time>2021-10-28T07:39:25Z</time>
      </trkpt>
      <trkpt lat="47.618122" lon="1.9213326">
        <ele>174</ele>
        <time>2021-10-28T07:39:26Z</time>
      </trkpt>
      <trkpt lat="47.618134" lon="1.9213457">
        <ele>174</ele>
        <time>2021-10-28T07:39:27Z</time>
      </trkpt>
      <trkpt lat="47.618145" lon="1.9213605">
        <ele>174</ele>
        <time>2021-10-28T07:39:28Z</time>
      </trkpt>
      <trkpt lat="47.618156" lon="1.9213673">
        <ele>174</ele>
        <time>2021-10-28T07:39:29Z</time>
      </trkpt>
      <trkpt lat="47.618168" lon="1.9213817">
        <ele>175</ele>
        <time>2021-10-28T07:39:30Z</time>
      </trkpt>
      <trkpt lat="47.61818" lon="1.9213959">
        <ele>174</ele>
        <time>2021-10-28T07:39:31Z</time>
      </trkpt>
      <trkpt lat="47.618195" lon="1.9214085">
        <ele>175</ele>
        <time>2021-10-28T07:39:32Z</time>
      </trkpt>
      <trkpt lat="47.618206" lon="1.9214151">
        <ele>175</ele>
        <time>2021-10-28T07:39:33Z</time>
      </trkpt>
      <trkpt lat="47.618217" lon="1.9214258">
        <ele>175</ele>
        <time>2021-10-28T07:39:34Z</time>
      </trkpt>
      <trkpt lat="47.618225" lon="1.9214406">
        <ele>175</ele>
        <time>2021-10-28T07:39:35Z</time>
      </trkpt>
      <trkpt lat="47.618233" lon="1.9214486">
        <ele>175</ele>
        <time>2021-10-28T07:39:36Z</time>
      </trkpt>
      <trkpt lat="47.61824" lon="1.9214576">
        <ele>174</ele>
        <time>2021-10-28T07:39:37Z</time>
      </trkpt>
      <trkpt lat="47.61825" lon="1.9214723">
        <ele>174</ele>
        <time>2021-10-28T07:39:38Z</time>
      </trkpt>
      <trkpt lat="47.61826" lon="1.9214797">
        <ele>174</ele>
        <time>2021-10-28T07:39:39Z</time>
      </trkpt>
      <trkpt lat="47.618275" lon="1.9214901">
        <ele>174</ele>
        <time>2021-10-28T07:39:40Z</time>
      </trkpt>
      <trkpt lat="47.618282" lon="1.9214988">
        <ele>174</ele>
        <time>2021-10-28T07:39:41Z</time>
      </trkpt>
      <trkpt lat="47.618298" lon="1.9215093">
        <ele>174</ele>
        <time>2021-10-28T07:39:42Z</time>
      </trkpt>
      <trkpt lat="47.618305" lon="1.9215254">
        <ele>174</ele>
        <time>2021-10-28T07:39:43Z</time>
      </trkpt>
      <trkpt lat="47.61831" lon="1.92154">
        <ele>174</ele>
        <time>2021-10-28T07:39:44Z</time>
      </trkpt>
      <trkpt lat="47.61832" lon="1.9215479">
        <ele>174</ele>
        <time>2021-10-28T07:39:45Z</time>
      </trkpt>
      <trkpt lat="47.618336" lon="1.9215547">
        <ele>175</ele>
        <time>2021-10-28T07:39:46Z</time>
      </trkpt>
      <trkpt lat="47.618347" lon="1.9215639">
        <ele>175</ele>
        <time>2021-10-28T07:39:47Z</time>
      </trkpt>
      <trkpt lat="47.61835" lon="1.9215747">
        <ele>175</ele>
        <time>2021-10-28T07:39:48Z</time>
      </trkpt>
      <trkpt lat="47.618362" lon="1.9215847">
        <ele>175</ele>
        <time>2021-10-28T07:39:49Z</time>
      </trkpt>
      <trkpt lat="47.618374" lon="1.9215876">
        <ele>175</ele>
        <time>2021-10-28T07:39:50Z</time>
      </trkpt>
      <trkpt lat="47.618374" lon="1.9215971">
        <ele>176</ele>
        <time>2021-10-28T07:39:51Z</time>
      </trkpt>
      <trkpt lat="47.618378" lon="1.9216055">
        <ele>176</ele>
        <time>2021-10-28T07:39:52Z</time>
      </trkpt>
      <trkpt lat="47.618393" lon="1.9216149">
        <ele>177</ele>
        <time>2021-10-28T07:39:53Z</time>
      </trkpt>
      <trkpt lat="47.6184" lon="1.9216248">
        <ele>177</ele>
        <time>2021-10-28T07:39:54Z</time>
      </trkpt>
      <trkpt lat="47.61841" lon="1.9216303">
        <ele>177</ele>
        <time>2021-10-28T07:39:55Z</time>
      </trkpt>
      <trkpt lat="47.61842" lon="1.9216391">
        <ele>177</ele>
        <time>2021-10-28T07:39:56Z</time>
      </trkpt>
      <trkpt lat="47.618427" lon="1.9216486">
        <ele>177</ele>
        <time>2021-10-28T07:39:57Z</time>
      </trkpt>
      <trkpt lat="47.61844" lon="1.9216584">
        <ele>178</ele>
        <time>2021-10-28T07:39:58Z</time>
      </trkpt>
      <trkpt lat="47.61845" lon="1.9216684">
        <ele>177</ele>
        <time>2021-10-28T07:39:59Z</time>
      </trkpt>
      <trkpt lat="47.618465" lon="1.9216795">
        <ele>178</ele>
        <time>2021-10-28T07:40:00Z</time>
      </trkpt>
      <trkpt lat="47.618477" lon="1.9216884">
        <ele>178</ele>
        <time>2021-10-28T07:40:01Z</time>
      </trkpt>
      <trkpt lat="47.618484" lon="1.9216971">
        <ele>178</ele>
        <time>2021-10-28T07:40:02Z</time>
      </trkpt>
      <trkpt lat="47.618496" lon="1.9217044">
        <ele>177</ele>
        <time>2021-10-28T07:40:03Z</time>
      </trkpt>
      <trkpt lat="47.618504" lon="1.9217113">
        <ele>177</ele>
        <time>2021-10-28T07:40:04Z</time>
      </trkpt>
      <trkpt lat="47.618515" lon="1.921722">
        <ele>178</ele>
        <time>2021-10-28T07:40:05Z</time>
      </trkpt>
      <trkpt lat="47.618523" lon="1.9217352">
        <ele>178</ele>
        <time>2021-10-28T07:40:06Z</time>
      </trkpt>
      <trkpt lat="47.618538" lon="1.9217488">
        <ele>178</ele>
        <time>2021-10-28T07:40:07Z</time>
      </trkpt>
      <trkpt lat="47.61855" lon="1.9217573">
        <ele>179</ele>
        <time>2021-10-28T07:40:08Z</time>
      </trkpt>
      <trkpt lat="47.618557" lon="1.9217688">
        <ele>179</ele>
        <time>2021-10-28T07:40:09Z</time>
      </trkpt>
      <trkpt lat="47.61857" lon="1.9217781">
        <ele>179</ele>
        <time>2021-10-28T07:40:10Z</time>
      </trkpt>
      <trkpt lat="47.618576" lon="1.9217857">
        <ele>179</ele>
        <time>2021-10-28T07:40:11Z</time>
      </trkpt>
      <trkpt lat="47.618587" lon="1.9217951">
        <ele>179</ele>
        <time>2021-10-28T07:40:12Z</time>
      </trkpt>
      <trkpt lat="47.618595" lon="1.9218037">
        <ele>178</ele>
        <time>2021-10-28T07:40:13Z</time>
      </trkpt>
      <trkpt lat="47.618603" lon="1.9218116">
        <ele>178</ele>
        <time>2021-10-28T07:40:14Z</time>
      </trkpt>
      <trkpt lat="47.618614" lon="1.9218228">
        <ele>178</ele>
        <time>2021-10-28T07:40:15Z</time>
      </trkpt>
      <trkpt lat="47.618626" lon="1.9218305">
        <ele>177</ele>
        <time>2021-10-28T07:40:16Z</time>
      </trkpt>
      <trkpt lat="47.618633" lon="1.9218396">
        <ele>177</ele>
        <time>2021-10-28T07:40:17Z</time>
      </trkpt>
      <trkpt lat="47.61864" lon="1.9218488">
        <ele>177</ele>
        <time>2021-10-28T07:40:18Z</time>
      </trkpt>
      <trkpt lat="47.61865" lon="1.9218602">
        <ele>177</ele>
        <time>2021-10-28T07:40:19Z</time>
      </trkpt>
      <trkpt lat="47.61866" lon="1.9218701">
        <ele>177</ele>
        <time>2021-10-28T07:40:20Z</time>
      </trkpt>
      <trkpt lat="47.61867" lon="1.9218806">
        <ele>177</ele>
        <time>2021-10-28T07:40:21Z</time>
      </trkpt>
      <trkpt lat="47.618675" lon="1.9218912">
        <ele>176</ele>
        <time>2021-10-28T07:40:22Z</time>
      </trkpt>
      <trkpt lat="47.618683" lon="1.9219024">
        <ele>176</ele>
        <time>2021-10-28T07:40:23Z</time>
      </trkpt>
      <trkpt lat="47.61869" lon="1.9219122">
        <ele>175</ele>
        <time>2021-10-28T07:40:24Z</time>
      </trkpt>
      <trkpt lat="47.618694" lon="1.9219271">
        <ele>175</ele>
        <time>2021-10-28T07:40:25Z</time>
      </trkpt>
      <trkpt lat="47.618706" lon="1.9219394">
        <ele>175</ele>
        <time>2021-10-28T07:40:26Z</time>
      </trkpt>
      <trkpt lat="47.618717" lon="1.9219469">
        <ele>175</ele>
        <time>2021-10-28T07:40:27Z</time>
      </trkpt>
      <trkpt lat="47.618725" lon="1.9219571">
        <ele>175</ele>
        <time>2021-10-28T07:40:28Z</time>
      </trkpt>
      <trkpt lat="47.618736" lon="1.9219695">
        <ele>176</ele>
        <time>2021-10-28T07:40:29Z</time>
      </trkpt>
      <trkpt lat="47.618748" lon="1.9219757">
        <ele>176</ele>
        <time>2021-10-28T07:40:30Z</time>
      </trkpt>
      <trkpt lat="47.61876" lon="1.9219888">
        <ele>176</ele>
        <time>2021-10-28T07:40:31Z</time>
      </trkpt>
      <trkpt lat="47.618767" lon="1.9220008">
        <ele>176</ele>
        <time>2021-10-28T07:40:32Z</time>
      </trkpt>
      <trkpt lat="47.618774" lon="1.9220114">
        <ele>176</ele>
        <time>2021-10-28T07:40:33Z</time>
      </trkpt>
      <trkpt lat="47.618782" lon="1.9220229">
        <ele>176</ele>
        <time>2021-10-28T07:40:34Z</time>
      </trkpt>
      <trkpt lat="47.61879" lon="1.9220299">
        <ele>176</ele>
        <time>2021-10-28T07:40:35Z</time>
      </trkpt>
      <trkpt lat="47.618805" lon="1.9220372">
        <ele>175</ele>
        <time>2021-10-28T07:40:36Z</time>
      </trkpt>
      <trkpt lat="47.618816" lon="1.9220484">
        <ele>175</ele>
        <time>2021-10-28T07:40:37Z</time>
      </trkpt>
      <trkpt lat="47.618824" lon="1.922057">
        <ele>174</ele>
        <time>2021-10-28T07:40:38Z</time>
      </trkpt>
      <trkpt lat="47.61883" lon="1.9220665">
        <ele>174</ele>
        <time>2021-10-28T07:40:39Z</time>
      </trkpt>
      <trkpt lat="47.618843" lon="1.9220763">
        <ele>174</ele>
        <time>2021-10-28T07:40:40Z</time>
      </trkpt>
      <trkpt lat="47.61885" lon="1.9220846">
        <ele>174</ele>
        <time>2021-10-28T07:40:41Z</time>
      </trkpt>
      <trkpt lat="47.61886" lon="1.9220941">
        <ele>174</ele>
        <time>2021-10-28T07:40:42Z</time>
      </trkpt>
      <trkpt lat="47.61887" lon="1.922098">
        <ele>174</ele>
        <time>2021-10-28T07:40:43Z</time>
      </trkpt>
      <trkpt lat="47.61888" lon="1.9221032">
        <ele>174</ele>
        <time>2021-10-28T07:40:44Z</time>
      </trkpt>
      <trkpt lat="47.618893" lon="1.922109">
        <ele>174</ele>
        <time>2021-10-28T07:40:45Z</time>
      </trkpt>
      <trkpt lat="47.618904" lon="1.9221144">
        <ele>174</ele>
        <time>2021-10-28T07:40:46Z</time>
      </trkpt>
      <trkpt lat="47.61891" lon="1.9221256">
        <ele>174</ele>
        <time>2021-10-28T07:40:47Z</time>
      </trkpt>
      <trkpt lat="47.61892" lon="1.9221344">
        <ele>174</ele>
        <time>2021-10-28T07:40:48Z</time>
      </trkpt>
      <trkpt lat="47.61893" lon="1.9221462">
        <ele>174</ele>
        <time>2021-10-28T07:40:49Z</time>
      </trkpt>
      <trkpt lat="47.61894" lon="1.9221609">
        <ele>174</ele>
        <time>2021-10-28T07:40:50Z</time>
      </trkpt>
      <trkpt lat="47.618946" lon="1.9221736">
        <ele>174</ele>
        <time>2021-10-28T07:40:51Z</time>
      </trkpt>
      <trkpt lat="47.61895" lon="1.9221869">
        <ele>174</ele>
        <time>2021-10-28T07:40:52Z</time>
      </trkpt>
      <trkpt lat="47.618958" lon="1.9221975">
        <ele>174</ele>
        <time>2021-10-28T07:40:53Z</time>
      </trkpt>
      <trkpt lat="47.618965" lon="1.9222143">
        <ele>174</ele>
        <time>2021-10-28T07:40:54Z</time>
      </trkpt>
      <trkpt lat="47.61897" lon="1.9222283">
        <ele>173</ele>
        <time>2021-10-28T07:40:55Z</time>
      </trkpt>
      <trkpt lat="47.618977" lon="1.9222469">
        <ele>174</ele>
        <time>2021-10-28T07:40:56Z</time>
      </trkpt>
      <trkpt lat="47.618988" lon="1.9222673">
        <ele>174</ele>
        <time>2021-10-28T07:40:57Z</time>
      </trkpt>
      <trkpt lat="47.619003" lon="1.9222844">
        <ele>174</ele>
        <time>2021-10-28T07:40:58Z</time>
      </trkpt>
      <trkpt lat="47.61901" lon="1.9222981">
        <ele>174</ele>
        <time>2021-10-28T07:40:59Z</time>
      </trkpt>
      <trkpt lat="47.619026" lon="1.9223135">
        <ele>174</ele>
        <time>2021-10-28T07:41:00Z</time>
      </trkpt>
      <trkpt lat="47.619038" lon="1.9223306">
        <ele>174</ele>
        <time>2021-10-28T07:41:01Z</time>
      </trkpt>
      <trkpt lat="47.61905" lon="1.9223431">
        <ele>174</ele>
        <time>2021-10-28T07:41:02Z</time>
      </trkpt>
      <trkpt lat="47.619053" lon="1.9223583">
        <ele>174</ele>
        <time>2021-10-28T07:41:03Z</time>
      </trkpt>
      <trkpt lat="47.61906" lon="1.9223721">
        <ele>175</ele>
        <time>2021-10-28T07:41:04Z</time>
      </trkpt>
      <trkpt lat="47.619072" lon="1.9223769">
        <ele>175</ele>
        <time>2021-10-28T07:41:05Z</time>
      </trkpt>
      <trkpt lat="47.61908" lon="1.9223876">
        <ele>175</ele>
        <time>2021-10-28T07:41:06Z</time>
      </trkpt>
      <trkpt lat="47.61909" lon="1.9223968">
        <ele>175</ele>
        <time>2021-10-28T07:41:07Z</time>
      </trkpt>
      <trkpt lat="47.619102" lon="1.9224116">
        <ele>175</ele>
        <time>2021-10-28T07:41:08Z</time>
      </trkpt>
      <trkpt lat="47.61911" lon="1.9224248">
        <ele>175</ele>
        <time>2021-10-28T07:41:09Z</time>
      </trkpt>
      <trkpt lat="47.61912" lon="1.922434">
        <ele>176</ele>
        <time>2021-10-28T07:41:10Z</time>
      </trkpt>
      <trkpt lat="47.61913" lon="1.9224436">
        <ele>176</ele>
        <time>2021-10-28T07:41:11Z</time>
      </trkpt>
      <trkpt lat="47.619133" lon="1.9224513">
        <ele>176</ele>
        <time>2021-10-28T07:41:12Z</time>
      </trkpt>
      <trkpt lat="47.61914" lon="1.9224563">
        <ele>176</ele>
        <time>2021-10-28T07:41:13Z</time>
      </trkpt>
      <trkpt lat="47.61913" lon="1.9224626">
        <ele>175</ele>
        <time>2021-10-28T07:41:14Z</time>
      </trkpt>
      <trkpt lat="47.619133" lon="1.9224707">
        <ele>174</ele>
        <time>2021-10-28T07:41:15Z</time>
      </trkpt>
      <trkpt lat="47.619133" lon="1.9224751">
        <ele>174</ele>
        <time>2021-10-28T07:41:16Z</time>
      </trkpt>
      <trkpt lat="47.61915" lon="1.9224942">
        <ele>173</ele>
        <time>2021-10-28T07:41:17Z</time>
      </trkpt>
      <trkpt lat="47.61916" lon="1.9225069">
        <ele>172</ele>
        <time>2021-10-28T07:41:18Z</time>
      </trkpt>
      <trkpt lat="47.619167" lon="1.9225247">
        <ele>171</ele>
        <time>2021-10-28T07:41:19Z</time>
      </trkpt>
      <trkpt lat="47.61918" lon="1.9225343">
        <ele>171</ele>
        <time>2021-10-28T07:41:20Z</time>
      </trkpt>
      <trkpt lat="47.61919" lon="1.9225453">
        <ele>171</ele>
        <time>2021-10-28T07:41:21Z</time>
      </trkpt>
      <trkpt lat="47.6192" lon="1.922557">
        <ele>172</ele>
        <time>2021-10-28T07:41:22Z</time>
      </trkpt>
      <trkpt lat="47.619217" lon="1.9225634">
        <ele>172</ele>
        <time>2021-10-28T07:41:23Z</time>
      </trkpt>
      <trkpt lat="47.619232" lon="1.9225686">
        <ele>172</ele>
        <time>2021-10-28T07:41:24Z</time>
      </trkpt>
      <trkpt lat="47.619244" lon="1.9225777">
        <ele>172</ele>
        <time>2021-10-28T07:41:25Z</time>
      </trkpt>
      <trkpt lat="47.61926" lon="1.9225867">
        <ele>172</ele>
        <time>2021-10-28T07:41:26Z</time>
      </trkpt>
      <trkpt lat="47.619267" lon="1.9225935">
        <ele>172</ele>
        <time>2021-10-28T07:41:27Z</time>
      </trkpt>
      <trkpt lat="47.61927" lon="1.9225985">
        <ele>172</ele>
        <time>2021-10-28T07:41:28Z</time>
      </trkpt>
      <trkpt lat="47.61928" lon="1.9226063">
        <ele>173</ele>
        <time>2021-10-28T07:41:29Z</time>
      </trkpt>
      <trkpt lat="47.619293" lon="1.9226143">
        <ele>173</ele>
        <time>2021-10-28T07:41:30Z</time>
      </trkpt>
      <trkpt lat="47.6193" lon="1.922623">
        <ele>172</ele>
        <time>2021-10-28T07:41:31Z</time>
      </trkpt>
      <trkpt lat="47.619312" lon="1.9226328">
        <ele>172</ele>
        <time>2021-10-28T07:41:32Z</time>
      </trkpt>
      <trkpt lat="47.619324" lon="1.9226434">
        <ele>172</ele>
        <time>2021-10-28T07:41:33Z</time>
      </trkpt>
      <trkpt lat="47.619324" lon="1.9226552">
        <ele>172</ele>
        <time>2021-10-28T07:41:34Z</time>
      </trkpt>
      <trkpt lat="47.619335" lon="1.9226665">
        <ele>172</ele>
        <time>2021-10-28T07:41:35Z</time>
      </trkpt>
      <trkpt lat="47.619347" lon="1.9226761">
        <ele>172</ele>
        <time>2021-10-28T07:41:36Z</time>
      </trkpt>
      <trkpt lat="47.619358" lon="1.9226823">
        <ele>172</ele>
        <time>2021-10-28T07:41:37Z</time>
      </trkpt>
      <trkpt lat="47.61937" lon="1.9226913">
        <ele>173</ele>
        <time>2021-10-28T07:41:38Z</time>
      </trkpt>
      <trkpt lat="47.61937" lon="1.9227">
        <ele>173</ele>
        <time>2021-10-28T07:41:39Z</time>
      </trkpt>
      <trkpt lat="47.61938" lon="1.9227109">
        <ele>173</ele>
        <time>2021-10-28T07:41:40Z</time>
      </trkpt>
      <trkpt lat="47.619392" lon="1.9227167">
        <ele>173</ele>
        <time>2021-10-28T07:41:41Z</time>
      </trkpt>
      <trkpt lat="47.619404" lon="1.9227242">
        <ele>172</ele>
        <time>2021-10-28T07:41:42Z</time>
      </trkpt>
      <trkpt lat="47.619415" lon="1.9227371">
        <ele>171</ele>
        <time>2021-10-28T07:41:43Z</time>
      </trkpt>
      <trkpt lat="47.61942" lon="1.9227493">
        <ele>171</ele>
        <time>2021-10-28T07:41:44Z</time>
      </trkpt>
      <trkpt lat="47.619423" lon="1.9227566">
        <ele>172</ele>
        <time>2021-10-28T07:41:45Z</time>
      </trkpt>
      <trkpt lat="47.619423" lon="1.9227566">
        <ele>172</ele>
        <time>2021-10-28T07:41:46Z</time>
      </trkpt>
      <trkpt lat="47.619423" lon="1.9227566">
        <ele>172</ele>
        <time>2021-10-28T07:41:47Z</time>
      </trkpt>
      <trkpt lat="47.619446" lon="1.9227737">
        <ele>173</ele>
        <time>2021-10-28T07:41:48Z</time>
      </trkpt>
      <trkpt lat="47.619453" lon="1.9227811">
        <ele>173</ele>
        <time>2021-10-28T07:41:49Z</time>
      </trkpt>
      <trkpt lat="47.619465" lon="1.9227861">
        <ele>174</ele>
        <time>2021-10-28T07:41:50Z</time>
      </trkpt>
      <trkpt lat="47.61948" lon="1.9227943">
        <ele>174</ele>
        <time>2021-10-28T07:41:51Z</time>
      </trkpt>
      <trkpt lat="47.61949" lon="1.9227974">
        <ele>174</ele>
        <time>2021-10-28T07:41:52Z</time>
      </trkpt>
      <trkpt lat="47.619503" lon="1.92281">
        <ele>174</ele>
        <time>2021-10-28T07:41:53Z</time>
      </trkpt>
      <trkpt lat="47.61951" lon="1.9228206">
        <ele>175</ele>
        <time>2021-10-28T07:41:54Z</time>
      </trkpt>
      <trkpt lat="47.61952" lon="1.9228361">
        <ele>175</ele>
        <time>2021-10-28T07:41:55Z</time>
      </trkpt>
      <trkpt lat="47.619522" lon="1.9228536">
        <ele>175</ele>
        <time>2021-10-28T07:41:56Z</time>
      </trkpt>
      <trkpt lat="47.619534" lon="1.9228629">
        <ele>175</ele>
        <time>2021-10-28T07:41:57Z</time>
      </trkpt>
      <trkpt lat="47.61954" lon="1.9228699">
        <ele>175</ele>
        <time>2021-10-28T07:41:58Z</time>
      </trkpt>
      <trkpt lat="47.619553" lon="1.9228837">
        <ele>175</ele>
        <time>2021-10-28T07:41:59Z</time>
      </trkpt>
      <trkpt lat="47.619568" lon="1.9228951">
        <ele>174</ele>
        <time>2021-10-28T07:42:00Z</time>
      </trkpt>
      <trkpt lat="47.619583" lon="1.922909">
        <ele>174</ele>
        <time>2021-10-28T07:42:01Z</time>
      </trkpt>
      <trkpt lat="47.619595" lon="1.9229238">
        <ele>174</ele>
        <time>2021-10-28T07:42:02Z</time>
      </trkpt>
      <trkpt lat="47.61961" lon="1.9229347">
        <ele>174</ele>
        <time>2021-10-28T07:42:03Z</time>
      </trkpt>
      <trkpt lat="47.619617" lon="1.9229473">
        <ele>174</ele>
        <time>2021-10-28T07:42:04Z</time>
      </trkpt>
      <trkpt lat="47.61963" lon="1.9229552">
        <ele>174</ele>
        <time>2021-10-28T07:42:05Z</time>
      </trkpt>
      <trkpt lat="47.61964" lon="1.9229655">
        <ele>174</ele>
        <time>2021-10-28T07:42:06Z</time>
      </trkpt>
      <trkpt lat="47.619648" lon="1.9229743">
        <ele>174</ele>
        <time>2021-10-28T07:42:07Z</time>
      </trkpt>
      <trkpt lat="47.61966" lon="1.9229839">
        <ele>174</ele>
        <time>2021-10-28T07:42:08Z</time>
      </trkpt>
      <trkpt lat="47.619667" lon="1.9229935">
        <ele>174</ele>
        <time>2021-10-28T07:42:09Z</time>
      </trkpt>
      <trkpt lat="47.61968" lon="1.9230018">
        <ele>175</ele>
        <time>2021-10-28T07:42:10Z</time>
      </trkpt>
      <trkpt lat="47.619686" lon="1.9230098">
        <ele>174</ele>
        <time>2021-10-28T07:42:11Z</time>
      </trkpt>
      <trkpt lat="47.619694" lon="1.9230145">
        <ele>174</ele>
        <time>2021-10-28T07:42:12Z</time>
      </trkpt>
      <trkpt lat="47.6197" lon="1.9230198">
        <ele>174</ele>
        <time>2021-10-28T07:42:13Z</time>
      </trkpt>
      <trkpt lat="47.61971" lon="1.9230288">
        <ele>173</ele>
        <time>2021-10-28T07:42:14Z</time>
      </trkpt>
      <trkpt lat="47.619717" lon="1.9230363">
        <ele>173</ele>
        <time>2021-10-28T07:42:15Z</time>
      </trkpt>
      <trkpt lat="47.619728" lon="1.9230503">
        <ele>173</ele>
        <time>2021-10-28T07:42:16Z</time>
      </trkpt>
      <trkpt lat="47.61974" lon="1.9230639">
        <ele>173</ele>
        <time>2021-10-28T07:42:17Z</time>
      </trkpt>
      <trkpt lat="47.619747" lon="1.9230732">
        <ele>173</ele>
        <time>2021-10-28T07:42:18Z</time>
      </trkpt>
      <trkpt lat="47.619755" lon="1.9230795">
        <ele>173</ele>
        <time>2021-10-28T07:42:19Z</time>
      </trkpt>
      <trkpt lat="47.619766" lon="1.9230866">
        <ele>173</ele>
        <time>2021-10-28T07:42:20Z</time>
      </trkpt>
      <trkpt lat="47.61977" lon="1.9230921">
        <ele>172</ele>
        <time>2021-10-28T07:42:21Z</time>
      </trkpt>
      <trkpt lat="47.61977" lon="1.9230921">
        <ele>172</ele>
        <time>2021-10-28T07:42:22Z</time>
      </trkpt>
      <trkpt lat="47.61977" lon="1.9230921">
        <ele>172</ele>
        <time>2021-10-28T07:42:23Z</time>
      </trkpt>
      <trkpt lat="47.619793" lon="1.9231215">
        <ele>172</ele>
        <time>2021-10-28T07:42:24Z</time>
      </trkpt>
      <trkpt lat="47.6198" lon="1.9231263">
        <ele>171</ele>
        <time>2021-10-28T07:42:25Z</time>
      </trkpt>
      <trkpt lat="47.619812" lon="1.9231347">
        <ele>171</ele>
        <time>2021-10-28T07:42:26Z</time>
      </trkpt>
      <trkpt lat="47.619823" lon="1.9231417">
        <ele>172</ele>
        <time>2021-10-28T07:42:27Z</time>
      </trkpt>
      <trkpt lat="47.619835" lon="1.923149">
        <ele>171</ele>
        <time>2021-10-28T07:42:28Z</time>
      </trkpt>
      <trkpt lat="47.619846" lon="1.9231572">
        <ele>171</ele>
        <time>2021-10-28T07:42:29Z</time>
      </trkpt>
      <trkpt lat="47.61985" lon="1.9231691">
        <ele>171</ele>
        <time>2021-10-28T07:42:30Z</time>
      </trkpt>
      <trkpt lat="47.619854" lon="1.9231851">
        <ele>170</ele>
        <time>2021-10-28T07:42:31Z</time>
      </trkpt>
      <trkpt lat="47.619865" lon="1.9231954">
        <ele>170</ele>
        <time>2021-10-28T07:42:32Z</time>
      </trkpt>
      <trkpt lat="47.619877" lon="1.9232073">
        <ele>170</ele>
        <time>2021-10-28T07:42:33Z</time>
      </trkpt>
      <trkpt lat="47.619884" lon="1.923216">
        <ele>170</ele>
        <time>2021-10-28T07:42:34Z</time>
      </trkpt>
      <trkpt lat="47.61989" lon="1.9232296">
        <ele>170</ele>
        <time>2021-10-28T07:42:35Z</time>
      </trkpt>
      <trkpt lat="47.6199" lon="1.9232404">
        <ele>170</ele>
        <time>2021-10-28T07:42:36Z</time>
      </trkpt>
      <trkpt lat="47.619907" lon="1.9232572">
        <ele>171</ele>
        <time>2021-10-28T07:42:37Z</time>
      </trkpt>
      <trkpt lat="47.61992" lon="1.9232719">
        <ele>172</ele>
        <time>2021-10-28T07:42:38Z</time>
      </trkpt>
      <trkpt lat="47.61993" lon="1.9232807">
        <ele>171</ele>
        <time>2021-10-28T07:42:39Z</time>
      </trkpt>
      <trkpt lat="47.61994" lon="1.9232917">
        <ele>171</ele>
        <time>2021-10-28T07:42:40Z</time>
      </trkpt>
      <trkpt lat="47.61995" lon="1.9233004">
        <ele>172</ele>
        <time>2021-10-28T07:42:41Z</time>
      </trkpt>
      <trkpt lat="47.61996" lon="1.9233109">
        <ele>172</ele>
        <time>2021-10-28T07:42:42Z</time>
      </trkpt>
      <trkpt lat="47.619972" lon="1.9233204">
        <ele>172</ele>
        <time>2021-10-28T07:42:43Z</time>
      </trkpt>
      <trkpt lat="47.619984" lon="1.9233307">
        <ele>172</ele>
        <time>2021-10-28T07:42:44Z</time>
      </trkpt>
      <trkpt lat="47.619995" lon="1.9233414">
        <ele>172</ele>
        <time>2021-10-28T07:42:45Z</time>
      </trkpt>
      <trkpt lat="47.620007" lon="1.9233521">
        <ele>172</ele>
        <time>2021-10-28T07:42:46Z</time>
      </trkpt>
      <trkpt lat="47.620018" lon="1.9233675">
        <ele>173</ele>
        <time>2021-10-28T07:42:47Z</time>
      </trkpt>
      <trkpt lat="47.62003" lon="1.9233817">
        <ele>173</ele>
        <time>2021-10-28T07:42:48Z</time>
      </trkpt>
      <trkpt lat="47.620037" lon="1.923397">
        <ele>173</ele>
        <time>2021-10-28T07:42:49Z</time>
      </trkpt>
      <trkpt lat="47.620045" lon="1.9234047">
        <ele>173</ele>
        <time>2021-10-28T07:42:50Z</time>
      </trkpt>
      <trkpt lat="47.620052" lon="1.9234141">
        <ele>173</ele>
        <time>2021-10-28T07:42:51Z</time>
      </trkpt>
      <trkpt lat="47.620064" lon="1.9234229">
        <ele>172</ele>
        <time>2021-10-28T07:42:52Z</time>
      </trkpt>
      <trkpt lat="47.62007" lon="1.9234327">
        <ele>172</ele>
        <time>2021-10-28T07:42:53Z</time>
      </trkpt>
      <trkpt lat="47.620083" lon="1.923444">
        <ele>172</ele>
        <time>2021-10-28T07:42:54Z</time>
      </trkpt>
      <trkpt lat="47.620094" lon="1.9234518">
        <ele>172</ele>
        <time>2021-10-28T07:42:55Z</time>
      </trkpt>
      <trkpt lat="47.620106" lon="1.923464">
        <ele>173</ele>
        <time>2021-10-28T07:42:56Z</time>
      </trkpt>
      <trkpt lat="47.620117" lon="1.9234782">
        <ele>173</ele>
        <time>2021-10-28T07:42:57Z</time>
      </trkpt>
      <trkpt lat="47.62013" lon="1.9234924">
        <ele>174</ele>
        <time>2021-10-28T07:42:58Z</time>
      </trkpt>
      <trkpt lat="47.620136" lon="1.9235028">
        <ele>173</ele>
        <time>2021-10-28T07:42:59Z</time>
      </trkpt>
      <trkpt lat="47.620144" lon="1.9235063">
        <ele>173</ele>
        <time>2021-10-28T07:43:00Z</time>
      </trkpt>
      <trkpt lat="47.620155" lon="1.9235154">
        <ele>173</ele>
        <time>2021-10-28T07:43:01Z</time>
      </trkpt>
      <trkpt lat="47.620167" lon="1.9235277">
        <ele>173</ele>
        <time>2021-10-28T07:43:02Z</time>
      </trkpt>
      <trkpt lat="47.62018" lon="1.9235337">
        <ele>173</ele>
        <time>2021-10-28T07:43:03Z</time>
      </trkpt>
      <trkpt lat="47.620186" lon="1.923545">
        <ele>173</ele>
        <time>2021-10-28T07:43:04Z</time>
      </trkpt>
      <trkpt lat="47.620193" lon="1.9235556">
        <ele>172</ele>
        <time>2021-10-28T07:43:05Z</time>
      </trkpt>
      <trkpt lat="47.6202" lon="1.92357">
        <ele>171</ele>
        <time>2021-10-28T07:43:06Z</time>
      </trkpt>
      <trkpt lat="47.620213" lon="1.9235808">
        <ele>172</ele>
        <time>2021-10-28T07:43:07Z</time>
      </trkpt>
      <trkpt lat="47.62022" lon="1.9235874">
        <ele>172</ele>
        <time>2021-10-28T07:43:08Z</time>
      </trkpt>
      <trkpt lat="47.620224" lon="1.9235995">
        <ele>172</ele>
        <time>2021-10-28T07:43:09Z</time>
      </trkpt>
      <trkpt lat="47.620235" lon="1.9236053">
        <ele>172</ele>
        <time>2021-10-28T07:43:10Z</time>
      </trkpt>
      <trkpt lat="47.620243" lon="1.9236166">
        <ele>172</ele>
        <time>2021-10-28T07:43:11Z</time>
      </trkpt>
      <trkpt lat="47.620255" lon="1.9236315">
        <ele>172</ele>
        <time>2021-10-28T07:43:12Z</time>
      </trkpt>
      <trkpt lat="47.620262" lon="1.9236429">
        <ele>172</ele>
        <time>2021-10-28T07:43:13Z</time>
      </trkpt>
      <trkpt lat="47.620274" lon="1.9236537">
        <ele>173</ele>
        <time>2021-10-28T07:43:14Z</time>
      </trkpt>
      <trkpt lat="47.62028" lon="1.9236606">
        <ele>173</ele>
        <time>2021-10-28T07:43:15Z</time>
      </trkpt>
      <trkpt lat="47.620293" lon="1.9236641">
        <ele>173</ele>
        <time>2021-10-28T07:43:16Z</time>
      </trkpt>
      <trkpt lat="47.620304" lon="1.9236716">
        <ele>173</ele>
        <time>2021-10-28T07:43:17Z</time>
      </trkpt>
      <trkpt lat="47.62032" lon="1.923675">
        <ele>174</ele>
        <time>2021-10-28T07:43:18Z</time>
      </trkpt>
      <trkpt lat="47.620335" lon="1.9236808">
        <ele>174</ele>
        <time>2021-10-28T07:43:19Z</time>
      </trkpt>
      <trkpt lat="47.620346" lon="1.9236884">
        <ele>174</ele>
        <time>2021-10-28T07:43:20Z</time>
      </trkpt>
      <trkpt lat="47.620358" lon="1.9236965">
        <ele>175</ele>
        <time>2021-10-28T07:43:21Z</time>
      </trkpt>
      <trkpt lat="47.620365" lon="1.9237089">
        <ele>175</ele>
        <time>2021-10-28T07:43:22Z</time>
      </trkpt>
      <trkpt lat="47.620373" lon="1.923714">
        <ele>175</ele>
        <time>2021-10-28T07:43:23Z</time>
      </trkpt>
      <trkpt lat="47.62038" lon="1.9237256">
        <ele>175</ele>
        <time>2021-10-28T07:43:24Z</time>
      </trkpt>
      <trkpt lat="47.620388" lon="1.9237367">
        <ele>175</ele>
        <time>2021-10-28T07:43:25Z</time>
      </trkpt>
      <trkpt lat="47.6204" lon="1.9237485">
        <ele>175</ele>
        <time>2021-10-28T07:43:26Z</time>
      </trkpt>
      <trkpt lat="47.620407" lon="1.923759">
        <ele>175</ele>
        <time>2021-10-28T07:43:27Z</time>
      </trkpt>
      <trkpt lat="47.620415" lon="1.9237684">
        <ele>175</ele>
        <time>2021-10-28T07:43:28Z</time>
      </trkpt>
      <trkpt lat="47.620422" lon="1.9237745">
        <ele>175</ele>
        <time>2021-10-28T07:43:29Z</time>
      </trkpt>
      <trkpt lat="47.620434" lon="1.9237885">
        <ele>176</ele>
        <time>2021-10-28T07:43:30Z</time>
      </trkpt>
      <trkpt lat="47.620445" lon="1.9237975">
        <ele>176</ele>
        <time>2021-10-28T07:43:31Z</time>
      </trkpt>
      <trkpt lat="47.62045" lon="1.9238139">
        <ele>176</ele>
        <time>2021-10-28T07:43:32Z</time>
      </trkpt>
      <trkpt lat="47.62046" lon="1.9238219">
        <ele>176</ele>
        <time>2021-10-28T07:43:33Z</time>
      </trkpt>
      <trkpt lat="47.62047" lon="1.9238269">
        <ele>176</ele>
        <time>2021-10-28T07:43:34Z</time>
      </trkpt>
      <trkpt lat="47.620476" lon="1.923837">
        <ele>177</ele>
        <time>2021-10-28T07:43:35Z</time>
      </trkpt>
      <trkpt lat="47.620487" lon="1.9238465">
        <ele>177</ele>
        <time>2021-10-28T07:43:36Z</time>
      </trkpt>
      <trkpt lat="47.620495" lon="1.9238544">
        <ele>177</ele>
        <time>2021-10-28T07:43:37Z</time>
      </trkpt>
      <trkpt lat="47.620502" lon="1.9238622">
        <ele>177</ele>
        <time>2021-10-28T07:43:38Z</time>
      </trkpt>
      <trkpt lat="47.62051" lon="1.9238676">
        <ele>177</ele>
        <time>2021-10-28T07:43:39Z</time>
      </trkpt>
      <trkpt lat="47.62052" lon="1.9238745">
        <ele>178</ele>
        <time>2021-10-28T07:43:40Z</time>
      </trkpt>
      <trkpt lat="47.62053" lon="1.9238796">
        <ele>178</ele>
        <time>2021-10-28T07:43:41Z</time>
      </trkpt>
      <trkpt lat="47.620533" lon="1.9238818">
        <ele>178</ele>
        <time>2021-10-28T07:43:42Z</time>
      </trkpt>
      <trkpt lat="47.620537" lon="1.9238845">
        <ele>179</ele>
        <time>2021-10-28T07:43:43Z</time>
      </trkpt>
      <trkpt lat="47.62054" lon="1.9238898">
        <ele>179</ele>
        <time>2021-10-28T07:43:44Z</time>
      </trkpt>
      <trkpt lat="47.620544" lon="1.923897">
        <ele>178</ele>
        <time>2021-10-28T07:43:45Z</time>
      </trkpt>
      <trkpt lat="47.620552" lon="1.9239162">
        <ele>178</ele>
        <time>2021-10-28T07:43:46Z</time>
      </trkpt>
      <trkpt lat="47.620564" lon="1.9239321">
        <ele>177</ele>
        <time>2021-10-28T07:43:47Z</time>
      </trkpt>
      <trkpt lat="47.620575" lon="1.9239472">
        <ele>177</ele>
        <time>2021-10-28T07:43:48Z</time>
      </trkpt>
      <trkpt lat="47.62058" lon="1.9239674">
        <ele>177</ele>
        <time>2021-10-28T07:43:49Z</time>
      </trkpt>
      <trkpt lat="47.620594" lon="1.9239825">
        <ele>177</ele>
        <time>2021-10-28T07:43:50Z</time>
      </trkpt>
      <trkpt lat="47.620605" lon="1.9239911">
        <ele>177</ele>
        <time>2021-10-28T07:43:51Z</time>
      </trkpt>
      <trkpt lat="47.62061" lon="1.9240022">
        <ele>177</ele>
        <time>2021-10-28T07:43:52Z</time>
      </trkpt>
      <trkpt lat="47.62062" lon="1.9240141">
        <ele>177</ele>
        <time>2021-10-28T07:43:53Z</time>
      </trkpt>
      <trkpt lat="47.620632" lon="1.9240215">
        <ele>177</ele>
        <time>2021-10-28T07:43:54Z</time>
      </trkpt>
      <trkpt lat="47.62064" lon="1.9240297">
        <ele>177</ele>
        <time>2021-10-28T07:43:55Z</time>
      </trkpt>
      <trkpt lat="47.62065" lon="1.9240348">
        <ele>177</ele>
        <time>2021-10-28T07:43:56Z</time>
      </trkpt>
      <trkpt lat="47.62066" lon="1.9240433">
        <ele>177</ele>
        <time>2021-10-28T07:43:57Z</time>
      </trkpt>
      <trkpt lat="47.620667" lon="1.92405">
        <ele>178</ele>
        <time>2021-10-28T07:43:58Z</time>
      </trkpt>
      <trkpt lat="47.620674" lon="1.924061">
        <ele>178</ele>
        <time>2021-10-28T07:43:59Z</time>
      </trkpt>
      <trkpt lat="47.620686" lon="1.9240695">
        <ele>177</ele>
        <time>2021-10-28T07:44:00Z</time>
      </trkpt>
      <trkpt lat="47.620693" lon="1.9240805">
        <ele>177</ele>
        <time>2021-10-28T07:44:01Z</time>
      </trkpt>
      <trkpt lat="47.620697" lon="1.9240928">
        <ele>178</ele>
        <time>2021-10-28T07:44:02Z</time>
      </trkpt>
      <trkpt lat="47.620705" lon="1.9241005">
        <ele>177</ele>
        <time>2021-10-28T07:44:03Z</time>
      </trkpt>
      <trkpt lat="47.620716" lon="1.9241087">
        <ele>178</ele>
        <time>2021-10-28T07:44:04Z</time>
      </trkpt>
      <trkpt lat="47.620728" lon="1.9241238">
        <ele>178</ele>
        <time>2021-10-28T07:44:05Z</time>
      </trkpt>
      <trkpt lat="47.62074" lon="1.9241338">
        <ele>178</ele>
        <time>2021-10-28T07:44:06Z</time>
      </trkpt>
      <trkpt lat="47.62075" lon="1.9241446">
        <ele>178</ele>
        <time>2021-10-28T07:44:07Z</time>
      </trkpt>
      <trkpt lat="47.620754" lon="1.9241568">
        <ele>178</ele>
        <time>2021-10-28T07:44:08Z</time>
      </trkpt>
      <trkpt lat="47.62076" lon="1.9241629">
        <ele>177</ele>
        <time>2021-10-28T07:44:09Z</time>
      </trkpt>
      <trkpt lat="47.62077" lon="1.924168">
        <ele>177</ele>
        <time>2021-10-28T07:44:10Z</time>
      </trkpt>
      <trkpt lat="47.620773" lon="1.9241774">
        <ele>177</ele>
        <time>2021-10-28T07:44:11Z</time>
      </trkpt>
      <trkpt lat="47.62078" lon="1.9241887">
        <ele>177</ele>
        <time>2021-10-28T07:44:12Z</time>
      </trkpt>
      <trkpt lat="47.62079" lon="1.9241973">
        <ele>176</ele>
        <time>2021-10-28T07:44:13Z</time>
      </trkpt>
      <trkpt lat="47.6208" lon="1.9242039">
        <ele>176</ele>
        <time>2021-10-28T07:44:14Z</time>
      </trkpt>
      <trkpt lat="47.620808" lon="1.924207">
        <ele>175</ele>
        <time>2021-10-28T07:44:15Z</time>
      </trkpt>
      <trkpt lat="47.620815" lon="1.9242105">
        <ele>175</ele>
        <time>2021-10-28T07:44:16Z</time>
      </trkpt>
      <trkpt lat="47.620823" lon="1.9242175">
        <ele>175</ele>
        <time>2021-10-28T07:44:17Z</time>
      </trkpt>
      <trkpt lat="47.62083" lon="1.924227">
        <ele>175</ele>
        <time>2021-10-28T07:44:18Z</time>
      </trkpt>
      <trkpt lat="47.620842" lon="1.9242365">
        <ele>175</ele>
        <time>2021-10-28T07:44:19Z</time>
      </trkpt>
      <trkpt lat="47.620853" lon="1.9242411">
        <ele>175</ele>
        <time>2021-10-28T07:44:20Z</time>
      </trkpt>
      <trkpt lat="47.62086" lon="1.924247">
        <ele>175</ele>
        <time>2021-10-28T07:44:21Z</time>
      </trkpt>
      <trkpt lat="47.620865" lon="1.9242519">
        <ele>175</ele>
        <time>2021-10-28T07:44:22Z</time>
      </trkpt>
      <trkpt lat="47.620876" lon="1.9242622">
        <ele>174</ele>
        <time>2021-10-28T07:44:23Z</time>
      </trkpt>
      <trkpt lat="47.62088" lon="1.924272">
        <ele>173</ele>
        <time>2021-10-28T07:44:24Z</time>
      </trkpt>
      <trkpt lat="47.620888" lon="1.9242816">
        <ele>173</ele>
        <time>2021-10-28T07:44:25Z</time>
      </trkpt>
      <trkpt lat="47.62089" lon="1.9242946">
        <ele>172</ele>
        <time>2021-10-28T07:44:26Z</time>
      </trkpt>
      <trkpt lat="47.620903" lon="1.9243032">
        <ele>173</ele>
        <time>2021-10-28T07:44:27Z</time>
      </trkpt>
      <trkpt lat="47.620914" lon="1.9243134">
        <ele>173</ele>
        <time>2021-10-28T07:44:28Z</time>
      </trkpt>
      <trkpt lat="47.620922" lon="1.9243231">
        <ele>173</ele>
        <time>2021-10-28T07:44:29Z</time>
      </trkpt>
      <trkpt lat="47.620934" lon="1.924333">
        <ele>173</ele>
        <time>2021-10-28T07:44:30Z</time>
      </trkpt>
      <trkpt lat="47.62094" lon="1.9243479">
        <ele>173</ele>
        <time>2021-10-28T07:44:31Z</time>
      </trkpt>
      <trkpt lat="47.62095" lon="1.9243572">
        <ele>173</ele>
        <time>2021-10-28T07:44:32Z</time>
      </trkpt>
      <trkpt lat="47.620956" lon="1.9243696">
        <ele>174</ele>
        <time>2021-10-28T07:44:33Z</time>
      </trkpt>
      <trkpt lat="47.620968" lon="1.9243844">
        <ele>174</ele>
        <time>2021-10-28T07:44:34Z</time>
      </trkpt>
      <trkpt lat="47.620975" lon="1.924397">
        <ele>173</ele>
        <time>2021-10-28T07:44:35Z</time>
      </trkpt>
      <trkpt lat="47.620987" lon="1.9244066">
        <ele>174</ele>
        <time>2021-10-28T07:44:36Z</time>
      </trkpt>
      <trkpt lat="47.621002" lon="1.9244184">
        <ele>174</ele>
        <time>2021-10-28T07:44:37Z</time>
      </trkpt>
      <trkpt lat="47.62101" lon="1.9244303">
        <ele>174</ele>
        <time>2021-10-28T07:44:38Z</time>
      </trkpt>
      <trkpt lat="47.621017" lon="1.9244452">
        <ele>173</ele>
        <time>2021-10-28T07:44:39Z</time>
      </trkpt>
      <trkpt lat="47.62103" lon="1.9244589">
        <ele>173</ele>
        <time>2021-10-28T07:44:40Z</time>
      </trkpt>
      <trkpt lat="47.621044" lon="1.9244684">
        <ele>173</ele>
        <time>2021-10-28T07:44:41Z</time>
      </trkpt>
      <trkpt lat="47.62106" lon="1.9244796">
        <ele>173</ele>
        <time>2021-10-28T07:44:42Z</time>
      </trkpt>
      <trkpt lat="47.62107" lon="1.9244967">
        <ele>174</ele>
        <time>2021-10-28T07:44:43Z</time>
      </trkpt>
      <trkpt lat="47.621082" lon="1.9245077">
        <ele>174</ele>
        <time>2021-10-28T07:44:44Z</time>
      </trkpt>
      <trkpt lat="47.621094" lon="1.924514">
        <ele>174</ele>
        <time>2021-10-28T07:44:45Z</time>
      </trkpt>
      <trkpt lat="47.621105" lon="1.9245248">
        <ele>174</ele>
        <time>2021-10-28T07:44:46Z</time>
      </trkpt>
      <trkpt lat="47.621117" lon="1.9245346">
        <ele>174</ele>
        <time>2021-10-28T07:44:47Z</time>
      </trkpt>
      <trkpt lat="47.621128" lon="1.9245403">
        <ele>174</ele>
        <time>2021-10-28T07:44:48Z</time>
      </trkpt>
      <trkpt lat="47.62114" lon="1.924552">
        <ele>175</ele>
        <time>2021-10-28T07:44:49Z</time>
      </trkpt>
      <trkpt lat="47.62115" lon="1.9245669">
        <ele>175</ele>
        <time>2021-10-28T07:44:50Z</time>
      </trkpt>
      <trkpt lat="47.62116" lon="1.9245772">
        <ele>175</ele>
        <time>2021-10-28T07:44:51Z</time>
      </trkpt>
      <trkpt lat="47.62117" lon="1.9245865">
        <ele>175</ele>
        <time>2021-10-28T07:44:52Z</time>
      </trkpt>
      <trkpt lat="47.621174" lon="1.9245948">
        <ele>174</ele>
        <time>2021-10-28T07:44:53Z</time>
      </trkpt>
      <trkpt lat="47.62118" lon="1.924602">
        <ele>174</ele>
        <time>2021-10-28T07:44:54Z</time>
      </trkpt>
      <trkpt lat="47.621193" lon="1.9246153">
        <ele>174</ele>
        <time>2021-10-28T07:44:55Z</time>
      </trkpt>
      <trkpt lat="47.621197" lon="1.9246258">
        <ele>174</ele>
        <time>2021-10-28T07:44:56Z</time>
      </trkpt>
      <trkpt lat="47.62121" lon="1.9246391">
        <ele>175</ele>
        <time>2021-10-28T07:44:57Z</time>
      </trkpt>
      <trkpt lat="47.621223" lon="1.9246507">
        <ele>175</ele>
        <time>2021-10-28T07:44:58Z</time>
      </trkpt>
      <trkpt lat="47.62123" lon="1.9246604">
        <ele>175</ele>
        <time>2021-10-28T07:44:59Z</time>
      </trkpt>
      <trkpt lat="47.62124" lon="1.9246676">
        <ele>175</ele>
        <time>2021-10-28T07:45:00Z</time>
      </trkpt>
      <trkpt lat="47.621246" lon="1.9246781">
        <ele>175</ele>
        <time>2021-10-28T07:45:01Z</time>
      </trkpt>
      <trkpt lat="47.621258" lon="1.9246906">
        <ele>175</ele>
        <time>2021-10-28T07:45:02Z</time>
      </trkpt>
      <trkpt lat="47.621265" lon="1.9246988">
        <ele>175</ele>
        <time>2021-10-28T07:45:03Z</time>
      </trkpt>
      <trkpt lat="47.62128" lon="1.9247038">
        <ele>175</ele>
        <time>2021-10-28T07:45:04Z</time>
      </trkpt>
      <trkpt lat="47.621292" lon="1.9247019">
        <ele>174</ele>
        <time>2021-10-28T07:45:05Z</time>
      </trkpt>
      <trkpt lat="47.6213" lon="1.9247129">
        <ele>175</ele>
        <time>2021-10-28T07:45:06Z</time>
      </trkpt>
      <trkpt lat="47.621315" lon="1.9247192">
        <ele>176</ele>
        <time>2021-10-28T07:45:07Z</time>
      </trkpt>
      <trkpt lat="47.621326" lon="1.9247203">
        <ele>176</ele>
        <time>2021-10-28T07:45:08Z</time>
      </trkpt>
      <trkpt lat="47.621338" lon="1.9247301">
        <ele>176</ele>
        <time>2021-10-28T07:45:09Z</time>
      </trkpt>
      <trkpt lat="47.621346" lon="1.9247398">
        <ele>176</ele>
        <time>2021-10-28T07:45:10Z</time>
      </trkpt>
      <trkpt lat="47.621353" lon="1.9247473">
        <ele>176</ele>
        <time>2021-10-28T07:45:11Z</time>
      </trkpt>
      <trkpt lat="47.62136" lon="1.9247557">
        <ele>176</ele>
        <time>2021-10-28T07:45:12Z</time>
      </trkpt>
      <trkpt lat="47.621372" lon="1.9247622">
        <ele>176</ele>
        <time>2021-10-28T07:45:13Z</time>
      </trkpt>
      <trkpt lat="47.62138" lon="1.9247721">
        <ele>176</ele>
        <time>2021-10-28T07:45:14Z</time>
      </trkpt>
      <trkpt lat="47.62139" lon="1.9247773">
        <ele>175</ele>
        <time>2021-10-28T07:45:15Z</time>
      </trkpt>
      <trkpt lat="47.621403" lon="1.924788">
        <ele>175</ele>
        <time>2021-10-28T07:45:16Z</time>
      </trkpt>
      <trkpt lat="47.621414" lon="1.9247937">
        <ele>175</ele>
        <time>2021-10-28T07:45:17Z</time>
      </trkpt>
      <trkpt lat="47.62142" lon="1.924801">
        <ele>175</ele>
        <time>2021-10-28T07:45:18Z</time>
      </trkpt>
      <trkpt lat="47.62143" lon="1.9248112">
        <ele>175</ele>
        <time>2021-10-28T07:45:19Z</time>
      </trkpt>
      <trkpt lat="47.62144" lon="1.9248185">
        <ele>175</ele>
        <time>2021-10-28T07:45:20Z</time>
      </trkpt>
      <trkpt lat="47.621452" lon="1.9248304">
        <ele>176</ele>
        <time>2021-10-28T07:45:21Z</time>
      </trkpt>
      <trkpt lat="47.62146" lon="1.9248391">
        <ele>176</ele>
        <time>2021-10-28T07:45:22Z</time>
      </trkpt>
      <trkpt lat="47.621468" lon="1.9248518">
        <ele>176</ele>
        <time>2021-10-28T07:45:23Z</time>
      </trkpt>
      <trkpt lat="47.62148" lon="1.9248657">
        <ele>176</ele>
        <time>2021-10-28T07:45:24Z</time>
      </trkpt>
      <trkpt lat="47.62148" lon="1.9248787">
        <ele>176</ele>
        <time>2021-10-28T07:45:25Z</time>
      </trkpt>
      <trkpt lat="47.621487" lon="1.9248877">
        <ele>176</ele>
        <time>2021-10-28T07:45:26Z</time>
      </trkpt>
      <trkpt lat="47.621494" lon="1.9248985">
        <ele>176</ele>
        <time>2021-10-28T07:45:27Z</time>
      </trkpt>
      <trkpt lat="47.621502" lon="1.9249086">
        <ele>176</ele>
        <time>2021-10-28T07:45:28Z</time>
      </trkpt>
      <trkpt lat="47.62151" lon="1.9249228">
        <ele>176</ele>
        <time>2021-10-28T07:45:29Z</time>
      </trkpt>
      <trkpt lat="47.621517" lon="1.9249363">
        <ele>176</ele>
        <time>2021-10-28T07:45:30Z</time>
      </trkpt>
      <trkpt lat="47.621525" lon="1.9249468">
        <ele>176</ele>
        <time>2021-10-28T07:45:31Z</time>
      </trkpt>
      <trkpt lat="47.62153" lon="1.9249588">
        <ele>176</ele>
        <time>2021-10-28T07:45:32Z</time>
      </trkpt>
      <trkpt lat="47.621536" lon="1.9249753">
        <ele>177</ele>
        <time>2021-10-28T07:45:33Z</time>
      </trkpt>
      <trkpt lat="47.621544" lon="1.9249839">
        <ele>176</ele>
        <time>2021-10-28T07:45:34Z</time>
      </trkpt>
      <trkpt lat="47.62155" lon="1.9249938">
        <ele>176</ele>
        <time>2021-10-28T07:45:35Z</time>
      </trkpt>
      <trkpt lat="47.62156" lon="1.9250023">
        <ele>176</ele>
        <time>2021-10-28T07:45:36Z</time>
      </trkpt>
      <trkpt lat="47.621567" lon="1.9250057">
        <ele>176</ele>
        <time>2021-10-28T07:45:37Z</time>
      </trkpt>
      <trkpt lat="47.62158" lon="1.9250152">
        <ele>176</ele>
        <time>2021-10-28T07:45:38Z</time>
      </trkpt>
      <trkpt lat="47.62159" lon="1.925027">
        <ele>176</ele>
        <time>2021-10-28T07:45:39Z</time>
      </trkpt>
      <trkpt lat="47.6216" lon="1.9250317">
        <ele>177</ele>
        <time>2021-10-28T07:45:40Z</time>
      </trkpt>
      <trkpt lat="47.621613" lon="1.9250392">
        <ele>176</ele>
        <time>2021-10-28T07:45:41Z</time>
      </trkpt>
      <trkpt lat="47.621616" lon="1.9250478">
        <ele>176</ele>
        <time>2021-10-28T07:45:42Z</time>
      </trkpt>
      <trkpt lat="47.621624" lon="1.9250616">
        <ele>176</ele>
        <time>2021-10-28T07:45:43Z</time>
      </trkpt>
      <trkpt lat="47.621635" lon="1.9250679">
        <ele>177</ele>
        <time>2021-10-28T07:45:44Z</time>
      </trkpt>
      <trkpt lat="47.621647" lon="1.9250762">
        <ele>176</ele>
        <time>2021-10-28T07:45:45Z</time>
      </trkpt>
      <trkpt lat="47.62166" lon="1.925082">
        <ele>176</ele>
        <time>2021-10-28T07:45:46Z</time>
      </trkpt>
      <trkpt lat="47.621674" lon="1.9250895">
        <ele>176</ele>
        <time>2021-10-28T07:45:47Z</time>
      </trkpt>
      <trkpt lat="47.62168" lon="1.9250993">
        <ele>176</ele>
        <time>2021-10-28T07:45:48Z</time>
      </trkpt>
      <trkpt lat="47.621693" lon="1.9251065">
        <ele>176</ele>
        <time>2021-10-28T07:45:49Z</time>
      </trkpt>
      <trkpt lat="47.621704" lon="1.9251148">
        <ele>176</ele>
        <time>2021-10-28T07:45:50Z</time>
      </trkpt>
      <trkpt lat="47.62171" lon="1.9251251">
        <ele>177</ele>
        <time>2021-10-28T07:45:51Z</time>
      </trkpt>
      <trkpt lat="47.621716" lon="1.9251356">
        <ele>177</ele>
        <time>2021-10-28T07:45:52Z</time>
      </trkpt>
      <trkpt lat="47.621723" lon="1.9251435">
        <ele>177</ele>
        <time>2021-10-28T07:45:53Z</time>
      </trkpt>
      <trkpt lat="47.621735" lon="1.9251536">
        <ele>177</ele>
        <time>2021-10-28T07:45:54Z</time>
      </trkpt>
      <trkpt lat="47.62174" lon="1.9251677">
        <ele>176</ele>
        <time>2021-10-28T07:45:55Z</time>
      </trkpt>
      <trkpt lat="47.62175" lon="1.9251814">
        <ele>176</ele>
        <time>2021-10-28T07:45:56Z</time>
      </trkpt>
      <trkpt lat="47.621758" lon="1.9251907">
        <ele>177</ele>
        <time>2021-10-28T07:45:57Z</time>
      </trkpt>
      <trkpt lat="47.621773" lon="1.925202">
        <ele>177</ele>
        <time>2021-10-28T07:45:58Z</time>
      </trkpt>
      <trkpt lat="47.62178" lon="1.9252119">
        <ele>176</ele>
        <time>2021-10-28T07:45:59Z</time>
      </trkpt>
      <trkpt lat="47.621788" lon="1.9252213">
        <ele>177</ele>
        <time>2021-10-28T07:46:00Z</time>
      </trkpt>
      <trkpt lat="47.6218" lon="1.9252282">
        <ele>176</ele>
        <time>2021-10-28T07:46:01Z</time>
      </trkpt>
      <trkpt lat="47.621807" lon="1.9252338">
        <ele>176</ele>
        <time>2021-10-28T07:46:02Z</time>
      </trkpt>
      <trkpt lat="47.62182" lon="1.9252391">
        <ele>176</ele>
        <time>2021-10-28T07:46:03Z</time>
      </trkpt>
      <trkpt lat="47.621826" lon="1.9252446">
        <ele>176</ele>
        <time>2021-10-28T07:46:04Z</time>
      </trkpt>
      <trkpt lat="47.621834" lon="1.9252486">
        <ele>176</ele>
        <time>2021-10-28T07:46:05Z</time>
      </trkpt>
      <trkpt lat="47.621838" lon="1.9252579">
        <ele>176</ele>
        <time>2021-10-28T07:46:06Z</time>
      </trkpt>
      <trkpt lat="47.62185" lon="1.9252615">
        <ele>176</ele>
        <time>2021-10-28T07:46:07Z</time>
      </trkpt>
      <trkpt lat="47.621864" lon="1.9252656">
        <ele>174</ele>
        <time>2021-10-28T07:46:08Z</time>
      </trkpt>
      <trkpt lat="47.621872" lon="1.9252759">
        <ele>174</ele>
        <time>2021-10-28T07:46:09Z</time>
      </trkpt>
      <trkpt lat="47.62188" lon="1.9252865">
        <ele>173</ele>
        <time>2021-10-28T07:46:10Z</time>
      </trkpt>
      <trkpt lat="47.621887" lon="1.9252969">
        <ele>172</ele>
        <time>2021-10-28T07:46:11Z</time>
      </trkpt>
      <trkpt lat="47.621902" lon="1.9253067">
        <ele>172</ele>
        <time>2021-10-28T07:46:12Z</time>
      </trkpt>
      <trkpt lat="47.621906" lon="1.925318">
        <ele>172</ele>
        <time>2021-10-28T07:46:13Z</time>
      </trkpt>
      <trkpt lat="47.621918" lon="1.9253262">
        <ele>172</ele>
        <time>2021-10-28T07:46:14Z</time>
      </trkpt>
      <trkpt lat="47.621925" lon="1.92534">
        <ele>172</ele>
        <time>2021-10-28T07:46:15Z</time>
      </trkpt>
      <trkpt lat="47.621933" lon="1.9253513">
        <ele>172</ele>
        <time>2021-10-28T07:46:16Z</time>
      </trkpt>
      <trkpt lat="47.621944" lon="1.925359">
        <ele>172</ele>
        <time>2021-10-28T07:46:17Z</time>
      </trkpt>
      <trkpt lat="47.621956" lon="1.92537">
        <ele>171</ele>
        <time>2021-10-28T07:46:18Z</time>
      </trkpt>
      <trkpt lat="47.621964" lon="1.9253803">
        <ele>171</ele>
        <time>2021-10-28T07:46:19Z</time>
      </trkpt>
      <trkpt lat="47.621975" lon="1.9253974">
        <ele>172</ele>
        <time>2021-10-28T07:46:20Z</time>
      </trkpt>
      <trkpt lat="47.621986" lon="1.9254093">
        <ele>172</ele>
        <time>2021-10-28T07:46:21Z</time>
      </trkpt>
      <trkpt lat="47.621994" lon="1.925413">
        <ele>173</ele>
        <time>2021-10-28T07:46:22Z</time>
      </trkpt>
      <trkpt lat="47.622005" lon="1.9254233">
        <ele>173</ele>
        <time>2021-10-28T07:46:23Z</time>
      </trkpt>
      <trkpt lat="47.622017" lon="1.9254353">
        <ele>174</ele>
        <time>2021-10-28T07:46:24Z</time>
      </trkpt>
      <trkpt lat="47.622025" lon="1.9254463">
        <ele>174</ele>
        <time>2021-10-28T07:46:25Z</time>
      </trkpt>
      <trkpt lat="47.622032" lon="1.925454">
        <ele>174</ele>
        <time>2021-10-28T07:46:26Z</time>
      </trkpt>
      <trkpt lat="47.62204" lon="1.9254646">
        <ele>174</ele>
        <time>2021-10-28T07:46:27Z</time>
      </trkpt>
      <trkpt lat="47.62205" lon="1.9254758">
        <ele>175</ele>
        <time>2021-10-28T07:46:28Z</time>
      </trkpt>
      <trkpt lat="47.622063" lon="1.9254864">
        <ele>175</ele>
        <time>2021-10-28T07:46:29Z</time>
      </trkpt>
      <trkpt lat="47.622074" lon="1.9254959">
        <ele>175</ele>
        <time>2021-10-28T07:46:30Z</time>
      </trkpt>
      <trkpt lat="47.622086" lon="1.925506">
        <ele>175</ele>
        <time>2021-10-28T07:46:31Z</time>
      </trkpt>
      <trkpt lat="47.622097" lon="1.9255111">
        <ele>175</ele>
        <time>2021-10-28T07:46:32Z</time>
      </trkpt>
      <trkpt lat="47.622105" lon="1.9255171">
        <ele>176</ele>
        <time>2021-10-28T07:46:33Z</time>
      </trkpt>
      <trkpt lat="47.622116" lon="1.9255235">
        <ele>176</ele>
        <time>2021-10-28T07:46:34Z</time>
      </trkpt>
      <trkpt lat="47.622128" lon="1.9255316">
        <ele>176</ele>
        <time>2021-10-28T07:46:35Z</time>
      </trkpt>
      <trkpt lat="47.622135" lon="1.9255402">
        <ele>176</ele>
        <time>2021-10-28T07:46:36Z</time>
      </trkpt>
      <trkpt lat="47.622147" lon="1.9255484">
        <ele>176</ele>
        <time>2021-10-28T07:46:37Z</time>
      </trkpt>
      <trkpt lat="47.62215" lon="1.9255589">
        <ele>176</ele>
        <time>2021-10-28T07:46:38Z</time>
      </trkpt>
      <trkpt lat="47.62216" lon="1.9255672">
        <ele>176</ele>
        <time>2021-10-28T07:46:39Z</time>
      </trkpt>
      <trkpt lat="47.622173" lon="1.9255741">
        <ele>176</ele>
        <time>2021-10-28T07:46:40Z</time>
      </trkpt>
      <trkpt lat="47.62218" lon="1.9255837">
        <ele>176</ele>
        <time>2021-10-28T07:46:41Z</time>
      </trkpt>
      <trkpt lat="47.62219" lon="1.9255939">
        <ele>176</ele>
        <time>2021-10-28T07:46:42Z</time>
      </trkpt>
      <trkpt lat="47.622196" lon="1.9256009">
        <ele>176</ele>
        <time>2021-10-28T07:46:43Z</time>
      </trkpt>
      <trkpt lat="47.622204" lon="1.9256122">
        <ele>175</ele>
        <time>2021-10-28T07:46:44Z</time>
      </trkpt>
      <trkpt lat="47.62221" lon="1.9256219">
        <ele>175</ele>
        <time>2021-10-28T07:46:45Z</time>
      </trkpt>
      <trkpt lat="47.62222" lon="1.9256283">
        <ele>175</ele>
        <time>2021-10-28T07:46:46Z</time>
      </trkpt>
      <trkpt lat="47.622227" lon="1.9256423">
        <ele>175</ele>
        <time>2021-10-28T07:46:47Z</time>
      </trkpt>
      <trkpt lat="47.62224" lon="1.9256524">
        <ele>176</ele>
        <time>2021-10-28T07:46:48Z</time>
      </trkpt>
      <trkpt lat="47.622246" lon="1.9256649">
        <ele>176</ele>
        <time>2021-10-28T07:46:49Z</time>
      </trkpt>
      <trkpt lat="47.622253" lon="1.9256765">
        <ele>176</ele>
        <time>2021-10-28T07:46:50Z</time>
      </trkpt>
      <trkpt lat="47.622265" lon="1.9256866">
        <ele>176</ele>
        <time>2021-10-28T07:46:51Z</time>
      </trkpt>
      <trkpt lat="47.622276" lon="1.9256982">
        <ele>176</ele>
        <time>2021-10-28T07:46:52Z</time>
      </trkpt>
      <trkpt lat="47.622288" lon="1.9257125">
        <ele>176</ele>
        <time>2021-10-28T07:46:53Z</time>
      </trkpt>
      <trkpt lat="47.622295" lon="1.9257239">
        <ele>176</ele>
        <time>2021-10-28T07:46:54Z</time>
      </trkpt>
      <trkpt lat="47.622307" lon="1.9257364">
        <ele>176</ele>
        <time>2021-10-28T07:46:55Z</time>
      </trkpt>
      <trkpt lat="47.622314" lon="1.9257532">
        <ele>176</ele>
        <time>2021-10-28T07:46:56Z</time>
      </trkpt>
      <trkpt lat="47.62232" lon="1.9257662">
        <ele>176</ele>
        <time>2021-10-28T07:46:57Z</time>
      </trkpt>
      <trkpt lat="47.622322" lon="1.9257745">
        <ele>176</ele>
        <time>2021-10-28T07:46:58Z</time>
      </trkpt>
      <trkpt lat="47.622334" lon="1.9257838">
        <ele>176</ele>
        <time>2021-10-28T07:46:59Z</time>
      </trkpt>
      <trkpt lat="47.622337" lon="1.9257948">
        <ele>176</ele>
        <time>2021-10-28T07:47:00Z</time>
      </trkpt>
      <trkpt lat="47.622345" lon="1.9258065">
        <ele>176</ele>
        <time>2021-10-28T07:47:01Z</time>
      </trkpt>
      <trkpt lat="47.622353" lon="1.925818">
        <ele>176</ele>
        <time>2021-10-28T07:47:02Z</time>
      </trkpt>
      <trkpt lat="47.622356" lon="1.9258299">
        <ele>176</ele>
        <time>2021-10-28T07:47:03Z</time>
      </trkpt>
      <trkpt lat="47.622368" lon="1.9258403">
        <ele>176</ele>
        <time>2021-10-28T07:47:04Z</time>
      </trkpt>
      <trkpt lat="47.622375" lon="1.9258507">
        <ele>177</ele>
        <time>2021-10-28T07:47:05Z</time>
      </trkpt>
      <trkpt lat="47.622387" lon="1.925859">
        <ele>177</ele>
        <time>2021-10-28T07:47:06Z</time>
      </trkpt>
      <trkpt lat="47.6224" lon="1.9258703">
        <ele>178</ele>
        <time>2021-10-28T07:47:07Z</time>
      </trkpt>
      <trkpt lat="47.62241" lon="1.925878">
        <ele>177</ele>
        <time>2021-10-28T07:47:08Z</time>
      </trkpt>
      <trkpt lat="47.622417" lon="1.9258835">
        <ele>177</ele>
        <time>2021-10-28T07:47:09Z</time>
      </trkpt>
      <trkpt lat="47.62243" lon="1.9258908">
        <ele>178</ele>
        <time>2021-10-28T07:47:10Z</time>
      </trkpt>
      <trkpt lat="47.62244" lon="1.9258978">
        <ele>178</ele>
        <time>2021-10-28T07:47:11Z</time>
      </trkpt>
      <trkpt lat="47.622448" lon="1.9259026">
        <ele>177</ele>
        <time>2021-10-28T07:47:12Z</time>
      </trkpt>
      <trkpt lat="47.622456" lon="1.9259075">
        <ele>177</ele>
        <time>2021-10-28T07:47:13Z</time>
      </trkpt>
      <trkpt lat="47.622463" lon="1.9259168">
        <ele>177</ele>
        <time>2021-10-28T07:47:14Z</time>
      </trkpt>
      <trkpt lat="47.62247" lon="1.9259267">
        <ele>177</ele>
        <time>2021-10-28T07:47:15Z</time>
      </trkpt>
      <trkpt lat="47.622475" lon="1.9259267">
        <ele>176</ele>
        <time>2021-10-28T07:47:16Z</time>
      </trkpt>
      <trkpt lat="47.62248" lon="1.9259233">
        <ele>176</ele>
        <time>2021-10-28T07:47:17Z</time>
      </trkpt>
      <trkpt lat="47.622482" lon="1.9259228">
        <ele>176</ele>
        <time>2021-10-28T07:47:18Z</time>
      </trkpt>
      <trkpt lat="47.622482" lon="1.9259224">
        <ele>176</ele>
        <time>2021-10-28T07:47:19Z</time>
      </trkpt>
      <trkpt lat="47.622482" lon="1.9259224">
        <ele>176</ele>
        <time>2021-10-28T07:47:20Z</time>
      </trkpt>
    </trkseg>
    <trkseg>
      <trkpt lat="47.622482" lon="1.9259224">
        <ele>176</ele>
        <time>2021-10-28T07:47:20Z</time>
      </trkpt>
      <trkpt lat="47.62252" lon="1.9259661">
        <ele>175</ele>
        <time>2021-10-28T07:47:35Z</time>
      </trkpt>
      <trkpt lat="47.622528" lon="1.9259772">
        <ele>176</ele>
        <time>2021-10-28T07:47:36Z</time>
      </trkpt>
      <trkpt lat="47.622536" lon="1.9259863">
        <ele>176</ele>
        <time>2021-10-28T07:47:37Z</time>
      </trkpt>
      <trkpt lat="47.622543" lon="1.9259931">
        <ele>175</ele>
        <time>2021-10-28T07:47:38Z</time>
      </trkpt>
      <trkpt lat="47.622555" lon="1.9260013">
        <ele>175</ele>
        <time>2021-10-28T07:47:39Z</time>
      </trkpt>
      <trkpt lat="47.622562" lon="1.9260116">
        <ele>175</ele>
        <time>2021-10-28T07:47:40Z</time>
      </trkpt>
      <trkpt lat="47.622574" lon="1.9260182">
        <ele>175</ele>
        <time>2021-10-28T07:47:41Z</time>
      </trkpt>
      <trkpt lat="47.62258" lon="1.926027">
        <ele>174</ele>
        <time>2021-10-28T07:47:42Z</time>
      </trkpt>
      <trkpt lat="47.62259" lon="1.9260334">
        <ele>175</ele>
        <time>2021-10-28T07:47:43Z</time>
      </trkpt>
      <trkpt lat="47.622597" lon="1.9260424">
        <ele>174</ele>
        <time>2021-10-28T07:47:44Z</time>
      </trkpt>
      <trkpt lat="47.62261" lon="1.9260485">
        <ele>174</ele>
        <time>2021-10-28T07:47:45Z</time>
      </trkpt>
      <trkpt lat="47.622616" lon="1.9260539">
        <ele>174</ele>
        <time>2021-10-28T07:47:46Z</time>
      </trkpt>
      <trkpt lat="47.622623" lon="1.9260643">
        <ele>174</ele>
        <time>2021-10-28T07:47:47Z</time>
      </trkpt>
      <trkpt lat="47.622627" lon="1.9260733">
        <ele>174</ele>
        <time>2021-10-28T07:47:48Z</time>
      </trkpt>
      <trkpt lat="47.62263" lon="1.9260825">
        <ele>174</ele>
        <time>2021-10-28T07:47:49Z</time>
      </trkpt>
      <trkpt lat="47.62263" lon="1.9260843">
        <ele>174</ele>
        <time>2021-10-28T07:47:50Z</time>
      </trkpt>
      <trkpt lat="47.62263" lon="1.9260839">
        <ele>173</ele>
        <time>2021-10-28T07:47:51Z</time>
      </trkpt>
      <trkpt lat="47.62263" lon="1.926084">
        <ele>173</ele>
        <time>2021-10-28T07:47:52Z</time>
      </trkpt>
      <trkpt lat="47.62263" lon="1.9260838">
        <ele>173</ele>
        <time>2021-10-28T07:47:53Z</time>
      </trkpt>
      <trkpt lat="47.62263" lon="1.9260838">
        <ele>173</ele>
        <time>2021-10-28T07:47:53Z</time>
      </trkpt>
    </trkseg>
    <trkseg>
      <trkpt lat="47.62263" lon="1.9260838">
        <ele>173</ele>
        <time>2021-10-28T07:47:53Z</time>
      </trkpt>
      <trkpt lat="47.622665" lon="1.9261243">
        <ele>172</ele>
        <time>2021-10-28T07:48:11Z</time>
      </trkpt>
      <trkpt lat="47.622673" lon="1.9261377">
        <ele>173</ele>
        <time>2021-10-28T07:48:12Z</time>
      </trkpt>
      <trkpt lat="47.622684" lon="1.9261433">
        <ele>173</ele>
        <time>2021-10-28T07:48:13Z</time>
      </trkpt>
      <trkpt lat="47.622692" lon="1.9261509">
        <ele>173</ele>
        <time>2021-10-28T07:48:14Z</time>
      </trkpt>
      <trkpt lat="47.622704" lon="1.9261624">
        <ele>173</ele>
        <time>2021-10-28T07:48:15Z</time>
      </trkpt>
      <trkpt lat="47.622715" lon="1.9261732">
        <ele>174</ele>
        <time>2021-10-28T07:48:16Z</time>
      </trkpt>
      <trkpt lat="47.622723" lon="1.926187">
        <ele>174</ele>
        <time>2021-10-28T07:48:17Z</time>
      </trkpt>
      <trkpt lat="47.622726" lon="1.9261965">
        <ele>174</ele>
        <time>2021-10-28T07:48:18Z</time>
      </trkpt>
      <trkpt lat="47.62274" lon="1.9261986">
        <ele>174</ele>
        <time>2021-10-28T07:48:19Z</time>
      </trkpt>
      <trkpt lat="47.622746" lon="1.9262087">
        <ele>174</ele>
        <time>2021-10-28T07:48:20Z</time>
      </trkpt>
      <trkpt lat="47.622753" lon="1.9262216">
        <ele>174</ele>
        <time>2021-10-28T07:48:21Z</time>
      </trkpt>
      <trkpt lat="47.622757" lon="1.926233">
        <ele>174</ele>
        <time>2021-10-28T07:48:22Z</time>
      </trkpt>
      <trkpt lat="47.622765" lon="1.9262426">
        <ele>173</ele>
        <time>2021-10-28T07:48:23Z</time>
      </trkpt>
      <trkpt lat="47.62277" lon="1.9262522">
        <ele>173</ele>
        <time>2021-10-28T07:48:24Z</time>
      </trkpt>
      <trkpt lat="47.622776" lon="1.9262636">
        <ele>173</ele>
        <time>2021-10-28T07:48:25Z</time>
      </trkpt>
      <trkpt lat="47.622787" lon="1.926265">
        <ele>172</ele>
        <time>2021-10-28T07:48:26Z</time>
      </trkpt>
      <trkpt lat="47.6228" lon="1.9262714">
        <ele>172</ele>
        <time>2021-10-28T07:48:27Z</time>
      </trkpt>
      <trkpt lat="47.62281" lon="1.9262718">
        <ele>172</ele>
        <time>2021-10-28T07:48:28Z</time>
      </trkpt>
      <trkpt lat="47.622814" lon="1.926278">
        <ele>172</ele>
        <time>2021-10-28T07:48:29Z</time>
      </trkpt>
      <trkpt lat="47.622826" lon="1.9262762">
        <ele>172</ele>
        <time>2021-10-28T07:48:30Z</time>
      </trkpt>
      <trkpt lat="47.622833" lon="1.9262892">
        <ele>172</ele>
        <time>2021-10-28T07:48:31Z</time>
      </trkpt>
      <trkpt lat="47.622845" lon="1.9262959">
        <ele>172</ele>
        <time>2021-10-28T07:48:32Z</time>
      </trkpt>
      <trkpt lat="47.622852" lon="1.9263071">
        <ele>172</ele>
        <time>2021-10-28T07:48:33Z</time>
      </trkpt>
      <trkpt lat="47.62286" lon="1.9263166">
        <ele>172</ele>
        <time>2021-10-28T07:48:34Z</time>
      </trkpt>
      <trkpt lat="47.62287" lon="1.9263242">
        <ele>172</ele>
        <time>2021-10-28T07:48:35Z</time>
      </trkpt>
      <trkpt lat="47.622883" lon="1.9263376">
        <ele>172</ele>
        <time>2021-10-28T07:48:36Z</time>
      </trkpt>
      <trkpt lat="47.6229" lon="1.9263496">
        <ele>172</ele>
        <time>2021-10-28T07:48:37Z</time>
      </trkpt>
      <trkpt lat="47.62291" lon="1.9263594">
        <ele>172</ele>
        <time>2021-10-28T07:48:38Z</time>
      </trkpt>
      <trkpt lat="47.62292" lon="1.9263732">
        <ele>172</ele>
        <time>2021-10-28T07:48:39Z</time>
      </trkpt>
      <trkpt lat="47.622932" lon="1.9263884">
        <ele>172</ele>
        <time>2021-10-28T07:48:40Z</time>
      </trkpt>
      <trkpt lat="47.622936" lon="1.9264033">
        <ele>172</ele>
        <time>2021-10-28T07:48:41Z</time>
      </trkpt>
      <trkpt lat="47.622948" lon="1.9264152">
        <ele>171</ele>
        <time>2021-10-28T07:48:42Z</time>
      </trkpt>
      <trkpt lat="47.622955" lon="1.9264255">
        <ele>171</ele>
        <time>2021-10-28T07:48:43Z</time>
      </trkpt>
      <trkpt lat="47.622963" lon="1.9264363">
        <ele>172</ele>
        <time>2021-10-28T07:48:44Z</time>
      </trkpt>
      <trkpt lat="47.62297" lon="1.9264497">
        <ele>171</ele>
        <time>2021-10-28T07:48:45Z</time>
      </trkpt>
      <trkpt lat="47.622974" lon="1.9264606">
        <ele>171</ele>
        <time>2021-10-28T07:48:46Z</time>
      </trkpt>
      <trkpt lat="47.622982" lon="1.9264761">
        <ele>171</ele>
        <time>2021-10-28T07:48:47Z</time>
      </trkpt>
      <trkpt lat="47.622997" lon="1.9264852">
        <ele>170</ele>
        <time>2021-10-28T07:48:48Z</time>
      </trkpt>
      <trkpt lat="47.62301" lon="1.9264969">
        <ele>171</ele>
        <time>2021-10-28T07:48:49Z</time>
      </trkpt>
      <trkpt lat="47.62302" lon="1.9265075">
        <ele>171</ele>
        <time>2021-10-28T07:48:50Z</time>
      </trkpt>
      <trkpt lat="47.623035" lon="1.9265208">
        <ele>171</ele>
        <time>2021-10-28T07:48:51Z</time>
      </trkpt>
      <trkpt lat="47.623047" lon="1.9265342">
        <ele>171</ele>
        <time>2021-10-28T07:48:52Z</time>
      </trkpt>
      <trkpt lat="47.623055" lon="1.926545">
        <ele>171</ele>
        <time>2021-10-28T07:48:53Z</time>
      </trkpt>
      <trkpt lat="47.623062" lon="1.9265548">
        <ele>171</ele>
        <time>2021-10-28T07:48:54Z</time>
      </trkpt>
      <trkpt lat="47.623074" lon="1.9265685">
        <ele>171</ele>
        <time>2021-10-28T07:48:55Z</time>
      </trkpt>
      <trkpt lat="47.62308" lon="1.9265914">
        <ele>171</ele>
        <time>2021-10-28T07:48:56Z</time>
      </trkpt>
      <trkpt lat="47.623093" lon="1.9266077">
        <ele>171</ele>
        <time>2021-10-28T07:48:57Z</time>
      </trkpt>
      <trkpt lat="47.62311" lon="1.9266121">
        <ele>170</ele>
        <time>2021-10-28T07:48:58Z</time>
      </trkpt>
      <trkpt lat="47.62312" lon="1.9266248">
        <ele>170</ele>
        <time>2021-10-28T07:48:59Z</time>
      </trkpt>
      <trkpt lat="47.62313" lon="1.9266369">
        <ele>171</ele>
        <time>2021-10-28T07:49:00Z</time>
      </trkpt>
      <trkpt lat="47.623142" lon="1.9266498">
        <ele>171</ele>
        <time>2021-10-28T07:49:01Z</time>
      </trkpt>
      <trkpt lat="47.62315" lon="1.9266676">
        <ele>171</ele>
        <time>2021-10-28T07:49:02Z</time>
      </trkpt>
      <trkpt lat="47.62316" lon="1.9266795">
        <ele>171</ele>
        <time>2021-10-28T07:49:03Z</time>
      </trkpt>
      <trkpt lat="47.623173" lon="1.9266871">
        <ele>171</ele>
        <time>2021-10-28T07:49:04Z</time>
      </trkpt>
      <trkpt lat="47.62318" lon="1.9266944">
        <ele>171</ele>
        <time>2021-10-28T07:49:05Z</time>
      </trkpt>
      <trkpt lat="47.623188" lon="1.9267032">
        <ele>172</ele>
        <time>2021-10-28T07:49:06Z</time>
      </trkpt>
      <trkpt lat="47.6232" lon="1.9267067">
        <ele>172</ele>
        <time>2021-10-28T07:49:07Z</time>
      </trkpt>
      <trkpt lat="47.62321" lon="1.9267107">
        <ele>172</ele>
        <time>2021-10-28T07:49:08Z</time>
      </trkpt>
      <trkpt lat="47.62322" lon="1.9267206">
        <ele>172</ele>
        <time>2021-10-28T07:49:09Z</time>
      </trkpt>
      <trkpt lat="47.623222" lon="1.9267347">
        <ele>173</ele>
        <time>2021-10-28T07:49:10Z</time>
      </trkpt>
      <trkpt lat="47.62323" lon="1.9267449">
        <ele>173</ele>
        <time>2021-10-28T07:49:11Z</time>
      </trkpt>
      <trkpt lat="47.62324" lon="1.9267554">
        <ele>173</ele>
        <time>2021-10-28T07:49:12Z</time>
      </trkpt>
      <trkpt lat="47.623253" lon="1.926761">
        <ele>174</ele>
        <time>2021-10-28T07:49:13Z</time>
      </trkpt>
      <trkpt lat="47.623264" lon="1.9267713">
        <ele>174</ele>
        <time>2021-10-28T07:49:14Z</time>
      </trkpt>
      <trkpt lat="47.623272" lon="1.9267814">
        <ele>174</ele>
        <time>2021-10-28T07:49:15Z</time>
      </trkpt>
      <trkpt lat="47.62328" lon="1.9267915">
        <ele>173</ele>
        <time>2021-10-28T07:49:16Z</time>
      </trkpt>
      <trkpt lat="47.62329" lon="1.9268">
        <ele>173</ele>
        <time>2021-10-28T07:49:17Z</time>
      </trkpt>
      <trkpt lat="47.623302" lon="1.9268031">
        <ele>174</ele>
        <time>2021-10-28T07:49:18Z</time>
      </trkpt>
      <trkpt lat="47.623314" lon="1.9268076">
        <ele>173</ele>
        <time>2021-10-28T07:49:19Z</time>
      </trkpt>
      <trkpt lat="47.62332" lon="1.9268146">
        <ele>173</ele>
        <time>2021-10-28T07:49:20Z</time>
      </trkpt>
      <trkpt lat="47.623333" lon="1.9268192">
        <ele>173</ele>
        <time>2021-10-28T07:49:21Z</time>
      </trkpt>
      <trkpt lat="47.623344" lon="1.9268198">
        <ele>172</ele>
        <time>2021-10-28T07:49:22Z</time>
      </trkpt>
      <trkpt lat="47.62335" lon="1.9268339">
        <ele>171</ele>
        <time>2021-10-28T07:49:23Z</time>
      </trkpt>
      <trkpt lat="47.623356" lon="1.9268476">
        <ele>171</ele>
        <time>2021-10-28T07:49:24Z</time>
      </trkpt>
      <trkpt lat="47.623363" lon="1.926861">
        <ele>171</ele>
        <time>2021-10-28T07:49:25Z</time>
      </trkpt>
      <trkpt lat="47.62337" lon="1.9268765">
        <ele>171</ele>
        <time>2021-10-28T07:49:26Z</time>
      </trkpt>
      <trkpt lat="47.623383" lon="1.926892">
        <ele>170</ele>
        <time>2021-10-28T07:49:27Z</time>
      </trkpt>
      <trkpt lat="47.623394" lon="1.9269053">
        <ele>170</ele>
        <time>2021-10-28T07:49:28Z</time>
      </trkpt>
      <trkpt lat="47.6234" lon="1.9269129">
        <ele>170</ele>
        <time>2021-10-28T07:49:29Z</time>
      </trkpt>
      <trkpt lat="47.623417" lon="1.926924">
        <ele>170</ele>
        <time>2021-10-28T07:49:30Z</time>
      </trkpt>
      <trkpt lat="47.623425" lon="1.9269344">
        <ele>170</ele>
        <time>2021-10-28T07:49:31Z</time>
      </trkpt>
      <trkpt lat="47.623436" lon="1.9269382">
        <ele>170</ele>
        <time>2021-10-28T07:49:32Z</time>
      </trkpt>
      <trkpt lat="47.623444" lon="1.9269422">
        <ele>170</ele>
        <time>2021-10-28T07:49:33Z</time>
      </trkpt>
      <trkpt lat="47.623455" lon="1.9269476">
        <ele>170</ele>
        <time>2021-10-28T07:49:34Z</time>
      </trkpt>
      <trkpt lat="47.623463" lon="1.926954">
        <ele>170</ele>
        <time>2021-10-28T07:49:35Z</time>
      </trkpt>
      <trkpt lat="47.623466" lon="1.926961">
        <ele>170</ele>
        <time>2021-10-28T07:49:36Z</time>
      </trkpt>
      <trkpt lat="47.623474" lon="1.9269707">
        <ele>170</ele>
        <time>2021-10-28T07:49:37Z</time>
      </trkpt>
      <trkpt lat="47.623486" lon="1.9269722">
        <ele>170</ele>
        <time>2021-10-28T07:49:38Z</time>
      </trkpt>
      <trkpt lat="47.623493" lon="1.9269816">
        <ele>170</ele>
        <time>2021-10-28T07:49:39Z</time>
      </trkpt>
      <trkpt lat="47.623497" lon="1.9269919">
        <ele>169</ele>
        <time>2021-10-28T07:49:40Z</time>
      </trkpt>
      <trkpt lat="47.62351" lon="1.9269946">
        <ele>169</ele>
        <time>2021-10-28T07:49:41Z</time>
      </trkpt>
      <trkpt lat="47.623516" lon="1.9270048">
        <ele>169</ele>
        <time>2021-10-28T07:49:42Z</time>
      </trkpt>
      <trkpt lat="47.623528" lon="1.9270167">
        <ele>169</ele>
        <time>2021-10-28T07:49:43Z</time>
      </trkpt>
      <trkpt lat="47.623535" lon="1.9270256">
        <ele>169</ele>
        <time>2021-10-28T07:49:44Z</time>
      </trkpt>
      <trkpt lat="47.623543" lon="1.9270391">
        <ele>169</ele>
        <time>2021-10-28T07:49:45Z</time>
      </trkpt>
      <trkpt lat="47.623554" lon="1.9270536">
        <ele>169</ele>
        <time>2021-10-28T07:49:46Z</time>
      </trkpt>
      <trkpt lat="47.62356" lon="1.9270658">
        <ele>169</ele>
        <time>2021-10-28T07:49:47Z</time>
      </trkpt>
      <trkpt lat="47.623573" lon="1.9270786">
        <ele>169</ele>
        <time>2021-10-28T07:49:48Z</time>
      </trkpt>
      <trkpt lat="47.62358" lon="1.9270897">
        <ele>168</ele>
        <time>2021-10-28T07:49:49Z</time>
      </trkpt>
      <trkpt lat="47.623585" lon="1.9270998">
        <ele>168</ele>
        <time>2021-10-28T07:49:50Z</time>
      </trkpt>
      <trkpt lat="47.6236" lon="1.9271089">
        <ele>168</ele>
        <time>2021-10-28T07:49:51Z</time>
      </trkpt>
      <trkpt lat="47.623615" lon="1.9271135">
        <ele>169</ele>
        <time>2021-10-28T07:49:52Z</time>
      </trkpt>
      <trkpt lat="47.62363" lon="1.9271213">
        <ele>169</ele>
        <time>2021-10-28T07:49:53Z</time>
      </trkpt>
      <trkpt lat="47.623642" lon="1.9271308">
        <ele>170</ele>
        <time>2021-10-28T07:49:54Z</time>
      </trkpt>
      <trkpt lat="47.623653" lon="1.9271425">
        <ele>169</ele>
        <time>2021-10-28T07:49:55Z</time>
      </trkpt>
      <trkpt lat="47.62366" lon="1.9271519">
        <ele>169</ele>
        <time>2021-10-28T07:49:56Z</time>
      </trkpt>
      <trkpt lat="47.623672" lon="1.9271576">
        <ele>170</ele>
        <time>2021-10-28T07:49:57Z</time>
      </trkpt>
      <trkpt lat="47.623684" lon="1.927166">
        <ele>170</ele>
        <time>2021-10-28T07:49:58Z</time>
      </trkpt>
      <trkpt lat="47.62369" lon="1.9271735">
        <ele>170</ele>
        <time>2021-10-28T07:49:59Z</time>
      </trkpt>
      <trkpt lat="47.623703" lon="1.9271882">
        <ele>170</ele>
        <time>2021-10-28T07:50:00Z</time>
      </trkpt>
      <trkpt lat="47.623714" lon="1.9272001">
        <ele>170</ele>
        <time>2021-10-28T07:50:01Z</time>
      </trkpt>
      <trkpt lat="47.62373" lon="1.9272077">
        <ele>170</ele>
        <time>2021-10-28T07:50:02Z</time>
      </trkpt>
      <trkpt lat="47.623737" lon="1.9272207">
        <ele>170</ele>
        <time>2021-10-28T07:50:03Z</time>
      </trkpt>
      <trkpt lat="47.62375" lon="1.9272382">
        <ele>171</ele>
        <time>2021-10-28T07:50:04Z</time>
      </trkpt>
      <trkpt lat="47.623756" lon="1.9272473">
        <ele>171</ele>
        <time>2021-10-28T07:50:05Z</time>
      </trkpt>
      <trkpt lat="47.623768" lon="1.9272591">
        <ele>171</ele>
        <time>2021-10-28T07:50:06Z</time>
      </trkpt>
      <trkpt lat="47.62378" lon="1.9272666">
        <ele>171</ele>
        <time>2021-10-28T07:50:07Z</time>
      </trkpt>
      <trkpt lat="47.623787" lon="1.9272689">
        <ele>170</ele>
        <time>2021-10-28T07:50:08Z</time>
      </trkpt>
      <trkpt lat="47.6238" lon="1.9272766">
        <ele>171</ele>
        <time>2021-10-28T07:50:09Z</time>
      </trkpt>
      <trkpt lat="47.623806" lon="1.9272857">
        <ele>171</ele>
        <time>2021-10-28T07:50:10Z</time>
      </trkpt>
      <trkpt lat="47.623817" lon="1.9272956">
        <ele>171</ele>
        <time>2021-10-28T07:50:11Z</time>
      </trkpt>
      <trkpt lat="47.623825" lon="1.9273022">
        <ele>172</ele>
        <time>2021-10-28T07:50:12Z</time>
      </trkpt>
      <trkpt lat="47.623837" lon="1.9273143">
        <ele>172</ele>
        <time>2021-10-28T07:50:13Z</time>
      </trkpt>
      <trkpt lat="47.623848" lon="1.9273218">
        <ele>172</ele>
        <time>2021-10-28T07:50:14Z</time>
      </trkpt>
      <trkpt lat="47.623856" lon="1.9273297">
        <ele>172</ele>
        <time>2021-10-28T07:50:15Z</time>
      </trkpt>
      <trkpt lat="47.623867" lon="1.9273401">
        <ele>172</ele>
        <time>2021-10-28T07:50:16Z</time>
      </trkpt>
      <trkpt lat="47.62388" lon="1.9273471">
        <ele>172</ele>
        <time>2021-10-28T07:50:17Z</time>
      </trkpt>
      <trkpt lat="47.623886" lon="1.9273424">
        <ele>173</ele>
        <time>2021-10-28T07:50:18Z</time>
      </trkpt>
      <trkpt lat="47.6239" lon="1.927343">
        <ele>173</ele>
        <time>2021-10-28T07:50:19Z</time>
      </trkpt>
      <trkpt lat="47.623913" lon="1.9273556">
        <ele>174</ele>
        <time>2021-10-28T07:50:20Z</time>
      </trkpt>
      <trkpt lat="47.623924" lon="1.9273685">
        <ele>174</ele>
        <time>2021-10-28T07:50:21Z</time>
      </trkpt>
      <trkpt lat="47.62393" lon="1.9273809">
        <ele>174</ele>
        <time>2021-10-28T07:50:22Z</time>
      </trkpt>
      <trkpt lat="47.623943" lon="1.9273947">
        <ele>174</ele>
        <time>2021-10-28T07:50:23Z</time>
      </trkpt>
      <trkpt lat="47.62395" lon="1.9274054">
        <ele>174</ele>
        <time>2021-10-28T07:50:24Z</time>
      </trkpt>
      <trkpt lat="47.62396" lon="1.9274133">
        <ele>175</ele>
        <time>2021-10-28T07:50:25Z</time>
      </trkpt>
      <trkpt lat="47.623962" lon="1.9274255">
        <ele>175</ele>
        <time>2021-10-28T07:50:26Z</time>
      </trkpt>
      <trkpt lat="47.62397" lon="1.9274368">
        <ele>175</ele>
        <time>2021-10-28T07:50:27Z</time>
      </trkpt>
      <trkpt lat="47.62398" lon="1.9274514">
        <ele>175</ele>
        <time>2021-10-28T07:50:28Z</time>
      </trkpt>
      <trkpt lat="47.62399" lon="1.9274675">
        <ele>175</ele>
        <time>2021-10-28T07:50:29Z</time>
      </trkpt>
      <trkpt lat="47.623997" lon="1.9274809">
        <ele>175</ele>
        <time>2021-10-28T07:50:30Z</time>
      </trkpt>
      <trkpt lat="47.624012" lon="1.9274935">
        <ele>174</ele>
        <time>2021-10-28T07:50:31Z</time>
      </trkpt>
      <trkpt lat="47.624023" lon="1.9275094">
        <ele>174</ele>
        <time>2021-10-28T07:50:32Z</time>
      </trkpt>
      <trkpt lat="47.624035" lon="1.9275205">
        <ele>174</ele>
        <time>2021-10-28T07:50:33Z</time>
      </trkpt>
      <trkpt lat="47.624046" lon="1.9275272">
        <ele>175</ele>
        <time>2021-10-28T07:50:34Z</time>
      </trkpt>
      <trkpt lat="47.624054" lon="1.9275371">
        <ele>175</ele>
        <time>2021-10-28T07:50:35Z</time>
      </trkpt>
      <trkpt lat="47.624065" lon="1.9275547">
        <ele>175</ele>
        <time>2021-10-28T07:50:36Z</time>
      </trkpt>
      <trkpt lat="47.624077" lon="1.9275628">
        <ele>176</ele>
        <time>2021-10-28T07:50:37Z</time>
      </trkpt>
      <trkpt lat="47.62408" lon="1.9275715">
        <ele>175</ele>
        <time>2021-10-28T07:50:38Z</time>
      </trkpt>
      <trkpt lat="47.624092" lon="1.9275758">
        <ele>175</ele>
        <time>2021-10-28T07:50:39Z</time>
      </trkpt>
      <trkpt lat="47.624104" lon="1.92759">
        <ele>175</ele>
        <time>2021-10-28T07:50:40Z</time>
      </trkpt>
      <trkpt lat="47.624115" lon="1.9276022">
        <ele>175</ele>
        <time>2021-10-28T07:50:41Z</time>
      </trkpt>
      <trkpt lat="47.624126" lon="1.9276166">
        <ele>175</ele>
        <time>2021-10-28T07:50:42Z</time>
      </trkpt>
      <trkpt lat="47.624138" lon="1.9276254">
        <ele>175</ele>
        <time>2021-10-28T07:50:43Z</time>
      </trkpt>
      <trkpt lat="47.624146" lon="1.9276308">
        <ele>175</ele>
        <time>2021-10-28T07:50:44Z</time>
      </trkpt>
      <trkpt lat="47.624153" lon="1.9276391">
        <ele>175</ele>
        <time>2021-10-28T07:50:45Z</time>
      </trkpt>
      <trkpt lat="47.624157" lon="1.9276509">
        <ele>175</ele>
        <time>2021-10-28T07:50:46Z</time>
      </trkpt>
      <trkpt lat="47.62417" lon="1.9276611">
        <ele>174</ele>
        <time>2021-10-28T07:50:47Z</time>
      </trkpt>
      <trkpt lat="47.624176" lon="1.9276681">
        <ele>175</ele>
        <time>2021-10-28T07:50:48Z</time>
      </trkpt>
      <trkpt lat="47.624184" lon="1.9276762">
        <ele>174</ele>
        <time>2021-10-28T07:50:49Z</time>
      </trkpt>
      <trkpt lat="47.62419" lon="1.9276874">
        <ele>174</ele>
        <time>2021-10-28T07:50:50Z</time>
      </trkpt>
      <trkpt lat="47.6242" lon="1.9276985">
        <ele>174</ele>
        <time>2021-10-28T07:50:51Z</time>
      </trkpt>
      <trkpt lat="47.62421" lon="1.927707">
        <ele>174</ele>
        <time>2021-10-28T07:50:52Z</time>
      </trkpt>
      <trkpt lat="47.624226" lon="1.9277136">
        <ele>173</ele>
        <time>2021-10-28T07:50:53Z</time>
      </trkpt>
      <trkpt lat="47.624237" lon="1.9277244">
        <ele>173</ele>
        <time>2021-10-28T07:50:54Z</time>
      </trkpt>
      <trkpt lat="47.62425" lon="1.927729">
        <ele>173</ele>
        <time>2021-10-28T07:50:55Z</time>
      </trkpt>
      <trkpt lat="47.62426" lon="1.9277382">
        <ele>173</ele>
        <time>2021-10-28T07:50:56Z</time>
      </trkpt>
      <trkpt lat="47.62427" lon="1.9277498">
        <ele>173</ele>
        <time>2021-10-28T07:50:57Z</time>
      </trkpt>
      <trkpt lat="47.624283" lon="1.9277619">
        <ele>173</ele>
        <time>2021-10-28T07:50:58Z</time>
      </trkpt>
      <trkpt lat="47.624294" lon="1.9277682">
        <ele>173</ele>
        <time>2021-10-28T07:50:59Z</time>
      </trkpt>
      <trkpt lat="47.624302" lon="1.9277811">
        <ele>173</ele>
        <time>2021-10-28T07:51:00Z</time>
      </trkpt>
      <trkpt lat="47.62431" lon="1.9277934">
        <ele>173</ele>
        <time>2021-10-28T07:51:01Z</time>
      </trkpt>
      <trkpt lat="47.624317" lon="1.9278063">
        <ele>173</ele>
        <time>2021-10-28T07:51:02Z</time>
      </trkpt>
      <trkpt lat="47.62433" lon="1.9278135">
        <ele>173</ele>
        <time>2021-10-28T07:51:03Z</time>
      </trkpt>
      <trkpt lat="47.624336" lon="1.9278264">
        <ele>173</ele>
        <time>2021-10-28T07:51:04Z</time>
      </trkpt>
      <trkpt lat="47.62434" lon="1.9278364">
        <ele>174</ele>
        <time>2021-10-28T07:51:05Z</time>
      </trkpt>
      <trkpt lat="47.624348" lon="1.9278512">
        <ele>174</ele>
        <time>2021-10-28T07:51:06Z</time>
      </trkpt>
      <trkpt lat="47.624355" lon="1.927861">
        <ele>174</ele>
        <time>2021-10-28T07:51:07Z</time>
      </trkpt>
      <trkpt lat="47.624363" lon="1.9278753">
        <ele>175</ele>
        <time>2021-10-28T07:51:08Z</time>
      </trkpt>
      <trkpt lat="47.624374" lon="1.9278933">
        <ele>175</ele>
        <time>2021-10-28T07:51:09Z</time>
      </trkpt>
      <trkpt lat="47.624382" lon="1.9279046">
        <ele>175</ele>
        <time>2021-10-28T07:51:10Z</time>
      </trkpt>
      <trkpt lat="47.62439" lon="1.9279139">
        <ele>175</ele>
        <time>2021-10-28T07:51:11Z</time>
      </trkpt>
      <trkpt lat="47.624397" lon="1.9279253">
        <ele>175</ele>
        <time>2021-10-28T07:51:12Z</time>
      </trkpt>
      <trkpt lat="47.62441" lon="1.9279373">
        <ele>175</ele>
        <time>2021-10-28T07:51:13Z</time>
      </trkpt>
      <trkpt lat="47.624413" lon="1.9279408">
        <ele>176</ele>
        <time>2021-10-28T07:51:14Z</time>
      </trkpt>
      <trkpt lat="47.62442" lon="1.9279433">
        <ele>176</ele>
        <time>2021-10-28T07:51:15Z</time>
      </trkpt>
      <trkpt lat="47.624428" lon="1.927953">
        <ele>175</ele>
        <time>2021-10-28T07:51:16Z</time>
      </trkpt>
      <trkpt lat="47.62443" lon="1.9279635">
        <ele>175</ele>
        <time>2021-10-28T07:51:17Z</time>
      </trkpt>
      <trkpt lat="47.62444" lon="1.9279739">
        <ele>175</ele>
        <time>2021-10-28T07:51:18Z</time>
      </trkpt>
      <trkpt lat="47.624443" lon="1.9279817">
        <ele>175</ele>
        <time>2021-10-28T07:51:19Z</time>
      </trkpt>
      <trkpt lat="47.624447" lon="1.9279958">
        <ele>175</ele>
        <time>2021-10-28T07:51:20Z</time>
      </trkpt>
      <trkpt lat="47.62446" lon="1.9280137">
        <ele>175</ele>
        <time>2021-10-28T07:51:21Z</time>
      </trkpt>
      <trkpt lat="47.624462" lon="1.9280328">
        <ele>175</ele>
        <time>2021-10-28T07:51:22Z</time>
      </trkpt>
      <trkpt lat="47.62447" lon="1.9280479">
        <ele>175</ele>
        <time>2021-10-28T07:51:23Z</time>
      </trkpt>
      <trkpt lat="47.624477" lon="1.9280568">
        <ele>175</ele>
        <time>2021-10-28T07:51:24Z</time>
      </trkpt>
      <trkpt lat="47.62449" lon="1.9280626">
        <ele>175</ele>
        <time>2021-10-28T07:51:25Z</time>
      </trkpt>
      <trkpt lat="47.624493" lon="1.9280717">
        <ele>175</ele>
        <time>2021-10-28T07:51:26Z</time>
      </trkpt>
      <trkpt lat="47.6245" lon="1.9280765">
        <ele>175</ele>
        <time>2021-10-28T07:51:27Z</time>
      </trkpt>
      <trkpt lat="47.62451" lon="1.928077">
        <ele>175</ele>
        <time>2021-10-28T07:51:28Z</time>
      </trkpt>
      <trkpt lat="47.62452" lon="1.928079">
        <ele>175</ele>
        <time>2021-10-28T07:51:29Z</time>
      </trkpt>
      <trkpt lat="47.62453" lon="1.9280791">
        <ele>175</ele>
        <time>2021-10-28T07:51:30Z</time>
      </trkpt>
      <trkpt lat="47.624546" lon="1.9280893">
        <ele>174</ele>
        <time>2021-10-28T07:51:31Z</time>
      </trkpt>
      <trkpt lat="47.624554" lon="1.9281034">
        <ele>175</ele>
        <time>2021-10-28T07:51:32Z</time>
      </trkpt>
      <trkpt lat="47.62456" lon="1.9281216">
        <ele>175</ele>
        <time>2021-10-28T07:51:33Z</time>
      </trkpt>
      <trkpt lat="47.62457" lon="1.9281377">
        <ele>174</ele>
        <time>2021-10-28T07:51:34Z</time>
      </trkpt>
      <trkpt lat="47.624573" lon="1.9281486">
        <ele>174</ele>
        <time>2021-10-28T07:51:35Z</time>
      </trkpt>
      <trkpt lat="47.624584" lon="1.9281536">
        <ele>174</ele>
        <time>2021-10-28T07:51:36Z</time>
      </trkpt>
      <trkpt lat="47.624588" lon="1.9281645">
        <ele>174</ele>
        <time>2021-10-28T07:51:37Z</time>
      </trkpt>
      <trkpt lat="47.62459" lon="1.9281788">
        <ele>174</ele>
        <time>2021-10-28T07:51:38Z</time>
      </trkpt>
      <trkpt lat="47.624603" lon="1.928196">
        <ele>174</ele>
        <time>2021-10-28T07:51:39Z</time>
      </trkpt>
      <trkpt lat="47.62461" lon="1.928212">
        <ele>174</ele>
        <time>2021-10-28T07:51:40Z</time>
      </trkpt>
      <trkpt lat="47.62462" lon="1.9282261">
        <ele>175</ele>
        <time>2021-10-28T07:51:41Z</time>
      </trkpt>
      <trkpt lat="47.624626" lon="1.9282364">
        <ele>174</ele>
        <time>2021-10-28T07:51:42Z</time>
      </trkpt>
      <trkpt lat="47.62464" lon="1.9282439">
        <ele>174</ele>
        <time>2021-10-28T07:51:43Z</time>
      </trkpt>
      <trkpt lat="47.624653" lon="1.9282517">
        <ele>174</ele>
        <time>2021-10-28T07:51:44Z</time>
      </trkpt>
      <trkpt lat="47.62466" lon="1.9282584">
        <ele>174</ele>
        <time>2021-10-28T07:51:45Z</time>
      </trkpt>
      <trkpt lat="47.624676" lon="1.928269">
        <ele>175</ele>
        <time>2021-10-28T07:51:46Z</time>
      </trkpt>
      <trkpt lat="47.624687" lon="1.9282814">
        <ele>175</ele>
        <time>2021-10-28T07:51:47Z</time>
      </trkpt>
      <trkpt lat="47.6247" lon="1.9282956">
        <ele>175</ele>
        <time>2021-10-28T07:51:48Z</time>
      </trkpt>
      <trkpt lat="47.624706" lon="1.9283086">
        <ele>175</ele>
        <time>2021-10-28T07:51:49Z</time>
      </trkpt>
      <trkpt lat="47.624714" lon="1.9283211">
        <ele>175</ele>
        <time>2021-10-28T07:51:50Z</time>
      </trkpt>
      <trkpt lat="47.624718" lon="1.9283379">
        <ele>176</ele>
        <time>2021-10-28T07:51:51Z</time>
      </trkpt>
      <trkpt lat="47.624725" lon="1.9283497">
        <ele>176</ele>
        <time>2021-10-28T07:51:52Z</time>
      </trkpt>
      <trkpt lat="47.624733" lon="1.9283618">
        <ele>177</ele>
        <time>2021-10-28T07:51:53Z</time>
      </trkpt>
      <trkpt lat="47.624744" lon="1.9283763">
        <ele>177</ele>
        <time>2021-10-28T07:51:54Z</time>
      </trkpt>
      <trkpt lat="47.624752" lon="1.9283898">
        <ele>177</ele>
        <time>2021-10-28T07:51:55Z</time>
      </trkpt>
      <trkpt lat="47.624756" lon="1.9284046">
        <ele>178</ele>
        <time>2021-10-28T07:51:56Z</time>
      </trkpt>
      <trkpt lat="47.62476" lon="1.9284178">
        <ele>178</ele>
        <time>2021-10-28T07:51:57Z</time>
      </trkpt>
      <trkpt lat="47.624767" lon="1.9284337">
        <ele>178</ele>
        <time>2021-10-28T07:51:58Z</time>
      </trkpt>
      <trkpt lat="47.624775" lon="1.9284467">
        <ele>178</ele>
        <time>2021-10-28T07:51:59Z</time>
      </trkpt>
      <trkpt lat="47.62478" lon="1.9284542">
        <ele>179</ele>
        <time>2021-10-28T07:52:00Z</time>
      </trkpt>
      <trkpt lat="47.624786" lon="1.9284667">
        <ele>179</ele>
        <time>2021-10-28T07:52:01Z</time>
      </trkpt>
      <trkpt lat="47.624794" lon="1.9284816">
        <ele>179</ele>
        <time>2021-10-28T07:52:02Z</time>
      </trkpt>
      <trkpt lat="47.6248" lon="1.9284973">
        <ele>179</ele>
        <time>2021-10-28T07:52:03Z</time>
      </trkpt>
      <trkpt lat="47.62481" lon="1.9285102">
        <ele>179</ele>
        <time>2021-10-28T07:52:04Z</time>
      </trkpt>
      <trkpt lat="47.624817" lon="1.9285251">
        <ele>179</ele>
        <time>2021-10-28T07:52:05Z</time>
      </trkpt>
      <trkpt lat="47.62483" lon="1.9285357">
        <ele>179</ele>
        <time>2021-10-28T07:52:06Z</time>
      </trkpt>
      <trkpt lat="47.624836" lon="1.9285508">
        <ele>180</ele>
        <time>2021-10-28T07:52:07Z</time>
      </trkpt>
      <trkpt lat="47.624844" lon="1.9285641">
        <ele>180</ele>
        <time>2021-10-28T07:52:08Z</time>
      </trkpt>
      <trkpt lat="47.624855" lon="1.9285806">
        <ele>180</ele>
        <time>2021-10-28T07:52:09Z</time>
      </trkpt>
      <trkpt lat="47.62486" lon="1.928593">
        <ele>181</ele>
        <time>2021-10-28T07:52:10Z</time>
      </trkpt>
      <trkpt lat="47.624866" lon="1.928608">
        <ele>180</ele>
        <time>2021-10-28T07:52:11Z</time>
      </trkpt>
      <trkpt lat="47.624878" lon="1.9286219">
        <ele>181</ele>
        <time>2021-10-28T07:52:12Z</time>
      </trkpt>
      <trkpt lat="47.624886" lon="1.9286346">
        <ele>181</ele>
        <time>2021-10-28T07:52:13Z</time>
      </trkpt>
      <trkpt lat="47.624897" lon="1.9286501">
        <ele>181</ele>
        <time>2021-10-28T07:52:14Z</time>
      </trkpt>
      <trkpt lat="47.62491" lon="1.9286637">
        <ele>182</ele>
        <time>2021-10-28T07:52:15Z</time>
      </trkpt>
      <trkpt lat="47.62492" lon="1.9286801">
        <ele>182</ele>
        <time>2021-10-28T07:52:16Z</time>
      </trkpt>
      <trkpt lat="47.624924" lon="1.9286993">
        <ele>182</ele>
        <time>2021-10-28T07:52:17Z</time>
      </trkpt>
      <trkpt lat="47.62493" lon="1.9287143">
        <ele>182</ele>
        <time>2021-10-28T07:52:18Z</time>
      </trkpt>
      <trkpt lat="47.62494" lon="1.9287323">
        <ele>183</ele>
        <time>2021-10-28T07:52:19Z</time>
      </trkpt>
      <trkpt lat="47.62495" lon="1.9287483">
        <ele>183</ele>
        <time>2021-10-28T07:52:20Z</time>
      </trkpt>
      <trkpt lat="47.624954" lon="1.9287606">
        <ele>182</ele>
        <time>2021-10-28T07:52:21Z</time>
      </trkpt>
      <trkpt lat="47.62496" lon="1.9287694">
        <ele>183</ele>
        <time>2021-10-28T07:52:22Z</time>
      </trkpt>
      <trkpt lat="47.624966" lon="1.928776">
        <ele>182</ele>
        <time>2021-10-28T07:52:23Z</time>
      </trkpt>
      <trkpt lat="47.624973" lon="1.9287838">
        <ele>183</ele>
        <time>2021-10-28T07:52:24Z</time>
      </trkpt>
      <trkpt lat="47.62498" lon="1.9287925">
        <ele>183</ele>
        <time>2021-10-28T07:52:25Z</time>
      </trkpt>
      <trkpt lat="47.62499" lon="1.9287996">
        <ele>183</ele>
        <time>2021-10-28T07:52:26Z</time>
      </trkpt>
      <trkpt lat="47.624992" lon="1.9288069">
        <ele>183</ele>
        <time>2021-10-28T07:52:27Z</time>
      </trkpt>
      <trkpt lat="47.624996" lon="1.928817">
        <ele>183</ele>
        <time>2021-10-28T07:52:28Z</time>
      </trkpt>
      <trkpt lat="47.625" lon="1.9288303">
        <ele>183</ele>
        <time>2021-10-28T07:52:29Z</time>
      </trkpt>
      <trkpt lat="47.625008" lon="1.9288441">
        <ele>183</ele>
        <time>2021-10-28T07:52:30Z</time>
      </trkpt>
      <trkpt lat="47.625015" lon="1.9288563">
        <ele>182</ele>
        <time>2021-10-28T07:52:31Z</time>
      </trkpt>
      <trkpt lat="47.625027" lon="1.928868">
        <ele>183</ele>
        <time>2021-10-28T07:52:32Z</time>
      </trkpt>
      <trkpt lat="47.62503" lon="1.9288814">
        <ele>183</ele>
        <time>2021-10-28T07:52:33Z</time>
      </trkpt>
      <trkpt lat="47.62504" lon="1.928893">
        <ele>183</ele>
        <time>2021-10-28T07:52:34Z</time>
      </trkpt>
      <trkpt lat="47.625042" lon="1.9289036">
        <ele>183</ele>
        <time>2021-10-28T07:52:35Z</time>
      </trkpt>
      <trkpt lat="47.62505" lon="1.9289174">
        <ele>183</ele>
        <time>2021-10-28T07:52:36Z</time>
      </trkpt>
      <trkpt lat="47.62506" lon="1.928939">
        <ele>183</ele>
        <time>2021-10-28T07:52:37Z</time>
      </trkpt>
      <trkpt lat="47.62507" lon="1.9289532">
        <ele>183</ele>
        <time>2021-10-28T07:52:38Z</time>
      </trkpt>
      <trkpt lat="47.625072" lon="1.9289707">
        <ele>183</ele>
        <time>2021-10-28T07:52:39Z</time>
      </trkpt>
      <trkpt lat="47.62508" lon="1.9289864">
        <ele>183</ele>
        <time>2021-10-28T07:52:40Z</time>
      </trkpt>
      <trkpt lat="47.625088" lon="1.9290017">
        <ele>183</ele>
        <time>2021-10-28T07:52:41Z</time>
      </trkpt>
      <trkpt lat="47.62509" lon="1.929014">
        <ele>182</ele>
        <time>2021-10-28T07:52:42Z</time>
      </trkpt>
      <trkpt lat="47.6251" lon="1.9290267">
        <ele>182</ele>
        <time>2021-10-28T07:52:43Z</time>
      </trkpt>
      <trkpt lat="47.62511" lon="1.9290384">
        <ele>182</ele>
        <time>2021-10-28T07:52:44Z</time>
      </trkpt>
      <trkpt lat="47.625114" lon="1.929052">
        <ele>182</ele>
        <time>2021-10-28T07:52:45Z</time>
      </trkpt>
      <trkpt lat="47.625126" lon="1.9290651">
        <ele>183</ele>
        <time>2021-10-28T07:52:46Z</time>
      </trkpt>
      <trkpt lat="47.625134" lon="1.9290794">
        <ele>183</ele>
        <time>2021-10-28T07:52:47Z</time>
      </trkpt>
      <trkpt lat="47.625137" lon="1.9290951">
        <ele>183</ele>
        <time>2021-10-28T07:52:48Z</time>
      </trkpt>
      <trkpt lat="47.625145" lon="1.9291078">
        <ele>183</ele>
        <time>2021-10-28T07:52:49Z</time>
      </trkpt>
      <trkpt lat="47.625153" lon="1.9291214">
        <ele>183</ele>
        <time>2021-10-28T07:52:50Z</time>
      </trkpt>
      <trkpt lat="47.62516" lon="1.929133">
        <ele>184</ele>
        <time>2021-10-28T07:52:51Z</time>
      </trkpt>
      <trkpt lat="47.62517" lon="1.9291469">
        <ele>184</ele>
        <time>2021-10-28T07:52:52Z</time>
      </trkpt>
      <trkpt lat="47.62518" lon="1.9291719">
        <ele>185</ele>
        <time>2021-10-28T07:52:53Z</time>
      </trkpt>
      <trkpt lat="47.625183" lon="1.9291894">
        <ele>185</ele>
        <time>2021-10-28T07:52:54Z</time>
      </trkpt>
      <trkpt lat="47.62519" lon="1.9292059">
        <ele>185</ele>
        <time>2021-10-28T07:52:55Z</time>
      </trkpt>
      <trkpt lat="47.6252" lon="1.9292238">
        <ele>184</ele>
        <time>2021-10-28T07:52:56Z</time>
      </trkpt>
      <trkpt lat="47.625202" lon="1.9292419">
        <ele>184</ele>
        <time>2021-10-28T07:52:57Z</time>
      </trkpt>
      <trkpt lat="47.625214" lon="1.929258">
        <ele>185</ele>
        <time>2021-10-28T07:52:58Z</time>
      </trkpt>
      <trkpt lat="47.625217" lon="1.9292773">
        <ele>184</ele>
        <time>2021-10-28T07:52:59Z</time>
      </trkpt>
      <trkpt lat="47.62522" lon="1.929295">
        <ele>185</ele>
        <time>2021-10-28T07:53:00Z</time>
      </trkpt>
      <trkpt lat="47.62523" lon="1.9293107">
        <ele>185</ele>
        <time>2021-10-28T07:53:01Z</time>
      </trkpt>
      <trkpt lat="47.625237" lon="1.929323">
        <ele>185</ele>
        <time>2021-10-28T07:53:02Z</time>
      </trkpt>
      <trkpt lat="47.625244" lon="1.9293339">
        <ele>185</ele>
        <time>2021-10-28T07:53:03Z</time>
      </trkpt>
      <trkpt lat="47.62525" lon="1.9293485">
        <ele>186</ele>
        <time>2021-10-28T07:53:04Z</time>
      </trkpt>
      <trkpt lat="47.625256" lon="1.9293592">
        <ele>186</ele>
        <time>2021-10-28T07:53:05Z</time>
      </trkpt>
      <trkpt lat="47.625267" lon="1.9293708">
        <ele>186</ele>
        <time>2021-10-28T07:53:06Z</time>
      </trkpt>
      <trkpt lat="47.625275" lon="1.9293846">
        <ele>186</ele>
        <time>2021-10-28T07:53:07Z</time>
      </trkpt>
      <trkpt lat="47.625282" lon="1.9293976">
        <ele>186</ele>
        <time>2021-10-28T07:53:08Z</time>
      </trkpt>
      <trkpt lat="47.62529" lon="1.9294122">
        <ele>187</ele>
        <time>2021-10-28T07:53:09Z</time>
      </trkpt>
      <trkpt lat="47.625298" lon="1.9294246">
        <ele>187</ele>
        <time>2021-10-28T07:53:10Z</time>
      </trkpt>
      <trkpt lat="47.62531" lon="1.9294351">
        <ele>187</ele>
        <time>2021-10-28T07:53:11Z</time>
      </trkpt>
      <trkpt lat="47.625317" lon="1.9294413">
        <ele>187</ele>
        <time>2021-10-28T07:53:12Z</time>
      </trkpt>
      <trkpt lat="47.625328" lon="1.9294503">
        <ele>187</ele>
        <time>2021-10-28T07:53:13Z</time>
      </trkpt>
      <trkpt lat="47.625336" lon="1.929463">
        <ele>187</ele>
        <time>2021-10-28T07:53:14Z</time>
      </trkpt>
      <trkpt lat="47.62534" lon="1.929476">
        <ele>187</ele>
        <time>2021-10-28T07:53:15Z</time>
      </trkpt>
      <trkpt lat="47.625343" lon="1.9294899">
        <ele>186</ele>
        <time>2021-10-28T07:53:16Z</time>
      </trkpt>
      <trkpt lat="47.625347" lon="1.929507">
        <ele>186</ele>
        <time>2021-10-28T07:53:17Z</time>
      </trkpt>
      <trkpt lat="47.625355" lon="1.9295228">
        <ele>186</ele>
        <time>2021-10-28T07:53:18Z</time>
      </trkpt>
      <trkpt lat="47.625362" lon="1.9295366">
        <ele>186</ele>
        <time>2021-10-28T07:53:19Z</time>
      </trkpt>
      <trkpt lat="47.62537" lon="1.9295539">
        <ele>187</ele>
        <time>2021-10-28T07:53:20Z</time>
      </trkpt>
      <trkpt lat="47.62538" lon="1.9295628">
        <ele>187</ele>
        <time>2021-10-28T07:53:21Z</time>
      </trkpt>
      <trkpt lat="47.625397" lon="1.929573">
        <ele>187</ele>
        <time>2021-10-28T07:53:22Z</time>
      </trkpt>
      <trkpt lat="47.625404" lon="1.9295816">
        <ele>188</ele>
        <time>2021-10-28T07:53:23Z</time>
      </trkpt>
      <trkpt lat="47.62541" lon="1.9295968">
        <ele>188</ele>
        <time>2021-10-28T07:53:24Z</time>
      </trkpt>
      <trkpt lat="47.625416" lon="1.9296126">
        <ele>188</ele>
        <time>2021-10-28T07:53:25Z</time>
      </trkpt>
      <trkpt lat="47.625423" lon="1.9296278">
        <ele>188</ele>
        <time>2021-10-28T07:53:26Z</time>
      </trkpt>
      <trkpt lat="47.625427" lon="1.9296428">
        <ele>188</ele>
        <time>2021-10-28T07:53:27Z</time>
      </trkpt>
      <trkpt lat="47.625435" lon="1.9296523">
        <ele>188</ele>
        <time>2021-10-28T07:53:28Z</time>
      </trkpt>
      <trkpt lat="47.62544" lon="1.9296612">
        <ele>188</ele>
        <time>2021-10-28T07:53:29Z</time>
      </trkpt>
      <trkpt lat="47.625443" lon="1.9296757">
        <ele>188</ele>
        <time>2021-10-28T07:53:30Z</time>
      </trkpt>
      <trkpt lat="47.625446" lon="1.9296933">
        <ele>187</ele>
        <time>2021-10-28T07:53:31Z</time>
      </trkpt>
      <trkpt lat="47.625446" lon="1.9297138">
        <ele>187</ele>
        <time>2021-10-28T07:53:32Z</time>
      </trkpt>
      <trkpt lat="47.62545" lon="1.9297341">
        <ele>188</ele>
        <time>2021-10-28T07:53:33Z</time>
      </trkpt>
      <trkpt lat="47.625458" lon="1.9297527">
        <ele>188</ele>
        <time>2021-10-28T07:53:34Z</time>
      </trkpt>
      <trkpt lat="47.62546" lon="1.9297719">
        <ele>188</ele>
        <time>2021-10-28T07:53:35Z</time>
      </trkpt>
      <trkpt lat="47.625465" lon="1.9297867">
        <ele>187</ele>
        <time>2021-10-28T07:53:36Z</time>
      </trkpt>
      <trkpt lat="47.625473" lon="1.9298022">
        <ele>187</ele>
        <time>2021-10-28T07:53:37Z</time>
      </trkpt>
      <trkpt lat="47.62549" lon="1.9298165">
        <ele>187</ele>
        <time>2021-10-28T07:53:38Z</time>
      </trkpt>
      <trkpt lat="47.625496" lon="1.9298325">
        <ele>187</ele>
        <time>2021-10-28T07:53:39Z</time>
      </trkpt>
      <trkpt lat="47.625507" lon="1.9298422">
        <ele>187</ele>
        <time>2021-10-28T07:53:40Z</time>
      </trkpt>
      <trkpt lat="47.62552" lon="1.9298513">
        <ele>187</ele>
        <time>2021-10-28T07:53:41Z</time>
      </trkpt>
      <trkpt lat="47.62553" lon="1.9298614">
        <ele>186</ele>
        <time>2021-10-28T07:53:42Z</time>
      </trkpt>
      <trkpt lat="47.625538" lon="1.9298763">
        <ele>186</ele>
        <time>2021-10-28T07:53:43Z</time>
      </trkpt>
      <trkpt lat="47.625546" lon="1.9298887">
        <ele>186</ele>
        <time>2021-10-28T07:53:44Z</time>
      </trkpt>
      <trkpt lat="47.625553" lon="1.9299004">
        <ele>186</ele>
        <time>2021-10-28T07:53:45Z</time>
      </trkpt>
      <trkpt lat="47.62556" lon="1.929913">
        <ele>186</ele>
        <time>2021-10-28T07:53:46Z</time>
      </trkpt>
      <trkpt lat="47.625572" lon="1.9299297">
        <ele>186</ele>
        <time>2021-10-28T07:53:47Z</time>
      </trkpt>
      <trkpt lat="47.62558" lon="1.929947">
        <ele>186</ele>
        <time>2021-10-28T07:53:48Z</time>
      </trkpt>
      <trkpt lat="47.625584" lon="1.929963">
        <ele>186</ele>
        <time>2021-10-28T07:53:49Z</time>
      </trkpt>
      <trkpt lat="47.625587" lon="1.9299796">
        <ele>186</ele>
        <time>2021-10-28T07:53:50Z</time>
      </trkpt>
      <trkpt lat="47.625595" lon="1.9299974">
        <ele>186</ele>
        <time>2021-10-28T07:53:51Z</time>
      </trkpt>
      <trkpt lat="47.625603" lon="1.9300113">
        <ele>186</ele>
        <time>2021-10-28T07:53:52Z</time>
      </trkpt>
      <trkpt lat="47.625603" lon="1.9300117">
        <ele>186</ele>
        <time>2021-10-28T07:53:53Z</time>
      </trkpt>
      <trkpt lat="47.62561" lon="1.930022">
        <ele>187</ele>
        <time>2021-10-28T07:53:54Z</time>
      </trkpt>
      <trkpt lat="47.625614" lon="1.9300323">
        <ele>186</ele>
        <time>2021-10-28T07:53:55Z</time>
      </trkpt>
      <trkpt lat="47.625618" lon="1.9300451">
        <ele>186</ele>
        <time>2021-10-28T07:53:56Z</time>
      </trkpt>
      <trkpt lat="47.62562" lon="1.9300641">
        <ele>186</ele>
        <time>2021-10-28T07:53:57Z</time>
      </trkpt>
      <trkpt lat="47.625626" lon="1.930081">
        <ele>186</ele>
        <time>2021-10-28T07:53:58Z</time>
      </trkpt>
      <trkpt lat="47.625633" lon="1.9300954">
        <ele>186</ele>
        <time>2021-10-28T07:53:59Z</time>
      </trkpt>
      <trkpt lat="47.625633" lon="1.9300953">
        <ele>186</ele>
        <time>2021-10-28T07:54:00Z</time>
      </trkpt>
      <trkpt lat="47.625637" lon="1.9301009">
        <ele>186</ele>
        <time>2021-10-28T07:54:01Z</time>
      </trkpt>
      <trkpt lat="47.62564" lon="1.930109">
        <ele>186</ele>
        <time>2021-10-28T07:54:02Z</time>
      </trkpt>
      <trkpt lat="47.62564" lon="1.9301093">
        <ele>186</ele>
        <time>2021-10-28T07:54:03Z</time>
      </trkpt>
      <trkpt lat="47.62564" lon="1.9301095">
        <ele>187</ele>
        <time>2021-10-28T07:54:04Z</time>
      </trkpt>
      <trkpt lat="47.62565" lon="1.9301187">
        <ele>187</ele>
        <time>2021-10-28T07:54:05Z</time>
      </trkpt>
      <trkpt lat="47.62565" lon="1.930119">
        <ele>187</ele>
        <time>2021-10-28T07:54:06Z</time>
      </trkpt>
      <trkpt lat="47.62565" lon="1.930119">
        <ele>187</ele>
        <time>2021-10-28T07:54:07Z</time>
      </trkpt>
      <trkpt lat="47.62565" lon="1.930119">
        <ele>187</ele>
        <time>2021-10-28T07:54:08Z</time>
      </trkpt>
      <trkpt lat="47.62565" lon="1.930119">
        <ele>187</ele>
        <time>2021-10-28T07:54:09Z</time>
      </trkpt>
      <trkpt lat="47.62565" lon="1.930119">
        <ele>187</ele>
        <time>2021-10-28T07:54:10Z</time>
      </trkpt>
      <trkpt lat="47.62565" lon="1.930119">
        <ele>187</ele>
        <time>2021-10-28T07:54:11Z</time>
      </trkpt>
      <trkpt lat="47.625668" lon="1.930153">
        <ele>188</ele>
        <time>2021-10-28T07:54:12Z</time>
      </trkpt>
      <trkpt lat="47.625668" lon="1.9301536">
        <ele>188</ele>
        <time>2021-10-28T07:54:13Z</time>
      </trkpt>
      <trkpt lat="47.625668" lon="1.9301591">
        <ele>188</ele>
        <time>2021-10-28T07:54:14Z</time>
      </trkpt>
      <trkpt lat="47.62567" lon="1.9301683">
        <ele>188</ele>
        <time>2021-10-28T07:54:15Z</time>
      </trkpt>
      <trkpt lat="47.62567" lon="1.9301683">
        <ele>188</ele>
        <time>2021-10-28T07:54:16Z</time>
      </trkpt>
      <trkpt lat="47.62567" lon="1.9301683">
        <ele>188</ele>
        <time>2021-10-28T07:54:17Z</time>
      </trkpt>
      <trkpt lat="47.625687" lon="1.9301971">
        <ele>187</ele>
        <time>2021-10-28T07:54:19Z</time>
      </trkpt>
      <trkpt lat="47.625694" lon="1.9302021">
        <ele>187</ele>
        <time>2021-10-28T07:54:20Z</time>
      </trkpt>
      <trkpt lat="47.625694" lon="1.9302056">
        <ele>187</ele>
        <time>2021-10-28T07:54:21Z</time>
      </trkpt>
      <trkpt lat="47.625694" lon="1.9302047">
        <ele>187</ele>
        <time>2021-10-28T07:54:22Z</time>
      </trkpt>
      <trkpt lat="47.625694" lon="1.9302039">
        <ele>187</ele>
        <time>2021-10-28T07:54:23Z</time>
      </trkpt>
      <trkpt lat="47.625694" lon="1.9302039">
        <ele>187</ele>
        <time>2021-10-28T07:54:24Z</time>
      </trkpt>
      <trkpt lat="47.625694" lon="1.9302039">
        <ele>187</ele>
        <time>2021-10-28T07:54:24Z</time>
      </trkpt>
    </trkseg>
    <trkseg>
      <trkpt lat="47.625694" lon="1.9302039">
        <ele>187</ele>
        <time>2021-10-28T07:54:24Z</time>
      </trkpt>
      <trkpt lat="47.625732" lon="1.9302795">
        <ele>187</ele>
        <time>2021-10-28T07:54:35Z</time>
      </trkpt>
      <trkpt lat="47.62574" lon="1.930266">
        <ele>186</ele>
        <time>2021-10-28T07:54:36Z</time>
      </trkpt>
      <trkpt lat="47.62575" lon="1.9302696">
        <ele>185</ele>
        <time>2021-10-28T07:54:37Z</time>
      </trkpt>
      <trkpt lat="47.62575" lon="1.9302696">
        <ele>185</ele>
        <time>2021-10-28T07:54:38Z</time>
      </trkpt>
      <trkpt lat="47.62575" lon="1.9302696">
        <ele>185</ele>
        <time>2021-10-28T07:54:39Z</time>
      </trkpt>
      <trkpt lat="47.625763" lon="1.9302968">
        <ele>186</ele>
        <time>2021-10-28T07:54:40Z</time>
      </trkpt>
      <trkpt lat="47.62577" lon="1.9303036">
        <ele>185</ele>
        <time>2021-10-28T07:54:41Z</time>
      </trkpt>
      <trkpt lat="47.62578" lon="1.930313">
        <ele>185</ele>
        <time>2021-10-28T07:54:42Z</time>
      </trkpt>
      <trkpt lat="47.625782" lon="1.9303132">
        <ele>186</ele>
        <time>2021-10-28T07:54:43Z</time>
      </trkpt>
      <trkpt lat="47.625786" lon="1.9303182">
        <ele>185</ele>
        <time>2021-10-28T07:54:44Z</time>
      </trkpt>
      <trkpt lat="47.625793" lon="1.9303282">
        <ele>186</ele>
        <time>2021-10-28T07:54:45Z</time>
      </trkpt>
      <trkpt lat="47.625797" lon="1.930343">
        <ele>186</ele>
        <time>2021-10-28T07:54:46Z</time>
      </trkpt>
      <trkpt lat="47.625805" lon="1.9303552">
        <ele>186</ele>
        <time>2021-10-28T07:54:47Z</time>
      </trkpt>
      <trkpt lat="47.625813" lon="1.930365">
        <ele>187</ele>
        <time>2021-10-28T07:54:48Z</time>
      </trkpt>
      <trkpt lat="47.625816" lon="1.9303708">
        <ele>187</ele>
        <time>2021-10-28T07:54:49Z</time>
      </trkpt>
      <trkpt lat="47.625816" lon="1.930371">
        <ele>187</ele>
        <time>2021-10-28T07:54:50Z</time>
      </trkpt>
      <trkpt lat="47.625816" lon="1.9303787">
        <ele>186</ele>
        <time>2021-10-28T07:54:51Z</time>
      </trkpt>
      <trkpt lat="47.625824" lon="1.9303923">
        <ele>186</ele>
        <time>2021-10-28T07:54:52Z</time>
      </trkpt>
      <trkpt lat="47.625828" lon="1.9304048">
        <ele>186</ele>
        <time>2021-10-28T07:54:53Z</time>
      </trkpt>
      <trkpt lat="47.625835" lon="1.9304156">
        <ele>186</ele>
        <time>2021-10-28T07:54:54Z</time>
      </trkpt>
      <trkpt lat="47.625843" lon="1.9304304">
        <ele>186</ele>
        <time>2021-10-28T07:54:55Z</time>
      </trkpt>
      <trkpt lat="47.625854" lon="1.9304466">
        <ele>187</ele>
        <time>2021-10-28T07:54:56Z</time>
      </trkpt>
      <trkpt lat="47.625862" lon="1.9304633">
        <ele>187</ele>
        <time>2021-10-28T07:54:57Z</time>
      </trkpt>
      <trkpt lat="47.625866" lon="1.9304799">
        <ele>186</ele>
        <time>2021-10-28T07:54:58Z</time>
      </trkpt>
      <trkpt lat="47.625874" lon="1.9304912">
        <ele>186</ele>
        <time>2021-10-28T07:54:59Z</time>
      </trkpt>
      <trkpt lat="47.62588" lon="1.9304991">
        <ele>186</ele>
        <time>2021-10-28T07:55:00Z</time>
      </trkpt>
      <trkpt lat="47.625885" lon="1.9305097">
        <ele>187</ele>
        <time>2021-10-28T07:55:01Z</time>
      </trkpt>
      <trkpt lat="47.62589" lon="1.9305098">
        <ele>187</ele>
        <time>2021-10-28T07:55:02Z</time>
      </trkpt>
      <trkpt lat="47.625896" lon="1.9305156">
        <ele>186</ele>
        <time>2021-10-28T07:55:03Z</time>
      </trkpt>
      <trkpt lat="47.6259" lon="1.9305238">
        <ele>186</ele>
        <time>2021-10-28T07:55:04Z</time>
      </trkpt>
      <trkpt lat="47.6259" lon="1.9305238">
        <ele>186</ele>
        <time>2021-10-28T07:55:04Z</time>
      </trkpt>
    </trkseg>
    <trkseg>
      <trkpt lat="47.6259" lon="1.9305238">
        <ele>186</ele>
        <time>2021-10-28T07:55:04Z</time>
      </trkpt>
      <trkpt lat="47.625942" lon="1.9306141">
        <ele>186</ele>
        <time>2021-10-28T07:55:16Z</time>
      </trkpt>
      <trkpt lat="47.625946" lon="1.9306196">
        <ele>186</ele>
        <time>2021-10-28T07:55:17Z</time>
      </trkpt>
      <trkpt lat="47.625946" lon="1.9306331">
        <ele>186</ele>
        <time>2021-10-28T07:55:18Z</time>
      </trkpt>
      <trkpt lat="47.62595" lon="1.9306452">
        <ele>186</ele>
        <time>2021-10-28T07:55:19Z</time>
      </trkpt>
      <trkpt lat="47.625954" lon="1.9306537">
        <ele>186</ele>
        <time>2021-10-28T07:55:20Z</time>
      </trkpt>
      <trkpt lat="47.625957" lon="1.9306638">
        <ele>186</ele>
        <time>2021-10-28T07:55:21Z</time>
      </trkpt>
      <trkpt lat="47.62596" lon="1.9306761">
        <ele>186</ele>
        <time>2021-10-28T07:55:22Z</time>
      </trkpt>
      <trkpt lat="47.625965" lon="1.9306887">
        <ele>185</ele>
        <time>2021-10-28T07:55:23Z</time>
      </trkpt>
      <trkpt lat="47.62597" lon="1.9306974">
        <ele>185</ele>
        <time>2021-10-28T07:55:24Z</time>
      </trkpt>
      <trkpt lat="47.625973" lon="1.9307072">
        <ele>185</ele>
        <time>2021-10-28T07:55:25Z</time>
      </trkpt>
      <trkpt lat="47.625973" lon="1.9307176">
        <ele>185</ele>
        <time>2021-10-28T07:55:26Z</time>
      </trkpt>
      <trkpt lat="47.625977" lon="1.9307314">
        <ele>184</ele>
        <time>2021-10-28T07:55:27Z</time>
      </trkpt>
      <trkpt lat="47.62598" lon="1.930747">
        <ele>184</ele>
        <time>2021-10-28T07:55:28Z</time>
      </trkpt>
      <trkpt lat="47.625984" lon="1.9307561">
        <ele>185</ele>
        <time>2021-10-28T07:55:29Z</time>
      </trkpt>
      <trkpt lat="47.62599" lon="1.930766">
        <ele>185</ele>
        <time>2021-10-28T07:55:30Z</time>
      </trkpt>
      <trkpt lat="47.625996" lon="1.9307753">
        <ele>185</ele>
        <time>2021-10-28T07:55:31Z</time>
      </trkpt>
      <trkpt lat="47.625996" lon="1.9307866">
        <ele>185</ele>
        <time>2021-10-28T07:55:32Z</time>
      </trkpt>
      <trkpt lat="47.626003" lon="1.9307966">
        <ele>185</ele>
        <time>2021-10-28T07:55:33Z</time>
      </trkpt>
      <trkpt lat="47.626003" lon="1.9307966">
        <ele>185</ele>
        <time>2021-10-28T07:55:34Z</time>
      </trkpt>
      <trkpt lat="47.626003" lon="1.9307966">
        <ele>185</ele>
        <time>2021-10-28T07:55:35Z</time>
      </trkpt>
      <trkpt lat="47.626003" lon="1.9307966">
        <ele>185</ele>
        <time>2021-10-28T07:55:36Z</time>
      </trkpt>
      <trkpt lat="47.626003" lon="1.9307966">
        <ele>185</ele>
        <time>2021-10-28T07:55:37Z</time>
      </trkpt>
      <trkpt lat="47.626003" lon="1.9307966">
        <ele>185</ele>
        <time>2021-10-28T07:55:37Z</time>
      </trkpt>
    </trkseg>
    <trkseg>
      <trkpt lat="47.626003" lon="1.9307966">
        <ele>185</ele>
        <time>2021-10-28T07:55:37Z</time>
      </trkpt>
      <trkpt lat="47.626022" lon="1.9308368">
        <ele>184</ele>
        <time>2021-10-28T07:55:48Z</time>
      </trkpt>
      <trkpt lat="47.626026" lon="1.9308456">
        <ele>184</ele>
        <time>2021-10-28T07:55:49Z</time>
      </trkpt>
      <trkpt lat="47.626034" lon="1.9308585">
        <ele>183</ele>
        <time>2021-10-28T07:55:50Z</time>
      </trkpt>
      <trkpt lat="47.62604" lon="1.9308662">
        <ele>183</ele>
        <time>2021-10-28T07:55:51Z</time>
      </trkpt>
      <trkpt lat="47.626045" lon="1.9308811">
        <ele>182</ele>
        <time>2021-10-28T07:55:52Z</time>
      </trkpt>
      <trkpt lat="47.62605" lon="1.9308933">
        <ele>182</ele>
        <time>2021-10-28T07:55:53Z</time>
      </trkpt>
      <trkpt lat="47.626057" lon="1.9309028">
        <ele>182</ele>
        <time>2021-10-28T07:55:54Z</time>
      </trkpt>
      <trkpt lat="47.626064" lon="1.9309161">
        <ele>182</ele>
        <time>2021-10-28T07:55:55Z</time>
      </trkpt>
      <trkpt lat="47.626072" lon="1.9309322">
        <ele>182</ele>
        <time>2021-10-28T07:55:56Z</time>
      </trkpt>
      <trkpt lat="47.62608" lon="1.9309425">
        <ele>183</ele>
        <time>2021-10-28T07:55:57Z</time>
      </trkpt>
      <trkpt lat="47.62609" lon="1.930954">
        <ele>182</ele>
        <time>2021-10-28T07:55:58Z</time>
      </trkpt>
      <trkpt lat="47.6261" lon="1.930966">
        <ele>182</ele>
        <time>2021-10-28T07:55:59Z</time>
      </trkpt>
      <trkpt lat="47.626106" lon="1.9309784">
        <ele>182</ele>
        <time>2021-10-28T07:56:00Z</time>
      </trkpt>
      <trkpt lat="47.626114" lon="1.9309973">
        <ele>182</ele>
        <time>2021-10-28T07:56:01Z</time>
      </trkpt>
      <trkpt lat="47.626118" lon="1.931014">
        <ele>182</ele>
        <time>2021-10-28T07:56:02Z</time>
      </trkpt>
      <trkpt lat="47.62613" lon="1.93103">
        <ele>182</ele>
        <time>2021-10-28T07:56:03Z</time>
      </trkpt>
      <trkpt lat="47.626137" lon="1.9310474">
        <ele>182</ele>
        <time>2021-10-28T07:56:04Z</time>
      </trkpt>
      <trkpt lat="47.62614" lon="1.9310678">
        <ele>182</ele>
        <time>2021-10-28T07:56:05Z</time>
      </trkpt>
      <trkpt lat="47.626144" lon="1.931081">
        <ele>183</ele>
        <time>2021-10-28T07:56:06Z</time>
      </trkpt>
      <trkpt lat="47.62615" lon="1.9310905">
        <ele>182</ele>
        <time>2021-10-28T07:56:07Z</time>
      </trkpt>
      <trkpt lat="47.62616" lon="1.9310994">
        <ele>182</ele>
        <time>2021-10-28T07:56:08Z</time>
      </trkpt>
      <trkpt lat="47.626156" lon="1.9310997">
        <ele>182</ele>
        <time>2021-10-28T07:56:09Z</time>
      </trkpt>
      <trkpt lat="47.62616" lon="1.9311057">
        <ele>182</ele>
        <time>2021-10-28T07:56:10Z</time>
      </trkpt>
      <trkpt lat="47.626163" lon="1.9311162">
        <ele>182</ele>
        <time>2021-10-28T07:56:11Z</time>
      </trkpt>
      <trkpt lat="47.62617" lon="1.9311252">
        <ele>182</ele>
        <time>2021-10-28T07:56:12Z</time>
      </trkpt>
      <trkpt lat="47.62618" lon="1.9311414">
        <ele>182</ele>
        <time>2021-10-28T07:56:13Z</time>
      </trkpt>
      <trkpt lat="47.626186" lon="1.9311601">
        <ele>182</ele>
        <time>2021-10-28T07:56:14Z</time>
      </trkpt>
      <trkpt lat="47.62619" lon="1.9311754">
        <ele>182</ele>
        <time>2021-10-28T07:56:15Z</time>
      </trkpt>
      <trkpt lat="47.626198" lon="1.9311885">
        <ele>182</ele>
        <time>2021-10-28T07:56:16Z</time>
      </trkpt>
      <trkpt lat="47.6262" lon="1.9312055">
        <ele>182</ele>
        <time>2021-10-28T07:56:17Z</time>
      </trkpt>
      <trkpt lat="47.626205" lon="1.931219">
        <ele>182</ele>
        <time>2021-10-28T07:56:18Z</time>
      </trkpt>
      <trkpt lat="47.626213" lon="1.9312354">
        <ele>182</ele>
        <time>2021-10-28T07:56:19Z</time>
      </trkpt>
      <trkpt lat="47.62622" lon="1.93125">
        <ele>182</ele>
        <time>2021-10-28T07:56:20Z</time>
      </trkpt>
      <trkpt lat="47.626225" lon="1.9312677">
        <ele>182</ele>
        <time>2021-10-28T07:56:21Z</time>
      </trkpt>
      <trkpt lat="47.62623" lon="1.9312851">
        <ele>183</ele>
        <time>2021-10-28T07:56:22Z</time>
      </trkpt>
      <trkpt lat="47.626236" lon="1.9313052">
        <ele>182</ele>
        <time>2021-10-28T07:56:23Z</time>
      </trkpt>
      <trkpt lat="47.62624" lon="1.9313204">
        <ele>182</ele>
        <time>2021-10-28T07:56:24Z</time>
      </trkpt>
      <trkpt lat="47.626244" lon="1.9313366">
        <ele>182</ele>
        <time>2021-10-28T07:56:25Z</time>
      </trkpt>
      <trkpt lat="47.62625" lon="1.9313513">
        <ele>182</ele>
        <time>2021-10-28T07:56:26Z</time>
      </trkpt>
      <trkpt lat="47.626263" lon="1.9313688">
        <ele>182</ele>
        <time>2021-10-28T07:56:27Z</time>
      </trkpt>
      <trkpt lat="47.62627" lon="1.9313852">
        <ele>182</ele>
        <time>2021-10-28T07:56:28Z</time>
      </trkpt>
      <trkpt lat="47.62628" lon="1.9313992">
        <ele>182</ele>
        <time>2021-10-28T07:56:29Z</time>
      </trkpt>
      <trkpt lat="47.62629" lon="1.9314165">
        <ele>183</ele>
        <time>2021-10-28T07:56:30Z</time>
      </trkpt>
      <trkpt lat="47.626297" lon="1.9314305">
        <ele>183</ele>
        <time>2021-10-28T07:56:31Z</time>
      </trkpt>
      <trkpt lat="47.6263" lon="1.9314455">
        <ele>183</ele>
        <time>2021-10-28T07:56:32Z</time>
      </trkpt>
      <trkpt lat="47.62631" lon="1.9314631">
        <ele>183</ele>
        <time>2021-10-28T07:56:33Z</time>
      </trkpt>
      <trkpt lat="47.62632" lon="1.9314795">
        <ele>182</ele>
        <time>2021-10-28T07:56:34Z</time>
      </trkpt>
      <trkpt lat="47.62633" lon="1.9314902">
        <ele>183</ele>
        <time>2021-10-28T07:56:35Z</time>
      </trkpt>
      <trkpt lat="47.62634" lon="1.931508">
        <ele>182</ele>
        <time>2021-10-28T07:56:36Z</time>
      </trkpt>
      <trkpt lat="47.626343" lon="1.9315249">
        <ele>182</ele>
        <time>2021-10-28T07:56:37Z</time>
      </trkpt>
      <trkpt lat="47.62635" lon="1.931537">
        <ele>181</ele>
        <time>2021-10-28T07:56:38Z</time>
      </trkpt>
      <trkpt lat="47.626354" lon="1.9315459">
        <ele>181</ele>
        <time>2021-10-28T07:56:39Z</time>
      </trkpt>
      <trkpt lat="47.62636" lon="1.9315617">
        <ele>181</ele>
        <time>2021-10-28T07:56:40Z</time>
      </trkpt>
      <trkpt lat="47.62637" lon="1.931577">
        <ele>181</ele>
        <time>2021-10-28T07:56:41Z</time>
      </trkpt>
      <trkpt lat="47.626373" lon="1.9315957">
        <ele>181</ele>
        <time>2021-10-28T07:56:42Z</time>
      </trkpt>
      <trkpt lat="47.626385" lon="1.9316177">
        <ele>181</ele>
        <time>2021-10-28T07:56:43Z</time>
      </trkpt>
      <trkpt lat="47.62639" lon="1.9316351">
        <ele>181</ele>
        <time>2021-10-28T07:56:44Z</time>
      </trkpt>
      <trkpt lat="47.626396" lon="1.9316505">
        <ele>181</ele>
        <time>2021-10-28T07:56:45Z</time>
      </trkpt>
      <trkpt lat="47.6264" lon="1.9316661">
        <ele>181</ele>
        <time>2021-10-28T07:56:46Z</time>
      </trkpt>
      <trkpt lat="47.626408" lon="1.9316798">
        <ele>181</ele>
        <time>2021-10-28T07:56:47Z</time>
      </trkpt>
      <trkpt lat="47.626415" lon="1.9316875">
        <ele>182</ele>
        <time>2021-10-28T07:56:48Z</time>
      </trkpt>
      <trkpt lat="47.626427" lon="1.9317019">
        <ele>182</ele>
        <time>2021-10-28T07:56:49Z</time>
      </trkpt>
      <trkpt lat="47.62644" lon="1.9317077">
        <ele>182</ele>
        <time>2021-10-28T07:56:50Z</time>
      </trkpt>
      <trkpt lat="47.626442" lon="1.9317237">
        <ele>183</ele>
        <time>2021-10-28T07:56:51Z</time>
      </trkpt>
      <trkpt lat="47.626446" lon="1.9317368">
        <ele>182</ele>
        <time>2021-10-28T07:56:52Z</time>
      </trkpt>
      <trkpt lat="47.626457" lon="1.9317515">
        <ele>183</ele>
        <time>2021-10-28T07:56:53Z</time>
      </trkpt>
      <trkpt lat="47.62647" lon="1.9317658">
        <ele>183</ele>
        <time>2021-10-28T07:56:54Z</time>
      </trkpt>
      <trkpt lat="47.626476" lon="1.9317794">
        <ele>183</ele>
        <time>2021-10-28T07:56:55Z</time>
      </trkpt>
      <trkpt lat="47.626484" lon="1.9317958">
        <ele>183</ele>
        <time>2021-10-28T07:56:56Z</time>
      </trkpt>
      <trkpt lat="47.6265" lon="1.9318047">
        <ele>183</ele>
        <time>2021-10-28T07:56:57Z</time>
      </trkpt>
      <trkpt lat="47.626503" lon="1.9318156">
        <ele>183</ele>
        <time>2021-10-28T07:56:58Z</time>
      </trkpt>
      <trkpt lat="47.626514" lon="1.9318283">
        <ele>184</ele>
        <time>2021-10-28T07:56:59Z</time>
      </trkpt>
      <trkpt lat="47.626522" lon="1.9318414">
        <ele>184</ele>
        <time>2021-10-28T07:57:00Z</time>
      </trkpt>
      <trkpt lat="47.626534" lon="1.9318495">
        <ele>183</ele>
        <time>2021-10-28T07:57:01Z</time>
      </trkpt>
      <trkpt lat="47.626537" lon="1.9318614">
        <ele>183</ele>
        <time>2021-10-28T07:57:02Z</time>
      </trkpt>
      <trkpt lat="47.626545" lon="1.9318727">
        <ele>183</ele>
        <time>2021-10-28T07:57:03Z</time>
      </trkpt>
      <trkpt lat="47.626553" lon="1.9318833">
        <ele>183</ele>
        <time>2021-10-28T07:57:04Z</time>
      </trkpt>
      <trkpt lat="47.626556" lon="1.9318963">
        <ele>183</ele>
        <time>2021-10-28T07:57:05Z</time>
      </trkpt>
      <trkpt lat="47.626564" lon="1.9319094">
        <ele>184</ele>
        <time>2021-10-28T07:57:06Z</time>
      </trkpt>
      <trkpt lat="47.626568" lon="1.9319199">
        <ele>184</ele>
        <time>2021-10-28T07:57:07Z</time>
      </trkpt>
      <trkpt lat="47.62658" lon="1.9319308">
        <ele>184</ele>
        <time>2021-10-28T07:57:08Z</time>
      </trkpt>
      <trkpt lat="47.626587" lon="1.9319443">
        <ele>184</ele>
        <time>2021-10-28T07:57:09Z</time>
      </trkpt>
      <trkpt lat="47.626595" lon="1.9319594">
        <ele>184</ele>
        <time>2021-10-28T07:57:10Z</time>
      </trkpt>
      <trkpt lat="47.626606" lon="1.9319719">
        <ele>184</ele>
        <time>2021-10-28T07:57:11Z</time>
      </trkpt>
      <trkpt lat="47.626614" lon="1.9319812">
        <ele>184</ele>
        <time>2021-10-28T07:57:12Z</time>
      </trkpt>
      <trkpt lat="47.62662" lon="1.9319925">
        <ele>184</ele>
        <time>2021-10-28T07:57:13Z</time>
      </trkpt>
      <trkpt lat="47.626625" lon="1.932001">
        <ele>183</ele>
        <time>2021-10-28T07:57:14Z</time>
      </trkpt>
      <trkpt lat="47.626637" lon="1.93201">
        <ele>183</ele>
        <time>2021-10-28T07:57:15Z</time>
      </trkpt>
      <trkpt lat="47.626644" lon="1.9320196">
        <ele>183</ele>
        <time>2021-10-28T07:57:16Z</time>
      </trkpt>
      <trkpt lat="47.626648" lon="1.9320309">
        <ele>183</ele>
        <time>2021-10-28T07:57:17Z</time>
      </trkpt>
      <trkpt lat="47.626656" lon="1.9320459">
        <ele>183</ele>
        <time>2021-10-28T07:57:18Z</time>
      </trkpt>
      <trkpt lat="47.626663" lon="1.9320588">
        <ele>183</ele>
        <time>2021-10-28T07:57:19Z</time>
      </trkpt>
      <trkpt lat="47.626675" lon="1.9320699">
        <ele>182</ele>
        <time>2021-10-28T07:57:20Z</time>
      </trkpt>
      <trkpt lat="47.626686" lon="1.932084">
        <ele>183</ele>
        <time>2021-10-28T07:57:21Z</time>
      </trkpt>
      <trkpt lat="47.626694" lon="1.932102">
        <ele>183</ele>
        <time>2021-10-28T07:57:22Z</time>
      </trkpt>
      <trkpt lat="47.626705" lon="1.9321153">
        <ele>183</ele>
        <time>2021-10-28T07:57:23Z</time>
      </trkpt>
      <trkpt lat="47.626713" lon="1.9321315">
        <ele>183</ele>
        <time>2021-10-28T07:57:24Z</time>
      </trkpt>
      <trkpt lat="47.626717" lon="1.9321529">
        <ele>182</ele>
        <time>2021-10-28T07:57:25Z</time>
      </trkpt>
      <trkpt lat="47.626724" lon="1.9321711">
        <ele>182</ele>
        <time>2021-10-28T07:57:26Z</time>
      </trkpt>
      <trkpt lat="47.626736" lon="1.9321873">
        <ele>182</ele>
        <time>2021-10-28T07:57:27Z</time>
      </trkpt>
      <trkpt lat="47.62674" lon="1.9322065">
        <ele>183</ele>
        <time>2021-10-28T07:57:28Z</time>
      </trkpt>
      <trkpt lat="47.626743" lon="1.9322188">
        <ele>183</ele>
        <time>2021-10-28T07:57:29Z</time>
      </trkpt>
      <trkpt lat="47.62675" lon="1.9322345">
        <ele>183</ele>
        <time>2021-10-28T07:57:30Z</time>
      </trkpt>
      <trkpt lat="47.626762" lon="1.9322509">
        <ele>183</ele>
        <time>2021-10-28T07:57:31Z</time>
      </trkpt>
      <trkpt lat="47.626774" lon="1.9322685">
        <ele>183</ele>
        <time>2021-10-28T07:57:32Z</time>
      </trkpt>
      <trkpt lat="47.626778" lon="1.932286">
        <ele>183</ele>
        <time>2021-10-28T07:57:33Z</time>
      </trkpt>
      <trkpt lat="47.62678" lon="1.932303">
        <ele>183</ele>
        <time>2021-10-28T07:57:34Z</time>
      </trkpt>
      <trkpt lat="47.62679" lon="1.9323115">
        <ele>183</ele>
        <time>2021-10-28T07:57:35Z</time>
      </trkpt>
      <trkpt lat="47.626793" lon="1.9323202">
        <ele>182</ele>
        <time>2021-10-28T07:57:36Z</time>
      </trkpt>
      <trkpt lat="47.626804" lon="1.9323318">
        <ele>182</ele>
        <time>2021-10-28T07:57:37Z</time>
      </trkpt>
      <trkpt lat="47.626812" lon="1.9323486">
        <ele>182</ele>
        <time>2021-10-28T07:57:38Z</time>
      </trkpt>
      <trkpt lat="47.62682" lon="1.9323612">
        <ele>182</ele>
        <time>2021-10-28T07:57:39Z</time>
      </trkpt>
      <trkpt lat="47.626827" lon="1.9323776">
        <ele>182</ele>
        <time>2021-10-28T07:57:40Z</time>
      </trkpt>
      <trkpt lat="47.626835" lon="1.9323974">
        <ele>183</ele>
        <time>2021-10-28T07:57:41Z</time>
      </trkpt>
      <trkpt lat="47.626842" lon="1.9324154">
        <ele>183</ele>
        <time>2021-10-28T07:57:42Z</time>
      </trkpt>
      <trkpt lat="47.626846" lon="1.9324301">
        <ele>183</ele>
        <time>2021-10-28T07:57:43Z</time>
      </trkpt>
      <trkpt lat="47.626854" lon="1.9324465">
        <ele>182</ele>
        <time>2021-10-28T07:57:44Z</time>
      </trkpt>
      <trkpt lat="47.62686" lon="1.9324564">
        <ele>182</ele>
        <time>2021-10-28T07:57:45Z</time>
      </trkpt>
      <trkpt lat="47.62687" lon="1.9324716">
        <ele>182</ele>
        <time>2021-10-28T07:57:46Z</time>
      </trkpt>
      <trkpt lat="47.62688" lon="1.9324825">
        <ele>182</ele>
        <time>2021-10-28T07:57:47Z</time>
      </trkpt>
      <trkpt lat="47.62689" lon="1.932497">
        <ele>181</ele>
        <time>2021-10-28T07:57:48Z</time>
      </trkpt>
      <trkpt lat="47.6269" lon="1.932513">
        <ele>181</ele>
        <time>2021-10-28T07:57:49Z</time>
      </trkpt>
      <trkpt lat="47.626907" lon="1.9325331">
        <ele>181</ele>
        <time>2021-10-28T07:57:50Z</time>
      </trkpt>
      <trkpt lat="47.62692" lon="1.9325469">
        <ele>182</ele>
        <time>2021-10-28T07:57:51Z</time>
      </trkpt>
      <trkpt lat="47.626926" lon="1.9325606">
        <ele>182</ele>
        <time>2021-10-28T07:57:52Z</time>
      </trkpt>
      <trkpt lat="47.62693" lon="1.9325725">
        <ele>182</ele>
        <time>2021-10-28T07:57:53Z</time>
      </trkpt>
      <trkpt lat="47.62694" lon="1.9325833">
        <ele>182</ele>
        <time>2021-10-28T07:57:54Z</time>
      </trkpt>
      <trkpt lat="47.626945" lon="1.9325969">
        <ele>181</ele>
        <time>2021-10-28T07:57:55Z</time>
      </trkpt>
      <trkpt lat="47.626957" lon="1.9326122">
        <ele>181</ele>
        <time>2021-10-28T07:57:56Z</time>
      </trkpt>
      <trkpt lat="47.62696" lon="1.9326276">
        <ele>181</ele>
        <time>2021-10-28T07:57:57Z</time>
      </trkpt>
      <trkpt lat="47.62697" lon="1.9326433">
        <ele>180</ele>
        <time>2021-10-28T07:57:58Z</time>
      </trkpt>
      <trkpt lat="47.626976" lon="1.9326605">
        <ele>180</ele>
        <time>2021-10-28T07:57:59Z</time>
      </trkpt>
      <trkpt lat="47.626984" lon="1.9326813">
        <ele>180</ele>
        <time>2021-10-28T07:58:00Z</time>
      </trkpt>
      <trkpt lat="47.626987" lon="1.9327024">
        <ele>181</ele>
        <time>2021-10-28T07:58:01Z</time>
      </trkpt>
      <trkpt lat="47.626995" lon="1.9327217">
        <ele>180</ele>
        <time>2021-10-28T07:58:02Z</time>
      </trkpt>
      <trkpt lat="47.627" lon="1.9327381">
        <ele>181</ele>
        <time>2021-10-28T07:58:03Z</time>
      </trkpt>
      <trkpt lat="47.627003" lon="1.9327533">
        <ele>181</ele>
        <time>2021-10-28T07:58:04Z</time>
      </trkpt>
      <trkpt lat="47.62701" lon="1.9327713">
        <ele>181</ele>
        <time>2021-10-28T07:58:05Z</time>
      </trkpt>
      <trkpt lat="47.627018" lon="1.9327883">
        <ele>180</ele>
        <time>2021-10-28T07:58:06Z</time>
      </trkpt>
      <trkpt lat="47.62703" lon="1.9328047">
        <ele>180</ele>
        <time>2021-10-28T07:58:07Z</time>
      </trkpt>
      <trkpt lat="47.62704" lon="1.932822">
        <ele>180</ele>
        <time>2021-10-28T07:58:08Z</time>
      </trkpt>
      <trkpt lat="47.627052" lon="1.9328387">
        <ele>180</ele>
        <time>2021-10-28T07:58:09Z</time>
      </trkpt>
      <trkpt lat="47.62706" lon="1.9328527">
        <ele>180</ele>
        <time>2021-10-28T07:58:10Z</time>
      </trkpt>
      <trkpt lat="47.627068" lon="1.9328629">
        <ele>180</ele>
        <time>2021-10-28T07:58:11Z</time>
      </trkpt>
      <trkpt lat="47.62708" lon="1.9328791">
        <ele>180</ele>
        <time>2021-10-28T07:58:12Z</time>
      </trkpt>
      <trkpt lat="47.627083" lon="1.9328933">
        <ele>180</ele>
        <time>2021-10-28T07:58:13Z</time>
      </trkpt>
      <trkpt lat="47.627094" lon="1.9329089">
        <ele>179</ele>
        <time>2021-10-28T07:58:14Z</time>
      </trkpt>
      <trkpt lat="47.6271" lon="1.9329257">
        <ele>179</ele>
        <time>2021-10-28T07:58:15Z</time>
      </trkpt>
      <trkpt lat="47.62711" lon="1.9329414">
        <ele>179</ele>
        <time>2021-10-28T07:58:16Z</time>
      </trkpt>
      <trkpt lat="47.62712" lon="1.9329553">
        <ele>179</ele>
        <time>2021-10-28T07:58:17Z</time>
      </trkpt>
      <trkpt lat="47.62713" lon="1.93297">
        <ele>179</ele>
        <time>2021-10-28T07:58:18Z</time>
      </trkpt>
      <trkpt lat="47.627136" lon="1.9329786">
        <ele>179</ele>
        <time>2021-10-28T07:58:19Z</time>
      </trkpt>
      <trkpt lat="47.627144" lon="1.9329925">
        <ele>179</ele>
        <time>2021-10-28T07:58:20Z</time>
      </trkpt>
      <trkpt lat="47.62715" lon="1.9330083">
        <ele>179</ele>
        <time>2021-10-28T07:58:21Z</time>
      </trkpt>
      <trkpt lat="47.62716" lon="1.9330189">
        <ele>179</ele>
        <time>2021-10-28T07:58:22Z</time>
      </trkpt>
      <trkpt lat="47.627167" lon="1.9330298">
        <ele>178</ele>
        <time>2021-10-28T07:58:23Z</time>
      </trkpt>
      <trkpt lat="47.627174" lon="1.9330419">
        <ele>178</ele>
        <time>2021-10-28T07:58:24Z</time>
      </trkpt>
      <trkpt lat="47.62718" lon="1.933056">
        <ele>178</ele>
        <time>2021-10-28T07:58:25Z</time>
      </trkpt>
      <trkpt lat="47.627182" lon="1.9330734">
        <ele>178</ele>
        <time>2021-10-28T07:58:26Z</time>
      </trkpt>
      <trkpt lat="47.627186" lon="1.9330915">
        <ele>178</ele>
        <time>2021-10-28T07:58:27Z</time>
      </trkpt>
      <trkpt lat="47.627197" lon="1.933133">
        <ele>178</ele>
        <time>2021-10-28T07:58:29Z</time>
      </trkpt>
      <trkpt lat="47.627205" lon="1.9331498">
        <ele>178</ele>
        <time>2021-10-28T07:58:30Z</time>
      </trkpt>
      <trkpt lat="47.627213" lon="1.9331651">
        <ele>178</ele>
        <time>2021-10-28T07:58:31Z</time>
      </trkpt>
      <trkpt lat="47.627224" lon="1.9331796">
        <ele>178</ele>
        <time>2021-10-28T07:58:32Z</time>
      </trkpt>
      <trkpt lat="47.627228" lon="1.9331965">
        <ele>178</ele>
        <time>2021-10-28T07:58:33Z</time>
      </trkpt>
      <trkpt lat="47.627228" lon="1.9331973">
        <ele>177</ele>
        <time>2021-10-28T07:58:34Z</time>
      </trkpt>
      <trkpt lat="47.62723" lon="1.9332081">
        <ele>177</ele>
        <time>2021-10-28T07:58:35Z</time>
      </trkpt>
      <trkpt lat="47.627235" lon="1.9332213">
        <ele>177</ele>
        <time>2021-10-28T07:58:36Z</time>
      </trkpt>
      <trkpt lat="47.627247" lon="1.9332333">
        <ele>177</ele>
        <time>2021-10-28T07:58:37Z</time>
      </trkpt>
      <trkpt lat="47.627254" lon="1.9332466">
        <ele>176</ele>
        <time>2021-10-28T07:58:38Z</time>
      </trkpt>
      <trkpt lat="47.627262" lon="1.9332641">
        <ele>176</ele>
        <time>2021-10-28T07:58:39Z</time>
      </trkpt>
      <trkpt lat="47.62727" lon="1.9332771">
        <ele>176</ele>
        <time>2021-10-28T07:58:40Z</time>
      </trkpt>
      <trkpt lat="47.62728" lon="1.9332924">
        <ele>176</ele>
        <time>2021-10-28T07:58:41Z</time>
      </trkpt>
      <trkpt lat="47.62729" lon="1.9333048">
        <ele>176</ele>
        <time>2021-10-28T07:58:42Z</time>
      </trkpt>
      <trkpt lat="47.6273" lon="1.9333211">
        <ele>176</ele>
        <time>2021-10-28T07:58:43Z</time>
      </trkpt>
      <trkpt lat="47.627308" lon="1.9333333">
        <ele>175</ele>
        <time>2021-10-28T07:58:44Z</time>
      </trkpt>
      <trkpt lat="47.627316" lon="1.9333452">
        <ele>175</ele>
        <time>2021-10-28T07:58:45Z</time>
      </trkpt>
      <trkpt lat="47.627327" lon="1.9333583">
        <ele>175</ele>
        <time>2021-10-28T07:58:46Z</time>
      </trkpt>
      <trkpt lat="47.627335" lon="1.933371">
        <ele>174</ele>
        <time>2021-10-28T07:58:47Z</time>
      </trkpt>
      <trkpt lat="47.627342" lon="1.9333735">
        <ele>174</ele>
        <time>2021-10-28T07:58:48Z</time>
      </trkpt>
      <trkpt lat="47.62735" lon="1.9333814">
        <ele>173</ele>
        <time>2021-10-28T07:58:49Z</time>
      </trkpt>
      <trkpt lat="47.627354" lon="1.9333922">
        <ele>173</ele>
        <time>2021-10-28T07:58:50Z</time>
      </trkpt>
      <trkpt lat="47.62736" lon="1.933403">
        <ele>172</ele>
        <time>2021-10-28T07:58:51Z</time>
      </trkpt>
      <trkpt lat="47.627373" lon="1.93341">
        <ele>172</ele>
        <time>2021-10-28T07:58:52Z</time>
      </trkpt>
      <trkpt lat="47.627384" lon="1.9334226">
        <ele>172</ele>
        <time>2021-10-28T07:58:53Z</time>
      </trkpt>
      <trkpt lat="47.627396" lon="1.9334381">
        <ele>172</ele>
        <time>2021-10-28T07:58:54Z</time>
      </trkpt>
      <trkpt lat="47.627407" lon="1.9334546">
        <ele>172</ele>
        <time>2021-10-28T07:58:55Z</time>
      </trkpt>
      <trkpt lat="47.627415" lon="1.9334682">
        <ele>172</ele>
        <time>2021-10-28T07:58:56Z</time>
      </trkpt>
      <trkpt lat="47.627422" lon="1.933481">
        <ele>172</ele>
        <time>2021-10-28T07:58:57Z</time>
      </trkpt>
      <trkpt lat="47.627434" lon="1.9334975">
        <ele>172</ele>
        <time>2021-10-28T07:58:58Z</time>
      </trkpt>
      <trkpt lat="47.627445" lon="1.9335132">
        <ele>172</ele>
        <time>2021-10-28T07:58:59Z</time>
      </trkpt>
      <trkpt lat="47.627453" lon="1.933526">
        <ele>172</ele>
        <time>2021-10-28T07:59:00Z</time>
      </trkpt>
      <trkpt lat="47.62746" lon="1.9335368">
        <ele>172</ele>
        <time>2021-10-28T07:59:01Z</time>
      </trkpt>
      <trkpt lat="47.627476" lon="1.9335464">
        <ele>172</ele>
        <time>2021-10-28T07:59:02Z</time>
      </trkpt>
      <trkpt lat="47.627483" lon="1.933558">
        <ele>172</ele>
        <time>2021-10-28T07:59:03Z</time>
      </trkpt>
      <trkpt lat="47.627495" lon="1.9335693">
        <ele>171</ele>
        <time>2021-10-28T07:59:04Z</time>
      </trkpt>
      <trkpt lat="47.627502" lon="1.9335806">
        <ele>171</ele>
        <time>2021-10-28T07:59:05Z</time>
      </trkpt>
      <trkpt lat="47.627506" lon="1.9335955">
        <ele>171</ele>
        <time>2021-10-28T07:59:06Z</time>
      </trkpt>
      <trkpt lat="47.627518" lon="1.9336084">
        <ele>171</ele>
        <time>2021-10-28T07:59:07Z</time>
      </trkpt>
      <trkpt lat="47.62753" lon="1.9336184">
        <ele>171</ele>
        <time>2021-10-28T07:59:08Z</time>
      </trkpt>
      <trkpt lat="47.627537" lon="1.9336362">
        <ele>171</ele>
        <time>2021-10-28T07:59:09Z</time>
      </trkpt>
      <trkpt lat="47.627544" lon="1.9336504">
        <ele>171</ele>
        <time>2021-10-28T07:59:10Z</time>
      </trkpt>
      <trkpt lat="47.627556" lon="1.9336572">
        <ele>170</ele>
        <time>2021-10-28T07:59:11Z</time>
      </trkpt>
      <trkpt lat="47.627563" lon="1.9336681">
        <ele>170</ele>
        <time>2021-10-28T07:59:12Z</time>
      </trkpt>
      <trkpt lat="47.627575" lon="1.933678">
        <ele>169</ele>
        <time>2021-10-28T07:59:13Z</time>
      </trkpt>
      <trkpt lat="47.627586" lon="1.933685">
        <ele>169</ele>
        <time>2021-10-28T07:59:14Z</time>
      </trkpt>
      <trkpt lat="47.62759" lon="1.933697">
        <ele>169</ele>
        <time>2021-10-28T07:59:15Z</time>
      </trkpt>
      <trkpt lat="47.6276" lon="1.93371">
        <ele>169</ele>
        <time>2021-10-28T07:59:16Z</time>
      </trkpt>
      <trkpt lat="47.62761" lon="1.9337243">
        <ele>169</ele>
        <time>2021-10-28T07:59:17Z</time>
      </trkpt>
      <trkpt lat="47.627617" lon="1.9337393">
        <ele>169</ele>
        <time>2021-10-28T07:59:18Z</time>
      </trkpt>
      <trkpt lat="47.62763" lon="1.9337517">
        <ele>169</ele>
        <time>2021-10-28T07:59:19Z</time>
      </trkpt>
      <trkpt lat="47.62764" lon="1.933764">
        <ele>169</ele>
        <time>2021-10-28T07:59:20Z</time>
      </trkpt>
      <trkpt lat="47.62765" lon="1.9337741">
        <ele>169</ele>
        <time>2021-10-28T07:59:21Z</time>
      </trkpt>
      <trkpt lat="47.627655" lon="1.9337858">
        <ele>169</ele>
        <time>2021-10-28T07:59:22Z</time>
      </trkpt>
      <trkpt lat="47.62766" lon="1.9337991">
        <ele>168</ele>
        <time>2021-10-28T07:59:23Z</time>
      </trkpt>
      <trkpt lat="47.627663" lon="1.9338152">
        <ele>168</ele>
        <time>2021-10-28T07:59:24Z</time>
      </trkpt>
      <trkpt lat="47.62766" lon="1.9338288">
        <ele>168</ele>
        <time>2021-10-28T07:59:25Z</time>
      </trkpt>
      <trkpt lat="47.62765" lon="1.9338427">
        <ele>168</ele>
        <time>2021-10-28T07:59:26Z</time>
      </trkpt>
      <trkpt lat="47.627644" lon="1.9338607">
        <ele>167</ele>
        <time>2021-10-28T07:59:27Z</time>
      </trkpt>
      <trkpt lat="47.627636" lon="1.9338759">
        <ele>167</ele>
        <time>2021-10-28T07:59:28Z</time>
      </trkpt>
      <trkpt lat="47.62763" lon="1.933884">
        <ele>167</ele>
        <time>2021-10-28T07:59:29Z</time>
      </trkpt>
      <trkpt lat="47.62762" lon="1.9338906">
        <ele>166</ele>
        <time>2021-10-28T07:59:30Z</time>
      </trkpt>
      <trkpt lat="47.627617" lon="1.9338917">
        <ele>166</ele>
        <time>2021-10-28T07:59:31Z</time>
      </trkpt>
      <trkpt lat="47.62762" lon="1.9338845">
        <ele>165</ele>
        <time>2021-10-28T07:59:32Z</time>
      </trkpt>
      <trkpt lat="47.62762" lon="1.9338841">
        <ele>165</ele>
        <time>2021-10-28T07:59:33Z</time>
      </trkpt>
      <trkpt lat="47.62762" lon="1.933884">
        <ele>165</ele>
        <time>2021-10-28T07:59:34Z</time>
      </trkpt>
      <trkpt lat="47.62762" lon="1.9338837">
        <ele>165</ele>
        <time>2021-10-28T07:59:35Z</time>
      </trkpt>
      <trkpt lat="47.62762" lon="1.9338837">
        <ele>165</ele>
        <time>2021-10-28T07:59:35Z</time>
      </trkpt>
    </trkseg>
    <trkseg>
      <trkpt lat="47.62762" lon="1.9338837">
        <ele>165</ele>
        <time>2021-10-28T07:59:35Z</time>
      </trkpt>
      <trkpt lat="47.62768" lon="1.9339079">
        <ele>163</ele>
        <time>2021-10-28T08:02:34Z</time>
      </trkpt>
      <trkpt lat="47.62768" lon="1.9339079">
        <ele>163</ele>
        <time>2021-10-28T08:02:35Z</time>
      </trkpt>
      <trkpt lat="47.62768" lon="1.9338771">
        <ele>162</ele>
        <time>2021-10-28T08:02:36Z</time>
      </trkpt>
      <trkpt lat="47.62769" lon="1.9338666">
        <ele>162</ele>
        <time>2021-10-28T08:02:37Z</time>
      </trkpt>
      <trkpt lat="47.627693" lon="1.9338583">
        <ele>162</ele>
        <time>2021-10-28T08:02:38Z</time>
      </trkpt>
      <trkpt lat="47.627697" lon="1.9338504">
        <ele>162</ele>
        <time>2021-10-28T08:02:39Z</time>
      </trkpt>
      <trkpt lat="47.627693" lon="1.9338388">
        <ele>162</ele>
        <time>2021-10-28T08:02:40Z</time>
      </trkpt>
      <trkpt lat="47.627697" lon="1.9338357">
        <ele>162</ele>
        <time>2021-10-28T08:02:41Z</time>
      </trkpt>
      <trkpt lat="47.627697" lon="1.9338353">
        <ele>162</ele>
        <time>2021-10-28T08:02:42Z</time>
      </trkpt>
      <trkpt lat="47.6277" lon="1.9338344">
        <ele>162</ele>
        <time>2021-10-28T08:02:43Z</time>
      </trkpt>
      <trkpt lat="47.6277" lon="1.9338332">
        <ele>162</ele>
        <time>2021-10-28T08:02:44Z</time>
      </trkpt>
      <trkpt lat="47.6277" lon="1.9338391">
        <ele>163</ele>
        <time>2021-10-28T08:02:45Z</time>
      </trkpt>
      <trkpt lat="47.6277" lon="1.9338435">
        <ele>163</ele>
        <time>2021-10-28T08:02:46Z</time>
      </trkpt>
      <trkpt lat="47.627705" lon="1.9338522">
        <ele>164</ele>
        <time>2021-10-28T08:02:47Z</time>
      </trkpt>
      <trkpt lat="47.627712" lon="1.9338623">
        <ele>164</ele>
        <time>2021-10-28T08:02:48Z</time>
      </trkpt>
      <trkpt lat="47.627705" lon="1.933867">
        <ele>164</ele>
        <time>2021-10-28T08:02:49Z</time>
      </trkpt>
      <trkpt lat="47.627697" lon="1.9338678">
        <ele>163</ele>
        <time>2021-10-28T08:02:50Z</time>
      </trkpt>
      <trkpt lat="47.627686" lon="1.9338709">
        <ele>163</ele>
        <time>2021-10-28T08:02:51Z</time>
      </trkpt>
      <trkpt lat="47.627678" lon="1.933878">
        <ele>163</ele>
        <time>2021-10-28T08:02:52Z</time>
      </trkpt>
      <trkpt lat="47.627678" lon="1.933878">
        <ele>163</ele>
        <time>2021-10-28T08:02:53Z</time>
      </trkpt>
      <trkpt lat="47.627678" lon="1.933878">
        <ele>163</ele>
        <time>2021-10-28T08:02:53Z</time>
      </trkpt>
    </trkseg>
    <trkseg>
      <trkpt lat="47.627678" lon="1.933878">
        <ele>163</ele>
        <time>2021-10-28T08:02:53Z</time>
      </trkpt>
      <trkpt lat="47.627705" lon="1.9338983">
        <ele>162</ele>
        <time>2021-10-28T08:04:06Z</time>
      </trkpt>
      <trkpt lat="47.6277" lon="1.9338917">
        <ele>162</ele>
        <time>2021-10-28T08:04:07Z</time>
      </trkpt>
      <trkpt lat="47.6277" lon="1.9338915">
        <ele>162</ele>
        <time>2021-10-28T08:04:08Z</time>
      </trkpt>
      <trkpt lat="47.6277" lon="1.9338917">
        <ele>162</ele>
        <time>2021-10-28T08:04:09Z</time>
      </trkpt>
      <trkpt lat="47.6277" lon="1.9338918">
        <ele>162</ele>
        <time>2021-10-28T08:04:10Z</time>
      </trkpt>
      <trkpt lat="47.6277" lon="1.9338918">
        <ele>162</ele>
        <time>2021-10-28T08:04:10Z</time>
      </trkpt>
    </trkseg>
    <trkseg>
      <trkpt lat="47.6277" lon="1.9338918">
        <ele>162</ele>
        <time>2021-10-28T08:04:10Z</time>
      </trkpt>
      <trkpt lat="47.62778" lon="1.9339211">
        <ele>167</ele>
        <time>2021-10-28T08:04:33Z</time>
      </trkpt>
      <trkpt lat="47.62779" lon="1.9339296">
        <ele>166</ele>
        <time>2021-10-28T08:04:34Z</time>
      </trkpt>
      <trkpt lat="47.6278" lon="1.9339378">
        <ele>167</ele>
        <time>2021-10-28T08:04:35Z</time>
      </trkpt>
      <trkpt lat="47.62781" lon="1.9339484">
        <ele>167</ele>
        <time>2021-10-28T08:04:36Z</time>
      </trkpt>
      <trkpt lat="47.627823" lon="1.9339552">
        <ele>167</ele>
        <time>2021-10-28T08:04:37Z</time>
      </trkpt>
      <trkpt lat="47.627834" lon="1.9339684">
        <ele>167</ele>
        <time>2021-10-28T08:04:38Z</time>
      </trkpt>
      <trkpt lat="47.62785" lon="1.933977">
        <ele>167</ele>
        <time>2021-10-28T08:04:39Z</time>
      </trkpt>
      <trkpt lat="47.627857" lon="1.9339799">
        <ele>167</ele>
        <time>2021-10-28T08:04:40Z</time>
      </trkpt>
      <trkpt lat="47.62787" lon="1.9339803">
        <ele>167</ele>
        <time>2021-10-28T08:04:41Z</time>
      </trkpt>
      <trkpt lat="47.627876" lon="1.9339772">
        <ele>167</ele>
        <time>2021-10-28T08:04:42Z</time>
      </trkpt>
      <trkpt lat="47.62788" lon="1.9339745">
        <ele>168</ele>
        <time>2021-10-28T08:04:43Z</time>
      </trkpt>
      <trkpt lat="47.627884" lon="1.9339709">
        <ele>169</ele>
        <time>2021-10-28T08:04:44Z</time>
      </trkpt>
      <trkpt lat="47.627884" lon="1.9339709">
        <ele>169</ele>
        <time>2021-10-28T08:04:45Z</time>
      </trkpt>
      <trkpt lat="47.627884" lon="1.9339709">
        <ele>169</ele>
        <time>2021-10-28T08:04:46Z</time>
      </trkpt>
      <trkpt lat="47.627884" lon="1.9339709">
        <ele>169</ele>
        <time>2021-10-28T08:04:47Z</time>
      </trkpt>
      <trkpt lat="47.627884" lon="1.9339709">
        <ele>169</ele>
        <time>2021-10-28T08:04:47Z</time>
      </trkpt>
    </trkseg>
    <trkseg>
      <trkpt lat="47.627884" lon="1.9339709">
        <ele>169</ele>
        <time>2021-10-28T08:04:47Z</time>
      </trkpt>
      <trkpt lat="47.627815" lon="1.9339879">
        <ele>168</ele>
        <time>2021-10-28T08:05:47Z</time>
      </trkpt>
      <trkpt lat="47.627808" lon="1.9339838">
        <ele>168</ele>
        <time>2021-10-28T08:05:48Z</time>
      </trkpt>
      <trkpt lat="47.627804" lon="1.9339751">
        <ele>168</ele>
        <time>2021-10-28T08:05:49Z</time>
      </trkpt>
      <trkpt lat="47.627792" lon="1.9339716">
        <ele>168</ele>
        <time>2021-10-28T08:05:50Z</time>
      </trkpt>
      <trkpt lat="47.627796" lon="1.9339807">
        <ele>168</ele>
        <time>2021-10-28T08:05:51Z</time>
      </trkpt>
      <trkpt lat="47.627796" lon="1.9339818">
        <ele>168</ele>
        <time>2021-10-28T08:05:52Z</time>
      </trkpt>
      <trkpt lat="47.627796" lon="1.9339828">
        <ele>168</ele>
        <time>2021-10-28T08:05:53Z</time>
      </trkpt>
      <trkpt lat="47.627796" lon="1.9339838">
        <ele>168</ele>
        <time>2021-10-28T08:05:54Z</time>
      </trkpt>
      <trkpt lat="47.627796" lon="1.9339838">
        <ele>168</ele>
        <time>2021-10-28T08:05:55Z</time>
      </trkpt>
      <trkpt lat="47.627796" lon="1.9339838">
        <ele>168</ele>
        <time>2021-10-28T08:05:55Z</time>
      </trkpt>
    </trkseg>
    <trkseg>
      <trkpt lat="47.627796" lon="1.9339838">
        <ele>168</ele>
        <time>2021-10-28T08:05:55Z</time>
      </trkpt>
      <trkpt lat="47.627758" lon="1.9339199">
        <ele>165</ele>
        <time>2021-10-28T08:06:06Z</time>
      </trkpt>
      <trkpt lat="47.627747" lon="1.933913">
        <ele>165</ele>
        <time>2021-10-28T08:06:07Z</time>
      </trkpt>
      <trkpt lat="47.62774" lon="1.9339072">
        <ele>165</ele>
        <time>2021-10-28T08:06:08Z</time>
      </trkpt>
      <trkpt lat="47.62773" lon="1.9338979">
        <ele>165</ele>
        <time>2021-10-28T08:06:09Z</time>
      </trkpt>
      <trkpt lat="47.62772" lon="1.9338918">
        <ele>165</ele>
        <time>2021-10-28T08:06:10Z</time>
      </trkpt>
      <trkpt lat="47.627712" lon="1.93389">
        <ele>165</ele>
        <time>2021-10-28T08:06:11Z</time>
      </trkpt>
      <trkpt lat="47.627705" lon="1.9338886">
        <ele>165</ele>
        <time>2021-10-28T08:06:12Z</time>
      </trkpt>
      <trkpt lat="47.6277" lon="1.9338889">
        <ele>165</ele>
        <time>2021-10-28T08:06:13Z</time>
      </trkpt>
      <trkpt lat="47.627697" lon="1.9338946">
        <ele>164</ele>
        <time>2021-10-28T08:06:14Z</time>
      </trkpt>
      <trkpt lat="47.627697" lon="1.9338946">
        <ele>164</ele>
        <time>2021-10-28T08:06:15Z</time>
      </trkpt>
      <trkpt lat="47.627697" lon="1.9338946">
        <ele>164</ele>
        <time>2021-10-28T08:06:16Z</time>
      </trkpt>
      <trkpt lat="47.627697" lon="1.9338946">
        <ele>164</ele>
        <time>2021-10-28T08:06:17Z</time>
      </trkpt>
      <trkpt lat="47.627697" lon="1.9338946">
        <ele>164</ele>
        <time>2021-10-28T08:06:17Z</time>
      </trkpt>
    </trkseg>
    <trkseg>
      <trkpt lat="47.627697" lon="1.9338946">
        <ele>164</ele>
        <time>2021-10-28T08:06:17Z</time>
      </trkpt>
      <trkpt lat="47.62766" lon="1.9339211">
        <ele>164</ele>
        <time>2021-10-28T08:06:29Z</time>
      </trkpt>
      <trkpt lat="47.62766" lon="1.9339211">
        <ele>164</ele>
        <time>2021-10-28T08:06:30Z</time>
      </trkpt>
      <trkpt lat="47.62766" lon="1.9339211">
        <ele>164</ele>
        <time>2021-10-28T08:06:31Z</time>
      </trkpt>
      <trkpt lat="47.62766" lon="1.9339211">
        <ele>164</ele>
        <time>2021-10-28T08:06:32Z</time>
      </trkpt>
      <trkpt lat="47.62766" lon="1.9339211">
        <ele>164</ele>
        <time>2021-10-28T08:06:33Z</time>
      </trkpt>
      <trkpt lat="47.62766" lon="1.9339211">
        <ele>164</ele>
        <time>2021-10-28T08:06:34Z</time>
      </trkpt>
      <trkpt lat="47.62766" lon="1.9339211">
        <ele>164</ele>
        <time>2021-10-28T08:06:34Z</time>
      </trkpt>
    </trkseg>
    <trkseg>
      <trkpt lat="47.62766" lon="1.9339211">
        <ele>164</ele>
        <time>2021-10-28T08:06:34Z</time>
      </trkpt>
      <trkpt lat="47.62766" lon="1.9339211">
        <ele>161</ele>
        <time>2021-10-28T08:07:26Z</time>
      </trkpt>
      <trkpt lat="47.62766" lon="1.9339211">
        <ele>161</ele>
        <time>2021-10-28T08:07:27Z</time>
      </trkpt>
      <trkpt lat="47.62766" lon="1.9339211">
        <ele>161</ele>
        <time>2021-10-28T08:07:28Z</time>
      </trkpt>
      <trkpt lat="47.62766" lon="1.9339211">
        <ele>161</ele>
        <time>2021-10-28T08:07:28Z</time>
      </trkpt>
    </trkseg>
    <trkseg>
      <trkpt lat="47.62766" lon="1.9339211">
        <ele>161</ele>
        <time>2021-10-28T08:07:28Z</time>
      </trkpt>
      <trkpt lat="47.627663" lon="1.9339178">
        <ele>160</ele>
        <time>2021-10-28T08:07:48Z</time>
      </trkpt>
      <trkpt lat="47.627663" lon="1.9339178">
        <ele>160</ele>
        <time>2021-10-28T08:07:49Z</time>
      </trkpt>
      <trkpt lat="47.627663" lon="1.9339178">
        <ele>160</ele>
        <time>2021-10-28T08:07:50Z</time>
      </trkpt>
      <trkpt lat="47.627663" lon="1.9339178">
        <ele>160</ele>
        <time>2021-10-28T08:07:51Z</time>
      </trkpt>
      <trkpt lat="47.627663" lon="1.9339178">
        <ele>160</ele>
        <time>2021-10-28T08:07:52Z</time>
      </trkpt>
      <trkpt lat="47.627663" lon="1.9339178">
        <ele>160</ele>
        <time>2021-10-28T08:07:53Z</time>
      </trkpt>
      <trkpt lat="47.627663" lon="1.9339178">
        <ele>160</ele>
        <time>2021-10-28T08:07:54Z</time>
      </trkpt>
      <trkpt lat="47.627663" lon="1.9339178">
        <ele>160</ele>
        <time>2021-10-28T08:07:55Z</time>
      </trkpt>
      <trkpt lat="47.627663" lon="1.9339178">
        <ele>160</ele>
        <time>2021-10-28T08:07:56Z</time>
      </trkpt>
      <trkpt lat="47.627663" lon="1.9339178">
        <ele>160</ele>
        <time>2021-10-28T08:07:57Z</time>
      </trkpt>
      <trkpt lat="47.627663" lon="1.9339178">
        <ele>160</ele>
        <time>2021-10-28T08:07:58Z</time>
      </trkpt>
      <trkpt lat="47.627663" lon="1.9339178">
        <ele>160</ele>
        <time>2021-10-28T08:07:59Z</time>
      </trkpt>
      <trkpt lat="47.627663" lon="1.9339178">
        <ele>160</ele>
        <time>2021-10-28T08:08:00Z</time>
      </trkpt>
      <trkpt lat="47.627663" lon="1.9339178">
        <ele>160</ele>
        <time>2021-10-28T08:08:00Z</time>
      </trkpt>
    </trkseg>
    <trkseg>
      <trkpt lat="47.627663" lon="1.9339178">
        <ele>160</ele>
        <time>2021-10-28T08:08:00Z</time>
      </trkpt>
      <trkpt lat="47.62766" lon="1.9339045">
        <ele>162</ele>
        <time>2021-10-28T08:08:04Z</time>
      </trkpt>
      <trkpt lat="47.62766" lon="1.9339062">
        <ele>162</ele>
        <time>2021-10-28T08:08:05Z</time>
      </trkpt>
      <trkpt lat="47.62766" lon="1.9339062">
        <ele>162</ele>
        <time>2021-10-28T08:08:06Z</time>
      </trkpt>
      <trkpt lat="47.62766" lon="1.9339062">
        <ele>162</ele>
        <time>2021-10-28T08:08:07Z</time>
      </trkpt>
      <trkpt lat="47.62766" lon="1.9339062">
        <ele>162</ele>
        <time>2021-10-28T08:08:08Z</time>
      </trkpt>
      <trkpt lat="47.62766" lon="1.9339062">
        <ele>162</ele>
        <time>2021-10-28T08:08:09Z</time>
      </trkpt>
      <trkpt lat="47.62766" lon="1.9339062">
        <ele>162</ele>
        <time>2021-10-28T08:08:10Z</time>
      </trkpt>
      <trkpt lat="47.62766" lon="1.9339062">
        <ele>162</ele>
        <time>2021-10-28T08:08:11Z</time>
      </trkpt>
      <trkpt lat="47.62766" lon="1.9339062">
        <ele>162</ele>
        <time>2021-10-28T08:08:12Z</time>
      </trkpt>
      <trkpt lat="47.62766" lon="1.9339062">
        <ele>162</ele>
        <time>2021-10-28T08:08:13Z</time>
      </trkpt>
      <trkpt lat="47.62766" lon="1.9339062">
        <ele>162</ele>
        <time>2021-10-28T08:08:14Z</time>
      </trkpt>
      <trkpt lat="47.62766" lon="1.9339062">
        <ele>162</ele>
        <time>2021-10-28T08:08:15Z</time>
      </trkpt>
      <trkpt lat="47.62766" lon="1.9339062">
        <ele>162</ele>
        <time>2021-10-28T08:08:16Z</time>
      </trkpt>
      <trkpt lat="47.62766" lon="1.9339062">
        <ele>162</ele>
        <time>2021-10-28T08:08:16Z</time>
      </trkpt>
    </trkseg>
    <trkseg>
      <trkpt lat="47.62766" lon="1.9339062">
        <ele>162</ele>
        <time>2021-10-28T08:08:16Z</time>
      </trkpt>
      <trkpt lat="47.62768" lon="1.9339095">
        <ele>162</ele>
        <time>2021-10-28T08:09:23Z</time>
      </trkpt>
      <trkpt lat="47.62768" lon="1.9339095">
        <ele>162</ele>
        <time>2021-10-28T08:09:24Z</time>
      </trkpt>
      <trkpt lat="47.62768" lon="1.9339095">
        <ele>162</ele>
        <time>2021-10-28T08:09:25Z</time>
      </trkpt>
      <trkpt lat="47.62768" lon="1.9339095">
        <ele>162</ele>
        <time>2021-10-28T08:09:25Z</time>
      </trkpt>
    </trkseg>
    <trkseg>
      <trkpt lat="47.62768" lon="1.9339095">
        <ele>162</ele>
        <time>2021-10-28T08:09:25Z</time>
      </trkpt>
      <trkpt lat="47.62775" lon="1.9338654">
        <ele>161</ele>
        <time>2021-10-28T08:10:48Z</time>
      </trkpt>
      <trkpt lat="47.627758" lon="1.9338704">
        <ele>161</ele>
        <time>2021-10-28T08:10:49Z</time>
      </trkpt>
      <trkpt lat="47.62776" lon="1.9338734">
        <ele>161</ele>
        <time>2021-10-28T08:10:50Z</time>
      </trkpt>
      <trkpt lat="47.62777" lon="1.9338788">
        <ele>161</ele>
        <time>2021-10-28T08:10:51Z</time>
      </trkpt>
      <trkpt lat="47.627773" lon="1.9338849">
        <ele>161</ele>
        <time>2021-10-28T08:10:52Z</time>
      </trkpt>
      <trkpt lat="47.627773" lon="1.9338918">
        <ele>162</ele>
        <time>2021-10-28T08:10:53Z</time>
      </trkpt>
      <trkpt lat="47.627773" lon="1.9338932">
        <ele>163</ele>
        <time>2021-10-28T08:10:54Z</time>
      </trkpt>
      <trkpt lat="47.62777" lon="1.9338992">
        <ele>163</ele>
        <time>2021-10-28T08:10:55Z</time>
      </trkpt>
      <trkpt lat="47.62777" lon="1.9338994">
        <ele>163</ele>
        <time>2021-10-28T08:10:56Z</time>
      </trkpt>
      <trkpt lat="47.62777" lon="1.9338994">
        <ele>163</ele>
        <time>2021-10-28T08:10:57Z</time>
      </trkpt>
      <trkpt lat="47.62777" lon="1.9338994">
        <ele>163</ele>
        <time>2021-10-28T08:10:57Z</time>
      </trkpt>
    </trkseg>
    <trkseg>
      <trkpt lat="47.62777" lon="1.9338994">
        <ele>163</ele>
        <time>2021-10-28T08:10:57Z</time>
      </trkpt>
      <trkpt lat="47.627804" lon="1.9339451">
        <ele>164</ele>
        <time>2021-10-28T08:11:08Z</time>
      </trkpt>
      <trkpt lat="47.627815" lon="1.9339544">
        <ele>164</ele>
        <time>2021-10-28T08:11:09Z</time>
      </trkpt>
      <trkpt lat="47.627823" lon="1.9339626">
        <ele>164</ele>
        <time>2021-10-28T08:11:10Z</time>
      </trkpt>
      <trkpt lat="47.62783" lon="1.9339657">
        <ele>164</ele>
        <time>2021-10-28T08:11:11Z</time>
      </trkpt>
      <trkpt lat="47.627842" lon="1.9339666">
        <ele>164</ele>
        <time>2021-10-28T08:11:12Z</time>
      </trkpt>
      <trkpt lat="47.627846" lon="1.9339699">
        <ele>164</ele>
        <time>2021-10-28T08:11:13Z</time>
      </trkpt>
      <trkpt lat="47.627853" lon="1.9339744">
        <ele>164</ele>
        <time>2021-10-28T08:11:14Z</time>
      </trkpt>
      <trkpt lat="47.62786" lon="1.9339836">
        <ele>163</ele>
        <time>2021-10-28T08:11:15Z</time>
      </trkpt>
      <trkpt lat="47.62787" lon="1.9339886">
        <ele>164</ele>
        <time>2021-10-28T08:11:16Z</time>
      </trkpt>
      <trkpt lat="47.627876" lon="1.9339917">
        <ele>164</ele>
        <time>2021-10-28T08:11:17Z</time>
      </trkpt>
      <trkpt lat="47.627884" lon="1.9339976">
        <ele>164</ele>
        <time>2021-10-28T08:11:18Z</time>
      </trkpt>
      <trkpt lat="47.62789" lon="1.9340073">
        <ele>164</ele>
        <time>2021-10-28T08:11:19Z</time>
      </trkpt>
      <trkpt lat="47.627907" lon="1.9340149">
        <ele>164</ele>
        <time>2021-10-28T08:11:20Z</time>
      </trkpt>
      <trkpt lat="47.62792" lon="1.9340177">
        <ele>165</ele>
        <time>2021-10-28T08:11:21Z</time>
      </trkpt>
      <trkpt lat="47.627926" lon="1.9340189">
        <ele>165</ele>
        <time>2021-10-28T08:11:22Z</time>
      </trkpt>
      <trkpt lat="47.627934" lon="1.9340217">
        <ele>165</ele>
        <time>2021-10-28T08:11:23Z</time>
      </trkpt>
      <trkpt lat="47.62794" lon="1.9340307">
        <ele>165</ele>
        <time>2021-10-28T08:11:24Z</time>
      </trkpt>
      <trkpt lat="47.62795" lon="1.9340316">
        <ele>165</ele>
        <time>2021-10-28T08:11:25Z</time>
      </trkpt>
      <trkpt lat="47.627956" lon="1.9340416">
        <ele>166</ele>
        <time>2021-10-28T08:11:26Z</time>
      </trkpt>
      <trkpt lat="47.627968" lon="1.9340503">
        <ele>165</ele>
        <time>2021-10-28T08:11:27Z</time>
      </trkpt>
      <trkpt lat="47.62798" lon="1.9340564">
        <ele>165</ele>
        <time>2021-10-28T08:11:28Z</time>
      </trkpt>
      <trkpt lat="47.62799" lon="1.9340614">
        <ele>165</ele>
        <time>2021-10-28T08:11:29Z</time>
      </trkpt>
      <trkpt lat="47.628002" lon="1.9340676">
        <ele>165</ele>
        <time>2021-10-28T08:11:30Z</time>
      </trkpt>
      <trkpt lat="47.628014" lon="1.9340729">
        <ele>165</ele>
        <time>2021-10-28T08:11:31Z</time>
      </trkpt>
      <trkpt lat="47.628025" lon="1.9340789">
        <ele>166</ele>
        <time>2021-10-28T08:11:32Z</time>
      </trkpt>
      <trkpt lat="47.628036" lon="1.934085">
        <ele>166</ele>
        <time>2021-10-28T08:11:33Z</time>
      </trkpt>
      <trkpt lat="47.628048" lon="1.93409">
        <ele>166</ele>
        <time>2021-10-28T08:11:34Z</time>
      </trkpt>
      <trkpt lat="47.628056" lon="1.9340978">
        <ele>166</ele>
        <time>2021-10-28T08:11:35Z</time>
      </trkpt>
      <trkpt lat="47.628067" lon="1.9341031">
        <ele>166</ele>
        <time>2021-10-28T08:11:36Z</time>
      </trkpt>
      <trkpt lat="47.62808" lon="1.9341078">
        <ele>166</ele>
        <time>2021-10-28T08:11:37Z</time>
      </trkpt>
      <trkpt lat="47.62809" lon="1.9341111">
        <ele>166</ele>
        <time>2021-10-28T08:11:38Z</time>
      </trkpt>
      <trkpt lat="47.628105" lon="1.9341136">
        <ele>166</ele>
        <time>2021-10-28T08:11:39Z</time>
      </trkpt>
      <trkpt lat="47.628113" lon="1.9341133">
        <ele>166</ele>
        <time>2021-10-28T08:11:40Z</time>
      </trkpt>
      <trkpt lat="47.628124" lon="1.934115">
        <ele>167</ele>
        <time>2021-10-28T08:11:41Z</time>
      </trkpt>
      <trkpt lat="47.62814" lon="1.9341165">
        <ele>167</ele>
        <time>2021-10-28T08:11:42Z</time>
      </trkpt>
      <trkpt lat="47.62815" lon="1.9341234">
        <ele>167</ele>
        <time>2021-10-28T08:11:43Z</time>
      </trkpt>
      <trkpt lat="47.628162" lon="1.9341315">
        <ele>167</ele>
        <time>2021-10-28T08:11:44Z</time>
      </trkpt>
      <trkpt lat="47.628174" lon="1.9341373">
        <ele>167</ele>
        <time>2021-10-28T08:11:45Z</time>
      </trkpt>
      <trkpt lat="47.62818" lon="1.9341434">
        <ele>167</ele>
        <time>2021-10-28T08:11:46Z</time>
      </trkpt>
      <trkpt lat="47.628197" lon="1.934149">
        <ele>166</ele>
        <time>2021-10-28T08:11:47Z</time>
      </trkpt>
      <trkpt lat="47.62821" lon="1.9341557">
        <ele>166</ele>
        <time>2021-10-28T08:11:48Z</time>
      </trkpt>
      <trkpt lat="47.628223" lon="1.9341586">
        <ele>167</ele>
        <time>2021-10-28T08:11:49Z</time>
      </trkpt>
      <trkpt lat="47.628235" lon="1.9341648">
        <ele>167</ele>
        <time>2021-10-28T08:11:50Z</time>
      </trkpt>
      <trkpt lat="47.628246" lon="1.9341663">
        <ele>167</ele>
        <time>2021-10-28T08:11:51Z</time>
      </trkpt>
      <trkpt lat="47.628254" lon="1.9341685">
        <ele>167</ele>
        <time>2021-10-28T08:11:52Z</time>
      </trkpt>
      <trkpt lat="47.628265" lon="1.9341707">
        <ele>168</ele>
        <time>2021-10-28T08:11:53Z</time>
      </trkpt>
      <trkpt lat="47.628277" lon="1.9341769">
        <ele>168</ele>
        <time>2021-10-28T08:11:54Z</time>
      </trkpt>
      <trkpt lat="47.628284" lon="1.9341801">
        <ele>167</ele>
        <time>2021-10-28T08:11:55Z</time>
      </trkpt>
      <trkpt lat="47.628296" lon="1.9341806">
        <ele>167</ele>
        <time>2021-10-28T08:11:56Z</time>
      </trkpt>
      <trkpt lat="47.628307" lon="1.9341861">
        <ele>167</ele>
        <time>2021-10-28T08:11:57Z</time>
      </trkpt>
      <trkpt lat="47.628315" lon="1.9341863">
        <ele>167</ele>
        <time>2021-10-28T08:11:58Z</time>
      </trkpt>
      <trkpt lat="47.628326" lon="1.9341882">
        <ele>167</ele>
        <time>2021-10-28T08:11:59Z</time>
      </trkpt>
      <trkpt lat="47.62834" lon="1.9341905">
        <ele>167</ele>
        <time>2021-10-28T08:12:00Z</time>
      </trkpt>
      <trkpt lat="47.628353" lon="1.9341954">
        <ele>167</ele>
        <time>2021-10-28T08:12:01Z</time>
      </trkpt>
      <trkpt lat="47.628365" lon="1.9342022">
        <ele>167</ele>
        <time>2021-10-28T08:12:02Z</time>
      </trkpt>
      <trkpt lat="47.628376" lon="1.9342096">
        <ele>167</ele>
        <time>2021-10-28T08:12:03Z</time>
      </trkpt>
      <trkpt lat="47.628387" lon="1.9342147">
        <ele>168</ele>
        <time>2021-10-28T08:12:04Z</time>
      </trkpt>
      <trkpt lat="47.628395" lon="1.9342202">
        <ele>168</ele>
        <time>2021-10-28T08:12:05Z</time>
      </trkpt>
      <trkpt lat="47.62841" lon="1.9342289">
        <ele>168</ele>
        <time>2021-10-28T08:12:06Z</time>
      </trkpt>
      <trkpt lat="47.62842" lon="1.9342359">
        <ele>168</ele>
        <time>2021-10-28T08:12:07Z</time>
      </trkpt>
      <trkpt lat="47.628437" lon="1.9342432">
        <ele>168</ele>
        <time>2021-10-28T08:12:08Z</time>
      </trkpt>
      <trkpt lat="47.62845" lon="1.93425">
        <ele>168</ele>
        <time>2021-10-28T08:12:09Z</time>
      </trkpt>
      <trkpt lat="47.62846" lon="1.9342588">
        <ele>168</ele>
        <time>2021-10-28T08:12:10Z</time>
      </trkpt>
      <trkpt lat="47.628468" lon="1.9342694">
        <ele>168</ele>
        <time>2021-10-28T08:12:11Z</time>
      </trkpt>
      <trkpt lat="47.62848" lon="1.9342749">
        <ele>168</ele>
        <time>2021-10-28T08:12:12Z</time>
      </trkpt>
      <trkpt lat="47.62849" lon="1.9342797">
        <ele>167</ele>
        <time>2021-10-28T08:12:13Z</time>
      </trkpt>
      <trkpt lat="47.628506" lon="1.9342796">
        <ele>167</ele>
        <time>2021-10-28T08:12:14Z</time>
      </trkpt>
      <trkpt lat="47.628517" lon="1.9342873">
        <ele>167</ele>
        <time>2021-10-28T08:12:15Z</time>
      </trkpt>
      <trkpt lat="47.628532" lon="1.9342943">
        <ele>167</ele>
        <time>2021-10-28T08:12:16Z</time>
      </trkpt>
      <trkpt lat="47.628548" lon="1.9343027">
        <ele>168</ele>
        <time>2021-10-28T08:12:17Z</time>
      </trkpt>
      <trkpt lat="47.62856" lon="1.9343078">
        <ele>167</ele>
        <time>2021-10-28T08:12:18Z</time>
      </trkpt>
      <trkpt lat="47.62857" lon="1.9343152">
        <ele>167</ele>
        <time>2021-10-28T08:12:19Z</time>
      </trkpt>
      <trkpt lat="47.628582" lon="1.9343194">
        <ele>167</ele>
        <time>2021-10-28T08:12:20Z</time>
      </trkpt>
      <trkpt lat="47.628597" lon="1.9343282">
        <ele>167</ele>
        <time>2021-10-28T08:12:21Z</time>
      </trkpt>
      <trkpt lat="47.62861" lon="1.9343389">
        <ele>167</ele>
        <time>2021-10-28T08:12:22Z</time>
      </trkpt>
      <trkpt lat="47.62862" lon="1.934349">
        <ele>167</ele>
        <time>2021-10-28T08:12:23Z</time>
      </trkpt>
      <trkpt lat="47.62863" lon="1.9343568">
        <ele>167</ele>
        <time>2021-10-28T08:12:24Z</time>
      </trkpt>
      <trkpt lat="47.628643" lon="1.934364">
        <ele>167</ele>
        <time>2021-10-28T08:12:25Z</time>
      </trkpt>
      <trkpt lat="47.628654" lon="1.9343752">
        <ele>166</ele>
        <time>2021-10-28T08:12:26Z</time>
      </trkpt>
      <trkpt lat="47.628666" lon="1.934381">
        <ele>166</ele>
        <time>2021-10-28T08:12:27Z</time>
      </trkpt>
      <trkpt lat="47.62868" lon="1.9343834">
        <ele>166</ele>
        <time>2021-10-28T08:12:28Z</time>
      </trkpt>
      <trkpt lat="47.628693" lon="1.9343888">
        <ele>166</ele>
        <time>2021-10-28T08:12:29Z</time>
      </trkpt>
      <trkpt lat="47.628704" lon="1.934394">
        <ele>166</ele>
        <time>2021-10-28T08:12:30Z</time>
      </trkpt>
      <trkpt lat="47.62872" lon="1.9344014">
        <ele>166</ele>
        <time>2021-10-28T08:12:31Z</time>
      </trkpt>
      <trkpt lat="47.628735" lon="1.9344064">
        <ele>166</ele>
        <time>2021-10-28T08:12:32Z</time>
      </trkpt>
      <trkpt lat="47.628746" lon="1.9344115">
        <ele>166</ele>
        <time>2021-10-28T08:12:33Z</time>
      </trkpt>
      <trkpt lat="47.628757" lon="1.934419">
        <ele>166</ele>
        <time>2021-10-28T08:12:34Z</time>
      </trkpt>
      <trkpt lat="47.62877" lon="1.9344268">
        <ele>166</ele>
        <time>2021-10-28T08:12:35Z</time>
      </trkpt>
      <trkpt lat="47.628777" lon="1.9344316">
        <ele>166</ele>
        <time>2021-10-28T08:12:36Z</time>
      </trkpt>
      <trkpt lat="47.628788" lon="1.9344345">
        <ele>166</ele>
        <time>2021-10-28T08:12:37Z</time>
      </trkpt>
      <trkpt lat="47.628796" lon="1.9344361">
        <ele>166</ele>
        <time>2021-10-28T08:12:38Z</time>
      </trkpt>
      <trkpt lat="47.62881" lon="1.9344395">
        <ele>166</ele>
        <time>2021-10-28T08:12:39Z</time>
      </trkpt>
      <trkpt lat="47.628822" lon="1.9344437">
        <ele>166</ele>
        <time>2021-10-28T08:12:40Z</time>
      </trkpt>
      <trkpt lat="47.628834" lon="1.9344476">
        <ele>166</ele>
        <time>2021-10-28T08:12:41Z</time>
      </trkpt>
      <trkpt lat="47.62884" lon="1.9344528">
        <ele>166</ele>
        <time>2021-10-28T08:12:42Z</time>
      </trkpt>
      <trkpt lat="47.628853" lon="1.9344591">
        <ele>166</ele>
        <time>2021-10-28T08:12:43Z</time>
      </trkpt>
      <trkpt lat="47.628864" lon="1.9344605">
        <ele>166</ele>
        <time>2021-10-28T08:12:44Z</time>
      </trkpt>
      <trkpt lat="47.628872" lon="1.934466">
        <ele>166</ele>
        <time>2021-10-28T08:12:45Z</time>
      </trkpt>
      <trkpt lat="47.62888" lon="1.9344722">
        <ele>165</ele>
        <time>2021-10-28T08:12:46Z</time>
      </trkpt>
      <trkpt lat="47.62889" lon="1.9344765">
        <ele>166</ele>
        <time>2021-10-28T08:12:47Z</time>
      </trkpt>
      <trkpt lat="47.628902" lon="1.9344839">
        <ele>166</ele>
        <time>2021-10-28T08:12:48Z</time>
      </trkpt>
      <trkpt lat="47.628914" lon="1.9344878">
        <ele>166</ele>
        <time>2021-10-28T08:12:49Z</time>
      </trkpt>
      <trkpt lat="47.62892" lon="1.934491">
        <ele>166</ele>
        <time>2021-10-28T08:12:50Z</time>
      </trkpt>
      <trkpt lat="47.628937" lon="1.9344962">
        <ele>166</ele>
        <time>2021-10-28T08:12:51Z</time>
      </trkpt>
      <trkpt lat="47.62895" lon="1.9345057">
        <ele>166</ele>
        <time>2021-10-28T08:12:52Z</time>
      </trkpt>
      <trkpt lat="47.62896" lon="1.934515">
        <ele>166</ele>
        <time>2021-10-28T08:12:53Z</time>
      </trkpt>
      <trkpt lat="47.62897" lon="1.9345216">
        <ele>166</ele>
        <time>2021-10-28T08:12:54Z</time>
      </trkpt>
      <trkpt lat="47.628983" lon="1.9345292">
        <ele>165</ele>
        <time>2021-10-28T08:12:55Z</time>
      </trkpt>
      <trkpt lat="47.628994" lon="1.9345385">
        <ele>165</ele>
        <time>2021-10-28T08:12:56Z</time>
      </trkpt>
      <trkpt lat="47.629005" lon="1.9345443">
        <ele>165</ele>
        <time>2021-10-28T08:12:57Z</time>
      </trkpt>
      <trkpt lat="47.629013" lon="1.9345516">
        <ele>165</ele>
        <time>2021-10-28T08:12:58Z</time>
      </trkpt>
      <trkpt lat="47.629032" lon="1.934555">
        <ele>165</ele>
        <time>2021-10-28T08:12:59Z</time>
      </trkpt>
      <trkpt lat="47.62904" lon="1.9345534">
        <ele>165</ele>
        <time>2021-10-28T08:13:00Z</time>
      </trkpt>
      <trkpt lat="47.62905" lon="1.9345608">
        <ele>165</ele>
        <time>2021-10-28T08:13:01Z</time>
      </trkpt>
      <trkpt lat="47.629063" lon="1.9345653">
        <ele>165</ele>
        <time>2021-10-28T08:13:02Z</time>
      </trkpt>
      <trkpt lat="47.629074" lon="1.9345708">
        <ele>165</ele>
        <time>2021-10-28T08:13:03Z</time>
      </trkpt>
      <trkpt lat="47.629086" lon="1.9345769">
        <ele>165</ele>
        <time>2021-10-28T08:13:04Z</time>
      </trkpt>
      <trkpt lat="47.629097" lon="1.9345807">
        <ele>165</ele>
        <time>2021-10-28T08:13:05Z</time>
      </trkpt>
      <trkpt lat="47.62911" lon="1.9345851">
        <ele>165</ele>
        <time>2021-10-28T08:13:06Z</time>
      </trkpt>
      <trkpt lat="47.629112" lon="1.9345944">
        <ele>165</ele>
        <time>2021-10-28T08:13:07Z</time>
      </trkpt>
      <trkpt lat="47.62912" lon="1.934603">
        <ele>165</ele>
        <time>2021-10-28T08:13:08Z</time>
      </trkpt>
      <trkpt lat="47.62913" lon="1.9346099">
        <ele>165</ele>
        <time>2021-10-28T08:13:09Z</time>
      </trkpt>
      <trkpt lat="47.629147" lon="1.9346122">
        <ele>165</ele>
        <time>2021-10-28T08:13:10Z</time>
      </trkpt>
      <trkpt lat="47.62916" lon="1.9346129">
        <ele>165</ele>
        <time>2021-10-28T08:13:11Z</time>
      </trkpt>
      <trkpt lat="47.629177" lon="1.9346193">
        <ele>165</ele>
        <time>2021-10-28T08:13:12Z</time>
      </trkpt>
      <trkpt lat="47.62919" lon="1.9346238">
        <ele>165</ele>
        <time>2021-10-28T08:13:13Z</time>
      </trkpt>
      <trkpt lat="47.629204" lon="1.9346248">
        <ele>164</ele>
        <time>2021-10-28T08:13:14Z</time>
      </trkpt>
      <trkpt lat="47.629215" lon="1.934628">
        <ele>164</ele>
        <time>2021-10-28T08:13:15Z</time>
      </trkpt>
      <trkpt lat="47.62923" lon="1.9346322">
        <ele>164</ele>
        <time>2021-10-28T08:13:16Z</time>
      </trkpt>
      <trkpt lat="47.629246" lon="1.9346373">
        <ele>164</ele>
        <time>2021-10-28T08:13:17Z</time>
      </trkpt>
      <trkpt lat="47.629257" lon="1.9346416">
        <ele>164</ele>
        <time>2021-10-28T08:13:18Z</time>
      </trkpt>
      <trkpt lat="47.62927" lon="1.9346447">
        <ele>163</ele>
        <time>2021-10-28T08:13:19Z</time>
      </trkpt>
      <trkpt lat="47.62928" lon="1.9346439">
        <ele>163</ele>
        <time>2021-10-28T08:13:20Z</time>
      </trkpt>
      <trkpt lat="47.629295" lon="1.9346468">
        <ele>164</ele>
        <time>2021-10-28T08:13:21Z</time>
      </trkpt>
      <trkpt lat="47.629307" lon="1.9346527">
        <ele>163</ele>
        <time>2021-10-28T08:13:22Z</time>
      </trkpt>
      <trkpt lat="47.629314" lon="1.9346579">
        <ele>163</ele>
        <time>2021-10-28T08:13:23Z</time>
      </trkpt>
      <trkpt lat="47.629326" lon="1.9346597">
        <ele>163</ele>
        <time>2021-10-28T08:13:24Z</time>
      </trkpt>
      <trkpt lat="47.629337" lon="1.93466">
        <ele>163</ele>
        <time>2021-10-28T08:13:25Z</time>
      </trkpt>
      <trkpt lat="47.62935" lon="1.9346634">
        <ele>163</ele>
        <time>2021-10-28T08:13:26Z</time>
      </trkpt>
      <trkpt lat="47.629356" lon="1.9346665">
        <ele>164</ele>
        <time>2021-10-28T08:13:27Z</time>
      </trkpt>
      <trkpt lat="47.629368" lon="1.9346756">
        <ele>163</ele>
        <time>2021-10-28T08:13:28Z</time>
      </trkpt>
      <trkpt lat="47.629383" lon="1.9346809">
        <ele>164</ele>
        <time>2021-10-28T08:13:29Z</time>
      </trkpt>
      <trkpt lat="47.6294" lon="1.9346837">
        <ele>163</ele>
        <time>2021-10-28T08:13:30Z</time>
      </trkpt>
      <trkpt lat="47.629406" lon="1.9346889">
        <ele>163</ele>
        <time>2021-10-28T08:13:31Z</time>
      </trkpt>
      <trkpt lat="47.629417" lon="1.9346952">
        <ele>163</ele>
        <time>2021-10-28T08:13:32Z</time>
      </trkpt>
      <trkpt lat="47.629433" lon="1.9347007">
        <ele>163</ele>
        <time>2021-10-28T08:13:33Z</time>
      </trkpt>
      <trkpt lat="47.629444" lon="1.9347047">
        <ele>163</ele>
        <time>2021-10-28T08:13:34Z</time>
      </trkpt>
      <trkpt lat="47.629456" lon="1.9347093">
        <ele>163</ele>
        <time>2021-10-28T08:13:35Z</time>
      </trkpt>
      <trkpt lat="47.62947" lon="1.9347167">
        <ele>163</ele>
        <time>2021-10-28T08:13:36Z</time>
      </trkpt>
      <trkpt lat="47.629486" lon="1.9347297">
        <ele>163</ele>
        <time>2021-10-28T08:13:37Z</time>
      </trkpt>
      <trkpt lat="47.629498" lon="1.9347379">
        <ele>163</ele>
        <time>2021-10-28T08:13:38Z</time>
      </trkpt>
      <trkpt lat="47.62951" lon="1.934744">
        <ele>163</ele>
        <time>2021-10-28T08:13:39Z</time>
      </trkpt>
      <trkpt lat="47.629524" lon="1.9347497">
        <ele>163</ele>
        <time>2021-10-28T08:13:40Z</time>
      </trkpt>
      <trkpt lat="47.629536" lon="1.9347569">
        <ele>163</ele>
        <time>2021-10-28T08:13:41Z</time>
      </trkpt>
      <trkpt lat="47.629547" lon="1.9347644">
        <ele>164</ele>
        <time>2021-10-28T08:13:42Z</time>
      </trkpt>
      <trkpt lat="47.629562" lon="1.9347715">
        <ele>163</ele>
        <time>2021-10-28T08:13:43Z</time>
      </trkpt>
      <trkpt lat="47.629574" lon="1.9347773">
        <ele>163</ele>
        <time>2021-10-28T08:13:44Z</time>
      </trkpt>
      <trkpt lat="47.62959" lon="1.9347811">
        <ele>163</ele>
        <time>2021-10-28T08:13:45Z</time>
      </trkpt>
      <trkpt lat="47.629604" lon="1.9347787">
        <ele>163</ele>
        <time>2021-10-28T08:13:46Z</time>
      </trkpt>
      <trkpt lat="47.629616" lon="1.9347898">
        <ele>163</ele>
        <time>2021-10-28T08:13:47Z</time>
      </trkpt>
      <trkpt lat="47.62963" lon="1.9347986">
        <ele>163</ele>
        <time>2021-10-28T08:13:48Z</time>
      </trkpt>
      <trkpt lat="47.629642" lon="1.9348097">
        <ele>163</ele>
        <time>2021-10-28T08:13:49Z</time>
      </trkpt>
      <trkpt lat="47.629658" lon="1.9348136">
        <ele>163</ele>
        <time>2021-10-28T08:13:50Z</time>
      </trkpt>
      <trkpt lat="47.62967" lon="1.9348227">
        <ele>164</ele>
        <time>2021-10-28T08:13:51Z</time>
      </trkpt>
      <trkpt lat="47.629684" lon="1.9348276">
        <ele>164</ele>
        <time>2021-10-28T08:13:52Z</time>
      </trkpt>
      <trkpt lat="47.629696" lon="1.9348412">
        <ele>165</ele>
        <time>2021-10-28T08:13:53Z</time>
      </trkpt>
      <trkpt lat="47.62971" lon="1.9348462">
        <ele>165</ele>
        <time>2021-10-28T08:13:54Z</time>
      </trkpt>
      <trkpt lat="47.629726" lon="1.9348524">
        <ele>164</ele>
        <time>2021-10-28T08:13:55Z</time>
      </trkpt>
      <trkpt lat="47.629738" lon="1.9348569">
        <ele>164</ele>
        <time>2021-10-28T08:13:56Z</time>
      </trkpt>
      <trkpt lat="47.629753" lon="1.9348612">
        <ele>164</ele>
        <time>2021-10-28T08:13:57Z</time>
      </trkpt>
      <trkpt lat="47.62977" lon="1.9348702">
        <ele>164</ele>
        <time>2021-10-28T08:13:58Z</time>
      </trkpt>
      <trkpt lat="47.629776" lon="1.9348766">
        <ele>164</ele>
        <time>2021-10-28T08:13:59Z</time>
      </trkpt>
      <trkpt lat="47.629784" lon="1.9348769">
        <ele>164</ele>
        <time>2021-10-28T08:14:00Z</time>
      </trkpt>
      <trkpt lat="47.62979" lon="1.9348804">
        <ele>164</ele>
        <time>2021-10-28T08:14:01Z</time>
      </trkpt>
      <trkpt lat="47.629807" lon="1.9348836">
        <ele>164</ele>
        <time>2021-10-28T08:14:02Z</time>
      </trkpt>
      <trkpt lat="47.629818" lon="1.9348892">
        <ele>164</ele>
        <time>2021-10-28T08:14:03Z</time>
      </trkpt>
      <trkpt lat="47.629833" lon="1.9348953">
        <ele>164</ele>
        <time>2021-10-28T08:14:04Z</time>
      </trkpt>
      <trkpt lat="47.62984" lon="1.9348963">
        <ele>164</ele>
        <time>2021-10-28T08:14:05Z</time>
      </trkpt>
      <trkpt lat="47.62985" lon="1.934907">
        <ele>164</ele>
        <time>2021-10-28T08:14:06Z</time>
      </trkpt>
      <trkpt lat="47.62986" lon="1.9349159">
        <ele>163</ele>
        <time>2021-10-28T08:14:07Z</time>
      </trkpt>
      <trkpt lat="47.62987" lon="1.9349244">
        <ele>163</ele>
        <time>2021-10-28T08:14:08Z</time>
      </trkpt>
      <trkpt lat="47.629883" lon="1.9349296">
        <ele>163</ele>
        <time>2021-10-28T08:14:09Z</time>
      </trkpt>
      <trkpt lat="47.629898" lon="1.9349346">
        <ele>163</ele>
        <time>2021-10-28T08:14:10Z</time>
      </trkpt>
      <trkpt lat="47.629906" lon="1.9349372">
        <ele>163</ele>
        <time>2021-10-28T08:14:11Z</time>
      </trkpt>
      <trkpt lat="47.62992" lon="1.9349442">
        <ele>163</ele>
        <time>2021-10-28T08:14:12Z</time>
      </trkpt>
      <trkpt lat="47.629936" lon="1.9349525">
        <ele>163</ele>
        <time>2021-10-28T08:14:13Z</time>
      </trkpt>
      <trkpt lat="47.629948" lon="1.9349582">
        <ele>163</ele>
        <time>2021-10-28T08:14:14Z</time>
      </trkpt>
      <trkpt lat="47.62996" lon="1.9349649">
        <ele>164</ele>
        <time>2021-10-28T08:14:15Z</time>
      </trkpt>
      <trkpt lat="47.62997" lon="1.9349669">
        <ele>164</ele>
        <time>2021-10-28T08:14:16Z</time>
      </trkpt>
      <trkpt lat="47.629982" lon="1.9349709">
        <ele>164</ele>
        <time>2021-10-28T08:14:17Z</time>
      </trkpt>
      <trkpt lat="47.629993" lon="1.9349766">
        <ele>164</ele>
        <time>2021-10-28T08:14:18Z</time>
      </trkpt>
      <trkpt lat="47.630005" lon="1.93498">
        <ele>164</ele>
        <time>2021-10-28T08:14:19Z</time>
      </trkpt>
      <trkpt lat="47.630016" lon="1.9349844">
        <ele>164</ele>
        <time>2021-10-28T08:14:20Z</time>
      </trkpt>
      <trkpt lat="47.630028" lon="1.9349906">
        <ele>164</ele>
        <time>2021-10-28T08:14:21Z</time>
      </trkpt>
      <trkpt lat="47.630043" lon="1.9349943">
        <ele>165</ele>
        <time>2021-10-28T08:14:22Z</time>
      </trkpt>
      <trkpt lat="47.630054" lon="1.9350045">
        <ele>165</ele>
        <time>2021-10-28T08:14:23Z</time>
      </trkpt>
      <trkpt lat="47.630066" lon="1.9350095">
        <ele>165</ele>
        <time>2021-10-28T08:14:24Z</time>
      </trkpt>
      <trkpt lat="47.63008" lon="1.9350178">
        <ele>166</ele>
        <time>2021-10-28T08:14:25Z</time>
      </trkpt>
      <trkpt lat="47.630093" lon="1.9350214">
        <ele>166</ele>
        <time>2021-10-28T08:14:26Z</time>
      </trkpt>
      <trkpt lat="47.630104" lon="1.9350274">
        <ele>166</ele>
        <time>2021-10-28T08:14:27Z</time>
      </trkpt>
      <trkpt lat="47.63011" lon="1.9350361">
        <ele>167</ele>
        <time>2021-10-28T08:14:28Z</time>
      </trkpt>
      <trkpt lat="47.630127" lon="1.9350429">
        <ele>167</ele>
        <time>2021-10-28T08:14:29Z</time>
      </trkpt>
      <trkpt lat="47.63014" lon="1.9350497">
        <ele>167</ele>
        <time>2021-10-28T08:14:30Z</time>
      </trkpt>
      <trkpt lat="47.630154" lon="1.9350553">
        <ele>167</ele>
        <time>2021-10-28T08:14:31Z</time>
      </trkpt>
      <trkpt lat="47.63017" lon="1.935059">
        <ele>167</ele>
        <time>2021-10-28T08:14:32Z</time>
      </trkpt>
      <trkpt lat="47.630184" lon="1.9350638">
        <ele>167</ele>
        <time>2021-10-28T08:14:33Z</time>
      </trkpt>
      <trkpt lat="47.630196" lon="1.9350705">
        <ele>167</ele>
        <time>2021-10-28T08:14:34Z</time>
      </trkpt>
      <trkpt lat="47.630207" lon="1.9350771">
        <ele>167</ele>
        <time>2021-10-28T08:14:35Z</time>
      </trkpt>
      <trkpt lat="47.63022" lon="1.9350886">
        <ele>167</ele>
        <time>2021-10-28T08:14:36Z</time>
      </trkpt>
      <trkpt lat="47.630234" lon="1.9350983">
        <ele>167</ele>
        <time>2021-10-28T08:14:37Z</time>
      </trkpt>
      <trkpt lat="47.630245" lon="1.9351012">
        <ele>167</ele>
        <time>2021-10-28T08:14:38Z</time>
      </trkpt>
      <trkpt lat="47.630257" lon="1.9351047">
        <ele>167</ele>
        <time>2021-10-28T08:14:39Z</time>
      </trkpt>
      <trkpt lat="47.630272" lon="1.9351124">
        <ele>166</ele>
        <time>2021-10-28T08:14:40Z</time>
      </trkpt>
      <trkpt lat="47.630283" lon="1.9351186">
        <ele>166</ele>
        <time>2021-10-28T08:14:41Z</time>
      </trkpt>
      <trkpt lat="47.6303" lon="1.9351215">
        <ele>166</ele>
        <time>2021-10-28T08:14:42Z</time>
      </trkpt>
      <trkpt lat="47.630314" lon="1.935128">
        <ele>166</ele>
        <time>2021-10-28T08:14:43Z</time>
      </trkpt>
      <trkpt lat="47.630325" lon="1.9351326">
        <ele>166</ele>
        <time>2021-10-28T08:14:44Z</time>
      </trkpt>
      <trkpt lat="47.630337" lon="1.9351358">
        <ele>166</ele>
        <time>2021-10-28T08:14:45Z</time>
      </trkpt>
      <trkpt lat="47.63035" lon="1.9351455">
        <ele>166</ele>
        <time>2021-10-28T08:14:46Z</time>
      </trkpt>
      <trkpt lat="47.630356" lon="1.9351543">
        <ele>166</ele>
        <time>2021-10-28T08:14:47Z</time>
      </trkpt>
      <trkpt lat="47.630367" lon="1.9351672">
        <ele>166</ele>
        <time>2021-10-28T08:14:48Z</time>
      </trkpt>
      <trkpt lat="47.63038" lon="1.935173">
        <ele>166</ele>
        <time>2021-10-28T08:14:49Z</time>
      </trkpt>
      <trkpt lat="47.630383" lon="1.935179">
        <ele>166</ele>
        <time>2021-10-28T08:14:50Z</time>
      </trkpt>
      <trkpt lat="47.630394" lon="1.9351887">
        <ele>166</ele>
        <time>2021-10-28T08:14:51Z</time>
      </trkpt>
      <trkpt lat="47.630405" lon="1.935195">
        <ele>166</ele>
        <time>2021-10-28T08:14:52Z</time>
      </trkpt>
      <trkpt lat="47.63042" lon="1.935201">
        <ele>167</ele>
        <time>2021-10-28T08:14:53Z</time>
      </trkpt>
      <trkpt lat="47.630432" lon="1.9352052">
        <ele>167</ele>
        <time>2021-10-28T08:14:54Z</time>
      </trkpt>
      <trkpt lat="47.630444" lon="1.9352106">
        <ele>168</ele>
        <time>2021-10-28T08:14:55Z</time>
      </trkpt>
      <trkpt lat="47.630455" lon="1.9352117">
        <ele>168</ele>
        <time>2021-10-28T08:14:56Z</time>
      </trkpt>
      <trkpt lat="47.630466" lon="1.9352198">
        <ele>168</ele>
        <time>2021-10-28T08:14:57Z</time>
      </trkpt>
      <trkpt lat="47.630478" lon="1.9352198">
        <ele>167</ele>
        <time>2021-10-28T08:14:58Z</time>
      </trkpt>
      <trkpt lat="47.63049" lon="1.9352283">
        <ele>168</ele>
        <time>2021-10-28T08:14:59Z</time>
      </trkpt>
      <trkpt lat="47.6305" lon="1.9352348">
        <ele>168</ele>
        <time>2021-10-28T08:15:00Z</time>
      </trkpt>
      <trkpt lat="47.630512" lon="1.9352429">
        <ele>168</ele>
        <time>2021-10-28T08:15:01Z</time>
      </trkpt>
      <trkpt lat="47.630524" lon="1.9352527">
        <ele>168</ele>
        <time>2021-10-28T08:15:02Z</time>
      </trkpt>
      <trkpt lat="47.63053" lon="1.9352589">
        <ele>168</ele>
        <time>2021-10-28T08:15:03Z</time>
      </trkpt>
      <trkpt lat="47.630543" lon="1.9352628">
        <ele>169</ele>
        <time>2021-10-28T08:15:04Z</time>
      </trkpt>
      <trkpt lat="47.630554" lon="1.9352696">
        <ele>169</ele>
        <time>2021-10-28T08:15:05Z</time>
      </trkpt>
      <trkpt lat="47.63057" lon="1.9352784">
        <ele>169</ele>
        <time>2021-10-28T08:15:06Z</time>
      </trkpt>
      <trkpt lat="47.63058" lon="1.9352828">
        <ele>169</ele>
        <time>2021-10-28T08:15:07Z</time>
      </trkpt>
      <trkpt lat="47.630596" lon="1.9352878">
        <ele>169</ele>
        <time>2021-10-28T08:15:08Z</time>
      </trkpt>
      <trkpt lat="47.63061" lon="1.9352919">
        <ele>169</ele>
        <time>2021-10-28T08:15:09Z</time>
      </trkpt>
      <trkpt lat="47.63062" lon="1.9353037">
        <ele>169</ele>
        <time>2021-10-28T08:15:10Z</time>
      </trkpt>
      <trkpt lat="47.63063" lon="1.9353086">
        <ele>169</ele>
        <time>2021-10-28T08:15:11Z</time>
      </trkpt>
      <trkpt lat="47.630642" lon="1.9353154">
        <ele>169</ele>
        <time>2021-10-28T08:15:12Z</time>
      </trkpt>
      <trkpt lat="47.630653" lon="1.9353248">
        <ele>169</ele>
        <time>2021-10-28T08:15:13Z</time>
      </trkpt>
      <trkpt lat="47.63066" lon="1.9353303">
        <ele>170</ele>
        <time>2021-10-28T08:15:14Z</time>
      </trkpt>
      <trkpt lat="47.630676" lon="1.9353347">
        <ele>171</ele>
        <time>2021-10-28T08:15:15Z</time>
      </trkpt>
      <trkpt lat="47.63069" lon="1.9353335">
        <ele>171</ele>
        <time>2021-10-28T08:15:16Z</time>
      </trkpt>
      <trkpt lat="47.630703" lon="1.9353377">
        <ele>171</ele>
        <time>2021-10-28T08:15:17Z</time>
      </trkpt>
      <trkpt lat="47.630714" lon="1.9353387">
        <ele>170</ele>
        <time>2021-10-28T08:15:18Z</time>
      </trkpt>
      <trkpt lat="47.63073" lon="1.935339">
        <ele>170</ele>
        <time>2021-10-28T08:15:19Z</time>
      </trkpt>
      <trkpt lat="47.63074" lon="1.9353389">
        <ele>170</ele>
        <time>2021-10-28T08:15:20Z</time>
      </trkpt>
      <trkpt lat="47.630756" lon="1.9353421">
        <ele>170</ele>
        <time>2021-10-28T08:15:21Z</time>
      </trkpt>
      <trkpt lat="47.630768" lon="1.9353399">
        <ele>170</ele>
        <time>2021-10-28T08:15:22Z</time>
      </trkpt>
      <trkpt lat="47.630775" lon="1.9353484">
        <ele>169</ele>
        <time>2021-10-28T08:15:23Z</time>
      </trkpt>
      <trkpt lat="47.630787" lon="1.9353513">
        <ele>169</ele>
        <time>2021-10-28T08:15:24Z</time>
      </trkpt>
      <trkpt lat="47.630802" lon="1.9353598">
        <ele>170</ele>
        <time>2021-10-28T08:15:25Z</time>
      </trkpt>
      <trkpt lat="47.630814" lon="1.935365">
        <ele>170</ele>
        <time>2021-10-28T08:15:26Z</time>
      </trkpt>
      <trkpt lat="47.63083" lon="1.9353695">
        <ele>170</ele>
        <time>2021-10-28T08:15:27Z</time>
      </trkpt>
      <trkpt lat="47.63084" lon="1.9353735">
        <ele>170</ele>
        <time>2021-10-28T08:15:28Z</time>
      </trkpt>
      <trkpt lat="47.63085" lon="1.9353791">
        <ele>170</ele>
        <time>2021-10-28T08:15:29Z</time>
      </trkpt>
      <trkpt lat="47.630863" lon="1.9353825">
        <ele>170</ele>
        <time>2021-10-28T08:15:30Z</time>
      </trkpt>
      <trkpt lat="47.63088" lon="1.9353806">
        <ele>170</ele>
        <time>2021-10-28T08:15:31Z</time>
      </trkpt>
      <trkpt lat="47.630894" lon="1.9353782">
        <ele>170</ele>
        <time>2021-10-28T08:15:32Z</time>
      </trkpt>
      <trkpt lat="47.630905" lon="1.9353825">
        <ele>170</ele>
        <time>2021-10-28T08:15:33Z</time>
      </trkpt>
      <trkpt lat="47.63092" lon="1.9353901">
        <ele>170</ele>
        <time>2021-10-28T08:15:34Z</time>
      </trkpt>
      <trkpt lat="47.63094" lon="1.9353936">
        <ele>170</ele>
        <time>2021-10-28T08:15:35Z</time>
      </trkpt>
      <trkpt lat="47.63095" lon="1.935396">
        <ele>170</ele>
        <time>2021-10-28T08:15:36Z</time>
      </trkpt>
      <trkpt lat="47.630962" lon="1.9354011">
        <ele>170</ele>
        <time>2021-10-28T08:15:37Z</time>
      </trkpt>
      <trkpt lat="47.630974" lon="1.9354122">
        <ele>170</ele>
        <time>2021-10-28T08:15:38Z</time>
      </trkpt>
      <trkpt lat="47.630985" lon="1.9354229">
        <ele>170</ele>
        <time>2021-10-28T08:15:39Z</time>
      </trkpt>
      <trkpt lat="47.630997" lon="1.9354306">
        <ele>170</ele>
        <time>2021-10-28T08:15:40Z</time>
      </trkpt>
      <trkpt lat="47.63101" lon="1.9354376">
        <ele>170</ele>
        <time>2021-10-28T08:15:41Z</time>
      </trkpt>
      <trkpt lat="47.63102" lon="1.9354448">
        <ele>170</ele>
        <time>2021-10-28T08:15:42Z</time>
      </trkpt>
      <trkpt lat="47.631035" lon="1.9354423">
        <ele>170</ele>
        <time>2021-10-28T08:15:43Z</time>
      </trkpt>
      <trkpt lat="47.631046" lon="1.9354472">
        <ele>170</ele>
        <time>2021-10-28T08:15:44Z</time>
      </trkpt>
      <trkpt lat="47.631058" lon="1.9354503">
        <ele>170</ele>
        <time>2021-10-28T08:15:45Z</time>
      </trkpt>
      <trkpt lat="47.63107" lon="1.9354494">
        <ele>170</ele>
        <time>2021-10-28T08:15:46Z</time>
      </trkpt>
      <trkpt lat="47.63108" lon="1.9354539">
        <ele>169</ele>
        <time>2021-10-28T08:15:47Z</time>
      </trkpt>
      <trkpt lat="47.631096" lon="1.935459">
        <ele>169</ele>
        <time>2021-10-28T08:15:48Z</time>
      </trkpt>
      <trkpt lat="47.631107" lon="1.935467">
        <ele>169</ele>
        <time>2021-10-28T08:15:49Z</time>
      </trkpt>
      <trkpt lat="47.631115" lon="1.9354786">
        <ele>169</ele>
        <time>2021-10-28T08:15:50Z</time>
      </trkpt>
      <trkpt lat="47.631126" lon="1.9354874">
        <ele>169</ele>
        <time>2021-10-28T08:15:51Z</time>
      </trkpt>
      <trkpt lat="47.631138" lon="1.9354899">
        <ele>169</ele>
        <time>2021-10-28T08:15:52Z</time>
      </trkpt>
      <trkpt lat="47.63115" lon="1.9354949">
        <ele>169</ele>
        <time>2021-10-28T08:15:53Z</time>
      </trkpt>
      <trkpt lat="47.631165" lon="1.9354982">
        <ele>169</ele>
        <time>2021-10-28T08:15:54Z</time>
      </trkpt>
      <trkpt lat="47.631176" lon="1.935503">
        <ele>169</ele>
        <time>2021-10-28T08:15:55Z</time>
      </trkpt>
      <trkpt lat="47.631195" lon="1.9355043">
        <ele>170</ele>
        <time>2021-10-28T08:15:56Z</time>
      </trkpt>
      <trkpt lat="47.63121" lon="1.9355019">
        <ele>170</ele>
        <time>2021-10-28T08:15:57Z</time>
      </trkpt>
      <trkpt lat="47.63122" lon="1.9355079">
        <ele>170</ele>
        <time>2021-10-28T08:15:58Z</time>
      </trkpt>
      <trkpt lat="47.631237" lon="1.935515">
        <ele>170</ele>
        <time>2021-10-28T08:15:59Z</time>
      </trkpt>
      <trkpt lat="47.631245" lon="1.9355179">
        <ele>170</ele>
        <time>2021-10-28T08:16:00Z</time>
      </trkpt>
      <trkpt lat="47.631256" lon="1.9355258">
        <ele>170</ele>
        <time>2021-10-28T08:16:01Z</time>
      </trkpt>
      <trkpt lat="47.631264" lon="1.93553">
        <ele>170</ele>
        <time>2021-10-28T08:16:02Z</time>
      </trkpt>
      <trkpt lat="47.631275" lon="1.9355363">
        <ele>170</ele>
        <time>2021-10-28T08:16:03Z</time>
      </trkpt>
      <trkpt lat="47.63128" lon="1.9355454">
        <ele>171</ele>
        <time>2021-10-28T08:16:04Z</time>
      </trkpt>
      <trkpt lat="47.63129" lon="1.9355528">
        <ele>171</ele>
        <time>2021-10-28T08:16:05Z</time>
      </trkpt>
      <trkpt lat="47.6313" lon="1.9355567">
        <ele>171</ele>
        <time>2021-10-28T08:16:06Z</time>
      </trkpt>
      <trkpt lat="47.63131" lon="1.9355623">
        <ele>171</ele>
        <time>2021-10-28T08:16:07Z</time>
      </trkpt>
      <trkpt lat="47.63132" lon="1.9355685">
        <ele>171</ele>
        <time>2021-10-28T08:16:08Z</time>
      </trkpt>
      <trkpt lat="47.631332" lon="1.9355763">
        <ele>171</ele>
        <time>2021-10-28T08:16:09Z</time>
      </trkpt>
      <trkpt lat="47.631344" lon="1.9355857">
        <ele>171</ele>
        <time>2021-10-28T08:16:10Z</time>
      </trkpt>
      <trkpt lat="47.631355" lon="1.9355929">
        <ele>171</ele>
        <time>2021-10-28T08:16:11Z</time>
      </trkpt>
      <trkpt lat="47.631363" lon="1.9356016">
        <ele>171</ele>
        <time>2021-10-28T08:16:12Z</time>
      </trkpt>
      <trkpt lat="47.63137" lon="1.9356078">
        <ele>171</ele>
        <time>2021-10-28T08:16:13Z</time>
      </trkpt>
      <trkpt lat="47.63138" lon="1.9356172">
        <ele>171</ele>
        <time>2021-10-28T08:16:14Z</time>
      </trkpt>
      <trkpt lat="47.63139" lon="1.9356251">
        <ele>171</ele>
        <time>2021-10-28T08:16:15Z</time>
      </trkpt>
      <trkpt lat="47.6314" lon="1.9356304">
        <ele>171</ele>
        <time>2021-10-28T08:16:16Z</time>
      </trkpt>
      <trkpt lat="47.631413" lon="1.9356383">
        <ele>171</ele>
        <time>2021-10-28T08:16:17Z</time>
      </trkpt>
      <trkpt lat="47.631424" lon="1.935649">
        <ele>172</ele>
        <time>2021-10-28T08:16:18Z</time>
      </trkpt>
      <trkpt lat="47.631435" lon="1.9356571">
        <ele>172</ele>
        <time>2021-10-28T08:16:19Z</time>
      </trkpt>
      <trkpt lat="47.631447" lon="1.935664">
        <ele>172</ele>
        <time>2021-10-28T08:16:20Z</time>
      </trkpt>
      <trkpt lat="47.631462" lon="1.9356704">
        <ele>172</ele>
        <time>2021-10-28T08:16:21Z</time>
      </trkpt>
      <trkpt lat="47.631474" lon="1.9356782">
        <ele>173</ele>
        <time>2021-10-28T08:16:22Z</time>
      </trkpt>
      <trkpt lat="47.631485" lon="1.9356875">
        <ele>173</ele>
        <time>2021-10-28T08:16:23Z</time>
      </trkpt>
      <trkpt lat="47.6315" lon="1.9357017">
        <ele>173</ele>
        <time>2021-10-28T08:16:24Z</time>
      </trkpt>
      <trkpt lat="47.63151" lon="1.9357095">
        <ele>173</ele>
        <time>2021-10-28T08:16:25Z</time>
      </trkpt>
      <trkpt lat="47.63152" lon="1.9357241">
        <ele>173</ele>
        <time>2021-10-28T08:16:26Z</time>
      </trkpt>
      <trkpt lat="47.63153" lon="1.9357319">
        <ele>173</ele>
        <time>2021-10-28T08:16:27Z</time>
      </trkpt>
      <trkpt lat="47.63154" lon="1.9357467">
        <ele>173</ele>
        <time>2021-10-28T08:16:28Z</time>
      </trkpt>
      <trkpt lat="47.63155" lon="1.9357609">
        <ele>173</ele>
        <time>2021-10-28T08:16:29Z</time>
      </trkpt>
      <trkpt lat="47.631557" lon="1.935767">
        <ele>173</ele>
        <time>2021-10-28T08:16:30Z</time>
      </trkpt>
      <trkpt lat="47.631573" lon="1.9357698">
        <ele>173</ele>
        <time>2021-10-28T08:16:31Z</time>
      </trkpt>
      <trkpt lat="47.631588" lon="1.9357787">
        <ele>173</ele>
        <time>2021-10-28T08:16:32Z</time>
      </trkpt>
      <trkpt lat="47.6316" lon="1.9357876">
        <ele>173</ele>
        <time>2021-10-28T08:16:33Z</time>
      </trkpt>
      <trkpt lat="47.63161" lon="1.9357934">
        <ele>172</ele>
        <time>2021-10-28T08:16:34Z</time>
      </trkpt>
      <trkpt lat="47.63162" lon="1.9357994">
        <ele>172</ele>
        <time>2021-10-28T08:16:35Z</time>
      </trkpt>
      <trkpt lat="47.631626" lon="1.9358116">
        <ele>172</ele>
        <time>2021-10-28T08:16:36Z</time>
      </trkpt>
      <trkpt lat="47.631638" lon="1.9358222">
        <ele>173</ele>
        <time>2021-10-28T08:16:37Z</time>
      </trkpt>
      <trkpt lat="47.63165" lon="1.9358333">
        <ele>173</ele>
        <time>2021-10-28T08:16:38Z</time>
      </trkpt>
      <trkpt lat="47.63166" lon="1.935835">
        <ele>173</ele>
        <time>2021-10-28T08:16:39Z</time>
      </trkpt>
      <trkpt lat="47.63167" lon="1.9358393">
        <ele>173</ele>
        <time>2021-10-28T08:16:40Z</time>
      </trkpt>
      <trkpt lat="47.63168" lon="1.9358442">
        <ele>174</ele>
        <time>2021-10-28T08:16:41Z</time>
      </trkpt>
      <trkpt lat="47.631695" lon="1.9358499">
        <ele>174</ele>
        <time>2021-10-28T08:16:42Z</time>
      </trkpt>
      <trkpt lat="47.631706" lon="1.9358552">
        <ele>174</ele>
        <time>2021-10-28T08:16:43Z</time>
      </trkpt>
      <trkpt lat="47.631714" lon="1.9358604">
        <ele>175</ele>
        <time>2021-10-28T08:16:44Z</time>
      </trkpt>
      <trkpt lat="47.631725" lon="1.9358723">
        <ele>175</ele>
        <time>2021-10-28T08:16:45Z</time>
      </trkpt>
      <trkpt lat="47.631737" lon="1.9358819">
        <ele>175</ele>
        <time>2021-10-28T08:16:46Z</time>
      </trkpt>
      <trkpt lat="47.63175" lon="1.9358883">
        <ele>174</ele>
        <time>2021-10-28T08:16:47Z</time>
      </trkpt>
      <trkpt lat="47.63176" lon="1.9359019">
        <ele>174</ele>
        <time>2021-10-28T08:16:48Z</time>
      </trkpt>
      <trkpt lat="47.63177" lon="1.9359146">
        <ele>173</ele>
        <time>2021-10-28T08:16:49Z</time>
      </trkpt>
      <trkpt lat="47.63178" lon="1.9359254">
        <ele>174</ele>
        <time>2021-10-28T08:16:50Z</time>
      </trkpt>
      <trkpt lat="47.631786" lon="1.9359368">
        <ele>174</ele>
        <time>2021-10-28T08:16:51Z</time>
      </trkpt>
      <trkpt lat="47.631798" lon="1.9359512">
        <ele>173</ele>
        <time>2021-10-28T08:16:52Z</time>
      </trkpt>
      <trkpt lat="47.631805" lon="1.9359624">
        <ele>173</ele>
        <time>2021-10-28T08:16:53Z</time>
      </trkpt>
      <trkpt lat="47.631817" lon="1.9359757">
        <ele>173</ele>
        <time>2021-10-28T08:16:54Z</time>
      </trkpt>
      <trkpt lat="47.631824" lon="1.9359864">
        <ele>173</ele>
        <time>2021-10-28T08:16:55Z</time>
      </trkpt>
      <trkpt lat="47.631836" lon="1.9360008">
        <ele>173</ele>
        <time>2021-10-28T08:16:56Z</time>
      </trkpt>
      <trkpt lat="47.631847" lon="1.9360178">
        <ele>172</ele>
        <time>2021-10-28T08:16:57Z</time>
      </trkpt>
      <trkpt lat="47.631855" lon="1.9360313">
        <ele>172</ele>
        <time>2021-10-28T08:16:58Z</time>
      </trkpt>
      <trkpt lat="47.631863" lon="1.9360448">
        <ele>173</ele>
        <time>2021-10-28T08:16:59Z</time>
      </trkpt>
      <trkpt lat="47.631874" lon="1.9360567">
        <ele>173</ele>
        <time>2021-10-28T08:17:00Z</time>
      </trkpt>
      <trkpt lat="47.631886" lon="1.9360745">
        <ele>173</ele>
        <time>2021-10-28T08:17:01Z</time>
      </trkpt>
      <trkpt lat="47.631893" lon="1.9360833">
        <ele>173</ele>
        <time>2021-10-28T08:17:02Z</time>
      </trkpt>
      <trkpt lat="47.631897" lon="1.9360899">
        <ele>174</ele>
        <time>2021-10-28T08:17:03Z</time>
      </trkpt>
      <trkpt lat="47.631905" lon="1.9360994">
        <ele>174</ele>
        <time>2021-10-28T08:17:04Z</time>
      </trkpt>
      <trkpt lat="47.631912" lon="1.936113">
        <ele>175</ele>
        <time>2021-10-28T08:17:05Z</time>
      </trkpt>
      <trkpt lat="47.631916" lon="1.9361302">
        <ele>175</ele>
        <time>2021-10-28T08:17:06Z</time>
      </trkpt>
      <trkpt lat="47.631924" lon="1.9361401">
        <ele>175</ele>
        <time>2021-10-28T08:17:07Z</time>
      </trkpt>
      <trkpt lat="47.63193" lon="1.9361535">
        <ele>175</ele>
        <time>2021-10-28T08:17:08Z</time>
      </trkpt>
      <trkpt lat="47.63194" lon="1.9361614">
        <ele>176</ele>
        <time>2021-10-28T08:17:09Z</time>
      </trkpt>
      <trkpt lat="47.63195" lon="1.9361746">
        <ele>176</ele>
        <time>2021-10-28T08:17:10Z</time>
      </trkpt>
      <trkpt lat="47.631958" lon="1.9361874">
        <ele>176</ele>
        <time>2021-10-28T08:17:11Z</time>
      </trkpt>
      <trkpt lat="47.63196" lon="1.9361976">
        <ele>176</ele>
        <time>2021-10-28T08:17:12Z</time>
      </trkpt>
      <trkpt lat="47.63197" lon="1.936209">
        <ele>176</ele>
        <time>2021-10-28T08:17:13Z</time>
      </trkpt>
      <trkpt lat="47.63198" lon="1.9362171">
        <ele>176</ele>
        <time>2021-10-28T08:17:14Z</time>
      </trkpt>
      <trkpt lat="47.631992" lon="1.9362292">
        <ele>176</ele>
        <time>2021-10-28T08:17:15Z</time>
      </trkpt>
      <trkpt lat="47.632" lon="1.9362377">
        <ele>176</ele>
        <time>2021-10-28T08:17:16Z</time>
      </trkpt>
      <trkpt lat="47.63201" lon="1.9362515">
        <ele>176</ele>
        <time>2021-10-28T08:17:17Z</time>
      </trkpt>
      <trkpt lat="47.63202" lon="1.9362631">
        <ele>176</ele>
        <time>2021-10-28T08:17:18Z</time>
      </trkpt>
      <trkpt lat="47.63203" lon="1.9362667">
        <ele>177</ele>
        <time>2021-10-28T08:17:19Z</time>
      </trkpt>
      <trkpt lat="47.632042" lon="1.936281">
        <ele>177</ele>
        <time>2021-10-28T08:17:20Z</time>
      </trkpt>
      <trkpt lat="47.63205" lon="1.9362954">
        <ele>177</ele>
        <time>2021-10-28T08:17:21Z</time>
      </trkpt>
      <trkpt lat="47.632053" lon="1.9363128">
        <ele>177</ele>
        <time>2021-10-28T08:17:22Z</time>
      </trkpt>
      <trkpt lat="47.63206" lon="1.9363348">
        <ele>177</ele>
        <time>2021-10-28T08:17:23Z</time>
      </trkpt>
      <trkpt lat="47.632065" lon="1.936351">
        <ele>177</ele>
        <time>2021-10-28T08:17:24Z</time>
      </trkpt>
      <trkpt lat="47.632072" lon="1.9363681">
        <ele>176</ele>
        <time>2021-10-28T08:17:25Z</time>
      </trkpt>
      <trkpt lat="47.63208" lon="1.9363817">
        <ele>176</ele>
        <time>2021-10-28T08:17:26Z</time>
      </trkpt>
      <trkpt lat="47.63209" lon="1.9363972">
        <ele>176</ele>
        <time>2021-10-28T08:17:27Z</time>
      </trkpt>
      <trkpt lat="47.6321" lon="1.9364077">
        <ele>176</ele>
        <time>2021-10-28T08:17:28Z</time>
      </trkpt>
      <trkpt lat="47.632107" lon="1.9364158">
        <ele>176</ele>
        <time>2021-10-28T08:17:29Z</time>
      </trkpt>
      <trkpt lat="47.63211" lon="1.9364172">
        <ele>177</ele>
        <time>2021-10-28T08:17:30Z</time>
      </trkpt>
      <trkpt lat="47.632122" lon="1.9364203">
        <ele>177</ele>
        <time>2021-10-28T08:17:31Z</time>
      </trkpt>
      <trkpt lat="47.63213" lon="1.9364266">
        <ele>176</ele>
        <time>2021-10-28T08:17:32Z</time>
      </trkpt>
      <trkpt lat="47.632133" lon="1.9364414">
        <ele>176</ele>
        <time>2021-10-28T08:17:33Z</time>
      </trkpt>
      <trkpt lat="47.63214" lon="1.9364635">
        <ele>176</ele>
        <time>2021-10-28T08:17:34Z</time>
      </trkpt>
      <trkpt lat="47.63215" lon="1.9364796">
        <ele>176</ele>
        <time>2021-10-28T08:17:35Z</time>
      </trkpt>
      <trkpt lat="47.632156" lon="1.9365">
        <ele>176</ele>
        <time>2021-10-28T08:17:36Z</time>
      </trkpt>
      <trkpt lat="47.632164" lon="1.9365134">
        <ele>176</ele>
        <time>2021-10-28T08:17:37Z</time>
      </trkpt>
      <trkpt lat="47.632175" lon="1.936526">
        <ele>176</ele>
        <time>2021-10-28T08:17:38Z</time>
      </trkpt>
      <trkpt lat="47.632183" lon="1.9365414">
        <ele>175</ele>
        <time>2021-10-28T08:17:39Z</time>
      </trkpt>
      <trkpt lat="47.632187" lon="1.9365513">
        <ele>175</ele>
        <time>2021-10-28T08:17:40Z</time>
      </trkpt>
      <trkpt lat="47.63219" lon="1.9365579">
        <ele>175</ele>
        <time>2021-10-28T08:17:41Z</time>
      </trkpt>
      <trkpt lat="47.6322" lon="1.9365686">
        <ele>175</ele>
        <time>2021-10-28T08:17:42Z</time>
      </trkpt>
      <trkpt lat="47.632206" lon="1.9365803">
        <ele>175</ele>
        <time>2021-10-28T08:17:43Z</time>
      </trkpt>
      <trkpt lat="47.632214" lon="1.936592">
        <ele>175</ele>
        <time>2021-10-28T08:17:44Z</time>
      </trkpt>
      <trkpt lat="47.63222" lon="1.9366075">
        <ele>175</ele>
        <time>2021-10-28T08:17:45Z</time>
      </trkpt>
      <trkpt lat="47.63223" lon="1.9366176">
        <ele>175</ele>
        <time>2021-10-28T08:17:46Z</time>
      </trkpt>
      <trkpt lat="47.632233" lon="1.9366273">
        <ele>175</ele>
        <time>2021-10-28T08:17:47Z</time>
      </trkpt>
      <trkpt lat="47.632244" lon="1.9366318">
        <ele>175</ele>
        <time>2021-10-28T08:17:48Z</time>
      </trkpt>
      <trkpt lat="47.63225" lon="1.9366436">
        <ele>174</ele>
        <time>2021-10-28T08:17:49Z</time>
      </trkpt>
      <trkpt lat="47.632263" lon="1.936658">
        <ele>174</ele>
        <time>2021-10-28T08:17:50Z</time>
      </trkpt>
      <trkpt lat="47.632275" lon="1.9366748">
        <ele>174</ele>
        <time>2021-10-28T08:17:51Z</time>
      </trkpt>
      <trkpt lat="47.632282" lon="1.9366938">
        <ele>174</ele>
        <time>2021-10-28T08:17:52Z</time>
      </trkpt>
      <trkpt lat="47.63229" lon="1.9367079">
        <ele>174</ele>
        <time>2021-10-28T08:17:53Z</time>
      </trkpt>
      <trkpt lat="47.6323" lon="1.9367151">
        <ele>174</ele>
        <time>2021-10-28T08:17:54Z</time>
      </trkpt>
      <trkpt lat="47.632313" lon="1.9367256">
        <ele>174</ele>
        <time>2021-10-28T08:17:55Z</time>
      </trkpt>
      <trkpt lat="47.63232" lon="1.9367448">
        <ele>175</ele>
        <time>2021-10-28T08:17:56Z</time>
      </trkpt>
      <trkpt lat="47.632324" lon="1.9367598">
        <ele>174</ele>
        <time>2021-10-28T08:17:57Z</time>
      </trkpt>
      <trkpt lat="47.63233" lon="1.93677">
        <ele>174</ele>
        <time>2021-10-28T08:17:58Z</time>
      </trkpt>
      <trkpt lat="47.63234" lon="1.9367802">
        <ele>175</ele>
        <time>2021-10-28T08:17:59Z</time>
      </trkpt>
      <trkpt lat="47.632343" lon="1.9367914">
        <ele>175</ele>
        <time>2021-10-28T08:18:00Z</time>
      </trkpt>
      <trkpt lat="47.632355" lon="1.936806">
        <ele>174</ele>
        <time>2021-10-28T08:18:01Z</time>
      </trkpt>
      <trkpt lat="47.632366" lon="1.9368238">
        <ele>174</ele>
        <time>2021-10-28T08:18:02Z</time>
      </trkpt>
      <trkpt lat="47.632374" lon="1.9368377">
        <ele>174</ele>
        <time>2021-10-28T08:18:03Z</time>
      </trkpt>
      <trkpt lat="47.63238" lon="1.9368548">
        <ele>174</ele>
        <time>2021-10-28T08:18:04Z</time>
      </trkpt>
      <trkpt lat="47.632393" lon="1.9368676">
        <ele>174</ele>
        <time>2021-10-28T08:18:05Z</time>
      </trkpt>
      <trkpt lat="47.632404" lon="1.9368776">
        <ele>174</ele>
        <time>2021-10-28T08:18:06Z</time>
      </trkpt>
      <trkpt lat="47.632416" lon="1.9368879">
        <ele>174</ele>
        <time>2021-10-28T08:18:07Z</time>
      </trkpt>
      <trkpt lat="47.632423" lon="1.9369023">
        <ele>174</ele>
        <time>2021-10-28T08:18:08Z</time>
      </trkpt>
      <trkpt lat="47.632435" lon="1.9369144">
        <ele>175</ele>
        <time>2021-10-28T08:18:09Z</time>
      </trkpt>
      <trkpt lat="47.632442" lon="1.9369304">
        <ele>175</ele>
        <time>2021-10-28T08:18:10Z</time>
      </trkpt>
      <trkpt lat="47.632454" lon="1.9369448">
        <ele>176</ele>
        <time>2021-10-28T08:18:11Z</time>
      </trkpt>
      <trkpt lat="47.63246" lon="1.9369594">
        <ele>176</ele>
        <time>2021-10-28T08:18:12Z</time>
      </trkpt>
      <trkpt lat="47.63247" lon="1.9369758">
        <ele>176</ele>
        <time>2021-10-28T08:18:13Z</time>
      </trkpt>
      <trkpt lat="47.632477" lon="1.9369901">
        <ele>176</ele>
        <time>2021-10-28T08:18:14Z</time>
      </trkpt>
      <trkpt lat="47.632484" lon="1.9370079">
        <ele>176</ele>
        <time>2021-10-28T08:18:15Z</time>
      </trkpt>
      <trkpt lat="47.632492" lon="1.937026">
        <ele>176</ele>
        <time>2021-10-28T08:18:16Z</time>
      </trkpt>
      <trkpt lat="47.6325" lon="1.9370402">
        <ele>176</ele>
        <time>2021-10-28T08:18:17Z</time>
      </trkpt>
      <trkpt lat="47.632507" lon="1.9370571">
        <ele>176</ele>
        <time>2021-10-28T08:18:18Z</time>
      </trkpt>
      <trkpt lat="47.632515" lon="1.9370692">
        <ele>177</ele>
        <time>2021-10-28T08:18:19Z</time>
      </trkpt>
      <trkpt lat="47.632523" lon="1.9370816">
        <ele>177</ele>
        <time>2021-10-28T08:18:20Z</time>
      </trkpt>
      <trkpt lat="47.632534" lon="1.9370912">
        <ele>177</ele>
        <time>2021-10-28T08:18:21Z</time>
      </trkpt>
      <trkpt lat="47.63254" lon="1.9371036">
        <ele>177</ele>
        <time>2021-10-28T08:18:22Z</time>
      </trkpt>
      <trkpt lat="47.632553" lon="1.9371148">
        <ele>177</ele>
        <time>2021-10-28T08:18:23Z</time>
      </trkpt>
      <trkpt lat="47.63256" lon="1.9371306">
        <ele>177</ele>
        <time>2021-10-28T08:18:24Z</time>
      </trkpt>
      <trkpt lat="47.632565" lon="1.9371444">
        <ele>177</ele>
        <time>2021-10-28T08:18:25Z</time>
      </trkpt>
      <trkpt lat="47.632572" lon="1.937159">
        <ele>177</ele>
        <time>2021-10-28T08:18:26Z</time>
      </trkpt>
      <trkpt lat="47.632576" lon="1.9371756">
        <ele>177</ele>
        <time>2021-10-28T08:18:27Z</time>
      </trkpt>
      <trkpt lat="47.632584" lon="1.937188">
        <ele>177</ele>
        <time>2021-10-28T08:18:28Z</time>
      </trkpt>
      <trkpt lat="47.632595" lon="1.9372001">
        <ele>177</ele>
        <time>2021-10-28T08:18:29Z</time>
      </trkpt>
      <trkpt lat="47.632603" lon="1.9372133">
        <ele>177</ele>
        <time>2021-10-28T08:18:30Z</time>
      </trkpt>
      <trkpt lat="47.632607" lon="1.9372231">
        <ele>177</ele>
        <time>2021-10-28T08:18:31Z</time>
      </trkpt>
      <trkpt lat="47.63262" lon="1.9372377">
        <ele>177</ele>
        <time>2021-10-28T08:18:32Z</time>
      </trkpt>
      <trkpt lat="47.63263" lon="1.937248">
        <ele>177</ele>
        <time>2021-10-28T08:18:33Z</time>
      </trkpt>
      <trkpt lat="47.632637" lon="1.9372633">
        <ele>177</ele>
        <time>2021-10-28T08:18:34Z</time>
      </trkpt>
      <trkpt lat="47.632645" lon="1.9372852">
        <ele>178</ele>
        <time>2021-10-28T08:18:35Z</time>
      </trkpt>
      <trkpt lat="47.632652" lon="1.9373025">
        <ele>177</ele>
        <time>2021-10-28T08:18:36Z</time>
      </trkpt>
      <trkpt lat="47.632656" lon="1.9373193">
        <ele>176</ele>
        <time>2021-10-28T08:18:37Z</time>
      </trkpt>
      <trkpt lat="47.632664" lon="1.9373323">
        <ele>176</ele>
        <time>2021-10-28T08:18:38Z</time>
      </trkpt>
      <trkpt lat="47.63267" lon="1.9373436">
        <ele>176</ele>
        <time>2021-10-28T08:18:39Z</time>
      </trkpt>
      <trkpt lat="47.632683" lon="1.9373528">
        <ele>176</ele>
        <time>2021-10-28T08:18:40Z</time>
      </trkpt>
      <trkpt lat="47.632687" lon="1.9373629">
        <ele>176</ele>
        <time>2021-10-28T08:18:41Z</time>
      </trkpt>
      <trkpt lat="47.632698" lon="1.9373782">
        <ele>176</ele>
        <time>2021-10-28T08:18:42Z</time>
      </trkpt>
      <trkpt lat="47.632706" lon="1.9373903">
        <ele>175</ele>
        <time>2021-10-28T08:18:43Z</time>
      </trkpt>
      <trkpt lat="47.632717" lon="1.937404">
        <ele>175</ele>
        <time>2021-10-28T08:18:44Z</time>
      </trkpt>
      <trkpt lat="47.63273" lon="1.9374197">
        <ele>175</ele>
        <time>2021-10-28T08:18:45Z</time>
      </trkpt>
      <trkpt lat="47.632736" lon="1.937427">
        <ele>175</ele>
        <time>2021-10-28T08:18:46Z</time>
      </trkpt>
      <trkpt lat="47.632744" lon="1.9374384">
        <ele>175</ele>
        <time>2021-10-28T08:18:47Z</time>
      </trkpt>
      <trkpt lat="47.632755" lon="1.937443">
        <ele>175</ele>
        <time>2021-10-28T08:18:48Z</time>
      </trkpt>
      <trkpt lat="47.632763" lon="1.9374528">
        <ele>175</ele>
        <time>2021-10-28T08:18:49Z</time>
      </trkpt>
      <trkpt lat="47.632767" lon="1.937464">
        <ele>175</ele>
        <time>2021-10-28T08:18:50Z</time>
      </trkpt>
      <trkpt lat="47.63278" lon="1.9374739">
        <ele>175</ele>
        <time>2021-10-28T08:18:51Z</time>
      </trkpt>
      <trkpt lat="47.632782" lon="1.937483">
        <ele>175</ele>
        <time>2021-10-28T08:18:52Z</time>
      </trkpt>
      <trkpt lat="47.632793" lon="1.9374882">
        <ele>175</ele>
        <time>2021-10-28T08:18:53Z</time>
      </trkpt>
      <trkpt lat="47.6328" lon="1.9374915">
        <ele>175</ele>
        <time>2021-10-28T08:18:54Z</time>
      </trkpt>
      <trkpt lat="47.63281" lon="1.9374992">
        <ele>174</ele>
        <time>2021-10-28T08:18:55Z</time>
      </trkpt>
      <trkpt lat="47.632812" lon="1.9375168">
        <ele>174</ele>
        <time>2021-10-28T08:18:56Z</time>
      </trkpt>
      <trkpt lat="47.63282" lon="1.9375337">
        <ele>174</ele>
        <time>2021-10-28T08:18:57Z</time>
      </trkpt>
      <trkpt lat="47.632828" lon="1.9375453">
        <ele>174</ele>
        <time>2021-10-28T08:18:58Z</time>
      </trkpt>
      <trkpt lat="47.63284" lon="1.9375631">
        <ele>174</ele>
        <time>2021-10-28T08:18:59Z</time>
      </trkpt>
      <trkpt lat="47.63285" lon="1.9375764">
        <ele>174</ele>
        <time>2021-10-28T08:19:00Z</time>
      </trkpt>
      <trkpt lat="47.63286" lon="1.9375935">
        <ele>175</ele>
        <time>2021-10-28T08:19:01Z</time>
      </trkpt>
      <trkpt lat="47.632866" lon="1.9376097">
        <ele>174</ele>
        <time>2021-10-28T08:19:02Z</time>
      </trkpt>
      <trkpt lat="47.632874" lon="1.9376223">
        <ele>174</ele>
        <time>2021-10-28T08:19:03Z</time>
      </trkpt>
      <trkpt lat="47.63288" lon="1.9376316">
        <ele>174</ele>
        <time>2021-10-28T08:19:04Z</time>
      </trkpt>
      <trkpt lat="47.63289" lon="1.9376456">
        <ele>174</ele>
        <time>2021-10-28T08:19:05Z</time>
      </trkpt>
      <trkpt lat="47.632896" lon="1.937667">
        <ele>174</ele>
        <time>2021-10-28T08:19:06Z</time>
      </trkpt>
      <trkpt lat="47.632904" lon="1.9376807">
        <ele>174</ele>
        <time>2021-10-28T08:19:07Z</time>
      </trkpt>
      <trkpt lat="47.63291" lon="1.9376948">
        <ele>174</ele>
        <time>2021-10-28T08:19:08Z</time>
      </trkpt>
      <trkpt lat="47.632915" lon="1.9377108">
        <ele>173</ele>
        <time>2021-10-28T08:19:09Z</time>
      </trkpt>
      <trkpt lat="47.632923" lon="1.9377296">
        <ele>173</ele>
        <time>2021-10-28T08:19:10Z</time>
      </trkpt>
      <trkpt lat="47.632935" lon="1.9377439">
        <ele>173</ele>
        <time>2021-10-28T08:19:11Z</time>
      </trkpt>
      <trkpt lat="47.632942" lon="1.9377562">
        <ele>173</ele>
        <time>2021-10-28T08:19:12Z</time>
      </trkpt>
      <trkpt lat="47.63295" lon="1.9377676">
        <ele>173</ele>
        <time>2021-10-28T08:19:13Z</time>
      </trkpt>
      <trkpt lat="47.632957" lon="1.9377819">
        <ele>173</ele>
        <time>2021-10-28T08:19:14Z</time>
      </trkpt>
      <trkpt lat="47.632965" lon="1.9377943">
        <ele>173</ele>
        <time>2021-10-28T08:19:15Z</time>
      </trkpt>
      <trkpt lat="47.63297" lon="1.937816">
        <ele>174</ele>
        <time>2021-10-28T08:19:16Z</time>
      </trkpt>
      <trkpt lat="47.632977" lon="1.9378353">
        <ele>174</ele>
        <time>2021-10-28T08:19:17Z</time>
      </trkpt>
      <trkpt lat="47.632988" lon="1.9378493">
        <ele>174</ele>
        <time>2021-10-28T08:19:18Z</time>
      </trkpt>
      <trkpt lat="47.632996" lon="1.937859">
        <ele>174</ele>
        <time>2021-10-28T08:19:19Z</time>
      </trkpt>
      <trkpt lat="47.633007" lon="1.9378743">
        <ele>174</ele>
        <time>2021-10-28T08:19:20Z</time>
      </trkpt>
      <trkpt lat="47.63302" lon="1.9378844">
        <ele>174</ele>
        <time>2021-10-28T08:19:21Z</time>
      </trkpt>
      <trkpt lat="47.633026" lon="1.9379007">
        <ele>175</ele>
        <time>2021-10-28T08:19:22Z</time>
      </trkpt>
      <trkpt lat="47.633038" lon="1.9379097">
        <ele>175</ele>
        <time>2021-10-28T08:19:23Z</time>
      </trkpt>
      <trkpt lat="47.633045" lon="1.937921">
        <ele>175</ele>
        <time>2021-10-28T08:19:24Z</time>
      </trkpt>
      <trkpt lat="47.633053" lon="1.9379338">
        <ele>175</ele>
        <time>2021-10-28T08:19:25Z</time>
      </trkpt>
      <trkpt lat="47.633053" lon="1.9379455">
        <ele>176</ele>
        <time>2021-10-28T08:19:26Z</time>
      </trkpt>
      <trkpt lat="47.633057" lon="1.9379603">
        <ele>176</ele>
        <time>2021-10-28T08:19:27Z</time>
      </trkpt>
      <trkpt lat="47.633064" lon="1.9379712">
        <ele>177</ele>
        <time>2021-10-28T08:19:28Z</time>
      </trkpt>
      <trkpt lat="47.633068" lon="1.9379907">
        <ele>177</ele>
        <time>2021-10-28T08:19:29Z</time>
      </trkpt>
      <trkpt lat="47.633076" lon="1.9380049">
        <ele>177</ele>
        <time>2021-10-28T08:19:30Z</time>
      </trkpt>
      <trkpt lat="47.633083" lon="1.9380201">
        <ele>176</ele>
        <time>2021-10-28T08:19:31Z</time>
      </trkpt>
      <trkpt lat="47.63309" lon="1.9380372">
        <ele>177</ele>
        <time>2021-10-28T08:19:32Z</time>
      </trkpt>
      <trkpt lat="47.6331" lon="1.9380561">
        <ele>177</ele>
        <time>2021-10-28T08:19:33Z</time>
      </trkpt>
      <trkpt lat="47.633102" lon="1.9380727">
        <ele>177</ele>
        <time>2021-10-28T08:19:34Z</time>
      </trkpt>
      <trkpt lat="47.63311" lon="1.9380859">
        <ele>177</ele>
        <time>2021-10-28T08:19:35Z</time>
      </trkpt>
      <trkpt lat="47.633118" lon="1.9380975">
        <ele>177</ele>
        <time>2021-10-28T08:19:36Z</time>
      </trkpt>
      <trkpt lat="47.63312" lon="1.9381127">
        <ele>177</ele>
        <time>2021-10-28T08:19:37Z</time>
      </trkpt>
      <trkpt lat="47.63313" lon="1.9381227">
        <ele>177</ele>
        <time>2021-10-28T08:19:38Z</time>
      </trkpt>
      <trkpt lat="47.633137" lon="1.9381367">
        <ele>177</ele>
        <time>2021-10-28T08:19:39Z</time>
      </trkpt>
      <trkpt lat="47.63315" lon="1.9381495">
        <ele>177</ele>
        <time>2021-10-28T08:19:40Z</time>
      </trkpt>
      <trkpt lat="47.63316" lon="1.9381621">
        <ele>176</ele>
        <time>2021-10-28T08:19:41Z</time>
      </trkpt>
      <trkpt lat="47.633167" lon="1.9381768">
        <ele>176</ele>
        <time>2021-10-28T08:19:42Z</time>
      </trkpt>
      <trkpt lat="47.63318" lon="1.9381957">
        <ele>176</ele>
        <time>2021-10-28T08:19:43Z</time>
      </trkpt>
      <trkpt lat="47.633183" lon="1.9382023">
        <ele>177</ele>
        <time>2021-10-28T08:19:44Z</time>
      </trkpt>
      <trkpt lat="47.633186" lon="1.9382155">
        <ele>177</ele>
        <time>2021-10-28T08:19:45Z</time>
      </trkpt>
      <trkpt lat="47.633194" lon="1.9382273">
        <ele>177</ele>
        <time>2021-10-28T08:19:46Z</time>
      </trkpt>
      <trkpt lat="47.633205" lon="1.9382442">
        <ele>177</ele>
        <time>2021-10-28T08:19:47Z</time>
      </trkpt>
      <trkpt lat="47.633213" lon="1.938257">
        <ele>177</ele>
        <time>2021-10-28T08:19:48Z</time>
      </trkpt>
      <trkpt lat="47.633224" lon="1.9382722">
        <ele>177</ele>
        <time>2021-10-28T08:19:49Z</time>
      </trkpt>
      <trkpt lat="47.633232" lon="1.9382889">
        <ele>177</ele>
        <time>2021-10-28T08:19:50Z</time>
      </trkpt>
      <trkpt lat="47.63324" lon="1.9383062">
        <ele>177</ele>
        <time>2021-10-28T08:19:51Z</time>
      </trkpt>
      <trkpt lat="47.633247" lon="1.9383185">
        <ele>177</ele>
        <time>2021-10-28T08:19:52Z</time>
      </trkpt>
      <trkpt lat="47.63326" lon="1.9383326">
        <ele>177</ele>
        <time>2021-10-28T08:19:53Z</time>
      </trkpt>
      <trkpt lat="47.633263" lon="1.9383448">
        <ele>177</ele>
        <time>2021-10-28T08:19:54Z</time>
      </trkpt>
      <trkpt lat="47.633274" lon="1.9383544">
        <ele>177</ele>
        <time>2021-10-28T08:19:55Z</time>
      </trkpt>
      <trkpt lat="47.63328" lon="1.9383641">
        <ele>177</ele>
        <time>2021-10-28T08:19:56Z</time>
      </trkpt>
      <trkpt lat="47.633286" lon="1.9383769">
        <ele>177</ele>
        <time>2021-10-28T08:19:57Z</time>
      </trkpt>
      <trkpt lat="47.6333" lon="1.9383858">
        <ele>178</ele>
        <time>2021-10-28T08:19:58Z</time>
      </trkpt>
      <trkpt lat="47.633316" lon="1.9383954">
        <ele>178</ele>
        <time>2021-10-28T08:19:59Z</time>
      </trkpt>
      <trkpt lat="47.633327" lon="1.9384066">
        <ele>179</ele>
        <time>2021-10-28T08:20:00Z</time>
      </trkpt>
      <trkpt lat="47.63334" lon="1.9384174">
        <ele>179</ele>
        <time>2021-10-28T08:20:01Z</time>
      </trkpt>
      <trkpt lat="47.63335" lon="1.9384369">
        <ele>179</ele>
        <time>2021-10-28T08:20:02Z</time>
      </trkpt>
      <trkpt lat="47.633358" lon="1.9384533">
        <ele>179</ele>
        <time>2021-10-28T08:20:03Z</time>
      </trkpt>
      <trkpt lat="47.63336" lon="1.9384668">
        <ele>179</ele>
        <time>2021-10-28T08:20:04Z</time>
      </trkpt>
      <trkpt lat="47.633373" lon="1.9384803">
        <ele>179</ele>
        <time>2021-10-28T08:20:05Z</time>
      </trkpt>
      <trkpt lat="47.63338" lon="1.938487">
        <ele>180</ele>
        <time>2021-10-28T08:20:06Z</time>
      </trkpt>
      <trkpt lat="47.633392" lon="1.938498">
        <ele>180</ele>
        <time>2021-10-28T08:20:07Z</time>
      </trkpt>
      <trkpt lat="47.633408" lon="1.9385136">
        <ele>180</ele>
        <time>2021-10-28T08:20:08Z</time>
      </trkpt>
      <trkpt lat="47.633415" lon="1.9385297">
        <ele>180</ele>
        <time>2021-10-28T08:20:09Z</time>
      </trkpt>
      <trkpt lat="47.633423" lon="1.9385489">
        <ele>180</ele>
        <time>2021-10-28T08:20:10Z</time>
      </trkpt>
      <trkpt lat="47.63343" lon="1.9385645">
        <ele>180</ele>
        <time>2021-10-28T08:20:11Z</time>
      </trkpt>
      <trkpt lat="47.633442" lon="1.9385767">
        <ele>180</ele>
        <time>2021-10-28T08:20:12Z</time>
      </trkpt>
      <trkpt lat="47.633446" lon="1.9385883">
        <ele>180</ele>
        <time>2021-10-28T08:20:13Z</time>
      </trkpt>
      <trkpt lat="47.63345" lon="1.9386051">
        <ele>180</ele>
        <time>2021-10-28T08:20:14Z</time>
      </trkpt>
      <trkpt lat="47.633457" lon="1.9386178">
        <ele>181</ele>
        <time>2021-10-28T08:20:15Z</time>
      </trkpt>
      <trkpt lat="47.633465" lon="1.9386325">
        <ele>181</ele>
        <time>2021-10-28T08:20:16Z</time>
      </trkpt>
      <trkpt lat="47.633472" lon="1.9386472">
        <ele>182</ele>
        <time>2021-10-28T08:20:17Z</time>
      </trkpt>
      <trkpt lat="47.63348" lon="1.9386638">
        <ele>182</ele>
        <time>2021-10-28T08:20:18Z</time>
      </trkpt>
      <trkpt lat="47.63349" lon="1.9386761">
        <ele>182</ele>
        <time>2021-10-28T08:20:19Z</time>
      </trkpt>
      <trkpt lat="47.6335" lon="1.9386886">
        <ele>182</ele>
        <time>2021-10-28T08:20:20Z</time>
      </trkpt>
      <trkpt lat="47.633503" lon="1.9387081">
        <ele>182</ele>
        <time>2021-10-28T08:20:21Z</time>
      </trkpt>
      <trkpt lat="47.63351" lon="1.9387285">
        <ele>182</ele>
        <time>2021-10-28T08:20:22Z</time>
      </trkpt>
      <trkpt lat="47.63352" lon="1.9387494">
        <ele>182</ele>
        <time>2021-10-28T08:20:23Z</time>
      </trkpt>
      <trkpt lat="47.633526" lon="1.9387654">
        <ele>182</ele>
        <time>2021-10-28T08:20:24Z</time>
      </trkpt>
      <trkpt lat="47.633533" lon="1.9387785">
        <ele>182</ele>
        <time>2021-10-28T08:20:25Z</time>
      </trkpt>
      <trkpt lat="47.633537" lon="1.938792">
        <ele>182</ele>
        <time>2021-10-28T08:20:26Z</time>
      </trkpt>
      <trkpt lat="47.63354" lon="1.9388052">
        <ele>182</ele>
        <time>2021-10-28T08:20:27Z</time>
      </trkpt>
      <trkpt lat="47.63354" lon="1.938817">
        <ele>182</ele>
        <time>2021-10-28T08:20:28Z</time>
      </trkpt>
      <trkpt lat="47.633553" lon="1.9388264">
        <ele>182</ele>
        <time>2021-10-28T08:20:29Z</time>
      </trkpt>
      <trkpt lat="47.63356" lon="1.9388363">
        <ele>182</ele>
        <time>2021-10-28T08:20:30Z</time>
      </trkpt>
      <trkpt lat="47.63357" lon="1.9388455">
        <ele>182</ele>
        <time>2021-10-28T08:20:31Z</time>
      </trkpt>
      <trkpt lat="47.63358" lon="1.9388582">
        <ele>182</ele>
        <time>2021-10-28T08:20:32Z</time>
      </trkpt>
      <trkpt lat="47.63359" lon="1.9388713">
        <ele>181</ele>
        <time>2021-10-28T08:20:33Z</time>
      </trkpt>
      <trkpt lat="47.633602" lon="1.9388826">
        <ele>181</ele>
        <time>2021-10-28T08:20:34Z</time>
      </trkpt>
      <trkpt lat="47.633614" lon="1.9388916">
        <ele>182</ele>
        <time>2021-10-28T08:20:35Z</time>
      </trkpt>
      <trkpt lat="47.63362" lon="1.9389024">
        <ele>182</ele>
        <time>2021-10-28T08:20:36Z</time>
      </trkpt>
      <trkpt lat="47.633633" lon="1.9389114">
        <ele>182</ele>
        <time>2021-10-28T08:20:37Z</time>
      </trkpt>
      <trkpt lat="47.633644" lon="1.9389144">
        <ele>182</ele>
        <time>2021-10-28T08:20:38Z</time>
      </trkpt>
      <trkpt lat="47.63366" lon="1.9389262">
        <ele>182</ele>
        <time>2021-10-28T08:20:39Z</time>
      </trkpt>
      <trkpt lat="47.633667" lon="1.9389402">
        <ele>181</ele>
        <time>2021-10-28T08:20:40Z</time>
      </trkpt>
      <trkpt lat="47.633675" lon="1.9389527">
        <ele>181</ele>
        <time>2021-10-28T08:20:41Z</time>
      </trkpt>
      <trkpt lat="47.633686" lon="1.9389645">
        <ele>181</ele>
        <time>2021-10-28T08:20:42Z</time>
      </trkpt>
      <trkpt lat="47.633694" lon="1.9389831">
        <ele>181</ele>
        <time>2021-10-28T08:20:43Z</time>
      </trkpt>
      <trkpt lat="47.6337" lon="1.93899">
        <ele>181</ele>
        <time>2021-10-28T08:20:44Z</time>
      </trkpt>
      <trkpt lat="47.63371" lon="1.9390026">
        <ele>180</ele>
        <time>2021-10-28T08:20:45Z</time>
      </trkpt>
      <trkpt lat="47.633713" lon="1.9390193">
        <ele>180</ele>
        <time>2021-10-28T08:20:46Z</time>
      </trkpt>
      <trkpt lat="47.63372" lon="1.9390359">
        <ele>180</ele>
        <time>2021-10-28T08:20:47Z</time>
      </trkpt>
      <trkpt lat="47.63373" lon="1.9390476">
        <ele>180</ele>
        <time>2021-10-28T08:20:48Z</time>
      </trkpt>
      <trkpt lat="47.633743" lon="1.939062">
        <ele>179</ele>
        <time>2021-10-28T08:20:49Z</time>
      </trkpt>
      <trkpt lat="47.63375" lon="1.9390777">
        <ele>179</ele>
        <time>2021-10-28T08:20:50Z</time>
      </trkpt>
      <trkpt lat="47.633762" lon="1.9390934">
        <ele>179</ele>
        <time>2021-10-28T08:20:51Z</time>
      </trkpt>
      <trkpt lat="47.63377" lon="1.939106">
        <ele>179</ele>
        <time>2021-10-28T08:20:52Z</time>
      </trkpt>
      <trkpt lat="47.63377" lon="1.9391212">
        <ele>179</ele>
        <time>2021-10-28T08:20:53Z</time>
      </trkpt>
      <trkpt lat="47.633774" lon="1.9391292">
        <ele>179</ele>
        <time>2021-10-28T08:20:54Z</time>
      </trkpt>
      <trkpt lat="47.63378" lon="1.9391415">
        <ele>179</ele>
        <time>2021-10-28T08:20:55Z</time>
      </trkpt>
      <trkpt lat="47.633793" lon="1.9391481">
        <ele>179</ele>
        <time>2021-10-28T08:20:56Z</time>
      </trkpt>
      <trkpt lat="47.6338" lon="1.9391559">
        <ele>179</ele>
        <time>2021-10-28T08:20:57Z</time>
      </trkpt>
      <trkpt lat="47.63381" lon="1.9391701">
        <ele>179</ele>
        <time>2021-10-28T08:20:58Z</time>
      </trkpt>
      <trkpt lat="47.633816" lon="1.9391842">
        <ele>179</ele>
        <time>2021-10-28T08:20:59Z</time>
      </trkpt>
      <trkpt lat="47.633827" lon="1.9391983">
        <ele>179</ele>
        <time>2021-10-28T08:21:00Z</time>
      </trkpt>
      <trkpt lat="47.63384" lon="1.9392152">
        <ele>179</ele>
        <time>2021-10-28T08:21:01Z</time>
      </trkpt>
      <trkpt lat="47.633846" lon="1.939228">
        <ele>179</ele>
        <time>2021-10-28T08:21:02Z</time>
      </trkpt>
      <trkpt lat="47.633854" lon="1.9392424">
        <ele>179</ele>
        <time>2021-10-28T08:21:03Z</time>
      </trkpt>
      <trkpt lat="47.633865" lon="1.9392556">
        <ele>179</ele>
        <time>2021-10-28T08:21:04Z</time>
      </trkpt>
      <trkpt lat="47.63387" lon="1.9392712">
        <ele>179</ele>
        <time>2021-10-28T08:21:05Z</time>
      </trkpt>
      <trkpt lat="47.63388" lon="1.93929">
        <ele>179</ele>
        <time>2021-10-28T08:21:06Z</time>
      </trkpt>
      <trkpt lat="47.63389" lon="1.9393034">
        <ele>179</ele>
        <time>2021-10-28T08:21:07Z</time>
      </trkpt>
      <trkpt lat="47.633892" lon="1.9393152">
        <ele>179</ele>
        <time>2021-10-28T08:21:08Z</time>
      </trkpt>
      <trkpt lat="47.6339" lon="1.9393309">
        <ele>178</ele>
        <time>2021-10-28T08:21:09Z</time>
      </trkpt>
      <trkpt lat="47.633907" lon="1.9393507">
        <ele>179</ele>
        <time>2021-10-28T08:21:10Z</time>
      </trkpt>
      <trkpt lat="47.63391" lon="1.9393672">
        <ele>179</ele>
        <time>2021-10-28T08:21:11Z</time>
      </trkpt>
      <trkpt lat="47.63392" lon="1.9393817">
        <ele>179</ele>
        <time>2021-10-28T08:21:12Z</time>
      </trkpt>
      <trkpt lat="47.633926" lon="1.9393984">
        <ele>179</ele>
        <time>2021-10-28T08:21:13Z</time>
      </trkpt>
      <trkpt lat="47.633938" lon="1.9394106">
        <ele>180</ele>
        <time>2021-10-28T08:21:14Z</time>
      </trkpt>
      <trkpt lat="47.633945" lon="1.9394231">
        <ele>180</ele>
        <time>2021-10-28T08:21:15Z</time>
      </trkpt>
      <trkpt lat="47.633953" lon="1.939445">
        <ele>180</ele>
        <time>2021-10-28T08:21:16Z</time>
      </trkpt>
      <trkpt lat="47.63396" lon="1.9394556">
        <ele>180</ele>
        <time>2021-10-28T08:21:17Z</time>
      </trkpt>
      <trkpt lat="47.633965" lon="1.9394685">
        <ele>179</ele>
        <time>2021-10-28T08:21:18Z</time>
      </trkpt>
      <trkpt lat="47.633972" lon="1.9394792">
        <ele>180</ele>
        <time>2021-10-28T08:21:19Z</time>
      </trkpt>
      <trkpt lat="47.63398" lon="1.9394884">
        <ele>180</ele>
        <time>2021-10-28T08:21:20Z</time>
      </trkpt>
      <trkpt lat="47.63399" lon="1.9395001">
        <ele>180</ele>
        <time>2021-10-28T08:21:21Z</time>
      </trkpt>
      <trkpt lat="47.634" lon="1.9395097">
        <ele>180</ele>
        <time>2021-10-28T08:21:22Z</time>
      </trkpt>
      <trkpt lat="47.634007" lon="1.9395237">
        <ele>180</ele>
        <time>2021-10-28T08:21:23Z</time>
      </trkpt>
      <trkpt lat="47.634018" lon="1.9395379">
        <ele>180</ele>
        <time>2021-10-28T08:21:24Z</time>
      </trkpt>
      <trkpt lat="47.634026" lon="1.9395542">
        <ele>180</ele>
        <time>2021-10-28T08:21:25Z</time>
      </trkpt>
      <trkpt lat="47.634033" lon="1.93957">
        <ele>181</ele>
        <time>2021-10-28T08:21:26Z</time>
      </trkpt>
      <trkpt lat="47.634037" lon="1.9395857">
        <ele>181</ele>
        <time>2021-10-28T08:21:27Z</time>
      </trkpt>
      <trkpt lat="47.634045" lon="1.9395958">
        <ele>181</ele>
        <time>2021-10-28T08:21:28Z</time>
      </trkpt>
      <trkpt lat="47.634052" lon="1.939606">
        <ele>181</ele>
        <time>2021-10-28T08:21:29Z</time>
      </trkpt>
      <trkpt lat="47.634064" lon="1.9396152">
        <ele>181</ele>
        <time>2021-10-28T08:21:30Z</time>
      </trkpt>
      <trkpt lat="47.63407" lon="1.939629">
        <ele>181</ele>
        <time>2021-10-28T08:21:31Z</time>
      </trkpt>
      <trkpt lat="47.63408" lon="1.9396405">
        <ele>181</ele>
        <time>2021-10-28T08:21:32Z</time>
      </trkpt>
      <trkpt lat="47.634087" lon="1.9396559">
        <ele>180</ele>
        <time>2021-10-28T08:21:33Z</time>
      </trkpt>
      <trkpt lat="47.634098" lon="1.9396677">
        <ele>180</ele>
        <time>2021-10-28T08:21:34Z</time>
      </trkpt>
      <trkpt lat="47.6341" lon="1.9396838">
        <ele>180</ele>
        <time>2021-10-28T08:21:35Z</time>
      </trkpt>
      <trkpt lat="47.63411" lon="1.9396992">
        <ele>180</ele>
        <time>2021-10-28T08:21:36Z</time>
      </trkpt>
      <trkpt lat="47.634117" lon="1.9397147">
        <ele>180</ele>
        <time>2021-10-28T08:21:37Z</time>
      </trkpt>
      <trkpt lat="47.634125" lon="1.9397259">
        <ele>180</ele>
        <time>2021-10-28T08:21:38Z</time>
      </trkpt>
      <trkpt lat="47.634132" lon="1.9397349">
        <ele>180</ele>
        <time>2021-10-28T08:21:39Z</time>
      </trkpt>
      <trkpt lat="47.63414" lon="1.9397404">
        <ele>180</ele>
        <time>2021-10-28T08:21:40Z</time>
      </trkpt>
      <trkpt lat="47.63415" lon="1.9397452">
        <ele>180</ele>
        <time>2021-10-28T08:21:41Z</time>
      </trkpt>
      <trkpt lat="47.634155" lon="1.9397588">
        <ele>180</ele>
        <time>2021-10-28T08:21:42Z</time>
      </trkpt>
      <trkpt lat="47.634167" lon="1.9397776">
        <ele>180</ele>
        <time>2021-10-28T08:21:43Z</time>
      </trkpt>
      <trkpt lat="47.63418" lon="1.9397938">
        <ele>180</ele>
        <time>2021-10-28T08:21:44Z</time>
      </trkpt>
      <trkpt lat="47.63419" lon="1.9398127">
        <ele>180</ele>
        <time>2021-10-28T08:21:45Z</time>
      </trkpt>
      <trkpt lat="47.634197" lon="1.939833">
        <ele>180</ele>
        <time>2021-10-28T08:21:46Z</time>
      </trkpt>
      <trkpt lat="47.63421" lon="1.9398434">
        <ele>181</ele>
        <time>2021-10-28T08:21:47Z</time>
      </trkpt>
      <trkpt lat="47.63422" lon="1.9398522">
        <ele>181</ele>
        <time>2021-10-28T08:21:48Z</time>
      </trkpt>
      <trkpt lat="47.63423" lon="1.9398677">
        <ele>180</ele>
        <time>2021-10-28T08:21:49Z</time>
      </trkpt>
      <trkpt lat="47.634243" lon="1.939883">
        <ele>180</ele>
        <time>2021-10-28T08:21:50Z</time>
      </trkpt>
      <trkpt lat="47.63425" lon="1.9398962">
        <ele>180</ele>
        <time>2021-10-28T08:21:51Z</time>
      </trkpt>
      <trkpt lat="47.634254" lon="1.9399093">
        <ele>180</ele>
        <time>2021-10-28T08:21:52Z</time>
      </trkpt>
      <trkpt lat="47.634262" lon="1.9399214">
        <ele>180</ele>
        <time>2021-10-28T08:21:53Z</time>
      </trkpt>
      <trkpt lat="47.63427" lon="1.9399328">
        <ele>180</ele>
        <time>2021-10-28T08:21:54Z</time>
      </trkpt>
      <trkpt lat="47.634277" lon="1.9399492">
        <ele>180</ele>
        <time>2021-10-28T08:21:55Z</time>
      </trkpt>
      <trkpt lat="47.63429" lon="1.9399643">
        <ele>180</ele>
        <time>2021-10-28T08:21:56Z</time>
      </trkpt>
      <trkpt lat="47.634293" lon="1.9399759">
        <ele>180</ele>
        <time>2021-10-28T08:21:57Z</time>
      </trkpt>
      <trkpt lat="47.6343" lon="1.9399923">
        <ele>180</ele>
        <time>2021-10-28T08:21:58Z</time>
      </trkpt>
      <trkpt lat="47.634308" lon="1.940004">
        <ele>180</ele>
        <time>2021-10-28T08:21:59Z</time>
      </trkpt>
      <trkpt lat="47.634315" lon="1.9400183">
        <ele>180</ele>
        <time>2021-10-28T08:22:00Z</time>
      </trkpt>
      <trkpt lat="47.63432" lon="1.9400375">
        <ele>179</ele>
        <time>2021-10-28T08:22:01Z</time>
      </trkpt>
      <trkpt lat="47.634327" lon="1.9400567">
        <ele>178</ele>
        <time>2021-10-28T08:22:02Z</time>
      </trkpt>
      <trkpt lat="47.634335" lon="1.9400749">
        <ele>178</ele>
        <time>2021-10-28T08:22:03Z</time>
      </trkpt>
      <trkpt lat="47.634342" lon="1.9400892">
        <ele>179</ele>
        <time>2021-10-28T08:22:04Z</time>
      </trkpt>
      <trkpt lat="47.634354" lon="1.9401016">
        <ele>179</ele>
        <time>2021-10-28T08:22:05Z</time>
      </trkpt>
      <trkpt lat="47.63436" lon="1.940117">
        <ele>179</ele>
        <time>2021-10-28T08:22:06Z</time>
      </trkpt>
      <trkpt lat="47.63437" lon="1.9401306">
        <ele>178</ele>
        <time>2021-10-28T08:22:07Z</time>
      </trkpt>
      <trkpt lat="47.634373" lon="1.9401424">
        <ele>179</ele>
        <time>2021-10-28T08:22:08Z</time>
      </trkpt>
      <trkpt lat="47.63438" lon="1.9401577">
        <ele>179</ele>
        <time>2021-10-28T08:22:09Z</time>
      </trkpt>
      <trkpt lat="47.634384" lon="1.9401753">
        <ele>179</ele>
        <time>2021-10-28T08:22:10Z</time>
      </trkpt>
      <trkpt lat="47.63439" lon="1.9401889">
        <ele>179</ele>
        <time>2021-10-28T08:22:11Z</time>
      </trkpt>
      <trkpt lat="47.634396" lon="1.9401964">
        <ele>179</ele>
        <time>2021-10-28T08:22:12Z</time>
      </trkpt>
      <trkpt lat="47.634403" lon="1.9402051">
        <ele>180</ele>
        <time>2021-10-28T08:22:13Z</time>
      </trkpt>
      <trkpt lat="47.634415" lon="1.940218">
        <ele>180</ele>
        <time>2021-10-28T08:22:14Z</time>
      </trkpt>
      <trkpt lat="47.634422" lon="1.940231">
        <ele>180</ele>
        <time>2021-10-28T08:22:15Z</time>
      </trkpt>
      <trkpt lat="47.63443" lon="1.9402407">
        <ele>180</ele>
        <time>2021-10-28T08:22:16Z</time>
      </trkpt>
      <trkpt lat="47.634438" lon="1.9402502">
        <ele>180</ele>
        <time>2021-10-28T08:22:17Z</time>
      </trkpt>
      <trkpt lat="47.634445" lon="1.9402597">
        <ele>180</ele>
        <time>2021-10-28T08:22:18Z</time>
      </trkpt>
      <trkpt lat="47.634453" lon="1.9402676">
        <ele>180</ele>
        <time>2021-10-28T08:22:19Z</time>
      </trkpt>
      <trkpt lat="47.634457" lon="1.9402744">
        <ele>180</ele>
        <time>2021-10-28T08:22:20Z</time>
      </trkpt>
      <trkpt lat="47.634464" lon="1.940283">
        <ele>180</ele>
        <time>2021-10-28T08:22:21Z</time>
      </trkpt>
      <trkpt lat="47.634476" lon="1.9402955">
        <ele>180</ele>
        <time>2021-10-28T08:22:22Z</time>
      </trkpt>
      <trkpt lat="47.634483" lon="1.9403061">
        <ele>180</ele>
        <time>2021-10-28T08:22:23Z</time>
      </trkpt>
      <trkpt lat="47.634495" lon="1.940316">
        <ele>180</ele>
        <time>2021-10-28T08:22:24Z</time>
      </trkpt>
      <trkpt lat="47.634506" lon="1.9403319">
        <ele>180</ele>
        <time>2021-10-28T08:22:25Z</time>
      </trkpt>
      <trkpt lat="47.63451" lon="1.94035">
        <ele>180</ele>
        <time>2021-10-28T08:22:26Z</time>
      </trkpt>
      <trkpt lat="47.63452" lon="1.9403647">
        <ele>180</ele>
        <time>2021-10-28T08:22:27Z</time>
      </trkpt>
      <trkpt lat="47.63453" lon="1.9403812">
        <ele>179</ele>
        <time>2021-10-28T08:22:28Z</time>
      </trkpt>
      <trkpt lat="47.634533" lon="1.9403954">
        <ele>180</ele>
        <time>2021-10-28T08:22:29Z</time>
      </trkpt>
      <trkpt lat="47.634537" lon="1.9404064">
        <ele>180</ele>
        <time>2021-10-28T08:22:30Z</time>
      </trkpt>
      <trkpt lat="47.634544" lon="1.9404188">
        <ele>180</ele>
        <time>2021-10-28T08:22:31Z</time>
      </trkpt>
      <trkpt lat="47.634552" lon="1.9404311">
        <ele>180</ele>
        <time>2021-10-28T08:22:32Z</time>
      </trkpt>
      <trkpt lat="47.63456" lon="1.9404441">
        <ele>180</ele>
        <time>2021-10-28T08:22:33Z</time>
      </trkpt>
      <trkpt lat="47.634567" lon="1.9404583">
        <ele>180</ele>
        <time>2021-10-28T08:22:34Z</time>
      </trkpt>
      <trkpt lat="47.634575" lon="1.9404709">
        <ele>180</ele>
        <time>2021-10-28T08:22:35Z</time>
      </trkpt>
      <trkpt lat="47.634586" lon="1.940487">
        <ele>180</ele>
        <time>2021-10-28T08:22:36Z</time>
      </trkpt>
      <trkpt lat="47.634594" lon="1.9404958">
        <ele>181</ele>
        <time>2021-10-28T08:22:37Z</time>
      </trkpt>
      <trkpt lat="47.634605" lon="1.9405077">
        <ele>181</ele>
        <time>2021-10-28T08:22:38Z</time>
      </trkpt>
      <trkpt lat="47.634617" lon="1.9405229">
        <ele>181</ele>
        <time>2021-10-28T08:22:39Z</time>
      </trkpt>
      <trkpt lat="47.634632" lon="1.940535">
        <ele>181</ele>
        <time>2021-10-28T08:22:40Z</time>
      </trkpt>
      <trkpt lat="47.63464" lon="1.9405501">
        <ele>181</ele>
        <time>2021-10-28T08:22:41Z</time>
      </trkpt>
      <trkpt lat="47.634647" lon="1.9405668">
        <ele>181</ele>
        <time>2021-10-28T08:22:42Z</time>
      </trkpt>
      <trkpt lat="47.634655" lon="1.9405828">
        <ele>182</ele>
        <time>2021-10-28T08:22:43Z</time>
      </trkpt>
      <trkpt lat="47.634666" lon="1.9405918">
        <ele>182</ele>
        <time>2021-10-28T08:22:44Z</time>
      </trkpt>
      <trkpt lat="47.634674" lon="1.940606">
        <ele>181</ele>
        <time>2021-10-28T08:22:45Z</time>
      </trkpt>
      <trkpt lat="47.63468" lon="1.9406216">
        <ele>181</ele>
        <time>2021-10-28T08:22:46Z</time>
      </trkpt>
      <trkpt lat="47.634686" lon="1.940628">
        <ele>181</ele>
        <time>2021-10-28T08:22:47Z</time>
      </trkpt>
      <trkpt lat="47.634697" lon="1.9406374">
        <ele>181</ele>
        <time>2021-10-28T08:22:48Z</time>
      </trkpt>
      <trkpt lat="47.634705" lon="1.9406507">
        <ele>181</ele>
        <time>2021-10-28T08:22:49Z</time>
      </trkpt>
      <trkpt lat="47.634712" lon="1.9406669">
        <ele>181</ele>
        <time>2021-10-28T08:22:50Z</time>
      </trkpt>
      <trkpt lat="47.63472" lon="1.9406842">
        <ele>181</ele>
        <time>2021-10-28T08:22:51Z</time>
      </trkpt>
      <trkpt lat="47.634727" lon="1.9406999">
        <ele>182</ele>
        <time>2021-10-28T08:22:52Z</time>
      </trkpt>
      <trkpt lat="47.634735" lon="1.9407196">
        <ele>182</ele>
        <time>2021-10-28T08:22:53Z</time>
      </trkpt>
      <trkpt lat="47.634747" lon="1.9407378">
        <ele>182</ele>
        <time>2021-10-28T08:22:54Z</time>
      </trkpt>
      <trkpt lat="47.634754" lon="1.9407569">
        <ele>181</ele>
        <time>2021-10-28T08:22:55Z</time>
      </trkpt>
      <trkpt lat="47.63476" lon="1.9407742">
        <ele>181</ele>
        <time>2021-10-28T08:22:56Z</time>
      </trkpt>
      <trkpt lat="47.63477" lon="1.9407866">
        <ele>181</ele>
        <time>2021-10-28T08:22:57Z</time>
      </trkpt>
      <trkpt lat="47.63478" lon="1.9408033">
        <ele>182</ele>
        <time>2021-10-28T08:22:58Z</time>
      </trkpt>
      <trkpt lat="47.63479" lon="1.9408183">
        <ele>182</ele>
        <time>2021-10-28T08:22:59Z</time>
      </trkpt>
      <trkpt lat="47.6348" lon="1.9408314">
        <ele>182</ele>
        <time>2021-10-28T08:23:00Z</time>
      </trkpt>
      <trkpt lat="47.634804" lon="1.9408408">
        <ele>182</ele>
        <time>2021-10-28T08:23:01Z</time>
      </trkpt>
      <trkpt lat="47.63481" lon="1.9408528">
        <ele>181</ele>
        <time>2021-10-28T08:23:02Z</time>
      </trkpt>
      <trkpt lat="47.63482" lon="1.9408652">
        <ele>181</ele>
        <time>2021-10-28T08:23:03Z</time>
      </trkpt>
      <trkpt lat="47.63483" lon="1.9408764">
        <ele>181</ele>
        <time>2021-10-28T08:23:04Z</time>
      </trkpt>
      <trkpt lat="47.634842" lon="1.9408892">
        <ele>181</ele>
        <time>2021-10-28T08:23:05Z</time>
      </trkpt>
      <trkpt lat="47.63485" lon="1.9409015">
        <ele>181</ele>
        <time>2021-10-28T08:23:06Z</time>
      </trkpt>
      <trkpt lat="47.634857" lon="1.940916">
        <ele>181</ele>
        <time>2021-10-28T08:23:07Z</time>
      </trkpt>
      <trkpt lat="47.634865" lon="1.9409311">
        <ele>180</ele>
        <time>2021-10-28T08:23:08Z</time>
      </trkpt>
      <trkpt lat="47.634872" lon="1.9409417">
        <ele>181</ele>
        <time>2021-10-28T08:23:09Z</time>
      </trkpt>
      <trkpt lat="47.63488" lon="1.9409564">
        <ele>180</ele>
        <time>2021-10-28T08:23:10Z</time>
      </trkpt>
      <trkpt lat="47.634888" lon="1.9409728">
        <ele>180</ele>
        <time>2021-10-28T08:23:11Z</time>
      </trkpt>
      <trkpt lat="47.634895" lon="1.9409916">
        <ele>181</ele>
        <time>2021-10-28T08:23:12Z</time>
      </trkpt>
      <trkpt lat="47.634903" lon="1.9410063">
        <ele>181</ele>
        <time>2021-10-28T08:23:13Z</time>
      </trkpt>
      <trkpt lat="47.634907" lon="1.9410207">
        <ele>181</ele>
        <time>2021-10-28T08:23:14Z</time>
      </trkpt>
      <trkpt lat="47.634914" lon="1.9410388">
        <ele>181</ele>
        <time>2021-10-28T08:23:15Z</time>
      </trkpt>
      <trkpt lat="47.634922" lon="1.9410561">
        <ele>181</ele>
        <time>2021-10-28T08:23:16Z</time>
      </trkpt>
      <trkpt lat="47.63493" lon="1.9410671">
        <ele>180</ele>
        <time>2021-10-28T08:23:17Z</time>
      </trkpt>
      <trkpt lat="47.634937" lon="1.9410731">
        <ele>180</ele>
        <time>2021-10-28T08:23:18Z</time>
      </trkpt>
      <trkpt lat="47.63495" lon="1.941085">
        <ele>180</ele>
        <time>2021-10-28T08:23:19Z</time>
      </trkpt>
      <trkpt lat="47.634956" lon="1.9410949">
        <ele>181</ele>
        <time>2021-10-28T08:23:20Z</time>
      </trkpt>
      <trkpt lat="47.634968" lon="1.9411051">
        <ele>181</ele>
        <time>2021-10-28T08:23:21Z</time>
      </trkpt>
      <trkpt lat="47.634983" lon="1.9411176">
        <ele>181</ele>
        <time>2021-10-28T08:23:22Z</time>
      </trkpt>
      <trkpt lat="47.634995" lon="1.9411331">
        <ele>181</ele>
        <time>2021-10-28T08:23:23Z</time>
      </trkpt>
      <trkpt lat="47.635002" lon="1.9411482">
        <ele>181</ele>
        <time>2021-10-28T08:23:24Z</time>
      </trkpt>
      <trkpt lat="47.63501" lon="1.9411585">
        <ele>182</ele>
        <time>2021-10-28T08:23:25Z</time>
      </trkpt>
      <trkpt lat="47.635014" lon="1.9411687">
        <ele>182</ele>
        <time>2021-10-28T08:23:26Z</time>
      </trkpt>
      <trkpt lat="47.635025" lon="1.941183">
        <ele>181</ele>
        <time>2021-10-28T08:23:27Z</time>
      </trkpt>
      <trkpt lat="47.635033" lon="1.9411944">
        <ele>181</ele>
        <time>2021-10-28T08:23:28Z</time>
      </trkpt>
      <trkpt lat="47.635044" lon="1.9412066">
        <ele>182</ele>
        <time>2021-10-28T08:23:29Z</time>
      </trkpt>
      <trkpt lat="47.635056" lon="1.9412163">
        <ele>181</ele>
        <time>2021-10-28T08:23:30Z</time>
      </trkpt>
      <trkpt lat="47.635063" lon="1.9412271">
        <ele>181</ele>
        <time>2021-10-28T08:23:31Z</time>
      </trkpt>
      <trkpt lat="47.63507" lon="1.941242">
        <ele>181</ele>
        <time>2021-10-28T08:23:32Z</time>
      </trkpt>
      <trkpt lat="47.635082" lon="1.9412584">
        <ele>182</ele>
        <time>2021-10-28T08:23:33Z</time>
      </trkpt>
      <trkpt lat="47.635094" lon="1.9412677">
        <ele>182</ele>
        <time>2021-10-28T08:23:34Z</time>
      </trkpt>
      <trkpt lat="47.6351" lon="1.9412833">
        <ele>182</ele>
        <time>2021-10-28T08:23:35Z</time>
      </trkpt>
      <trkpt lat="47.635105" lon="1.9413059">
        <ele>182</ele>
        <time>2021-10-28T08:23:36Z</time>
      </trkpt>
      <trkpt lat="47.635113" lon="1.9413308">
        <ele>182</ele>
        <time>2021-10-28T08:23:37Z</time>
      </trkpt>
      <trkpt lat="47.63512" lon="1.9413494">
        <ele>181</ele>
        <time>2021-10-28T08:23:38Z</time>
      </trkpt>
      <trkpt lat="47.635124" lon="1.9413623">
        <ele>181</ele>
        <time>2021-10-28T08:23:39Z</time>
      </trkpt>
      <trkpt lat="47.635136" lon="1.9413754">
        <ele>181</ele>
        <time>2021-10-28T08:23:40Z</time>
      </trkpt>
      <trkpt lat="47.635143" lon="1.9413867">
        <ele>181</ele>
        <time>2021-10-28T08:23:41Z</time>
      </trkpt>
      <trkpt lat="47.635155" lon="1.9413985">
        <ele>182</ele>
        <time>2021-10-28T08:23:42Z</time>
      </trkpt>
      <trkpt lat="47.635166" lon="1.941409">
        <ele>181</ele>
        <time>2021-10-28T08:23:43Z</time>
      </trkpt>
      <trkpt lat="47.635174" lon="1.9414222">
        <ele>181</ele>
        <time>2021-10-28T08:23:44Z</time>
      </trkpt>
      <trkpt lat="47.63518" lon="1.9414347">
        <ele>181</ele>
        <time>2021-10-28T08:23:45Z</time>
      </trkpt>
      <trkpt lat="47.635193" lon="1.941446">
        <ele>180</ele>
        <time>2021-10-28T08:23:46Z</time>
      </trkpt>
      <trkpt lat="47.6352" lon="1.9414557">
        <ele>180</ele>
        <time>2021-10-28T08:23:47Z</time>
      </trkpt>
      <trkpt lat="47.63521" lon="1.9414662">
        <ele>180</ele>
        <time>2021-10-28T08:23:48Z</time>
      </trkpt>
      <trkpt lat="47.63522" lon="1.9414839">
        <ele>180</ele>
        <time>2021-10-28T08:23:49Z</time>
      </trkpt>
      <trkpt lat="47.63523" lon="1.941496">
        <ele>180</ele>
        <time>2021-10-28T08:23:50Z</time>
      </trkpt>
      <trkpt lat="47.63524" lon="1.9415087">
        <ele>180</ele>
        <time>2021-10-28T08:23:51Z</time>
      </trkpt>
      <trkpt lat="47.635242" lon="1.9415241">
        <ele>180</ele>
        <time>2021-10-28T08:23:52Z</time>
      </trkpt>
      <trkpt lat="47.63525" lon="1.9415408">
        <ele>181</ele>
        <time>2021-10-28T08:23:53Z</time>
      </trkpt>
      <trkpt lat="47.635258" lon="1.9415572">
        <ele>181</ele>
        <time>2021-10-28T08:23:54Z</time>
      </trkpt>
      <trkpt lat="47.635265" lon="1.9415714">
        <ele>181</ele>
        <time>2021-10-28T08:23:55Z</time>
      </trkpt>
      <trkpt lat="47.63527" lon="1.94159">
        <ele>181</ele>
        <time>2021-10-28T08:23:56Z</time>
      </trkpt>
      <trkpt lat="47.635273" lon="1.941606">
        <ele>180</ele>
        <time>2021-10-28T08:23:57Z</time>
      </trkpt>
      <trkpt lat="47.63528" lon="1.9416202">
        <ele>180</ele>
        <time>2021-10-28T08:23:58Z</time>
      </trkpt>
      <trkpt lat="47.63529" lon="1.9416367">
        <ele>180</ele>
        <time>2021-10-28T08:23:59Z</time>
      </trkpt>
      <trkpt lat="47.635292" lon="1.9416518">
        <ele>180</ele>
        <time>2021-10-28T08:24:00Z</time>
      </trkpt>
      <trkpt lat="47.6353" lon="1.9416645">
        <ele>179</ele>
        <time>2021-10-28T08:24:01Z</time>
      </trkpt>
      <trkpt lat="47.635307" lon="1.9416766">
        <ele>179</ele>
        <time>2021-10-28T08:24:02Z</time>
      </trkpt>
      <trkpt lat="47.63532" lon="1.9416968">
        <ele>179</ele>
        <time>2021-10-28T08:24:03Z</time>
      </trkpt>
      <trkpt lat="47.635326" lon="1.9417081">
        <ele>179</ele>
        <time>2021-10-28T08:24:04Z</time>
      </trkpt>
      <trkpt lat="47.63533" lon="1.9417185">
        <ele>179</ele>
        <time>2021-10-28T08:24:05Z</time>
      </trkpt>
      <trkpt lat="47.635338" lon="1.9417346">
        <ele>179</ele>
        <time>2021-10-28T08:24:06Z</time>
      </trkpt>
      <trkpt lat="47.63534" lon="1.9417508">
        <ele>179</ele>
        <time>2021-10-28T08:24:07Z</time>
      </trkpt>
      <trkpt lat="47.635345" lon="1.9417635">
        <ele>178</ele>
        <time>2021-10-28T08:24:08Z</time>
      </trkpt>
      <trkpt lat="47.635353" lon="1.9417701">
        <ele>178</ele>
        <time>2021-10-28T08:24:09Z</time>
      </trkpt>
      <trkpt lat="47.635365" lon="1.9417821">
        <ele>178</ele>
        <time>2021-10-28T08:24:10Z</time>
      </trkpt>
      <trkpt lat="47.635372" lon="1.9417958">
        <ele>178</ele>
        <time>2021-10-28T08:24:11Z</time>
      </trkpt>
      <trkpt lat="47.635376" lon="1.9418077">
        <ele>178</ele>
        <time>2021-10-28T08:24:12Z</time>
      </trkpt>
      <trkpt lat="47.635384" lon="1.9418175">
        <ele>179</ele>
        <time>2021-10-28T08:24:13Z</time>
      </trkpt>
      <trkpt lat="47.63539" lon="1.9418293">
        <ele>178</ele>
        <time>2021-10-28T08:24:14Z</time>
      </trkpt>
      <trkpt lat="47.635403" lon="1.941841">
        <ele>178</ele>
        <time>2021-10-28T08:24:15Z</time>
      </trkpt>
      <trkpt lat="47.635406" lon="1.9418523">
        <ele>178</ele>
        <time>2021-10-28T08:24:16Z</time>
      </trkpt>
      <trkpt lat="47.635418" lon="1.9418652">
        <ele>178</ele>
        <time>2021-10-28T08:24:17Z</time>
      </trkpt>
      <trkpt lat="47.635426" lon="1.9418805">
        <ele>178</ele>
        <time>2021-10-28T08:24:18Z</time>
      </trkpt>
      <trkpt lat="47.635433" lon="1.9418957">
        <ele>178</ele>
        <time>2021-10-28T08:24:19Z</time>
      </trkpt>
      <trkpt lat="47.635445" lon="1.9419123">
        <ele>178</ele>
        <time>2021-10-28T08:24:20Z</time>
      </trkpt>
      <trkpt lat="47.635452" lon="1.9419303">
        <ele>178</ele>
        <time>2021-10-28T08:24:21Z</time>
      </trkpt>
      <trkpt lat="47.635464" lon="1.9419442">
        <ele>178</ele>
        <time>2021-10-28T08:24:22Z</time>
      </trkpt>
      <trkpt lat="47.635475" lon="1.9419554">
        <ele>178</ele>
        <time>2021-10-28T08:24:23Z</time>
      </trkpt>
      <trkpt lat="47.635483" lon="1.9419713">
        <ele>178</ele>
        <time>2021-10-28T08:24:24Z</time>
      </trkpt>
      <trkpt lat="47.63549" lon="1.941985">
        <ele>178</ele>
        <time>2021-10-28T08:24:25Z</time>
      </trkpt>
      <trkpt lat="47.635498" lon="1.9419984">
        <ele>177</ele>
        <time>2021-10-28T08:24:26Z</time>
      </trkpt>
      <trkpt lat="47.635506" lon="1.9420135">
        <ele>177</ele>
        <time>2021-10-28T08:24:27Z</time>
      </trkpt>
      <trkpt lat="47.63551" lon="1.9420288">
        <ele>177</ele>
        <time>2021-10-28T08:24:28Z</time>
      </trkpt>
      <trkpt lat="47.635513" lon="1.942044">
        <ele>176</ele>
        <time>2021-10-28T08:24:29Z</time>
      </trkpt>
      <trkpt lat="47.635517" lon="1.9420592">
        <ele>176</ele>
        <time>2021-10-28T08:24:30Z</time>
      </trkpt>
      <trkpt lat="47.63553" lon="1.9420747">
        <ele>176</ele>
        <time>2021-10-28T08:24:31Z</time>
      </trkpt>
      <trkpt lat="47.635536" lon="1.9420918">
        <ele>176</ele>
        <time>2021-10-28T08:24:32Z</time>
      </trkpt>
      <trkpt lat="47.635544" lon="1.9421004">
        <ele>176</ele>
        <time>2021-10-28T08:24:33Z</time>
      </trkpt>
      <trkpt lat="47.63555" lon="1.9421153">
        <ele>176</ele>
        <time>2021-10-28T08:24:34Z</time>
      </trkpt>
      <trkpt lat="47.635555" lon="1.9421265">
        <ele>175</ele>
        <time>2021-10-28T08:24:35Z</time>
      </trkpt>
      <trkpt lat="47.635563" lon="1.942137">
        <ele>176</ele>
        <time>2021-10-28T08:24:36Z</time>
      </trkpt>
      <trkpt lat="47.63557" lon="1.9421511">
        <ele>175</ele>
        <time>2021-10-28T08:24:37Z</time>
      </trkpt>
      <trkpt lat="47.63558" lon="1.9421698">
        <ele>175</ele>
        <time>2021-10-28T08:24:38Z</time>
      </trkpt>
      <trkpt lat="47.635586" lon="1.9421842">
        <ele>174</ele>
        <time>2021-10-28T08:24:39Z</time>
      </trkpt>
      <trkpt lat="47.635593" lon="1.9421966">
        <ele>174</ele>
        <time>2021-10-28T08:24:40Z</time>
      </trkpt>
      <trkpt lat="47.635597" lon="1.942213">
        <ele>174</ele>
        <time>2021-10-28T08:24:41Z</time>
      </trkpt>
      <trkpt lat="47.63561" lon="1.9422302">
        <ele>174</ele>
        <time>2021-10-28T08:24:42Z</time>
      </trkpt>
      <trkpt lat="47.635612" lon="1.9422357">
        <ele>175</ele>
        <time>2021-10-28T08:24:43Z</time>
      </trkpt>
      <trkpt lat="47.63562" lon="1.9422448">
        <ele>175</ele>
        <time>2021-10-28T08:24:44Z</time>
      </trkpt>
      <trkpt lat="47.635628" lon="1.9422578">
        <ele>175</ele>
        <time>2021-10-28T08:24:45Z</time>
      </trkpt>
      <trkpt lat="47.635643" lon="1.9422791">
        <ele>175</ele>
        <time>2021-10-28T08:24:46Z</time>
      </trkpt>
      <trkpt lat="47.63565" lon="1.9422946">
        <ele>175</ele>
        <time>2021-10-28T08:24:47Z</time>
      </trkpt>
      <trkpt lat="47.63566" lon="1.9423013">
        <ele>175</ele>
        <time>2021-10-28T08:24:48Z</time>
      </trkpt>
      <trkpt lat="47.63567" lon="1.9423137">
        <ele>175</ele>
        <time>2021-10-28T08:24:49Z</time>
      </trkpt>
      <trkpt lat="47.635674" lon="1.9423254">
        <ele>175</ele>
        <time>2021-10-28T08:24:50Z</time>
      </trkpt>
      <trkpt lat="47.63568" lon="1.9423379">
        <ele>175</ele>
        <time>2021-10-28T08:24:51Z</time>
      </trkpt>
      <trkpt lat="47.63569" lon="1.9423517">
        <ele>175</ele>
        <time>2021-10-28T08:24:52Z</time>
      </trkpt>
      <trkpt lat="47.635704" lon="1.9423707">
        <ele>175</ele>
        <time>2021-10-28T08:24:53Z</time>
      </trkpt>
      <trkpt lat="47.63571" lon="1.942386">
        <ele>174</ele>
        <time>2021-10-28T08:24:54Z</time>
      </trkpt>
      <trkpt lat="47.635715" lon="1.9424033">
        <ele>174</ele>
        <time>2021-10-28T08:24:55Z</time>
      </trkpt>
      <trkpt lat="47.635715" lon="1.942419">
        <ele>175</ele>
        <time>2021-10-28T08:24:56Z</time>
      </trkpt>
      <trkpt lat="47.63572" lon="1.9424297">
        <ele>175</ele>
        <time>2021-10-28T08:24:57Z</time>
      </trkpt>
      <trkpt lat="47.635723" lon="1.9424418">
        <ele>176</ele>
        <time>2021-10-28T08:24:58Z</time>
      </trkpt>
      <trkpt lat="47.63572" lon="1.942437">
        <ele>177</ele>
        <time>2021-10-28T08:24:59Z</time>
      </trkpt>
      <trkpt lat="47.63572" lon="1.942437">
        <ele>177</ele>
        <time>2021-10-28T08:24:59Z</time>
      </trkpt>
    </trkseg>
    <trkseg>
      <trkpt lat="47.63572" lon="1.942437">
        <ele>177</ele>
        <time>2021-10-28T08:24:59Z</time>
      </trkpt>
      <trkpt lat="47.635754" lon="1.9425035">
        <ele>176</ele>
        <time>2021-10-28T08:25:06Z</time>
      </trkpt>
      <trkpt lat="47.635754" lon="1.9425132">
        <ele>176</ele>
        <time>2021-10-28T08:25:07Z</time>
      </trkpt>
      <trkpt lat="47.635757" lon="1.9425274">
        <ele>176</ele>
        <time>2021-10-28T08:25:08Z</time>
      </trkpt>
      <trkpt lat="47.635765" lon="1.9425436">
        <ele>176</ele>
        <time>2021-10-28T08:25:09Z</time>
      </trkpt>
      <trkpt lat="47.63577" lon="1.9425673">
        <ele>176</ele>
        <time>2021-10-28T08:25:10Z</time>
      </trkpt>
      <trkpt lat="47.635773" lon="1.9425837">
        <ele>177</ele>
        <time>2021-10-28T08:25:11Z</time>
      </trkpt>
      <trkpt lat="47.63578" lon="1.9425992">
        <ele>178</ele>
        <time>2021-10-28T08:25:12Z</time>
      </trkpt>
      <trkpt lat="47.63578" lon="1.9426103">
        <ele>178</ele>
        <time>2021-10-28T08:25:13Z</time>
      </trkpt>
      <trkpt lat="47.635788" lon="1.942621">
        <ele>178</ele>
        <time>2021-10-28T08:25:14Z</time>
      </trkpt>
      <trkpt lat="47.63579" lon="1.942637">
        <ele>178</ele>
        <time>2021-10-28T08:25:15Z</time>
      </trkpt>
      <trkpt lat="47.635803" lon="1.9426521">
        <ele>178</ele>
        <time>2021-10-28T08:25:16Z</time>
      </trkpt>
      <trkpt lat="47.63581" lon="1.942668">
        <ele>178</ele>
        <time>2021-10-28T08:25:17Z</time>
      </trkpt>
      <trkpt lat="47.63582" lon="1.9426829">
        <ele>179</ele>
        <time>2021-10-28T08:25:18Z</time>
      </trkpt>
      <trkpt lat="47.635822" lon="1.9426966">
        <ele>178</ele>
        <time>2021-10-28T08:25:19Z</time>
      </trkpt>
      <trkpt lat="47.63583" lon="1.9427081">
        <ele>178</ele>
        <time>2021-10-28T08:25:20Z</time>
      </trkpt>
      <trkpt lat="47.635834" lon="1.9427176">
        <ele>178</ele>
        <time>2021-10-28T08:25:21Z</time>
      </trkpt>
      <trkpt lat="47.63584" lon="1.9427289">
        <ele>178</ele>
        <time>2021-10-28T08:25:22Z</time>
      </trkpt>
      <trkpt lat="47.63584" lon="1.9427412">
        <ele>178</ele>
        <time>2021-10-28T08:25:23Z</time>
      </trkpt>
      <trkpt lat="47.63584" lon="1.9427481">
        <ele>178</ele>
        <time>2021-10-28T08:25:24Z</time>
      </trkpt>
      <trkpt lat="47.63585" lon="1.9427378">
        <ele>178</ele>
        <time>2021-10-28T08:25:25Z</time>
      </trkpt>
      <trkpt lat="47.635864" lon="1.9427207">
        <ele>178</ele>
        <time>2021-10-28T08:25:26Z</time>
      </trkpt>
      <trkpt lat="47.63587" lon="1.9427055">
        <ele>177</ele>
        <time>2021-10-28T08:25:27Z</time>
      </trkpt>
      <trkpt lat="47.63587" lon="1.9427055">
        <ele>177</ele>
        <time>2021-10-28T08:25:28Z</time>
      </trkpt>
      <trkpt lat="47.63587" lon="1.9427055">
        <ele>177</ele>
        <time>2021-10-28T08:25:28Z</time>
      </trkpt>
    </trkseg>
    <trkseg>
      <trkpt lat="47.63587" lon="1.9427055">
        <ele>177</ele>
        <time>2021-10-28T08:25:28Z</time>
      </trkpt>
      <trkpt lat="47.63584" lon="1.9427688">
        <ele>175</ele>
        <time>2021-10-28T08:25:38Z</time>
      </trkpt>
      <trkpt lat="47.635834" lon="1.9427853">
        <ele>175</ele>
        <time>2021-10-28T08:25:39Z</time>
      </trkpt>
      <trkpt lat="47.635822" lon="1.9427938">
        <ele>175</ele>
        <time>2021-10-28T08:25:40Z</time>
      </trkpt>
      <trkpt lat="47.635815" lon="1.9428037">
        <ele>175</ele>
        <time>2021-10-28T08:25:41Z</time>
      </trkpt>
      <trkpt lat="47.635807" lon="1.9428144">
        <ele>174</ele>
        <time>2021-10-28T08:25:42Z</time>
      </trkpt>
      <trkpt lat="47.635796" lon="1.9428155">
        <ele>174</ele>
        <time>2021-10-28T08:25:43Z</time>
      </trkpt>
      <trkpt lat="47.635784" lon="1.9428173">
        <ele>173</ele>
        <time>2021-10-28T08:25:44Z</time>
      </trkpt>
      <trkpt lat="47.63578" lon="1.9428226">
        <ele>173</ele>
        <time>2021-10-28T08:25:45Z</time>
      </trkpt>
      <trkpt lat="47.63577" lon="1.9428283">
        <ele>173</ele>
        <time>2021-10-28T08:25:46Z</time>
      </trkpt>
      <trkpt lat="47.635757" lon="1.9428425">
        <ele>174</ele>
        <time>2021-10-28T08:25:47Z</time>
      </trkpt>
      <trkpt lat="47.635746" lon="1.9428606">
        <ele>173</ele>
        <time>2021-10-28T08:25:48Z</time>
      </trkpt>
      <trkpt lat="47.635735" lon="1.9428772">
        <ele>173</ele>
        <time>2021-10-28T08:25:49Z</time>
      </trkpt>
      <trkpt lat="47.635723" lon="1.9428862">
        <ele>172</ele>
        <time>2021-10-28T08:25:50Z</time>
      </trkpt>
      <trkpt lat="47.635715" lon="1.942892">
        <ele>172</ele>
        <time>2021-10-28T08:25:51Z</time>
      </trkpt>
      <trkpt lat="47.635704" lon="1.9428939">
        <ele>172</ele>
        <time>2021-10-28T08:25:52Z</time>
      </trkpt>
      <trkpt lat="47.635696" lon="1.9428988">
        <ele>172</ele>
        <time>2021-10-28T08:25:53Z</time>
      </trkpt>
      <trkpt lat="47.635685" lon="1.9429088">
        <ele>172</ele>
        <time>2021-10-28T08:25:54Z</time>
      </trkpt>
      <trkpt lat="47.635674" lon="1.942918">
        <ele>171</ele>
        <time>2021-10-28T08:25:55Z</time>
      </trkpt>
      <trkpt lat="47.635662" lon="1.9429282">
        <ele>171</ele>
        <time>2021-10-28T08:25:56Z</time>
      </trkpt>
      <trkpt lat="47.63565" lon="1.9429408">
        <ele>171</ele>
        <time>2021-10-28T08:25:57Z</time>
      </trkpt>
      <trkpt lat="47.63564" lon="1.9429444">
        <ele>171</ele>
        <time>2021-10-28T08:25:58Z</time>
      </trkpt>
      <trkpt lat="47.635624" lon="1.9429517">
        <ele>172</ele>
        <time>2021-10-28T08:25:59Z</time>
      </trkpt>
      <trkpt lat="47.635612" lon="1.942954">
        <ele>172</ele>
        <time>2021-10-28T08:26:00Z</time>
      </trkpt>
      <trkpt lat="47.63561" lon="1.9429616">
        <ele>172</ele>
        <time>2021-10-28T08:26:01Z</time>
      </trkpt>
      <trkpt lat="47.6356" lon="1.942965">
        <ele>172</ele>
        <time>2021-10-28T08:26:02Z</time>
      </trkpt>
      <trkpt lat="47.635593" lon="1.9429725">
        <ele>173</ele>
        <time>2021-10-28T08:26:03Z</time>
      </trkpt>
      <trkpt lat="47.635586" lon="1.9429793">
        <ele>173</ele>
        <time>2021-10-28T08:26:04Z</time>
      </trkpt>
      <trkpt lat="47.635574" lon="1.9429928">
        <ele>173</ele>
        <time>2021-10-28T08:26:05Z</time>
      </trkpt>
      <trkpt lat="47.635567" lon="1.9429985">
        <ele>173</ele>
        <time>2021-10-28T08:26:06Z</time>
      </trkpt>
      <trkpt lat="47.635555" lon="1.9430056">
        <ele>174</ele>
        <time>2021-10-28T08:26:07Z</time>
      </trkpt>
      <trkpt lat="47.635548" lon="1.9430088">
        <ele>174</ele>
        <time>2021-10-28T08:26:08Z</time>
      </trkpt>
      <trkpt lat="47.635548" lon="1.9430093">
        <ele>174</ele>
        <time>2021-10-28T08:26:09Z</time>
      </trkpt>
      <trkpt lat="47.635544" lon="1.9430109">
        <ele>175</ele>
        <time>2021-10-28T08:26:10Z</time>
      </trkpt>
      <trkpt lat="47.635536" lon="1.9430184">
        <ele>175</ele>
        <time>2021-10-28T08:26:11Z</time>
      </trkpt>
      <trkpt lat="47.635536" lon="1.9430184">
        <ele>175</ele>
        <time>2021-10-28T08:26:12Z</time>
      </trkpt>
      <trkpt lat="47.635536" lon="1.9430184">
        <ele>175</ele>
        <time>2021-10-28T08:26:13Z</time>
      </trkpt>
      <trkpt lat="47.635513" lon="1.9430243">
        <ele>176</ele>
        <time>2021-10-28T08:26:14Z</time>
      </trkpt>
      <trkpt lat="47.6355" lon="1.9430306">
        <ele>175</ele>
        <time>2021-10-28T08:26:15Z</time>
      </trkpt>
      <trkpt lat="47.635494" lon="1.943037">
        <ele>175</ele>
        <time>2021-10-28T08:26:16Z</time>
      </trkpt>
      <trkpt lat="47.635483" lon="1.943046">
        <ele>175</ele>
        <time>2021-10-28T08:26:17Z</time>
      </trkpt>
      <trkpt lat="47.635468" lon="1.94305">
        <ele>175</ele>
        <time>2021-10-28T08:26:18Z</time>
      </trkpt>
      <trkpt lat="47.635456" lon="1.9430513">
        <ele>175</ele>
        <time>2021-10-28T08:26:19Z</time>
      </trkpt>
      <trkpt lat="47.635445" lon="1.9430509">
        <ele>175</ele>
        <time>2021-10-28T08:26:20Z</time>
      </trkpt>
      <trkpt lat="47.635437" lon="1.9430541">
        <ele>175</ele>
        <time>2021-10-28T08:26:21Z</time>
      </trkpt>
      <trkpt lat="47.635426" lon="1.943059">
        <ele>175</ele>
        <time>2021-10-28T08:26:22Z</time>
      </trkpt>
      <trkpt lat="47.63542" lon="1.9430656">
        <ele>175</ele>
        <time>2021-10-28T08:26:23Z</time>
      </trkpt>
      <trkpt lat="47.635414" lon="1.9430715">
        <ele>175</ele>
        <time>2021-10-28T08:26:24Z</time>
      </trkpt>
      <trkpt lat="47.635403" lon="1.9430763">
        <ele>175</ele>
        <time>2021-10-28T08:26:25Z</time>
      </trkpt>
      <trkpt lat="47.63539" lon="1.9430841">
        <ele>175</ele>
        <time>2021-10-28T08:26:26Z</time>
      </trkpt>
      <trkpt lat="47.635384" lon="1.9430829">
        <ele>175</ele>
        <time>2021-10-28T08:26:27Z</time>
      </trkpt>
      <trkpt lat="47.635376" lon="1.9430847">
        <ele>175</ele>
        <time>2021-10-28T08:26:28Z</time>
      </trkpt>
      <trkpt lat="47.635365" lon="1.9430857">
        <ele>175</ele>
        <time>2021-10-28T08:26:29Z</time>
      </trkpt>
      <trkpt lat="47.635357" lon="1.9430898">
        <ele>175</ele>
        <time>2021-10-28T08:26:30Z</time>
      </trkpt>
      <trkpt lat="47.63534" lon="1.9430943">
        <ele>175</ele>
        <time>2021-10-28T08:26:31Z</time>
      </trkpt>
      <trkpt lat="47.635334" lon="1.9430985">
        <ele>175</ele>
        <time>2021-10-28T08:26:32Z</time>
      </trkpt>
      <trkpt lat="47.635326" lon="1.9431003">
        <ele>175</ele>
        <time>2021-10-28T08:26:33Z</time>
      </trkpt>
      <trkpt lat="47.63531" lon="1.9431093">
        <ele>175</ele>
        <time>2021-10-28T08:26:34Z</time>
      </trkpt>
      <trkpt lat="47.6353" lon="1.9431152">
        <ele>175</ele>
        <time>2021-10-28T08:26:35Z</time>
      </trkpt>
      <trkpt lat="47.635292" lon="1.9431206">
        <ele>174</ele>
        <time>2021-10-28T08:26:36Z</time>
      </trkpt>
      <trkpt lat="47.63528" lon="1.9431245">
        <ele>174</ele>
        <time>2021-10-28T08:26:37Z</time>
      </trkpt>
      <trkpt lat="47.63527" lon="1.94314">
        <ele>174</ele>
        <time>2021-10-28T08:26:38Z</time>
      </trkpt>
      <trkpt lat="47.63526" lon="1.9431576">
        <ele>174</ele>
        <time>2021-10-28T08:26:39Z</time>
      </trkpt>
      <trkpt lat="47.63525" lon="1.9431653">
        <ele>174</ele>
        <time>2021-10-28T08:26:40Z</time>
      </trkpt>
      <trkpt lat="47.635242" lon="1.9431721">
        <ele>174</ele>
        <time>2021-10-28T08:26:41Z</time>
      </trkpt>
      <trkpt lat="47.63523" lon="1.9431769">
        <ele>173</ele>
        <time>2021-10-28T08:26:42Z</time>
      </trkpt>
      <trkpt lat="47.635216" lon="1.9431858">
        <ele>173</ele>
        <time>2021-10-28T08:26:43Z</time>
      </trkpt>
      <trkpt lat="47.63521" lon="1.9431902">
        <ele>173</ele>
        <time>2021-10-28T08:26:44Z</time>
      </trkpt>
      <trkpt lat="47.635197" lon="1.9431916">
        <ele>173</ele>
        <time>2021-10-28T08:26:45Z</time>
      </trkpt>
      <trkpt lat="47.63519" lon="1.9431939">
        <ele>173</ele>
        <time>2021-10-28T08:26:46Z</time>
      </trkpt>
      <trkpt lat="47.635178" lon="1.9431986">
        <ele>173</ele>
        <time>2021-10-28T08:26:47Z</time>
      </trkpt>
      <trkpt lat="47.635166" lon="1.9432062">
        <ele>173</ele>
        <time>2021-10-28T08:26:48Z</time>
      </trkpt>
      <trkpt lat="47.635155" lon="1.9432104">
        <ele>173</ele>
        <time>2021-10-28T08:26:49Z</time>
      </trkpt>
      <trkpt lat="47.63515" lon="1.9432158">
        <ele>173</ele>
        <time>2021-10-28T08:26:50Z</time>
      </trkpt>
      <trkpt lat="47.635143" lon="1.943218">
        <ele>174</ele>
        <time>2021-10-28T08:26:51Z</time>
      </trkpt>
      <trkpt lat="47.635136" lon="1.943223">
        <ele>173</ele>
        <time>2021-10-28T08:26:52Z</time>
      </trkpt>
      <trkpt lat="47.635136" lon="1.943223">
        <ele>173</ele>
        <time>2021-10-28T08:26:53Z</time>
      </trkpt>
      <trkpt lat="47.635136" lon="1.943223">
        <ele>173</ele>
        <time>2021-10-28T08:26:54Z</time>
      </trkpt>
      <trkpt lat="47.635113" lon="1.9432315">
        <ele>174</ele>
        <time>2021-10-28T08:26:55Z</time>
      </trkpt>
      <trkpt lat="47.6351" lon="1.9432389">
        <ele>173</ele>
        <time>2021-10-28T08:26:56Z</time>
      </trkpt>
      <trkpt lat="47.635094" lon="1.9432507">
        <ele>173</ele>
        <time>2021-10-28T08:26:57Z</time>
      </trkpt>
      <trkpt lat="47.635082" lon="1.9432619">
        <ele>173</ele>
        <time>2021-10-28T08:26:58Z</time>
      </trkpt>
      <trkpt lat="47.635067" lon="1.9432753">
        <ele>173</ele>
        <time>2021-10-28T08:26:59Z</time>
      </trkpt>
      <trkpt lat="47.635048" lon="1.9432871">
        <ele>173</ele>
        <time>2021-10-28T08:27:00Z</time>
      </trkpt>
      <trkpt lat="47.635033" lon="1.9433004">
        <ele>173</ele>
        <time>2021-10-28T08:27:01Z</time>
      </trkpt>
      <trkpt lat="47.635017" lon="1.9433142">
        <ele>174</ele>
        <time>2021-10-28T08:27:02Z</time>
      </trkpt>
      <trkpt lat="47.635002" lon="1.9433297">
        <ele>174</ele>
        <time>2021-10-28T08:27:03Z</time>
      </trkpt>
      <trkpt lat="47.63499" lon="1.9433421">
        <ele>174</ele>
        <time>2021-10-28T08:27:04Z</time>
      </trkpt>
      <trkpt lat="47.63498" lon="1.9433495">
        <ele>174</ele>
        <time>2021-10-28T08:27:05Z</time>
      </trkpt>
      <trkpt lat="47.634968" lon="1.9433577">
        <ele>174</ele>
        <time>2021-10-28T08:27:06Z</time>
      </trkpt>
      <trkpt lat="47.63496" lon="1.9433609">
        <ele>174</ele>
        <time>2021-10-28T08:27:07Z</time>
      </trkpt>
      <trkpt lat="47.63495" lon="1.9433632">
        <ele>174</ele>
        <time>2021-10-28T08:27:08Z</time>
      </trkpt>
      <trkpt lat="47.634933" lon="1.9433672">
        <ele>174</ele>
        <time>2021-10-28T08:27:09Z</time>
      </trkpt>
      <trkpt lat="47.634926" lon="1.9433734">
        <ele>173</ele>
        <time>2021-10-28T08:27:10Z</time>
      </trkpt>
      <trkpt lat="47.634926" lon="1.9433734">
        <ele>173</ele>
        <time>2021-10-28T08:27:11Z</time>
      </trkpt>
      <trkpt lat="47.634926" lon="1.9433734">
        <ele>173</ele>
        <time>2021-10-28T08:27:12Z</time>
      </trkpt>
      <trkpt lat="47.634895" lon="1.9433949">
        <ele>172</ele>
        <time>2021-10-28T08:27:13Z</time>
      </trkpt>
      <trkpt lat="47.634884" lon="1.9434018">
        <ele>172</ele>
        <time>2021-10-28T08:27:14Z</time>
      </trkpt>
      <trkpt lat="47.634876" lon="1.9434148">
        <ele>172</ele>
        <time>2021-10-28T08:27:15Z</time>
      </trkpt>
      <trkpt lat="47.63487" lon="1.943427">
        <ele>172</ele>
        <time>2021-10-28T08:27:16Z</time>
      </trkpt>
      <trkpt lat="47.634857" lon="1.9434351">
        <ele>172</ele>
        <time>2021-10-28T08:27:17Z</time>
      </trkpt>
      <trkpt lat="47.634846" lon="1.9434437">
        <ele>171</ele>
        <time>2021-10-28T08:27:18Z</time>
      </trkpt>
      <trkpt lat="47.63484" lon="1.9434497">
        <ele>172</ele>
        <time>2021-10-28T08:27:19Z</time>
      </trkpt>
      <trkpt lat="47.634827" lon="1.9434583">
        <ele>171</ele>
        <time>2021-10-28T08:27:20Z</time>
      </trkpt>
      <trkpt lat="47.634815" lon="1.9434701">
        <ele>171</ele>
        <time>2021-10-28T08:27:21Z</time>
      </trkpt>
      <trkpt lat="47.634804" lon="1.9434799">
        <ele>171</ele>
        <time>2021-10-28T08:27:22Z</time>
      </trkpt>
      <trkpt lat="47.634792" lon="1.9434899">
        <ele>171</ele>
        <time>2021-10-28T08:27:23Z</time>
      </trkpt>
      <trkpt lat="47.63478" lon="1.9434991">
        <ele>171</ele>
        <time>2021-10-28T08:27:24Z</time>
      </trkpt>
      <trkpt lat="47.63477" lon="1.943505">
        <ele>170</ele>
        <time>2021-10-28T08:27:25Z</time>
      </trkpt>
      <trkpt lat="47.634758" lon="1.9435102">
        <ele>171</ele>
        <time>2021-10-28T08:27:26Z</time>
      </trkpt>
      <trkpt lat="47.634743" lon="1.9435178">
        <ele>171</ele>
        <time>2021-10-28T08:27:27Z</time>
      </trkpt>
      <trkpt lat="47.63473" lon="1.943524">
        <ele>171</ele>
        <time>2021-10-28T08:27:28Z</time>
      </trkpt>
      <trkpt lat="47.634716" lon="1.9435263">
        <ele>171</ele>
        <time>2021-10-28T08:27:29Z</time>
      </trkpt>
      <trkpt lat="47.634705" lon="1.9435254">
        <ele>171</ele>
        <time>2021-10-28T08:27:30Z</time>
      </trkpt>
      <trkpt lat="47.634693" lon="1.9435282">
        <ele>171</ele>
        <time>2021-10-28T08:27:31Z</time>
      </trkpt>
      <trkpt lat="47.634686" lon="1.9435327">
        <ele>171</ele>
        <time>2021-10-28T08:27:32Z</time>
      </trkpt>
      <trkpt lat="47.634686" lon="1.9435327">
        <ele>171</ele>
        <time>2021-10-28T08:27:33Z</time>
      </trkpt>
      <trkpt lat="47.634686" lon="1.9435327">
        <ele>171</ele>
        <time>2021-10-28T08:27:34Z</time>
      </trkpt>
      <trkpt lat="47.634666" lon="1.9435441">
        <ele>170</ele>
        <time>2021-10-28T08:27:35Z</time>
      </trkpt>
      <trkpt lat="47.63465" lon="1.9435517">
        <ele>169</ele>
        <time>2021-10-28T08:27:36Z</time>
      </trkpt>
      <trkpt lat="47.634644" lon="1.9435613">
        <ele>169</ele>
        <time>2021-10-28T08:27:37Z</time>
      </trkpt>
      <trkpt lat="47.63463" lon="1.9435717">
        <ele>169</ele>
        <time>2021-10-28T08:27:38Z</time>
      </trkpt>
      <trkpt lat="47.634617" lon="1.943583">
        <ele>169</ele>
        <time>2021-10-28T08:27:39Z</time>
      </trkpt>
      <trkpt lat="47.63461" lon="1.9435921">
        <ele>169</ele>
        <time>2021-10-28T08:27:40Z</time>
      </trkpt>
      <trkpt lat="47.634598" lon="1.9435977">
        <ele>169</ele>
        <time>2021-10-28T08:27:41Z</time>
      </trkpt>
      <trkpt lat="47.63459" lon="1.9436063">
        <ele>169</ele>
        <time>2021-10-28T08:27:42Z</time>
      </trkpt>
      <trkpt lat="47.63458" lon="1.943611">
        <ele>169</ele>
        <time>2021-10-28T08:27:43Z</time>
      </trkpt>
      <trkpt lat="47.634567" lon="1.9436177">
        <ele>170</ele>
        <time>2021-10-28T08:27:44Z</time>
      </trkpt>
      <trkpt lat="47.634552" lon="1.9436259">
        <ele>169</ele>
        <time>2021-10-28T08:27:45Z</time>
      </trkpt>
      <trkpt lat="47.63454" lon="1.9436345">
        <ele>169</ele>
        <time>2021-10-28T08:27:46Z</time>
      </trkpt>
      <trkpt lat="47.634525" lon="1.9436449">
        <ele>169</ele>
        <time>2021-10-28T08:27:47Z</time>
      </trkpt>
      <trkpt lat="47.63451" lon="1.9436506">
        <ele>169</ele>
        <time>2021-10-28T08:27:48Z</time>
      </trkpt>
      <trkpt lat="47.6345" lon="1.9436598">
        <ele>169</ele>
        <time>2021-10-28T08:27:49Z</time>
      </trkpt>
      <trkpt lat="47.634487" lon="1.9436632">
        <ele>169</ele>
        <time>2021-10-28T08:27:50Z</time>
      </trkpt>
      <trkpt lat="47.63447" lon="1.9436657">
        <ele>169</ele>
        <time>2021-10-28T08:27:51Z</time>
      </trkpt>
      <trkpt lat="47.63446" lon="1.9436703">
        <ele>169</ele>
        <time>2021-10-28T08:27:52Z</time>
      </trkpt>
      <trkpt lat="47.634445" lon="1.9436771">
        <ele>169</ele>
        <time>2021-10-28T08:27:53Z</time>
      </trkpt>
      <trkpt lat="47.634434" lon="1.9436834">
        <ele>169</ele>
        <time>2021-10-28T08:27:54Z</time>
      </trkpt>
      <trkpt lat="47.634422" lon="1.9436866">
        <ele>168</ele>
        <time>2021-10-28T08:27:55Z</time>
      </trkpt>
      <trkpt lat="47.63441" lon="1.9436871">
        <ele>169</ele>
        <time>2021-10-28T08:27:56Z</time>
      </trkpt>
      <trkpt lat="47.6344" lon="1.9436924">
        <ele>168</ele>
        <time>2021-10-28T08:27:57Z</time>
      </trkpt>
      <trkpt lat="47.634388" lon="1.9437016">
        <ele>168</ele>
        <time>2021-10-28T08:27:58Z</time>
      </trkpt>
      <trkpt lat="47.634377" lon="1.9437112">
        <ele>168</ele>
        <time>2021-10-28T08:27:59Z</time>
      </trkpt>
      <trkpt lat="47.634365" lon="1.9437146">
        <ele>168</ele>
        <time>2021-10-28T08:28:00Z</time>
      </trkpt>
      <trkpt lat="47.63436" lon="1.943721">
        <ele>168</ele>
        <time>2021-10-28T08:28:01Z</time>
      </trkpt>
      <trkpt lat="47.634354" lon="1.9437264">
        <ele>168</ele>
        <time>2021-10-28T08:28:02Z</time>
      </trkpt>
      <trkpt lat="47.634346" lon="1.9437335">
        <ele>168</ele>
        <time>2021-10-28T08:28:03Z</time>
      </trkpt>
      <trkpt lat="47.634335" lon="1.9437431">
        <ele>169</ele>
        <time>2021-10-28T08:28:04Z</time>
      </trkpt>
      <trkpt lat="47.634327" lon="1.9437526">
        <ele>169</ele>
        <time>2021-10-28T08:28:05Z</time>
      </trkpt>
      <trkpt lat="47.63432" lon="1.9437693">
        <ele>169</ele>
        <time>2021-10-28T08:28:06Z</time>
      </trkpt>
      <trkpt lat="47.63431" lon="1.9437813">
        <ele>169</ele>
        <time>2021-10-28T08:28:07Z</time>
      </trkpt>
      <trkpt lat="47.634304" lon="1.9437892">
        <ele>169</ele>
        <time>2021-10-28T08:28:08Z</time>
      </trkpt>
      <trkpt lat="47.6343" lon="1.9437938">
        <ele>169</ele>
        <time>2021-10-28T08:28:09Z</time>
      </trkpt>
      <trkpt lat="47.634293" lon="1.9437929">
        <ele>169</ele>
        <time>2021-10-28T08:28:10Z</time>
      </trkpt>
      <trkpt lat="47.634277" lon="1.9437953">
        <ele>169</ele>
        <time>2021-10-28T08:28:11Z</time>
      </trkpt>
      <trkpt lat="47.634266" lon="1.943799">
        <ele>170</ele>
        <time>2021-10-28T08:28:12Z</time>
      </trkpt>
      <trkpt lat="47.634254" lon="1.9437964">
        <ele>170</ele>
        <time>2021-10-28T08:28:13Z</time>
      </trkpt>
      <trkpt lat="47.63424" lon="1.9437984">
        <ele>170</ele>
        <time>2021-10-28T08:28:14Z</time>
      </trkpt>
      <trkpt lat="47.634228" lon="1.9438035">
        <ele>171</ele>
        <time>2021-10-28T08:28:15Z</time>
      </trkpt>
      <trkpt lat="47.634224" lon="1.9438086">
        <ele>171</ele>
        <time>2021-10-28T08:28:16Z</time>
      </trkpt>
      <trkpt lat="47.63421" lon="1.9438137">
        <ele>171</ele>
        <time>2021-10-28T08:28:17Z</time>
      </trkpt>
      <trkpt lat="47.634197" lon="1.9438199">
        <ele>171</ele>
        <time>2021-10-28T08:28:18Z</time>
      </trkpt>
      <trkpt lat="47.63419" lon="1.9438319">
        <ele>172</ele>
        <time>2021-10-28T08:28:19Z</time>
      </trkpt>
      <trkpt lat="47.634174" lon="1.9438419">
        <ele>171</ele>
        <time>2021-10-28T08:28:20Z</time>
      </trkpt>
      <trkpt lat="47.634163" lon="1.9438512">
        <ele>172</ele>
        <time>2021-10-28T08:28:21Z</time>
      </trkpt>
      <trkpt lat="47.63415" lon="1.943864">
        <ele>172</ele>
        <time>2021-10-28T08:28:22Z</time>
      </trkpt>
      <trkpt lat="47.63414" lon="1.9438736">
        <ele>172</ele>
        <time>2021-10-28T08:28:23Z</time>
      </trkpt>
      <trkpt lat="47.63413" lon="1.9438806">
        <ele>172</ele>
        <time>2021-10-28T08:28:24Z</time>
      </trkpt>
      <trkpt lat="47.634125" lon="1.9438816">
        <ele>171</ele>
        <time>2021-10-28T08:28:25Z</time>
      </trkpt>
      <trkpt lat="47.634117" lon="1.943887">
        <ele>171</ele>
        <time>2021-10-28T08:28:26Z</time>
      </trkpt>
      <trkpt lat="47.634106" lon="1.943895">
        <ele>171</ele>
        <time>2021-10-28T08:28:27Z</time>
      </trkpt>
      <trkpt lat="47.634098" lon="1.9439043">
        <ele>171</ele>
        <time>2021-10-28T08:28:28Z</time>
      </trkpt>
      <trkpt lat="47.634083" lon="1.9439154">
        <ele>171</ele>
        <time>2021-10-28T08:28:29Z</time>
      </trkpt>
      <trkpt lat="47.634068" lon="1.9439245">
        <ele>170</ele>
        <time>2021-10-28T08:28:30Z</time>
      </trkpt>
      <trkpt lat="47.634056" lon="1.9439307">
        <ele>170</ele>
        <time>2021-10-28T08:28:31Z</time>
      </trkpt>
      <trkpt lat="47.634045" lon="1.9439391">
        <ele>170</ele>
        <time>2021-10-28T08:28:32Z</time>
      </trkpt>
      <trkpt lat="47.634037" lon="1.943943">
        <ele>170</ele>
        <time>2021-10-28T08:28:33Z</time>
      </trkpt>
      <trkpt lat="47.634026" lon="1.9439476">
        <ele>170</ele>
        <time>2021-10-28T08:28:34Z</time>
      </trkpt>
      <trkpt lat="47.634014" lon="1.9439505">
        <ele>170</ele>
        <time>2021-10-28T08:28:35Z</time>
      </trkpt>
      <trkpt lat="47.634003" lon="1.9439554">
        <ele>170</ele>
        <time>2021-10-28T08:28:36Z</time>
      </trkpt>
      <trkpt lat="47.633995" lon="1.9439645">
        <ele>170</ele>
        <time>2021-10-28T08:28:37Z</time>
      </trkpt>
      <trkpt lat="47.63398" lon="1.9439726">
        <ele>169</ele>
        <time>2021-10-28T08:28:38Z</time>
      </trkpt>
      <trkpt lat="47.63397" lon="1.9439776">
        <ele>170</ele>
        <time>2021-10-28T08:28:39Z</time>
      </trkpt>
      <trkpt lat="47.633957" lon="1.9439825">
        <ele>170</ele>
        <time>2021-10-28T08:28:40Z</time>
      </trkpt>
      <trkpt lat="47.633945" lon="1.9439888">
        <ele>169</ele>
        <time>2021-10-28T08:28:41Z</time>
      </trkpt>
      <trkpt lat="47.633934" lon="1.9439899">
        <ele>169</ele>
        <time>2021-10-28T08:28:42Z</time>
      </trkpt>
      <trkpt lat="47.63392" lon="1.9439952">
        <ele>170</ele>
        <time>2021-10-28T08:28:43Z</time>
      </trkpt>
      <trkpt lat="47.633907" lon="1.9440029">
        <ele>170</ele>
        <time>2021-10-28T08:28:44Z</time>
      </trkpt>
      <trkpt lat="47.633904" lon="1.944018">
        <ele>169</ele>
        <time>2021-10-28T08:28:45Z</time>
      </trkpt>
      <trkpt lat="47.633896" lon="1.9440364">
        <ele>169</ele>
        <time>2021-10-28T08:28:46Z</time>
      </trkpt>
      <trkpt lat="47.63388" lon="1.9440427">
        <ele>169</ele>
        <time>2021-10-28T08:28:47Z</time>
      </trkpt>
      <trkpt lat="47.633873" lon="1.9440488">
        <ele>169</ele>
        <time>2021-10-28T08:28:48Z</time>
      </trkpt>
      <trkpt lat="47.633858" lon="1.9440548">
        <ele>169</ele>
        <time>2021-10-28T08:28:49Z</time>
      </trkpt>
      <trkpt lat="47.633854" lon="1.9440675">
        <ele>169</ele>
        <time>2021-10-28T08:28:50Z</time>
      </trkpt>
      <trkpt lat="47.633842" lon="1.9440811">
        <ele>169</ele>
        <time>2021-10-28T08:28:51Z</time>
      </trkpt>
      <trkpt lat="47.633835" lon="1.944087">
        <ele>168</ele>
        <time>2021-10-28T08:28:52Z</time>
      </trkpt>
      <trkpt lat="47.63382" lon="1.9440945">
        <ele>168</ele>
        <time>2021-10-28T08:28:53Z</time>
      </trkpt>
      <trkpt lat="47.633812" lon="1.9441004">
        <ele>168</ele>
        <time>2021-10-28T08:28:54Z</time>
      </trkpt>
      <trkpt lat="47.633797" lon="1.9441079">
        <ele>168</ele>
        <time>2021-10-28T08:28:55Z</time>
      </trkpt>
      <trkpt lat="47.633785" lon="1.9441134">
        <ele>169</ele>
        <time>2021-10-28T08:28:56Z</time>
      </trkpt>
      <trkpt lat="47.633778" lon="1.9441231">
        <ele>169</ele>
        <time>2021-10-28T08:28:57Z</time>
      </trkpt>
      <trkpt lat="47.63377" lon="1.9441293">
        <ele>168</ele>
        <time>2021-10-28T08:28:58Z</time>
      </trkpt>
      <trkpt lat="47.63376" lon="1.9441358">
        <ele>168</ele>
        <time>2021-10-28T08:28:59Z</time>
      </trkpt>
      <trkpt lat="47.63375" lon="1.9441392">
        <ele>168</ele>
        <time>2021-10-28T08:29:00Z</time>
      </trkpt>
      <trkpt lat="47.633743" lon="1.9441386">
        <ele>167</ele>
        <time>2021-10-28T08:29:01Z</time>
      </trkpt>
      <trkpt lat="47.63373" lon="1.944144">
        <ele>167</ele>
        <time>2021-10-28T08:29:02Z</time>
      </trkpt>
      <trkpt lat="47.63372" lon="1.9441509">
        <ele>166</ele>
        <time>2021-10-28T08:29:03Z</time>
      </trkpt>
      <trkpt lat="47.63371" lon="1.9441607">
        <ele>166</ele>
        <time>2021-10-28T08:29:04Z</time>
      </trkpt>
      <trkpt lat="47.633694" lon="1.9441721">
        <ele>166</ele>
        <time>2021-10-28T08:29:05Z</time>
      </trkpt>
      <trkpt lat="47.633682" lon="1.9441813">
        <ele>165</ele>
        <time>2021-10-28T08:29:06Z</time>
      </trkpt>
      <trkpt lat="47.63367" lon="1.9441915">
        <ele>165</ele>
        <time>2021-10-28T08:29:07Z</time>
      </trkpt>
      <trkpt lat="47.633667" lon="1.9441993">
        <ele>165</ele>
        <time>2021-10-28T08:29:08Z</time>
      </trkpt>
      <trkpt lat="47.63366" lon="1.9442072">
        <ele>164</ele>
        <time>2021-10-28T08:29:09Z</time>
      </trkpt>
      <trkpt lat="47.63366" lon="1.9442072">
        <ele>164</ele>
        <time>2021-10-28T08:29:10Z</time>
      </trkpt>
      <trkpt lat="47.63366" lon="1.9442072">
        <ele>164</ele>
        <time>2021-10-28T08:29:11Z</time>
      </trkpt>
      <trkpt lat="47.633633" lon="1.944227">
        <ele>163</ele>
        <time>2021-10-28T08:29:12Z</time>
      </trkpt>
      <trkpt lat="47.63362" lon="1.9442377">
        <ele>163</ele>
        <time>2021-10-28T08:29:13Z</time>
      </trkpt>
      <trkpt lat="47.63361" lon="1.9442451">
        <ele>162</ele>
        <time>2021-10-28T08:29:14Z</time>
      </trkpt>
      <trkpt lat="47.633595" lon="1.944256">
        <ele>162</ele>
        <time>2021-10-28T08:29:15Z</time>
      </trkpt>
      <trkpt lat="47.633583" lon="1.9442647">
        <ele>162</ele>
        <time>2021-10-28T08:29:16Z</time>
      </trkpt>
      <trkpt lat="47.633568" lon="1.9442714">
        <ele>162</ele>
        <time>2021-10-28T08:29:17Z</time>
      </trkpt>
      <trkpt lat="47.633556" lon="1.9442779">
        <ele>161</ele>
        <time>2021-10-28T08:29:18Z</time>
      </trkpt>
      <trkpt lat="47.63354" lon="1.9442888">
        <ele>161</ele>
        <time>2021-10-28T08:29:19Z</time>
      </trkpt>
      <trkpt lat="47.63353" lon="1.9442966">
        <ele>161</ele>
        <time>2021-10-28T08:29:20Z</time>
      </trkpt>
      <trkpt lat="47.633514" lon="1.944304">
        <ele>160</ele>
        <time>2021-10-28T08:29:21Z</time>
      </trkpt>
      <trkpt lat="47.6335" lon="1.9443154">
        <ele>160</ele>
        <time>2021-10-28T08:29:22Z</time>
      </trkpt>
      <trkpt lat="47.633484" lon="1.9443235">
        <ele>160</ele>
        <time>2021-10-28T08:29:23Z</time>
      </trkpt>
      <trkpt lat="47.63347" lon="1.9443287">
        <ele>160</ele>
        <time>2021-10-28T08:29:24Z</time>
      </trkpt>
      <trkpt lat="47.633457" lon="1.9443352">
        <ele>159</ele>
        <time>2021-10-28T08:29:25Z</time>
      </trkpt>
      <trkpt lat="47.63345" lon="1.9443402">
        <ele>160</ele>
        <time>2021-10-28T08:29:26Z</time>
      </trkpt>
      <trkpt lat="47.633442" lon="1.944349">
        <ele>159</ele>
        <time>2021-10-28T08:29:27Z</time>
      </trkpt>
      <trkpt lat="47.63343" lon="1.9443586">
        <ele>159</ele>
        <time>2021-10-28T08:29:28Z</time>
      </trkpt>
      <trkpt lat="47.633423" lon="1.9443702">
        <ele>159</ele>
        <time>2021-10-28T08:29:29Z</time>
      </trkpt>
      <trkpt lat="47.63341" lon="1.9443794">
        <ele>159</ele>
        <time>2021-10-28T08:29:30Z</time>
      </trkpt>
      <trkpt lat="47.633404" lon="1.944389">
        <ele>158</ele>
        <time>2021-10-28T08:29:31Z</time>
      </trkpt>
      <trkpt lat="47.63339" lon="1.9443979">
        <ele>158</ele>
        <time>2021-10-28T08:29:32Z</time>
      </trkpt>
      <trkpt lat="47.63338" lon="1.9444078">
        <ele>158</ele>
        <time>2021-10-28T08:29:33Z</time>
      </trkpt>
      <trkpt lat="47.63337" lon="1.9444197">
        <ele>158</ele>
        <time>2021-10-28T08:29:34Z</time>
      </trkpt>
      <trkpt lat="47.633358" lon="1.9444273">
        <ele>158</ele>
        <time>2021-10-28T08:29:35Z</time>
      </trkpt>
      <trkpt lat="47.633347" lon="1.944433">
        <ele>158</ele>
        <time>2021-10-28T08:29:36Z</time>
      </trkpt>
      <trkpt lat="47.633335" lon="1.9444382">
        <ele>158</ele>
        <time>2021-10-28T08:29:37Z</time>
      </trkpt>
      <trkpt lat="47.633324" lon="1.9444437">
        <ele>158</ele>
        <time>2021-10-28T08:29:38Z</time>
      </trkpt>
      <trkpt lat="47.633316" lon="1.94445">
        <ele>158</ele>
        <time>2021-10-28T08:29:39Z</time>
      </trkpt>
      <trkpt lat="47.633305" lon="1.944457">
        <ele>158</ele>
        <time>2021-10-28T08:29:40Z</time>
      </trkpt>
      <trkpt lat="47.633293" lon="1.9444597">
        <ele>158</ele>
        <time>2021-10-28T08:29:41Z</time>
      </trkpt>
      <trkpt lat="47.633286" lon="1.9444685">
        <ele>157</ele>
        <time>2021-10-28T08:29:42Z</time>
      </trkpt>
      <trkpt lat="47.633274" lon="1.9444795">
        <ele>157</ele>
        <time>2021-10-28T08:29:43Z</time>
      </trkpt>
      <trkpt lat="47.633263" lon="1.9444878">
        <ele>157</ele>
        <time>2021-10-28T08:29:44Z</time>
      </trkpt>
      <trkpt lat="47.63325" lon="1.9444906">
        <ele>157</ele>
        <time>2021-10-28T08:29:45Z</time>
      </trkpt>
      <trkpt lat="47.633244" lon="1.9444977">
        <ele>157</ele>
        <time>2021-10-28T08:29:46Z</time>
      </trkpt>
      <trkpt lat="47.63323" lon="1.9445057">
        <ele>157</ele>
        <time>2021-10-28T08:29:47Z</time>
      </trkpt>
      <trkpt lat="47.63322" lon="1.9445136">
        <ele>157</ele>
        <time>2021-10-28T08:29:48Z</time>
      </trkpt>
      <trkpt lat="47.63321" lon="1.9445204">
        <ele>157</ele>
        <time>2021-10-28T08:29:49Z</time>
      </trkpt>
      <trkpt lat="47.633198" lon="1.9445269">
        <ele>157</ele>
        <time>2021-10-28T08:29:50Z</time>
      </trkpt>
      <trkpt lat="47.633183" lon="1.9445331">
        <ele>157</ele>
        <time>2021-10-28T08:29:51Z</time>
      </trkpt>
      <trkpt lat="47.63317" lon="1.9445403">
        <ele>157</ele>
        <time>2021-10-28T08:29:52Z</time>
      </trkpt>
      <trkpt lat="47.63316" lon="1.9445505">
        <ele>157</ele>
        <time>2021-10-28T08:29:53Z</time>
      </trkpt>
      <trkpt lat="47.633144" lon="1.9445627">
        <ele>157</ele>
        <time>2021-10-28T08:29:54Z</time>
      </trkpt>
      <trkpt lat="47.633137" lon="1.9445742">
        <ele>157</ele>
        <time>2021-10-28T08:29:55Z</time>
      </trkpt>
      <trkpt lat="47.633125" lon="1.9445843">
        <ele>157</ele>
        <time>2021-10-28T08:29:56Z</time>
      </trkpt>
      <trkpt lat="47.633114" lon="1.944591">
        <ele>157</ele>
        <time>2021-10-28T08:29:57Z</time>
      </trkpt>
      <trkpt lat="47.633102" lon="1.9445952">
        <ele>157</ele>
        <time>2021-10-28T08:29:58Z</time>
      </trkpt>
      <trkpt lat="47.633095" lon="1.9446009">
        <ele>158</ele>
        <time>2021-10-28T08:29:59Z</time>
      </trkpt>
      <trkpt lat="47.633083" lon="1.9446107">
        <ele>157</ele>
        <time>2021-10-28T08:30:00Z</time>
      </trkpt>
      <trkpt lat="47.633068" lon="1.9446198">
        <ele>158</ele>
        <time>2021-10-28T08:30:01Z</time>
      </trkpt>
      <trkpt lat="47.63306" lon="1.9446282">
        <ele>158</ele>
        <time>2021-10-28T08:30:02Z</time>
      </trkpt>
      <trkpt lat="47.633045" lon="1.944634">
        <ele>158</ele>
        <time>2021-10-28T08:30:03Z</time>
      </trkpt>
      <trkpt lat="47.633038" lon="1.9446384">
        <ele>158</ele>
        <time>2021-10-28T08:30:04Z</time>
      </trkpt>
      <trkpt lat="47.633026" lon="1.9446418">
        <ele>158</ele>
        <time>2021-10-28T08:30:05Z</time>
      </trkpt>
      <trkpt lat="47.633015" lon="1.9446447">
        <ele>158</ele>
        <time>2021-10-28T08:30:06Z</time>
      </trkpt>
      <trkpt lat="47.633003" lon="1.9446503">
        <ele>157</ele>
        <time>2021-10-28T08:30:07Z</time>
      </trkpt>
      <trkpt lat="47.63299" lon="1.9446561">
        <ele>157</ele>
        <time>2021-10-28T08:30:08Z</time>
      </trkpt>
      <trkpt lat="47.63298" lon="1.9446658">
        <ele>158</ele>
        <time>2021-10-28T08:30:09Z</time>
      </trkpt>
      <trkpt lat="47.632965" lon="1.9446726">
        <ele>158</ele>
        <time>2021-10-28T08:30:10Z</time>
      </trkpt>
      <trkpt lat="47.63296" lon="1.9446763">
        <ele>157</ele>
        <time>2021-10-28T08:30:11Z</time>
      </trkpt>
      <trkpt lat="47.632957" lon="1.9446844">
        <ele>158</ele>
        <time>2021-10-28T08:30:12Z</time>
      </trkpt>
      <trkpt lat="47.63296" lon="1.9446853">
        <ele>157</ele>
        <time>2021-10-28T08:30:13Z</time>
      </trkpt>
      <trkpt lat="47.63296" lon="1.9446852">
        <ele>157</ele>
        <time>2021-10-28T08:30:14Z</time>
      </trkpt>
      <trkpt lat="47.63296" lon="1.9446852">
        <ele>157</ele>
        <time>2021-10-28T08:30:15Z</time>
      </trkpt>
      <trkpt lat="47.63296" lon="1.9446852">
        <ele>157</ele>
        <time>2021-10-28T08:30:16Z</time>
      </trkpt>
      <trkpt lat="47.63295" lon="1.9446883">
        <ele>158</ele>
        <time>2021-10-28T08:30:17Z</time>
      </trkpt>
      <trkpt lat="47.63294" lon="1.9446881">
        <ele>158</ele>
        <time>2021-10-28T08:30:18Z</time>
      </trkpt>
      <trkpt lat="47.632927" lon="1.9446958">
        <ele>158</ele>
        <time>2021-10-28T08:30:19Z</time>
      </trkpt>
      <trkpt lat="47.632915" lon="1.9447042">
        <ele>157</ele>
        <time>2021-10-28T08:30:20Z</time>
      </trkpt>
      <trkpt lat="47.632904" lon="1.944712">
        <ele>157</ele>
        <time>2021-10-28T08:30:21Z</time>
      </trkpt>
      <trkpt lat="47.632896" lon="1.9447204">
        <ele>157</ele>
        <time>2021-10-28T08:30:22Z</time>
      </trkpt>
      <trkpt lat="47.63289" lon="1.9447272">
        <ele>157</ele>
        <time>2021-10-28T08:30:23Z</time>
      </trkpt>
      <trkpt lat="47.632877" lon="1.9447298">
        <ele>157</ele>
        <time>2021-10-28T08:30:24Z</time>
      </trkpt>
      <trkpt lat="47.632862" lon="1.9447358">
        <ele>157</ele>
        <time>2021-10-28T08:30:25Z</time>
      </trkpt>
      <trkpt lat="47.63285" lon="1.9447454">
        <ele>157</ele>
        <time>2021-10-28T08:30:26Z</time>
      </trkpt>
      <trkpt lat="47.632835" lon="1.9447541">
        <ele>156</ele>
        <time>2021-10-28T08:30:27Z</time>
      </trkpt>
      <trkpt lat="47.632824" lon="1.9447607">
        <ele>157</ele>
        <time>2021-10-28T08:30:28Z</time>
      </trkpt>
      <trkpt lat="47.632812" lon="1.9447713">
        <ele>157</ele>
        <time>2021-10-28T08:30:29Z</time>
      </trkpt>
      <trkpt lat="47.6328" lon="1.9447834">
        <ele>157</ele>
        <time>2021-10-28T08:30:30Z</time>
      </trkpt>
      <trkpt lat="47.632793" lon="1.9447953">
        <ele>157</ele>
        <time>2021-10-28T08:30:31Z</time>
      </trkpt>
      <trkpt lat="47.632782" lon="1.9448059">
        <ele>157</ele>
        <time>2021-10-28T08:30:32Z</time>
      </trkpt>
      <trkpt lat="47.63277" lon="1.9448128">
        <ele>157</ele>
        <time>2021-10-28T08:30:33Z</time>
      </trkpt>
      <trkpt lat="47.63276" lon="1.944821">
        <ele>157</ele>
        <time>2021-10-28T08:30:34Z</time>
      </trkpt>
      <trkpt lat="47.632744" lon="1.9448297">
        <ele>157</ele>
        <time>2021-10-28T08:30:35Z</time>
      </trkpt>
      <trkpt lat="47.632732" lon="1.9448363">
        <ele>157</ele>
        <time>2021-10-28T08:30:36Z</time>
      </trkpt>
      <trkpt lat="47.63272" lon="1.9448426">
        <ele>157</ele>
        <time>2021-10-28T08:30:37Z</time>
      </trkpt>
      <trkpt lat="47.632713" lon="1.9448465">
        <ele>158</ele>
        <time>2021-10-28T08:30:38Z</time>
      </trkpt>
      <trkpt lat="47.632706" lon="1.9448493">
        <ele>158</ele>
        <time>2021-10-28T08:30:39Z</time>
      </trkpt>
      <trkpt lat="47.632694" lon="1.9448508">
        <ele>158</ele>
        <time>2021-10-28T08:30:40Z</time>
      </trkpt>
      <trkpt lat="47.632683" lon="1.9448562">
        <ele>158</ele>
        <time>2021-10-28T08:30:41Z</time>
      </trkpt>
      <trkpt lat="47.632675" lon="1.9448626">
        <ele>157</ele>
        <time>2021-10-28T08:30:42Z</time>
      </trkpt>
      <trkpt lat="47.632664" lon="1.9448699">
        <ele>157</ele>
        <time>2021-10-28T08:30:43Z</time>
      </trkpt>
      <trkpt lat="47.632652" lon="1.9448786">
        <ele>157</ele>
        <time>2021-10-28T08:30:44Z</time>
      </trkpt>
      <trkpt lat="47.63264" lon="1.9448878">
        <ele>157</ele>
        <time>2021-10-28T08:30:45Z</time>
      </trkpt>
      <trkpt lat="47.63263" lon="1.9448962">
        <ele>157</ele>
        <time>2021-10-28T08:30:46Z</time>
      </trkpt>
      <trkpt lat="47.632618" lon="1.9449061">
        <ele>157</ele>
        <time>2021-10-28T08:30:47Z</time>
      </trkpt>
      <trkpt lat="47.632607" lon="1.9449148">
        <ele>157</ele>
        <time>2021-10-28T08:30:48Z</time>
      </trkpt>
      <trkpt lat="47.632595" lon="1.944925">
        <ele>156</ele>
        <time>2021-10-28T08:30:49Z</time>
      </trkpt>
      <trkpt lat="47.632584" lon="1.944931">
        <ele>156</ele>
        <time>2021-10-28T08:30:50Z</time>
      </trkpt>
      <trkpt lat="47.632572" lon="1.9449401">
        <ele>156</ele>
        <time>2021-10-28T08:30:51Z</time>
      </trkpt>
      <trkpt lat="47.63256" lon="1.9449534">
        <ele>156</ele>
        <time>2021-10-28T08:30:52Z</time>
      </trkpt>
      <trkpt lat="47.63255" lon="1.9449656">
        <ele>155</ele>
        <time>2021-10-28T08:30:53Z</time>
      </trkpt>
      <trkpt lat="47.632538" lon="1.9449737">
        <ele>155</ele>
        <time>2021-10-28T08:30:54Z</time>
      </trkpt>
      <trkpt lat="47.632526" lon="1.9449828">
        <ele>155</ele>
        <time>2021-10-28T08:30:55Z</time>
      </trkpt>
      <trkpt lat="47.63251" lon="1.9449903">
        <ele>155</ele>
        <time>2021-10-28T08:30:56Z</time>
      </trkpt>
      <trkpt lat="47.6325" lon="1.9449975">
        <ele>155</ele>
        <time>2021-10-28T08:30:57Z</time>
      </trkpt>
      <trkpt lat="47.63249" lon="1.9450039">
        <ele>155</ele>
        <time>2021-10-28T08:30:58Z</time>
      </trkpt>
      <trkpt lat="47.632477" lon="1.9450151">
        <ele>155</ele>
        <time>2021-10-28T08:30:59Z</time>
      </trkpt>
      <trkpt lat="47.632465" lon="1.945023">
        <ele>155</ele>
        <time>2021-10-28T08:31:00Z</time>
      </trkpt>
      <trkpt lat="47.632454" lon="1.9450296">
        <ele>155</ele>
        <time>2021-10-28T08:31:01Z</time>
      </trkpt>
      <trkpt lat="47.632446" lon="1.9450347">
        <ele>155</ele>
        <time>2021-10-28T08:31:02Z</time>
      </trkpt>
      <trkpt lat="47.632435" lon="1.9450401">
        <ele>154</ele>
        <time>2021-10-28T08:31:03Z</time>
      </trkpt>
      <trkpt lat="47.63242" lon="1.9450467">
        <ele>154</ele>
        <time>2021-10-28T08:31:04Z</time>
      </trkpt>
      <trkpt lat="47.63241" lon="1.9450543">
        <ele>154</ele>
        <time>2021-10-28T08:31:05Z</time>
      </trkpt>
      <trkpt lat="47.632397" lon="1.9450644">
        <ele>154</ele>
        <time>2021-10-28T08:31:06Z</time>
      </trkpt>
      <trkpt lat="47.632385" lon="1.945074">
        <ele>154</ele>
        <time>2021-10-28T08:31:07Z</time>
      </trkpt>
      <trkpt lat="47.63237" lon="1.9450841">
        <ele>153</ele>
        <time>2021-10-28T08:31:08Z</time>
      </trkpt>
      <trkpt lat="47.632355" lon="1.9450929">
        <ele>153</ele>
        <time>2021-10-28T08:31:09Z</time>
      </trkpt>
      <trkpt lat="47.632343" lon="1.9451022">
        <ele>153</ele>
        <time>2021-10-28T08:31:10Z</time>
      </trkpt>
      <trkpt lat="47.632328" lon="1.9451069">
        <ele>153</ele>
        <time>2021-10-28T08:31:11Z</time>
      </trkpt>
      <trkpt lat="47.632317" lon="1.9451151">
        <ele>153</ele>
        <time>2021-10-28T08:31:12Z</time>
      </trkpt>
      <trkpt lat="47.632305" lon="1.9451212">
        <ele>153</ele>
        <time>2021-10-28T08:31:13Z</time>
      </trkpt>
      <trkpt lat="47.632294" lon="1.9451249">
        <ele>153</ele>
        <time>2021-10-28T08:31:14Z</time>
      </trkpt>
      <trkpt lat="47.632282" lon="1.9451302">
        <ele>153</ele>
        <time>2021-10-28T08:31:15Z</time>
      </trkpt>
      <trkpt lat="47.63227" lon="1.9451356">
        <ele>153</ele>
        <time>2021-10-28T08:31:16Z</time>
      </trkpt>
      <trkpt lat="47.63226" lon="1.9451436">
        <ele>153</ele>
        <time>2021-10-28T08:31:17Z</time>
      </trkpt>
      <trkpt lat="47.632244" lon="1.9451478">
        <ele>153</ele>
        <time>2021-10-28T08:31:18Z</time>
      </trkpt>
      <trkpt lat="47.632236" lon="1.9451493">
        <ele>152</ele>
        <time>2021-10-28T08:31:19Z</time>
      </trkpt>
      <trkpt lat="47.632225" lon="1.9451555">
        <ele>152</ele>
        <time>2021-10-28T08:31:20Z</time>
      </trkpt>
      <trkpt lat="47.632214" lon="1.9451594">
        <ele>152</ele>
        <time>2021-10-28T08:31:21Z</time>
      </trkpt>
      <trkpt lat="47.632202" lon="1.9451635">
        <ele>152</ele>
        <time>2021-10-28T08:31:22Z</time>
      </trkpt>
      <trkpt lat="47.632195" lon="1.9451733">
        <ele>152</ele>
        <time>2021-10-28T08:31:23Z</time>
      </trkpt>
      <trkpt lat="47.632187" lon="1.9451822">
        <ele>151</ele>
        <time>2021-10-28T08:31:24Z</time>
      </trkpt>
      <trkpt lat="47.632175" lon="1.9451942">
        <ele>151</ele>
        <time>2021-10-28T08:31:25Z</time>
      </trkpt>
      <trkpt lat="47.632164" lon="1.9452031">
        <ele>151</ele>
        <time>2021-10-28T08:31:26Z</time>
      </trkpt>
      <trkpt lat="47.632153" lon="1.9452133">
        <ele>151</ele>
        <time>2021-10-28T08:31:27Z</time>
      </trkpt>
      <trkpt lat="47.63214" lon="1.9452223">
        <ele>151</ele>
        <time>2021-10-28T08:31:28Z</time>
      </trkpt>
      <trkpt lat="47.63213" lon="1.9452306">
        <ele>151</ele>
        <time>2021-10-28T08:31:29Z</time>
      </trkpt>
      <trkpt lat="47.63212" lon="1.9452376">
        <ele>151</ele>
        <time>2021-10-28T08:31:30Z</time>
      </trkpt>
      <trkpt lat="47.632107" lon="1.9452425">
        <ele>150</ele>
        <time>2021-10-28T08:31:31Z</time>
      </trkpt>
      <trkpt lat="47.632095" lon="1.945244">
        <ele>150</ele>
        <time>2021-10-28T08:31:32Z</time>
      </trkpt>
      <trkpt lat="47.632088" lon="1.9452528">
        <ele>150</ele>
        <time>2021-10-28T08:31:33Z</time>
      </trkpt>
      <trkpt lat="47.632076" lon="1.9452639">
        <ele>151</ele>
        <time>2021-10-28T08:31:34Z</time>
      </trkpt>
      <trkpt lat="47.63206" lon="1.9452757">
        <ele>151</ele>
        <time>2021-10-28T08:31:35Z</time>
      </trkpt>
      <trkpt lat="47.63205" lon="1.9452846">
        <ele>151</ele>
        <time>2021-10-28T08:31:36Z</time>
      </trkpt>
      <trkpt lat="47.63204" lon="1.9452926">
        <ele>152</ele>
        <time>2021-10-28T08:31:37Z</time>
      </trkpt>
      <trkpt lat="47.632027" lon="1.945299">
        <ele>152</ele>
        <time>2021-10-28T08:31:38Z</time>
      </trkpt>
      <trkpt lat="47.632015" lon="1.9453055">
        <ele>152</ele>
        <time>2021-10-28T08:31:39Z</time>
      </trkpt>
      <trkpt lat="47.632" lon="1.9453135">
        <ele>152</ele>
        <time>2021-10-28T08:31:40Z</time>
      </trkpt>
      <trkpt lat="47.631992" lon="1.9453218">
        <ele>152</ele>
        <time>2021-10-28T08:31:41Z</time>
      </trkpt>
      <trkpt lat="47.63198" lon="1.9453273">
        <ele>152</ele>
        <time>2021-10-28T08:31:42Z</time>
      </trkpt>
      <trkpt lat="47.63197" lon="1.9453331">
        <ele>152</ele>
        <time>2021-10-28T08:31:43Z</time>
      </trkpt>
      <trkpt lat="47.631958" lon="1.9453394">
        <ele>152</ele>
        <time>2021-10-28T08:31:44Z</time>
      </trkpt>
      <trkpt lat="47.63195" lon="1.945345">
        <ele>153</ele>
        <time>2021-10-28T08:31:45Z</time>
      </trkpt>
      <trkpt lat="47.63194" lon="1.9453503">
        <ele>153</ele>
        <time>2021-10-28T08:31:46Z</time>
      </trkpt>
      <trkpt lat="47.63193" lon="1.9453561">
        <ele>153</ele>
        <time>2021-10-28T08:31:47Z</time>
      </trkpt>
      <trkpt lat="47.63192" lon="1.9453628">
        <ele>153</ele>
        <time>2021-10-28T08:31:48Z</time>
      </trkpt>
      <trkpt lat="47.63191" lon="1.94537">
        <ele>153</ele>
        <time>2021-10-28T08:31:49Z</time>
      </trkpt>
      <trkpt lat="47.631893" lon="1.9453768">
        <ele>152</ele>
        <time>2021-10-28T08:31:50Z</time>
      </trkpt>
      <trkpt lat="47.63188" lon="1.9453855">
        <ele>152</ele>
        <time>2021-10-28T08:31:51Z</time>
      </trkpt>
      <trkpt lat="47.63187" lon="1.9453913">
        <ele>152</ele>
        <time>2021-10-28T08:31:52Z</time>
      </trkpt>
      <trkpt lat="47.631855" lon="1.9453981">
        <ele>151</ele>
        <time>2021-10-28T08:31:53Z</time>
      </trkpt>
      <trkpt lat="47.63184" lon="1.9454055">
        <ele>151</ele>
        <time>2021-10-28T08:31:54Z</time>
      </trkpt>
      <trkpt lat="47.63183" lon="1.9454126">
        <ele>151</ele>
        <time>2021-10-28T08:31:55Z</time>
      </trkpt>
      <trkpt lat="47.631817" lon="1.9454213">
        <ele>151</ele>
        <time>2021-10-28T08:31:56Z</time>
      </trkpt>
      <trkpt lat="47.631805" lon="1.9454315">
        <ele>151</ele>
        <time>2021-10-28T08:31:57Z</time>
      </trkpt>
      <trkpt lat="47.631794" lon="1.9454402">
        <ele>151</ele>
        <time>2021-10-28T08:31:58Z</time>
      </trkpt>
      <trkpt lat="47.631783" lon="1.9454454">
        <ele>151</ele>
        <time>2021-10-28T08:31:59Z</time>
      </trkpt>
      <trkpt lat="47.63177" lon="1.9454508">
        <ele>151</ele>
        <time>2021-10-28T08:32:00Z</time>
      </trkpt>
      <trkpt lat="47.631763" lon="1.9454561">
        <ele>151</ele>
        <time>2021-10-28T08:32:01Z</time>
      </trkpt>
      <trkpt lat="47.631752" lon="1.9454633">
        <ele>151</ele>
        <time>2021-10-28T08:32:02Z</time>
      </trkpt>
      <trkpt lat="47.63174" lon="1.945468">
        <ele>151</ele>
        <time>2021-10-28T08:32:03Z</time>
      </trkpt>
      <trkpt lat="47.631725" lon="1.945473">
        <ele>152</ele>
        <time>2021-10-28T08:32:04Z</time>
      </trkpt>
      <trkpt lat="47.631714" lon="1.9454815">
        <ele>152</ele>
        <time>2021-10-28T08:32:05Z</time>
      </trkpt>
      <trkpt lat="47.631702" lon="1.94549">
        <ele>152</ele>
        <time>2021-10-28T08:32:06Z</time>
      </trkpt>
      <trkpt lat="47.63169" lon="1.945499">
        <ele>152</ele>
        <time>2021-10-28T08:32:07Z</time>
      </trkpt>
      <trkpt lat="47.631683" lon="1.9455078">
        <ele>152</ele>
        <time>2021-10-28T08:32:08Z</time>
      </trkpt>
      <trkpt lat="47.63167" lon="1.9455134">
        <ele>152</ele>
        <time>2021-10-28T08:32:09Z</time>
      </trkpt>
      <trkpt lat="47.63166" lon="1.9455221">
        <ele>152</ele>
        <time>2021-10-28T08:32:10Z</time>
      </trkpt>
      <trkpt lat="47.63165" lon="1.9455271">
        <ele>152</ele>
        <time>2021-10-28T08:32:11Z</time>
      </trkpt>
      <trkpt lat="47.63164" lon="1.9455351">
        <ele>152</ele>
        <time>2021-10-28T08:32:12Z</time>
      </trkpt>
      <trkpt lat="47.63163" lon="1.9455417">
        <ele>152</ele>
        <time>2021-10-28T08:32:13Z</time>
      </trkpt>
      <trkpt lat="47.63162" lon="1.9455452">
        <ele>152</ele>
        <time>2021-10-28T08:32:14Z</time>
      </trkpt>
      <trkpt lat="47.631607" lon="1.945547">
        <ele>152</ele>
        <time>2021-10-28T08:32:15Z</time>
      </trkpt>
      <trkpt lat="47.6316" lon="1.945549">
        <ele>152</ele>
        <time>2021-10-28T08:32:16Z</time>
      </trkpt>
      <trkpt lat="47.6316" lon="1.945549">
        <ele>152</ele>
        <time>2021-10-28T08:32:17Z</time>
      </trkpt>
      <trkpt lat="47.63158" lon="1.9455543">
        <ele>152</ele>
        <time>2021-10-28T08:32:18Z</time>
      </trkpt>
      <trkpt lat="47.631573" lon="1.9455593">
        <ele>152</ele>
        <time>2021-10-28T08:32:19Z</time>
      </trkpt>
      <trkpt lat="47.63156" lon="1.9455642">
        <ele>153</ele>
        <time>2021-10-28T08:32:20Z</time>
      </trkpt>
      <trkpt lat="47.63155" lon="1.9455707">
        <ele>152</ele>
        <time>2021-10-28T08:32:21Z</time>
      </trkpt>
      <trkpt lat="47.63154" lon="1.9455761">
        <ele>152</ele>
        <time>2021-10-28T08:32:22Z</time>
      </trkpt>
      <trkpt lat="47.631527" lon="1.945581">
        <ele>152</ele>
        <time>2021-10-28T08:32:23Z</time>
      </trkpt>
      <trkpt lat="47.631516" lon="1.9455826">
        <ele>152</ele>
        <time>2021-10-28T08:32:24Z</time>
      </trkpt>
      <trkpt lat="47.631508" lon="1.9455856">
        <ele>152</ele>
        <time>2021-10-28T08:32:25Z</time>
      </trkpt>
      <trkpt lat="47.631496" lon="1.9455884">
        <ele>153</ele>
        <time>2021-10-28T08:32:26Z</time>
      </trkpt>
      <trkpt lat="47.63148" lon="1.945591">
        <ele>153</ele>
        <time>2021-10-28T08:32:27Z</time>
      </trkpt>
      <trkpt lat="47.631474" lon="1.9455938">
        <ele>153</ele>
        <time>2021-10-28T08:32:28Z</time>
      </trkpt>
      <trkpt lat="47.631462" lon="1.9455953">
        <ele>153</ele>
        <time>2021-10-28T08:32:29Z</time>
      </trkpt>
      <trkpt lat="47.631447" lon="1.9455999">
        <ele>154</ele>
        <time>2021-10-28T08:32:30Z</time>
      </trkpt>
      <trkpt lat="47.63143" lon="1.9456065">
        <ele>153</ele>
        <time>2021-10-28T08:32:31Z</time>
      </trkpt>
      <trkpt lat="47.631413" lon="1.9456116">
        <ele>153</ele>
        <time>2021-10-28T08:32:32Z</time>
      </trkpt>
      <trkpt lat="47.631397" lon="1.9456178">
        <ele>153</ele>
        <time>2021-10-28T08:32:33Z</time>
      </trkpt>
      <trkpt lat="47.631382" lon="1.9456213">
        <ele>153</ele>
        <time>2021-10-28T08:32:34Z</time>
      </trkpt>
      <trkpt lat="47.63137" lon="1.9456207">
        <ele>154</ele>
        <time>2021-10-28T08:32:35Z</time>
      </trkpt>
      <trkpt lat="47.63136" lon="1.9456213">
        <ele>154</ele>
        <time>2021-10-28T08:32:36Z</time>
      </trkpt>
      <trkpt lat="47.631344" lon="1.9456291">
        <ele>154</ele>
        <time>2021-10-28T08:32:37Z</time>
      </trkpt>
      <trkpt lat="47.631332" lon="1.9456393">
        <ele>154</ele>
        <time>2021-10-28T08:32:38Z</time>
      </trkpt>
      <trkpt lat="47.631325" lon="1.9456466">
        <ele>154</ele>
        <time>2021-10-28T08:32:39Z</time>
      </trkpt>
      <trkpt lat="47.631313" lon="1.9456549">
        <ele>155</ele>
        <time>2021-10-28T08:32:40Z</time>
      </trkpt>
      <trkpt lat="47.631306" lon="1.945658">
        <ele>155</ele>
        <time>2021-10-28T08:32:41Z</time>
      </trkpt>
      <trkpt lat="47.63129" lon="1.9456593">
        <ele>155</ele>
        <time>2021-10-28T08:32:42Z</time>
      </trkpt>
      <trkpt lat="47.631283" lon="1.9456646">
        <ele>155</ele>
        <time>2021-10-28T08:32:43Z</time>
      </trkpt>
      <trkpt lat="47.63127" lon="1.9456646">
        <ele>155</ele>
        <time>2021-10-28T08:32:44Z</time>
      </trkpt>
      <trkpt lat="47.63126" lon="1.9456636">
        <ele>156</ele>
        <time>2021-10-28T08:32:45Z</time>
      </trkpt>
      <trkpt lat="47.631245" lon="1.9456627">
        <ele>155</ele>
        <time>2021-10-28T08:32:46Z</time>
      </trkpt>
      <trkpt lat="47.631233" lon="1.9456645">
        <ele>156</ele>
        <time>2021-10-28T08:32:47Z</time>
      </trkpt>
      <trkpt lat="47.631226" lon="1.9456669">
        <ele>155</ele>
        <time>2021-10-28T08:32:48Z</time>
      </trkpt>
      <trkpt lat="47.631214" lon="1.9456692">
        <ele>155</ele>
        <time>2021-10-28T08:32:49Z</time>
      </trkpt>
      <trkpt lat="47.631203" lon="1.9456708">
        <ele>155</ele>
        <time>2021-10-28T08:32:50Z</time>
      </trkpt>
      <trkpt lat="47.631203" lon="1.9456708">
        <ele>155</ele>
        <time>2021-10-28T08:32:51Z</time>
      </trkpt>
      <trkpt lat="47.631184" lon="1.9456729">
        <ele>155</ele>
        <time>2021-10-28T08:32:52Z</time>
      </trkpt>
      <trkpt lat="47.631172" lon="1.9456707">
        <ele>155</ele>
        <time>2021-10-28T08:32:53Z</time>
      </trkpt>
      <trkpt lat="47.63116" lon="1.9456737">
        <ele>155</ele>
        <time>2021-10-28T08:32:54Z</time>
      </trkpt>
      <trkpt lat="47.631153" lon="1.9456748">
        <ele>155</ele>
        <time>2021-10-28T08:32:55Z</time>
      </trkpt>
      <trkpt lat="47.63114" lon="1.9456743">
        <ele>155</ele>
        <time>2021-10-28T08:32:56Z</time>
      </trkpt>
      <trkpt lat="47.631138" lon="1.9456798">
        <ele>155</ele>
        <time>2021-10-28T08:32:57Z</time>
      </trkpt>
      <trkpt lat="47.631138" lon="1.9456798">
        <ele>155</ele>
        <time>2021-10-28T08:32:58Z</time>
      </trkpt>
      <trkpt lat="47.631115" lon="1.9456836">
        <ele>155</ele>
        <time>2021-10-28T08:32:59Z</time>
      </trkpt>
      <trkpt lat="47.631104" lon="1.9456887">
        <ele>155</ele>
        <time>2021-10-28T08:33:00Z</time>
      </trkpt>
      <trkpt lat="47.631092" lon="1.9456927">
        <ele>155</ele>
        <time>2021-10-28T08:33:01Z</time>
      </trkpt>
      <trkpt lat="47.63108" lon="1.9456961">
        <ele>155</ele>
        <time>2021-10-28T08:33:02Z</time>
      </trkpt>
      <trkpt lat="47.63107" lon="1.9456979">
        <ele>154</ele>
        <time>2021-10-28T08:33:03Z</time>
      </trkpt>
      <trkpt lat="47.631054" lon="1.9456968">
        <ele>155</ele>
        <time>2021-10-28T08:33:04Z</time>
      </trkpt>
      <trkpt lat="47.63104" lon="1.9456977">
        <ele>154</ele>
        <time>2021-10-28T08:33:05Z</time>
      </trkpt>
      <trkpt lat="47.63102" lon="1.9457058">
        <ele>155</ele>
        <time>2021-10-28T08:33:06Z</time>
      </trkpt>
      <trkpt lat="47.631004" lon="1.9457147">
        <ele>155</ele>
        <time>2021-10-28T08:33:07Z</time>
      </trkpt>
      <trkpt lat="47.630993" lon="1.9457222">
        <ele>155</ele>
        <time>2021-10-28T08:33:08Z</time>
      </trkpt>
      <trkpt lat="47.630978" lon="1.9457268">
        <ele>155</ele>
        <time>2021-10-28T08:33:09Z</time>
      </trkpt>
      <trkpt lat="47.630962" lon="1.9457324">
        <ele>156</ele>
        <time>2021-10-28T08:33:10Z</time>
      </trkpt>
      <trkpt lat="47.630947" lon="1.9457432">
        <ele>156</ele>
        <time>2021-10-28T08:33:11Z</time>
      </trkpt>
      <trkpt lat="47.630936" lon="1.9457469">
        <ele>156</ele>
        <time>2021-10-28T08:33:12Z</time>
      </trkpt>
      <trkpt lat="47.630924" lon="1.9457486">
        <ele>156</ele>
        <time>2021-10-28T08:33:13Z</time>
      </trkpt>
      <trkpt lat="47.630913" lon="1.9457513">
        <ele>156</ele>
        <time>2021-10-28T08:33:14Z</time>
      </trkpt>
      <trkpt lat="47.630905" lon="1.9457577">
        <ele>156</ele>
        <time>2021-10-28T08:33:15Z</time>
      </trkpt>
      <trkpt lat="47.630894" lon="1.9457629">
        <ele>156</ele>
        <time>2021-10-28T08:33:16Z</time>
      </trkpt>
      <trkpt lat="47.630882" lon="1.9457645">
        <ele>156</ele>
        <time>2021-10-28T08:33:17Z</time>
      </trkpt>
      <trkpt lat="47.630863" lon="1.9457642">
        <ele>156</ele>
        <time>2021-10-28T08:33:18Z</time>
      </trkpt>
      <trkpt lat="47.630848" lon="1.9457659">
        <ele>156</ele>
        <time>2021-10-28T08:33:19Z</time>
      </trkpt>
      <trkpt lat="47.630836" lon="1.9457688">
        <ele>156</ele>
        <time>2021-10-28T08:33:20Z</time>
      </trkpt>
      <trkpt lat="47.63082" lon="1.9457703">
        <ele>156</ele>
        <time>2021-10-28T08:33:21Z</time>
      </trkpt>
      <trkpt lat="47.630806" lon="1.9457711">
        <ele>157</ele>
        <time>2021-10-28T08:33:22Z</time>
      </trkpt>
      <trkpt lat="47.63079" lon="1.9457748">
        <ele>157</ele>
        <time>2021-10-28T08:33:23Z</time>
      </trkpt>
      <trkpt lat="47.63078" lon="1.945779">
        <ele>156</ele>
        <time>2021-10-28T08:33:24Z</time>
      </trkpt>
      <trkpt lat="47.630768" lon="1.9457802">
        <ele>156</ele>
        <time>2021-10-28T08:33:25Z</time>
      </trkpt>
      <trkpt lat="47.630753" lon="1.9457816">
        <ele>157</ele>
        <time>2021-10-28T08:33:26Z</time>
      </trkpt>
      <trkpt lat="47.630737" lon="1.9457805">
        <ele>157</ele>
        <time>2021-10-28T08:33:27Z</time>
      </trkpt>
      <trkpt lat="47.630726" lon="1.9457821">
        <ele>157</ele>
        <time>2021-10-28T08:33:28Z</time>
      </trkpt>
      <trkpt lat="47.630714" lon="1.9457812">
        <ele>157</ele>
        <time>2021-10-28T08:33:29Z</time>
      </trkpt>
      <trkpt lat="47.630703" lon="1.9457821">
        <ele>156</ele>
        <time>2021-10-28T08:33:30Z</time>
      </trkpt>
      <trkpt lat="47.630688" lon="1.9457841">
        <ele>156</ele>
        <time>2021-10-28T08:33:31Z</time>
      </trkpt>
      <trkpt lat="47.630672" lon="1.9457834">
        <ele>156</ele>
        <time>2021-10-28T08:33:32Z</time>
      </trkpt>
      <trkpt lat="47.63066" lon="1.9457816">
        <ele>156</ele>
        <time>2021-10-28T08:33:33Z</time>
      </trkpt>
      <trkpt lat="47.63065" lon="1.9457848">
        <ele>156</ele>
        <time>2021-10-28T08:33:34Z</time>
      </trkpt>
      <trkpt lat="47.63064" lon="1.9457841">
        <ele>156</ele>
        <time>2021-10-28T08:33:35Z</time>
      </trkpt>
      <trkpt lat="47.630623" lon="1.9457854">
        <ele>156</ele>
        <time>2021-10-28T08:33:36Z</time>
      </trkpt>
      <trkpt lat="47.630608" lon="1.9457859">
        <ele>155</ele>
        <time>2021-10-28T08:33:37Z</time>
      </trkpt>
      <trkpt lat="47.630596" lon="1.9457858">
        <ele>154</ele>
        <time>2021-10-28T08:33:38Z</time>
      </trkpt>
      <trkpt lat="47.63058" lon="1.9457884">
        <ele>154</ele>
        <time>2021-10-28T08:33:39Z</time>
      </trkpt>
      <trkpt lat="47.63057" lon="1.9457926">
        <ele>155</ele>
        <time>2021-10-28T08:33:40Z</time>
      </trkpt>
      <trkpt lat="47.630558" lon="1.9457973">
        <ele>155</ele>
        <time>2021-10-28T08:33:41Z</time>
      </trkpt>
      <trkpt lat="47.630543" lon="1.9457998">
        <ele>155</ele>
        <time>2021-10-28T08:33:42Z</time>
      </trkpt>
      <trkpt lat="47.630535" lon="1.9458">
        <ele>155</ele>
        <time>2021-10-28T08:33:43Z</time>
      </trkpt>
      <trkpt lat="47.630527" lon="1.9458041">
        <ele>155</ele>
        <time>2021-10-28T08:33:44Z</time>
      </trkpt>
      <trkpt lat="47.630516" lon="1.9458046">
        <ele>155</ele>
        <time>2021-10-28T08:33:45Z</time>
      </trkpt>
      <trkpt lat="47.63051" lon="1.9458101">
        <ele>154</ele>
        <time>2021-10-28T08:33:46Z</time>
      </trkpt>
      <trkpt lat="47.6305" lon="1.945818">
        <ele>154</ele>
        <time>2021-10-28T08:33:47Z</time>
      </trkpt>
      <trkpt lat="47.630486" lon="1.9458222">
        <ele>154</ele>
        <time>2021-10-28T08:33:48Z</time>
      </trkpt>
      <trkpt lat="47.630463" lon="1.9458241">
        <ele>155</ele>
        <time>2021-10-28T08:33:49Z</time>
      </trkpt>
      <trkpt lat="47.630447" lon="1.9458225">
        <ele>155</ele>
        <time>2021-10-28T08:33:50Z</time>
      </trkpt>
      <trkpt lat="47.630447" lon="1.9458225">
        <ele>155</ele>
        <time>2021-10-28T08:33:50Z</time>
      </trkpt>
      <trkpt lat="47.630432" lon="1.945821">
        <ele>155</ele>
        <time>2021-10-28T08:33:52Z</time>
      </trkpt>
      <trkpt lat="47.63042" lon="1.9458207">
        <ele>155</ele>
        <time>2021-10-28T08:33:53Z</time>
      </trkpt>
      <trkpt lat="47.630413" lon="1.9458212">
        <ele>155</ele>
        <time>2021-10-28T08:33:54Z</time>
      </trkpt>
      <trkpt lat="47.630405" lon="1.9458177">
        <ele>154</ele>
        <time>2021-10-28T08:33:55Z</time>
      </trkpt>
      <trkpt lat="47.630394" lon="1.9458135">
        <ele>154</ele>
        <time>2021-10-28T08:33:56Z</time>
      </trkpt>
      <trkpt lat="47.63038" lon="1.9458113">
        <ele>154</ele>
        <time>2021-10-28T08:33:57Z</time>
      </trkpt>
      <trkpt lat="47.63036" lon="1.9458104">
        <ele>154</ele>
        <time>2021-10-28T08:33:58Z</time>
      </trkpt>
      <trkpt lat="47.63035" lon="1.9458123">
        <ele>154</ele>
        <time>2021-10-28T08:33:59Z</time>
      </trkpt>
      <trkpt lat="47.630337" lon="1.9458143">
        <ele>154</ele>
        <time>2021-10-28T08:34:00Z</time>
      </trkpt>
      <trkpt lat="47.63031" lon="1.9458178">
        <ele>154</ele>
        <time>2021-10-28T08:34:01Z</time>
      </trkpt>
      <trkpt lat="47.63031" lon="1.9458178">
        <ele>154</ele>
        <time>2021-10-28T08:34:01Z</time>
      </trkpt>
      <trkpt lat="47.630295" lon="1.945815">
        <ele>154</ele>
        <time>2021-10-28T08:34:03Z</time>
      </trkpt>
      <trkpt lat="47.630283" lon="1.9458135">
        <ele>154</ele>
        <time>2021-10-28T08:34:04Z</time>
      </trkpt>
      <trkpt lat="47.630272" lon="1.9458109">
        <ele>154</ele>
        <time>2021-10-28T08:34:05Z</time>
      </trkpt>
      <trkpt lat="47.630257" lon="1.9458075">
        <ele>155</ele>
        <time>2021-10-28T08:34:06Z</time>
      </trkpt>
      <trkpt lat="47.63024" lon="1.9458036">
        <ele>155</ele>
        <time>2021-10-28T08:34:07Z</time>
      </trkpt>
      <trkpt lat="47.630226" lon="1.9457986">
        <ele>155</ele>
        <time>2021-10-28T08:34:08Z</time>
      </trkpt>
      <trkpt lat="47.63021" lon="1.9457965">
        <ele>155</ele>
        <time>2021-10-28T08:34:09Z</time>
      </trkpt>
      <trkpt lat="47.6302" lon="1.945795">
        <ele>155</ele>
        <time>2021-10-28T08:34:10Z</time>
      </trkpt>
      <trkpt lat="47.630184" lon="1.945797">
        <ele>155</ele>
        <time>2021-10-28T08:34:11Z</time>
      </trkpt>
      <trkpt lat="47.63017" lon="1.9457997">
        <ele>155</ele>
        <time>2021-10-28T08:34:12Z</time>
      </trkpt>
      <trkpt lat="47.630157" lon="1.9457991">
        <ele>156</ele>
        <time>2021-10-28T08:34:13Z</time>
      </trkpt>
      <trkpt lat="47.630146" lon="1.9457968">
        <ele>156</ele>
        <time>2021-10-28T08:34:14Z</time>
      </trkpt>
      <trkpt lat="47.630123" lon="1.945798">
        <ele>156</ele>
        <time>2021-10-28T08:34:15Z</time>
      </trkpt>
      <trkpt lat="47.630123" lon="1.945798">
        <ele>156</ele>
        <time>2021-10-28T08:34:15Z</time>
      </trkpt>
      <trkpt lat="47.630108" lon="1.9457965">
        <ele>156</ele>
        <time>2021-10-28T08:34:17Z</time>
      </trkpt>
      <trkpt lat="47.630085" lon="1.9457899">
        <ele>157</ele>
        <time>2021-10-28T08:34:18Z</time>
      </trkpt>
      <trkpt lat="47.630085" lon="1.9457899">
        <ele>157</ele>
        <time>2021-10-28T08:34:18Z</time>
      </trkpt>
      <trkpt lat="47.630074" lon="1.945787">
        <ele>157</ele>
        <time>2021-10-28T08:34:20Z</time>
      </trkpt>
      <trkpt lat="47.630062" lon="1.9457837">
        <ele>157</ele>
        <time>2021-10-28T08:34:21Z</time>
      </trkpt>
      <trkpt lat="47.63005" lon="1.9457791">
        <ele>158</ele>
        <time>2021-10-28T08:34:22Z</time>
      </trkpt>
      <trkpt lat="47.630028" lon="1.9457757">
        <ele>158</ele>
        <time>2021-10-28T08:34:23Z</time>
      </trkpt>
      <trkpt lat="47.630013" lon="1.9457719">
        <ele>158</ele>
        <time>2021-10-28T08:34:24Z</time>
      </trkpt>
      <trkpt lat="47.630013" lon="1.9457719">
        <ele>158</ele>
        <time>2021-10-28T08:34:24Z</time>
      </trkpt>
      <trkpt lat="47.630005" lon="1.9457725">
        <ele>159</ele>
        <time>2021-10-28T08:34:26Z</time>
      </trkpt>
      <trkpt lat="47.629993" lon="1.9457732">
        <ele>159</ele>
        <time>2021-10-28T08:34:27Z</time>
      </trkpt>
      <trkpt lat="47.629986" lon="1.9457736">
        <ele>159</ele>
        <time>2021-10-28T08:34:28Z</time>
      </trkpt>
      <trkpt lat="47.629974" lon="1.9457686">
        <ele>159</ele>
        <time>2021-10-28T08:34:29Z</time>
      </trkpt>
      <trkpt lat="47.629967" lon="1.9457601">
        <ele>159</ele>
        <time>2021-10-28T08:34:30Z</time>
      </trkpt>
      <trkpt lat="47.62995" lon="1.9457556">
        <ele>159</ele>
        <time>2021-10-28T08:34:31Z</time>
      </trkpt>
      <trkpt lat="47.62994" lon="1.9457523">
        <ele>159</ele>
        <time>2021-10-28T08:34:32Z</time>
      </trkpt>
      <trkpt lat="47.629917" lon="1.9457468">
        <ele>159</ele>
        <time>2021-10-28T08:34:33Z</time>
      </trkpt>
      <trkpt lat="47.629917" lon="1.9457468">
        <ele>159</ele>
        <time>2021-10-28T08:34:33Z</time>
      </trkpt>
      <trkpt lat="47.629906" lon="1.9457488">
        <ele>158</ele>
        <time>2021-10-28T08:34:35Z</time>
      </trkpt>
      <trkpt lat="47.629894" lon="1.9457507">
        <ele>158</ele>
        <time>2021-10-28T08:34:36Z</time>
      </trkpt>
      <trkpt lat="47.62988" lon="1.9457508">
        <ele>159</ele>
        <time>2021-10-28T08:34:37Z</time>
      </trkpt>
      <trkpt lat="47.629864" lon="1.9457487">
        <ele>159</ele>
        <time>2021-10-28T08:34:38Z</time>
      </trkpt>
      <trkpt lat="47.629852" lon="1.9457481">
        <ele>159</ele>
        <time>2021-10-28T08:34:39Z</time>
      </trkpt>
      <trkpt lat="47.62984" lon="1.9457458">
        <ele>159</ele>
        <time>2021-10-28T08:34:40Z</time>
      </trkpt>
      <trkpt lat="47.629826" lon="1.9457397">
        <ele>159</ele>
        <time>2021-10-28T08:34:41Z</time>
      </trkpt>
      <trkpt lat="47.6298" lon="1.945733">
        <ele>160</ele>
        <time>2021-10-28T08:34:42Z</time>
      </trkpt>
      <trkpt lat="47.629787" lon="1.9457326">
        <ele>160</ele>
        <time>2021-10-28T08:34:43Z</time>
      </trkpt>
      <trkpt lat="47.629787" lon="1.9457326">
        <ele>160</ele>
        <time>2021-10-28T08:34:43Z</time>
      </trkpt>
      <trkpt lat="47.629776" lon="1.9457338">
        <ele>160</ele>
        <time>2021-10-28T08:34:45Z</time>
      </trkpt>
      <trkpt lat="47.62976" lon="1.9457352">
        <ele>160</ele>
        <time>2021-10-28T08:34:46Z</time>
      </trkpt>
      <trkpt lat="47.62975" lon="1.9457387">
        <ele>160</ele>
        <time>2021-10-28T08:34:47Z</time>
      </trkpt>
      <trkpt lat="47.629738" lon="1.9457426">
        <ele>160</ele>
        <time>2021-10-28T08:34:48Z</time>
      </trkpt>
      <trkpt lat="47.629726" lon="1.9457456">
        <ele>161</ele>
        <time>2021-10-28T08:34:49Z</time>
      </trkpt>
      <trkpt lat="47.629715" lon="1.9457451">
        <ele>161</ele>
        <time>2021-10-28T08:34:50Z</time>
      </trkpt>
      <trkpt lat="47.629696" lon="1.9457432">
        <ele>161</ele>
        <time>2021-10-28T08:34:51Z</time>
      </trkpt>
      <trkpt lat="47.62968" lon="1.9457439">
        <ele>161</ele>
        <time>2021-10-28T08:34:52Z</time>
      </trkpt>
      <trkpt lat="47.62968" lon="1.9457439">
        <ele>161</ele>
        <time>2021-10-28T08:34:52Z</time>
      </trkpt>
      <trkpt lat="47.629665" lon="1.9457457">
        <ele>161</ele>
        <time>2021-10-28T08:34:54Z</time>
      </trkpt>
      <trkpt lat="47.629654" lon="1.9457413">
        <ele>161</ele>
        <time>2021-10-28T08:34:55Z</time>
      </trkpt>
      <trkpt lat="47.629642" lon="1.9457409">
        <ele>161</ele>
        <time>2021-10-28T08:34:56Z</time>
      </trkpt>
      <trkpt lat="47.629623" lon="1.9457437">
        <ele>162</ele>
        <time>2021-10-28T08:34:57Z</time>
      </trkpt>
      <trkpt lat="47.62961" lon="1.9457451">
        <ele>162</ele>
        <time>2021-10-28T08:34:58Z</time>
      </trkpt>
      <trkpt lat="47.629597" lon="1.9457443">
        <ele>162</ele>
        <time>2021-10-28T08:34:59Z</time>
      </trkpt>
      <trkpt lat="47.629585" lon="1.9457465">
        <ele>162</ele>
        <time>2021-10-28T08:35:00Z</time>
      </trkpt>
      <trkpt lat="47.629578" lon="1.9457475">
        <ele>163</ele>
        <time>2021-10-28T08:35:01Z</time>
      </trkpt>
      <trkpt lat="47.62957" lon="1.9457437">
        <ele>163</ele>
        <time>2021-10-28T08:35:02Z</time>
      </trkpt>
      <trkpt lat="47.62956" lon="1.9457415">
        <ele>163</ele>
        <time>2021-10-28T08:35:03Z</time>
      </trkpt>
      <trkpt lat="47.629547" lon="1.945737">
        <ele>163</ele>
        <time>2021-10-28T08:35:04Z</time>
      </trkpt>
      <trkpt lat="47.629536" lon="1.945735">
        <ele>163</ele>
        <time>2021-10-28T08:35:05Z</time>
      </trkpt>
      <trkpt lat="47.629528" lon="1.9457313">
        <ele>163</ele>
        <time>2021-10-28T08:35:06Z</time>
      </trkpt>
      <trkpt lat="47.629517" lon="1.9457306">
        <ele>163</ele>
        <time>2021-10-28T08:35:07Z</time>
      </trkpt>
      <trkpt lat="47.629505" lon="1.9457301">
        <ele>163</ele>
        <time>2021-10-28T08:35:08Z</time>
      </trkpt>
      <trkpt lat="47.629498" lon="1.9457246">
        <ele>163</ele>
        <time>2021-10-28T08:35:09Z</time>
      </trkpt>
      <trkpt lat="47.629486" lon="1.9457237">
        <ele>162</ele>
        <time>2021-10-28T08:35:10Z</time>
      </trkpt>
      <trkpt lat="47.62948" lon="1.9457232">
        <ele>163</ele>
        <time>2021-10-28T08:35:11Z</time>
      </trkpt>
      <trkpt lat="47.629467" lon="1.9457183">
        <ele>163</ele>
        <time>2021-10-28T08:35:12Z</time>
      </trkpt>
      <trkpt lat="47.62945" lon="1.9457117">
        <ele>163</ele>
        <time>2021-10-28T08:35:13Z</time>
      </trkpt>
      <trkpt lat="47.629444" lon="1.9457096">
        <ele>163</ele>
        <time>2021-10-28T08:35:14Z</time>
      </trkpt>
      <trkpt lat="47.62943" lon="1.9457062">
        <ele>163</ele>
        <time>2021-10-28T08:35:15Z</time>
      </trkpt>
      <trkpt lat="47.629417" lon="1.9457017">
        <ele>164</ele>
        <time>2021-10-28T08:35:16Z</time>
      </trkpt>
      <trkpt lat="47.62941" lon="1.9456968">
        <ele>164</ele>
        <time>2021-10-28T08:35:17Z</time>
      </trkpt>
      <trkpt lat="47.629395" lon="1.9456964">
        <ele>165</ele>
        <time>2021-10-28T08:35:18Z</time>
      </trkpt>
      <trkpt lat="47.629387" lon="1.9456915">
        <ele>165</ele>
        <time>2021-10-28T08:35:19Z</time>
      </trkpt>
      <trkpt lat="47.62938" lon="1.9456953">
        <ele>164</ele>
        <time>2021-10-28T08:35:20Z</time>
      </trkpt>
      <trkpt lat="47.629375" lon="1.9456921">
        <ele>165</ele>
        <time>2021-10-28T08:35:21Z</time>
      </trkpt>
      <trkpt lat="47.629364" lon="1.9456873">
        <ele>165</ele>
        <time>2021-10-28T08:35:22Z</time>
      </trkpt>
      <trkpt lat="47.629353" lon="1.9456805">
        <ele>165</ele>
        <time>2021-10-28T08:35:23Z</time>
      </trkpt>
      <trkpt lat="47.62934" lon="1.9456767">
        <ele>165</ele>
        <time>2021-10-28T08:35:24Z</time>
      </trkpt>
      <trkpt lat="47.62933" lon="1.9456744">
        <ele>165</ele>
        <time>2021-10-28T08:35:25Z</time>
      </trkpt>
      <trkpt lat="47.629322" lon="1.9456747">
        <ele>164</ele>
        <time>2021-10-28T08:35:26Z</time>
      </trkpt>
      <trkpt lat="47.62931" lon="1.9456742">
        <ele>165</ele>
        <time>2021-10-28T08:35:27Z</time>
      </trkpt>
      <trkpt lat="47.6293" lon="1.945674">
        <ele>165</ele>
        <time>2021-10-28T08:35:28Z</time>
      </trkpt>
      <trkpt lat="47.629288" lon="1.9456731">
        <ele>165</ele>
        <time>2021-10-28T08:35:29Z</time>
      </trkpt>
      <trkpt lat="47.629272" lon="1.9456706">
        <ele>165</ele>
        <time>2021-10-28T08:35:30Z</time>
      </trkpt>
      <trkpt lat="47.629265" lon="1.9456658">
        <ele>165</ele>
        <time>2021-10-28T08:35:31Z</time>
      </trkpt>
      <trkpt lat="47.629253" lon="1.9456607">
        <ele>165</ele>
        <time>2021-10-28T08:35:32Z</time>
      </trkpt>
      <trkpt lat="47.62924" lon="1.9456621">
        <ele>164</ele>
        <time>2021-10-28T08:35:33Z</time>
      </trkpt>
      <trkpt lat="47.62923" lon="1.9456592">
        <ele>164</ele>
        <time>2021-10-28T08:35:34Z</time>
      </trkpt>
      <trkpt lat="47.629215" lon="1.9456547">
        <ele>164</ele>
        <time>2021-10-28T08:35:35Z</time>
      </trkpt>
      <trkpt lat="47.629208" lon="1.9456506">
        <ele>164</ele>
        <time>2021-10-28T08:35:36Z</time>
      </trkpt>
      <trkpt lat="47.629196" lon="1.9456471">
        <ele>164</ele>
        <time>2021-10-28T08:35:37Z</time>
      </trkpt>
      <trkpt lat="47.629185" lon="1.945648">
        <ele>164</ele>
        <time>2021-10-28T08:35:38Z</time>
      </trkpt>
      <trkpt lat="47.629173" lon="1.9456505">
        <ele>164</ele>
        <time>2021-10-28T08:35:39Z</time>
      </trkpt>
      <trkpt lat="47.62916" lon="1.9456501">
        <ele>164</ele>
        <time>2021-10-28T08:35:40Z</time>
      </trkpt>
      <trkpt lat="47.62915" lon="1.9456536">
        <ele>164</ele>
        <time>2021-10-28T08:35:41Z</time>
      </trkpt>
      <trkpt lat="47.629143" lon="1.945658">
        <ele>164</ele>
        <time>2021-10-28T08:35:42Z</time>
      </trkpt>
      <trkpt lat="47.62913" lon="1.9456567">
        <ele>164</ele>
        <time>2021-10-28T08:35:43Z</time>
      </trkpt>
      <trkpt lat="47.62912" lon="1.945656">
        <ele>164</ele>
        <time>2021-10-28T08:35:44Z</time>
      </trkpt>
      <trkpt lat="47.62911" lon="1.9456528">
        <ele>164</ele>
        <time>2021-10-28T08:35:45Z</time>
      </trkpt>
      <trkpt lat="47.6291" lon="1.9456524">
        <ele>164</ele>
        <time>2021-10-28T08:35:46Z</time>
      </trkpt>
      <trkpt lat="47.62909" lon="1.9456514">
        <ele>165</ele>
        <time>2021-10-28T08:35:47Z</time>
      </trkpt>
      <trkpt lat="47.629078" lon="1.9456489">
        <ele>165</ele>
        <time>2021-10-28T08:35:48Z</time>
      </trkpt>
      <trkpt lat="47.62907" lon="1.9456545">
        <ele>165</ele>
        <time>2021-10-28T08:35:49Z</time>
      </trkpt>
      <trkpt lat="47.62906" lon="1.9456551">
        <ele>165</ele>
        <time>2021-10-28T08:35:50Z</time>
      </trkpt>
      <trkpt lat="47.629047" lon="1.9456494">
        <ele>165</ele>
        <time>2021-10-28T08:35:51Z</time>
      </trkpt>
      <trkpt lat="47.629036" lon="1.9456464">
        <ele>165</ele>
        <time>2021-10-28T08:35:52Z</time>
      </trkpt>
      <trkpt lat="47.62903" lon="1.9456462">
        <ele>165</ele>
        <time>2021-10-28T08:35:53Z</time>
      </trkpt>
      <trkpt lat="47.629025" lon="1.9456487">
        <ele>165</ele>
        <time>2021-10-28T08:35:54Z</time>
      </trkpt>
      <trkpt lat="47.62902" lon="1.9456489">
        <ele>165</ele>
        <time>2021-10-28T08:35:55Z</time>
      </trkpt>
      <trkpt lat="47.62901" lon="1.9456444">
        <ele>165</ele>
        <time>2021-10-28T08:35:56Z</time>
      </trkpt>
      <trkpt lat="47.628998" lon="1.9456428">
        <ele>165</ele>
        <time>2021-10-28T08:35:57Z</time>
      </trkpt>
      <trkpt lat="47.62899" lon="1.9456424">
        <ele>165</ele>
        <time>2021-10-28T08:35:58Z</time>
      </trkpt>
      <trkpt lat="47.628975" lon="1.94564">
        <ele>165</ele>
        <time>2021-10-28T08:35:59Z</time>
      </trkpt>
      <trkpt lat="47.628963" lon="1.9456376">
        <ele>165</ele>
        <time>2021-10-28T08:36:00Z</time>
      </trkpt>
      <trkpt lat="47.628956" lon="1.9456315">
        <ele>165</ele>
        <time>2021-10-28T08:36:01Z</time>
      </trkpt>
      <trkpt lat="47.62895" lon="1.9456303">
        <ele>165</ele>
        <time>2021-10-28T08:36:02Z</time>
      </trkpt>
      <trkpt lat="47.628937" lon="1.9456304">
        <ele>165</ele>
        <time>2021-10-28T08:36:03Z</time>
      </trkpt>
      <trkpt lat="47.62893" lon="1.9456278">
        <ele>164</ele>
        <time>2021-10-28T08:36:04Z</time>
      </trkpt>
      <trkpt lat="47.62892" lon="1.9456285">
        <ele>164</ele>
        <time>2021-10-28T08:36:05Z</time>
      </trkpt>
      <trkpt lat="47.62891" lon="1.9456277">
        <ele>164</ele>
        <time>2021-10-28T08:36:06Z</time>
      </trkpt>
      <trkpt lat="47.6289" lon="1.9456272">
        <ele>164</ele>
        <time>2021-10-28T08:36:07Z</time>
      </trkpt>
      <trkpt lat="47.628887" lon="1.945625">
        <ele>164</ele>
        <time>2021-10-28T08:36:08Z</time>
      </trkpt>
      <trkpt lat="47.62888" lon="1.9456233">
        <ele>164</ele>
        <time>2021-10-28T08:36:09Z</time>
      </trkpt>
      <trkpt lat="47.628864" lon="1.9456176">
        <ele>164</ele>
        <time>2021-10-28T08:36:10Z</time>
      </trkpt>
      <trkpt lat="47.628853" lon="1.9456164">
        <ele>164</ele>
        <time>2021-10-28T08:36:11Z</time>
      </trkpt>
      <trkpt lat="47.62884" lon="1.9456133">
        <ele>164</ele>
        <time>2021-10-28T08:36:12Z</time>
      </trkpt>
      <trkpt lat="47.62883" lon="1.9456093">
        <ele>164</ele>
        <time>2021-10-28T08:36:13Z</time>
      </trkpt>
      <trkpt lat="47.628815" lon="1.9456062">
        <ele>163</ele>
        <time>2021-10-28T08:36:14Z</time>
      </trkpt>
      <trkpt lat="47.628803" lon="1.945603">
        <ele>163</ele>
        <time>2021-10-28T08:36:15Z</time>
      </trkpt>
      <trkpt lat="47.62879" lon="1.9456019">
        <ele>163</ele>
        <time>2021-10-28T08:36:16Z</time>
      </trkpt>
      <trkpt lat="47.62878" lon="1.9456025">
        <ele>163</ele>
        <time>2021-10-28T08:36:17Z</time>
      </trkpt>
      <trkpt lat="47.628773" lon="1.945608">
        <ele>163</ele>
        <time>2021-10-28T08:36:18Z</time>
      </trkpt>
      <trkpt lat="47.62876" lon="1.9456106">
        <ele>163</ele>
        <time>2021-10-28T08:36:19Z</time>
      </trkpt>
      <trkpt lat="47.628754" lon="1.9456142">
        <ele>163</ele>
        <time>2021-10-28T08:36:20Z</time>
      </trkpt>
      <trkpt lat="47.628742" lon="1.9456155">
        <ele>163</ele>
        <time>2021-10-28T08:36:21Z</time>
      </trkpt>
      <trkpt lat="47.628723" lon="1.9456153">
        <ele>163</ele>
        <time>2021-10-28T08:36:22Z</time>
      </trkpt>
      <trkpt lat="47.62871" lon="1.945613">
        <ele>163</ele>
        <time>2021-10-28T08:36:23Z</time>
      </trkpt>
      <trkpt lat="47.628696" lon="1.9456048">
        <ele>162</ele>
        <time>2021-10-28T08:36:24Z</time>
      </trkpt>
      <trkpt lat="47.62869" lon="1.9455992">
        <ele>162</ele>
        <time>2021-10-28T08:36:25Z</time>
      </trkpt>
      <trkpt lat="47.628674" lon="1.9455975">
        <ele>162</ele>
        <time>2021-10-28T08:36:26Z</time>
      </trkpt>
      <trkpt lat="47.628662" lon="1.9455991">
        <ele>162</ele>
        <time>2021-10-28T08:36:27Z</time>
      </trkpt>
      <trkpt lat="47.62865" lon="1.945598">
        <ele>163</ele>
        <time>2021-10-28T08:36:28Z</time>
      </trkpt>
      <trkpt lat="47.62864" lon="1.9455967">
        <ele>162</ele>
        <time>2021-10-28T08:36:29Z</time>
      </trkpt>
      <trkpt lat="47.628624" lon="1.9455943">
        <ele>163</ele>
        <time>2021-10-28T08:36:30Z</time>
      </trkpt>
      <trkpt lat="47.628613" lon="1.9455906">
        <ele>162</ele>
        <time>2021-10-28T08:36:31Z</time>
      </trkpt>
      <trkpt lat="47.6286" lon="1.9455899">
        <ele>163</ele>
        <time>2021-10-28T08:36:32Z</time>
      </trkpt>
      <trkpt lat="47.628593" lon="1.945589">
        <ele>162</ele>
        <time>2021-10-28T08:36:33Z</time>
      </trkpt>
      <trkpt lat="47.628586" lon="1.9455878">
        <ele>163</ele>
        <time>2021-10-28T08:36:34Z</time>
      </trkpt>
      <trkpt lat="47.62858" lon="1.9455887">
        <ele>163</ele>
        <time>2021-10-28T08:36:35Z</time>
      </trkpt>
      <trkpt lat="47.62857" lon="1.9455929">
        <ele>163</ele>
        <time>2021-10-28T08:36:36Z</time>
      </trkpt>
      <trkpt lat="47.62857" lon="1.9455929">
        <ele>163</ele>
        <time>2021-10-28T08:36:37Z</time>
      </trkpt>
      <trkpt lat="47.62857" lon="1.9455929">
        <ele>163</ele>
        <time>2021-10-28T08:36:38Z</time>
      </trkpt>
      <trkpt lat="47.62854" lon="1.9455912">
        <ele>163</ele>
        <time>2021-10-28T08:36:39Z</time>
      </trkpt>
      <trkpt lat="47.628525" lon="1.9455912">
        <ele>163</ele>
        <time>2021-10-28T08:36:40Z</time>
      </trkpt>
      <trkpt lat="47.628513" lon="1.9455914">
        <ele>163</ele>
        <time>2021-10-28T08:36:41Z</time>
      </trkpt>
      <trkpt lat="47.6285" lon="1.945593">
        <ele>163</ele>
        <time>2021-10-28T08:36:42Z</time>
      </trkpt>
      <trkpt lat="47.62849" lon="1.9455936">
        <ele>163</ele>
        <time>2021-10-28T08:36:43Z</time>
      </trkpt>
      <trkpt lat="47.628483" lon="1.945596">
        <ele>163</ele>
        <time>2021-10-28T08:36:44Z</time>
      </trkpt>
      <trkpt lat="47.62847" lon="1.9455975">
        <ele>163</ele>
        <time>2021-10-28T08:36:45Z</time>
      </trkpt>
      <trkpt lat="47.628464" lon="1.945595">
        <ele>163</ele>
        <time>2021-10-28T08:36:46Z</time>
      </trkpt>
      <trkpt lat="47.62845" lon="1.9455963">
        <ele>162</ele>
        <time>2021-10-28T08:36:47Z</time>
      </trkpt>
      <trkpt lat="47.62844" lon="1.9455981">
        <ele>163</ele>
        <time>2021-10-28T08:36:48Z</time>
      </trkpt>
      <trkpt lat="47.628426" lon="1.945601">
        <ele>162</ele>
        <time>2021-10-28T08:36:49Z</time>
      </trkpt>
      <trkpt lat="47.628414" lon="1.9456036">
        <ele>163</ele>
        <time>2021-10-28T08:36:50Z</time>
      </trkpt>
      <trkpt lat="47.6284" lon="1.9456056">
        <ele>163</ele>
        <time>2021-10-28T08:36:51Z</time>
      </trkpt>
      <trkpt lat="47.628387" lon="1.9456068">
        <ele>163</ele>
        <time>2021-10-28T08:36:52Z</time>
      </trkpt>
      <trkpt lat="47.628372" lon="1.9456041">
        <ele>163</ele>
        <time>2021-10-28T08:36:53Z</time>
      </trkpt>
      <trkpt lat="47.628357" lon="1.9456011">
        <ele>163</ele>
        <time>2021-10-28T08:36:54Z</time>
      </trkpt>
      <trkpt lat="47.628345" lon="1.9455962">
        <ele>163</ele>
        <time>2021-10-28T08:36:55Z</time>
      </trkpt>
      <trkpt lat="47.628334" lon="1.9455922">
        <ele>164</ele>
        <time>2021-10-28T08:36:56Z</time>
      </trkpt>
      <trkpt lat="47.628323" lon="1.9455903">
        <ele>164</ele>
        <time>2021-10-28T08:36:57Z</time>
      </trkpt>
      <trkpt lat="47.62831" lon="1.9455872">
        <ele>164</ele>
        <time>2021-10-28T08:36:58Z</time>
      </trkpt>
      <trkpt lat="47.628296" lon="1.9455836">
        <ele>164</ele>
        <time>2021-10-28T08:36:59Z</time>
      </trkpt>
      <trkpt lat="47.62828" lon="1.9455805">
        <ele>164</ele>
        <time>2021-10-28T08:37:00Z</time>
      </trkpt>
      <trkpt lat="47.62827" lon="1.9455763">
        <ele>164</ele>
        <time>2021-10-28T08:37:01Z</time>
      </trkpt>
      <trkpt lat="47.628258" lon="1.9455752">
        <ele>164</ele>
        <time>2021-10-28T08:37:02Z</time>
      </trkpt>
      <trkpt lat="47.628246" lon="1.9455715">
        <ele>164</ele>
        <time>2021-10-28T08:37:03Z</time>
      </trkpt>
      <trkpt lat="47.62824" lon="1.94557">
        <ele>164</ele>
        <time>2021-10-28T08:37:04Z</time>
      </trkpt>
      <trkpt lat="47.62823" lon="1.9455664">
        <ele>164</ele>
        <time>2021-10-28T08:37:05Z</time>
      </trkpt>
      <trkpt lat="47.62823" lon="1.9455664">
        <ele>164</ele>
        <time>2021-10-28T08:37:06Z</time>
      </trkpt>
      <trkpt lat="47.628212" lon="1.9455686">
        <ele>164</ele>
        <time>2021-10-28T08:37:07Z</time>
      </trkpt>
      <trkpt lat="47.6282" lon="1.9455687">
        <ele>164</ele>
        <time>2021-10-28T08:37:08Z</time>
      </trkpt>
      <trkpt lat="47.62819" lon="1.9455696">
        <ele>165</ele>
        <time>2021-10-28T08:37:09Z</time>
      </trkpt>
      <trkpt lat="47.628178" lon="1.9455684">
        <ele>165</ele>
        <time>2021-10-28T08:37:10Z</time>
      </trkpt>
      <trkpt lat="47.628166" lon="1.9455656">
        <ele>165</ele>
        <time>2021-10-28T08:37:11Z</time>
      </trkpt>
      <trkpt lat="47.628155" lon="1.9455639">
        <ele>165</ele>
        <time>2021-10-28T08:37:12Z</time>
      </trkpt>
      <trkpt lat="47.62814" lon="1.9455619">
        <ele>165</ele>
        <time>2021-10-28T08:37:13Z</time>
      </trkpt>
      <trkpt lat="47.628124" lon="1.9455605">
        <ele>165</ele>
        <time>2021-10-28T08:37:14Z</time>
      </trkpt>
      <trkpt lat="47.628113" lon="1.9455602">
        <ele>165</ele>
        <time>2021-10-28T08:37:15Z</time>
      </trkpt>
      <trkpt lat="47.6281" lon="1.9455594">
        <ele>165</ele>
        <time>2021-10-28T08:37:16Z</time>
      </trkpt>
      <trkpt lat="47.62809" lon="1.9455571">
        <ele>165</ele>
        <time>2021-10-28T08:37:17Z</time>
      </trkpt>
      <trkpt lat="47.62808" lon="1.9455571">
        <ele>165</ele>
        <time>2021-10-28T08:37:18Z</time>
      </trkpt>
      <trkpt lat="47.628067" lon="1.9455535">
        <ele>164</ele>
        <time>2021-10-28T08:37:19Z</time>
      </trkpt>
      <trkpt lat="47.628056" lon="1.9455512">
        <ele>164</ele>
        <time>2021-10-28T08:37:20Z</time>
      </trkpt>
      <trkpt lat="47.628044" lon="1.9455506">
        <ele>164</ele>
        <time>2021-10-28T08:37:21Z</time>
      </trkpt>
      <trkpt lat="47.628033" lon="1.9455519">
        <ele>164</ele>
        <time>2021-10-28T08:37:22Z</time>
      </trkpt>
      <trkpt lat="47.628017" lon="1.9455502">
        <ele>164</ele>
        <time>2021-10-28T08:37:23Z</time>
      </trkpt>
      <trkpt lat="47.628" lon="1.9455463">
        <ele>164</ele>
        <time>2021-10-28T08:37:24Z</time>
      </trkpt>
      <trkpt lat="47.627987" lon="1.945545">
        <ele>164</ele>
        <time>2021-10-28T08:37:25Z</time>
      </trkpt>
      <trkpt lat="47.62797" lon="1.9455413">
        <ele>164</ele>
        <time>2021-10-28T08:37:26Z</time>
      </trkpt>
      <trkpt lat="47.62796" lon="1.9455391">
        <ele>164</ele>
        <time>2021-10-28T08:37:27Z</time>
      </trkpt>
      <trkpt lat="47.62795" lon="1.9455382">
        <ele>164</ele>
        <time>2021-10-28T08:37:28Z</time>
      </trkpt>
      <trkpt lat="47.627937" lon="1.9455373">
        <ele>165</ele>
        <time>2021-10-28T08:37:29Z</time>
      </trkpt>
      <trkpt lat="47.627926" lon="1.9455354">
        <ele>165</ele>
        <time>2021-10-28T08:37:30Z</time>
      </trkpt>
      <trkpt lat="47.62792" lon="1.9455351">
        <ele>166</ele>
        <time>2021-10-28T08:37:31Z</time>
      </trkpt>
      <trkpt lat="47.627903" lon="1.945535">
        <ele>166</ele>
        <time>2021-10-28T08:37:32Z</time>
      </trkpt>
      <trkpt lat="47.62789" lon="1.9455351">
        <ele>166</ele>
        <time>2021-10-28T08:37:33Z</time>
      </trkpt>
      <trkpt lat="47.62788" lon="1.9455343">
        <ele>166</ele>
        <time>2021-10-28T08:37:34Z</time>
      </trkpt>
      <trkpt lat="47.627865" lon="1.9455332">
        <ele>165</ele>
        <time>2021-10-28T08:37:35Z</time>
      </trkpt>
      <trkpt lat="47.62785" lon="1.9455326">
        <ele>165</ele>
        <time>2021-10-28T08:37:36Z</time>
      </trkpt>
      <trkpt lat="47.627834" lon="1.9455309">
        <ele>165</ele>
        <time>2021-10-28T08:37:37Z</time>
      </trkpt>
      <trkpt lat="47.627823" lon="1.9455304">
        <ele>165</ele>
        <time>2021-10-28T08:37:38Z</time>
      </trkpt>
      <trkpt lat="47.62781" lon="1.9455299">
        <ele>166</ele>
        <time>2021-10-28T08:37:39Z</time>
      </trkpt>
      <trkpt lat="47.6278" lon="1.9455262">
        <ele>166</ele>
        <time>2021-10-28T08:37:40Z</time>
      </trkpt>
      <trkpt lat="47.62779" lon="1.9455271">
        <ele>166</ele>
        <time>2021-10-28T08:37:41Z</time>
      </trkpt>
      <trkpt lat="47.627777" lon="1.9455272">
        <ele>166</ele>
        <time>2021-10-28T08:37:42Z</time>
      </trkpt>
      <trkpt lat="47.627766" lon="1.9455286">
        <ele>166</ele>
        <time>2021-10-28T08:37:43Z</time>
      </trkpt>
      <trkpt lat="47.627754" lon="1.9455328">
        <ele>166</ele>
        <time>2021-10-28T08:37:44Z</time>
      </trkpt>
      <trkpt lat="47.627743" lon="1.9455374">
        <ele>167</ele>
        <time>2021-10-28T08:37:45Z</time>
      </trkpt>
      <trkpt lat="47.627735" lon="1.9455352">
        <ele>167</ele>
        <time>2021-10-28T08:37:46Z</time>
      </trkpt>
      <trkpt lat="47.627724" lon="1.9455308">
        <ele>167</ele>
        <time>2021-10-28T08:37:47Z</time>
      </trkpt>
      <trkpt lat="47.627712" lon="1.9455304">
        <ele>167</ele>
        <time>2021-10-28T08:37:48Z</time>
      </trkpt>
      <trkpt lat="47.627705" lon="1.9455348">
        <ele>167</ele>
        <time>2021-10-28T08:37:49Z</time>
      </trkpt>
      <trkpt lat="47.627697" lon="1.9455365">
        <ele>167</ele>
        <time>2021-10-28T08:37:50Z</time>
      </trkpt>
      <trkpt lat="47.62769" lon="1.945545">
        <ele>166</ele>
        <time>2021-10-28T08:37:51Z</time>
      </trkpt>
      <trkpt lat="47.62768" lon="1.9455458">
        <ele>166</ele>
        <time>2021-10-28T08:37:52Z</time>
      </trkpt>
      <trkpt lat="47.627666" lon="1.9455427">
        <ele>166</ele>
        <time>2021-10-28T08:37:53Z</time>
      </trkpt>
      <trkpt lat="47.627647" lon="1.9455421">
        <ele>166</ele>
        <time>2021-10-28T08:37:54Z</time>
      </trkpt>
      <trkpt lat="47.627632" lon="1.9455463">
        <ele>166</ele>
        <time>2021-10-28T08:37:55Z</time>
      </trkpt>
      <trkpt lat="47.62762" lon="1.9455509">
        <ele>165</ele>
        <time>2021-10-28T08:37:56Z</time>
      </trkpt>
      <trkpt lat="47.627605" lon="1.9455572">
        <ele>165</ele>
        <time>2021-10-28T08:37:57Z</time>
      </trkpt>
      <trkpt lat="47.62759" lon="1.9455605">
        <ele>165</ele>
        <time>2021-10-28T08:37:58Z</time>
      </trkpt>
      <trkpt lat="47.62758" lon="1.9455602">
        <ele>164</ele>
        <time>2021-10-28T08:37:59Z</time>
      </trkpt>
      <trkpt lat="47.627567" lon="1.945558">
        <ele>164</ele>
        <time>2021-10-28T08:38:00Z</time>
      </trkpt>
      <trkpt lat="47.627556" lon="1.9455547">
        <ele>165</ele>
        <time>2021-10-28T08:38:01Z</time>
      </trkpt>
      <trkpt lat="47.62754" lon="1.945548">
        <ele>165</ele>
        <time>2021-10-28T08:38:02Z</time>
      </trkpt>
      <trkpt lat="47.62753" lon="1.945547">
        <ele>164</ele>
        <time>2021-10-28T08:38:03Z</time>
      </trkpt>
      <trkpt lat="47.62752" lon="1.9455463">
        <ele>164</ele>
        <time>2021-10-28T08:38:04Z</time>
      </trkpt>
      <trkpt lat="47.627514" lon="1.9455503">
        <ele>164</ele>
        <time>2021-10-28T08:38:05Z</time>
      </trkpt>
      <trkpt lat="47.627502" lon="1.9455519">
        <ele>164</ele>
        <time>2021-10-28T08:38:06Z</time>
      </trkpt>
      <trkpt lat="47.627495" lon="1.9455552">
        <ele>164</ele>
        <time>2021-10-28T08:38:07Z</time>
      </trkpt>
      <trkpt lat="47.627483" lon="1.9455534">
        <ele>164</ele>
        <time>2021-10-28T08:38:08Z</time>
      </trkpt>
      <trkpt lat="47.627472" lon="1.9455489">
        <ele>164</ele>
        <time>2021-10-28T08:38:09Z</time>
      </trkpt>
      <trkpt lat="47.62746" lon="1.9455456">
        <ele>164</ele>
        <time>2021-10-28T08:38:10Z</time>
      </trkpt>
      <trkpt lat="47.62745" lon="1.945543">
        <ele>164</ele>
        <time>2021-10-28T08:38:11Z</time>
      </trkpt>
      <trkpt lat="47.627438" lon="1.9455385">
        <ele>164</ele>
        <time>2021-10-28T08:38:12Z</time>
      </trkpt>
      <trkpt lat="47.627426" lon="1.9455357">
        <ele>164</ele>
        <time>2021-10-28T08:38:13Z</time>
      </trkpt>
      <trkpt lat="47.62741" lon="1.9455284">
        <ele>163</ele>
        <time>2021-10-28T08:38:14Z</time>
      </trkpt>
      <trkpt lat="47.6274" lon="1.9455258">
        <ele>163</ele>
        <time>2021-10-28T08:38:15Z</time>
      </trkpt>
      <trkpt lat="47.62739" lon="1.9455277">
        <ele>163</ele>
        <time>2021-10-28T08:38:16Z</time>
      </trkpt>
      <trkpt lat="47.62738" lon="1.9455276">
        <ele>163</ele>
        <time>2021-10-28T08:38:17Z</time>
      </trkpt>
      <trkpt lat="47.62737" lon="1.9455212">
        <ele>163</ele>
        <time>2021-10-28T08:38:18Z</time>
      </trkpt>
      <trkpt lat="47.627354" lon="1.9455153">
        <ele>163</ele>
        <time>2021-10-28T08:38:19Z</time>
      </trkpt>
      <trkpt lat="47.627342" lon="1.9455103">
        <ele>163</ele>
        <time>2021-10-28T08:38:20Z</time>
      </trkpt>
      <trkpt lat="47.62733" lon="1.9455035">
        <ele>163</ele>
        <time>2021-10-28T08:38:21Z</time>
      </trkpt>
      <trkpt lat="47.627316" lon="1.9454982">
        <ele>163</ele>
        <time>2021-10-28T08:38:22Z</time>
      </trkpt>
      <trkpt lat="47.627304" lon="1.9454923">
        <ele>163</ele>
        <time>2021-10-28T08:38:23Z</time>
      </trkpt>
      <trkpt lat="47.627293" lon="1.9454873">
        <ele>163</ele>
        <time>2021-10-28T08:38:24Z</time>
      </trkpt>
      <trkpt lat="47.62728" lon="1.9454831">
        <ele>163</ele>
        <time>2021-10-28T08:38:25Z</time>
      </trkpt>
      <trkpt lat="47.62727" lon="1.9454796">
        <ele>163</ele>
        <time>2021-10-28T08:38:26Z</time>
      </trkpt>
      <trkpt lat="47.62726" lon="1.9454753">
        <ele>163</ele>
        <time>2021-10-28T08:38:27Z</time>
      </trkpt>
      <trkpt lat="47.627247" lon="1.9454745">
        <ele>163</ele>
        <time>2021-10-28T08:38:28Z</time>
      </trkpt>
      <trkpt lat="47.627235" lon="1.9454726">
        <ele>163</ele>
        <time>2021-10-28T08:38:29Z</time>
      </trkpt>
      <trkpt lat="47.62722" lon="1.9454697">
        <ele>163</ele>
        <time>2021-10-28T08:38:30Z</time>
      </trkpt>
      <trkpt lat="47.62721" lon="1.9454674">
        <ele>163</ele>
        <time>2021-10-28T08:38:31Z</time>
      </trkpt>
      <trkpt lat="47.627197" lon="1.9454651">
        <ele>163</ele>
        <time>2021-10-28T08:38:32Z</time>
      </trkpt>
      <trkpt lat="47.627182" lon="1.9454606">
        <ele>164</ele>
        <time>2021-10-28T08:38:33Z</time>
      </trkpt>
      <trkpt lat="47.62717" lon="1.9454552">
        <ele>164</ele>
        <time>2021-10-28T08:38:34Z</time>
      </trkpt>
      <trkpt lat="47.627163" lon="1.9454464">
        <ele>164</ele>
        <time>2021-10-28T08:38:35Z</time>
      </trkpt>
      <trkpt lat="47.62715" lon="1.945439">
        <ele>164</ele>
        <time>2021-10-28T08:38:36Z</time>
      </trkpt>
      <trkpt lat="47.62714" lon="1.9454324">
        <ele>164</ele>
        <time>2021-10-28T08:38:37Z</time>
      </trkpt>
      <trkpt lat="47.62713" lon="1.9454231">
        <ele>164</ele>
        <time>2021-10-28T08:38:38Z</time>
      </trkpt>
      <trkpt lat="47.627117" lon="1.9454205">
        <ele>163</ele>
        <time>2021-10-28T08:38:39Z</time>
      </trkpt>
      <trkpt lat="47.62711" lon="1.9454219">
        <ele>163</ele>
        <time>2021-10-28T08:38:40Z</time>
      </trkpt>
      <trkpt lat="47.6271" lon="1.9454207">
        <ele>163</ele>
        <time>2021-10-28T08:38:41Z</time>
      </trkpt>
      <trkpt lat="47.62709" lon="1.9454195">
        <ele>163</ele>
        <time>2021-10-28T08:38:42Z</time>
      </trkpt>
      <trkpt lat="47.62708" lon="1.9454154">
        <ele>163</ele>
        <time>2021-10-28T08:38:43Z</time>
      </trkpt>
      <trkpt lat="47.62707" lon="1.9454131">
        <ele>163</ele>
        <time>2021-10-28T08:38:44Z</time>
      </trkpt>
      <trkpt lat="47.627064" lon="1.9454134">
        <ele>163</ele>
        <time>2021-10-28T08:38:45Z</time>
      </trkpt>
      <trkpt lat="47.627052" lon="1.9454134">
        <ele>163</ele>
        <time>2021-10-28T08:38:46Z</time>
      </trkpt>
      <trkpt lat="47.627045" lon="1.9454123">
        <ele>163</ele>
        <time>2021-10-28T08:38:47Z</time>
      </trkpt>
      <trkpt lat="47.62703" lon="1.9454137">
        <ele>163</ele>
        <time>2021-10-28T08:38:48Z</time>
      </trkpt>
      <trkpt lat="47.627018" lon="1.9454136">
        <ele>163</ele>
        <time>2021-10-28T08:38:49Z</time>
      </trkpt>
      <trkpt lat="47.62701" lon="1.9454114">
        <ele>163</ele>
        <time>2021-10-28T08:38:50Z</time>
      </trkpt>
      <trkpt lat="47.627" lon="1.9454093">
        <ele>163</ele>
        <time>2021-10-28T08:38:51Z</time>
      </trkpt>
      <trkpt lat="47.626984" lon="1.9454069">
        <ele>162</ele>
        <time>2021-10-28T08:38:52Z</time>
      </trkpt>
      <trkpt lat="47.626972" lon="1.9454035">
        <ele>162</ele>
        <time>2021-10-28T08:38:53Z</time>
      </trkpt>
      <trkpt lat="47.62696" lon="1.9453994">
        <ele>162</ele>
        <time>2021-10-28T08:38:54Z</time>
      </trkpt>
      <trkpt lat="47.626953" lon="1.9454005">
        <ele>161</ele>
        <time>2021-10-28T08:38:55Z</time>
      </trkpt>
      <trkpt lat="47.62694" lon="1.945402">
        <ele>162</ele>
        <time>2021-10-28T08:38:56Z</time>
      </trkpt>
      <trkpt lat="47.62693" lon="1.9454014">
        <ele>161</ele>
        <time>2021-10-28T08:38:57Z</time>
      </trkpt>
      <trkpt lat="47.626923" lon="1.9454011">
        <ele>161</ele>
        <time>2021-10-28T08:38:58Z</time>
      </trkpt>
      <trkpt lat="47.62691" lon="1.9453994">
        <ele>161</ele>
        <time>2021-10-28T08:38:59Z</time>
      </trkpt>
      <trkpt lat="47.6269" lon="1.9453977">
        <ele>161</ele>
        <time>2021-10-28T08:39:00Z</time>
      </trkpt>
      <trkpt lat="47.626892" lon="1.9453982">
        <ele>161</ele>
        <time>2021-10-28T08:39:01Z</time>
      </trkpt>
      <trkpt lat="47.62688" lon="1.9453979">
        <ele>161</ele>
        <time>2021-10-28T08:39:02Z</time>
      </trkpt>
      <trkpt lat="47.626865" lon="1.9453999">
        <ele>161</ele>
        <time>2021-10-28T08:39:03Z</time>
      </trkpt>
      <trkpt lat="47.626854" lon="1.945401">
        <ele>161</ele>
        <time>2021-10-28T08:39:04Z</time>
      </trkpt>
      <trkpt lat="47.626842" lon="1.9453989">
        <ele>161</ele>
        <time>2021-10-28T08:39:05Z</time>
      </trkpt>
      <trkpt lat="47.62683" lon="1.9453984">
        <ele>162</ele>
        <time>2021-10-28T08:39:06Z</time>
      </trkpt>
      <trkpt lat="47.62682" lon="1.9454001">
        <ele>161</ele>
        <time>2021-10-28T08:39:07Z</time>
      </trkpt>
      <trkpt lat="47.62681" lon="1.9454026">
        <ele>161</ele>
        <time>2021-10-28T08:39:08Z</time>
      </trkpt>
      <trkpt lat="47.626797" lon="1.9454088">
        <ele>161</ele>
        <time>2021-10-28T08:39:09Z</time>
      </trkpt>
      <trkpt lat="47.626785" lon="1.945416">
        <ele>161</ele>
        <time>2021-10-28T08:39:10Z</time>
      </trkpt>
      <trkpt lat="47.626774" lon="1.9454194">
        <ele>161</ele>
        <time>2021-10-28T08:39:11Z</time>
      </trkpt>
      <trkpt lat="47.626762" lon="1.9454222">
        <ele>160</ele>
        <time>2021-10-28T08:39:12Z</time>
      </trkpt>
      <trkpt lat="47.62675" lon="1.9454246">
        <ele>161</ele>
        <time>2021-10-28T08:39:13Z</time>
      </trkpt>
      <trkpt lat="47.62674" lon="1.945429">
        <ele>160</ele>
        <time>2021-10-28T08:39:14Z</time>
      </trkpt>
      <trkpt lat="47.626724" lon="1.9454329">
        <ele>160</ele>
        <time>2021-10-28T08:39:15Z</time>
      </trkpt>
      <trkpt lat="47.626713" lon="1.9454403">
        <ele>160</ele>
        <time>2021-10-28T08:39:16Z</time>
      </trkpt>
      <trkpt lat="47.6267" lon="1.9454455">
        <ele>160</ele>
        <time>2021-10-28T08:39:17Z</time>
      </trkpt>
      <trkpt lat="47.62669" lon="1.9454509">
        <ele>160</ele>
        <time>2021-10-28T08:39:18Z</time>
      </trkpt>
      <trkpt lat="47.62668" lon="1.9454559">
        <ele>160</ele>
        <time>2021-10-28T08:39:19Z</time>
      </trkpt>
      <trkpt lat="47.626663" lon="1.9454572">
        <ele>160</ele>
        <time>2021-10-28T08:39:20Z</time>
      </trkpt>
      <trkpt lat="47.626648" lon="1.9454558">
        <ele>160</ele>
        <time>2021-10-28T08:39:21Z</time>
      </trkpt>
      <trkpt lat="47.626637" lon="1.9454547">
        <ele>160</ele>
        <time>2021-10-28T08:39:22Z</time>
      </trkpt>
      <trkpt lat="47.626625" lon="1.945454">
        <ele>160</ele>
        <time>2021-10-28T08:39:23Z</time>
      </trkpt>
      <trkpt lat="47.626614" lon="1.9454509">
        <ele>160</ele>
        <time>2021-10-28T08:39:24Z</time>
      </trkpt>
      <trkpt lat="47.626602" lon="1.9454538">
        <ele>160</ele>
        <time>2021-10-28T08:39:25Z</time>
      </trkpt>
      <trkpt lat="47.62659" lon="1.9454515">
        <ele>159</ele>
        <time>2021-10-28T08:39:26Z</time>
      </trkpt>
      <trkpt lat="47.62658" lon="1.9454557">
        <ele>159</ele>
        <time>2021-10-28T08:39:27Z</time>
      </trkpt>
      <trkpt lat="47.62657" lon="1.9454558">
        <ele>159</ele>
        <time>2021-10-28T08:39:28Z</time>
      </trkpt>
      <trkpt lat="47.62656" lon="1.9454653">
        <ele>159</ele>
        <time>2021-10-28T08:39:29Z</time>
      </trkpt>
      <trkpt lat="47.626553" lon="1.9454706">
        <ele>159</ele>
        <time>2021-10-28T08:39:30Z</time>
      </trkpt>
      <trkpt lat="47.62654" lon="1.9454676">
        <ele>158</ele>
        <time>2021-10-28T08:39:31Z</time>
      </trkpt>
      <trkpt lat="47.626534" lon="1.9454669">
        <ele>158</ele>
        <time>2021-10-28T08:39:32Z</time>
      </trkpt>
      <trkpt lat="47.626522" lon="1.9454687">
        <ele>158</ele>
        <time>2021-10-28T08:39:33Z</time>
      </trkpt>
      <trkpt lat="47.626514" lon="1.945471">
        <ele>158</ele>
        <time>2021-10-28T08:39:34Z</time>
      </trkpt>
      <trkpt lat="47.626503" lon="1.945476">
        <ele>158</ele>
        <time>2021-10-28T08:39:35Z</time>
      </trkpt>
      <trkpt lat="47.626495" lon="1.9454798">
        <ele>158</ele>
        <time>2021-10-28T08:39:36Z</time>
      </trkpt>
      <trkpt lat="47.62648" lon="1.9454851">
        <ele>158</ele>
        <time>2021-10-28T08:39:37Z</time>
      </trkpt>
      <trkpt lat="47.626465" lon="1.9454865">
        <ele>158</ele>
        <time>2021-10-28T08:39:38Z</time>
      </trkpt>
      <trkpt lat="47.62645" lon="1.9454898">
        <ele>158</ele>
        <time>2021-10-28T08:39:39Z</time>
      </trkpt>
      <trkpt lat="47.626434" lon="1.9454918">
        <ele>159</ele>
        <time>2021-10-28T08:39:40Z</time>
      </trkpt>
      <trkpt lat="47.626423" lon="1.9454939">
        <ele>159</ele>
        <time>2021-10-28T08:39:41Z</time>
      </trkpt>
      <trkpt lat="47.626408" lon="1.9454947">
        <ele>159</ele>
        <time>2021-10-28T08:39:42Z</time>
      </trkpt>
      <trkpt lat="47.626392" lon="1.9454968">
        <ele>159</ele>
        <time>2021-10-28T08:39:43Z</time>
      </trkpt>
      <trkpt lat="47.626377" lon="1.9454954">
        <ele>159</ele>
        <time>2021-10-28T08:39:44Z</time>
      </trkpt>
      <trkpt lat="47.626366" lon="1.945491">
        <ele>159</ele>
        <time>2021-10-28T08:39:45Z</time>
      </trkpt>
      <trkpt lat="47.626354" lon="1.9454892">
        <ele>159</ele>
        <time>2021-10-28T08:39:46Z</time>
      </trkpt>
      <trkpt lat="47.62634" lon="1.9454858">
        <ele>159</ele>
        <time>2021-10-28T08:39:47Z</time>
      </trkpt>
      <trkpt lat="47.626324" lon="1.9454757">
        <ele>159</ele>
        <time>2021-10-28T08:39:48Z</time>
      </trkpt>
      <trkpt lat="47.626312" lon="1.9454678">
        <ele>160</ele>
        <time>2021-10-28T08:39:49Z</time>
      </trkpt>
      <trkpt lat="47.6263" lon="1.9454575">
        <ele>160</ele>
        <time>2021-10-28T08:39:50Z</time>
      </trkpt>
      <trkpt lat="47.626293" lon="1.9454476">
        <ele>159</ele>
        <time>2021-10-28T08:39:51Z</time>
      </trkpt>
      <trkpt lat="47.62628" lon="1.9454371">
        <ele>160</ele>
        <time>2021-10-28T08:39:52Z</time>
      </trkpt>
      <trkpt lat="47.626274" lon="1.9454272">
        <ele>160</ele>
        <time>2021-10-28T08:39:53Z</time>
      </trkpt>
      <trkpt lat="47.626263" lon="1.9454174">
        <ele>160</ele>
        <time>2021-10-28T08:39:54Z</time>
      </trkpt>
      <trkpt lat="47.62625" lon="1.9454076">
        <ele>160</ele>
        <time>2021-10-28T08:39:55Z</time>
      </trkpt>
      <trkpt lat="47.62624" lon="1.9453958">
        <ele>160</ele>
        <time>2021-10-28T08:39:56Z</time>
      </trkpt>
      <trkpt lat="47.626232" lon="1.9453852">
        <ele>160</ele>
        <time>2021-10-28T08:39:57Z</time>
      </trkpt>
      <trkpt lat="47.62622" lon="1.9453756">
        <ele>160</ele>
        <time>2021-10-28T08:39:58Z</time>
      </trkpt>
      <trkpt lat="47.62621" lon="1.9453739">
        <ele>161</ele>
        <time>2021-10-28T08:39:59Z</time>
      </trkpt>
      <trkpt lat="47.6262" lon="1.9453716">
        <ele>161</ele>
        <time>2021-10-28T08:40:00Z</time>
      </trkpt>
      <trkpt lat="47.6262" lon="1.9453716">
        <ele>161</ele>
        <time>2021-10-28T08:40:01Z</time>
      </trkpt>
      <trkpt lat="47.6262" lon="1.9453716">
        <ele>161</ele>
        <time>2021-10-28T08:40:02Z</time>
      </trkpt>
      <trkpt lat="47.626175" lon="1.9453454">
        <ele>161</ele>
        <time>2021-10-28T08:40:03Z</time>
      </trkpt>
      <trkpt lat="47.626163" lon="1.9453372">
        <ele>162</ele>
        <time>2021-10-28T08:40:04Z</time>
      </trkpt>
      <trkpt lat="47.62616" lon="1.9453309">
        <ele>162</ele>
        <time>2021-10-28T08:40:05Z</time>
      </trkpt>
      <trkpt lat="47.626152" lon="1.9453233">
        <ele>162</ele>
        <time>2021-10-28T08:40:06Z</time>
      </trkpt>
      <trkpt lat="47.626152" lon="1.9453233">
        <ele>162</ele>
        <time>2021-10-28T08:40:07Z</time>
      </trkpt>
      <trkpt lat="47.626152" lon="1.9453233">
        <ele>162</ele>
        <time>2021-10-28T08:40:08Z</time>
      </trkpt>
      <trkpt lat="47.62613" lon="1.9453121">
        <ele>163</ele>
        <time>2021-10-28T08:40:09Z</time>
      </trkpt>
      <trkpt lat="47.626125" lon="1.9453068">
        <ele>162</ele>
        <time>2021-10-28T08:40:10Z</time>
      </trkpt>
      <trkpt lat="47.626118" lon="1.945299">
        <ele>162</ele>
        <time>2021-10-28T08:40:11Z</time>
      </trkpt>
      <trkpt lat="47.626106" lon="1.9452857">
        <ele>162</ele>
        <time>2021-10-28T08:40:12Z</time>
      </trkpt>
      <trkpt lat="47.6261" lon="1.9452726">
        <ele>161</ele>
        <time>2021-10-28T08:40:13Z</time>
      </trkpt>
      <trkpt lat="47.626087" lon="1.9452584">
        <ele>161</ele>
        <time>2021-10-28T08:40:14Z</time>
      </trkpt>
      <trkpt lat="47.626076" lon="1.9452488">
        <ele>162</ele>
        <time>2021-10-28T08:40:15Z</time>
      </trkpt>
      <trkpt lat="47.62607" lon="1.9452381">
        <ele>162</ele>
        <time>2021-10-28T08:40:16Z</time>
      </trkpt>
      <trkpt lat="47.62606" lon="1.9452243">
        <ele>162</ele>
        <time>2021-10-28T08:40:17Z</time>
      </trkpt>
      <trkpt lat="47.62605" lon="1.9452099">
        <ele>162</ele>
        <time>2021-10-28T08:40:18Z</time>
      </trkpt>
      <trkpt lat="47.62604" lon="1.9451934">
        <ele>162</ele>
        <time>2021-10-28T08:40:19Z</time>
      </trkpt>
      <trkpt lat="47.62603" lon="1.9451798">
        <ele>162</ele>
        <time>2021-10-28T08:40:20Z</time>
      </trkpt>
      <trkpt lat="47.62602" lon="1.945166">
        <ele>162</ele>
        <time>2021-10-28T08:40:21Z</time>
      </trkpt>
      <trkpt lat="47.626007" lon="1.9451519">
        <ele>163</ele>
        <time>2021-10-28T08:40:22Z</time>
      </trkpt>
      <trkpt lat="47.625996" lon="1.9451327">
        <ele>163</ele>
        <time>2021-10-28T08:40:23Z</time>
      </trkpt>
      <trkpt lat="47.625988" lon="1.945122">
        <ele>163</ele>
        <time>2021-10-28T08:40:24Z</time>
      </trkpt>
      <trkpt lat="47.62598" lon="1.9451107">
        <ele>164</ele>
        <time>2021-10-28T08:40:25Z</time>
      </trkpt>
      <trkpt lat="47.62597" lon="1.9450965">
        <ele>164</ele>
        <time>2021-10-28T08:40:26Z</time>
      </trkpt>
      <trkpt lat="47.62596" lon="1.9450791">
        <ele>164</ele>
        <time>2021-10-28T08:40:27Z</time>
      </trkpt>
      <trkpt lat="47.625954" lon="1.9450632">
        <ele>164</ele>
        <time>2021-10-28T08:40:28Z</time>
      </trkpt>
      <trkpt lat="47.625946" lon="1.9450481">
        <ele>165</ele>
        <time>2021-10-28T08:40:29Z</time>
      </trkpt>
      <trkpt lat="47.625935" lon="1.9450347">
        <ele>165</ele>
        <time>2021-10-28T08:40:30Z</time>
      </trkpt>
      <trkpt lat="47.625927" lon="1.9450235">
        <ele>165</ele>
        <time>2021-10-28T08:40:31Z</time>
      </trkpt>
      <trkpt lat="47.62592" lon="1.9450126">
        <ele>166</ele>
        <time>2021-10-28T08:40:32Z</time>
      </trkpt>
      <trkpt lat="47.62591" lon="1.9450032">
        <ele>166</ele>
        <time>2021-10-28T08:40:33Z</time>
      </trkpt>
      <trkpt lat="47.625904" lon="1.9449933">
        <ele>166</ele>
        <time>2021-10-28T08:40:34Z</time>
      </trkpt>
      <trkpt lat="47.625904" lon="1.9449933">
        <ele>166</ele>
        <time>2021-10-28T08:40:35Z</time>
      </trkpt>
      <trkpt lat="47.625904" lon="1.9449933">
        <ele>166</ele>
        <time>2021-10-28T08:40:36Z</time>
      </trkpt>
      <trkpt lat="47.62589" lon="1.9449761">
        <ele>166</ele>
        <time>2021-10-28T08:40:37Z</time>
      </trkpt>
      <trkpt lat="47.625877" lon="1.944967">
        <ele>167</ele>
        <time>2021-10-28T08:40:38Z</time>
      </trkpt>
      <trkpt lat="47.62587" lon="1.9449548">
        <ele>167</ele>
        <time>2021-10-28T08:40:39Z</time>
      </trkpt>
      <trkpt lat="47.625862" lon="1.9449433">
        <ele>167</ele>
        <time>2021-10-28T08:40:40Z</time>
      </trkpt>
      <trkpt lat="47.625854" lon="1.9449364">
        <ele>166</ele>
        <time>2021-10-28T08:40:41Z</time>
      </trkpt>
      <trkpt lat="47.625847" lon="1.9449288">
        <ele>167</ele>
        <time>2021-10-28T08:40:42Z</time>
      </trkpt>
      <trkpt lat="47.625847" lon="1.9449288">
        <ele>167</ele>
        <time>2021-10-28T08:40:43Z</time>
      </trkpt>
      <trkpt lat="47.625847" lon="1.9449288">
        <ele>167</ele>
        <time>2021-10-28T08:40:44Z</time>
      </trkpt>
      <trkpt lat="47.625828" lon="1.944911">
        <ele>167</ele>
        <time>2021-10-28T08:40:45Z</time>
      </trkpt>
      <trkpt lat="47.62582" lon="1.9449046">
        <ele>167</ele>
        <time>2021-10-28T08:40:46Z</time>
      </trkpt>
      <trkpt lat="47.625813" lon="1.9448944">
        <ele>167</ele>
        <time>2021-10-28T08:40:47Z</time>
      </trkpt>
      <trkpt lat="47.625805" lon="1.9448866">
        <ele>167</ele>
        <time>2021-10-28T08:40:48Z</time>
      </trkpt>
      <trkpt lat="47.625805" lon="1.9448866">
        <ele>167</ele>
        <time>2021-10-28T08:40:49Z</time>
      </trkpt>
      <trkpt lat="47.625805" lon="1.9448866">
        <ele>167</ele>
        <time>2021-10-28T08:40:50Z</time>
      </trkpt>
      <trkpt lat="47.625786" lon="1.9448564">
        <ele>167</ele>
        <time>2021-10-28T08:40:51Z</time>
      </trkpt>
      <trkpt lat="47.62578" lon="1.944841">
        <ele>167</ele>
        <time>2021-10-28T08:40:52Z</time>
      </trkpt>
      <trkpt lat="47.62577" lon="1.9448248">
        <ele>167</ele>
        <time>2021-10-28T08:40:53Z</time>
      </trkpt>
      <trkpt lat="47.62576" lon="1.9448098">
        <ele>166</ele>
        <time>2021-10-28T08:40:54Z</time>
      </trkpt>
      <trkpt lat="47.625748" lon="1.9447962">
        <ele>166</ele>
        <time>2021-10-28T08:40:55Z</time>
      </trkpt>
      <trkpt lat="47.625736" lon="1.9447856">
        <ele>165</ele>
        <time>2021-10-28T08:40:56Z</time>
      </trkpt>
      <trkpt lat="47.62573" lon="1.9447713">
        <ele>165</ele>
        <time>2021-10-28T08:40:57Z</time>
      </trkpt>
      <trkpt lat="47.625713" lon="1.9447566">
        <ele>165</ele>
        <time>2021-10-28T08:40:58Z</time>
      </trkpt>
      <trkpt lat="47.6257" lon="1.9447428">
        <ele>165</ele>
        <time>2021-10-28T08:40:59Z</time>
      </trkpt>
      <trkpt lat="47.625694" lon="1.9447298">
        <ele>166</ele>
        <time>2021-10-28T08:41:00Z</time>
      </trkpt>
      <trkpt lat="47.625687" lon="1.9447178">
        <ele>166</ele>
        <time>2021-10-28T08:41:01Z</time>
      </trkpt>
      <trkpt lat="47.625675" lon="1.944704">
        <ele>166</ele>
        <time>2021-10-28T08:41:02Z</time>
      </trkpt>
      <trkpt lat="47.625668" lon="1.9446911">
        <ele>167</ele>
        <time>2021-10-28T08:41:03Z</time>
      </trkpt>
      <trkpt lat="47.625668" lon="1.9446911">
        <ele>167</ele>
        <time>2021-10-28T08:41:04Z</time>
      </trkpt>
      <trkpt lat="47.625668" lon="1.9446911">
        <ele>167</ele>
        <time>2021-10-28T08:41:05Z</time>
      </trkpt>
      <trkpt lat="47.62564" lon="1.9446595">
        <ele>167</ele>
        <time>2021-10-28T08:41:06Z</time>
      </trkpt>
      <trkpt lat="47.625633" lon="1.9446474">
        <ele>168</ele>
        <time>2021-10-28T08:41:07Z</time>
      </trkpt>
      <trkpt lat="47.625626" lon="1.94464">
        <ele>167</ele>
        <time>2021-10-28T08:41:08Z</time>
      </trkpt>
      <trkpt lat="47.625614" lon="1.9446332">
        <ele>167</ele>
        <time>2021-10-28T08:41:09Z</time>
      </trkpt>
      <trkpt lat="47.625614" lon="1.9446332">
        <ele>167</ele>
        <time>2021-10-28T08:41:10Z</time>
      </trkpt>
      <trkpt lat="47.625595" lon="1.9446149">
        <ele>167</ele>
        <time>2021-10-28T08:41:11Z</time>
      </trkpt>
      <trkpt lat="47.625584" lon="1.9446037">
        <ele>167</ele>
        <time>2021-10-28T08:41:12Z</time>
      </trkpt>
      <trkpt lat="47.625572" lon="1.9445882">
        <ele>168</ele>
        <time>2021-10-28T08:41:13Z</time>
      </trkpt>
      <trkpt lat="47.62556" lon="1.9445733">
        <ele>168</ele>
        <time>2021-10-28T08:41:14Z</time>
      </trkpt>
      <trkpt lat="47.625553" lon="1.9445614">
        <ele>168</ele>
        <time>2021-10-28T08:41:15Z</time>
      </trkpt>
      <trkpt lat="47.625553" lon="1.9445614">
        <ele>168</ele>
        <time>2021-10-28T08:41:16Z</time>
      </trkpt>
      <trkpt lat="47.625553" lon="1.9445614">
        <ele>168</ele>
        <time>2021-10-28T08:41:17Z</time>
      </trkpt>
      <trkpt lat="47.62553" lon="1.9445179">
        <ele>168</ele>
        <time>2021-10-28T08:41:18Z</time>
      </trkpt>
      <trkpt lat="47.625523" lon="1.9445026">
        <ele>168</ele>
        <time>2021-10-28T08:41:19Z</time>
      </trkpt>
      <trkpt lat="47.62551" lon="1.9444844">
        <ele>168</ele>
        <time>2021-10-28T08:41:20Z</time>
      </trkpt>
      <trkpt lat="47.6255" lon="1.9444675">
        <ele>169</ele>
        <time>2021-10-28T08:41:21Z</time>
      </trkpt>
      <trkpt lat="47.62549" lon="1.9444509">
        <ele>169</ele>
        <time>2021-10-28T08:41:22Z</time>
      </trkpt>
      <trkpt lat="47.62548" lon="1.9444373">
        <ele>169</ele>
        <time>2021-10-28T08:41:23Z</time>
      </trkpt>
      <trkpt lat="47.62547" lon="1.9444261">
        <ele>169</ele>
        <time>2021-10-28T08:41:24Z</time>
      </trkpt>
      <trkpt lat="47.62546" lon="1.9444153">
        <ele>168</ele>
        <time>2021-10-28T08:41:25Z</time>
      </trkpt>
      <trkpt lat="47.62545" lon="1.9444048">
        <ele>169</ele>
        <time>2021-10-28T08:41:26Z</time>
      </trkpt>
      <trkpt lat="47.625443" lon="1.9443917">
        <ele>169</ele>
        <time>2021-10-28T08:41:27Z</time>
      </trkpt>
      <trkpt lat="47.625427" lon="1.9443772">
        <ele>169</ele>
        <time>2021-10-28T08:41:28Z</time>
      </trkpt>
      <trkpt lat="47.625416" lon="1.9443586">
        <ele>169</ele>
        <time>2021-10-28T08:41:29Z</time>
      </trkpt>
      <trkpt lat="47.62541" lon="1.9443445">
        <ele>169</ele>
        <time>2021-10-28T08:41:30Z</time>
      </trkpt>
      <trkpt lat="47.625397" lon="1.9443318">
        <ele>169</ele>
        <time>2021-10-28T08:41:31Z</time>
      </trkpt>
      <trkpt lat="47.62539" lon="1.9443194">
        <ele>169</ele>
        <time>2021-10-28T08:41:32Z</time>
      </trkpt>
      <trkpt lat="47.62539" lon="1.9443194">
        <ele>169</ele>
        <time>2021-10-28T08:41:33Z</time>
      </trkpt>
      <trkpt lat="47.62539" lon="1.9443194">
        <ele>169</ele>
        <time>2021-10-28T08:41:34Z</time>
      </trkpt>
      <trkpt lat="47.625362" lon="1.944294">
        <ele>168</ele>
        <time>2021-10-28T08:41:35Z</time>
      </trkpt>
      <trkpt lat="47.625355" lon="1.9442828">
        <ele>168</ele>
        <time>2021-10-28T08:41:36Z</time>
      </trkpt>
      <trkpt lat="47.625347" lon="1.9442725">
        <ele>168</ele>
        <time>2021-10-28T08:41:37Z</time>
      </trkpt>
      <trkpt lat="47.62534" lon="1.9442649">
        <ele>168</ele>
        <time>2021-10-28T08:41:38Z</time>
      </trkpt>
      <trkpt lat="47.625328" lon="1.9442499">
        <ele>168</ele>
        <time>2021-10-28T08:41:39Z</time>
      </trkpt>
      <trkpt lat="47.62532" lon="1.9442375">
        <ele>168</ele>
        <time>2021-10-28T08:41:40Z</time>
      </trkpt>
      <trkpt lat="47.625313" lon="1.9442225">
        <ele>168</ele>
        <time>2021-10-28T08:41:41Z</time>
      </trkpt>
      <trkpt lat="47.6253" lon="1.944207">
        <ele>168</ele>
        <time>2021-10-28T08:41:42Z</time>
      </trkpt>
      <trkpt lat="47.625294" lon="1.944195">
        <ele>168</ele>
        <time>2021-10-28T08:41:43Z</time>
      </trkpt>
      <trkpt lat="47.625282" lon="1.9441853">
        <ele>167</ele>
        <time>2021-10-28T08:41:44Z</time>
      </trkpt>
      <trkpt lat="47.625275" lon="1.9441757">
        <ele>167</ele>
        <time>2021-10-28T08:41:45Z</time>
      </trkpt>
      <trkpt lat="47.625263" lon="1.9441652">
        <ele>167</ele>
        <time>2021-10-28T08:41:46Z</time>
      </trkpt>
      <trkpt lat="47.62525" lon="1.9441521">
        <ele>167</ele>
        <time>2021-10-28T08:41:47Z</time>
      </trkpt>
      <trkpt lat="47.625244" lon="1.9441389">
        <ele>167</ele>
        <time>2021-10-28T08:41:48Z</time>
      </trkpt>
      <trkpt lat="47.625237" lon="1.9441262">
        <ele>167</ele>
        <time>2021-10-28T08:41:49Z</time>
      </trkpt>
      <trkpt lat="47.62523" lon="1.944117">
        <ele>167</ele>
        <time>2021-10-28T08:41:50Z</time>
      </trkpt>
      <trkpt lat="47.62523" lon="1.944117">
        <ele>167</ele>
        <time>2021-10-28T08:41:51Z</time>
      </trkpt>
      <trkpt lat="47.62523" lon="1.944117">
        <ele>167</ele>
        <time>2021-10-28T08:41:52Z</time>
      </trkpt>
      <trkpt lat="47.625206" lon="1.9440817">
        <ele>166</ele>
        <time>2021-10-28T08:41:53Z</time>
      </trkpt>
      <trkpt lat="47.62519" lon="1.9440641">
        <ele>166</ele>
        <time>2021-10-28T08:41:54Z</time>
      </trkpt>
      <trkpt lat="47.625183" lon="1.9440488">
        <ele>166</ele>
        <time>2021-10-28T08:41:55Z</time>
      </trkpt>
      <trkpt lat="47.62517" lon="1.9440378">
        <ele>166</ele>
        <time>2021-10-28T08:41:56Z</time>
      </trkpt>
      <trkpt lat="47.625164" lon="1.9440286">
        <ele>166</ele>
        <time>2021-10-28T08:41:57Z</time>
      </trkpt>
      <trkpt lat="47.625156" lon="1.944018">
        <ele>166</ele>
        <time>2021-10-28T08:41:58Z</time>
      </trkpt>
      <trkpt lat="47.62514" lon="1.9440055">
        <ele>167</ele>
        <time>2021-10-28T08:41:59Z</time>
      </trkpt>
      <trkpt lat="47.62513" lon="1.9439902">
        <ele>167</ele>
        <time>2021-10-28T08:42:00Z</time>
      </trkpt>
      <trkpt lat="47.625122" lon="1.9439805">
        <ele>168</ele>
        <time>2021-10-28T08:42:01Z</time>
      </trkpt>
      <trkpt lat="47.625114" lon="1.9439734">
        <ele>167</ele>
        <time>2021-10-28T08:42:02Z</time>
      </trkpt>
      <trkpt lat="47.625103" lon="1.9439641">
        <ele>167</ele>
        <time>2021-10-28T08:42:03Z</time>
      </trkpt>
      <trkpt lat="47.62509" lon="1.9439538">
        <ele>167</ele>
        <time>2021-10-28T08:42:04Z</time>
      </trkpt>
      <trkpt lat="47.625084" lon="1.9439414">
        <ele>168</ele>
        <time>2021-10-28T08:42:05Z</time>
      </trkpt>
      <trkpt lat="47.625072" lon="1.9439306">
        <ele>168</ele>
        <time>2021-10-28T08:42:06Z</time>
      </trkpt>
      <trkpt lat="47.62506" lon="1.9439193">
        <ele>168</ele>
        <time>2021-10-28T08:42:07Z</time>
      </trkpt>
      <trkpt lat="47.62505" lon="1.9439073">
        <ele>168</ele>
        <time>2021-10-28T08:42:08Z</time>
      </trkpt>
      <trkpt lat="47.62504" lon="1.9438915">
        <ele>167</ele>
        <time>2021-10-28T08:42:09Z</time>
      </trkpt>
      <trkpt lat="47.625023" lon="1.9438771">
        <ele>168</ele>
        <time>2021-10-28T08:42:10Z</time>
      </trkpt>
      <trkpt lat="47.62501" lon="1.9438572">
        <ele>168</ele>
        <time>2021-10-28T08:42:11Z</time>
      </trkpt>
      <trkpt lat="47.625" lon="1.9438391">
        <ele>168</ele>
        <time>2021-10-28T08:42:12Z</time>
      </trkpt>
      <trkpt lat="47.624992" lon="1.9438168">
        <ele>168</ele>
        <time>2021-10-28T08:42:13Z</time>
      </trkpt>
      <trkpt lat="47.62498" lon="1.9438038">
        <ele>167</ele>
        <time>2021-10-28T08:42:14Z</time>
      </trkpt>
      <trkpt lat="47.62497" lon="1.9437916">
        <ele>167</ele>
        <time>2021-10-28T08:42:15Z</time>
      </trkpt>
      <trkpt lat="47.624958" lon="1.9437786">
        <ele>167</ele>
        <time>2021-10-28T08:42:16Z</time>
      </trkpt>
      <trkpt lat="47.62495" lon="1.9437667">
        <ele>167</ele>
        <time>2021-10-28T08:42:17Z</time>
      </trkpt>
      <trkpt lat="47.62494" lon="1.9437549">
        <ele>167</ele>
        <time>2021-10-28T08:42:18Z</time>
      </trkpt>
      <trkpt lat="47.62493" lon="1.9437419">
        <ele>168</ele>
        <time>2021-10-28T08:42:19Z</time>
      </trkpt>
      <trkpt lat="47.62493" lon="1.9437419">
        <ele>168</ele>
        <time>2021-10-28T08:42:20Z</time>
      </trkpt>
      <trkpt lat="47.62493" lon="1.9437419">
        <ele>168</ele>
        <time>2021-10-28T08:42:21Z</time>
      </trkpt>
      <trkpt lat="47.624912" lon="1.9437094">
        <ele>168</ele>
        <time>2021-10-28T08:42:22Z</time>
      </trkpt>
      <trkpt lat="47.624905" lon="1.9436978">
        <ele>168</ele>
        <time>2021-10-28T08:42:23Z</time>
      </trkpt>
      <trkpt lat="47.624893" lon="1.9436866">
        <ele>169</ele>
        <time>2021-10-28T08:42:24Z</time>
      </trkpt>
      <trkpt lat="47.624886" lon="1.943674">
        <ele>169</ele>
        <time>2021-10-28T08:42:25Z</time>
      </trkpt>
      <trkpt lat="47.624874" lon="1.943658">
        <ele>169</ele>
        <time>2021-10-28T08:42:26Z</time>
      </trkpt>
      <trkpt lat="47.624866" lon="1.9436466">
        <ele>169</ele>
        <time>2021-10-28T08:42:27Z</time>
      </trkpt>
      <trkpt lat="47.62486" lon="1.9436327">
        <ele>168</ele>
        <time>2021-10-28T08:42:28Z</time>
      </trkpt>
      <trkpt lat="47.624844" lon="1.943617">
        <ele>168</ele>
        <time>2021-10-28T08:42:29Z</time>
      </trkpt>
      <trkpt lat="47.624836" lon="1.9436054">
        <ele>168</ele>
        <time>2021-10-28T08:42:30Z</time>
      </trkpt>
      <trkpt lat="47.62483" lon="1.9435922">
        <ele>168</ele>
        <time>2021-10-28T08:42:31Z</time>
      </trkpt>
      <trkpt lat="47.62482" lon="1.9435833">
        <ele>168</ele>
        <time>2021-10-28T08:42:32Z</time>
      </trkpt>
      <trkpt lat="47.624813" lon="1.9435698">
        <ele>168</ele>
        <time>2021-10-28T08:42:33Z</time>
      </trkpt>
      <trkpt lat="47.624805" lon="1.9435583">
        <ele>168</ele>
        <time>2021-10-28T08:42:34Z</time>
      </trkpt>
      <trkpt lat="47.624798" lon="1.9435469">
        <ele>168</ele>
        <time>2021-10-28T08:42:35Z</time>
      </trkpt>
      <trkpt lat="47.624786" lon="1.9435306">
        <ele>168</ele>
        <time>2021-10-28T08:42:36Z</time>
      </trkpt>
      <trkpt lat="47.62478" lon="1.9435067">
        <ele>168</ele>
        <time>2021-10-28T08:42:37Z</time>
      </trkpt>
      <trkpt lat="47.62477" lon="1.9434915">
        <ele>168</ele>
        <time>2021-10-28T08:42:38Z</time>
      </trkpt>
      <trkpt lat="47.624767" lon="1.9434781">
        <ele>168</ele>
        <time>2021-10-28T08:42:39Z</time>
      </trkpt>
      <trkpt lat="47.624767" lon="1.9434781">
        <ele>168</ele>
        <time>2021-10-28T08:42:40Z</time>
      </trkpt>
      <trkpt lat="47.624767" lon="1.9434781">
        <ele>168</ele>
        <time>2021-10-28T08:42:41Z</time>
      </trkpt>
      <trkpt lat="47.624752" lon="1.9434556">
        <ele>168</ele>
        <time>2021-10-28T08:42:42Z</time>
      </trkpt>
      <trkpt lat="47.62475" lon="1.9434427">
        <ele>168</ele>
        <time>2021-10-28T08:42:43Z</time>
      </trkpt>
      <trkpt lat="47.62475" lon="1.9434277">
        <ele>168</ele>
        <time>2021-10-28T08:42:44Z</time>
      </trkpt>
      <trkpt lat="47.624744" lon="1.9434099">
        <ele>168</ele>
        <time>2021-10-28T08:42:45Z</time>
      </trkpt>
      <trkpt lat="47.624737" lon="1.9433901">
        <ele>168</ele>
        <time>2021-10-28T08:42:46Z</time>
      </trkpt>
      <trkpt lat="47.624737" lon="1.9433722">
        <ele>169</ele>
        <time>2021-10-28T08:42:47Z</time>
      </trkpt>
      <trkpt lat="47.624737" lon="1.943354">
        <ele>169</ele>
        <time>2021-10-28T08:42:48Z</time>
      </trkpt>
      <trkpt lat="47.62473" lon="1.943338">
        <ele>169</ele>
        <time>2021-10-28T08:42:49Z</time>
      </trkpt>
      <trkpt lat="47.62473" lon="1.943338">
        <ele>169</ele>
        <time>2021-10-28T08:42:50Z</time>
      </trkpt>
      <trkpt lat="47.62473" lon="1.943338">
        <ele>169</ele>
        <time>2021-10-28T08:42:51Z</time>
      </trkpt>
      <trkpt lat="47.624718" lon="1.9432956">
        <ele>169</ele>
        <time>2021-10-28T08:42:52Z</time>
      </trkpt>
      <trkpt lat="47.624714" lon="1.9432764">
        <ele>169</ele>
        <time>2021-10-28T08:42:53Z</time>
      </trkpt>
      <trkpt lat="47.624714" lon="1.9432617">
        <ele>169</ele>
        <time>2021-10-28T08:42:54Z</time>
      </trkpt>
      <trkpt lat="47.62471" lon="1.9432496">
        <ele>169</ele>
        <time>2021-10-28T08:42:55Z</time>
      </trkpt>
      <trkpt lat="47.624706" lon="1.9432331">
        <ele>170</ele>
        <time>2021-10-28T08:42:56Z</time>
      </trkpt>
      <trkpt lat="47.6247" lon="1.9432162">
        <ele>170</ele>
        <time>2021-10-28T08:42:57Z</time>
      </trkpt>
      <trkpt lat="47.624683" lon="1.9432013">
        <ele>170</ele>
        <time>2021-10-28T08:42:58Z</time>
      </trkpt>
      <trkpt lat="47.624683" lon="1.9431835">
        <ele>170</ele>
        <time>2021-10-28T08:42:59Z</time>
      </trkpt>
      <trkpt lat="47.624683" lon="1.9431572">
        <ele>170</ele>
        <time>2021-10-28T08:43:00Z</time>
      </trkpt>
      <trkpt lat="47.624683" lon="1.9431382">
        <ele>170</ele>
        <time>2021-10-28T08:43:01Z</time>
      </trkpt>
      <trkpt lat="47.624676" lon="1.9431233">
        <ele>170</ele>
        <time>2021-10-28T08:43:02Z</time>
      </trkpt>
      <trkpt lat="47.62467" lon="1.9431093">
        <ele>170</ele>
        <time>2021-10-28T08:43:03Z</time>
      </trkpt>
      <trkpt lat="47.62467" lon="1.9431093">
        <ele>170</ele>
        <time>2021-10-28T08:43:04Z</time>
      </trkpt>
      <trkpt lat="47.624657" lon="1.9430813">
        <ele>171</ele>
        <time>2021-10-28T08:43:05Z</time>
      </trkpt>
      <trkpt lat="47.624653" lon="1.9430608">
        <ele>171</ele>
        <time>2021-10-28T08:43:06Z</time>
      </trkpt>
      <trkpt lat="47.62465" lon="1.9430429">
        <ele>171</ele>
        <time>2021-10-28T08:43:07Z</time>
      </trkpt>
      <trkpt lat="47.62464" lon="1.9430281">
        <ele>171</ele>
        <time>2021-10-28T08:43:08Z</time>
      </trkpt>
      <trkpt lat="47.624638" lon="1.9430119">
        <ele>171</ele>
        <time>2021-10-28T08:43:09Z</time>
      </trkpt>
      <trkpt lat="47.62463" lon="1.9429946">
        <ele>171</ele>
        <time>2021-10-28T08:43:10Z</time>
      </trkpt>
      <trkpt lat="47.624622" lon="1.942982">
        <ele>171</ele>
        <time>2021-10-28T08:43:11Z</time>
      </trkpt>
      <trkpt lat="47.62462" lon="1.9429679">
        <ele>172</ele>
        <time>2021-10-28T08:43:12Z</time>
      </trkpt>
      <trkpt lat="47.62461" lon="1.9429526">
        <ele>172</ele>
        <time>2021-10-28T08:43:13Z</time>
      </trkpt>
      <trkpt lat="47.624607" lon="1.9429348">
        <ele>172</ele>
        <time>2021-10-28T08:43:14Z</time>
      </trkpt>
      <trkpt lat="47.624603" lon="1.9429164">
        <ele>171</ele>
        <time>2021-10-28T08:43:15Z</time>
      </trkpt>
      <trkpt lat="47.6246" lon="1.9429005">
        <ele>171</ele>
        <time>2021-10-28T08:43:16Z</time>
      </trkpt>
      <trkpt lat="47.62459" lon="1.9428803">
        <ele>172</ele>
        <time>2021-10-28T08:43:17Z</time>
      </trkpt>
      <trkpt lat="47.62459" lon="1.9428574">
        <ele>172</ele>
        <time>2021-10-28T08:43:18Z</time>
      </trkpt>
      <trkpt lat="47.62459" lon="1.9428393">
        <ele>172</ele>
        <time>2021-10-28T08:43:19Z</time>
      </trkpt>
      <trkpt lat="47.62459" lon="1.9428188">
        <ele>172</ele>
        <time>2021-10-28T08:43:20Z</time>
      </trkpt>
      <trkpt lat="47.62459" lon="1.9428011">
        <ele>172</ele>
        <time>2021-10-28T08:43:21Z</time>
      </trkpt>
      <trkpt lat="47.62459" lon="1.9427854">
        <ele>171</ele>
        <time>2021-10-28T08:43:22Z</time>
      </trkpt>
      <trkpt lat="47.624588" lon="1.9427713">
        <ele>171</ele>
        <time>2021-10-28T08:43:23Z</time>
      </trkpt>
      <trkpt lat="47.62458" lon="1.942755">
        <ele>171</ele>
        <time>2021-10-28T08:43:24Z</time>
      </trkpt>
      <trkpt lat="47.624577" lon="1.9427432">
        <ele>171</ele>
        <time>2021-10-28T08:43:25Z</time>
      </trkpt>
      <trkpt lat="47.624577" lon="1.9427432">
        <ele>171</ele>
        <time>2021-10-28T08:43:26Z</time>
      </trkpt>
      <trkpt lat="47.624577" lon="1.9427432">
        <ele>171</ele>
        <time>2021-10-28T08:43:27Z</time>
      </trkpt>
      <trkpt lat="47.624565" lon="1.9427129">
        <ele>171</ele>
        <time>2021-10-28T08:43:28Z</time>
      </trkpt>
      <trkpt lat="47.624557" lon="1.9426979">
        <ele>171</ele>
        <time>2021-10-28T08:43:29Z</time>
      </trkpt>
      <trkpt lat="47.62455" lon="1.9426814">
        <ele>172</ele>
        <time>2021-10-28T08:43:30Z</time>
      </trkpt>
      <trkpt lat="47.624546" lon="1.9426634">
        <ele>171</ele>
        <time>2021-10-28T08:43:31Z</time>
      </trkpt>
      <trkpt lat="47.624542" lon="1.9426448">
        <ele>171</ele>
        <time>2021-10-28T08:43:32Z</time>
      </trkpt>
      <trkpt lat="47.624542" lon="1.942627">
        <ele>171</ele>
        <time>2021-10-28T08:43:33Z</time>
      </trkpt>
      <trkpt lat="47.624542" lon="1.9426142">
        <ele>171</ele>
        <time>2021-10-28T08:43:34Z</time>
      </trkpt>
      <trkpt lat="47.624535" lon="1.942597">
        <ele>171</ele>
        <time>2021-10-28T08:43:35Z</time>
      </trkpt>
      <trkpt lat="47.624527" lon="1.9425839">
        <ele>170</ele>
        <time>2021-10-28T08:43:36Z</time>
      </trkpt>
      <trkpt lat="47.624527" lon="1.9425839">
        <ele>170</ele>
        <time>2021-10-28T08:43:37Z</time>
      </trkpt>
      <trkpt lat="47.624527" lon="1.9425839">
        <ele>170</ele>
        <time>2021-10-28T08:43:38Z</time>
      </trkpt>
      <trkpt lat="47.62451" lon="1.9425428">
        <ele>171</ele>
        <time>2021-10-28T08:43:39Z</time>
      </trkpt>
      <trkpt lat="47.624508" lon="1.942534">
        <ele>171</ele>
        <time>2021-10-28T08:43:40Z</time>
      </trkpt>
      <trkpt lat="47.624504" lon="1.9425246">
        <ele>172</ele>
        <time>2021-10-28T08:43:41Z</time>
      </trkpt>
      <trkpt lat="47.624496" lon="1.9425118">
        <ele>172</ele>
        <time>2021-10-28T08:43:42Z</time>
      </trkpt>
      <trkpt lat="47.624496" lon="1.9425118">
        <ele>172</ele>
        <time>2021-10-28T08:43:43Z</time>
      </trkpt>
      <trkpt lat="47.624496" lon="1.9425118">
        <ele>172</ele>
        <time>2021-10-28T08:43:44Z</time>
      </trkpt>
      <trkpt lat="47.624485" lon="1.9424726">
        <ele>171</ele>
        <time>2021-10-28T08:43:45Z</time>
      </trkpt>
      <trkpt lat="47.62448" lon="1.9424531">
        <ele>171</ele>
        <time>2021-10-28T08:43:46Z</time>
      </trkpt>
      <trkpt lat="47.624474" lon="1.9424336">
        <ele>170</ele>
        <time>2021-10-28T08:43:47Z</time>
      </trkpt>
      <trkpt lat="47.624466" lon="1.9424162">
        <ele>170</ele>
        <time>2021-10-28T08:43:48Z</time>
      </trkpt>
      <trkpt lat="47.624466" lon="1.9424162">
        <ele>170</ele>
        <time>2021-10-28T08:43:49Z</time>
      </trkpt>
      <trkpt lat="47.624466" lon="1.9424162">
        <ele>170</ele>
        <time>2021-10-28T08:43:50Z</time>
      </trkpt>
      <trkpt lat="47.62446" lon="1.9423667">
        <ele>169</ele>
        <time>2021-10-28T08:43:51Z</time>
      </trkpt>
      <trkpt lat="47.62445" lon="1.9423525">
        <ele>169</ele>
        <time>2021-10-28T08:43:52Z</time>
      </trkpt>
      <trkpt lat="47.624447" lon="1.9423345">
        <ele>169</ele>
        <time>2021-10-28T08:43:53Z</time>
      </trkpt>
      <trkpt lat="47.624443" lon="1.942323">
        <ele>169</ele>
        <time>2021-10-28T08:43:54Z</time>
      </trkpt>
      <trkpt lat="47.624435" lon="1.9423097">
        <ele>169</ele>
        <time>2021-10-28T08:43:55Z</time>
      </trkpt>
      <trkpt lat="47.62443" lon="1.9422894">
        <ele>169</ele>
        <time>2021-10-28T08:43:56Z</time>
      </trkpt>
      <trkpt lat="47.62443" lon="1.9422708">
        <ele>168</ele>
        <time>2021-10-28T08:43:57Z</time>
      </trkpt>
      <trkpt lat="47.624428" lon="1.9422493">
        <ele>168</ele>
        <time>2021-10-28T08:43:58Z</time>
      </trkpt>
      <trkpt lat="47.624424" lon="1.9422268">
        <ele>168</ele>
        <time>2021-10-28T08:43:59Z</time>
      </trkpt>
      <trkpt lat="47.62442" lon="1.9422005">
        <ele>168</ele>
        <time>2021-10-28T08:44:00Z</time>
      </trkpt>
      <trkpt lat="47.624416" lon="1.9421815">
        <ele>168</ele>
        <time>2021-10-28T08:44:01Z</time>
      </trkpt>
      <trkpt lat="47.624413" lon="1.9421626">
        <ele>168</ele>
        <time>2021-10-28T08:44:02Z</time>
      </trkpt>
      <trkpt lat="47.624413" lon="1.9421453">
        <ele>168</ele>
        <time>2021-10-28T08:44:03Z</time>
      </trkpt>
      <trkpt lat="47.624413" lon="1.9421334">
        <ele>169</ele>
        <time>2021-10-28T08:44:04Z</time>
      </trkpt>
      <trkpt lat="47.624413" lon="1.9421225">
        <ele>169</ele>
        <time>2021-10-28T08:44:05Z</time>
      </trkpt>
      <trkpt lat="47.624405" lon="1.9421048">
        <ele>170</ele>
        <time>2021-10-28T08:44:06Z</time>
      </trkpt>
      <trkpt lat="47.624405" lon="1.9421048">
        <ele>170</ele>
        <time>2021-10-28T08:44:07Z</time>
      </trkpt>
      <trkpt lat="47.624397" lon="1.9420812">
        <ele>169</ele>
        <time>2021-10-28T08:44:08Z</time>
      </trkpt>
      <trkpt lat="47.62439" lon="1.9420627">
        <ele>169</ele>
        <time>2021-10-28T08:44:09Z</time>
      </trkpt>
      <trkpt lat="47.624386" lon="1.9420443">
        <ele>169</ele>
        <time>2021-10-28T08:44:10Z</time>
      </trkpt>
      <trkpt lat="47.624386" lon="1.9420285">
        <ele>169</ele>
        <time>2021-10-28T08:44:11Z</time>
      </trkpt>
      <trkpt lat="47.624386" lon="1.9420133">
        <ele>168</ele>
        <time>2021-10-28T08:44:12Z</time>
      </trkpt>
      <trkpt lat="47.624382" lon="1.9420019">
        <ele>169</ele>
        <time>2021-10-28T08:44:13Z</time>
      </trkpt>
      <trkpt lat="47.62438" lon="1.9419883">
        <ele>169</ele>
        <time>2021-10-28T08:44:14Z</time>
      </trkpt>
      <trkpt lat="47.624374" lon="1.9419703">
        <ele>169</ele>
        <time>2021-10-28T08:44:15Z</time>
      </trkpt>
      <trkpt lat="47.62437" lon="1.9419502">
        <ele>169</ele>
        <time>2021-10-28T08:44:16Z</time>
      </trkpt>
      <trkpt lat="47.624367" lon="1.9419293">
        <ele>169</ele>
        <time>2021-10-28T08:44:17Z</time>
      </trkpt>
      <trkpt lat="47.624363" lon="1.9419098">
        <ele>168</ele>
        <time>2021-10-28T08:44:18Z</time>
      </trkpt>
      <trkpt lat="47.62436" lon="1.9418885">
        <ele>168</ele>
        <time>2021-10-28T08:44:19Z</time>
      </trkpt>
      <trkpt lat="47.624355" lon="1.9418693">
        <ele>168</ele>
        <time>2021-10-28T08:44:20Z</time>
      </trkpt>
      <trkpt lat="47.624348" lon="1.9418501">
        <ele>169</ele>
        <time>2021-10-28T08:44:21Z</time>
      </trkpt>
      <trkpt lat="47.624344" lon="1.941829">
        <ele>169</ele>
        <time>2021-10-28T08:44:22Z</time>
      </trkpt>
      <trkpt lat="47.62434" lon="1.9418105">
        <ele>169</ele>
        <time>2021-10-28T08:44:23Z</time>
      </trkpt>
      <trkpt lat="47.624336" lon="1.9417909">
        <ele>169</ele>
        <time>2021-10-28T08:44:24Z</time>
      </trkpt>
      <trkpt lat="47.624336" lon="1.9417745">
        <ele>169</ele>
        <time>2021-10-28T08:44:25Z</time>
      </trkpt>
      <trkpt lat="47.624332" lon="1.9417579">
        <ele>169</ele>
        <time>2021-10-28T08:44:26Z</time>
      </trkpt>
      <trkpt lat="47.624332" lon="1.9417385">
        <ele>169</ele>
        <time>2021-10-28T08:44:27Z</time>
      </trkpt>
      <trkpt lat="47.624332" lon="1.9417217">
        <ele>169</ele>
        <time>2021-10-28T08:44:28Z</time>
      </trkpt>
      <trkpt lat="47.62433" lon="1.941704">
        <ele>169</ele>
        <time>2021-10-28T08:44:29Z</time>
      </trkpt>
      <trkpt lat="47.62433" lon="1.9416851">
        <ele>169</ele>
        <time>2021-10-28T08:44:30Z</time>
      </trkpt>
      <trkpt lat="47.624325" lon="1.9416685">
        <ele>169</ele>
        <time>2021-10-28T08:44:31Z</time>
      </trkpt>
      <trkpt lat="47.624317" lon="1.9416512">
        <ele>169</ele>
        <time>2021-10-28T08:44:32Z</time>
      </trkpt>
      <trkpt lat="47.624317" lon="1.9416512">
        <ele>169</ele>
        <time>2021-10-28T08:44:33Z</time>
      </trkpt>
      <trkpt lat="47.624317" lon="1.9416512">
        <ele>169</ele>
        <time>2021-10-28T08:44:34Z</time>
      </trkpt>
      <trkpt lat="47.62431" lon="1.9416021">
        <ele>170</ele>
        <time>2021-10-28T08:44:35Z</time>
      </trkpt>
      <trkpt lat="47.624306" lon="1.9415835">
        <ele>169</ele>
        <time>2021-10-28T08:44:36Z</time>
      </trkpt>
      <trkpt lat="47.624306" lon="1.9415624">
        <ele>169</ele>
        <time>2021-10-28T08:44:37Z</time>
      </trkpt>
      <trkpt lat="47.6243" lon="1.9415457">
        <ele>169</ele>
        <time>2021-10-28T08:44:38Z</time>
      </trkpt>
      <trkpt lat="47.624294" lon="1.9415251">
        <ele>169</ele>
        <time>2021-10-28T08:44:39Z</time>
      </trkpt>
      <trkpt lat="47.62429" lon="1.9415084">
        <ele>169</ele>
        <time>2021-10-28T08:44:40Z</time>
      </trkpt>
      <trkpt lat="47.624283" lon="1.941489">
        <ele>169</ele>
        <time>2021-10-28T08:44:41Z</time>
      </trkpt>
      <trkpt lat="47.62428" lon="1.9414688">
        <ele>169</ele>
        <time>2021-10-28T08:44:42Z</time>
      </trkpt>
      <trkpt lat="47.62427" lon="1.9414544">
        <ele>169</ele>
        <time>2021-10-28T08:44:43Z</time>
      </trkpt>
      <trkpt lat="47.624264" lon="1.9414454">
        <ele>169</ele>
        <time>2021-10-28T08:44:44Z</time>
      </trkpt>
      <trkpt lat="47.624256" lon="1.9414326">
        <ele>168</ele>
        <time>2021-10-28T08:44:45Z</time>
      </trkpt>
      <trkpt lat="47.624252" lon="1.941415">
        <ele>168</ele>
        <time>2021-10-28T08:44:46Z</time>
      </trkpt>
      <trkpt lat="47.624245" lon="1.941394">
        <ele>168</ele>
        <time>2021-10-28T08:44:47Z</time>
      </trkpt>
      <trkpt lat="47.62424" lon="1.9413792">
        <ele>168</ele>
        <time>2021-10-28T08:44:48Z</time>
      </trkpt>
      <trkpt lat="47.62424" lon="1.9413601">
        <ele>168</ele>
        <time>2021-10-28T08:44:49Z</time>
      </trkpt>
      <trkpt lat="47.62424" lon="1.9413393">
        <ele>168</ele>
        <time>2021-10-28T08:44:50Z</time>
      </trkpt>
      <trkpt lat="47.62424" lon="1.9413189">
        <ele>168</ele>
        <time>2021-10-28T08:44:51Z</time>
      </trkpt>
      <trkpt lat="47.624237" lon="1.9413016">
        <ele>168</ele>
        <time>2021-10-28T08:44:52Z</time>
      </trkpt>
      <trkpt lat="47.624233" lon="1.9412847">
        <ele>168</ele>
        <time>2021-10-28T08:44:53Z</time>
      </trkpt>
      <trkpt lat="47.62423" lon="1.9412706">
        <ele>168</ele>
        <time>2021-10-28T08:44:54Z</time>
      </trkpt>
      <trkpt lat="47.624218" lon="1.9412532">
        <ele>168</ele>
        <time>2021-10-28T08:44:55Z</time>
      </trkpt>
      <trkpt lat="47.62421" lon="1.9412352">
        <ele>168</ele>
        <time>2021-10-28T08:44:56Z</time>
      </trkpt>
      <trkpt lat="47.624203" lon="1.941215">
        <ele>168</ele>
        <time>2021-10-28T08:44:57Z</time>
      </trkpt>
      <trkpt lat="47.6242" lon="1.9411958">
        <ele>168</ele>
        <time>2021-10-28T08:44:58Z</time>
      </trkpt>
      <trkpt lat="47.624195" lon="1.94118">
        <ele>168</ele>
        <time>2021-10-28T08:44:59Z</time>
      </trkpt>
      <trkpt lat="47.62419" lon="1.9411681">
        <ele>169</ele>
        <time>2021-10-28T08:45:00Z</time>
      </trkpt>
      <trkpt lat="47.62419" lon="1.9411534">
        <ele>169</ele>
        <time>2021-10-28T08:45:01Z</time>
      </trkpt>
      <trkpt lat="47.624187" lon="1.9411389">
        <ele>169</ele>
        <time>2021-10-28T08:45:02Z</time>
      </trkpt>
      <trkpt lat="47.624184" lon="1.941122">
        <ele>169</ele>
        <time>2021-10-28T08:45:03Z</time>
      </trkpt>
      <trkpt lat="47.62418" lon="1.941105">
        <ele>170</ele>
        <time>2021-10-28T08:45:04Z</time>
      </trkpt>
      <trkpt lat="47.624172" lon="1.9410872">
        <ele>170</ele>
        <time>2021-10-28T08:45:05Z</time>
      </trkpt>
      <trkpt lat="47.624165" lon="1.941071">
        <ele>169</ele>
        <time>2021-10-28T08:45:06Z</time>
      </trkpt>
      <trkpt lat="47.62416" lon="1.9410529">
        <ele>169</ele>
        <time>2021-10-28T08:45:07Z</time>
      </trkpt>
      <trkpt lat="47.624153" lon="1.9410337">
        <ele>169</ele>
        <time>2021-10-28T08:45:08Z</time>
      </trkpt>
      <trkpt lat="47.62415" lon="1.9410125">
        <ele>168</ele>
        <time>2021-10-28T08:45:09Z</time>
      </trkpt>
      <trkpt lat="47.62414" lon="1.9409938">
        <ele>169</ele>
        <time>2021-10-28T08:45:10Z</time>
      </trkpt>
      <trkpt lat="47.624138" lon="1.9409732">
        <ele>169</ele>
        <time>2021-10-28T08:45:11Z</time>
      </trkpt>
      <trkpt lat="47.624134" lon="1.9409539">
        <ele>168</ele>
        <time>2021-10-28T08:45:12Z</time>
      </trkpt>
      <trkpt lat="47.62413" lon="1.9409332">
        <ele>168</ele>
        <time>2021-10-28T08:45:13Z</time>
      </trkpt>
      <trkpt lat="47.62413" lon="1.9409137">
        <ele>168</ele>
        <time>2021-10-28T08:45:14Z</time>
      </trkpt>
      <trkpt lat="47.624123" lon="1.9408938">
        <ele>168</ele>
        <time>2021-10-28T08:45:15Z</time>
      </trkpt>
      <trkpt lat="47.624115" lon="1.9408742">
        <ele>169</ele>
        <time>2021-10-28T08:45:16Z</time>
      </trkpt>
      <trkpt lat="47.624107" lon="1.9408592">
        <ele>169</ele>
        <time>2021-10-28T08:45:17Z</time>
      </trkpt>
      <trkpt lat="47.624107" lon="1.9408419">
        <ele>169</ele>
        <time>2021-10-28T08:45:18Z</time>
      </trkpt>
      <trkpt lat="47.624104" lon="1.9408312">
        <ele>169</ele>
        <time>2021-10-28T08:45:19Z</time>
      </trkpt>
      <trkpt lat="47.624104" lon="1.9408312">
        <ele>169</ele>
        <time>2021-10-28T08:45:20Z</time>
      </trkpt>
      <trkpt lat="47.624104" lon="1.9408312">
        <ele>169</ele>
        <time>2021-10-28T08:45:21Z</time>
      </trkpt>
      <trkpt lat="47.624096" lon="1.9407924">
        <ele>169</ele>
        <time>2021-10-28T08:45:22Z</time>
      </trkpt>
      <trkpt lat="47.624092" lon="1.9407762">
        <ele>170</ele>
        <time>2021-10-28T08:45:23Z</time>
      </trkpt>
      <trkpt lat="47.624084" lon="1.9407659">
        <ele>170</ele>
        <time>2021-10-28T08:45:24Z</time>
      </trkpt>
      <trkpt lat="47.624077" lon="1.9407508">
        <ele>169</ele>
        <time>2021-10-28T08:45:25Z</time>
      </trkpt>
      <trkpt lat="47.624077" lon="1.9407508">
        <ele>169</ele>
        <time>2021-10-28T08:45:26Z</time>
      </trkpt>
      <trkpt lat="47.62407" lon="1.9407212">
        <ele>169</ele>
        <time>2021-10-28T08:45:27Z</time>
      </trkpt>
      <trkpt lat="47.624065" lon="1.9407055">
        <ele>169</ele>
        <time>2021-10-28T08:45:28Z</time>
      </trkpt>
      <trkpt lat="47.62406" lon="1.9406865">
        <ele>169</ele>
        <time>2021-10-28T08:45:29Z</time>
      </trkpt>
      <trkpt lat="47.624058" lon="1.9406685">
        <ele>169</ele>
        <time>2021-10-28T08:45:30Z</time>
      </trkpt>
      <trkpt lat="47.62405" lon="1.9406487">
        <ele>168</ele>
        <time>2021-10-28T08:45:31Z</time>
      </trkpt>
      <trkpt lat="47.624046" lon="1.9406267">
        <ele>168</ele>
        <time>2021-10-28T08:45:32Z</time>
      </trkpt>
      <trkpt lat="47.624043" lon="1.9406078">
        <ele>168</ele>
        <time>2021-10-28T08:45:33Z</time>
      </trkpt>
      <trkpt lat="47.62404" lon="1.9405895">
        <ele>169</ele>
        <time>2021-10-28T08:45:34Z</time>
      </trkpt>
      <trkpt lat="47.624035" lon="1.940567">
        <ele>170</ele>
        <time>2021-10-28T08:45:35Z</time>
      </trkpt>
      <trkpt lat="47.62403" lon="1.9405504">
        <ele>170</ele>
        <time>2021-10-28T08:45:36Z</time>
      </trkpt>
      <trkpt lat="47.624027" lon="1.9405378">
        <ele>170</ele>
        <time>2021-10-28T08:45:37Z</time>
      </trkpt>
      <trkpt lat="47.624023" lon="1.9405239">
        <ele>170</ele>
        <time>2021-10-28T08:45:38Z</time>
      </trkpt>
      <trkpt lat="47.62402" lon="1.9405098">
        <ele>170</ele>
        <time>2021-10-28T08:45:39Z</time>
      </trkpt>
      <trkpt lat="47.624016" lon="1.9404937">
        <ele>170</ele>
        <time>2021-10-28T08:45:40Z</time>
      </trkpt>
      <trkpt lat="47.624012" lon="1.9404788">
        <ele>170</ele>
        <time>2021-10-28T08:45:41Z</time>
      </trkpt>
      <trkpt lat="47.624004" lon="1.9404602">
        <ele>170</ele>
        <time>2021-10-28T08:45:42Z</time>
      </trkpt>
      <trkpt lat="47.624" lon="1.9404397">
        <ele>170</ele>
        <time>2021-10-28T08:45:43Z</time>
      </trkpt>
      <trkpt lat="47.623997" lon="1.9404248">
        <ele>170</ele>
        <time>2021-10-28T08:45:44Z</time>
      </trkpt>
      <trkpt lat="47.62399" lon="1.9404036">
        <ele>170</ele>
        <time>2021-10-28T08:45:45Z</time>
      </trkpt>
      <trkpt lat="47.623985" lon="1.9403828">
        <ele>170</ele>
        <time>2021-10-28T08:45:46Z</time>
      </trkpt>
      <trkpt lat="47.62398" lon="1.9403644">
        <ele>171</ele>
        <time>2021-10-28T08:45:47Z</time>
      </trkpt>
      <trkpt lat="47.623974" lon="1.9403454">
        <ele>171</ele>
        <time>2021-10-28T08:45:48Z</time>
      </trkpt>
      <trkpt lat="47.62397" lon="1.9403251">
        <ele>171</ele>
        <time>2021-10-28T08:45:49Z</time>
      </trkpt>
      <trkpt lat="47.623966" lon="1.9403077">
        <ele>171</ele>
        <time>2021-10-28T08:45:50Z</time>
      </trkpt>
      <trkpt lat="47.623966" lon="1.9402921">
        <ele>171</ele>
        <time>2021-10-28T08:45:51Z</time>
      </trkpt>
      <trkpt lat="47.623962" lon="1.9402741">
        <ele>171</ele>
        <time>2021-10-28T08:45:52Z</time>
      </trkpt>
      <trkpt lat="47.623955" lon="1.9402541">
        <ele>171</ele>
        <time>2021-10-28T08:45:53Z</time>
      </trkpt>
      <trkpt lat="47.62395" lon="1.9402382">
        <ele>171</ele>
        <time>2021-10-28T08:45:54Z</time>
      </trkpt>
      <trkpt lat="47.623947" lon="1.9402148">
        <ele>171</ele>
        <time>2021-10-28T08:45:55Z</time>
      </trkpt>
      <trkpt lat="47.623943" lon="1.9401908">
        <ele>171</ele>
        <time>2021-10-28T08:45:56Z</time>
      </trkpt>
      <trkpt lat="47.62394" lon="1.9401761">
        <ele>172</ele>
        <time>2021-10-28T08:45:57Z</time>
      </trkpt>
      <trkpt lat="47.62393" lon="1.9401613">
        <ele>172</ele>
        <time>2021-10-28T08:45:58Z</time>
      </trkpt>
      <trkpt lat="47.623924" lon="1.940149">
        <ele>172</ele>
        <time>2021-10-28T08:45:59Z</time>
      </trkpt>
      <trkpt lat="47.623917" lon="1.9401355">
        <ele>172</ele>
        <time>2021-10-28T08:46:00Z</time>
      </trkpt>
      <trkpt lat="47.62391" lon="1.9401215">
        <ele>172</ele>
        <time>2021-10-28T08:46:01Z</time>
      </trkpt>
      <trkpt lat="47.623905" lon="1.940106">
        <ele>172</ele>
        <time>2021-10-28T08:46:02Z</time>
      </trkpt>
      <trkpt lat="47.623898" lon="1.9400836">
        <ele>172</ele>
        <time>2021-10-28T08:46:03Z</time>
      </trkpt>
      <trkpt lat="47.623894" lon="1.9400655">
        <ele>172</ele>
        <time>2021-10-28T08:46:04Z</time>
      </trkpt>
      <trkpt lat="47.623894" lon="1.9400487">
        <ele>173</ele>
        <time>2021-10-28T08:46:05Z</time>
      </trkpt>
      <trkpt lat="47.62389" lon="1.9400277">
        <ele>173</ele>
        <time>2021-10-28T08:46:06Z</time>
      </trkpt>
      <trkpt lat="47.623886" lon="1.9399995">
        <ele>172</ele>
        <time>2021-10-28T08:46:07Z</time>
      </trkpt>
      <trkpt lat="47.623875" lon="1.939962">
        <ele>174</ele>
        <time>2021-10-28T08:46:09Z</time>
      </trkpt>
      <trkpt lat="47.623867" lon="1.9399431">
        <ele>174</ele>
        <time>2021-10-28T08:46:11Z</time>
      </trkpt>
      <trkpt lat="47.623863" lon="1.9399338">
        <ele>174</ele>
        <time>2021-10-28T08:46:12Z</time>
      </trkpt>
      <trkpt lat="47.623867" lon="1.9399284">
        <ele>174</ele>
        <time>2021-10-28T08:46:13Z</time>
      </trkpt>
      <trkpt lat="47.62387" lon="1.9399192">
        <ele>174</ele>
        <time>2021-10-28T08:46:14Z</time>
      </trkpt>
      <trkpt lat="47.623867" lon="1.9399084">
        <ele>174</ele>
        <time>2021-10-28T08:46:15Z</time>
      </trkpt>
      <trkpt lat="47.62386" lon="1.9398998">
        <ele>174</ele>
        <time>2021-10-28T08:46:16Z</time>
      </trkpt>
      <trkpt lat="47.62385" lon="1.9398816">
        <ele>174</ele>
        <time>2021-10-28T08:46:17Z</time>
      </trkpt>
      <trkpt lat="47.623844" lon="1.9398676">
        <ele>174</ele>
        <time>2021-10-28T08:46:18Z</time>
      </trkpt>
      <trkpt lat="47.623837" lon="1.9398496">
        <ele>174</ele>
        <time>2021-10-28T08:46:19Z</time>
      </trkpt>
      <trkpt lat="47.623837" lon="1.9398333">
        <ele>174</ele>
        <time>2021-10-28T08:46:20Z</time>
      </trkpt>
      <trkpt lat="47.623833" lon="1.9398237">
        <ele>174</ele>
        <time>2021-10-28T08:46:21Z</time>
      </trkpt>
      <trkpt lat="47.623825" lon="1.939812">
        <ele>173</ele>
        <time>2021-10-28T08:46:22Z</time>
      </trkpt>
      <trkpt lat="47.62382" lon="1.9397994">
        <ele>174</ele>
        <time>2021-10-28T08:46:23Z</time>
      </trkpt>
      <trkpt lat="47.623817" lon="1.9397812">
        <ele>174</ele>
        <time>2021-10-28T08:46:24Z</time>
      </trkpt>
      <trkpt lat="47.623814" lon="1.9397603">
        <ele>174</ele>
        <time>2021-10-28T08:46:25Z</time>
      </trkpt>
      <trkpt lat="47.62381" lon="1.9397446">
        <ele>173</ele>
        <time>2021-10-28T08:46:26Z</time>
      </trkpt>
      <trkpt lat="47.623802" lon="1.9397275">
        <ele>173</ele>
        <time>2021-10-28T08:46:27Z</time>
      </trkpt>
      <trkpt lat="47.6238" lon="1.9397087">
        <ele>173</ele>
        <time>2021-10-28T08:46:28Z</time>
      </trkpt>
      <trkpt lat="47.623795" lon="1.9396971">
        <ele>174</ele>
        <time>2021-10-28T08:46:29Z</time>
      </trkpt>
      <trkpt lat="47.623787" lon="1.9396831">
        <ele>174</ele>
        <time>2021-10-28T08:46:30Z</time>
      </trkpt>
      <trkpt lat="47.62378" lon="1.939674">
        <ele>173</ele>
        <time>2021-10-28T08:46:31Z</time>
      </trkpt>
      <trkpt lat="47.62378" lon="1.9396634">
        <ele>173</ele>
        <time>2021-10-28T08:46:32Z</time>
      </trkpt>
      <trkpt lat="47.623775" lon="1.9396497">
        <ele>173</ele>
        <time>2021-10-28T08:46:33Z</time>
      </trkpt>
      <trkpt lat="47.623775" lon="1.9396323">
        <ele>173</ele>
        <time>2021-10-28T08:46:34Z</time>
      </trkpt>
      <trkpt lat="47.623775" lon="1.9396116">
        <ele>172</ele>
        <time>2021-10-28T08:46:35Z</time>
      </trkpt>
      <trkpt lat="47.62377" lon="1.9395938">
        <ele>172</ele>
        <time>2021-10-28T08:46:36Z</time>
      </trkpt>
      <trkpt lat="47.623764" lon="1.9395752">
        <ele>172</ele>
        <time>2021-10-28T08:46:37Z</time>
      </trkpt>
      <trkpt lat="47.623764" lon="1.9395651">
        <ele>172</ele>
        <time>2021-10-28T08:46:38Z</time>
      </trkpt>
      <trkpt lat="47.62376" lon="1.9395455">
        <ele>172</ele>
        <time>2021-10-28T08:46:39Z</time>
      </trkpt>
      <trkpt lat="47.62376" lon="1.9395324">
        <ele>172</ele>
        <time>2021-10-28T08:46:40Z</time>
      </trkpt>
      <trkpt lat="47.623756" lon="1.9395139">
        <ele>171</ele>
        <time>2021-10-28T08:46:41Z</time>
      </trkpt>
      <trkpt lat="47.62375" lon="1.9394964">
        <ele>171</ele>
        <time>2021-10-28T08:46:42Z</time>
      </trkpt>
      <trkpt lat="47.62374" lon="1.9394819">
        <ele>171</ele>
        <time>2021-10-28T08:46:43Z</time>
      </trkpt>
      <trkpt lat="47.623737" lon="1.939463">
        <ele>171</ele>
        <time>2021-10-28T08:46:44Z</time>
      </trkpt>
      <trkpt lat="47.62373" lon="1.9394416">
        <ele>170</ele>
        <time>2021-10-28T08:46:45Z</time>
      </trkpt>
      <trkpt lat="47.623726" lon="1.9394242">
        <ele>170</ele>
        <time>2021-10-28T08:46:46Z</time>
      </trkpt>
      <trkpt lat="47.623726" lon="1.9394083">
        <ele>171</ele>
        <time>2021-10-28T08:46:47Z</time>
      </trkpt>
      <trkpt lat="47.623714" lon="1.9393936">
        <ele>171</ele>
        <time>2021-10-28T08:46:48Z</time>
      </trkpt>
      <trkpt lat="47.623714" lon="1.9393761">
        <ele>171</ele>
        <time>2021-10-28T08:46:49Z</time>
      </trkpt>
      <trkpt lat="47.623707" lon="1.9393536">
        <ele>171</ele>
        <time>2021-10-28T08:46:50Z</time>
      </trkpt>
      <trkpt lat="47.623707" lon="1.9393415">
        <ele>170</ele>
        <time>2021-10-28T08:46:51Z</time>
      </trkpt>
      <trkpt lat="47.623703" lon="1.9393193">
        <ele>170</ele>
        <time>2021-10-28T08:46:52Z</time>
      </trkpt>
      <trkpt lat="47.6237" lon="1.9392987">
        <ele>170</ele>
        <time>2021-10-28T08:46:53Z</time>
      </trkpt>
      <trkpt lat="47.623695" lon="1.9392824">
        <ele>170</ele>
        <time>2021-10-28T08:46:54Z</time>
      </trkpt>
      <trkpt lat="47.623688" lon="1.9392679">
        <ele>170</ele>
        <time>2021-10-28T08:46:55Z</time>
      </trkpt>
      <trkpt lat="47.623684" lon="1.9392506">
        <ele>170</ele>
        <time>2021-10-28T08:46:56Z</time>
      </trkpt>
      <trkpt lat="47.623672" lon="1.9392321">
        <ele>170</ele>
        <time>2021-10-28T08:46:57Z</time>
      </trkpt>
      <trkpt lat="47.62367" lon="1.939213">
        <ele>170</ele>
        <time>2021-10-28T08:46:58Z</time>
      </trkpt>
      <trkpt lat="47.62366" lon="1.9391978">
        <ele>170</ele>
        <time>2021-10-28T08:46:59Z</time>
      </trkpt>
      <trkpt lat="47.623657" lon="1.9391823">
        <ele>170</ele>
        <time>2021-10-28T08:47:00Z</time>
      </trkpt>
      <trkpt lat="47.623653" lon="1.9391692">
        <ele>171</ele>
        <time>2021-10-28T08:47:01Z</time>
      </trkpt>
      <trkpt lat="47.62365" lon="1.9391532">
        <ele>171</ele>
        <time>2021-10-28T08:47:02Z</time>
      </trkpt>
      <trkpt lat="47.623642" lon="1.9391392">
        <ele>171</ele>
        <time>2021-10-28T08:47:03Z</time>
      </trkpt>
      <trkpt lat="47.623627" lon="1.9391342">
        <ele>172</ele>
        <time>2021-10-28T08:47:04Z</time>
      </trkpt>
      <trkpt lat="47.623615" lon="1.9391247">
        <ele>172</ele>
        <time>2021-10-28T08:47:05Z</time>
      </trkpt>
      <trkpt lat="47.623596" lon="1.9391179">
        <ele>172</ele>
        <time>2021-10-28T08:47:06Z</time>
      </trkpt>
      <trkpt lat="47.623585" lon="1.9391167">
        <ele>172</ele>
        <time>2021-10-28T08:47:07Z</time>
      </trkpt>
      <trkpt lat="47.62357" lon="1.9391178">
        <ele>172</ele>
        <time>2021-10-28T08:47:08Z</time>
      </trkpt>
      <trkpt lat="47.623554" lon="1.9391162">
        <ele>172</ele>
        <time>2021-10-28T08:47:09Z</time>
      </trkpt>
      <trkpt lat="47.623547" lon="1.9391129">
        <ele>173</ele>
        <time>2021-10-28T08:47:10Z</time>
      </trkpt>
      <trkpt lat="47.62354" lon="1.9391077">
        <ele>173</ele>
        <time>2021-10-28T08:47:11Z</time>
      </trkpt>
      <trkpt lat="47.62353" lon="1.9391">
        <ele>173</ele>
        <time>2021-10-28T08:47:12Z</time>
      </trkpt>
      <trkpt lat="47.623524" lon="1.9390928">
        <ele>173</ele>
        <time>2021-10-28T08:47:13Z</time>
      </trkpt>
      <trkpt lat="47.623516" lon="1.939095">
        <ele>173</ele>
        <time>2021-10-28T08:47:14Z</time>
      </trkpt>
      <trkpt lat="47.623505" lon="1.9390938">
        <ele>173</ele>
        <time>2021-10-28T08:47:15Z</time>
      </trkpt>
      <trkpt lat="47.62349" lon="1.9390917">
        <ele>174</ele>
        <time>2021-10-28T08:47:16Z</time>
      </trkpt>
      <trkpt lat="47.62347" lon="1.939089">
        <ele>173</ele>
        <time>2021-10-28T08:47:17Z</time>
      </trkpt>
      <trkpt lat="47.623455" lon="1.9390874">
        <ele>173</ele>
        <time>2021-10-28T08:47:18Z</time>
      </trkpt>
      <trkpt lat="47.62344" lon="1.9390858">
        <ele>173</ele>
        <time>2021-10-28T08:47:19Z</time>
      </trkpt>
      <trkpt lat="47.623432" lon="1.9390892">
        <ele>173</ele>
        <time>2021-10-28T08:47:20Z</time>
      </trkpt>
      <trkpt lat="47.62342" lon="1.9390875">
        <ele>172</ele>
        <time>2021-10-28T08:47:21Z</time>
      </trkpt>
      <trkpt lat="47.62341" lon="1.9390913">
        <ele>172</ele>
        <time>2021-10-28T08:47:22Z</time>
      </trkpt>
      <trkpt lat="47.62339" lon="1.9390962">
        <ele>172</ele>
        <time>2021-10-28T08:47:23Z</time>
      </trkpt>
      <trkpt lat="47.62338" lon="1.9390993">
        <ele>172</ele>
        <time>2021-10-28T08:47:24Z</time>
      </trkpt>
      <trkpt lat="47.623363" lon="1.9390981">
        <ele>171</ele>
        <time>2021-10-28T08:47:25Z</time>
      </trkpt>
      <trkpt lat="47.62336" lon="1.9391079">
        <ele>171</ele>
        <time>2021-10-28T08:47:26Z</time>
      </trkpt>
      <trkpt lat="47.62336" lon="1.9391115">
        <ele>171</ele>
        <time>2021-10-28T08:47:27Z</time>
      </trkpt>
      <trkpt lat="47.623363" lon="1.9391186">
        <ele>170</ele>
        <time>2021-10-28T08:47:28Z</time>
      </trkpt>
      <trkpt lat="47.62336" lon="1.9391218">
        <ele>169</ele>
        <time>2021-10-28T08:47:29Z</time>
      </trkpt>
      <trkpt lat="47.62335" lon="1.9391268">
        <ele>169</ele>
        <time>2021-10-28T08:47:30Z</time>
      </trkpt>
      <trkpt lat="47.62334" lon="1.9391336">
        <ele>169</ele>
        <time>2021-10-28T08:47:31Z</time>
      </trkpt>
      <trkpt lat="47.62333" lon="1.9391428">
        <ele>170</ele>
        <time>2021-10-28T08:47:32Z</time>
      </trkpt>
      <trkpt lat="47.62332" lon="1.9391499">
        <ele>170</ele>
        <time>2021-10-28T08:47:33Z</time>
      </trkpt>
      <trkpt lat="47.623306" lon="1.9391545">
        <ele>170</ele>
        <time>2021-10-28T08:47:34Z</time>
      </trkpt>
      <trkpt lat="47.623295" lon="1.9391612">
        <ele>170</ele>
        <time>2021-10-28T08:47:35Z</time>
      </trkpt>
      <trkpt lat="47.62328" lon="1.9391683">
        <ele>170</ele>
        <time>2021-10-28T08:47:36Z</time>
      </trkpt>
      <trkpt lat="47.62327" lon="1.9391754">
        <ele>170</ele>
        <time>2021-10-28T08:47:37Z</time>
      </trkpt>
      <trkpt lat="47.623257" lon="1.9391805">
        <ele>170</ele>
        <time>2021-10-28T08:47:38Z</time>
      </trkpt>
      <trkpt lat="47.623245" lon="1.9391809">
        <ele>170</ele>
        <time>2021-10-28T08:47:39Z</time>
      </trkpt>
      <trkpt lat="47.623234" lon="1.9391828">
        <ele>170</ele>
        <time>2021-10-28T08:47:40Z</time>
      </trkpt>
      <trkpt lat="47.623226" lon="1.9391776">
        <ele>170</ele>
        <time>2021-10-28T08:47:41Z</time>
      </trkpt>
      <trkpt lat="47.623215" lon="1.9391735">
        <ele>170</ele>
        <time>2021-10-28T08:47:42Z</time>
      </trkpt>
      <trkpt lat="47.623207" lon="1.9391772">
        <ele>170</ele>
        <time>2021-10-28T08:47:43Z</time>
      </trkpt>
      <trkpt lat="47.623196" lon="1.9391799">
        <ele>170</ele>
        <time>2021-10-28T08:47:44Z</time>
      </trkpt>
      <trkpt lat="47.623184" lon="1.9391855">
        <ele>169</ele>
        <time>2021-10-28T08:47:45Z</time>
      </trkpt>
      <trkpt lat="47.623184" lon="1.9391847">
        <ele>169</ele>
        <time>2021-10-28T08:47:46Z</time>
      </trkpt>
      <trkpt lat="47.623184" lon="1.9391845">
        <ele>169</ele>
        <time>2021-10-28T08:47:47Z</time>
      </trkpt>
      <trkpt lat="47.623184" lon="1.939184">
        <ele>169</ele>
        <time>2021-10-28T08:47:48Z</time>
      </trkpt>
      <trkpt lat="47.623184" lon="1.939184">
        <ele>169</ele>
        <time>2021-10-28T08:47:48Z</time>
      </trkpt>
    </trkseg>
    <trkseg>
      <trkpt lat="47.623184" lon="1.939184">
        <ele>169</ele>
        <time>2021-10-28T08:47:48Z</time>
      </trkpt>
      <trkpt lat="47.623146" lon="1.9391879">
        <ele>169</ele>
        <time>2021-10-28T08:47:54Z</time>
      </trkpt>
      <trkpt lat="47.62313" lon="1.9391901">
        <ele>169</ele>
        <time>2021-10-28T08:47:55Z</time>
      </trkpt>
      <trkpt lat="47.62312" lon="1.9391932">
        <ele>169</ele>
        <time>2021-10-28T08:47:56Z</time>
      </trkpt>
      <trkpt lat="47.623108" lon="1.9392003">
        <ele>169</ele>
        <time>2021-10-28T08:47:57Z</time>
      </trkpt>
      <trkpt lat="47.623096" lon="1.9392073">
        <ele>169</ele>
        <time>2021-10-28T08:47:58Z</time>
      </trkpt>
      <trkpt lat="47.623085" lon="1.9392116">
        <ele>170</ele>
        <time>2021-10-28T08:47:59Z</time>
      </trkpt>
      <trkpt lat="47.623066" lon="1.9392146">
        <ele>170</ele>
        <time>2021-10-28T08:48:00Z</time>
      </trkpt>
      <trkpt lat="47.623055" lon="1.9392188">
        <ele>170</ele>
        <time>2021-10-28T08:48:01Z</time>
      </trkpt>
      <trkpt lat="47.623047" lon="1.9392248">
        <ele>170</ele>
        <time>2021-10-28T08:48:02Z</time>
      </trkpt>
      <trkpt lat="47.62303" lon="1.9392271">
        <ele>170</ele>
        <time>2021-10-28T08:48:03Z</time>
      </trkpt>
      <trkpt lat="47.623016" lon="1.93923">
        <ele>170</ele>
        <time>2021-10-28T08:48:04Z</time>
      </trkpt>
      <trkpt lat="47.623005" lon="1.9392369">
        <ele>171</ele>
        <time>2021-10-28T08:48:05Z</time>
      </trkpt>
      <trkpt lat="47.62299" lon="1.9392434">
        <ele>170</ele>
        <time>2021-10-28T08:48:06Z</time>
      </trkpt>
      <trkpt lat="47.62298" lon="1.9392395">
        <ele>171</ele>
        <time>2021-10-28T08:48:07Z</time>
      </trkpt>
      <trkpt lat="47.622967" lon="1.9392378">
        <ele>171</ele>
        <time>2021-10-28T08:48:08Z</time>
      </trkpt>
      <trkpt lat="47.622955" lon="1.9392372">
        <ele>170</ele>
        <time>2021-10-28T08:48:09Z</time>
      </trkpt>
      <trkpt lat="47.622944" lon="1.9392401">
        <ele>170</ele>
        <time>2021-10-28T08:48:10Z</time>
      </trkpt>
      <trkpt lat="47.622932" lon="1.9392365">
        <ele>171</ele>
        <time>2021-10-28T08:48:11Z</time>
      </trkpt>
      <trkpt lat="47.622925" lon="1.9392384">
        <ele>171</ele>
        <time>2021-10-28T08:48:12Z</time>
      </trkpt>
      <trkpt lat="47.622913" lon="1.93924">
        <ele>171</ele>
        <time>2021-10-28T08:48:13Z</time>
      </trkpt>
      <trkpt lat="47.622902" lon="1.9392434">
        <ele>171</ele>
        <time>2021-10-28T08:48:14Z</time>
      </trkpt>
      <trkpt lat="47.622887" lon="1.9392446">
        <ele>172</ele>
        <time>2021-10-28T08:48:15Z</time>
      </trkpt>
      <trkpt lat="47.622875" lon="1.9392488">
        <ele>172</ele>
        <time>2021-10-28T08:48:16Z</time>
      </trkpt>
      <trkpt lat="47.622868" lon="1.9392555">
        <ele>173</ele>
        <time>2021-10-28T08:48:17Z</time>
      </trkpt>
      <trkpt lat="47.62286" lon="1.9392571">
        <ele>173</ele>
        <time>2021-10-28T08:48:18Z</time>
      </trkpt>
      <trkpt lat="47.622852" lon="1.9392601">
        <ele>174</ele>
        <time>2021-10-28T08:48:19Z</time>
      </trkpt>
      <trkpt lat="47.622852" lon="1.9392601">
        <ele>174</ele>
        <time>2021-10-28T08:48:20Z</time>
      </trkpt>
      <trkpt lat="47.622826" lon="1.9392624">
        <ele>174</ele>
        <time>2021-10-28T08:48:21Z</time>
      </trkpt>
      <trkpt lat="47.622814" lon="1.9392657">
        <ele>174</ele>
        <time>2021-10-28T08:48:22Z</time>
      </trkpt>
      <trkpt lat="47.622803" lon="1.9392644">
        <ele>175</ele>
        <time>2021-10-28T08:48:23Z</time>
      </trkpt>
      <trkpt lat="47.622787" lon="1.9392618">
        <ele>175</ele>
        <time>2021-10-28T08:48:24Z</time>
      </trkpt>
      <trkpt lat="47.62277" lon="1.9392627">
        <ele>175</ele>
        <time>2021-10-28T08:48:25Z</time>
      </trkpt>
      <trkpt lat="47.622757" lon="1.9392722">
        <ele>175</ele>
        <time>2021-10-28T08:48:26Z</time>
      </trkpt>
      <trkpt lat="47.62274" lon="1.9392757">
        <ele>175</ele>
        <time>2021-10-28T08:48:27Z</time>
      </trkpt>
      <trkpt lat="47.622723" lon="1.9392818">
        <ele>174</ele>
        <time>2021-10-28T08:48:28Z</time>
      </trkpt>
      <trkpt lat="47.62271" lon="1.9392855">
        <ele>174</ele>
        <time>2021-10-28T08:48:29Z</time>
      </trkpt>
      <trkpt lat="47.622696" lon="1.9392864">
        <ele>174</ele>
        <time>2021-10-28T08:48:30Z</time>
      </trkpt>
      <trkpt lat="47.622684" lon="1.9392855">
        <ele>173</ele>
        <time>2021-10-28T08:48:31Z</time>
      </trkpt>
      <trkpt lat="47.622673" lon="1.9392844">
        <ele>173</ele>
        <time>2021-10-28T08:48:32Z</time>
      </trkpt>
      <trkpt lat="47.62266" lon="1.9392818">
        <ele>173</ele>
        <time>2021-10-28T08:48:33Z</time>
      </trkpt>
      <trkpt lat="47.62265" lon="1.9392834">
        <ele>173</ele>
        <time>2021-10-28T08:48:34Z</time>
      </trkpt>
      <trkpt lat="47.62264" lon="1.9392861">
        <ele>173</ele>
        <time>2021-10-28T08:48:35Z</time>
      </trkpt>
      <trkpt lat="47.62263" lon="1.9392867">
        <ele>173</ele>
        <time>2021-10-28T08:48:36Z</time>
      </trkpt>
      <trkpt lat="47.622623" lon="1.9392816">
        <ele>173</ele>
        <time>2021-10-28T08:48:37Z</time>
      </trkpt>
      <trkpt lat="47.622604" lon="1.9392816">
        <ele>173</ele>
        <time>2021-10-28T08:48:38Z</time>
      </trkpt>
      <trkpt lat="47.622593" lon="1.9392852">
        <ele>172</ele>
        <time>2021-10-28T08:48:39Z</time>
      </trkpt>
      <trkpt lat="47.62258" lon="1.9392862">
        <ele>171</ele>
        <time>2021-10-28T08:48:40Z</time>
      </trkpt>
      <trkpt lat="47.62257" lon="1.9392881">
        <ele>171</ele>
        <time>2021-10-28T08:48:41Z</time>
      </trkpt>
      <trkpt lat="47.622562" lon="1.9392874">
        <ele>171</ele>
        <time>2021-10-28T08:48:42Z</time>
      </trkpt>
      <trkpt lat="47.62255" lon="1.9392864">
        <ele>171</ele>
        <time>2021-10-28T08:48:43Z</time>
      </trkpt>
      <trkpt lat="47.62254" lon="1.9392886">
        <ele>172</ele>
        <time>2021-10-28T08:48:44Z</time>
      </trkpt>
      <trkpt lat="47.62252" lon="1.9392908">
        <ele>172</ele>
        <time>2021-10-28T08:48:45Z</time>
      </trkpt>
      <trkpt lat="47.62251" lon="1.9392935">
        <ele>172</ele>
        <time>2021-10-28T08:48:46Z</time>
      </trkpt>
      <trkpt lat="47.622494" lon="1.9392937">
        <ele>172</ele>
        <time>2021-10-28T08:48:47Z</time>
      </trkpt>
      <trkpt lat="47.622482" lon="1.9392952">
        <ele>172</ele>
        <time>2021-10-28T08:48:48Z</time>
      </trkpt>
      <trkpt lat="47.62247" lon="1.939297">
        <ele>172</ele>
        <time>2021-10-28T08:48:49Z</time>
      </trkpt>
      <trkpt lat="47.62246" lon="1.9393011">
        <ele>172</ele>
        <time>2021-10-28T08:48:50Z</time>
      </trkpt>
      <trkpt lat="47.622448" lon="1.939304">
        <ele>172</ele>
        <time>2021-10-28T08:48:51Z</time>
      </trkpt>
      <trkpt lat="47.62244" lon="1.9393058">
        <ele>172</ele>
        <time>2021-10-28T08:48:52Z</time>
      </trkpt>
      <trkpt lat="47.622433" lon="1.9393072">
        <ele>173</ele>
        <time>2021-10-28T08:48:53Z</time>
      </trkpt>
      <trkpt lat="47.62242" lon="1.9393159">
        <ele>173</ele>
        <time>2021-10-28T08:48:54Z</time>
      </trkpt>
      <trkpt lat="47.622406" lon="1.9393194">
        <ele>173</ele>
        <time>2021-10-28T08:48:55Z</time>
      </trkpt>
      <trkpt lat="47.622395" lon="1.9393222">
        <ele>174</ele>
        <time>2021-10-28T08:48:56Z</time>
      </trkpt>
      <trkpt lat="47.622383" lon="1.9393274">
        <ele>175</ele>
        <time>2021-10-28T08:48:57Z</time>
      </trkpt>
      <trkpt lat="47.62237" lon="1.9393288">
        <ele>175</ele>
        <time>2021-10-28T08:48:58Z</time>
      </trkpt>
      <trkpt lat="47.622356" lon="1.9393332">
        <ele>175</ele>
        <time>2021-10-28T08:48:59Z</time>
      </trkpt>
      <trkpt lat="47.62235" lon="1.9393361">
        <ele>175</ele>
        <time>2021-10-28T08:49:00Z</time>
      </trkpt>
      <trkpt lat="47.622334" lon="1.9393394">
        <ele>175</ele>
        <time>2021-10-28T08:49:01Z</time>
      </trkpt>
      <trkpt lat="47.62232" lon="1.9393412">
        <ele>174</ele>
        <time>2021-10-28T08:49:02Z</time>
      </trkpt>
      <trkpt lat="47.622307" lon="1.9393451">
        <ele>174</ele>
        <time>2021-10-28T08:49:03Z</time>
      </trkpt>
      <trkpt lat="47.62229" lon="1.9393423">
        <ele>175</ele>
        <time>2021-10-28T08:49:04Z</time>
      </trkpt>
      <trkpt lat="47.62228" lon="1.9393412">
        <ele>175</ele>
        <time>2021-10-28T08:49:05Z</time>
      </trkpt>
      <trkpt lat="47.62227" lon="1.9393445">
        <ele>175</ele>
        <time>2021-10-28T08:49:06Z</time>
      </trkpt>
      <trkpt lat="47.622257" lon="1.9393535">
        <ele>175</ele>
        <time>2021-10-28T08:49:07Z</time>
      </trkpt>
      <trkpt lat="47.622242" lon="1.9393581">
        <ele>175</ele>
        <time>2021-10-28T08:49:08Z</time>
      </trkpt>
      <trkpt lat="47.622227" lon="1.9393586">
        <ele>175</ele>
        <time>2021-10-28T08:49:09Z</time>
      </trkpt>
      <trkpt lat="47.62221" lon="1.9393631">
        <ele>176</ele>
        <time>2021-10-28T08:49:10Z</time>
      </trkpt>
      <trkpt lat="47.622196" lon="1.9393713">
        <ele>177</ele>
        <time>2021-10-28T08:49:11Z</time>
      </trkpt>
      <trkpt lat="47.62218" lon="1.9393785">
        <ele>177</ele>
        <time>2021-10-28T08:49:12Z</time>
      </trkpt>
      <trkpt lat="47.622166" lon="1.939383">
        <ele>178</ele>
        <time>2021-10-28T08:49:13Z</time>
      </trkpt>
      <trkpt lat="47.62215" lon="1.93939">
        <ele>178</ele>
        <time>2021-10-28T08:49:14Z</time>
      </trkpt>
      <trkpt lat="47.62214" lon="1.9393934">
        <ele>178</ele>
        <time>2021-10-28T08:49:15Z</time>
      </trkpt>
      <trkpt lat="47.622128" lon="1.9393973">
        <ele>179</ele>
        <time>2021-10-28T08:49:16Z</time>
      </trkpt>
      <trkpt lat="47.62212" lon="1.9393996">
        <ele>179</ele>
        <time>2021-10-28T08:49:17Z</time>
      </trkpt>
      <trkpt lat="47.62211" lon="1.939402">
        <ele>180</ele>
        <time>2021-10-28T08:49:18Z</time>
      </trkpt>
      <trkpt lat="47.6221" lon="1.9394032">
        <ele>180</ele>
        <time>2021-10-28T08:49:19Z</time>
      </trkpt>
      <trkpt lat="47.62209" lon="1.9394042">
        <ele>180</ele>
        <time>2021-10-28T08:49:20Z</time>
      </trkpt>
      <trkpt lat="47.62208" lon="1.9394053">
        <ele>179</ele>
        <time>2021-10-28T08:49:21Z</time>
      </trkpt>
      <trkpt lat="47.622074" lon="1.9394125">
        <ele>179</ele>
        <time>2021-10-28T08:49:22Z</time>
      </trkpt>
      <trkpt lat="47.622063" lon="1.9394205">
        <ele>179</ele>
        <time>2021-10-28T08:49:23Z</time>
      </trkpt>
      <trkpt lat="47.62205" lon="1.9394219">
        <ele>179</ele>
        <time>2021-10-28T08:49:24Z</time>
      </trkpt>
      <trkpt lat="47.622036" lon="1.9394319">
        <ele>179</ele>
        <time>2021-10-28T08:49:25Z</time>
      </trkpt>
      <trkpt lat="47.62203" lon="1.9394472">
        <ele>179</ele>
        <time>2021-10-28T08:49:26Z</time>
      </trkpt>
      <trkpt lat="47.62202" lon="1.9394679">
        <ele>179</ele>
        <time>2021-10-28T08:49:27Z</time>
      </trkpt>
      <trkpt lat="47.622025" lon="1.9394864">
        <ele>179</ele>
        <time>2021-10-28T08:49:28Z</time>
      </trkpt>
      <trkpt lat="47.62203" lon="1.9395078">
        <ele>178</ele>
        <time>2021-10-28T08:49:29Z</time>
      </trkpt>
      <trkpt lat="47.622036" lon="1.9395285">
        <ele>178</ele>
        <time>2021-10-28T08:49:30Z</time>
      </trkpt>
      <trkpt lat="47.622036" lon="1.9395422">
        <ele>178</ele>
        <time>2021-10-28T08:49:31Z</time>
      </trkpt>
      <trkpt lat="47.62204" lon="1.9395622">
        <ele>178</ele>
        <time>2021-10-28T08:49:32Z</time>
      </trkpt>
      <trkpt lat="47.62204" lon="1.9395823">
        <ele>178</ele>
        <time>2021-10-28T08:49:33Z</time>
      </trkpt>
      <trkpt lat="47.622044" lon="1.9396">
        <ele>177</ele>
        <time>2021-10-28T08:49:34Z</time>
      </trkpt>
      <trkpt lat="47.622047" lon="1.9396164">
        <ele>177</ele>
        <time>2021-10-28T08:49:35Z</time>
      </trkpt>
      <trkpt lat="47.622055" lon="1.9396346">
        <ele>176</ele>
        <time>2021-10-28T08:49:36Z</time>
      </trkpt>
      <trkpt lat="47.622063" lon="1.9396529">
        <ele>175</ele>
        <time>2021-10-28T08:49:37Z</time>
      </trkpt>
      <trkpt lat="47.62207" lon="1.9396728">
        <ele>175</ele>
        <time>2021-10-28T08:49:38Z</time>
      </trkpt>
      <trkpt lat="47.622074" lon="1.9396884">
        <ele>174</ele>
        <time>2021-10-28T08:49:39Z</time>
      </trkpt>
      <trkpt lat="47.62208" lon="1.9397053">
        <ele>174</ele>
        <time>2021-10-28T08:49:40Z</time>
      </trkpt>
      <trkpt lat="47.622086" lon="1.9397202">
        <ele>174</ele>
        <time>2021-10-28T08:49:41Z</time>
      </trkpt>
      <trkpt lat="47.62209" lon="1.9397355">
        <ele>173</ele>
        <time>2021-10-28T08:49:42Z</time>
      </trkpt>
      <trkpt lat="47.622093" lon="1.9397529">
        <ele>173</ele>
        <time>2021-10-28T08:49:43Z</time>
      </trkpt>
      <trkpt lat="47.622097" lon="1.9397712">
        <ele>173</ele>
        <time>2021-10-28T08:49:44Z</time>
      </trkpt>
      <trkpt lat="47.622097" lon="1.9397898">
        <ele>173</ele>
        <time>2021-10-28T08:49:45Z</time>
      </trkpt>
      <trkpt lat="47.6221" lon="1.9398109">
        <ele>173</ele>
        <time>2021-10-28T08:49:46Z</time>
      </trkpt>
      <trkpt lat="47.6221" lon="1.9398282">
        <ele>174</ele>
        <time>2021-10-28T08:49:47Z</time>
      </trkpt>
      <trkpt lat="47.622105" lon="1.9398487">
        <ele>174</ele>
        <time>2021-10-28T08:49:48Z</time>
      </trkpt>
      <trkpt lat="47.622112" lon="1.9398671">
        <ele>173</ele>
        <time>2021-10-28T08:49:49Z</time>
      </trkpt>
      <trkpt lat="47.622116" lon="1.9398835">
        <ele>173</ele>
        <time>2021-10-28T08:49:50Z</time>
      </trkpt>
      <trkpt lat="47.62212" lon="1.939899">
        <ele>172</ele>
        <time>2021-10-28T08:49:51Z</time>
      </trkpt>
      <trkpt lat="47.622124" lon="1.939917">
        <ele>172</ele>
        <time>2021-10-28T08:49:52Z</time>
      </trkpt>
      <trkpt lat="47.62213" lon="1.9399353">
        <ele>172</ele>
        <time>2021-10-28T08:49:53Z</time>
      </trkpt>
      <trkpt lat="47.622135" lon="1.9399563">
        <ele>172</ele>
        <time>2021-10-28T08:49:54Z</time>
      </trkpt>
      <trkpt lat="47.622135" lon="1.9399756">
        <ele>171</ele>
        <time>2021-10-28T08:49:55Z</time>
      </trkpt>
      <trkpt lat="47.622143" lon="1.9399908">
        <ele>172</ele>
        <time>2021-10-28T08:49:56Z</time>
      </trkpt>
      <trkpt lat="47.622147" lon="1.9400047">
        <ele>172</ele>
        <time>2021-10-28T08:49:57Z</time>
      </trkpt>
      <trkpt lat="47.62215" lon="1.9400158">
        <ele>171</ele>
        <time>2021-10-28T08:49:58Z</time>
      </trkpt>
      <trkpt lat="47.622154" lon="1.9400274">
        <ele>172</ele>
        <time>2021-10-28T08:49:59Z</time>
      </trkpt>
      <trkpt lat="47.62216" lon="1.9400439">
        <ele>171</ele>
        <time>2021-10-28T08:50:00Z</time>
      </trkpt>
      <trkpt lat="47.622166" lon="1.9400555">
        <ele>171</ele>
        <time>2021-10-28T08:50:01Z</time>
      </trkpt>
      <trkpt lat="47.62217" lon="1.9400736">
        <ele>171</ele>
        <time>2021-10-28T08:50:02Z</time>
      </trkpt>
      <trkpt lat="47.622173" lon="1.9400916">
        <ele>170</ele>
        <time>2021-10-28T08:50:03Z</time>
      </trkpt>
      <trkpt lat="47.622177" lon="1.9401066">
        <ele>170</ele>
        <time>2021-10-28T08:50:04Z</time>
      </trkpt>
      <trkpt lat="47.622177" lon="1.9401222">
        <ele>171</ele>
        <time>2021-10-28T08:50:05Z</time>
      </trkpt>
      <trkpt lat="47.622177" lon="1.9401369">
        <ele>171</ele>
        <time>2021-10-28T08:50:06Z</time>
      </trkpt>
      <trkpt lat="47.622185" lon="1.9401515">
        <ele>171</ele>
        <time>2021-10-28T08:50:07Z</time>
      </trkpt>
      <trkpt lat="47.622185" lon="1.9401636">
        <ele>172</ele>
        <time>2021-10-28T08:50:08Z</time>
      </trkpt>
      <trkpt lat="47.622192" lon="1.9401774">
        <ele>172</ele>
        <time>2021-10-28T08:50:09Z</time>
      </trkpt>
      <trkpt lat="47.622196" lon="1.9401902">
        <ele>172</ele>
        <time>2021-10-28T08:50:10Z</time>
      </trkpt>
      <trkpt lat="47.622196" lon="1.9402074">
        <ele>173</ele>
        <time>2021-10-28T08:50:11Z</time>
      </trkpt>
      <trkpt lat="47.6222" lon="1.9402199">
        <ele>173</ele>
        <time>2021-10-28T08:50:12Z</time>
      </trkpt>
      <trkpt lat="47.6222" lon="1.9402328">
        <ele>173</ele>
        <time>2021-10-28T08:50:13Z</time>
      </trkpt>
      <trkpt lat="47.622208" lon="1.9402508">
        <ele>172</ele>
        <time>2021-10-28T08:50:14Z</time>
      </trkpt>
      <trkpt lat="47.622215" lon="1.9402691">
        <ele>172</ele>
        <time>2021-10-28T08:50:15Z</time>
      </trkpt>
      <trkpt lat="47.622223" lon="1.9402872">
        <ele>171</ele>
        <time>2021-10-28T08:50:16Z</time>
      </trkpt>
      <trkpt lat="47.622223" lon="1.9403014">
        <ele>172</ele>
        <time>2021-10-28T08:50:17Z</time>
      </trkpt>
      <trkpt lat="47.622227" lon="1.940318">
        <ele>172</ele>
        <time>2021-10-28T08:50:18Z</time>
      </trkpt>
      <trkpt lat="47.62224" lon="1.9403394">
        <ele>172</ele>
        <time>2021-10-28T08:50:19Z</time>
      </trkpt>
      <trkpt lat="47.622242" lon="1.940366">
        <ele>172</ele>
        <time>2021-10-28T08:50:20Z</time>
      </trkpt>
      <trkpt lat="47.622246" lon="1.9403889">
        <ele>172</ele>
        <time>2021-10-28T08:50:21Z</time>
      </trkpt>
      <trkpt lat="47.622246" lon="1.9404106">
        <ele>172</ele>
        <time>2021-10-28T08:50:22Z</time>
      </trkpt>
      <trkpt lat="47.622246" lon="1.9404322">
        <ele>172</ele>
        <time>2021-10-28T08:50:23Z</time>
      </trkpt>
      <trkpt lat="47.62225" lon="1.9404494">
        <ele>172</ele>
        <time>2021-10-28T08:50:24Z</time>
      </trkpt>
      <trkpt lat="47.62225" lon="1.9404653">
        <ele>173</ele>
        <time>2021-10-28T08:50:25Z</time>
      </trkpt>
      <trkpt lat="47.622246" lon="1.9404845">
        <ele>171</ele>
        <time>2021-10-28T08:50:26Z</time>
      </trkpt>
      <trkpt lat="47.622242" lon="1.9405023">
        <ele>172</ele>
        <time>2021-10-28T08:50:27Z</time>
      </trkpt>
      <trkpt lat="47.622242" lon="1.9405131">
        <ele>172</ele>
        <time>2021-10-28T08:50:28Z</time>
      </trkpt>
      <trkpt lat="47.622234" lon="1.9405179">
        <ele>172</ele>
        <time>2021-10-28T08:50:29Z</time>
      </trkpt>
      <trkpt lat="47.622227" lon="1.9405247">
        <ele>173</ele>
        <time>2021-10-28T08:50:30Z</time>
      </trkpt>
      <trkpt lat="47.622215" lon="1.9405308">
        <ele>172</ele>
        <time>2021-10-28T08:50:31Z</time>
      </trkpt>
      <trkpt lat="47.622208" lon="1.940531">
        <ele>172</ele>
        <time>2021-10-28T08:50:32Z</time>
      </trkpt>
      <trkpt lat="47.622196" lon="1.9405344">
        <ele>173</ele>
        <time>2021-10-28T08:50:33Z</time>
      </trkpt>
      <trkpt lat="47.622185" lon="1.9405366">
        <ele>173</ele>
        <time>2021-10-28T08:50:34Z</time>
      </trkpt>
      <trkpt lat="47.622177" lon="1.940539">
        <ele>173</ele>
        <time>2021-10-28T08:50:35Z</time>
      </trkpt>
      <trkpt lat="47.622173" lon="1.940536">
        <ele>174</ele>
        <time>2021-10-28T08:50:36Z</time>
      </trkpt>
      <trkpt lat="47.62217" lon="1.9405301">
        <ele>173</ele>
        <time>2021-10-28T08:50:37Z</time>
      </trkpt>
      <trkpt lat="47.622173" lon="1.9405149">
        <ele>172</ele>
        <time>2021-10-28T08:50:38Z</time>
      </trkpt>
      <trkpt lat="47.62217" lon="1.9405015">
        <ele>171</ele>
        <time>2021-10-28T08:50:39Z</time>
      </trkpt>
      <trkpt lat="47.62216" lon="1.9404999">
        <ele>172</ele>
        <time>2021-10-28T08:50:40Z</time>
      </trkpt>
      <trkpt lat="47.622158" lon="1.9405015">
        <ele>172</ele>
        <time>2021-10-28T08:50:41Z</time>
      </trkpt>
      <trkpt lat="47.622154" lon="1.9404937">
        <ele>173</ele>
        <time>2021-10-28T08:50:42Z</time>
      </trkpt>
      <trkpt lat="47.62215" lon="1.9404974">
        <ele>172</ele>
        <time>2021-10-28T08:50:43Z</time>
      </trkpt>
      <trkpt lat="47.622147" lon="1.940495">
        <ele>172</ele>
        <time>2021-10-28T08:50:44Z</time>
      </trkpt>
      <trkpt lat="47.622143" lon="1.9404927">
        <ele>172</ele>
        <time>2021-10-28T08:50:45Z</time>
      </trkpt>
      <trkpt lat="47.622143" lon="1.9404927">
        <ele>172</ele>
        <time>2021-10-28T08:50:46Z</time>
      </trkpt>
      <trkpt lat="47.622143" lon="1.9404927">
        <ele>172</ele>
        <time>2021-10-28T08:50:47Z</time>
      </trkpt>
      <trkpt lat="47.622143" lon="1.9404927">
        <ele>172</ele>
        <time>2021-10-28T08:50:48Z</time>
      </trkpt>
      <trkpt lat="47.622143" lon="1.9404927">
        <ele>172</ele>
        <time>2021-10-28T08:50:48Z</time>
      </trkpt>
    </trkseg>
    <trkseg>
      <trkpt lat="47.622143" lon="1.9404927">
        <ele>172</ele>
        <time>2021-10-28T08:50:48Z</time>
      </trkpt>
      <trkpt lat="47.622112" lon="1.9406428">
        <ele>174</ele>
        <time>2021-10-28T08:51:34Z</time>
      </trkpt>
      <trkpt lat="47.622105" lon="1.940643">
        <ele>175</ele>
        <time>2021-10-28T08:51:35Z</time>
      </trkpt>
      <trkpt lat="47.622097" lon="1.9406404">
        <ele>175</ele>
        <time>2021-10-28T08:51:36Z</time>
      </trkpt>
      <trkpt lat="47.622093" lon="1.9406391">
        <ele>174</ele>
        <time>2021-10-28T08:51:37Z</time>
      </trkpt>
      <trkpt lat="47.62208" lon="1.9406371">
        <ele>174</ele>
        <time>2021-10-28T08:51:38Z</time>
      </trkpt>
      <trkpt lat="47.62207" lon="1.9406365">
        <ele>174</ele>
        <time>2021-10-28T08:51:39Z</time>
      </trkpt>
      <trkpt lat="47.622047" lon="1.94063">
        <ele>174</ele>
        <time>2021-10-28T08:51:40Z</time>
      </trkpt>
      <trkpt lat="47.622036" lon="1.9406241">
        <ele>174</ele>
        <time>2021-10-28T08:51:41Z</time>
      </trkpt>
      <trkpt lat="47.62202" lon="1.9406143">
        <ele>174</ele>
        <time>2021-10-28T08:51:42Z</time>
      </trkpt>
      <trkpt lat="47.62201" lon="1.9406043">
        <ele>173</ele>
        <time>2021-10-28T08:51:43Z</time>
      </trkpt>
      <trkpt lat="47.62199" lon="1.940608">
        <ele>173</ele>
        <time>2021-10-28T08:51:44Z</time>
      </trkpt>
      <trkpt lat="47.621975" lon="1.940614">
        <ele>173</ele>
        <time>2021-10-28T08:51:45Z</time>
      </trkpt>
      <trkpt lat="47.621964" lon="1.94062">
        <ele>172</ele>
        <time>2021-10-28T08:51:46Z</time>
      </trkpt>
      <trkpt lat="47.62195" lon="1.9406217">
        <ele>172</ele>
        <time>2021-10-28T08:51:47Z</time>
      </trkpt>
      <trkpt lat="47.621933" lon="1.9406191">
        <ele>172</ele>
        <time>2021-10-28T08:51:48Z</time>
      </trkpt>
      <trkpt lat="47.621918" lon="1.940618">
        <ele>173</ele>
        <time>2021-10-28T08:51:49Z</time>
      </trkpt>
      <trkpt lat="47.6219" lon="1.9406271">
        <ele>173</ele>
        <time>2021-10-28T08:51:50Z</time>
      </trkpt>
      <trkpt lat="47.621887" lon="1.9406202">
        <ele>172</ele>
        <time>2021-10-28T08:51:51Z</time>
      </trkpt>
      <trkpt lat="47.621872" lon="1.9406185">
        <ele>173</ele>
        <time>2021-10-28T08:51:52Z</time>
      </trkpt>
      <trkpt lat="47.62186" lon="1.9406221">
        <ele>173</ele>
        <time>2021-10-28T08:51:53Z</time>
      </trkpt>
      <trkpt lat="47.62185" lon="1.9406214">
        <ele>173</ele>
        <time>2021-10-28T08:51:54Z</time>
      </trkpt>
      <trkpt lat="47.621838" lon="1.9406165">
        <ele>173</ele>
        <time>2021-10-28T08:51:55Z</time>
      </trkpt>
      <trkpt lat="47.621826" lon="1.9406145">
        <ele>173</ele>
        <time>2021-10-28T08:51:56Z</time>
      </trkpt>
      <trkpt lat="47.62181" lon="1.9406118">
        <ele>173</ele>
        <time>2021-10-28T08:51:57Z</time>
      </trkpt>
      <trkpt lat="47.621796" lon="1.9406089">
        <ele>174</ele>
        <time>2021-10-28T08:51:58Z</time>
      </trkpt>
      <trkpt lat="47.621784" lon="1.9406081">
        <ele>174</ele>
        <time>2021-10-28T08:51:59Z</time>
      </trkpt>
      <trkpt lat="47.62177" lon="1.9406067">
        <ele>174</ele>
        <time>2021-10-28T08:52:00Z</time>
      </trkpt>
      <trkpt lat="47.621754" lon="1.940612">
        <ele>174</ele>
        <time>2021-10-28T08:52:01Z</time>
      </trkpt>
      <trkpt lat="47.62174" lon="1.9406105">
        <ele>173</ele>
        <time>2021-10-28T08:52:02Z</time>
      </trkpt>
      <trkpt lat="47.621727" lon="1.9406132">
        <ele>173</ele>
        <time>2021-10-28T08:52:03Z</time>
      </trkpt>
      <trkpt lat="47.621708" lon="1.9406153">
        <ele>173</ele>
        <time>2021-10-28T08:52:04Z</time>
      </trkpt>
      <trkpt lat="47.621693" lon="1.9406155">
        <ele>173</ele>
        <time>2021-10-28T08:52:05Z</time>
      </trkpt>
      <trkpt lat="47.62168" lon="1.9406191">
        <ele>173</ele>
        <time>2021-10-28T08:52:06Z</time>
      </trkpt>
      <trkpt lat="47.621662" lon="1.9406264">
        <ele>173</ele>
        <time>2021-10-28T08:52:07Z</time>
      </trkpt>
      <trkpt lat="47.621643" lon="1.9406296">
        <ele>174</ele>
        <time>2021-10-28T08:52:08Z</time>
      </trkpt>
      <trkpt lat="47.621624" lon="1.9406402">
        <ele>174</ele>
        <time>2021-10-28T08:52:09Z</time>
      </trkpt>
      <trkpt lat="47.621605" lon="1.940645">
        <ele>173</ele>
        <time>2021-10-28T08:52:10Z</time>
      </trkpt>
      <trkpt lat="47.62159" lon="1.9406503">
        <ele>172</ele>
        <time>2021-10-28T08:52:11Z</time>
      </trkpt>
      <trkpt lat="47.621574" lon="1.9406583">
        <ele>172</ele>
        <time>2021-10-28T08:52:12Z</time>
      </trkpt>
      <trkpt lat="47.62156" lon="1.9406656">
        <ele>172</ele>
        <time>2021-10-28T08:52:13Z</time>
      </trkpt>
      <trkpt lat="47.621544" lon="1.9406716">
        <ele>172</ele>
        <time>2021-10-28T08:52:14Z</time>
      </trkpt>
      <trkpt lat="47.621532" lon="1.9406791">
        <ele>172</ele>
        <time>2021-10-28T08:52:15Z</time>
      </trkpt>
      <trkpt lat="47.62152" lon="1.9406792">
        <ele>172</ele>
        <time>2021-10-28T08:52:16Z</time>
      </trkpt>
      <trkpt lat="47.62151" lon="1.9406792">
        <ele>172</ele>
        <time>2021-10-28T08:52:17Z</time>
      </trkpt>
      <trkpt lat="47.621494" lon="1.9406813">
        <ele>172</ele>
        <time>2021-10-28T08:52:18Z</time>
      </trkpt>
      <trkpt lat="47.621483" lon="1.9406809">
        <ele>172</ele>
        <time>2021-10-28T08:52:19Z</time>
      </trkpt>
      <trkpt lat="47.621468" lon="1.9406779">
        <ele>173</ele>
        <time>2021-10-28T08:52:20Z</time>
      </trkpt>
      <trkpt lat="47.621456" lon="1.9406784">
        <ele>173</ele>
        <time>2021-10-28T08:52:21Z</time>
      </trkpt>
      <trkpt lat="47.62144" lon="1.9406804">
        <ele>174</ele>
        <time>2021-10-28T08:52:22Z</time>
      </trkpt>
      <trkpt lat="47.621426" lon="1.9406871">
        <ele>174</ele>
        <time>2021-10-28T08:52:23Z</time>
      </trkpt>
      <trkpt lat="47.62141" lon="1.9406941">
        <ele>174</ele>
        <time>2021-10-28T08:52:24Z</time>
      </trkpt>
      <trkpt lat="47.6214" lon="1.9406995">
        <ele>174</ele>
        <time>2021-10-28T08:52:25Z</time>
      </trkpt>
      <trkpt lat="47.621387" lon="1.9407026">
        <ele>174</ele>
        <time>2021-10-28T08:52:26Z</time>
      </trkpt>
      <trkpt lat="47.621376" lon="1.9407061">
        <ele>174</ele>
        <time>2021-10-28T08:52:27Z</time>
      </trkpt>
      <trkpt lat="47.621365" lon="1.9407125">
        <ele>175</ele>
        <time>2021-10-28T08:52:28Z</time>
      </trkpt>
      <trkpt lat="47.621353" lon="1.9407184">
        <ele>175</ele>
        <time>2021-10-28T08:52:29Z</time>
      </trkpt>
      <trkpt lat="47.62134" lon="1.9407204">
        <ele>175</ele>
        <time>2021-10-28T08:52:30Z</time>
      </trkpt>
      <trkpt lat="47.621326" lon="1.9407265">
        <ele>175</ele>
        <time>2021-10-28T08:52:31Z</time>
      </trkpt>
      <trkpt lat="47.621315" lon="1.9407281">
        <ele>176</ele>
        <time>2021-10-28T08:52:32Z</time>
      </trkpt>
      <trkpt lat="47.6213" lon="1.9407291">
        <ele>177</ele>
        <time>2021-10-28T08:52:33Z</time>
      </trkpt>
      <trkpt lat="47.621284" lon="1.9407343">
        <ele>177</ele>
        <time>2021-10-28T08:52:34Z</time>
      </trkpt>
      <trkpt lat="47.62127" lon="1.9407358">
        <ele>177</ele>
        <time>2021-10-28T08:52:35Z</time>
      </trkpt>
      <trkpt lat="47.621254" lon="1.9407333">
        <ele>178</ele>
        <time>2021-10-28T08:52:36Z</time>
      </trkpt>
      <trkpt lat="47.621235" lon="1.9407306">
        <ele>178</ele>
        <time>2021-10-28T08:52:37Z</time>
      </trkpt>
      <trkpt lat="47.621223" lon="1.9407288">
        <ele>178</ele>
        <time>2021-10-28T08:52:38Z</time>
      </trkpt>
      <trkpt lat="47.62121" lon="1.9407295">
        <ele>179</ele>
        <time>2021-10-28T08:52:39Z</time>
      </trkpt>
      <trkpt lat="47.621193" lon="1.9407284">
        <ele>179</ele>
        <time>2021-10-28T08:52:40Z</time>
      </trkpt>
      <trkpt lat="47.62118" lon="1.940726">
        <ele>178</ele>
        <time>2021-10-28T08:52:41Z</time>
      </trkpt>
      <trkpt lat="47.62117" lon="1.9407306">
        <ele>178</ele>
        <time>2021-10-28T08:52:42Z</time>
      </trkpt>
      <trkpt lat="47.621155" lon="1.9407324">
        <ele>179</ele>
        <time>2021-10-28T08:52:43Z</time>
      </trkpt>
      <trkpt lat="47.621143" lon="1.9407378">
        <ele>178</ele>
        <time>2021-10-28T08:52:44Z</time>
      </trkpt>
      <trkpt lat="47.621128" lon="1.9407365">
        <ele>178</ele>
        <time>2021-10-28T08:52:45Z</time>
      </trkpt>
      <trkpt lat="47.62112" lon="1.9407351">
        <ele>178</ele>
        <time>2021-10-28T08:52:46Z</time>
      </trkpt>
      <trkpt lat="47.621105" lon="1.9407368">
        <ele>178</ele>
        <time>2021-10-28T08:52:47Z</time>
      </trkpt>
      <trkpt lat="47.62109" lon="1.9407375">
        <ele>178</ele>
        <time>2021-10-28T08:52:48Z</time>
      </trkpt>
      <trkpt lat="47.621075" lon="1.9407415">
        <ele>179</ele>
        <time>2021-10-28T08:52:49Z</time>
      </trkpt>
      <trkpt lat="47.621063" lon="1.9407457">
        <ele>179</ele>
        <time>2021-10-28T08:52:50Z</time>
      </trkpt>
      <trkpt lat="47.621048" lon="1.9407494">
        <ele>179</ele>
        <time>2021-10-28T08:52:51Z</time>
      </trkpt>
      <trkpt lat="47.621037" lon="1.9407561">
        <ele>179</ele>
        <time>2021-10-28T08:52:52Z</time>
      </trkpt>
      <trkpt lat="47.62102" lon="1.940763">
        <ele>180</ele>
        <time>2021-10-28T08:52:53Z</time>
      </trkpt>
      <trkpt lat="47.621" lon="1.9407665">
        <ele>180</ele>
        <time>2021-10-28T08:52:54Z</time>
      </trkpt>
      <trkpt lat="47.620987" lon="1.940774">
        <ele>179</ele>
        <time>2021-10-28T08:52:55Z</time>
      </trkpt>
      <trkpt lat="47.620968" lon="1.9407824">
        <ele>180</ele>
        <time>2021-10-28T08:52:56Z</time>
      </trkpt>
      <trkpt lat="47.620956" lon="1.940785">
        <ele>179</ele>
        <time>2021-10-28T08:52:57Z</time>
      </trkpt>
      <trkpt lat="47.620945" lon="1.9407892">
        <ele>180</ele>
        <time>2021-10-28T08:52:58Z</time>
      </trkpt>
      <trkpt lat="47.620934" lon="1.9407899">
        <ele>180</ele>
        <time>2021-10-28T08:52:59Z</time>
      </trkpt>
      <trkpt lat="47.620934" lon="1.9407899">
        <ele>180</ele>
        <time>2021-10-28T08:53:00Z</time>
      </trkpt>
      <trkpt lat="47.620934" lon="1.9407899">
        <ele>180</ele>
        <time>2021-10-28T08:53:01Z</time>
      </trkpt>
      <trkpt lat="47.62091" lon="1.9407983">
        <ele>180</ele>
        <time>2021-10-28T08:53:02Z</time>
      </trkpt>
      <trkpt lat="47.6209" lon="1.9407977">
        <ele>180</ele>
        <time>2021-10-28T08:53:03Z</time>
      </trkpt>
      <trkpt lat="47.62089" lon="1.9407967">
        <ele>180</ele>
        <time>2021-10-28T08:53:04Z</time>
      </trkpt>
      <trkpt lat="47.620876" lon="1.9407963">
        <ele>180</ele>
        <time>2021-10-28T08:53:05Z</time>
      </trkpt>
      <trkpt lat="47.62086" lon="1.9407958">
        <ele>181</ele>
        <time>2021-10-28T08:53:06Z</time>
      </trkpt>
      <trkpt lat="47.620846" lon="1.9407995">
        <ele>181</ele>
        <time>2021-10-28T08:53:07Z</time>
      </trkpt>
      <trkpt lat="47.620834" lon="1.9408027">
        <ele>181</ele>
        <time>2021-10-28T08:53:08Z</time>
      </trkpt>
      <trkpt lat="47.62082" lon="1.9408078">
        <ele>181</ele>
        <time>2021-10-28T08:53:09Z</time>
      </trkpt>
      <trkpt lat="47.620808" lon="1.940813">
        <ele>180</ele>
        <time>2021-10-28T08:53:10Z</time>
      </trkpt>
      <trkpt lat="47.620792" lon="1.9408182">
        <ele>181</ele>
        <time>2021-10-28T08:53:11Z</time>
      </trkpt>
      <trkpt lat="47.62078" lon="1.9408218">
        <ele>181</ele>
        <time>2021-10-28T08:53:12Z</time>
      </trkpt>
      <trkpt lat="47.62077" lon="1.9408245">
        <ele>181</ele>
        <time>2021-10-28T08:53:13Z</time>
      </trkpt>
      <trkpt lat="47.62076" lon="1.9408288">
        <ele>182</ele>
        <time>2021-10-28T08:53:14Z</time>
      </trkpt>
      <trkpt lat="47.62075" lon="1.9408348">
        <ele>182</ele>
        <time>2021-10-28T08:53:15Z</time>
      </trkpt>
      <trkpt lat="47.62074" lon="1.9408352">
        <ele>182</ele>
        <time>2021-10-28T08:53:16Z</time>
      </trkpt>
      <trkpt lat="47.620724" lon="1.9408331">
        <ele>182</ele>
        <time>2021-10-28T08:53:17Z</time>
      </trkpt>
      <trkpt lat="47.620716" lon="1.9408339">
        <ele>181</ele>
        <time>2021-10-28T08:53:18Z</time>
      </trkpt>
      <trkpt lat="47.6207" lon="1.9408412">
        <ele>181</ele>
        <time>2021-10-28T08:53:19Z</time>
      </trkpt>
      <trkpt lat="47.62068" lon="1.9408414">
        <ele>181</ele>
        <time>2021-10-28T08:53:20Z</time>
      </trkpt>
      <trkpt lat="47.62067" lon="1.9408399">
        <ele>181</ele>
        <time>2021-10-28T08:53:21Z</time>
      </trkpt>
      <trkpt lat="47.62066" lon="1.9408401">
        <ele>181</ele>
        <time>2021-10-28T08:53:22Z</time>
      </trkpt>
      <trkpt lat="47.620647" lon="1.940842">
        <ele>181</ele>
        <time>2021-10-28T08:53:23Z</time>
      </trkpt>
      <trkpt lat="47.620636" lon="1.9408479">
        <ele>182</ele>
        <time>2021-10-28T08:53:24Z</time>
      </trkpt>
      <trkpt lat="47.62063" lon="1.9408475">
        <ele>182</ele>
        <time>2021-10-28T08:53:25Z</time>
      </trkpt>
      <trkpt lat="47.620617" lon="1.940846">
        <ele>182</ele>
        <time>2021-10-28T08:53:26Z</time>
      </trkpt>
      <trkpt lat="47.620613" lon="1.9408462">
        <ele>182</ele>
        <time>2021-10-28T08:53:27Z</time>
      </trkpt>
      <trkpt lat="47.6206" lon="1.9408444">
        <ele>181</ele>
        <time>2021-10-28T08:53:28Z</time>
      </trkpt>
      <trkpt lat="47.62059" lon="1.9408447">
        <ele>181</ele>
        <time>2021-10-28T08:53:29Z</time>
      </trkpt>
      <trkpt lat="47.62058" lon="1.940844">
        <ele>181</ele>
        <time>2021-10-28T08:53:30Z</time>
      </trkpt>
      <trkpt lat="47.620567" lon="1.9408456">
        <ele>182</ele>
        <time>2021-10-28T08:53:31Z</time>
      </trkpt>
      <trkpt lat="47.620567" lon="1.9408456">
        <ele>182</ele>
        <time>2021-10-28T08:53:32Z</time>
      </trkpt>
      <trkpt lat="47.620567" lon="1.9408456">
        <ele>182</ele>
        <time>2021-10-28T08:53:33Z</time>
      </trkpt>
      <trkpt lat="47.620544" lon="1.9408567">
        <ele>182</ele>
        <time>2021-10-28T08:53:34Z</time>
      </trkpt>
      <trkpt lat="47.620533" lon="1.9408618">
        <ele>182</ele>
        <time>2021-10-28T08:53:35Z</time>
      </trkpt>
      <trkpt lat="47.62052" lon="1.9408624">
        <ele>182</ele>
        <time>2021-10-28T08:53:36Z</time>
      </trkpt>
      <trkpt lat="47.620506" lon="1.9408679">
        <ele>183</ele>
        <time>2021-10-28T08:53:37Z</time>
      </trkpt>
      <trkpt lat="47.620487" lon="1.9408753">
        <ele>183</ele>
        <time>2021-10-28T08:53:38Z</time>
      </trkpt>
      <trkpt lat="47.620472" lon="1.9408858">
        <ele>183</ele>
        <time>2021-10-28T08:53:39Z</time>
      </trkpt>
      <trkpt lat="47.620453" lon="1.9408886">
        <ele>183</ele>
        <time>2021-10-28T08:53:40Z</time>
      </trkpt>
      <trkpt lat="47.62044" lon="1.9408913">
        <ele>183</ele>
        <time>2021-10-28T08:53:41Z</time>
      </trkpt>
      <trkpt lat="47.620426" lon="1.9408972">
        <ele>183</ele>
        <time>2021-10-28T08:53:42Z</time>
      </trkpt>
      <trkpt lat="47.62041" lon="1.9409044">
        <ele>183</ele>
        <time>2021-10-28T08:53:43Z</time>
      </trkpt>
      <trkpt lat="47.620396" lon="1.9409072">
        <ele>183</ele>
        <time>2021-10-28T08:53:44Z</time>
      </trkpt>
      <trkpt lat="47.620388" lon="1.9409109">
        <ele>183</ele>
        <time>2021-10-28T08:53:45Z</time>
      </trkpt>
      <trkpt lat="47.620377" lon="1.9409115">
        <ele>183</ele>
        <time>2021-10-28T08:53:46Z</time>
      </trkpt>
      <trkpt lat="47.62037" lon="1.9409113">
        <ele>183</ele>
        <time>2021-10-28T08:53:47Z</time>
      </trkpt>
      <trkpt lat="47.620354" lon="1.940907">
        <ele>182</ele>
        <time>2021-10-28T08:53:48Z</time>
      </trkpt>
      <trkpt lat="47.620342" lon="1.940907">
        <ele>182</ele>
        <time>2021-10-28T08:53:49Z</time>
      </trkpt>
      <trkpt lat="47.620327" lon="1.9409059">
        <ele>181</ele>
        <time>2021-10-28T08:53:50Z</time>
      </trkpt>
      <trkpt lat="47.620316" lon="1.9409077">
        <ele>181</ele>
        <time>2021-10-28T08:53:51Z</time>
      </trkpt>
      <trkpt lat="47.620304" lon="1.9409082">
        <ele>181</ele>
        <time>2021-10-28T08:53:52Z</time>
      </trkpt>
      <trkpt lat="47.62029" lon="1.9409064">
        <ele>181</ele>
        <time>2021-10-28T08:53:53Z</time>
      </trkpt>
      <trkpt lat="47.620277" lon="1.9409109">
        <ele>181</ele>
        <time>2021-10-28T08:53:54Z</time>
      </trkpt>
      <trkpt lat="47.620266" lon="1.9409138">
        <ele>181</ele>
        <time>2021-10-28T08:53:55Z</time>
      </trkpt>
      <trkpt lat="47.620255" lon="1.9409175">
        <ele>182</ele>
        <time>2021-10-28T08:53:56Z</time>
      </trkpt>
      <trkpt lat="47.620247" lon="1.9409163">
        <ele>181</ele>
        <time>2021-10-28T08:53:57Z</time>
      </trkpt>
      <trkpt lat="47.62023" lon="1.9409211">
        <ele>181</ele>
        <time>2021-10-28T08:53:58Z</time>
      </trkpt>
      <trkpt lat="47.62022" lon="1.9409235">
        <ele>181</ele>
        <time>2021-10-28T08:53:59Z</time>
      </trkpt>
      <trkpt lat="47.620205" lon="1.9409274">
        <ele>181</ele>
        <time>2021-10-28T08:54:00Z</time>
      </trkpt>
      <trkpt lat="47.620193" lon="1.9409213">
        <ele>180</ele>
        <time>2021-10-28T08:54:01Z</time>
      </trkpt>
      <trkpt lat="47.620182" lon="1.9409149">
        <ele>180</ele>
        <time>2021-10-28T08:54:02Z</time>
      </trkpt>
      <trkpt lat="47.62017" lon="1.9409167">
        <ele>180</ele>
        <time>2021-10-28T08:54:03Z</time>
      </trkpt>
      <trkpt lat="47.62016" lon="1.9409126">
        <ele>180</ele>
        <time>2021-10-28T08:54:04Z</time>
      </trkpt>
      <trkpt lat="47.620148" lon="1.9409149">
        <ele>180</ele>
        <time>2021-10-28T08:54:05Z</time>
      </trkpt>
      <trkpt lat="47.620136" lon="1.94092">
        <ele>179</ele>
        <time>2021-10-28T08:54:06Z</time>
      </trkpt>
      <trkpt lat="47.62012" lon="1.9409226">
        <ele>180</ele>
        <time>2021-10-28T08:54:07Z</time>
      </trkpt>
      <trkpt lat="47.62011" lon="1.9409198">
        <ele>179</ele>
        <time>2021-10-28T08:54:08Z</time>
      </trkpt>
      <trkpt lat="47.6201" lon="1.9409239">
        <ele>179</ele>
        <time>2021-10-28T08:54:09Z</time>
      </trkpt>
      <trkpt lat="47.620087" lon="1.940926">
        <ele>179</ele>
        <time>2021-10-28T08:54:10Z</time>
      </trkpt>
      <trkpt lat="47.62007" lon="1.9409313">
        <ele>180</ele>
        <time>2021-10-28T08:54:11Z</time>
      </trkpt>
      <trkpt lat="47.620056" lon="1.9409348">
        <ele>180</ele>
        <time>2021-10-28T08:54:12Z</time>
      </trkpt>
      <trkpt lat="47.62004" lon="1.9409384">
        <ele>180</ele>
        <time>2021-10-28T08:54:13Z</time>
      </trkpt>
      <trkpt lat="47.62003" lon="1.9409381">
        <ele>180</ele>
        <time>2021-10-28T08:54:14Z</time>
      </trkpt>
      <trkpt lat="47.620018" lon="1.9409382">
        <ele>180</ele>
        <time>2021-10-28T08:54:15Z</time>
      </trkpt>
      <trkpt lat="47.620007" lon="1.9409386">
        <ele>180</ele>
        <time>2021-10-28T08:54:16Z</time>
      </trkpt>
      <trkpt lat="47.62" lon="1.9409406">
        <ele>181</ele>
        <time>2021-10-28T08:54:17Z</time>
      </trkpt>
      <trkpt lat="47.619984" lon="1.9409462">
        <ele>181</ele>
        <time>2021-10-28T08:54:18Z</time>
      </trkpt>
      <trkpt lat="47.619972" lon="1.9409494">
        <ele>181</ele>
        <time>2021-10-28T08:54:19Z</time>
      </trkpt>
      <trkpt lat="47.61996" lon="1.9409543">
        <ele>181</ele>
        <time>2021-10-28T08:54:20Z</time>
      </trkpt>
      <trkpt lat="47.619953" lon="1.9409581">
        <ele>181</ele>
        <time>2021-10-28T08:54:21Z</time>
      </trkpt>
      <trkpt lat="47.61994" lon="1.9409573">
        <ele>180</ele>
        <time>2021-10-28T08:54:22Z</time>
      </trkpt>
      <trkpt lat="47.61993" lon="1.9409649">
        <ele>181</ele>
        <time>2021-10-28T08:54:23Z</time>
      </trkpt>
      <trkpt lat="47.619923" lon="1.9409674">
        <ele>181</ele>
        <time>2021-10-28T08:54:24Z</time>
      </trkpt>
      <trkpt lat="47.61991" lon="1.9409703">
        <ele>181</ele>
        <time>2021-10-28T08:54:25Z</time>
      </trkpt>
      <trkpt lat="47.6199" lon="1.9409728">
        <ele>181</ele>
        <time>2021-10-28T08:54:26Z</time>
      </trkpt>
      <trkpt lat="47.619892" lon="1.9409714">
        <ele>181</ele>
        <time>2021-10-28T08:54:27Z</time>
      </trkpt>
      <trkpt lat="47.61989" lon="1.9409736">
        <ele>180</ele>
        <time>2021-10-28T08:54:28Z</time>
      </trkpt>
      <trkpt lat="47.61988" lon="1.9409773">
        <ele>180</ele>
        <time>2021-10-28T08:54:29Z</time>
      </trkpt>
      <trkpt lat="47.619873" lon="1.94098">
        <ele>180</ele>
        <time>2021-10-28T08:54:30Z</time>
      </trkpt>
      <trkpt lat="47.619865" lon="1.9409832">
        <ele>179</ele>
        <time>2021-10-28T08:54:31Z</time>
      </trkpt>
      <trkpt lat="47.619854" lon="1.940991">
        <ele>179</ele>
        <time>2021-10-28T08:54:32Z</time>
      </trkpt>
      <trkpt lat="47.61984" lon="1.9409962">
        <ele>180</ele>
        <time>2021-10-28T08:54:33Z</time>
      </trkpt>
      <trkpt lat="47.619827" lon="1.9409995">
        <ele>179</ele>
        <time>2021-10-28T08:54:34Z</time>
      </trkpt>
      <trkpt lat="47.619816" lon="1.940999">
        <ele>180</ele>
        <time>2021-10-28T08:54:35Z</time>
      </trkpt>
      <trkpt lat="47.61981" lon="1.9410027">
        <ele>180</ele>
        <time>2021-10-28T08:54:36Z</time>
      </trkpt>
      <trkpt lat="47.61981" lon="1.9410027">
        <ele>180</ele>
        <time>2021-10-28T08:54:37Z</time>
      </trkpt>
      <trkpt lat="47.619785" lon="1.9410125">
        <ele>179</ele>
        <time>2021-10-28T08:54:38Z</time>
      </trkpt>
      <trkpt lat="47.619774" lon="1.9410174">
        <ele>179</ele>
        <time>2021-10-28T08:54:39Z</time>
      </trkpt>
      <trkpt lat="47.61976" lon="1.9410197">
        <ele>179</ele>
        <time>2021-10-28T08:54:40Z</time>
      </trkpt>
      <trkpt lat="47.619743" lon="1.941025">
        <ele>180</ele>
        <time>2021-10-28T08:54:41Z</time>
      </trkpt>
      <trkpt lat="47.619728" lon="1.9410316">
        <ele>180</ele>
        <time>2021-10-28T08:54:42Z</time>
      </trkpt>
      <trkpt lat="47.619713" lon="1.9410396">
        <ele>180</ele>
        <time>2021-10-28T08:54:43Z</time>
      </trkpt>
      <trkpt lat="47.619698" lon="1.9410415">
        <ele>180</ele>
        <time>2021-10-28T08:54:44Z</time>
      </trkpt>
      <trkpt lat="47.619694" lon="1.9410394">
        <ele>179</ele>
        <time>2021-10-28T08:54:45Z</time>
      </trkpt>
      <trkpt lat="47.6197" lon="1.9410356">
        <ele>180</ele>
        <time>2021-10-28T08:54:46Z</time>
      </trkpt>
      <trkpt lat="47.61971" lon="1.9410286">
        <ele>180</ele>
        <time>2021-10-28T08:54:47Z</time>
      </trkpt>
      <trkpt lat="47.61971" lon="1.9410286">
        <ele>180</ele>
        <time>2021-10-28T08:54:48Z</time>
      </trkpt>
      <trkpt lat="47.61971" lon="1.9410286">
        <ele>180</ele>
        <time>2021-10-28T08:54:49Z</time>
      </trkpt>
      <trkpt lat="47.61971" lon="1.9410286">
        <ele>180</ele>
        <time>2021-10-28T08:54:49Z</time>
      </trkpt>
    </trkseg>
    <trkseg>
      <trkpt lat="47.61971" lon="1.9410286">
        <ele>180</ele>
        <time>2021-10-28T08:54:49Z</time>
      </trkpt>
      <trkpt lat="47.61964" lon="1.941018">
        <ele>179</ele>
        <time>2021-10-28T08:55:00Z</time>
      </trkpt>
      <trkpt lat="47.61962" lon="1.9410224">
        <ele>179</ele>
        <time>2021-10-28T08:55:01Z</time>
      </trkpt>
      <trkpt lat="47.619606" lon="1.9410233">
        <ele>179</ele>
        <time>2021-10-28T08:55:02Z</time>
      </trkpt>
      <trkpt lat="47.619595" lon="1.941025">
        <ele>179</ele>
        <time>2021-10-28T08:55:03Z</time>
      </trkpt>
      <trkpt lat="47.619583" lon="1.9410255">
        <ele>179</ele>
        <time>2021-10-28T08:55:04Z</time>
      </trkpt>
      <trkpt lat="47.619568" lon="1.941032">
        <ele>179</ele>
        <time>2021-10-28T08:55:05Z</time>
      </trkpt>
      <trkpt lat="47.619553" lon="1.9410298">
        <ele>178</ele>
        <time>2021-10-28T08:55:06Z</time>
      </trkpt>
      <trkpt lat="47.61954" lon="1.9410334">
        <ele>178</ele>
        <time>2021-10-28T08:55:07Z</time>
      </trkpt>
      <trkpt lat="47.61953" lon="1.94104">
        <ele>178</ele>
        <time>2021-10-28T08:55:08Z</time>
      </trkpt>
      <trkpt lat="47.61952" lon="1.9410481">
        <ele>178</ele>
        <time>2021-10-28T08:55:09Z</time>
      </trkpt>
      <trkpt lat="47.619503" lon="1.9410487">
        <ele>178</ele>
        <time>2021-10-28T08:55:10Z</time>
      </trkpt>
      <trkpt lat="47.619488" lon="1.9410479">
        <ele>178</ele>
        <time>2021-10-28T08:55:11Z</time>
      </trkpt>
      <trkpt lat="47.619473" lon="1.9410487">
        <ele>178</ele>
        <time>2021-10-28T08:55:12Z</time>
      </trkpt>
      <trkpt lat="47.619457" lon="1.9410521">
        <ele>178</ele>
        <time>2021-10-28T08:55:13Z</time>
      </trkpt>
      <trkpt lat="47.619442" lon="1.9410537">
        <ele>178</ele>
        <time>2021-10-28T08:55:14Z</time>
      </trkpt>
      <trkpt lat="47.61943" lon="1.9410577">
        <ele>177</ele>
        <time>2021-10-28T08:55:15Z</time>
      </trkpt>
      <trkpt lat="47.61942" lon="1.9410645">
        <ele>177</ele>
        <time>2021-10-28T08:55:16Z</time>
      </trkpt>
      <trkpt lat="47.619408" lon="1.9410677">
        <ele>178</ele>
        <time>2021-10-28T08:55:17Z</time>
      </trkpt>
      <trkpt lat="47.6194" lon="1.9410714">
        <ele>178</ele>
        <time>2021-10-28T08:55:18Z</time>
      </trkpt>
      <trkpt lat="47.6194" lon="1.9410706">
        <ele>178</ele>
        <time>2021-10-28T08:55:19Z</time>
      </trkpt>
      <trkpt lat="47.6194" lon="1.9410706">
        <ele>178</ele>
        <time>2021-10-28T08:55:20Z</time>
      </trkpt>
      <trkpt lat="47.6194" lon="1.9410706">
        <ele>178</ele>
        <time>2021-10-28T08:55:21Z</time>
      </trkpt>
      <trkpt lat="47.61937" lon="1.9410979">
        <ele>176</ele>
        <time>2021-10-28T08:55:22Z</time>
      </trkpt>
      <trkpt lat="47.61935" lon="1.9410988">
        <ele>175</ele>
        <time>2021-10-28T08:55:23Z</time>
      </trkpt>
      <trkpt lat="47.619335" lon="1.9411016">
        <ele>175</ele>
        <time>2021-10-28T08:55:24Z</time>
      </trkpt>
      <trkpt lat="47.619324" lon="1.941106">
        <ele>175</ele>
        <time>2021-10-28T08:55:25Z</time>
      </trkpt>
      <trkpt lat="47.61931" lon="1.941107">
        <ele>175</ele>
        <time>2021-10-28T08:55:26Z</time>
      </trkpt>
      <trkpt lat="47.619293" lon="1.9411153">
        <ele>176</ele>
        <time>2021-10-28T08:55:27Z</time>
      </trkpt>
      <trkpt lat="47.619286" lon="1.9411205">
        <ele>175</ele>
        <time>2021-10-28T08:55:28Z</time>
      </trkpt>
      <trkpt lat="47.619267" lon="1.9411248">
        <ele>176</ele>
        <time>2021-10-28T08:55:29Z</time>
      </trkpt>
      <trkpt lat="47.619255" lon="1.9411249">
        <ele>176</ele>
        <time>2021-10-28T08:55:30Z</time>
      </trkpt>
      <trkpt lat="47.61924" lon="1.9411219">
        <ele>177</ele>
        <time>2021-10-28T08:55:31Z</time>
      </trkpt>
      <trkpt lat="47.619225" lon="1.9411188">
        <ele>177</ele>
        <time>2021-10-28T08:55:32Z</time>
      </trkpt>
      <trkpt lat="47.61921" lon="1.9411143">
        <ele>177</ele>
        <time>2021-10-28T08:55:33Z</time>
      </trkpt>
      <trkpt lat="47.619198" lon="1.9411094">
        <ele>178</ele>
        <time>2021-10-28T08:55:34Z</time>
      </trkpt>
      <trkpt lat="47.619186" lon="1.9411088">
        <ele>177</ele>
        <time>2021-10-28T08:55:35Z</time>
      </trkpt>
      <trkpt lat="47.619175" lon="1.9411222">
        <ele>177</ele>
        <time>2021-10-28T08:55:37Z</time>
      </trkpt>
      <trkpt lat="47.61916" lon="1.9411362">
        <ele>177</ele>
        <time>2021-10-28T08:55:38Z</time>
      </trkpt>
      <trkpt lat="47.61916" lon="1.9411408">
        <ele>178</ele>
        <time>2021-10-28T08:55:39Z</time>
      </trkpt>
      <trkpt lat="47.619156" lon="1.9411455">
        <ele>179</ele>
        <time>2021-10-28T08:55:40Z</time>
      </trkpt>
      <trkpt lat="47.619152" lon="1.9411532">
        <ele>179</ele>
        <time>2021-10-28T08:55:41Z</time>
      </trkpt>
      <trkpt lat="47.61915" lon="1.9411628">
        <ele>179</ele>
        <time>2021-10-28T08:55:42Z</time>
      </trkpt>
      <trkpt lat="47.61915" lon="1.9411628">
        <ele>179</ele>
        <time>2021-10-28T08:55:43Z</time>
      </trkpt>
      <trkpt lat="47.61915" lon="1.9411628">
        <ele>179</ele>
        <time>2021-10-28T08:55:44Z</time>
      </trkpt>
      <trkpt lat="47.619133" lon="1.9411905">
        <ele>179</ele>
        <time>2021-10-28T08:55:45Z</time>
      </trkpt>
      <trkpt lat="47.619125" lon="1.9412073">
        <ele>179</ele>
        <time>2021-10-28T08:55:46Z</time>
      </trkpt>
      <trkpt lat="47.619118" lon="1.9412286">
        <ele>179</ele>
        <time>2021-10-28T08:55:47Z</time>
      </trkpt>
      <trkpt lat="47.619114" lon="1.9412502">
        <ele>179</ele>
        <time>2021-10-28T08:55:48Z</time>
      </trkpt>
      <trkpt lat="47.61911" lon="1.9412614">
        <ele>179</ele>
        <time>2021-10-28T08:55:49Z</time>
      </trkpt>
      <trkpt lat="47.61911" lon="1.9412585">
        <ele>179</ele>
        <time>2021-10-28T08:55:50Z</time>
      </trkpt>
      <trkpt lat="47.619118" lon="1.9412634">
        <ele>178</ele>
        <time>2021-10-28T08:55:51Z</time>
      </trkpt>
      <trkpt lat="47.61912" lon="1.9412642">
        <ele>178</ele>
        <time>2021-10-28T08:55:52Z</time>
      </trkpt>
      <trkpt lat="47.619125" lon="1.9412576">
        <ele>178</ele>
        <time>2021-10-28T08:55:53Z</time>
      </trkpt>
      <trkpt lat="47.61913" lon="1.9412506">
        <ele>177</ele>
        <time>2021-10-28T08:55:54Z</time>
      </trkpt>
      <trkpt lat="47.619137" lon="1.9412467">
        <ele>176</ele>
        <time>2021-10-28T08:55:55Z</time>
      </trkpt>
      <trkpt lat="47.619144" lon="1.9412391">
        <ele>176</ele>
        <time>2021-10-28T08:55:56Z</time>
      </trkpt>
      <trkpt lat="47.619152" lon="1.9412305">
        <ele>175</ele>
        <time>2021-10-28T08:55:57Z</time>
      </trkpt>
      <trkpt lat="47.619156" lon="1.941213">
        <ele>175</ele>
        <time>2021-10-28T08:55:58Z</time>
      </trkpt>
      <trkpt lat="47.619164" lon="1.9411896">
        <ele>174</ele>
        <time>2021-10-28T08:55:59Z</time>
      </trkpt>
      <trkpt lat="47.619164" lon="1.941172">
        <ele>174</ele>
        <time>2021-10-28T08:56:00Z</time>
      </trkpt>
      <trkpt lat="47.619164" lon="1.9411573">
        <ele>174</ele>
        <time>2021-10-28T08:56:01Z</time>
      </trkpt>
      <trkpt lat="47.61916" lon="1.9411385">
        <ele>174</ele>
        <time>2021-10-28T08:56:02Z</time>
      </trkpt>
      <trkpt lat="47.619152" lon="1.9411166">
        <ele>173</ele>
        <time>2021-10-28T08:56:03Z</time>
      </trkpt>
      <trkpt lat="47.619144" lon="1.9411027">
        <ele>173</ele>
        <time>2021-10-28T08:56:04Z</time>
      </trkpt>
      <trkpt lat="47.619137" lon="1.9410863">
        <ele>173</ele>
        <time>2021-10-28T08:56:05Z</time>
      </trkpt>
      <trkpt lat="47.619125" lon="1.9410725">
        <ele>173</ele>
        <time>2021-10-28T08:56:06Z</time>
      </trkpt>
      <trkpt lat="47.619114" lon="1.9410685">
        <ele>173</ele>
        <time>2021-10-28T08:56:07Z</time>
      </trkpt>
      <trkpt lat="47.6191" lon="1.9410725">
        <ele>173</ele>
        <time>2021-10-28T08:56:08Z</time>
      </trkpt>
      <trkpt lat="47.619087" lon="1.9410777">
        <ele>174</ele>
        <time>2021-10-28T08:56:09Z</time>
      </trkpt>
      <trkpt lat="47.619076" lon="1.9410808">
        <ele>174</ele>
        <time>2021-10-28T08:56:10Z</time>
      </trkpt>
      <trkpt lat="47.619064" lon="1.9410928">
        <ele>175</ele>
        <time>2021-10-28T08:56:11Z</time>
      </trkpt>
      <trkpt lat="47.61905" lon="1.941108">
        <ele>175</ele>
        <time>2021-10-28T08:56:12Z</time>
      </trkpt>
      <trkpt lat="47.619034" lon="1.941128">
        <ele>176</ele>
        <time>2021-10-28T08:56:13Z</time>
      </trkpt>
      <trkpt lat="47.619026" lon="1.9411442">
        <ele>176</ele>
        <time>2021-10-28T08:56:14Z</time>
      </trkpt>
      <trkpt lat="47.619015" lon="1.9411608">
        <ele>176</ele>
        <time>2021-10-28T08:56:15Z</time>
      </trkpt>
      <trkpt lat="47.619003" lon="1.9411738">
        <ele>176</ele>
        <time>2021-10-28T08:56:16Z</time>
      </trkpt>
      <trkpt lat="47.618996" lon="1.9411868">
        <ele>176</ele>
        <time>2021-10-28T08:56:17Z</time>
      </trkpt>
      <trkpt lat="47.618988" lon="1.9411975">
        <ele>176</ele>
        <time>2021-10-28T08:56:18Z</time>
      </trkpt>
      <trkpt lat="47.61898" lon="1.9412142">
        <ele>176</ele>
        <time>2021-10-28T08:56:19Z</time>
      </trkpt>
      <trkpt lat="47.618973" lon="1.9412323">
        <ele>176</ele>
        <time>2021-10-28T08:56:20Z</time>
      </trkpt>
      <trkpt lat="47.61897" lon="1.9412483">
        <ele>176</ele>
        <time>2021-10-28T08:56:21Z</time>
      </trkpt>
      <trkpt lat="47.618965" lon="1.9412646">
        <ele>176</ele>
        <time>2021-10-28T08:56:22Z</time>
      </trkpt>
      <trkpt lat="47.61896" lon="1.9412831">
        <ele>177</ele>
        <time>2021-10-28T08:56:23Z</time>
      </trkpt>
      <trkpt lat="47.618958" lon="1.9413042">
        <ele>176</ele>
        <time>2021-10-28T08:56:24Z</time>
      </trkpt>
      <trkpt lat="47.61895" lon="1.9413246">
        <ele>177</ele>
        <time>2021-10-28T08:56:25Z</time>
      </trkpt>
      <trkpt lat="47.618942" lon="1.9413449">
        <ele>177</ele>
        <time>2021-10-28T08:56:26Z</time>
      </trkpt>
      <trkpt lat="47.61894" lon="1.9413613">
        <ele>177</ele>
        <time>2021-10-28T08:56:27Z</time>
      </trkpt>
      <trkpt lat="47.618935" lon="1.9413686">
        <ele>177</ele>
        <time>2021-10-28T08:56:28Z</time>
      </trkpt>
      <trkpt lat="47.618927" lon="1.9413844">
        <ele>177</ele>
        <time>2021-10-28T08:56:29Z</time>
      </trkpt>
      <trkpt lat="47.61892" lon="1.9414022">
        <ele>177</ele>
        <time>2021-10-28T08:56:30Z</time>
      </trkpt>
      <trkpt lat="47.618916" lon="1.9414217">
        <ele>176</ele>
        <time>2021-10-28T08:56:31Z</time>
      </trkpt>
      <trkpt lat="47.61891" lon="1.9414455">
        <ele>176</ele>
        <time>2021-10-28T08:56:32Z</time>
      </trkpt>
      <trkpt lat="47.618908" lon="1.9414647">
        <ele>176</ele>
        <time>2021-10-28T08:56:33Z</time>
      </trkpt>
      <trkpt lat="47.618908" lon="1.9414818">
        <ele>176</ele>
        <time>2021-10-28T08:56:34Z</time>
      </trkpt>
      <trkpt lat="47.618908" lon="1.9414965">
        <ele>175</ele>
        <time>2021-10-28T08:56:35Z</time>
      </trkpt>
      <trkpt lat="47.61891" lon="1.9415148">
        <ele>175</ele>
        <time>2021-10-28T08:56:36Z</time>
      </trkpt>
      <trkpt lat="47.61891" lon="1.9415293">
        <ele>175</ele>
        <time>2021-10-28T08:56:37Z</time>
      </trkpt>
      <trkpt lat="47.61892" lon="1.9415448">
        <ele>175</ele>
        <time>2021-10-28T08:56:38Z</time>
      </trkpt>
      <trkpt lat="47.618923" lon="1.9415681">
        <ele>174</ele>
        <time>2021-10-28T08:56:39Z</time>
      </trkpt>
      <trkpt lat="47.618923" lon="1.9415839">
        <ele>174</ele>
        <time>2021-10-28T08:56:40Z</time>
      </trkpt>
      <trkpt lat="47.618927" lon="1.9416108">
        <ele>174</ele>
        <time>2021-10-28T08:56:41Z</time>
      </trkpt>
      <trkpt lat="47.61893" lon="1.9416343">
        <ele>174</ele>
        <time>2021-10-28T08:56:42Z</time>
      </trkpt>
      <trkpt lat="47.61893" lon="1.9416553">
        <ele>174</ele>
        <time>2021-10-28T08:56:43Z</time>
      </trkpt>
      <trkpt lat="47.618927" lon="1.9416804">
        <ele>174</ele>
        <time>2021-10-28T08:56:44Z</time>
      </trkpt>
      <trkpt lat="47.618927" lon="1.9417025">
        <ele>173</ele>
        <time>2021-10-28T08:56:45Z</time>
      </trkpt>
      <trkpt lat="47.618927" lon="1.9417197">
        <ele>173</ele>
        <time>2021-10-28T08:56:46Z</time>
      </trkpt>
      <trkpt lat="47.618935" lon="1.9417344">
        <ele>173</ele>
        <time>2021-10-28T08:56:47Z</time>
      </trkpt>
      <trkpt lat="47.618942" lon="1.9417548">
        <ele>173</ele>
        <time>2021-10-28T08:56:48Z</time>
      </trkpt>
      <trkpt lat="47.618942" lon="1.941774">
        <ele>173</ele>
        <time>2021-10-28T08:56:49Z</time>
      </trkpt>
      <trkpt lat="47.61894" lon="1.9417917">
        <ele>173</ele>
        <time>2021-10-28T08:56:50Z</time>
      </trkpt>
      <trkpt lat="47.618946" lon="1.94181">
        <ele>173</ele>
        <time>2021-10-28T08:56:51Z</time>
      </trkpt>
      <trkpt lat="47.618946" lon="1.9418267">
        <ele>173</ele>
        <time>2021-10-28T08:56:52Z</time>
      </trkpt>
      <trkpt lat="47.618946" lon="1.9418488">
        <ele>173</ele>
        <time>2021-10-28T08:56:53Z</time>
      </trkpt>
      <trkpt lat="47.618946" lon="1.9418652">
        <ele>173</ele>
        <time>2021-10-28T08:56:54Z</time>
      </trkpt>
      <trkpt lat="47.61895" lon="1.9418849">
        <ele>173</ele>
        <time>2021-10-28T08:56:55Z</time>
      </trkpt>
      <trkpt lat="47.618954" lon="1.9419031">
        <ele>174</ele>
        <time>2021-10-28T08:56:56Z</time>
      </trkpt>
      <trkpt lat="47.618954" lon="1.9419218">
        <ele>174</ele>
        <time>2021-10-28T08:56:57Z</time>
      </trkpt>
      <trkpt lat="47.618958" lon="1.9419457">
        <ele>174</ele>
        <time>2021-10-28T08:56:58Z</time>
      </trkpt>
      <trkpt lat="47.618958" lon="1.9419656">
        <ele>174</ele>
        <time>2021-10-28T08:56:59Z</time>
      </trkpt>
      <trkpt lat="47.61896" lon="1.9419891">
        <ele>174</ele>
        <time>2021-10-28T08:57:00Z</time>
      </trkpt>
      <trkpt lat="47.61896" lon="1.9420086">
        <ele>174</ele>
        <time>2021-10-28T08:57:01Z</time>
      </trkpt>
      <trkpt lat="47.618958" lon="1.9420286">
        <ele>174</ele>
        <time>2021-10-28T08:57:02Z</time>
      </trkpt>
      <trkpt lat="47.618954" lon="1.9420474">
        <ele>174</ele>
        <time>2021-10-28T08:57:03Z</time>
      </trkpt>
      <trkpt lat="47.618958" lon="1.9420645">
        <ele>174</ele>
        <time>2021-10-28T08:57:04Z</time>
      </trkpt>
      <trkpt lat="47.618958" lon="1.9420764">
        <ele>175</ele>
        <time>2021-10-28T08:57:05Z</time>
      </trkpt>
      <trkpt lat="47.61896" lon="1.9420922">
        <ele>175</ele>
        <time>2021-10-28T08:57:06Z</time>
      </trkpt>
      <trkpt lat="47.61896" lon="1.9421126">
        <ele>175</ele>
        <time>2021-10-28T08:57:07Z</time>
      </trkpt>
      <trkpt lat="47.61896" lon="1.9421265">
        <ele>175</ele>
        <time>2021-10-28T08:57:08Z</time>
      </trkpt>
      <trkpt lat="47.618965" lon="1.9421408">
        <ele>175</ele>
        <time>2021-10-28T08:57:09Z</time>
      </trkpt>
      <trkpt lat="47.618965" lon="1.9421569">
        <ele>175</ele>
        <time>2021-10-28T08:57:10Z</time>
      </trkpt>
      <trkpt lat="47.618965" lon="1.9421716">
        <ele>175</ele>
        <time>2021-10-28T08:57:11Z</time>
      </trkpt>
      <trkpt lat="47.61897" lon="1.9421865">
        <ele>174</ele>
        <time>2021-10-28T08:57:12Z</time>
      </trkpt>
      <trkpt lat="47.61897" lon="1.9422063">
        <ele>174</ele>
        <time>2021-10-28T08:57:13Z</time>
      </trkpt>
      <trkpt lat="47.61897" lon="1.942224">
        <ele>175</ele>
        <time>2021-10-28T08:57:14Z</time>
      </trkpt>
      <trkpt lat="47.61897" lon="1.9422401">
        <ele>174</ele>
        <time>2021-10-28T08:57:15Z</time>
      </trkpt>
      <trkpt lat="47.61897" lon="1.9422591">
        <ele>174</ele>
        <time>2021-10-28T08:57:16Z</time>
      </trkpt>
      <trkpt lat="47.618973" lon="1.9422766">
        <ele>175</ele>
        <time>2021-10-28T08:57:17Z</time>
      </trkpt>
      <trkpt lat="47.618973" lon="1.9422916">
        <ele>175</ele>
        <time>2021-10-28T08:57:18Z</time>
      </trkpt>
      <trkpt lat="47.618973" lon="1.9422995">
        <ele>175</ele>
        <time>2021-10-28T08:57:19Z</time>
      </trkpt>
      <trkpt lat="47.618965" lon="1.9423167">
        <ele>175</ele>
        <time>2021-10-28T08:57:20Z</time>
      </trkpt>
      <trkpt lat="47.618958" lon="1.9423319">
        <ele>175</ele>
        <time>2021-10-28T08:57:21Z</time>
      </trkpt>
      <trkpt lat="47.61895" lon="1.9423469">
        <ele>175</ele>
        <time>2021-10-28T08:57:22Z</time>
      </trkpt>
      <trkpt lat="47.618942" lon="1.9423605">
        <ele>175</ele>
        <time>2021-10-28T08:57:23Z</time>
      </trkpt>
      <trkpt lat="47.618935" lon="1.942379">
        <ele>175</ele>
        <time>2021-10-28T08:57:24Z</time>
      </trkpt>
      <trkpt lat="47.61893" lon="1.942394">
        <ele>175</ele>
        <time>2021-10-28T08:57:25Z</time>
      </trkpt>
      <trkpt lat="47.618923" lon="1.9424059">
        <ele>175</ele>
        <time>2021-10-28T08:57:26Z</time>
      </trkpt>
      <trkpt lat="47.618916" lon="1.9424136">
        <ele>175</ele>
        <time>2021-10-28T08:57:27Z</time>
      </trkpt>
      <trkpt lat="47.618908" lon="1.9424247">
        <ele>175</ele>
        <time>2021-10-28T08:57:28Z</time>
      </trkpt>
      <trkpt lat="47.618904" lon="1.9424306">
        <ele>175</ele>
        <time>2021-10-28T08:57:29Z</time>
      </trkpt>
      <trkpt lat="47.618893" lon="1.9424325">
        <ele>175</ele>
        <time>2021-10-28T08:57:30Z</time>
      </trkpt>
      <trkpt lat="47.61888" lon="1.9424373">
        <ele>175</ele>
        <time>2021-10-28T08:57:31Z</time>
      </trkpt>
      <trkpt lat="47.618877" lon="1.9424417">
        <ele>174</ele>
        <time>2021-10-28T08:57:32Z</time>
      </trkpt>
      <trkpt lat="47.61887" lon="1.9424443">
        <ele>175</ele>
        <time>2021-10-28T08:57:33Z</time>
      </trkpt>
      <trkpt lat="47.61886" lon="1.9424483">
        <ele>174</ele>
        <time>2021-10-28T08:57:34Z</time>
      </trkpt>
      <trkpt lat="47.618847" lon="1.9424568">
        <ele>174</ele>
        <time>2021-10-28T08:57:35Z</time>
      </trkpt>
      <trkpt lat="47.61883" lon="1.9424658">
        <ele>174</ele>
        <time>2021-10-28T08:57:36Z</time>
      </trkpt>
      <trkpt lat="47.618824" lon="1.9424706">
        <ele>175</ele>
        <time>2021-10-28T08:57:37Z</time>
      </trkpt>
      <trkpt lat="47.618813" lon="1.9424831">
        <ele>176</ele>
        <time>2021-10-28T08:57:38Z</time>
      </trkpt>
      <trkpt lat="47.6188" lon="1.9424948">
        <ele>176</ele>
        <time>2021-10-28T08:57:39Z</time>
      </trkpt>
      <trkpt lat="47.618793" lon="1.9425087">
        <ele>176</ele>
        <time>2021-10-28T08:57:40Z</time>
      </trkpt>
      <trkpt lat="47.618786" lon="1.9425185">
        <ele>176</ele>
        <time>2021-10-28T08:57:41Z</time>
      </trkpt>
      <trkpt lat="47.61878" lon="1.9425281">
        <ele>176</ele>
        <time>2021-10-28T08:57:42Z</time>
      </trkpt>
      <trkpt lat="47.618763" lon="1.9425362">
        <ele>176</ele>
        <time>2021-10-28T08:57:43Z</time>
      </trkpt>
      <trkpt lat="47.618748" lon="1.9425417">
        <ele>176</ele>
        <time>2021-10-28T08:57:44Z</time>
      </trkpt>
      <trkpt lat="47.618732" lon="1.9425484">
        <ele>177</ele>
        <time>2021-10-28T08:57:45Z</time>
      </trkpt>
      <trkpt lat="47.61872" lon="1.9425505">
        <ele>177</ele>
        <time>2021-10-28T08:57:46Z</time>
      </trkpt>
      <trkpt lat="47.61871" lon="1.942553">
        <ele>177</ele>
        <time>2021-10-28T08:57:47Z</time>
      </trkpt>
      <trkpt lat="47.6187" lon="1.9425526">
        <ele>177</ele>
        <time>2021-10-28T08:57:48Z</time>
      </trkpt>
      <trkpt lat="47.618687" lon="1.9425576">
        <ele>177</ele>
        <time>2021-10-28T08:57:49Z</time>
      </trkpt>
      <trkpt lat="47.618675" lon="1.9425628">
        <ele>177</ele>
        <time>2021-10-28T08:57:50Z</time>
      </trkpt>
      <trkpt lat="47.618664" lon="1.9425633">
        <ele>177</ele>
        <time>2021-10-28T08:57:51Z</time>
      </trkpt>
      <trkpt lat="47.618656" lon="1.9425654">
        <ele>177</ele>
        <time>2021-10-28T08:57:52Z</time>
      </trkpt>
      <trkpt lat="47.618645" lon="1.942566">
        <ele>177</ele>
        <time>2021-10-28T08:57:53Z</time>
      </trkpt>
      <trkpt lat="47.61863" lon="1.9425745">
        <ele>178</ele>
        <time>2021-10-28T08:57:54Z</time>
      </trkpt>
      <trkpt lat="47.618626" lon="1.9425858">
        <ele>177</ele>
        <time>2021-10-28T08:57:55Z</time>
      </trkpt>
      <trkpt lat="47.61862" lon="1.942592">
        <ele>178</ele>
        <time>2021-10-28T08:57:56Z</time>
      </trkpt>
      <trkpt lat="47.618614" lon="1.9425951">
        <ele>178</ele>
        <time>2021-10-28T08:57:57Z</time>
      </trkpt>
      <trkpt lat="47.618607" lon="1.942598">
        <ele>178</ele>
        <time>2021-10-28T08:57:58Z</time>
      </trkpt>
      <trkpt lat="47.6186" lon="1.9426011">
        <ele>178</ele>
        <time>2021-10-28T08:57:59Z</time>
      </trkpt>
      <trkpt lat="47.61859" lon="1.9426033">
        <ele>178</ele>
        <time>2021-10-28T08:58:00Z</time>
      </trkpt>
      <trkpt lat="47.61858" lon="1.9426074">
        <ele>178</ele>
        <time>2021-10-28T08:58:01Z</time>
      </trkpt>
      <trkpt lat="47.618565" lon="1.9426078">
        <ele>179</ele>
        <time>2021-10-28T08:58:02Z</time>
      </trkpt>
      <trkpt lat="47.61856" lon="1.942615">
        <ele>179</ele>
        <time>2021-10-28T08:58:03Z</time>
      </trkpt>
      <trkpt lat="47.618557" lon="1.9426174">
        <ele>178</ele>
        <time>2021-10-28T08:58:04Z</time>
      </trkpt>
      <trkpt lat="47.61855" lon="1.9426162">
        <ele>178</ele>
        <time>2021-10-28T08:58:05Z</time>
      </trkpt>
      <trkpt lat="47.618538" lon="1.94262">
        <ele>178</ele>
        <time>2021-10-28T08:58:06Z</time>
      </trkpt>
      <trkpt lat="47.61853" lon="1.9426237">
        <ele>178</ele>
        <time>2021-10-28T08:58:07Z</time>
      </trkpt>
      <trkpt lat="47.61852" lon="1.9426262">
        <ele>178</ele>
        <time>2021-10-28T08:58:08Z</time>
      </trkpt>
      <trkpt lat="47.618507" lon="1.9426303">
        <ele>178</ele>
        <time>2021-10-28T08:58:09Z</time>
      </trkpt>
      <trkpt lat="47.618492" lon="1.9426337">
        <ele>178</ele>
        <time>2021-10-28T08:58:10Z</time>
      </trkpt>
      <trkpt lat="47.61848" lon="1.942643">
        <ele>179</ele>
        <time>2021-10-28T08:58:11Z</time>
      </trkpt>
      <trkpt lat="47.61847" lon="1.9426515">
        <ele>179</ele>
        <time>2021-10-28T08:58:12Z</time>
      </trkpt>
      <trkpt lat="47.61846" lon="1.9426562">
        <ele>179</ele>
        <time>2021-10-28T08:58:13Z</time>
      </trkpt>
      <trkpt lat="47.618454" lon="1.942663">
        <ele>179</ele>
        <time>2021-10-28T08:58:14Z</time>
      </trkpt>
      <trkpt lat="47.61845" lon="1.9426606">
        <ele>178</ele>
        <time>2021-10-28T08:58:15Z</time>
      </trkpt>
      <trkpt lat="47.61845" lon="1.9426595">
        <ele>179</ele>
        <time>2021-10-28T08:58:16Z</time>
      </trkpt>
      <trkpt lat="47.61844" lon="1.9426537">
        <ele>179</ele>
        <time>2021-10-28T08:58:17Z</time>
      </trkpt>
      <trkpt lat="47.618423" lon="1.9426512">
        <ele>179</ele>
        <time>2021-10-28T08:58:18Z</time>
      </trkpt>
      <trkpt lat="47.618416" lon="1.9426479">
        <ele>179</ele>
        <time>2021-10-28T08:58:19Z</time>
      </trkpt>
      <trkpt lat="47.618412" lon="1.9426435">
        <ele>179</ele>
        <time>2021-10-28T08:58:20Z</time>
      </trkpt>
      <trkpt lat="47.618404" lon="1.9426484">
        <ele>180</ele>
        <time>2021-10-28T08:58:21Z</time>
      </trkpt>
      <trkpt lat="47.618397" lon="1.9426512">
        <ele>179</ele>
        <time>2021-10-28T08:58:22Z</time>
      </trkpt>
      <trkpt lat="47.61839" lon="1.9426593">
        <ele>180</ele>
        <time>2021-10-28T08:58:23Z</time>
      </trkpt>
      <trkpt lat="47.618378" lon="1.9426696">
        <ele>180</ele>
        <time>2021-10-28T08:58:24Z</time>
      </trkpt>
      <trkpt lat="47.618366" lon="1.942677">
        <ele>180</ele>
        <time>2021-10-28T08:58:25Z</time>
      </trkpt>
      <trkpt lat="47.618355" lon="1.9426802">
        <ele>179</ele>
        <time>2021-10-28T08:58:26Z</time>
      </trkpt>
      <trkpt lat="47.618343" lon="1.9426903">
        <ele>179</ele>
        <time>2021-10-28T08:58:27Z</time>
      </trkpt>
      <trkpt lat="47.61834" lon="1.9427072">
        <ele>179</ele>
        <time>2021-10-28T08:58:28Z</time>
      </trkpt>
      <trkpt lat="47.61833" lon="1.9427181">
        <ele>180</ele>
        <time>2021-10-28T08:58:29Z</time>
      </trkpt>
      <trkpt lat="47.618317" lon="1.942725">
        <ele>179</ele>
        <time>2021-10-28T08:58:30Z</time>
      </trkpt>
      <trkpt lat="47.618305" lon="1.9427285">
        <ele>179</ele>
        <time>2021-10-28T08:58:31Z</time>
      </trkpt>
      <trkpt lat="47.61829" lon="1.9427307">
        <ele>179</ele>
        <time>2021-10-28T08:58:32Z</time>
      </trkpt>
      <trkpt lat="47.618282" lon="1.9427365">
        <ele>179</ele>
        <time>2021-10-28T08:58:33Z</time>
      </trkpt>
      <trkpt lat="47.618275" lon="1.9427419">
        <ele>179</ele>
        <time>2021-10-28T08:58:34Z</time>
      </trkpt>
      <trkpt lat="47.618267" lon="1.9427487">
        <ele>179</ele>
        <time>2021-10-28T08:58:35Z</time>
      </trkpt>
      <trkpt lat="47.61826" lon="1.9427556">
        <ele>179</ele>
        <time>2021-10-28T08:58:36Z</time>
      </trkpt>
      <trkpt lat="47.61825" lon="1.9427637">
        <ele>179</ele>
        <time>2021-10-28T08:58:37Z</time>
      </trkpt>
      <trkpt lat="47.61824" lon="1.9427712">
        <ele>178</ele>
        <time>2021-10-28T08:58:38Z</time>
      </trkpt>
      <trkpt lat="47.61823" lon="1.9427772">
        <ele>178</ele>
        <time>2021-10-28T08:58:39Z</time>
      </trkpt>
      <trkpt lat="47.618217" lon="1.9427831">
        <ele>178</ele>
        <time>2021-10-28T08:58:40Z</time>
      </trkpt>
      <trkpt lat="47.618206" lon="1.9427888">
        <ele>178</ele>
        <time>2021-10-28T08:58:41Z</time>
      </trkpt>
      <trkpt lat="47.6182" lon="1.942793">
        <ele>178</ele>
        <time>2021-10-28T08:58:42Z</time>
      </trkpt>
      <trkpt lat="47.618187" lon="1.9427975">
        <ele>178</ele>
        <time>2021-10-28T08:58:43Z</time>
      </trkpt>
      <trkpt lat="47.61817" lon="1.9428006">
        <ele>178</ele>
        <time>2021-10-28T08:58:44Z</time>
      </trkpt>
      <trkpt lat="47.618164" lon="1.9427975">
        <ele>178</ele>
        <time>2021-10-28T08:58:45Z</time>
      </trkpt>
      <trkpt lat="47.618153" lon="1.9428009">
        <ele>178</ele>
        <time>2021-10-28T08:58:46Z</time>
      </trkpt>
      <trkpt lat="47.61814" lon="1.9428073">
        <ele>177</ele>
        <time>2021-10-28T08:58:47Z</time>
      </trkpt>
      <trkpt lat="47.61813" lon="1.9428068">
        <ele>177</ele>
        <time>2021-10-28T08:58:48Z</time>
      </trkpt>
      <trkpt lat="47.618122" lon="1.9428091">
        <ele>177</ele>
        <time>2021-10-28T08:58:49Z</time>
      </trkpt>
      <trkpt lat="47.61811" lon="1.9428161">
        <ele>177</ele>
        <time>2021-10-28T08:58:50Z</time>
      </trkpt>
      <trkpt lat="47.6181" lon="1.9428209">
        <ele>177</ele>
        <time>2021-10-28T08:58:51Z</time>
      </trkpt>
      <trkpt lat="47.61809" lon="1.9428272">
        <ele>177</ele>
        <time>2021-10-28T08:58:52Z</time>
      </trkpt>
      <trkpt lat="47.618084" lon="1.9428345">
        <ele>177</ele>
        <time>2021-10-28T08:58:53Z</time>
      </trkpt>
      <trkpt lat="47.618076" lon="1.942842">
        <ele>177</ele>
        <time>2021-10-28T08:58:54Z</time>
      </trkpt>
      <trkpt lat="47.618065" lon="1.9428481">
        <ele>177</ele>
        <time>2021-10-28T08:58:55Z</time>
      </trkpt>
      <trkpt lat="47.618053" lon="1.942852">
        <ele>177</ele>
        <time>2021-10-28T08:58:56Z</time>
      </trkpt>
      <trkpt lat="47.618046" lon="1.9428566">
        <ele>176</ele>
        <time>2021-10-28T08:58:57Z</time>
      </trkpt>
      <trkpt lat="47.61804" lon="1.9428582">
        <ele>176</ele>
        <time>2021-10-28T08:58:58Z</time>
      </trkpt>
      <trkpt lat="47.618023" lon="1.9428607">
        <ele>176</ele>
        <time>2021-10-28T08:58:59Z</time>
      </trkpt>
      <trkpt lat="47.618008" lon="1.9428622">
        <ele>176</ele>
        <time>2021-10-28T08:59:00Z</time>
      </trkpt>
      <trkpt lat="47.617996" lon="1.9428625">
        <ele>176</ele>
        <time>2021-10-28T08:59:01Z</time>
      </trkpt>
      <trkpt lat="47.617985" lon="1.9428645">
        <ele>176</ele>
        <time>2021-10-28T08:59:02Z</time>
      </trkpt>
      <trkpt lat="47.617973" lon="1.9428651">
        <ele>177</ele>
        <time>2021-10-28T08:59:03Z</time>
      </trkpt>
      <trkpt lat="47.61796" lon="1.9428715">
        <ele>176</ele>
        <time>2021-10-28T08:59:04Z</time>
      </trkpt>
      <trkpt lat="47.617947" lon="1.9428746">
        <ele>177</ele>
        <time>2021-10-28T08:59:05Z</time>
      </trkpt>
      <trkpt lat="47.61793" lon="1.9428751">
        <ele>177</ele>
        <time>2021-10-28T08:59:06Z</time>
      </trkpt>
      <trkpt lat="47.61792" lon="1.9428772">
        <ele>178</ele>
        <time>2021-10-28T08:59:07Z</time>
      </trkpt>
      <trkpt lat="47.61791" lon="1.9428767">
        <ele>179</ele>
        <time>2021-10-28T08:59:08Z</time>
      </trkpt>
      <trkpt lat="47.617897" lon="1.9428777">
        <ele>179</ele>
        <time>2021-10-28T08:59:09Z</time>
      </trkpt>
      <trkpt lat="47.617886" lon="1.9428788">
        <ele>179</ele>
        <time>2021-10-28T08:59:10Z</time>
      </trkpt>
      <trkpt lat="47.61787" lon="1.9428836">
        <ele>179</ele>
        <time>2021-10-28T08:59:11Z</time>
      </trkpt>
      <trkpt lat="47.61786" lon="1.9428803">
        <ele>179</ele>
        <time>2021-10-28T08:59:12Z</time>
      </trkpt>
      <trkpt lat="47.617844" lon="1.9428793">
        <ele>179</ele>
        <time>2021-10-28T08:59:13Z</time>
      </trkpt>
      <trkpt lat="47.617836" lon="1.9428833">
        <ele>179</ele>
        <time>2021-10-28T08:59:14Z</time>
      </trkpt>
      <trkpt lat="47.617825" lon="1.9428875">
        <ele>179</ele>
        <time>2021-10-28T08:59:15Z</time>
      </trkpt>
      <trkpt lat="47.617813" lon="1.9428947">
        <ele>179</ele>
        <time>2021-10-28T08:59:16Z</time>
      </trkpt>
      <trkpt lat="47.6178" lon="1.942898">
        <ele>179</ele>
        <time>2021-10-28T08:59:17Z</time>
      </trkpt>
      <trkpt lat="47.61779" lon="1.9429015">
        <ele>179</ele>
        <time>2021-10-28T08:59:18Z</time>
      </trkpt>
      <trkpt lat="47.61778" lon="1.9429033">
        <ele>179</ele>
        <time>2021-10-28T08:59:19Z</time>
      </trkpt>
      <trkpt lat="47.617767" lon="1.9429003">
        <ele>179</ele>
        <time>2021-10-28T08:59:20Z</time>
      </trkpt>
      <trkpt lat="47.617764" lon="1.9428989">
        <ele>179</ele>
        <time>2021-10-28T08:59:21Z</time>
      </trkpt>
      <trkpt lat="47.617752" lon="1.9429001">
        <ele>179</ele>
        <time>2021-10-28T08:59:22Z</time>
      </trkpt>
      <trkpt lat="47.617737" lon="1.9429033">
        <ele>179</ele>
        <time>2021-10-28T08:59:23Z</time>
      </trkpt>
      <trkpt lat="47.617725" lon="1.9429059">
        <ele>179</ele>
        <time>2021-10-28T08:59:24Z</time>
      </trkpt>
      <trkpt lat="47.617714" lon="1.942905">
        <ele>179</ele>
        <time>2021-10-28T08:59:25Z</time>
      </trkpt>
      <trkpt lat="47.617706" lon="1.9429104">
        <ele>179</ele>
        <time>2021-10-28T08:59:26Z</time>
      </trkpt>
      <trkpt lat="47.6177" lon="1.9429203">
        <ele>179</ele>
        <time>2021-10-28T08:59:27Z</time>
      </trkpt>
      <trkpt lat="47.617702" lon="1.9429268">
        <ele>179</ele>
        <time>2021-10-28T08:59:28Z</time>
      </trkpt>
      <trkpt lat="47.617702" lon="1.942927">
        <ele>179</ele>
        <time>2021-10-28T08:59:29Z</time>
      </trkpt>
      <trkpt lat="47.617702" lon="1.9429268">
        <ele>179</ele>
        <time>2021-10-28T08:59:30Z</time>
      </trkpt>
      <trkpt lat="47.617702" lon="1.9429268">
        <ele>179</ele>
        <time>2021-10-28T08:59:30Z</time>
      </trkpt>
    </trkseg>
    <trkseg>
      <trkpt lat="47.617702" lon="1.9429268">
        <ele>179</ele>
        <time>2021-10-28T08:59:30Z</time>
      </trkpt>
      <trkpt lat="47.617634" lon="1.9429065">
        <ele>178</ele>
        <time>2021-10-28T08:59:37Z</time>
      </trkpt>
      <trkpt lat="47.617622" lon="1.942901">
        <ele>178</ele>
        <time>2021-10-28T08:59:38Z</time>
      </trkpt>
      <trkpt lat="47.61761" lon="1.9428964">
        <ele>178</ele>
        <time>2021-10-28T08:59:39Z</time>
      </trkpt>
      <trkpt lat="47.617603" lon="1.9428924">
        <ele>178</ele>
        <time>2021-10-28T08:59:40Z</time>
      </trkpt>
      <trkpt lat="47.617588" lon="1.942888">
        <ele>178</ele>
        <time>2021-10-28T08:59:41Z</time>
      </trkpt>
      <trkpt lat="47.617577" lon="1.9428914">
        <ele>177</ele>
        <time>2021-10-28T08:59:42Z</time>
      </trkpt>
      <trkpt lat="47.61756" lon="1.9428964">
        <ele>177</ele>
        <time>2021-10-28T08:59:43Z</time>
      </trkpt>
      <trkpt lat="47.617546" lon="1.9429032">
        <ele>176</ele>
        <time>2021-10-28T08:59:44Z</time>
      </trkpt>
      <trkpt lat="47.617535" lon="1.9429104">
        <ele>176</ele>
        <time>2021-10-28T08:59:45Z</time>
      </trkpt>
      <trkpt lat="47.617523" lon="1.942924">
        <ele>176</ele>
        <time>2021-10-28T08:59:46Z</time>
      </trkpt>
      <trkpt lat="47.617516" lon="1.9429227">
        <ele>176</ele>
        <time>2021-10-28T08:59:47Z</time>
      </trkpt>
      <trkpt lat="47.617516" lon="1.9429212">
        <ele>176</ele>
        <time>2021-10-28T08:59:48Z</time>
      </trkpt>
      <trkpt lat="47.617516" lon="1.9429159">
        <ele>175</ele>
        <time>2021-10-28T08:59:49Z</time>
      </trkpt>
      <trkpt lat="47.617508" lon="1.94291">
        <ele>175</ele>
        <time>2021-10-28T08:59:50Z</time>
      </trkpt>
      <trkpt lat="47.6175" lon="1.9429039">
        <ele>175</ele>
        <time>2021-10-28T08:59:51Z</time>
      </trkpt>
      <trkpt lat="47.617485" lon="1.942902">
        <ele>176</ele>
        <time>2021-10-28T08:59:52Z</time>
      </trkpt>
      <trkpt lat="47.617474" lon="1.9429064">
        <ele>176</ele>
        <time>2021-10-28T08:59:53Z</time>
      </trkpt>
      <trkpt lat="47.617462" lon="1.9429088">
        <ele>176</ele>
        <time>2021-10-28T08:59:54Z</time>
      </trkpt>
      <trkpt lat="47.61745" lon="1.942915">
        <ele>176</ele>
        <time>2021-10-28T08:59:55Z</time>
      </trkpt>
      <trkpt lat="47.61744" lon="1.9429187">
        <ele>177</ele>
        <time>2021-10-28T08:59:56Z</time>
      </trkpt>
      <trkpt lat="47.61743" lon="1.9429251">
        <ele>177</ele>
        <time>2021-10-28T08:59:57Z</time>
      </trkpt>
      <trkpt lat="47.61742" lon="1.9429299">
        <ele>177</ele>
        <time>2021-10-28T08:59:58Z</time>
      </trkpt>
      <trkpt lat="47.61741" lon="1.9429367">
        <ele>178</ele>
        <time>2021-10-28T08:59:59Z</time>
      </trkpt>
      <trkpt lat="47.617397" lon="1.9429429">
        <ele>178</ele>
        <time>2021-10-28T09:00:00Z</time>
      </trkpt>
      <trkpt lat="47.617386" lon="1.9429493">
        <ele>178</ele>
        <time>2021-10-28T09:00:01Z</time>
      </trkpt>
      <trkpt lat="47.61737" lon="1.9429529">
        <ele>178</ele>
        <time>2021-10-28T09:00:02Z</time>
      </trkpt>
      <trkpt lat="47.61736" lon="1.9429543">
        <ele>178</ele>
        <time>2021-10-28T09:00:03Z</time>
      </trkpt>
      <trkpt lat="47.61735" lon="1.9429644">
        <ele>179</ele>
        <time>2021-10-28T09:00:04Z</time>
      </trkpt>
      <trkpt lat="47.617348" lon="1.942967">
        <ele>179</ele>
        <time>2021-10-28T09:00:05Z</time>
      </trkpt>
      <trkpt lat="47.617336" lon="1.9429737">
        <ele>179</ele>
        <time>2021-10-28T09:00:06Z</time>
      </trkpt>
      <trkpt lat="47.61733" lon="1.9429824">
        <ele>179</ele>
        <time>2021-10-28T09:00:07Z</time>
      </trkpt>
      <trkpt lat="47.617313" lon="1.9429892">
        <ele>178</ele>
        <time>2021-10-28T09:00:08Z</time>
      </trkpt>
      <trkpt lat="47.6173" lon="1.9429929">
        <ele>178</ele>
        <time>2021-10-28T09:00:09Z</time>
      </trkpt>
      <trkpt lat="47.617287" lon="1.9429948">
        <ele>178</ele>
        <time>2021-10-28T09:00:10Z</time>
      </trkpt>
      <trkpt lat="47.617275" lon="1.9429958">
        <ele>178</ele>
        <time>2021-10-28T09:00:11Z</time>
      </trkpt>
      <trkpt lat="47.617264" lon="1.9430043">
        <ele>178</ele>
        <time>2021-10-28T09:00:12Z</time>
      </trkpt>
      <trkpt lat="47.61725" lon="1.9430165">
        <ele>177</ele>
        <time>2021-10-28T09:00:13Z</time>
      </trkpt>
      <trkpt lat="47.617237" lon="1.943024">
        <ele>177</ele>
        <time>2021-10-28T09:00:14Z</time>
      </trkpt>
      <trkpt lat="47.617226" lon="1.9430261">
        <ele>176</ele>
        <time>2021-10-28T09:00:15Z</time>
      </trkpt>
      <trkpt lat="47.617218" lon="1.943037">
        <ele>176</ele>
        <time>2021-10-28T09:00:16Z</time>
      </trkpt>
      <trkpt lat="47.617207" lon="1.9430429">
        <ele>175</ele>
        <time>2021-10-28T09:00:17Z</time>
      </trkpt>
      <trkpt lat="47.617195" lon="1.9430476">
        <ele>175</ele>
        <time>2021-10-28T09:00:18Z</time>
      </trkpt>
      <trkpt lat="47.617188" lon="1.9430517">
        <ele>175</ele>
        <time>2021-10-28T09:00:19Z</time>
      </trkpt>
      <trkpt lat="47.617172" lon="1.9430524">
        <ele>175</ele>
        <time>2021-10-28T09:00:20Z</time>
      </trkpt>
      <trkpt lat="47.61716" lon="1.9430553">
        <ele>175</ele>
        <time>2021-10-28T09:00:21Z</time>
      </trkpt>
      <trkpt lat="47.61715" lon="1.9430603">
        <ele>175</ele>
        <time>2021-10-28T09:00:22Z</time>
      </trkpt>
      <trkpt lat="47.617138" lon="1.9430653">
        <ele>175</ele>
        <time>2021-10-28T09:00:23Z</time>
      </trkpt>
      <trkpt lat="47.61713" lon="1.9430677">
        <ele>175</ele>
        <time>2021-10-28T09:00:24Z</time>
      </trkpt>
      <trkpt lat="47.617115" lon="1.9430763">
        <ele>175</ele>
        <time>2021-10-28T09:00:25Z</time>
      </trkpt>
      <trkpt lat="47.617104" lon="1.9430732">
        <ele>175</ele>
        <time>2021-10-28T09:00:26Z</time>
      </trkpt>
      <trkpt lat="47.617092" lon="1.9430705">
        <ele>176</ele>
        <time>2021-10-28T09:00:27Z</time>
      </trkpt>
      <trkpt lat="47.61708" lon="1.9430681">
        <ele>175</ele>
        <time>2021-10-28T09:00:28Z</time>
      </trkpt>
      <trkpt lat="47.617073" lon="1.9430722">
        <ele>175</ele>
        <time>2021-10-28T09:00:29Z</time>
      </trkpt>
      <trkpt lat="47.61706" lon="1.9430745">
        <ele>175</ele>
        <time>2021-10-28T09:00:30Z</time>
      </trkpt>
      <trkpt lat="47.61705" lon="1.9430777">
        <ele>175</ele>
        <time>2021-10-28T09:00:31Z</time>
      </trkpt>
      <trkpt lat="47.61704" lon="1.9430802">
        <ele>174</ele>
        <time>2021-10-28T09:00:32Z</time>
      </trkpt>
      <trkpt lat="47.617027" lon="1.9430889">
        <ele>175</ele>
        <time>2021-10-28T09:00:33Z</time>
      </trkpt>
      <trkpt lat="47.617016" lon="1.943093">
        <ele>175</ele>
        <time>2021-10-28T09:00:34Z</time>
      </trkpt>
      <trkpt lat="47.61701" lon="1.9430951">
        <ele>175</ele>
        <time>2021-10-28T09:00:35Z</time>
      </trkpt>
      <trkpt lat="47.616997" lon="1.9430959">
        <ele>175</ele>
        <time>2021-10-28T09:00:36Z</time>
      </trkpt>
      <trkpt lat="47.61699" lon="1.9430988">
        <ele>174</ele>
        <time>2021-10-28T09:00:37Z</time>
      </trkpt>
      <trkpt lat="47.616978" lon="1.9431027">
        <ele>175</ele>
        <time>2021-10-28T09:00:38Z</time>
      </trkpt>
      <trkpt lat="47.616966" lon="1.9431059">
        <ele>174</ele>
        <time>2021-10-28T09:00:39Z</time>
      </trkpt>
      <trkpt lat="47.61695" lon="1.943105">
        <ele>174</ele>
        <time>2021-10-28T09:00:40Z</time>
      </trkpt>
      <trkpt lat="47.616936" lon="1.9431026">
        <ele>174</ele>
        <time>2021-10-28T09:00:41Z</time>
      </trkpt>
      <trkpt lat="47.616924" lon="1.9431036">
        <ele>175</ele>
        <time>2021-10-28T09:00:42Z</time>
      </trkpt>
      <trkpt lat="47.616913" lon="1.9431013">
        <ele>174</ele>
        <time>2021-10-28T09:00:43Z</time>
      </trkpt>
      <trkpt lat="47.6169" lon="1.9431002">
        <ele>174</ele>
        <time>2021-10-28T09:00:44Z</time>
      </trkpt>
      <trkpt lat="47.61689" lon="1.9431037">
        <ele>174</ele>
        <time>2021-10-28T09:00:45Z</time>
      </trkpt>
      <trkpt lat="47.61688" lon="1.9431053">
        <ele>175</ele>
        <time>2021-10-28T09:00:46Z</time>
      </trkpt>
      <trkpt lat="47.616867" lon="1.9431114">
        <ele>175</ele>
        <time>2021-10-28T09:00:47Z</time>
      </trkpt>
      <trkpt lat="47.61685" lon="1.9431183">
        <ele>176</ele>
        <time>2021-10-28T09:00:48Z</time>
      </trkpt>
      <trkpt lat="47.61684" lon="1.9431269">
        <ele>176</ele>
        <time>2021-10-28T09:00:49Z</time>
      </trkpt>
      <trkpt lat="47.61683" lon="1.9431224">
        <ele>175</ele>
        <time>2021-10-28T09:00:50Z</time>
      </trkpt>
      <trkpt lat="47.616814" lon="1.9431264">
        <ele>175</ele>
        <time>2021-10-28T09:00:51Z</time>
      </trkpt>
      <trkpt lat="47.616802" lon="1.9431279">
        <ele>175</ele>
        <time>2021-10-28T09:00:52Z</time>
      </trkpt>
      <trkpt lat="47.616787" lon="1.943126">
        <ele>175</ele>
        <time>2021-10-28T09:00:53Z</time>
      </trkpt>
      <trkpt lat="47.616776" lon="1.9431235">
        <ele>175</ele>
        <time>2021-10-28T09:00:54Z</time>
      </trkpt>
      <trkpt lat="47.616768" lon="1.9431199">
        <ele>175</ele>
        <time>2021-10-28T09:00:55Z</time>
      </trkpt>
      <trkpt lat="47.616756" lon="1.9431186">
        <ele>176</ele>
        <time>2021-10-28T09:00:56Z</time>
      </trkpt>
      <trkpt lat="47.616745" lon="1.9431227">
        <ele>176</ele>
        <time>2021-10-28T09:00:57Z</time>
      </trkpt>
      <trkpt lat="47.616734" lon="1.9431242">
        <ele>176</ele>
        <time>2021-10-28T09:00:58Z</time>
      </trkpt>
      <trkpt lat="47.616722" lon="1.9431293">
        <ele>176</ele>
        <time>2021-10-28T09:00:59Z</time>
      </trkpt>
      <trkpt lat="47.616714" lon="1.9431355">
        <ele>175</ele>
        <time>2021-10-28T09:01:00Z</time>
      </trkpt>
      <trkpt lat="47.6167" lon="1.9431392">
        <ele>175</ele>
        <time>2021-10-28T09:01:01Z</time>
      </trkpt>
      <trkpt lat="47.616688" lon="1.9431456">
        <ele>176</ele>
        <time>2021-10-28T09:01:02Z</time>
      </trkpt>
      <trkpt lat="47.61668" lon="1.9431527">
        <ele>176</ele>
        <time>2021-10-28T09:01:03Z</time>
      </trkpt>
      <trkpt lat="47.616665" lon="1.9431615">
        <ele>175</ele>
        <time>2021-10-28T09:01:04Z</time>
      </trkpt>
      <trkpt lat="47.616653" lon="1.9431683">
        <ele>176</ele>
        <time>2021-10-28T09:01:05Z</time>
      </trkpt>
      <trkpt lat="47.61665" lon="1.943169">
        <ele>176</ele>
        <time>2021-10-28T09:01:06Z</time>
      </trkpt>
      <trkpt lat="47.61665" lon="1.9431679">
        <ele>176</ele>
        <time>2021-10-28T09:01:07Z</time>
      </trkpt>
      <trkpt lat="47.616642" lon="1.9431685">
        <ele>177</ele>
        <time>2021-10-28T09:01:08Z</time>
      </trkpt>
      <trkpt lat="47.61663" lon="1.943173">
        <ele>177</ele>
        <time>2021-10-28T09:01:09Z</time>
      </trkpt>
      <trkpt lat="47.616615" lon="1.9431784">
        <ele>177</ele>
        <time>2021-10-28T09:01:10Z</time>
      </trkpt>
      <trkpt lat="47.6166" lon="1.9431854">
        <ele>177</ele>
        <time>2021-10-28T09:01:11Z</time>
      </trkpt>
      <trkpt lat="47.61659" lon="1.9431905">
        <ele>177</ele>
        <time>2021-10-28T09:01:12Z</time>
      </trkpt>
      <trkpt lat="47.616577" lon="1.9431965">
        <ele>177</ele>
        <time>2021-10-28T09:01:13Z</time>
      </trkpt>
      <trkpt lat="47.616573" lon="1.9432006">
        <ele>177</ele>
        <time>2021-10-28T09:01:14Z</time>
      </trkpt>
      <trkpt lat="47.61656" lon="1.9432073">
        <ele>177</ele>
        <time>2021-10-28T09:01:15Z</time>
      </trkpt>
      <trkpt lat="47.616547" lon="1.9432108">
        <ele>177</ele>
        <time>2021-10-28T09:01:16Z</time>
      </trkpt>
      <trkpt lat="47.616535" lon="1.9432151">
        <ele>178</ele>
        <time>2021-10-28T09:01:17Z</time>
      </trkpt>
      <trkpt lat="47.616524" lon="1.9432188">
        <ele>177</ele>
        <time>2021-10-28T09:01:18Z</time>
      </trkpt>
      <trkpt lat="47.616512" lon="1.9432294">
        <ele>177</ele>
        <time>2021-10-28T09:01:19Z</time>
      </trkpt>
      <trkpt lat="47.6165" lon="1.9432396">
        <ele>177</ele>
        <time>2021-10-28T09:01:20Z</time>
      </trkpt>
      <trkpt lat="47.616493" lon="1.9432524">
        <ele>177</ele>
        <time>2021-10-28T09:01:21Z</time>
      </trkpt>
      <trkpt lat="47.61648" lon="1.9432636">
        <ele>177</ele>
        <time>2021-10-28T09:01:22Z</time>
      </trkpt>
      <trkpt lat="47.61647" lon="1.9432728">
        <ele>177</ele>
        <time>2021-10-28T09:01:23Z</time>
      </trkpt>
      <trkpt lat="47.61646" lon="1.9432789">
        <ele>177</ele>
        <time>2021-10-28T09:01:24Z</time>
      </trkpt>
      <trkpt lat="47.616447" lon="1.9432877">
        <ele>177</ele>
        <time>2021-10-28T09:01:25Z</time>
      </trkpt>
      <trkpt lat="47.616436" lon="1.9432923">
        <ele>177</ele>
        <time>2021-10-28T09:01:26Z</time>
      </trkpt>
      <trkpt lat="47.616425" lon="1.943297">
        <ele>177</ele>
        <time>2021-10-28T09:01:27Z</time>
      </trkpt>
      <trkpt lat="47.616413" lon="1.943301">
        <ele>177</ele>
        <time>2021-10-28T09:01:28Z</time>
      </trkpt>
      <trkpt lat="47.6164" lon="1.9433085">
        <ele>178</ele>
        <time>2021-10-28T09:01:29Z</time>
      </trkpt>
      <trkpt lat="47.61639" lon="1.9433126">
        <ele>178</ele>
        <time>2021-10-28T09:01:30Z</time>
      </trkpt>
      <trkpt lat="47.61638" lon="1.9433165">
        <ele>177</ele>
        <time>2021-10-28T09:01:31Z</time>
      </trkpt>
      <trkpt lat="47.616367" lon="1.9433253">
        <ele>177</ele>
        <time>2021-10-28T09:01:32Z</time>
      </trkpt>
      <trkpt lat="47.616356" lon="1.9433271">
        <ele>177</ele>
        <time>2021-10-28T09:01:33Z</time>
      </trkpt>
      <trkpt lat="47.61635" lon="1.9433295">
        <ele>177</ele>
        <time>2021-10-28T09:01:34Z</time>
      </trkpt>
      <trkpt lat="47.616344" lon="1.9433349">
        <ele>177</ele>
        <time>2021-10-28T09:01:35Z</time>
      </trkpt>
      <trkpt lat="47.616344" lon="1.9433368">
        <ele>177</ele>
        <time>2021-10-28T09:01:36Z</time>
      </trkpt>
      <trkpt lat="47.61634" lon="1.943341">
        <ele>177</ele>
        <time>2021-10-28T09:01:37Z</time>
      </trkpt>
      <trkpt lat="47.61633" lon="1.9433451">
        <ele>177</ele>
        <time>2021-10-28T09:01:38Z</time>
      </trkpt>
      <trkpt lat="47.616318" lon="1.9433529">
        <ele>177</ele>
        <time>2021-10-28T09:01:39Z</time>
      </trkpt>
      <trkpt lat="47.616306" lon="1.9433601">
        <ele>177</ele>
        <time>2021-10-28T09:01:40Z</time>
      </trkpt>
      <trkpt lat="47.61629" lon="1.9433659">
        <ele>176</ele>
        <time>2021-10-28T09:01:41Z</time>
      </trkpt>
      <trkpt lat="47.61628" lon="1.9433715">
        <ele>176</ele>
        <time>2021-10-28T09:01:42Z</time>
      </trkpt>
      <trkpt lat="47.61627" lon="1.94338">
        <ele>175</ele>
        <time>2021-10-28T09:01:43Z</time>
      </trkpt>
      <trkpt lat="47.616257" lon="1.9433899">
        <ele>175</ele>
        <time>2021-10-28T09:01:44Z</time>
      </trkpt>
      <trkpt lat="47.616245" lon="1.9433966">
        <ele>175</ele>
        <time>2021-10-28T09:01:45Z</time>
      </trkpt>
      <trkpt lat="47.616238" lon="1.9434066">
        <ele>174</ele>
        <time>2021-10-28T09:01:46Z</time>
      </trkpt>
      <trkpt lat="47.616226" lon="1.9434128">
        <ele>174</ele>
        <time>2021-10-28T09:01:47Z</time>
      </trkpt>
      <trkpt lat="47.61621" lon="1.943415">
        <ele>174</ele>
        <time>2021-10-28T09:01:48Z</time>
      </trkpt>
      <trkpt lat="47.616196" lon="1.9434237">
        <ele>174</ele>
        <time>2021-10-28T09:01:49Z</time>
      </trkpt>
      <trkpt lat="47.61618" lon="1.9434347">
        <ele>173</ele>
        <time>2021-10-28T09:01:50Z</time>
      </trkpt>
      <trkpt lat="47.616165" lon="1.9434452">
        <ele>173</ele>
        <time>2021-10-28T09:01:51Z</time>
      </trkpt>
      <trkpt lat="47.616154" lon="1.9434553">
        <ele>173</ele>
        <time>2021-10-28T09:01:52Z</time>
      </trkpt>
      <trkpt lat="47.616146" lon="1.9434648">
        <ele>174</ele>
        <time>2021-10-28T09:01:53Z</time>
      </trkpt>
      <trkpt lat="47.61613" lon="1.9434702">
        <ele>174</ele>
        <time>2021-10-28T09:01:54Z</time>
      </trkpt>
      <trkpt lat="47.616123" lon="1.9434761">
        <ele>174</ele>
        <time>2021-10-28T09:01:55Z</time>
      </trkpt>
      <trkpt lat="47.61611" lon="1.943485">
        <ele>174</ele>
        <time>2021-10-28T09:01:56Z</time>
      </trkpt>
      <trkpt lat="47.6161" lon="1.9434903">
        <ele>174</ele>
        <time>2021-10-28T09:01:57Z</time>
      </trkpt>
      <trkpt lat="47.61609" lon="1.9434966">
        <ele>174</ele>
        <time>2021-10-28T09:01:58Z</time>
      </trkpt>
      <trkpt lat="47.616074" lon="1.9435045">
        <ele>174</ele>
        <time>2021-10-28T09:01:59Z</time>
      </trkpt>
      <trkpt lat="47.616066" lon="1.9435155">
        <ele>174</ele>
        <time>2021-10-28T09:02:00Z</time>
      </trkpt>
      <trkpt lat="47.61605" lon="1.9435246">
        <ele>174</ele>
        <time>2021-10-28T09:02:01Z</time>
      </trkpt>
      <trkpt lat="47.61604" lon="1.943533">
        <ele>174</ele>
        <time>2021-10-28T09:02:02Z</time>
      </trkpt>
      <trkpt lat="47.616028" lon="1.9435419">
        <ele>173</ele>
        <time>2021-10-28T09:02:03Z</time>
      </trkpt>
      <trkpt lat="47.61602" lon="1.9435511">
        <ele>174</ele>
        <time>2021-10-28T09:02:04Z</time>
      </trkpt>
      <trkpt lat="47.61601" lon="1.94356">
        <ele>174</ele>
        <time>2021-10-28T09:02:05Z</time>
      </trkpt>
      <trkpt lat="47.616" lon="1.9435644">
        <ele>174</ele>
        <time>2021-10-28T09:02:06Z</time>
      </trkpt>
      <trkpt lat="47.615993" lon="1.943569">
        <ele>174</ele>
        <time>2021-10-28T09:02:07Z</time>
      </trkpt>
      <trkpt lat="47.615982" lon="1.943572">
        <ele>174</ele>
        <time>2021-10-28T09:02:08Z</time>
      </trkpt>
      <trkpt lat="47.615974" lon="1.9435793">
        <ele>175</ele>
        <time>2021-10-28T09:02:09Z</time>
      </trkpt>
      <trkpt lat="47.61596" lon="1.9435838">
        <ele>175</ele>
        <time>2021-10-28T09:02:10Z</time>
      </trkpt>
      <trkpt lat="47.61595" lon="1.9435894">
        <ele>175</ele>
        <time>2021-10-28T09:02:11Z</time>
      </trkpt>
      <trkpt lat="47.61594" lon="1.9435946">
        <ele>176</ele>
        <time>2021-10-28T09:02:12Z</time>
      </trkpt>
      <trkpt lat="47.61593" lon="1.943597">
        <ele>175</ele>
        <time>2021-10-28T09:02:13Z</time>
      </trkpt>
      <trkpt lat="47.615913" lon="1.9436027">
        <ele>176</ele>
        <time>2021-10-28T09:02:14Z</time>
      </trkpt>
      <trkpt lat="47.615902" lon="1.9436123">
        <ele>175</ele>
        <time>2021-10-28T09:02:15Z</time>
      </trkpt>
      <trkpt lat="47.615894" lon="1.9436191">
        <ele>175</ele>
        <time>2021-10-28T09:02:16Z</time>
      </trkpt>
      <trkpt lat="47.615887" lon="1.9436276">
        <ele>175</ele>
        <time>2021-10-28T09:02:17Z</time>
      </trkpt>
      <trkpt lat="47.615875" lon="1.9436404">
        <ele>175</ele>
        <time>2021-10-28T09:02:18Z</time>
      </trkpt>
      <trkpt lat="47.615864" lon="1.943648">
        <ele>175</ele>
        <time>2021-10-28T09:02:19Z</time>
      </trkpt>
      <trkpt lat="47.615852" lon="1.9436586">
        <ele>176</ele>
        <time>2021-10-28T09:02:20Z</time>
      </trkpt>
      <trkpt lat="47.61584" lon="1.9436733">
        <ele>175</ele>
        <time>2021-10-28T09:02:21Z</time>
      </trkpt>
      <trkpt lat="47.61583" lon="1.9436878">
        <ele>175</ele>
        <time>2021-10-28T09:02:22Z</time>
      </trkpt>
      <trkpt lat="47.615818" lon="1.9436998">
        <ele>175</ele>
        <time>2021-10-28T09:02:23Z</time>
      </trkpt>
      <trkpt lat="47.615807" lon="1.9437143">
        <ele>174</ele>
        <time>2021-10-28T09:02:24Z</time>
      </trkpt>
      <trkpt lat="47.615795" lon="1.9437274">
        <ele>174</ele>
        <time>2021-10-28T09:02:25Z</time>
      </trkpt>
      <trkpt lat="47.615784" lon="1.9437417">
        <ele>174</ele>
        <time>2021-10-28T09:02:26Z</time>
      </trkpt>
      <trkpt lat="47.615772" lon="1.9437544">
        <ele>174</ele>
        <time>2021-10-28T09:02:27Z</time>
      </trkpt>
      <trkpt lat="47.61576" lon="1.9437637">
        <ele>174</ele>
        <time>2021-10-28T09:02:28Z</time>
      </trkpt>
      <trkpt lat="47.61575" lon="1.9437685">
        <ele>174</ele>
        <time>2021-10-28T09:02:29Z</time>
      </trkpt>
      <trkpt lat="47.615746" lon="1.9437774">
        <ele>174</ele>
        <time>2021-10-28T09:02:30Z</time>
      </trkpt>
      <trkpt lat="47.61573" lon="1.9437878">
        <ele>174</ele>
        <time>2021-10-28T09:02:31Z</time>
      </trkpt>
      <trkpt lat="47.615723" lon="1.9437928">
        <ele>174</ele>
        <time>2021-10-28T09:02:32Z</time>
      </trkpt>
      <trkpt lat="47.615715" lon="1.9438038">
        <ele>173</ele>
        <time>2021-10-28T09:02:33Z</time>
      </trkpt>
      <trkpt lat="47.615704" lon="1.9438109">
        <ele>173</ele>
        <time>2021-10-28T09:02:34Z</time>
      </trkpt>
      <trkpt lat="47.615696" lon="1.9438205">
        <ele>173</ele>
        <time>2021-10-28T09:02:35Z</time>
      </trkpt>
      <trkpt lat="47.61569" lon="1.9438258">
        <ele>173</ele>
        <time>2021-10-28T09:02:36Z</time>
      </trkpt>
      <trkpt lat="47.615677" lon="1.9438306">
        <ele>173</ele>
        <time>2021-10-28T09:02:37Z</time>
      </trkpt>
      <trkpt lat="47.615665" lon="1.9438387">
        <ele>173</ele>
        <time>2021-10-28T09:02:38Z</time>
      </trkpt>
      <trkpt lat="47.615658" lon="1.9438475">
        <ele>173</ele>
        <time>2021-10-28T09:02:39Z</time>
      </trkpt>
      <trkpt lat="47.615646" lon="1.9438578">
        <ele>173</ele>
        <time>2021-10-28T09:02:40Z</time>
      </trkpt>
      <trkpt lat="47.615635" lon="1.9438714">
        <ele>173</ele>
        <time>2021-10-28T09:02:41Z</time>
      </trkpt>
      <trkpt lat="47.615627" lon="1.943878">
        <ele>173</ele>
        <time>2021-10-28T09:02:42Z</time>
      </trkpt>
      <trkpt lat="47.615616" lon="1.9438895">
        <ele>173</ele>
        <time>2021-10-28T09:02:43Z</time>
      </trkpt>
      <trkpt lat="47.615604" lon="1.9438939">
        <ele>174</ele>
        <time>2021-10-28T09:02:44Z</time>
      </trkpt>
      <trkpt lat="47.615593" lon="1.9438992">
        <ele>174</ele>
        <time>2021-10-28T09:02:45Z</time>
      </trkpt>
      <trkpt lat="47.615578" lon="1.9439124">
        <ele>174</ele>
        <time>2021-10-28T09:02:46Z</time>
      </trkpt>
      <trkpt lat="47.615562" lon="1.9439195">
        <ele>174</ele>
        <time>2021-10-28T09:02:47Z</time>
      </trkpt>
      <trkpt lat="47.61555" lon="1.9439282">
        <ele>174</ele>
        <time>2021-10-28T09:02:48Z</time>
      </trkpt>
      <trkpt lat="47.615536" lon="1.9439282">
        <ele>174</ele>
        <time>2021-10-28T09:02:49Z</time>
      </trkpt>
      <trkpt lat="47.61552" lon="1.9439282">
        <ele>174</ele>
        <time>2021-10-28T09:02:50Z</time>
      </trkpt>
      <trkpt lat="47.615505" lon="1.9439328">
        <ele>174</ele>
        <time>2021-10-28T09:02:51Z</time>
      </trkpt>
      <trkpt lat="47.615494" lon="1.9439347">
        <ele>174</ele>
        <time>2021-10-28T09:02:52Z</time>
      </trkpt>
      <trkpt lat="47.615482" lon="1.9439373">
        <ele>175</ele>
        <time>2021-10-28T09:02:53Z</time>
      </trkpt>
      <trkpt lat="47.61547" lon="1.9439368">
        <ele>175</ele>
        <time>2021-10-28T09:02:54Z</time>
      </trkpt>
      <trkpt lat="47.61546" lon="1.9439373">
        <ele>175</ele>
        <time>2021-10-28T09:02:55Z</time>
      </trkpt>
      <trkpt lat="47.615448" lon="1.9439396">
        <ele>176</ele>
        <time>2021-10-28T09:02:56Z</time>
      </trkpt>
      <trkpt lat="47.615437" lon="1.9439453">
        <ele>175</ele>
        <time>2021-10-28T09:02:57Z</time>
      </trkpt>
      <trkpt lat="47.615425" lon="1.9439553">
        <ele>175</ele>
        <time>2021-10-28T09:02:58Z</time>
      </trkpt>
      <trkpt lat="47.615414" lon="1.9439566">
        <ele>175</ele>
        <time>2021-10-28T09:02:59Z</time>
      </trkpt>
      <trkpt lat="47.615406" lon="1.9439529">
        <ele>175</ele>
        <time>2021-10-28T09:03:00Z</time>
      </trkpt>
      <trkpt lat="47.615395" lon="1.9439495">
        <ele>176</ele>
        <time>2021-10-28T09:03:01Z</time>
      </trkpt>
      <trkpt lat="47.615387" lon="1.9439374">
        <ele>175</ele>
        <time>2021-10-28T09:03:02Z</time>
      </trkpt>
      <trkpt lat="47.615387" lon="1.9439374">
        <ele>175</ele>
        <time>2021-10-28T09:03:02Z</time>
      </trkpt>
      <trkpt lat="47.61538" lon="1.9439322">
        <ele>175</ele>
        <time>2021-10-28T09:03:04Z</time>
      </trkpt>
      <trkpt lat="47.615376" lon="1.9439274">
        <ele>175</ele>
        <time>2021-10-28T09:03:05Z</time>
      </trkpt>
      <trkpt lat="47.615368" lon="1.9439237">
        <ele>175</ele>
        <time>2021-10-28T09:03:06Z</time>
      </trkpt>
      <trkpt lat="47.61536" lon="1.9439186">
        <ele>174</ele>
        <time>2021-10-28T09:03:07Z</time>
      </trkpt>
      <trkpt lat="47.61535" lon="1.9439121">
        <ele>174</ele>
        <time>2021-10-28T09:03:08Z</time>
      </trkpt>
      <trkpt lat="47.615337" lon="1.9439113">
        <ele>174</ele>
        <time>2021-10-28T09:03:09Z</time>
      </trkpt>
      <trkpt lat="47.615314" lon="1.9439145">
        <ele>173</ele>
        <time>2021-10-28T09:03:10Z</time>
      </trkpt>
      <trkpt lat="47.615314" lon="1.9439145">
        <ele>173</ele>
        <time>2021-10-28T09:03:10Z</time>
      </trkpt>
      <trkpt lat="47.615303" lon="1.943915">
        <ele>173</ele>
        <time>2021-10-28T09:03:12Z</time>
      </trkpt>
      <trkpt lat="47.61529" lon="1.9439116">
        <ele>173</ele>
        <time>2021-10-28T09:03:13Z</time>
      </trkpt>
      <trkpt lat="47.61528" lon="1.943909">
        <ele>173</ele>
        <time>2021-10-28T09:03:14Z</time>
      </trkpt>
      <trkpt lat="47.615273" lon="1.9439143">
        <ele>173</ele>
        <time>2021-10-28T09:03:15Z</time>
      </trkpt>
      <trkpt lat="47.61526" lon="1.9439201">
        <ele>173</ele>
        <time>2021-10-28T09:03:16Z</time>
      </trkpt>
      <trkpt lat="47.61525" lon="1.9439254">
        <ele>172</ele>
        <time>2021-10-28T09:03:17Z</time>
      </trkpt>
      <trkpt lat="47.61524" lon="1.9439344">
        <ele>172</ele>
        <time>2021-10-28T09:03:18Z</time>
      </trkpt>
      <trkpt lat="47.615227" lon="1.9439421">
        <ele>172</ele>
        <time>2021-10-28T09:03:19Z</time>
      </trkpt>
      <trkpt lat="47.615215" lon="1.9439477">
        <ele>172</ele>
        <time>2021-10-28T09:03:20Z</time>
      </trkpt>
      <trkpt lat="47.6152" lon="1.9439529">
        <ele>172</ele>
        <time>2021-10-28T09:03:21Z</time>
      </trkpt>
      <trkpt lat="47.61519" lon="1.9439569">
        <ele>172</ele>
        <time>2021-10-28T09:03:22Z</time>
      </trkpt>
      <trkpt lat="47.615166" lon="1.9439578">
        <ele>172</ele>
        <time>2021-10-28T09:03:23Z</time>
      </trkpt>
      <trkpt lat="47.615166" lon="1.9439578">
        <ele>172</ele>
        <time>2021-10-28T09:03:23Z</time>
      </trkpt>
      <trkpt lat="47.615143" lon="1.943961">
        <ele>172</ele>
        <time>2021-10-28T09:03:25Z</time>
      </trkpt>
      <trkpt lat="47.615143" lon="1.943961">
        <ele>172</ele>
        <time>2021-10-28T09:03:25Z</time>
      </trkpt>
      <trkpt lat="47.615135" lon="1.9439566">
        <ele>172</ele>
        <time>2021-10-28T09:03:27Z</time>
      </trkpt>
      <trkpt lat="47.615124" lon="1.9439486">
        <ele>172</ele>
        <time>2021-10-28T09:03:28Z</time>
      </trkpt>
      <trkpt lat="47.6151" lon="1.943937">
        <ele>172</ele>
        <time>2021-10-28T09:03:29Z</time>
      </trkpt>
      <trkpt lat="47.615097" lon="1.9439267">
        <ele>171</ele>
        <time>2021-10-28T09:03:30Z</time>
      </trkpt>
      <trkpt lat="47.615093" lon="1.9439164">
        <ele>171</ele>
        <time>2021-10-28T09:03:31Z</time>
      </trkpt>
      <trkpt lat="47.615086" lon="1.9439074">
        <ele>171</ele>
        <time>2021-10-28T09:03:32Z</time>
      </trkpt>
      <trkpt lat="47.61508" lon="1.9438968">
        <ele>171</ele>
        <time>2021-10-28T09:03:33Z</time>
      </trkpt>
      <trkpt lat="47.61508" lon="1.9438968">
        <ele>171</ele>
        <time>2021-10-28T09:03:33Z</time>
      </trkpt>
      <trkpt lat="47.615063" lon="1.9438794">
        <ele>171</ele>
        <time>2021-10-28T09:03:35Z</time>
      </trkpt>
      <trkpt lat="47.615063" lon="1.9438794">
        <ele>171</ele>
        <time>2021-10-28T09:03:35Z</time>
      </trkpt>
      <trkpt lat="47.615047" lon="1.9438752">
        <ele>171</ele>
        <time>2021-10-28T09:03:37Z</time>
      </trkpt>
      <trkpt lat="47.615032" lon="1.943869">
        <ele>170</ele>
        <time>2021-10-28T09:03:38Z</time>
      </trkpt>
      <trkpt lat="47.61501" lon="1.9438459">
        <ele>171</ele>
        <time>2021-10-28T09:03:39Z</time>
      </trkpt>
      <trkpt lat="47.615" lon="1.9438318">
        <ele>171</ele>
        <time>2021-10-28T09:03:40Z</time>
      </trkpt>
      <trkpt lat="47.614994" lon="1.9438182">
        <ele>171</ele>
        <time>2021-10-28T09:03:41Z</time>
      </trkpt>
      <trkpt lat="47.614986" lon="1.9438016">
        <ele>171</ele>
        <time>2021-10-28T09:03:42Z</time>
      </trkpt>
      <trkpt lat="47.61498" lon="1.9437908">
        <ele>172</ele>
        <time>2021-10-28T09:03:43Z</time>
      </trkpt>
      <trkpt lat="47.61497" lon="1.9437736">
        <ele>171</ele>
        <time>2021-10-28T09:03:44Z</time>
      </trkpt>
      <trkpt lat="47.614967" lon="1.9437555">
        <ele>172</ele>
        <time>2021-10-28T09:03:45Z</time>
      </trkpt>
      <trkpt lat="47.61496" lon="1.9437356">
        <ele>172</ele>
        <time>2021-10-28T09:03:46Z</time>
      </trkpt>
      <trkpt lat="47.614956" lon="1.9437138">
        <ele>172</ele>
        <time>2021-10-28T09:03:47Z</time>
      </trkpt>
      <trkpt lat="47.614956" lon="1.9437138">
        <ele>172</ele>
        <time>2021-10-28T09:03:47Z</time>
      </trkpt>
      <trkpt lat="47.614952" lon="1.9436784">
        <ele>172</ele>
        <time>2021-10-28T09:03:49Z</time>
      </trkpt>
      <trkpt lat="47.61495" lon="1.9436587">
        <ele>172</ele>
        <time>2021-10-28T09:03:50Z</time>
      </trkpt>
      <trkpt lat="47.61495" lon="1.9436404">
        <ele>172</ele>
        <time>2021-10-28T09:03:51Z</time>
      </trkpt>
      <trkpt lat="47.61495" lon="1.9436239">
        <ele>172</ele>
        <time>2021-10-28T09:03:52Z</time>
      </trkpt>
      <trkpt lat="47.614952" lon="1.9436045">
        <ele>172</ele>
        <time>2021-10-28T09:03:53Z</time>
      </trkpt>
      <trkpt lat="47.614952" lon="1.9435804">
        <ele>172</ele>
        <time>2021-10-28T09:03:54Z</time>
      </trkpt>
      <trkpt lat="47.61495" lon="1.9435538">
        <ele>171</ele>
        <time>2021-10-28T09:03:55Z</time>
      </trkpt>
      <trkpt lat="47.61495" lon="1.9435358">
        <ele>171</ele>
        <time>2021-10-28T09:03:56Z</time>
      </trkpt>
      <trkpt lat="47.61495" lon="1.9435158">
        <ele>171</ele>
        <time>2021-10-28T09:03:57Z</time>
      </trkpt>
      <trkpt lat="47.61495" lon="1.9434949">
        <ele>171</ele>
        <time>2021-10-28T09:03:58Z</time>
      </trkpt>
      <trkpt lat="47.61495" lon="1.943482">
        <ele>170</ele>
        <time>2021-10-28T09:03:59Z</time>
      </trkpt>
      <trkpt lat="47.614952" lon="1.9434631">
        <ele>171</ele>
        <time>2021-10-28T09:04:00Z</time>
      </trkpt>
      <trkpt lat="47.614952" lon="1.943445">
        <ele>171</ele>
        <time>2021-10-28T09:04:01Z</time>
      </trkpt>
      <trkpt lat="47.614952" lon="1.9434254">
        <ele>171</ele>
        <time>2021-10-28T09:04:02Z</time>
      </trkpt>
      <trkpt lat="47.614952" lon="1.9434043">
        <ele>171</ele>
        <time>2021-10-28T09:04:03Z</time>
      </trkpt>
      <trkpt lat="47.614952" lon="1.9433856">
        <ele>171</ele>
        <time>2021-10-28T09:04:04Z</time>
      </trkpt>
      <trkpt lat="47.614952" lon="1.9433669">
        <ele>171</ele>
        <time>2021-10-28T09:04:05Z</time>
      </trkpt>
      <trkpt lat="47.61495" lon="1.9433489">
        <ele>171</ele>
        <time>2021-10-28T09:04:06Z</time>
      </trkpt>
      <trkpt lat="47.614944" lon="1.9433284">
        <ele>170</ele>
        <time>2021-10-28T09:04:07Z</time>
      </trkpt>
      <trkpt lat="47.614944" lon="1.9433097">
        <ele>170</ele>
        <time>2021-10-28T09:04:08Z</time>
      </trkpt>
      <trkpt lat="47.61494" lon="1.9432899">
        <ele>170</ele>
        <time>2021-10-28T09:04:09Z</time>
      </trkpt>
      <trkpt lat="47.61494" lon="1.9432725">
        <ele>170</ele>
        <time>2021-10-28T09:04:10Z</time>
      </trkpt>
      <trkpt lat="47.614937" lon="1.9432527">
        <ele>170</ele>
        <time>2021-10-28T09:04:11Z</time>
      </trkpt>
      <trkpt lat="47.614933" lon="1.9432296">
        <ele>170</ele>
        <time>2021-10-28T09:04:12Z</time>
      </trkpt>
      <trkpt lat="47.614933" lon="1.9432073">
        <ele>170</ele>
        <time>2021-10-28T09:04:13Z</time>
      </trkpt>
      <trkpt lat="47.614933" lon="1.9431881">
        <ele>170</ele>
        <time>2021-10-28T09:04:14Z</time>
      </trkpt>
      <trkpt lat="47.61493" lon="1.9431704">
        <ele>171</ele>
        <time>2021-10-28T09:04:15Z</time>
      </trkpt>
      <trkpt lat="47.61493" lon="1.9431541">
        <ele>171</ele>
        <time>2021-10-28T09:04:16Z</time>
      </trkpt>
      <trkpt lat="47.61493" lon="1.9431425">
        <ele>171</ele>
        <time>2021-10-28T09:04:17Z</time>
      </trkpt>
      <trkpt lat="47.61493" lon="1.943125">
        <ele>171</ele>
        <time>2021-10-28T09:04:18Z</time>
      </trkpt>
      <trkpt lat="47.61493" lon="1.9431072">
        <ele>171</ele>
        <time>2021-10-28T09:04:19Z</time>
      </trkpt>
      <trkpt lat="47.614925" lon="1.943089">
        <ele>171</ele>
        <time>2021-10-28T09:04:20Z</time>
      </trkpt>
      <trkpt lat="47.614925" lon="1.943072">
        <ele>171</ele>
        <time>2021-10-28T09:04:21Z</time>
      </trkpt>
      <trkpt lat="47.614925" lon="1.943055">
        <ele>172</ele>
        <time>2021-10-28T09:04:22Z</time>
      </trkpt>
      <trkpt lat="47.61492" lon="1.9430404">
        <ele>172</ele>
        <time>2021-10-28T09:04:23Z</time>
      </trkpt>
      <trkpt lat="47.61492" lon="1.9430192">
        <ele>172</ele>
        <time>2021-10-28T09:04:24Z</time>
      </trkpt>
      <trkpt lat="47.61492" lon="1.9429971">
        <ele>172</ele>
        <time>2021-10-28T09:04:25Z</time>
      </trkpt>
      <trkpt lat="47.614918" lon="1.942979">
        <ele>172</ele>
        <time>2021-10-28T09:04:26Z</time>
      </trkpt>
      <trkpt lat="47.61492" lon="1.9429624">
        <ele>171</ele>
        <time>2021-10-28T09:04:27Z</time>
      </trkpt>
      <trkpt lat="47.61492" lon="1.9429517">
        <ele>171</ele>
        <time>2021-10-28T09:04:28Z</time>
      </trkpt>
      <trkpt lat="47.61492" lon="1.9429386">
        <ele>172</ele>
        <time>2021-10-28T09:04:29Z</time>
      </trkpt>
      <trkpt lat="47.614925" lon="1.9429247">
        <ele>173</ele>
        <time>2021-10-28T09:04:30Z</time>
      </trkpt>
      <trkpt lat="47.61492" lon="1.9429102">
        <ele>173</ele>
        <time>2021-10-28T09:04:31Z</time>
      </trkpt>
      <trkpt lat="47.61492" lon="1.9428947">
        <ele>173</ele>
        <time>2021-10-28T09:04:32Z</time>
      </trkpt>
      <trkpt lat="47.61492" lon="1.9428785">
        <ele>173</ele>
        <time>2021-10-28T09:04:33Z</time>
      </trkpt>
      <trkpt lat="47.61492" lon="1.942859">
        <ele>173</ele>
        <time>2021-10-28T09:04:34Z</time>
      </trkpt>
      <trkpt lat="47.614918" lon="1.9428405">
        <ele>174</ele>
        <time>2021-10-28T09:04:35Z</time>
      </trkpt>
      <trkpt lat="47.614914" lon="1.9428253">
        <ele>174</ele>
        <time>2021-10-28T09:04:36Z</time>
      </trkpt>
      <trkpt lat="47.61491" lon="1.9428045">
        <ele>174</ele>
        <time>2021-10-28T09:04:37Z</time>
      </trkpt>
      <trkpt lat="47.614902" lon="1.9427819">
        <ele>174</ele>
        <time>2021-10-28T09:04:38Z</time>
      </trkpt>
      <trkpt lat="47.614895" lon="1.9427602">
        <ele>174</ele>
        <time>2021-10-28T09:04:39Z</time>
      </trkpt>
      <trkpt lat="47.614895" lon="1.9427402">
        <ele>174</ele>
        <time>2021-10-28T09:04:40Z</time>
      </trkpt>
      <trkpt lat="47.61489" lon="1.9427218">
        <ele>174</ele>
        <time>2021-10-28T09:04:41Z</time>
      </trkpt>
      <trkpt lat="47.614887" lon="1.9427004">
        <ele>174</ele>
        <time>2021-10-28T09:04:42Z</time>
      </trkpt>
      <trkpt lat="47.614883" lon="1.9426789">
        <ele>174</ele>
        <time>2021-10-28T09:04:43Z</time>
      </trkpt>
      <trkpt lat="47.614876" lon="1.9426605">
        <ele>174</ele>
        <time>2021-10-28T09:04:44Z</time>
      </trkpt>
      <trkpt lat="47.614872" lon="1.9426409">
        <ele>174</ele>
        <time>2021-10-28T09:04:45Z</time>
      </trkpt>
      <trkpt lat="47.614872" lon="1.9426284">
        <ele>174</ele>
        <time>2021-10-28T09:04:46Z</time>
      </trkpt>
      <trkpt lat="47.61487" lon="1.9426199">
        <ele>173</ele>
        <time>2021-10-28T09:04:47Z</time>
      </trkpt>
      <trkpt lat="47.61487" lon="1.9426208">
        <ele>172</ele>
        <time>2021-10-28T09:04:48Z</time>
      </trkpt>
      <trkpt lat="47.614864" lon="1.9426168">
        <ele>172</ele>
        <time>2021-10-28T09:04:49Z</time>
      </trkpt>
      <trkpt lat="47.614864" lon="1.9426168">
        <ele>172</ele>
        <time>2021-10-28T09:04:50Z</time>
      </trkpt>
      <trkpt lat="47.614864" lon="1.9426168">
        <ele>172</ele>
        <time>2021-10-28T09:04:51Z</time>
      </trkpt>
      <trkpt lat="47.61485" lon="1.9426033">
        <ele>171</ele>
        <time>2021-10-28T09:04:52Z</time>
      </trkpt>
      <trkpt lat="47.61484" lon="1.9425844">
        <ele>172</ele>
        <time>2021-10-28T09:04:53Z</time>
      </trkpt>
      <trkpt lat="47.614834" lon="1.9425683">
        <ele>171</ele>
        <time>2021-10-28T09:04:54Z</time>
      </trkpt>
      <trkpt lat="47.61483" lon="1.9425468">
        <ele>171</ele>
        <time>2021-10-28T09:04:55Z</time>
      </trkpt>
      <trkpt lat="47.61483" lon="1.9425266">
        <ele>171</ele>
        <time>2021-10-28T09:04:56Z</time>
      </trkpt>
      <trkpt lat="47.61483" lon="1.9425107">
        <ele>170</ele>
        <time>2021-10-28T09:04:57Z</time>
      </trkpt>
      <trkpt lat="47.614834" lon="1.9424955">
        <ele>170</ele>
        <time>2021-10-28T09:04:58Z</time>
      </trkpt>
      <trkpt lat="47.614838" lon="1.9424751">
        <ele>170</ele>
        <time>2021-10-28T09:04:59Z</time>
      </trkpt>
      <trkpt lat="47.614838" lon="1.9424542">
        <ele>170</ele>
        <time>2021-10-28T09:05:00Z</time>
      </trkpt>
      <trkpt lat="47.614838" lon="1.942433">
        <ele>170</ele>
        <time>2021-10-28T09:05:01Z</time>
      </trkpt>
      <trkpt lat="47.614838" lon="1.9424145">
        <ele>170</ele>
        <time>2021-10-28T09:05:02Z</time>
      </trkpt>
      <trkpt lat="47.614838" lon="1.9423933">
        <ele>170</ele>
        <time>2021-10-28T09:05:03Z</time>
      </trkpt>
      <trkpt lat="47.614834" lon="1.9423772">
        <ele>171</ele>
        <time>2021-10-28T09:05:04Z</time>
      </trkpt>
      <trkpt lat="47.61483" lon="1.9423631">
        <ele>171</ele>
        <time>2021-10-28T09:05:05Z</time>
      </trkpt>
      <trkpt lat="47.61483" lon="1.9423484">
        <ele>171</ele>
        <time>2021-10-28T09:05:06Z</time>
      </trkpt>
      <trkpt lat="47.614826" lon="1.942328">
        <ele>170</ele>
        <time>2021-10-28T09:05:07Z</time>
      </trkpt>
      <trkpt lat="47.614822" lon="1.942308">
        <ele>170</ele>
        <time>2021-10-28T09:05:08Z</time>
      </trkpt>
      <trkpt lat="47.61482" lon="1.9422843">
        <ele>170</ele>
        <time>2021-10-28T09:05:09Z</time>
      </trkpt>
      <trkpt lat="47.614815" lon="1.9422619">
        <ele>169</ele>
        <time>2021-10-28T09:05:10Z</time>
      </trkpt>
      <trkpt lat="47.61481" lon="1.9422442">
        <ele>169</ele>
        <time>2021-10-28T09:05:11Z</time>
      </trkpt>
      <trkpt lat="47.61481" lon="1.9422297">
        <ele>168</ele>
        <time>2021-10-28T09:05:12Z</time>
      </trkpt>
      <trkpt lat="47.614807" lon="1.9422151">
        <ele>168</ele>
        <time>2021-10-28T09:05:13Z</time>
      </trkpt>
      <trkpt lat="47.614807" lon="1.942197">
        <ele>168</ele>
        <time>2021-10-28T09:05:14Z</time>
      </trkpt>
      <trkpt lat="47.614803" lon="1.9421823">
        <ele>168</ele>
        <time>2021-10-28T09:05:15Z</time>
      </trkpt>
      <trkpt lat="47.6148" lon="1.9421622">
        <ele>168</ele>
        <time>2021-10-28T09:05:16Z</time>
      </trkpt>
      <trkpt lat="47.6148" lon="1.9421468">
        <ele>168</ele>
        <time>2021-10-28T09:05:17Z</time>
      </trkpt>
      <trkpt lat="47.6148" lon="1.9421308">
        <ele>168</ele>
        <time>2021-10-28T09:05:18Z</time>
      </trkpt>
      <trkpt lat="47.6148" lon="1.9421175">
        <ele>168</ele>
        <time>2021-10-28T09:05:19Z</time>
      </trkpt>
      <trkpt lat="47.614796" lon="1.9421033">
        <ele>168</ele>
        <time>2021-10-28T09:05:20Z</time>
      </trkpt>
      <trkpt lat="47.614788" lon="1.9420879">
        <ele>168</ele>
        <time>2021-10-28T09:05:21Z</time>
      </trkpt>
      <trkpt lat="47.61478" lon="1.9420711">
        <ele>168</ele>
        <time>2021-10-28T09:05:22Z</time>
      </trkpt>
      <trkpt lat="47.614777" lon="1.9420519">
        <ele>168</ele>
        <time>2021-10-28T09:05:23Z</time>
      </trkpt>
      <trkpt lat="47.614777" lon="1.9420348">
        <ele>168</ele>
        <time>2021-10-28T09:05:24Z</time>
      </trkpt>
      <trkpt lat="47.614777" lon="1.942015">
        <ele>167</ele>
        <time>2021-10-28T09:05:25Z</time>
      </trkpt>
      <trkpt lat="47.614777" lon="1.9419962">
        <ele>167</ele>
        <time>2021-10-28T09:05:26Z</time>
      </trkpt>
      <trkpt lat="47.614777" lon="1.9419823">
        <ele>168</ele>
        <time>2021-10-28T09:05:27Z</time>
      </trkpt>
      <trkpt lat="47.614777" lon="1.9419649">
        <ele>168</ele>
        <time>2021-10-28T09:05:28Z</time>
      </trkpt>
      <trkpt lat="47.614773" lon="1.9419478">
        <ele>168</ele>
        <time>2021-10-28T09:05:29Z</time>
      </trkpt>
      <trkpt lat="47.614773" lon="1.9419353">
        <ele>168</ele>
        <time>2021-10-28T09:05:30Z</time>
      </trkpt>
      <trkpt lat="47.61477" lon="1.9419215">
        <ele>168</ele>
        <time>2021-10-28T09:05:31Z</time>
      </trkpt>
      <trkpt lat="47.614765" lon="1.9419085">
        <ele>168</ele>
        <time>2021-10-28T09:05:32Z</time>
      </trkpt>
      <trkpt lat="47.614765" lon="1.941893">
        <ele>169</ele>
        <time>2021-10-28T09:05:33Z</time>
      </trkpt>
      <trkpt lat="47.61476" lon="1.9418763">
        <ele>169</ele>
        <time>2021-10-28T09:05:34Z</time>
      </trkpt>
      <trkpt lat="47.614758" lon="1.9418608">
        <ele>169</ele>
        <time>2021-10-28T09:05:35Z</time>
      </trkpt>
      <trkpt lat="47.614754" lon="1.9418428">
        <ele>169</ele>
        <time>2021-10-28T09:05:36Z</time>
      </trkpt>
      <trkpt lat="47.614758" lon="1.9418252">
        <ele>169</ele>
        <time>2021-10-28T09:05:37Z</time>
      </trkpt>
      <trkpt lat="47.614758" lon="1.9418068">
        <ele>169</ele>
        <time>2021-10-28T09:05:38Z</time>
      </trkpt>
      <trkpt lat="47.614765" lon="1.9417815">
        <ele>169</ele>
        <time>2021-10-28T09:05:39Z</time>
      </trkpt>
      <trkpt lat="47.614765" lon="1.9417615">
        <ele>169</ele>
        <time>2021-10-28T09:05:40Z</time>
      </trkpt>
      <trkpt lat="47.614765" lon="1.941744">
        <ele>170</ele>
        <time>2021-10-28T09:05:41Z</time>
      </trkpt>
      <trkpt lat="47.61477" lon="1.9417236">
        <ele>170</ele>
        <time>2021-10-28T09:05:42Z</time>
      </trkpt>
      <trkpt lat="47.614773" lon="1.9417084">
        <ele>170</ele>
        <time>2021-10-28T09:05:43Z</time>
      </trkpt>
      <trkpt lat="47.61477" lon="1.9416867">
        <ele>170</ele>
        <time>2021-10-28T09:05:44Z</time>
      </trkpt>
      <trkpt lat="47.61477" lon="1.9416662">
        <ele>170</ele>
        <time>2021-10-28T09:05:45Z</time>
      </trkpt>
      <trkpt lat="47.614765" lon="1.9416444">
        <ele>170</ele>
        <time>2021-10-28T09:05:46Z</time>
      </trkpt>
      <trkpt lat="47.61476" lon="1.9416277">
        <ele>170</ele>
        <time>2021-10-28T09:05:47Z</time>
      </trkpt>
      <trkpt lat="47.61476" lon="1.9416125">
        <ele>170</ele>
        <time>2021-10-28T09:05:48Z</time>
      </trkpt>
      <trkpt lat="47.61476" lon="1.9415921">
        <ele>170</ele>
        <time>2021-10-28T09:05:49Z</time>
      </trkpt>
      <trkpt lat="47.61476" lon="1.9415716">
        <ele>170</ele>
        <time>2021-10-28T09:05:50Z</time>
      </trkpt>
      <trkpt lat="47.614758" lon="1.9415556">
        <ele>170</ele>
        <time>2021-10-28T09:05:51Z</time>
      </trkpt>
      <trkpt lat="47.614754" lon="1.9415377">
        <ele>170</ele>
        <time>2021-10-28T09:05:52Z</time>
      </trkpt>
      <trkpt lat="47.61475" lon="1.9415264">
        <ele>171</ele>
        <time>2021-10-28T09:05:53Z</time>
      </trkpt>
      <trkpt lat="47.614746" lon="1.9415067">
        <ele>171</ele>
        <time>2021-10-28T09:05:54Z</time>
      </trkpt>
      <trkpt lat="47.614742" lon="1.9414897">
        <ele>171</ele>
        <time>2021-10-28T09:05:55Z</time>
      </trkpt>
      <trkpt lat="47.614742" lon="1.9414709">
        <ele>170</ele>
        <time>2021-10-28T09:05:56Z</time>
      </trkpt>
      <trkpt lat="47.614742" lon="1.9414499">
        <ele>171</ele>
        <time>2021-10-28T09:05:57Z</time>
      </trkpt>
      <trkpt lat="47.614742" lon="1.941433">
        <ele>171</ele>
        <time>2021-10-28T09:05:58Z</time>
      </trkpt>
      <trkpt lat="47.614746" lon="1.9414166">
        <ele>171</ele>
        <time>2021-10-28T09:05:59Z</time>
      </trkpt>
      <trkpt lat="47.614746" lon="1.9413947">
        <ele>171</ele>
        <time>2021-10-28T09:06:00Z</time>
      </trkpt>
      <trkpt lat="47.61475" lon="1.9413786">
        <ele>171</ele>
        <time>2021-10-28T09:06:01Z</time>
      </trkpt>
      <trkpt lat="47.614754" lon="1.9413615">
        <ele>171</ele>
        <time>2021-10-28T09:06:02Z</time>
      </trkpt>
      <trkpt lat="47.614754" lon="1.9413419">
        <ele>171</ele>
        <time>2021-10-28T09:06:03Z</time>
      </trkpt>
      <trkpt lat="47.61475" lon="1.9413238">
        <ele>171</ele>
        <time>2021-10-28T09:06:04Z</time>
      </trkpt>
      <trkpt lat="47.61475" lon="1.9413036">
        <ele>172</ele>
        <time>2021-10-28T09:06:05Z</time>
      </trkpt>
      <trkpt lat="47.614754" lon="1.9412833">
        <ele>172</ele>
        <time>2021-10-28T09:06:06Z</time>
      </trkpt>
      <trkpt lat="47.614758" lon="1.9412651">
        <ele>172</ele>
        <time>2021-10-28T09:06:07Z</time>
      </trkpt>
      <trkpt lat="47.614754" lon="1.9412482">
        <ele>172</ele>
        <time>2021-10-28T09:06:08Z</time>
      </trkpt>
      <trkpt lat="47.614758" lon="1.9412322">
        <ele>172</ele>
        <time>2021-10-28T09:06:09Z</time>
      </trkpt>
      <trkpt lat="47.614758" lon="1.9412148">
        <ele>173</ele>
        <time>2021-10-28T09:06:10Z</time>
      </trkpt>
      <trkpt lat="47.614754" lon="1.9411955">
        <ele>173</ele>
        <time>2021-10-28T09:06:11Z</time>
      </trkpt>
      <trkpt lat="47.614746" lon="1.9411793">
        <ele>173</ele>
        <time>2021-10-28T09:06:12Z</time>
      </trkpt>
      <trkpt lat="47.614746" lon="1.9411634">
        <ele>173</ele>
        <time>2021-10-28T09:06:13Z</time>
      </trkpt>
      <trkpt lat="47.614746" lon="1.9411459">
        <ele>173</ele>
        <time>2021-10-28T09:06:14Z</time>
      </trkpt>
      <trkpt lat="47.614742" lon="1.9411259">
        <ele>173</ele>
        <time>2021-10-28T09:06:15Z</time>
      </trkpt>
      <trkpt lat="47.61474" lon="1.9411016">
        <ele>174</ele>
        <time>2021-10-28T09:06:16Z</time>
      </trkpt>
      <trkpt lat="47.61473" lon="1.941077">
        <ele>174</ele>
        <time>2021-10-28T09:06:17Z</time>
      </trkpt>
      <trkpt lat="47.61473" lon="1.9410574">
        <ele>174</ele>
        <time>2021-10-28T09:06:18Z</time>
      </trkpt>
      <trkpt lat="47.61473" lon="1.9410396">
        <ele>174</ele>
        <time>2021-10-28T09:06:19Z</time>
      </trkpt>
      <trkpt lat="47.614727" lon="1.9410183">
        <ele>174</ele>
        <time>2021-10-28T09:06:20Z</time>
      </trkpt>
      <trkpt lat="47.614727" lon="1.9409997">
        <ele>174</ele>
        <time>2021-10-28T09:06:21Z</time>
      </trkpt>
      <trkpt lat="47.614727" lon="1.9409881">
        <ele>175</ele>
        <time>2021-10-28T09:06:22Z</time>
      </trkpt>
      <trkpt lat="47.614727" lon="1.9409709">
        <ele>175</ele>
        <time>2021-10-28T09:06:23Z</time>
      </trkpt>
      <trkpt lat="47.61472" lon="1.9409535">
        <ele>175</ele>
        <time>2021-10-28T09:06:24Z</time>
      </trkpt>
      <trkpt lat="47.614716" lon="1.9409337">
        <ele>175</ele>
        <time>2021-10-28T09:06:25Z</time>
      </trkpt>
      <trkpt lat="47.614716" lon="1.9409142">
        <ele>175</ele>
        <time>2021-10-28T09:06:26Z</time>
      </trkpt>
      <trkpt lat="47.614716" lon="1.9408946">
        <ele>175</ele>
        <time>2021-10-28T09:06:27Z</time>
      </trkpt>
      <trkpt lat="47.614716" lon="1.940876">
        <ele>175</ele>
        <time>2021-10-28T09:06:28Z</time>
      </trkpt>
      <trkpt lat="47.61471" lon="1.9408586">
        <ele>175</ele>
        <time>2021-10-28T09:06:29Z</time>
      </trkpt>
      <trkpt lat="47.614708" lon="1.9408429">
        <ele>175</ele>
        <time>2021-10-28T09:06:30Z</time>
      </trkpt>
      <trkpt lat="47.614708" lon="1.9408268">
        <ele>175</ele>
        <time>2021-10-28T09:06:31Z</time>
      </trkpt>
      <trkpt lat="47.614708" lon="1.9408089">
        <ele>175</ele>
        <time>2021-10-28T09:06:32Z</time>
      </trkpt>
      <trkpt lat="47.614704" lon="1.9407905">
        <ele>175</ele>
        <time>2021-10-28T09:06:33Z</time>
      </trkpt>
      <trkpt lat="47.614704" lon="1.9407717">
        <ele>176</ele>
        <time>2021-10-28T09:06:34Z</time>
      </trkpt>
      <trkpt lat="47.614697" lon="1.9407538">
        <ele>175</ele>
        <time>2021-10-28T09:06:35Z</time>
      </trkpt>
      <trkpt lat="47.614693" lon="1.9407396">
        <ele>175</ele>
        <time>2021-10-28T09:06:36Z</time>
      </trkpt>
      <trkpt lat="47.61469" lon="1.9407269">
        <ele>175</ele>
        <time>2021-10-28T09:06:37Z</time>
      </trkpt>
      <trkpt lat="47.614685" lon="1.9407123">
        <ele>175</ele>
        <time>2021-10-28T09:06:38Z</time>
      </trkpt>
      <trkpt lat="47.614685" lon="1.940698">
        <ele>175</ele>
        <time>2021-10-28T09:06:39Z</time>
      </trkpt>
      <trkpt lat="47.61469" lon="1.940682">
        <ele>174</ele>
        <time>2021-10-28T09:06:40Z</time>
      </trkpt>
      <trkpt lat="47.61469" lon="1.9406657">
        <ele>173</ele>
        <time>2021-10-28T09:06:41Z</time>
      </trkpt>
      <trkpt lat="47.614685" lon="1.9406437">
        <ele>173</ele>
        <time>2021-10-28T09:06:42Z</time>
      </trkpt>
      <trkpt lat="47.614677" lon="1.9406167">
        <ele>174</ele>
        <time>2021-10-28T09:06:43Z</time>
      </trkpt>
      <trkpt lat="47.614674" lon="1.9405965">
        <ele>174</ele>
        <time>2021-10-28T09:06:44Z</time>
      </trkpt>
      <trkpt lat="47.61467" lon="1.9405775">
        <ele>175</ele>
        <time>2021-10-28T09:06:45Z</time>
      </trkpt>
      <trkpt lat="47.61467" lon="1.9405695">
        <ele>176</ele>
        <time>2021-10-28T09:06:46Z</time>
      </trkpt>
      <trkpt lat="47.614666" lon="1.9405543">
        <ele>176</ele>
        <time>2021-10-28T09:06:47Z</time>
      </trkpt>
      <trkpt lat="47.614662" lon="1.9405363">
        <ele>176</ele>
        <time>2021-10-28T09:06:48Z</time>
      </trkpt>
      <trkpt lat="47.614662" lon="1.9405214">
        <ele>176</ele>
        <time>2021-10-28T09:06:49Z</time>
      </trkpt>
      <trkpt lat="47.614662" lon="1.9405075">
        <ele>176</ele>
        <time>2021-10-28T09:06:50Z</time>
      </trkpt>
      <trkpt lat="47.614662" lon="1.9404962">
        <ele>177</ele>
        <time>2021-10-28T09:06:51Z</time>
      </trkpt>
      <trkpt lat="47.61466" lon="1.9405005">
        <ele>176</ele>
        <time>2021-10-28T09:06:52Z</time>
      </trkpt>
      <trkpt lat="47.614655" lon="1.940492">
        <ele>176</ele>
        <time>2021-10-28T09:06:53Z</time>
      </trkpt>
      <trkpt lat="47.61465" lon="1.9404796">
        <ele>176</ele>
        <time>2021-10-28T09:06:54Z</time>
      </trkpt>
      <trkpt lat="47.61465" lon="1.9404796">
        <ele>176</ele>
        <time>2021-10-28T09:06:54Z</time>
      </trkpt>
    </trkseg>
    <trkseg>
      <trkpt lat="47.61465" lon="1.9404796">
        <ele>176</ele>
        <time>2021-10-28T09:06:54Z</time>
      </trkpt>
      <trkpt lat="47.614628" lon="1.9403971">
        <ele>175</ele>
        <time>2021-10-28T09:07:21Z</time>
      </trkpt>
      <trkpt lat="47.614624" lon="1.94038">
        <ele>175</ele>
        <time>2021-10-28T09:07:22Z</time>
      </trkpt>
      <trkpt lat="47.61462" lon="1.9403644">
        <ele>174</ele>
        <time>2021-10-28T09:07:23Z</time>
      </trkpt>
      <trkpt lat="47.614613" lon="1.9403592">
        <ele>174</ele>
        <time>2021-10-28T09:07:24Z</time>
      </trkpt>
      <trkpt lat="47.614613" lon="1.9403585">
        <ele>173</ele>
        <time>2021-10-28T09:07:25Z</time>
      </trkpt>
      <trkpt lat="47.614613" lon="1.9403657">
        <ele>173</ele>
        <time>2021-10-28T09:07:26Z</time>
      </trkpt>
      <trkpt lat="47.614613" lon="1.9403635">
        <ele>172</ele>
        <time>2021-10-28T09:07:27Z</time>
      </trkpt>
      <trkpt lat="47.614613" lon="1.9403635">
        <ele>172</ele>
        <time>2021-10-28T09:07:28Z</time>
      </trkpt>
      <trkpt lat="47.614613" lon="1.9403635">
        <ele>172</ele>
        <time>2021-10-28T09:07:29Z</time>
      </trkpt>
      <trkpt lat="47.614597" lon="1.9403677">
        <ele>170</ele>
        <time>2021-10-28T09:07:30Z</time>
      </trkpt>
      <trkpt lat="47.614594" lon="1.940373">
        <ele>170</ele>
        <time>2021-10-28T09:07:31Z</time>
      </trkpt>
      <trkpt lat="47.614594" lon="1.940373">
        <ele>170</ele>
        <time>2021-10-28T09:07:31Z</time>
      </trkpt>
    </trkseg>
    <trkseg>
      <trkpt lat="47.614594" lon="1.940373">
        <ele>170</ele>
        <time>2021-10-28T09:07:31Z</time>
      </trkpt>
    </trkseg>
  </trk>
</gpx>